<?xml version="1.0" encoding="UTF-8" standalone="no" ?>
<gpx xmlns="http://www.topografix.com/GPX/1/1" xmlns:xsi="http://www.w3.org/2001/XMLSchema-instance" xsi:schemaLocation="http://www.topografix.com/GPX/1/1 http://www.topografix.com/GPX/1/1/gpx.xsd" version="1.1" creator="VisuGPX - https://www.visugpx.com">
  <metadata>
    <name>Veynes Saint Georges de Commiers </name>
  </metadata>
  <trk>
    <name><![CDATA[Road ride]]></name>
    <trkseg>
      <trkpt lat="44.53823" lon="5.83643">
        <ele>831.254252</ele>
        <time>2025-07-10T06:00:11.000Z</time>
      </trkpt>
      <trkpt lat="44.53825" lon="5.83647">
        <ele>831.254252</ele>
        <time>2025-07-10T06:00:12.000Z</time>
      </trkpt>
      <trkpt lat="44.53827" lon="5.83651">
        <ele>831.254252</ele>
        <time>2025-07-10T06:00:13.000Z</time>
      </trkpt>
      <trkpt lat="44.53829" lon="5.83654">
        <ele>831.254252</ele>
        <time>2025-07-10T06:00:14.000Z</time>
      </trkpt>
      <trkpt lat="44.53831" lon="5.83658">
        <ele>831.254252</ele>
        <time>2025-07-10T06:00:15.000Z</time>
      </trkpt>
      <trkpt lat="44.53833" lon="5.83661">
        <ele>831.254252</ele>
        <time>2025-07-10T06:00:16.000Z</time>
      </trkpt>
      <trkpt lat="44.53834" lon="5.83665">
        <ele>831.254252</ele>
        <time>2025-07-10T06:00:17.000Z</time>
      </trkpt>
      <trkpt lat="44.53837" lon="5.83669">
        <ele>831.254252</ele>
        <time>2025-07-10T06:00:18.000Z</time>
      </trkpt>
      <trkpt lat="44.53839" lon="5.83673">
        <ele>831.254252</ele>
        <time>2025-07-10T06:00:19.000Z</time>
      </trkpt>
      <trkpt lat="44.53841" lon="5.83677">
        <ele>831.254252</ele>
        <time>2025-07-10T06:00:20.000Z</time>
      </trkpt>
      <trkpt lat="44.53843" lon="5.83682">
        <ele>831.254252</ele>
        <time>2025-07-10T06:00:21.000Z</time>
      </trkpt>
      <trkpt lat="44.53845" lon="5.83686">
        <ele>831.254252</ele>
        <time>2025-07-10T06:00:22.000Z</time>
      </trkpt>
      <trkpt lat="44.53847" lon="5.8369">
        <ele>831.254252</ele>
        <time>2025-07-10T06:00:23.000Z</time>
      </trkpt>
      <trkpt lat="44.53849" lon="5.83694">
        <ele>831.254252</ele>
        <time>2025-07-10T06:00:24.000Z</time>
      </trkpt>
      <trkpt lat="44.5385" lon="5.83698">
        <ele>831.254252</ele>
        <time>2025-07-10T06:00:25.000Z</time>
      </trkpt>
      <trkpt lat="44.53852" lon="5.83703">
        <ele>831.254252</ele>
        <time>2025-07-10T06:00:26.000Z</time>
      </trkpt>
      <trkpt lat="44.53854" lon="5.83706">
        <ele>831.254252</ele>
        <time>2025-07-10T06:00:27.000Z</time>
      </trkpt>
      <trkpt lat="44.53857" lon="5.8371">
        <ele>831.254252</ele>
        <time>2025-07-10T06:00:28.000Z</time>
      </trkpt>
      <trkpt lat="44.53859" lon="5.83713">
        <ele>831.254252</ele>
        <time>2025-07-10T06:00:29.000Z</time>
      </trkpt>
      <trkpt lat="44.53861" lon="5.83717">
        <ele>831.254252</ele>
        <time>2025-07-10T06:00:30.000Z</time>
      </trkpt>
      <trkpt lat="44.53863" lon="5.83721">
        <ele>831.254252</ele>
        <time>2025-07-10T06:00:31.000Z</time>
      </trkpt>
      <trkpt lat="44.53865" lon="5.83726">
        <ele>831.254252</ele>
        <time>2025-07-10T06:00:32.000Z</time>
      </trkpt>
      <trkpt lat="44.53867" lon="5.8373">
        <ele>831.254252</ele>
        <time>2025-07-10T06:00:33.000Z</time>
      </trkpt>
      <trkpt lat="44.53869" lon="5.83734">
        <ele>831.254252</ele>
        <time>2025-07-10T06:00:34.000Z</time>
      </trkpt>
      <trkpt lat="44.53872" lon="5.83738">
        <ele>831.254252</ele>
        <time>2025-07-10T06:00:35.000Z</time>
      </trkpt>
      <trkpt lat="44.53874" lon="5.83742">
        <ele>831.254252</ele>
        <time>2025-07-10T06:00:36.000Z</time>
      </trkpt>
      <trkpt lat="44.53876" lon="5.83746">
        <ele>831.268256</ele>
        <time>2025-07-10T06:00:37.000Z</time>
      </trkpt>
      <trkpt lat="44.53878" lon="5.8375">
        <ele>831.390995</ele>
        <time>2025-07-10T06:00:38.000Z</time>
      </trkpt>
      <trkpt lat="44.5388" lon="5.83754">
        <ele>831.515822</ele>
        <time>2025-07-10T06:00:39.000Z</time>
      </trkpt>
      <trkpt lat="44.53882" lon="5.83758">
        <ele>831.640615</ele>
        <time>2025-07-10T06:00:40.000Z</time>
      </trkpt>
      <trkpt lat="44.53884" lon="5.83762">
        <ele>831.765352</ele>
        <time>2025-07-10T06:00:41.000Z</time>
      </trkpt>
      <trkpt lat="44.53886" lon="5.83766">
        <ele>831.888092</ele>
        <time>2025-07-10T06:00:42.000Z</time>
      </trkpt>
      <trkpt lat="44.53888" lon="5.83771">
        <ele>832.017023</ele>
        <time>2025-07-10T06:00:43.000Z</time>
      </trkpt>
      <trkpt lat="44.5389" lon="5.83775">
        <ele>832.145805</ele>
        <time>2025-07-10T06:00:44.000Z</time>
      </trkpt>
      <trkpt lat="44.53893" lon="5.83779">
        <ele>832.270632</ele>
        <time>2025-07-10T06:00:45.000Z</time>
      </trkpt>
      <trkpt lat="44.53895" lon="5.83783">
        <ele>832.395458</ele>
        <time>2025-07-10T06:00:46.000Z</time>
      </trkpt>
      <trkpt lat="44.53897" lon="5.83787">
        <ele>832.518197</ele>
        <time>2025-07-10T06:00:47.000Z</time>
      </trkpt>
      <trkpt lat="44.53899" lon="5.83791">
        <ele>832.640936</ele>
        <time>2025-07-10T06:00:48.000Z</time>
      </trkpt>
      <trkpt lat="44.53901" lon="5.83795">
        <ele>832.763676</ele>
        <time>2025-07-10T06:00:49.000Z</time>
      </trkpt>
      <trkpt lat="44.53903" lon="5.83799">
        <ele>832.886555</ele>
        <time>2025-07-10T06:00:50.000Z</time>
      </trkpt>
      <trkpt lat="44.53905" lon="5.83803">
        <ele>833.017327</ele>
        <time>2025-07-10T06:00:51.000Z</time>
      </trkpt>
      <trkpt lat="44.53908" lon="5.83807">
        <ele>833.142153</ele>
        <time>2025-07-10T06:00:52.000Z</time>
      </trkpt>
      <trkpt lat="44.5391" lon="5.83811">
        <ele>833.258864</ele>
        <time>2025-07-10T06:00:53.000Z</time>
      </trkpt>
      <trkpt lat="44.53912" lon="5.83815">
        <ele>833.375718</ele>
        <time>2025-07-10T06:00:54.000Z</time>
      </trkpt>
      <trkpt lat="44.53914" lon="5.83818">
        <ele>833.494762</ele>
        <time>2025-07-10T06:00:55.000Z</time>
      </trkpt>
      <trkpt lat="44.53916" lon="5.83822">
        <ele>833.611474</ele>
        <time>2025-07-10T06:00:56.000Z</time>
      </trkpt>
      <trkpt lat="44.53918" lon="5.83826">
        <ele>833.728185</ele>
        <time>2025-07-10T06:00:57.000Z</time>
      </trkpt>
      <trkpt lat="44.5392" lon="5.8383">
        <ele>833.843116</ele>
        <time>2025-07-10T06:00:58.000Z</time>
      </trkpt>
      <trkpt lat="44.53921" lon="5.83834">
        <ele>833.95396</ele>
        <time>2025-07-10T06:00:59.000Z</time>
      </trkpt>
      <trkpt lat="44.53923" lon="5.83838">
        <ele>834.070832</ele>
        <time>2025-07-10T06:01:00.000Z</time>
      </trkpt>
      <trkpt lat="44.53925" lon="5.83841">
        <ele>834.175639</ele>
        <time>2025-07-10T06:01:01.000Z</time>
      </trkpt>
      <trkpt lat="44.53927" lon="5.83844">
        <ele>834.280277</ele>
        <time>2025-07-10T06:01:02.000Z</time>
      </trkpt>
      <trkpt lat="44.53929" lon="5.83848">
        <ele>834.385084</ele>
        <time>2025-07-10T06:01:03.000Z</time>
      </trkpt>
      <trkpt lat="44.53931" lon="5.83851">
        <ele>834.491714</ele>
        <time>2025-07-10T06:01:04.000Z</time>
      </trkpt>
      <trkpt lat="44.53932" lon="5.83855">
        <ele>834.596531</ele>
        <time>2025-07-10T06:01:05.000Z</time>
      </trkpt>
      <trkpt lat="44.53934" lon="5.83858">
        <ele>834.695136</ele>
        <time>2025-07-10T06:01:06.000Z</time>
      </trkpt>
      <trkpt lat="44.53936" lon="5.83861">
        <ele>834.801876</ele>
        <time>2025-07-10T06:01:07.000Z</time>
      </trkpt>
      <trkpt lat="44.53938" lon="5.83865">
        <ele>834.908507</ele>
        <time>2025-07-10T06:01:08.000Z</time>
      </trkpt>
      <trkpt lat="44.53939" lon="5.83868">
        <ele>835.011171</ele>
        <time>2025-07-10T06:01:09.000Z</time>
      </trkpt>
      <trkpt lat="44.53941" lon="5.83872">
        <ele>835.113899</ele>
        <time>2025-07-10T06:01:10.000Z</time>
      </trkpt>
      <trkpt lat="44.53943" lon="5.83875">
        <ele>835.218539</ele>
        <time>2025-07-10T06:01:11.000Z</time>
      </trkpt>
      <trkpt lat="44.53944" lon="5.83879">
        <ele>835.32517</ele>
        <time>2025-07-10T06:01:12.000Z</time>
      </trkpt>
      <trkpt lat="44.53946" lon="5.83882">
        <ele>835.427834</ele>
        <time>2025-07-10T06:01:13.000Z</time>
      </trkpt>
      <trkpt lat="44.53948" lon="5.83885">
        <ele>835.524406</ele>
        <time>2025-07-10T06:01:14.000Z</time>
      </trkpt>
      <trkpt lat="44.5395" lon="5.83888">
        <ele>835.625417</ele>
        <time>2025-07-10T06:01:15.000Z</time>
      </trkpt>
      <trkpt lat="44.53952" lon="5.83891">
        <ele>835.726428</ele>
        <time>2025-07-10T06:01:16.000Z</time>
      </trkpt>
      <trkpt lat="44.53953" lon="5.83895">
        <ele>835.827023</ele>
        <time>2025-07-10T06:01:17.000Z</time>
      </trkpt>
      <trkpt lat="44.53955" lon="5.83898">
        <ele>835.933654</ele>
        <time>2025-07-10T06:01:18.000Z</time>
      </trkpt>
      <trkpt lat="44.53957" lon="5.83901">
        <ele>836.034367</ele>
        <time>2025-07-10T06:01:19.000Z</time>
      </trkpt>
      <trkpt lat="44.53959" lon="5.83905">
        <ele>836.135024</ele>
        <time>2025-07-10T06:01:20.000Z</time>
      </trkpt>
      <trkpt lat="44.5396" lon="5.83908">
        <ele>836.235737</ele>
        <time>2025-07-10T06:01:21.000Z</time>
      </trkpt>
      <trkpt lat="44.53962" lon="5.83911">
        <ele>836.338465</ele>
        <time>2025-07-10T06:01:22.000Z</time>
      </trkpt>
      <trkpt lat="44.53964" lon="5.83915">
        <ele>836.441362</ele>
        <time>2025-07-10T06:01:23.000Z</time>
      </trkpt>
      <trkpt lat="44.53966" lon="5.83918">
        <ele>836.544258</ele>
        <time>2025-07-10T06:01:24.000Z</time>
      </trkpt>
      <trkpt lat="44.53967" lon="5.83921">
        <ele>836.642861</ele>
        <time>2025-07-10T06:01:25.000Z</time>
      </trkpt>
      <trkpt lat="44.53969" lon="5.83924">
        <ele>836.731525</ele>
        <time>2025-07-10T06:01:26.000Z</time>
      </trkpt>
      <trkpt lat="44.53971" lon="5.83927">
        <ele>836.826149</ele>
        <time>2025-07-10T06:01:27.000Z</time>
      </trkpt>
      <trkpt lat="44.53972" lon="5.8393">
        <ele>836.922721</ele>
        <time>2025-07-10T06:01:28.000Z</time>
      </trkpt>
      <trkpt lat="44.53974" lon="5.83933">
        <ele>837.021871</ele>
        <time>2025-07-10T06:01:29.000Z</time>
      </trkpt>
      <trkpt lat="44.53976" lon="5.83936">
        <ele>837.118505</ele>
        <time>2025-07-10T06:01:30.000Z</time>
      </trkpt>
      <trkpt lat="44.53977" lon="5.83939">
        <ele>837.200995</ele>
        <time>2025-07-10T06:01:31.000Z</time>
      </trkpt>
      <trkpt lat="44.53979" lon="5.83942">
        <ele>837.295682</ele>
        <time>2025-07-10T06:01:32.000Z</time>
      </trkpt>
      <trkpt lat="44.5398" lon="5.83945">
        <ele>837.390306</ele>
        <time>2025-07-10T06:01:33.000Z</time>
      </trkpt>
      <trkpt lat="44.53982" lon="5.83948">
        <ele>837.476843</ele>
        <time>2025-07-10T06:01:34.000Z</time>
      </trkpt>
      <trkpt lat="44.53983" lon="5.83951">
        <ele>837.597501</ele>
        <time>2025-07-10T06:01:35.000Z</time>
      </trkpt>
      <trkpt lat="44.53985" lon="5.83954">
        <ele>837.720025</ele>
        <time>2025-07-10T06:01:36.000Z</time>
      </trkpt>
      <trkpt lat="44.53987" lon="5.83957">
        <ele>837.839611</ele>
        <time>2025-07-10T06:01:37.000Z</time>
      </trkpt>
      <trkpt lat="44.53988" lon="5.83959">
        <ele>837.954096</ele>
        <time>2025-07-10T06:01:38.000Z</time>
      </trkpt>
      <trkpt lat="44.53989" lon="5.83962">
        <ele>838.062641</ele>
        <time>2025-07-10T06:01:39.000Z</time>
      </trkpt>
      <trkpt lat="44.53991" lon="5.83965">
        <ele>838.185165</ele>
        <time>2025-07-10T06:01:40.000Z</time>
      </trkpt>
      <trkpt lat="44.53992" lon="5.83968">
        <ele>838.301936</ele>
        <time>2025-07-10T06:01:41.000Z</time>
      </trkpt>
      <trkpt lat="44.53994" lon="5.8397">
        <ele>838.421518</ele>
        <time>2025-07-10T06:01:42.000Z</time>
      </trkpt>
      <trkpt lat="44.53995" lon="5.83973">
        <ele>838.536699</ele>
        <time>2025-07-10T06:01:43.000Z</time>
      </trkpt>
      <trkpt lat="44.53996" lon="5.83976">
        <ele>838.648267</ele>
        <time>2025-07-10T06:01:44.000Z</time>
      </trkpt>
      <trkpt lat="44.53998" lon="5.83978">
        <ele>838.759835</ele>
        <time>2025-07-10T06:01:45.000Z</time>
      </trkpt>
      <trkpt lat="44.53999" lon="5.83981">
        <ele>838.87671</ele>
        <time>2025-07-10T06:01:46.000Z</time>
      </trkpt>
      <trkpt lat="44.54" lon="5.83984">
        <ele>838.987952</ele>
        <time>2025-07-10T06:01:47.000Z</time>
      </trkpt>
      <trkpt lat="44.54002" lon="5.83987">
        <ele>839.096585</ele>
        <time>2025-07-10T06:01:48.000Z</time>
      </trkpt>
      <trkpt lat="44.54003" lon="5.83989">
        <ele>839.210578</ele>
        <time>2025-07-10T06:01:49.000Z</time>
      </trkpt>
      <trkpt lat="44.54004" lon="5.83992">
        <ele>839.327349</ele>
        <time>2025-07-10T06:01:50.000Z</time>
      </trkpt>
      <trkpt lat="44.54006" lon="5.83995">
        <ele>839.44206</ele>
        <time>2025-07-10T06:01:51.000Z</time>
      </trkpt>
      <trkpt lat="44.54007" lon="5.83997">
        <ele>839.547713</ele>
        <time>2025-07-10T06:01:52.000Z</time>
      </trkpt>
      <trkpt lat="44.54009" lon="5.83999">
        <ele>839.653595</ele>
        <time>2025-07-10T06:01:53.000Z</time>
      </trkpt>
      <trkpt lat="44.5401" lon="5.84002">
        <ele>839.767682</ele>
        <time>2025-07-10T06:01:54.000Z</time>
      </trkpt>
      <trkpt lat="44.54011" lon="5.84005">
        <ele>839.881769</ele>
        <time>2025-07-10T06:01:55.000Z</time>
      </trkpt>
      <trkpt lat="44.54013" lon="5.84008">
        <ele>840.007062</ele>
        <time>2025-07-10T06:01:56.000Z</time>
      </trkpt>
      <trkpt lat="44.54014" lon="5.84011">
        <ele>840.112814</ele>
        <time>2025-07-10T06:01:57.000Z</time>
      </trkpt>
      <trkpt lat="44.54015" lon="5.84013">
        <ele>840.221447</ele>
        <time>2025-07-10T06:01:58.000Z</time>
      </trkpt>
      <trkpt lat="44.54016" lon="5.84016">
        <ele>840.321536</ele>
        <time>2025-07-10T06:01:59.000Z</time>
      </trkpt>
      <trkpt lat="44.54018" lon="5.84018">
        <ele>840.427418</ele>
        <time>2025-07-10T06:02:00.000Z</time>
      </trkpt>
      <trkpt lat="44.54019" lon="5.84021">
        <ele>840.54141</ele>
        <time>2025-07-10T06:02:01.000Z</time>
      </trkpt>
      <trkpt lat="44.54021" lon="5.84023">
        <ele>840.647292</ele>
        <time>2025-07-10T06:02:02.000Z</time>
      </trkpt>
      <trkpt lat="44.54022" lon="5.84026">
        <ele>840.76717</ele>
        <time>2025-07-10T06:02:03.000Z</time>
      </trkpt>
      <trkpt lat="44.54024" lon="5.84028">
        <ele>840.879364</ele>
        <time>2025-07-10T06:02:04.000Z</time>
      </trkpt>
      <trkpt lat="44.54025" lon="5.84031">
        <ele>840.991558</ele>
        <time>2025-07-10T06:02:05.000Z</time>
      </trkpt>
      <trkpt lat="44.54027" lon="5.84033">
        <ele>841.094461</ele>
        <time>2025-07-10T06:02:06.000Z</time>
      </trkpt>
      <trkpt lat="44.54028" lon="5.84036">
        <ele>841.208453</ele>
        <time>2025-07-10T06:02:07.000Z</time>
      </trkpt>
      <trkpt lat="44.54029" lon="5.84039">
        <ele>841.320021</ele>
        <time>2025-07-10T06:02:08.000Z</time>
      </trkpt>
      <trkpt lat="44.54031" lon="5.84041">
        <ele>841.434505</ele>
        <time>2025-07-10T06:02:09.000Z</time>
      </trkpt>
      <trkpt lat="44.54032" lon="5.84044">
        <ele>841.540256</ele>
        <time>2025-07-10T06:02:10.000Z</time>
      </trkpt>
      <trkpt lat="44.54033" lon="5.84047">
        <ele>841.654457</ele>
        <time>2025-07-10T06:02:11.000Z</time>
      </trkpt>
      <trkpt lat="44.54035" lon="5.84049">
        <ele>841.768449</ele>
        <time>2025-07-10T06:02:12.000Z</time>
      </trkpt>
      <trkpt lat="44.54036" lon="5.84052">
        <ele>841.888034</ele>
        <time>2025-07-10T06:02:13.000Z</time>
      </trkpt>
      <trkpt lat="44.54038" lon="5.84055">
        <ele>842.004909</ele>
        <time>2025-07-10T06:02:14.000Z</time>
      </trkpt>
      <trkpt lat="44.54039" lon="5.84058">
        <ele>842.113542</ele>
        <time>2025-07-10T06:02:15.000Z</time>
      </trkpt>
      <trkpt lat="44.5404" lon="5.8406">
        <ele>842.230504</ele>
        <time>2025-07-10T06:02:16.000Z</time>
      </trkpt>
      <trkpt lat="44.54042" lon="5.84063">
        <ele>842.350085</ele>
        <time>2025-07-10T06:02:17.000Z</time>
      </trkpt>
      <trkpt lat="44.54043" lon="5.84066">
        <ele>842.466855</ele>
        <time>2025-07-10T06:02:18.000Z</time>
      </trkpt>
      <trkpt lat="44.54044" lon="5.84069">
        <ele>842.575284</ele>
        <time>2025-07-10T06:02:19.000Z</time>
      </trkpt>
      <trkpt lat="44.54046" lon="5.84071">
        <ele>842.683714</ele>
        <time>2025-07-10T06:02:20.000Z</time>
      </trkpt>
      <trkpt lat="44.54047" lon="5.84074">
        <ele>842.789595</ele>
        <time>2025-07-10T06:02:21.000Z</time>
      </trkpt>
      <trkpt lat="44.54049" lon="5.84077">
        <ele>842.90918</ele>
        <time>2025-07-10T06:02:22.000Z</time>
      </trkpt>
      <trkpt lat="44.5405" lon="5.84079">
        <ele>843.023172</ele>
        <time>2025-07-10T06:02:23.000Z</time>
      </trkpt>
      <trkpt lat="44.54051" lon="5.84082">
        <ele>843.134717</ele>
        <time>2025-07-10T06:02:24.000Z</time>
      </trkpt>
      <trkpt lat="44.54053" lon="5.84085">
        <ele>843.257139</ele>
        <time>2025-07-10T06:02:25.000Z</time>
      </trkpt>
      <trkpt lat="44.54054" lon="5.84088">
        <ele>843.368388</ele>
        <time>2025-07-10T06:02:26.000Z</time>
      </trkpt>
      <trkpt lat="44.54056" lon="5.8409">
        <ele>843.485662</ele>
        <time>2025-07-10T06:02:27.000Z</time>
      </trkpt>
      <trkpt lat="44.54057" lon="5.84093">
        <ele>843.602935</ele>
        <time>2025-07-10T06:02:28.000Z</time>
      </trkpt>
      <trkpt lat="44.54059" lon="5.84095">
        <ele>843.723393</ele>
        <time>2025-07-10T06:02:29.000Z</time>
      </trkpt>
      <trkpt lat="44.5406" lon="5.84098">
        <ele>843.840163</ele>
        <time>2025-07-10T06:02:30.000Z</time>
      </trkpt>
      <trkpt lat="44.54062" lon="5.84101">
        <ele>843.960029</ele>
        <time>2025-07-10T06:02:31.000Z</time>
      </trkpt>
      <trkpt lat="44.54063" lon="5.84104">
        <ele>844.079614</ele>
        <time>2025-07-10T06:02:32.000Z</time>
      </trkpt>
      <trkpt lat="44.54065" lon="5.84107">
        <ele>844.201945</ele>
        <time>2025-07-10T06:02:33.000Z</time>
      </trkpt>
      <trkpt lat="44.54066" lon="5.8411">
        <ele>844.318907</ele>
        <time>2025-07-10T06:02:34.000Z</time>
      </trkpt>
      <trkpt lat="44.54067" lon="5.84113">
        <ele>844.444111</ele>
        <time>2025-07-10T06:02:35.000Z</time>
      </trkpt>
      <trkpt lat="44.54069" lon="5.84116">
        <ele>844.572033</ele>
        <time>2025-07-10T06:02:36.000Z</time>
      </trkpt>
      <trkpt lat="44.54071" lon="5.84119">
        <ele>844.699953</ele>
        <time>2025-07-10T06:02:37.000Z</time>
      </trkpt>
      <trkpt lat="44.54072" lon="5.84121">
        <ele>844.814154</ele>
        <time>2025-07-10T06:02:38.000Z</time>
      </trkpt>
      <trkpt lat="44.54073" lon="5.84124">
        <ele>844.919905</ele>
        <time>2025-07-10T06:02:39.000Z</time>
      </trkpt>
      <trkpt lat="44.54075" lon="5.84127">
        <ele>845.042327</ele>
        <time>2025-07-10T06:02:40.000Z</time>
      </trkpt>
      <trkpt lat="44.54076" lon="5.8413">
        <ele>845.168077</ele>
        <time>2025-07-10T06:02:41.000Z</time>
      </trkpt>
      <trkpt lat="44.54077" lon="5.84133">
        <ele>845.293827</ele>
        <time>2025-07-10T06:02:42.000Z</time>
      </trkpt>
      <trkpt lat="44.54079" lon="5.84136">
        <ele>845.416349</ele>
        <time>2025-07-10T06:02:43.000Z</time>
      </trkpt>
      <trkpt lat="44.54081" lon="5.84139">
        <ele>845.548338</ele>
        <time>2025-07-10T06:02:44.000Z</time>
      </trkpt>
      <trkpt lat="44.54082" lon="5.84142">
        <ele>845.673912</ele>
        <time>2025-07-10T06:02:45.000Z</time>
      </trkpt>
      <trkpt lat="44.54084" lon="5.84145">
        <ele>845.799022</ele>
        <time>2025-07-10T06:02:46.000Z</time>
      </trkpt>
      <trkpt lat="44.54086" lon="5.84148">
        <ele>845.935532</ele>
        <time>2025-07-10T06:02:47.000Z</time>
      </trkpt>
      <trkpt lat="44.54087" lon="5.84151">
        <ele>846.061107</ele>
        <time>2025-07-10T06:02:48.000Z</time>
      </trkpt>
      <trkpt lat="44.54089" lon="5.84154">
        <ele>846.155331</ele>
        <time>2025-07-10T06:02:49.000Z</time>
      </trkpt>
      <trkpt lat="44.54091" lon="5.84156">
        <ele>846.237661</ele>
        <time>2025-07-10T06:02:50.000Z</time>
      </trkpt>
      <trkpt lat="44.54093" lon="5.84158">
        <ele>846.324918</ele>
        <time>2025-07-10T06:02:51.000Z</time>
      </trkpt>
      <trkpt lat="44.54094" lon="5.84161">
        <ele>846.410572</ele>
        <time>2025-07-10T06:02:52.000Z</time>
      </trkpt>
      <trkpt lat="44.54096" lon="5.84163">
        <ele>846.490531</ele>
        <time>2025-07-10T06:02:53.000Z</time>
      </trkpt>
      <trkpt lat="44.54098" lon="5.84166">
        <ele>846.579263</ele>
        <time>2025-07-10T06:02:54.000Z</time>
      </trkpt>
      <trkpt lat="44.54099" lon="5.84169">
        <ele>846.666183</ele>
        <time>2025-07-10T06:02:55.000Z</time>
      </trkpt>
      <trkpt lat="44.54101" lon="5.84172">
        <ele>846.751317</ele>
        <time>2025-07-10T06:02:56.000Z</time>
      </trkpt>
      <trkpt lat="44.54103" lon="5.84175">
        <ele>846.840049</ele>
        <time>2025-07-10T06:02:57.000Z</time>
      </trkpt>
      <trkpt lat="44.54104" lon="5.84178">
        <ele>846.926713</ele>
        <time>2025-07-10T06:02:58.000Z</time>
      </trkpt>
      <trkpt lat="44.54106" lon="5.84181">
        <ele>847.021028</ele>
        <time>2025-07-10T06:02:59.000Z</time>
      </trkpt>
      <trkpt lat="44.54107" lon="5.84184">
        <ele>847.108069</ele>
        <time>2025-07-10T06:03:00.000Z</time>
      </trkpt>
      <trkpt lat="44.54109" lon="5.84187">
        <ele>847.202383</ele>
        <time>2025-07-10T06:03:01.000Z</time>
      </trkpt>
      <trkpt lat="44.54111" lon="5.8419">
        <ele>847.301194</ele>
        <time>2025-07-10T06:03:02.000Z</time>
      </trkpt>
      <trkpt lat="44.54113" lon="5.84193">
        <ele>847.393625</ele>
        <time>2025-07-10T06:03:03.000Z</time>
      </trkpt>
      <trkpt lat="44.54114" lon="5.84197">
        <ele>847.484072</ele>
        <time>2025-07-10T06:03:04.000Z</time>
      </trkpt>
      <trkpt lat="44.54116" lon="5.842">
        <ele>847.570797</ele>
        <time>2025-07-10T06:03:05.000Z</time>
      </trkpt>
      <trkpt lat="44.54117" lon="5.84203">
        <ele>847.665112</ele>
        <time>2025-07-10T06:03:06.000Z</time>
      </trkpt>
      <trkpt lat="44.54119" lon="5.84206">
        <ele>847.757604</ele>
        <time>2025-07-10T06:03:07.000Z</time>
      </trkpt>
      <trkpt lat="44.5412" lon="5.84209">
        <ele>847.843052</ele>
        <time>2025-07-10T06:03:08.000Z</time>
      </trkpt>
      <trkpt lat="44.54122" lon="5.84213">
        <ele>847.935543</ele>
        <time>2025-07-10T06:03:09.000Z</time>
      </trkpt>
      <trkpt lat="44.54123" lon="5.84216">
        <ele>848.026295</ele>
        <time>2025-07-10T06:03:10.000Z</time>
      </trkpt>
      <trkpt lat="44.54124" lon="5.84219">
        <ele>848.119086</ele>
        <time>2025-07-10T06:03:11.000Z</time>
      </trkpt>
      <trkpt lat="44.54126" lon="5.84223">
        <ele>848.210263</ele>
        <time>2025-07-10T06:03:12.000Z</time>
      </trkpt>
      <trkpt lat="44.54127" lon="5.84226">
        <ele>848.30144</ele>
        <time>2025-07-10T06:03:13.000Z</time>
      </trkpt>
      <trkpt lat="44.54129" lon="5.8423">
        <ele>848.397949</ele>
        <time>2025-07-10T06:03:14.000Z</time>
      </trkpt>
      <trkpt lat="44.5413" lon="5.84233">
        <ele>848.486681</ele>
        <time>2025-07-10T06:03:15.000Z</time>
      </trkpt>
      <trkpt lat="44.54132" lon="5.84236">
        <ele>848.569649</ele>
        <time>2025-07-10T06:03:16.000Z</time>
      </trkpt>
      <trkpt lat="44.54133" lon="5.84239">
        <ele>848.659306</ele>
        <time>2025-07-10T06:03:17.000Z</time>
      </trkpt>
      <trkpt lat="44.54134" lon="5.84242">
        <ele>848.748407</ele>
        <time>2025-07-10T06:03:18.000Z</time>
      </trkpt>
      <trkpt lat="44.54136" lon="5.84246">
        <ele>848.842723</ele>
        <time>2025-07-10T06:03:19.000Z</time>
      </trkpt>
      <trkpt lat="44.54137" lon="5.84249">
        <ele>848.940867</ele>
        <time>2025-07-10T06:03:20.000Z</time>
      </trkpt>
      <trkpt lat="44.54139" lon="5.84253">
        <ele>849.037779</ele>
        <time>2025-07-10T06:03:21.000Z</time>
      </trkpt>
      <trkpt lat="44.5414" lon="5.84256">
        <ele>849.136321</ele>
        <time>2025-07-10T06:03:22.000Z</time>
      </trkpt>
      <trkpt lat="44.54142" lon="5.8426">
        <ele>849.236407</ele>
        <time>2025-07-10T06:03:23.000Z</time>
      </trkpt>
      <trkpt lat="44.54144" lon="5.84263">
        <ele>849.334827</ele>
        <time>2025-07-10T06:03:24.000Z</time>
      </trkpt>
      <trkpt lat="44.54146" lon="5.84266">
        <ele>849.433026</ele>
        <time>2025-07-10T06:03:25.000Z</time>
      </trkpt>
      <trkpt lat="44.54147" lon="5.8427">
        <ele>849.537054</ele>
        <time>2025-07-10T06:03:26.000Z</time>
      </trkpt>
      <trkpt lat="44.54149" lon="5.84273">
        <ele>849.635596</ele>
        <time>2025-07-10T06:03:27.000Z</time>
      </trkpt>
      <trkpt lat="44.54151" lon="5.84277">
        <ele>849.737645</ele>
        <time>2025-07-10T06:03:28.000Z</time>
      </trkpt>
      <trkpt lat="44.54152" lon="5.8428">
        <ele>849.83579</ele>
        <time>2025-07-10T06:03:29.000Z</time>
      </trkpt>
      <trkpt lat="44.54154" lon="5.84284">
        <ele>849.937782</ele>
        <time>2025-07-10T06:03:30.000Z</time>
      </trkpt>
      <trkpt lat="44.54156" lon="5.84287">
        <ele>850.038029</ele>
        <time>2025-07-10T06:03:31.000Z</time>
      </trkpt>
      <trkpt lat="44.54158" lon="5.8429">
        <ele>850.134646</ele>
        <time>2025-07-10T06:03:32.000Z</time>
      </trkpt>
      <trkpt lat="44.5416" lon="5.84293">
        <ele>850.227315</ele>
        <time>2025-07-10T06:03:33.000Z</time>
      </trkpt>
      <trkpt lat="44.54161" lon="5.84297">
        <ele>850.325459</ele>
        <time>2025-07-10T06:03:34.000Z</time>
      </trkpt>
      <trkpt lat="44.54163" lon="5.843">
        <ele>850.423603</ele>
        <time>2025-07-10T06:03:35.000Z</time>
      </trkpt>
      <trkpt lat="44.54165" lon="5.84304">
        <ele>850.521747</ele>
        <time>2025-07-10T06:03:36.000Z</time>
      </trkpt>
      <trkpt lat="44.54167" lon="5.84307">
        <ele>850.625665</ele>
        <time>2025-07-10T06:03:37.000Z</time>
      </trkpt>
      <trkpt lat="44.54168" lon="5.84311">
        <ele>850.729582</ele>
        <time>2025-07-10T06:03:38.000Z</time>
      </trkpt>
      <trkpt lat="44.5417" lon="5.84314">
        <ele>850.827726</ele>
        <time>2025-07-10T06:03:39.000Z</time>
      </trkpt>
      <trkpt lat="44.54172" lon="5.84318">
        <ele>850.931643</ele>
        <time>2025-07-10T06:03:40.000Z</time>
      </trkpt>
      <trkpt lat="44.54174" lon="5.84321">
        <ele>851.031728</ele>
        <time>2025-07-10T06:03:41.000Z</time>
      </trkpt>
      <trkpt lat="44.54176" lon="5.84324">
        <ele>851.134092</ele>
        <time>2025-07-10T06:03:42.000Z</time>
      </trkpt>
      <trkpt lat="44.54178" lon="5.84328">
        <ele>851.236883</ele>
        <time>2025-07-10T06:03:43.000Z</time>
      </trkpt>
      <trkpt lat="44.5418" lon="5.84331">
        <ele>851.335081</ele>
        <time>2025-07-10T06:03:44.000Z</time>
      </trkpt>
      <trkpt lat="44.54182" lon="5.84335">
        <ele>851.440937</ele>
        <time>2025-07-10T06:03:45.000Z</time>
      </trkpt>
      <trkpt lat="44.54183" lon="5.84338">
        <ele>851.544854</ele>
        <time>2025-07-10T06:03:46.000Z</time>
      </trkpt>
      <trkpt lat="44.54185" lon="5.84342">
        <ele>851.646903</ele>
        <time>2025-07-10T06:03:47.000Z</time>
      </trkpt>
      <trkpt lat="44.54187" lon="5.84345">
        <ele>851.753219</ele>
        <time>2025-07-10T06:03:48.000Z</time>
      </trkpt>
      <trkpt lat="44.54189" lon="5.84349">
        <ele>851.853304</ele>
        <time>2025-07-10T06:03:49.000Z</time>
      </trkpt>
      <trkpt lat="44.54191" lon="5.84352">
        <ele>851.951502</ele>
        <time>2025-07-10T06:03:50.000Z</time>
      </trkpt>
      <trkpt lat="44.54193" lon="5.84355">
        <ele>852.053493</ele>
        <time>2025-07-10T06:03:51.000Z</time>
      </trkpt>
      <trkpt lat="44.54194" lon="5.84359">
        <ele>852.08285</ele>
        <time>2025-07-10T06:03:52.000Z</time>
      </trkpt>
      <trkpt lat="44.54196" lon="5.84363">
        <ele>852.099746</ele>
        <time>2025-07-10T06:03:53.000Z</time>
      </trkpt>
      <trkpt lat="44.54198" lon="5.84366">
        <ele>852.116974</ele>
        <time>2025-07-10T06:03:54.000Z</time>
      </trkpt>
      <trkpt lat="44.542" lon="5.8437">
        <ele>852.133863</ele>
        <time>2025-07-10T06:03:55.000Z</time>
      </trkpt>
      <trkpt lat="44.54202" lon="5.84373">
        <ele>852.151689</ele>
        <time>2025-07-10T06:03:56.000Z</time>
      </trkpt>
      <trkpt lat="44.54204" lon="5.84377">
        <ele>852.169219</ele>
        <time>2025-07-10T06:03:57.000Z</time>
      </trkpt>
      <trkpt lat="44.54206" lon="5.84381">
        <ele>852.187384</ele>
        <time>2025-07-10T06:03:58.000Z</time>
      </trkpt>
      <trkpt lat="44.54208" lon="5.84385">
        <ele>852.205525</ele>
        <time>2025-07-10T06:03:59.000Z</time>
      </trkpt>
      <trkpt lat="44.5421" lon="5.84388">
        <ele>852.22369</ele>
        <time>2025-07-10T06:04:00.000Z</time>
      </trkpt>
      <trkpt lat="44.54212" lon="5.84392">
        <ele>852.241832</ele>
        <time>2025-07-10T06:04:01.000Z</time>
      </trkpt>
      <trkpt lat="44.54214" lon="5.84396">
        <ele>852.259676</ele>
        <time>2025-07-10T06:04:02.000Z</time>
      </trkpt>
      <trkpt lat="44.54216" lon="5.844">
        <ele>852.277843</ele>
        <time>2025-07-10T06:04:03.000Z</time>
      </trkpt>
      <trkpt lat="44.54218" lon="5.84404">
        <ele>852.296304</ele>
        <time>2025-07-10T06:04:04.000Z</time>
      </trkpt>
      <trkpt lat="44.5422" lon="5.84408">
        <ele>852.316013</ele>
        <time>2025-07-10T06:04:05.000Z</time>
      </trkpt>
      <trkpt lat="44.54222" lon="5.84412">
        <ele>852.335417</ele>
        <time>2025-07-10T06:04:06.000Z</time>
      </trkpt>
      <trkpt lat="44.54224" lon="5.84416">
        <ele>852.354807</ele>
        <time>2025-07-10T06:04:07.000Z</time>
      </trkpt>
      <trkpt lat="44.54226" lon="5.8442">
        <ele>852.37451</ele>
        <time>2025-07-10T06:04:08.000Z</time>
      </trkpt>
      <trkpt lat="44.54228" lon="5.84425">
        <ele>852.3939</ele>
        <time>2025-07-10T06:04:09.000Z</time>
      </trkpt>
      <trkpt lat="44.5423" lon="5.84429">
        <ele>852.413919</ele>
        <time>2025-07-10T06:04:10.000Z</time>
      </trkpt>
      <trkpt lat="44.54233" lon="5.84433">
        <ele>852.433938</ele>
        <time>2025-07-10T06:04:11.000Z</time>
      </trkpt>
      <trkpt lat="44.54235" lon="5.84438">
        <ele>852.454304</ele>
        <time>2025-07-10T06:04:12.000Z</time>
      </trkpt>
      <trkpt lat="44.54237" lon="5.84442">
        <ele>852.474961</ele>
        <time>2025-07-10T06:04:13.000Z</time>
      </trkpt>
      <trkpt lat="44.54239" lon="5.84447">
        <ele>852.495379</ele>
        <time>2025-07-10T06:04:14.000Z</time>
      </trkpt>
      <trkpt lat="44.54241" lon="5.84451">
        <ele>852.516358</ele>
        <time>2025-07-10T06:04:15.000Z</time>
      </trkpt>
      <trkpt lat="44.54243" lon="5.84456">
        <ele>852.538563</ele>
        <time>2025-07-10T06:04:16.000Z</time>
      </trkpt>
      <trkpt lat="44.54246" lon="5.84461">
        <ele>852.560779</ele>
        <time>2025-07-10T06:04:17.000Z</time>
      </trkpt>
      <trkpt lat="44.54248" lon="5.84465">
        <ele>852.582992</ele>
        <time>2025-07-10T06:04:18.000Z</time>
      </trkpt>
      <trkpt lat="44.5425" lon="5.8447">
        <ele>852.605524</ele>
        <time>2025-07-10T06:04:19.000Z</time>
      </trkpt>
      <trkpt lat="44.54253" lon="5.84475">
        <ele>852.628678</ele>
        <time>2025-07-10T06:04:20.000Z</time>
      </trkpt>
      <trkpt lat="44.54255" lon="5.8448">
        <ele>852.651224</ele>
        <time>2025-07-10T06:04:21.000Z</time>
      </trkpt>
      <trkpt lat="44.54258" lon="5.84484">
        <ele>852.673747</ele>
        <time>2025-07-10T06:04:22.000Z</time>
      </trkpt>
      <trkpt lat="44.5426" lon="5.84489">
        <ele>852.696269</ele>
        <time>2025-07-10T06:04:23.000Z</time>
      </trkpt>
      <trkpt lat="44.54263" lon="5.84494">
        <ele>852.719101</ele>
        <time>2025-07-10T06:04:24.000Z</time>
      </trkpt>
      <trkpt lat="44.54265" lon="5.84499">
        <ele>852.742243</ele>
        <time>2025-07-10T06:04:25.000Z</time>
      </trkpt>
      <trkpt lat="44.54268" lon="5.84504">
        <ele>852.766324</ele>
        <time>2025-07-10T06:04:26.000Z</time>
      </trkpt>
      <trkpt lat="44.54271" lon="5.84509">
        <ele>852.791032</ele>
        <time>2025-07-10T06:04:27.000Z</time>
      </trkpt>
      <trkpt lat="44.54273" lon="5.84514">
        <ele>852.81606</ele>
        <time>2025-07-10T06:04:28.000Z</time>
      </trkpt>
      <trkpt lat="44.54276" lon="5.84519">
        <ele>852.840784</ele>
        <time>2025-07-10T06:04:29.000Z</time>
      </trkpt>
      <trkpt lat="44.54279" lon="5.84525">
        <ele>852.865803</ele>
        <time>2025-07-10T06:04:30.000Z</time>
      </trkpt>
      <trkpt lat="44.54282" lon="5.8453">
        <ele>852.890831</ele>
        <time>2025-07-10T06:04:31.000Z</time>
      </trkpt>
      <trkpt lat="44.54285" lon="5.84535">
        <ele>852.916477</ele>
        <time>2025-07-10T06:04:32.000Z</time>
      </trkpt>
      <trkpt lat="44.54287" lon="5.84541">
        <ele>852.942751</ele>
        <time>2025-07-10T06:04:33.000Z</time>
      </trkpt>
      <trkpt lat="44.5429" lon="5.84546">
        <ele>852.968708</ele>
        <time>2025-07-10T06:04:34.000Z</time>
      </trkpt>
      <trkpt lat="44.54293" lon="5.84552">
        <ele>852.99592</ele>
        <time>2025-07-10T06:04:35.000Z</time>
      </trkpt>
      <trkpt lat="44.54296" lon="5.84558">
        <ele>853.023761</ele>
        <time>2025-07-10T06:04:36.000Z</time>
      </trkpt>
      <trkpt lat="44.54299" lon="5.84564">
        <ele>853.0032</ele>
        <time>2025-07-10T06:04:37.000Z</time>
      </trkpt>
      <trkpt lat="44.54302" lon="5.8457">
        <ele>852.93926</ele>
        <time>2025-07-10T06:04:38.000Z</time>
      </trkpt>
      <trkpt lat="44.54305" lon="5.84576">
        <ele>852.873195</ele>
        <time>2025-07-10T06:04:39.000Z</time>
      </trkpt>
      <trkpt lat="44.54309" lon="5.84582">
        <ele>852.805711</ele>
        <time>2025-07-10T06:04:40.000Z</time>
      </trkpt>
      <trkpt lat="44.54312" lon="5.84588">
        <ele>852.73964</ele>
        <time>2025-07-10T06:04:41.000Z</time>
      </trkpt>
      <trkpt lat="44.54315" lon="5.84595">
        <ele>852.668603</ele>
        <time>2025-07-10T06:04:42.000Z</time>
      </trkpt>
      <trkpt lat="44.54319" lon="5.84601">
        <ele>852.598972</ele>
        <time>2025-07-10T06:04:43.000Z</time>
      </trkpt>
      <trkpt lat="44.54322" lon="5.84608">
        <ele>852.530039</ele>
        <time>2025-07-10T06:04:44.000Z</time>
      </trkpt>
      <trkpt lat="44.54325" lon="5.84614">
        <ele>852.458996</ele>
        <time>2025-07-10T06:04:45.000Z</time>
      </trkpt>
      <trkpt lat="44.54329" lon="5.84621">
        <ele>852.387953</ele>
        <time>2025-07-10T06:04:46.000Z</time>
      </trkpt>
      <trkpt lat="44.54332" lon="5.84628">
        <ele>852.316191</ele>
        <time>2025-07-10T06:04:47.000Z</time>
      </trkpt>
      <trkpt lat="44.54335" lon="5.84635">
        <ele>852.245154</ele>
        <time>2025-07-10T06:04:48.000Z</time>
      </trkpt>
      <trkpt lat="44.54339" lon="5.84641">
        <ele>852.173408</ele>
        <time>2025-07-10T06:04:49.000Z</time>
      </trkpt>
      <trkpt lat="44.54342" lon="5.84648">
        <ele>852.100923</ele>
        <time>2025-07-10T06:04:50.000Z</time>
      </trkpt>
      <trkpt lat="44.54345" lon="5.84655">
        <ele>852.028465</ele>
        <time>2025-07-10T06:04:51.000Z</time>
      </trkpt>
      <trkpt lat="44.54349" lon="5.84662">
        <ele>851.955297</ele>
        <time>2025-07-10T06:04:52.000Z</time>
      </trkpt>
      <trkpt lat="44.54352" lon="5.84669">
        <ele>851.880704</ele>
        <time>2025-07-10T06:04:53.000Z</time>
      </trkpt>
      <trkpt lat="44.54356" lon="5.84675">
        <ele>851.808943</ele>
        <time>2025-07-10T06:04:54.000Z</time>
      </trkpt>
      <trkpt lat="44.5436" lon="5.84682">
        <ele>851.735008</ele>
        <time>2025-07-10T06:04:55.000Z</time>
      </trkpt>
      <trkpt lat="44.54363" lon="5.84689">
        <ele>851.661072</ele>
        <time>2025-07-10T06:04:56.000Z</time>
      </trkpt>
      <trkpt lat="44.54367" lon="5.84695">
        <ele>851.587181</ele>
        <time>2025-07-10T06:04:57.000Z</time>
      </trkpt>
      <trkpt lat="44.5437" lon="5.84702">
        <ele>851.516118</ele>
        <time>2025-07-10T06:04:58.000Z</time>
      </trkpt>
      <trkpt lat="44.54374" lon="5.84708">
        <ele>851.444998</ele>
        <time>2025-07-10T06:04:59.000Z</time>
      </trkpt>
      <trkpt lat="44.54378" lon="5.84715">
        <ele>851.373789</ele>
        <time>2025-07-10T06:05:00.000Z</time>
      </trkpt>
      <trkpt lat="44.54381" lon="5.84721">
        <ele>851.301982</ele>
        <time>2025-07-10T06:05:01.000Z</time>
      </trkpt>
      <trkpt lat="44.54385" lon="5.84728">
        <ele>851.23165</ele>
        <time>2025-07-10T06:05:02.000Z</time>
      </trkpt>
      <trkpt lat="44.54388" lon="5.84734">
        <ele>851.15989</ele>
        <time>2025-07-10T06:05:03.000Z</time>
      </trkpt>
      <trkpt lat="44.54392" lon="5.84741">
        <ele>851.088129</ele>
        <time>2025-07-10T06:05:04.000Z</time>
      </trkpt>
      <trkpt lat="44.54395" lon="5.84747">
        <ele>851.017692</ele>
        <time>2025-07-10T06:05:05.000Z</time>
      </trkpt>
      <trkpt lat="44.54399" lon="5.84753">
        <ele>850.947254</ele>
        <time>2025-07-10T06:05:06.000Z</time>
      </trkpt>
      <trkpt lat="44.54402" lon="5.8476">
        <ele>850.87764</ele>
        <time>2025-07-10T06:05:07.000Z</time>
      </trkpt>
      <trkpt lat="44.54406" lon="5.84767">
        <ele>850.799685</ele>
        <time>2025-07-10T06:05:08.000Z</time>
      </trkpt>
      <trkpt lat="44.54409" lon="5.84773">
        <ele>850.71248</ele>
        <time>2025-07-10T06:05:09.000Z</time>
      </trkpt>
      <trkpt lat="44.54412" lon="5.8478">
        <ele>850.626163</ele>
        <time>2025-07-10T06:05:10.000Z</time>
      </trkpt>
      <trkpt lat="44.54416" lon="5.84786">
        <ele>850.538958</ele>
        <time>2025-07-10T06:05:11.000Z</time>
      </trkpt>
      <trkpt lat="44.54419" lon="5.84793">
        <ele>850.452621</ele>
        <time>2025-07-10T06:05:12.000Z</time>
      </trkpt>
      <trkpt lat="44.54422" lon="5.84799">
        <ele>850.365415</ele>
        <time>2025-07-10T06:05:13.000Z</time>
      </trkpt>
      <trkpt lat="44.54426" lon="5.84806">
        <ele>850.27821</ele>
        <time>2025-07-10T06:05:14.000Z</time>
      </trkpt>
      <trkpt lat="44.54429" lon="5.84812">
        <ele>850.191004</ele>
        <time>2025-07-10T06:05:15.000Z</time>
      </trkpt>
      <trkpt lat="44.54432" lon="5.84819">
        <ele>850.102925</ele>
        <time>2025-07-10T06:05:16.000Z</time>
      </trkpt>
      <trkpt lat="44.54436" lon="5.84825">
        <ele>850.016589</ele>
        <time>2025-07-10T06:05:17.000Z</time>
      </trkpt>
      <trkpt lat="44.54439" lon="5.84832">
        <ele>849.929384</ele>
        <time>2025-07-10T06:05:18.000Z</time>
      </trkpt>
      <trkpt lat="44.54443" lon="5.84838">
        <ele>849.841304</ele>
        <time>2025-07-10T06:05:19.000Z</time>
      </trkpt>
      <trkpt lat="44.54446" lon="5.84845">
        <ele>849.748773</ele>
        <time>2025-07-10T06:05:20.000Z</time>
      </trkpt>
      <trkpt lat="44.5445" lon="5.84852">
        <ele>849.656161</ele>
        <time>2025-07-10T06:05:21.000Z</time>
      </trkpt>
      <trkpt lat="44.54454" lon="5.84859">
        <ele>849.562768</ele>
        <time>2025-07-10T06:05:22.000Z</time>
      </trkpt>
      <trkpt lat="44.54458" lon="5.84866">
        <ele>849.467637</ele>
        <time>2025-07-10T06:05:23.000Z</time>
      </trkpt>
      <trkpt lat="44.54461" lon="5.84873">
        <ele>849.372479</ele>
        <time>2025-07-10T06:05:24.000Z</time>
      </trkpt>
      <trkpt lat="44.54465" lon="5.8488">
        <ele>849.277353</ele>
        <time>2025-07-10T06:05:25.000Z</time>
      </trkpt>
      <trkpt lat="44.54468" lon="5.84888">
        <ele>849.178705</ele>
        <time>2025-07-10T06:05:26.000Z</time>
      </trkpt>
      <trkpt lat="44.54472" lon="5.84895">
        <ele>849.081804</ele>
        <time>2025-07-10T06:05:27.000Z</time>
      </trkpt>
      <trkpt lat="44.54476" lon="5.84902">
        <ele>848.983148</ele>
        <time>2025-07-10T06:05:28.000Z</time>
      </trkpt>
      <trkpt lat="44.5448" lon="5.8491">
        <ele>848.882734</ele>
        <time>2025-07-10T06:05:29.000Z</time>
      </trkpt>
      <trkpt lat="44.54484" lon="5.84918">
        <ele>848.780564</ele>
        <time>2025-07-10T06:05:30.000Z</time>
      </trkpt>
      <trkpt lat="44.54488" lon="5.84925">
        <ele>848.679248</ele>
        <time>2025-07-10T06:05:31.000Z</time>
      </trkpt>
      <trkpt lat="44.54492" lon="5.84933">
        <ele>848.577932</ele>
        <time>2025-07-10T06:05:32.000Z</time>
      </trkpt>
      <trkpt lat="44.54496" lon="5.84941">
        <ele>848.473992</ele>
        <time>2025-07-10T06:05:33.000Z</time>
      </trkpt>
      <trkpt lat="44.545" lon="5.84949">
        <ele>848.366524</ele>
        <time>2025-07-10T06:05:34.000Z</time>
      </trkpt>
      <trkpt lat="44.54504" lon="5.84956">
        <ele>848.263432</ele>
        <time>2025-07-10T06:05:35.000Z</time>
      </trkpt>
      <trkpt lat="44.54508" lon="5.84964">
        <ele>848.158601</ele>
        <time>2025-07-10T06:05:36.000Z</time>
      </trkpt>
      <trkpt lat="44.54512" lon="5.84972">
        <ele>848.153631</ele>
        <time>2025-07-10T06:05:37.000Z</time>
      </trkpt>
      <trkpt lat="44.54516" lon="5.8498">
        <ele>848.246681</ele>
        <time>2025-07-10T06:05:38.000Z</time>
      </trkpt>
      <trkpt lat="44.5452" lon="5.84987">
        <ele>848.336512</ele>
        <time>2025-07-10T06:05:39.000Z</time>
      </trkpt>
      <trkpt lat="44.54523" lon="5.84994">
        <ele>848.422371</ele>
        <time>2025-07-10T06:05:40.000Z</time>
      </trkpt>
      <trkpt lat="44.54527" lon="5.85002">
        <ele>848.509023</ele>
        <time>2025-07-10T06:05:41.000Z</time>
      </trkpt>
      <trkpt lat="44.54531" lon="5.85009">
        <ele>848.598085</ele>
        <time>2025-07-10T06:05:42.000Z</time>
      </trkpt>
      <trkpt lat="44.54535" lon="5.85016">
        <ele>848.686368</ele>
        <time>2025-07-10T06:05:43.000Z</time>
      </trkpt>
      <trkpt lat="44.54539" lon="5.85023">
        <ele>848.771574</ele>
        <time>2025-07-10T06:05:44.000Z</time>
      </trkpt>
      <trkpt lat="44.54542" lon="5.8503">
        <ele>848.854266</ele>
        <time>2025-07-10T06:05:45.000Z</time>
      </trkpt>
      <trkpt lat="44.54546" lon="5.85037">
        <ele>848.939343</ele>
        <time>2025-07-10T06:05:46.000Z</time>
      </trkpt>
      <trkpt lat="44.5455" lon="5.85043">
        <ele>849.018093</ele>
        <time>2025-07-10T06:05:47.000Z</time>
      </trkpt>
      <trkpt lat="44.54553" lon="5.8505">
        <ele>849.096802</ele>
        <time>2025-07-10T06:05:48.000Z</time>
      </trkpt>
      <trkpt lat="44.54556" lon="5.85056">
        <ele>849.172323</ele>
        <time>2025-07-10T06:05:49.000Z</time>
      </trkpt>
      <trkpt lat="44.54559" lon="5.85062">
        <ele>849.24546</ele>
        <time>2025-07-10T06:05:50.000Z</time>
      </trkpt>
      <trkpt lat="44.54562" lon="5.85068">
        <ele>849.314624</ele>
        <time>2025-07-10T06:05:51.000Z</time>
      </trkpt>
      <trkpt lat="44.54565" lon="5.85074">
        <ele>849.384583</ele>
        <time>2025-07-10T06:05:52.000Z</time>
      </trkpt>
      <trkpt lat="44.54568" lon="5.85079">
        <ele>849.451361</ele>
        <time>2025-07-10T06:05:53.000Z</time>
      </trkpt>
      <trkpt lat="44.54571" lon="5.85085">
        <ele>849.515755</ele>
        <time>2025-07-10T06:05:54.000Z</time>
      </trkpt>
      <trkpt lat="44.54574" lon="5.8509">
        <ele>849.581064</ele>
        <time>2025-07-10T06:05:55.000Z</time>
      </trkpt>
      <trkpt lat="44.54577" lon="5.85095">
        <ele>849.64391</ele>
        <time>2025-07-10T06:05:56.000Z</time>
      </trkpt>
      <trkpt lat="44.54579" lon="5.851">
        <ele>849.709105</ele>
        <time>2025-07-10T06:05:57.000Z</time>
      </trkpt>
      <trkpt lat="44.54582" lon="5.85106">
        <ele>849.7743</ele>
        <time>2025-07-10T06:05:58.000Z</time>
      </trkpt>
      <trkpt lat="44.54585" lon="5.85111">
        <ele>849.838703</ele>
        <time>2025-07-10T06:05:59.000Z</time>
      </trkpt>
      <trkpt lat="44.54588" lon="5.85116">
        <ele>849.902507</ele>
        <time>2025-07-10T06:06:00.000Z</time>
      </trkpt>
      <trkpt lat="44.5459" lon="5.85121">
        <ele>849.962927</ele>
        <time>2025-07-10T06:06:01.000Z</time>
      </trkpt>
      <trkpt lat="44.54593" lon="5.85126">
        <ele>850.020968</ele>
        <time>2025-07-10T06:06:02.000Z</time>
      </trkpt>
      <trkpt lat="44.54595" lon="5.85131">
        <ele>850.081431</ele>
        <time>2025-07-10T06:06:03.000Z</time>
      </trkpt>
      <trkpt lat="44.54598" lon="5.85136">
        <ele>850.145234</ele>
        <time>2025-07-10T06:06:04.000Z</time>
      </trkpt>
      <trkpt lat="44.54601" lon="5.85141">
        <ele>850.203408</ele>
        <time>2025-07-10T06:06:05.000Z</time>
      </trkpt>
      <trkpt lat="44.54604" lon="5.85145">
        <ele>850.262235</ele>
        <time>2025-07-10T06:06:06.000Z</time>
      </trkpt>
      <trkpt lat="44.54606" lon="5.8515">
        <ele>850.321089</ele>
        <time>2025-07-10T06:06:07.000Z</time>
      </trkpt>
      <trkpt lat="44.54609" lon="5.85155">
        <ele>850.37917</ele>
        <time>2025-07-10T06:06:08.000Z</time>
      </trkpt>
      <trkpt lat="44.54611" lon="5.8516">
        <ele>850.43725</ele>
        <time>2025-07-10T06:06:09.000Z</time>
      </trkpt>
      <trkpt lat="44.54614" lon="5.85164">
        <ele>850.493713</ele>
        <time>2025-07-10T06:06:10.000Z</time>
      </trkpt>
      <trkpt lat="44.54616" lon="5.85169">
        <ele>850.550964</ele>
        <time>2025-07-10T06:06:11.000Z</time>
      </trkpt>
      <trkpt lat="44.54619" lon="5.85174">
        <ele>850.642004</ele>
        <time>2025-07-10T06:06:12.000Z</time>
      </trkpt>
      <trkpt lat="44.54621" lon="5.85179">
        <ele>850.755981</ele>
        <time>2025-07-10T06:06:13.000Z</time>
      </trkpt>
      <trkpt lat="44.54624" lon="5.85183">
        <ele>850.863913</ele>
        <time>2025-07-10T06:06:14.000Z</time>
      </trkpt>
      <trkpt lat="44.54626" lon="5.85188">
        <ele>850.968901</ele>
        <time>2025-07-10T06:06:15.000Z</time>
      </trkpt>
      <trkpt lat="44.54629" lon="5.85192">
        <ele>851.072279</ele>
        <time>2025-07-10T06:06:16.000Z</time>
      </trkpt>
      <trkpt lat="44.54631" lon="5.85196">
        <ele>851.172718</ele>
        <time>2025-07-10T06:06:17.000Z</time>
      </trkpt>
      <trkpt lat="44.54633" lon="5.85201">
        <ele>851.274525</ele>
        <time>2025-07-10T06:06:18.000Z</time>
      </trkpt>
      <trkpt lat="44.54636" lon="5.85205">
        <ele>851.373326</ele>
        <time>2025-07-10T06:06:19.000Z</time>
      </trkpt>
      <trkpt lat="44.54638" lon="5.85209">
        <ele>851.475133</ele>
        <time>2025-07-10T06:06:20.000Z</time>
      </trkpt>
      <trkpt lat="44.5464" lon="5.85214">
        <ele>851.570856</ele>
        <time>2025-07-10T06:06:21.000Z</time>
      </trkpt>
      <trkpt lat="44.54642" lon="5.85218">
        <ele>851.668112</ele>
        <time>2025-07-10T06:06:22.000Z</time>
      </trkpt>
      <trkpt lat="44.54644" lon="5.85222">
        <ele>851.763865</ele>
        <time>2025-07-10T06:06:23.000Z</time>
      </trkpt>
      <trkpt lat="44.54647" lon="5.85226">
        <ele>851.862687</ele>
        <time>2025-07-10T06:06:24.000Z</time>
      </trkpt>
      <trkpt lat="44.54649" lon="5.85231">
        <ele>851.961488</ele>
        <time>2025-07-10T06:06:25.000Z</time>
      </trkpt>
      <trkpt lat="44.54651" lon="5.85235">
        <ele>852.051174</ele>
        <time>2025-07-10T06:06:26.000Z</time>
      </trkpt>
      <trkpt lat="44.54653" lon="5.85239">
        <ele>852.145376</ele>
        <time>2025-07-10T06:06:27.000Z</time>
      </trkpt>
      <trkpt lat="44.54655" lon="5.85243">
        <ele>852.25024</ele>
        <time>2025-07-10T06:06:28.000Z</time>
      </trkpt>
      <trkpt lat="44.54657" lon="5.85247">
        <ele>852.34759</ele>
        <time>2025-07-10T06:06:29.000Z</time>
      </trkpt>
      <trkpt lat="44.54659" lon="5.85251">
        <ele>852.437276</ele>
        <time>2025-07-10T06:06:30.000Z</time>
      </trkpt>
      <trkpt lat="44.54661" lon="5.85255">
        <ele>852.531545</ele>
        <time>2025-07-10T06:06:31.000Z</time>
      </trkpt>
      <trkpt lat="44.54664" lon="5.85259">
        <ele>852.628491</ele>
        <time>2025-07-10T06:06:32.000Z</time>
      </trkpt>
      <trkpt lat="44.54666" lon="5.85263">
        <ele>852.724381</ele>
        <time>2025-07-10T06:06:33.000Z</time>
      </trkpt>
      <trkpt lat="44.54668" lon="5.85267">
        <ele>852.815545</ele>
        <time>2025-07-10T06:06:34.000Z</time>
      </trkpt>
      <trkpt lat="44.5467" lon="5.85271">
        <ele>852.905189</ele>
        <time>2025-07-10T06:06:35.000Z</time>
      </trkpt>
      <trkpt lat="44.54672" lon="5.85275">
        <ele>852.991831</ele>
        <time>2025-07-10T06:06:36.000Z</time>
      </trkpt>
      <trkpt lat="44.54674" lon="5.85278">
        <ele>853.075409</ele>
        <time>2025-07-10T06:06:37.000Z</time>
      </trkpt>
      <trkpt lat="44.54676" lon="5.85282">
        <ele>853.160495</ele>
        <time>2025-07-10T06:06:38.000Z</time>
      </trkpt>
      <trkpt lat="44.54678" lon="5.85286">
        <ele>853.253192</ele>
        <time>2025-07-10T06:06:39.000Z</time>
      </trkpt>
      <trkpt lat="44.5468" lon="5.8529">
        <ele>853.344389</ele>
        <time>2025-07-10T06:06:40.000Z</time>
      </trkpt>
      <trkpt lat="44.54682" lon="5.85294">
        <ele>853.437082</ele>
        <time>2025-07-10T06:06:41.000Z</time>
      </trkpt>
      <trkpt lat="44.54684" lon="5.85298">
        <ele>853.526768</ele>
        <time>2025-07-10T06:06:42.000Z</time>
      </trkpt>
      <trkpt lat="44.54686" lon="5.85302">
        <ele>853.616454</ele>
        <time>2025-07-10T06:06:43.000Z</time>
      </trkpt>
      <trkpt lat="44.54688" lon="5.85306">
        <ele>853.70947</ele>
        <time>2025-07-10T06:06:44.000Z</time>
      </trkpt>
      <trkpt lat="44.54691" lon="5.8531">
        <ele>853.803738</ele>
        <time>2025-07-10T06:06:45.000Z</time>
      </trkpt>
      <trkpt lat="44.54693" lon="5.85313">
        <ele>853.891987</ele>
        <time>2025-07-10T06:06:46.000Z</time>
      </trkpt>
      <trkpt lat="44.54695" lon="5.85317">
        <ele>853.983588</ele>
        <time>2025-07-10T06:06:47.000Z</time>
      </trkpt>
      <trkpt lat="44.54697" lon="5.85321">
        <ele>854.064199</ele>
        <time>2025-07-10T06:06:48.000Z</time>
      </trkpt>
      <trkpt lat="44.54699" lon="5.85324">
        <ele>854.146246</ele>
        <time>2025-07-10T06:06:49.000Z</time>
      </trkpt>
      <trkpt lat="44.54701" lon="5.85328">
        <ele>854.234382</ele>
        <time>2025-07-10T06:06:50.000Z</time>
      </trkpt>
      <trkpt lat="44.54703" lon="5.85332">
        <ele>854.33469</ele>
        <time>2025-07-10T06:06:51.000Z</time>
      </trkpt>
      <trkpt lat="44.54705" lon="5.85336">
        <ele>854.427382</ele>
        <time>2025-07-10T06:06:52.000Z</time>
      </trkpt>
      <trkpt lat="44.54707" lon="5.8534">
        <ele>854.515521</ele>
        <time>2025-07-10T06:06:53.000Z</time>
      </trkpt>
      <trkpt lat="44.54709" lon="5.85344">
        <ele>854.602163</ele>
        <time>2025-07-10T06:06:54.000Z</time>
      </trkpt>
      <trkpt lat="44.54711" lon="5.85347">
        <ele>854.687524</ele>
        <time>2025-07-10T06:06:55.000Z</time>
      </trkpt>
      <trkpt lat="44.54713" lon="5.85351">
        <ele>854.774165</ele>
        <time>2025-07-10T06:06:56.000Z</time>
      </trkpt>
      <trkpt lat="44.54715" lon="5.85355">
        <ele>854.860962</ele>
        <time>2025-07-10T06:06:57.000Z</time>
      </trkpt>
      <trkpt lat="44.54717" lon="5.85358">
        <ele>854.946047</ele>
        <time>2025-07-10T06:06:58.000Z</time>
      </trkpt>
      <trkpt lat="44.54719" lon="5.85362">
        <ele>855.029628</ele>
        <time>2025-07-10T06:06:59.000Z</time>
      </trkpt>
      <trkpt lat="44.54721" lon="5.85366">
        <ele>855.114713</ele>
        <time>2025-07-10T06:07:00.000Z</time>
      </trkpt>
      <trkpt lat="44.54723" lon="5.8537">
        <ele>855.202852</ele>
        <time>2025-07-10T06:07:01.000Z</time>
      </trkpt>
      <trkpt lat="44.54725" lon="5.85373">
        <ele>855.28811</ele>
        <time>2025-07-10T06:07:02.000Z</time>
      </trkpt>
      <trkpt lat="44.54727" lon="5.85377">
        <ele>855.352065</ele>
        <time>2025-07-10T06:07:03.000Z</time>
      </trkpt>
      <trkpt lat="44.54729" lon="5.85381">
        <ele>855.409731</ele>
        <time>2025-07-10T06:07:04.000Z</time>
      </trkpt>
      <trkpt lat="44.54731" lon="5.85385">
        <ele>855.471611</ele>
        <time>2025-07-10T06:07:05.000Z</time>
      </trkpt>
      <trkpt lat="44.54733" lon="5.85389">
        <ele>855.533641</ele>
        <time>2025-07-10T06:07:06.000Z</time>
      </trkpt>
      <trkpt lat="44.54735" lon="5.85393">
        <ele>855.595541</ele>
        <time>2025-07-10T06:07:07.000Z</time>
      </trkpt>
      <trkpt lat="44.54737" lon="5.85396">
        <ele>855.657392</ele>
        <time>2025-07-10T06:07:08.000Z</time>
      </trkpt>
      <trkpt lat="44.54739" lon="5.854">
        <ele>855.718288</ele>
        <time>2025-07-10T06:07:09.000Z</time>
      </trkpt>
      <trkpt lat="44.54741" lon="5.85405">
        <ele>855.780278</ele>
        <time>2025-07-10T06:07:10.000Z</time>
      </trkpt>
      <trkpt lat="44.54742" lon="5.85409">
        <ele>855.84023</ele>
        <time>2025-07-10T06:07:11.000Z</time>
      </trkpt>
      <trkpt lat="44.54744" lon="5.85412">
        <ele>855.898158</ele>
        <time>2025-07-10T06:07:12.000Z</time>
      </trkpt>
      <trkpt lat="44.54746" lon="5.85416">
        <ele>855.957912</ele>
        <time>2025-07-10T06:07:13.000Z</time>
      </trkpt>
      <trkpt lat="44.54748" lon="5.8542">
        <ele>856.016648</ele>
        <time>2025-07-10T06:07:14.000Z</time>
      </trkpt>
      <trkpt lat="44.54749" lon="5.85424">
        <ele>856.074317</ele>
        <time>2025-07-10T06:07:15.000Z</time>
      </trkpt>
      <trkpt lat="44.54751" lon="5.85427">
        <ele>856.133076</ele>
        <time>2025-07-10T06:07:16.000Z</time>
      </trkpt>
      <trkpt lat="44.54753" lon="5.85431">
        <ele>856.189713</ele>
        <time>2025-07-10T06:07:17.000Z</time>
      </trkpt>
      <trkpt lat="44.54755" lon="5.85435">
        <ele>856.248418</ele>
        <time>2025-07-10T06:07:18.000Z</time>
      </trkpt>
      <trkpt lat="44.54757" lon="5.85438">
        <ele>856.307268</ele>
        <time>2025-07-10T06:07:19.000Z</time>
      </trkpt>
      <trkpt lat="44.54759" lon="5.85442">
        <ele>856.369148</ele>
        <time>2025-07-10T06:07:20.000Z</time>
      </trkpt>
      <trkpt lat="44.54761" lon="5.85446">
        <ele>856.426814</ele>
        <time>2025-07-10T06:07:21.000Z</time>
      </trkpt>
      <trkpt lat="44.54763" lon="5.8545">
        <ele>856.489769</ele>
        <time>2025-07-10T06:07:22.000Z</time>
      </trkpt>
      <trkpt lat="44.54765" lon="5.85454">
        <ele>856.550579</ele>
        <time>2025-07-10T06:07:23.000Z</time>
      </trkpt>
      <trkpt lat="44.54767" lon="5.85458">
        <ele>856.612459</ele>
        <time>2025-07-10T06:07:24.000Z</time>
      </trkpt>
      <trkpt lat="44.54768" lon="5.85462">
        <ele>856.674636</ele>
        <time>2025-07-10T06:07:25.000Z</time>
      </trkpt>
      <trkpt lat="44.5477" lon="5.85466">
        <ele>856.737725</ele>
        <time>2025-07-10T06:07:26.000Z</time>
      </trkpt>
      <trkpt lat="44.54772" lon="5.8547">
        <ele>856.796461</ele>
        <time>2025-07-10T06:07:27.000Z</time>
      </trkpt>
      <trkpt lat="44.54774" lon="5.85474">
        <ele>856.854216</ele>
        <time>2025-07-10T06:07:28.000Z</time>
      </trkpt>
      <trkpt lat="44.54775" lon="5.85478">
        <ele>856.915029</ele>
        <time>2025-07-10T06:07:29.000Z</time>
      </trkpt>
      <trkpt lat="44.54777" lon="5.85482">
        <ele>856.976879</ele>
        <time>2025-07-10T06:07:30.000Z</time>
      </trkpt>
      <trkpt lat="44.54779" lon="5.85486">
        <ele>857.039779</ele>
        <time>2025-07-10T06:07:31.000Z</time>
      </trkpt>
      <trkpt lat="44.54782" lon="5.8549">
        <ele>857.102802</ele>
        <time>2025-07-10T06:07:32.000Z</time>
      </trkpt>
      <trkpt lat="44.54784" lon="5.85493">
        <ele>857.169132</ele>
        <time>2025-07-10T06:07:33.000Z</time>
      </trkpt>
      <trkpt lat="44.54787" lon="5.85497">
        <ele>857.23511</ele>
        <time>2025-07-10T06:07:34.000Z</time>
      </trkpt>
      <trkpt lat="44.54789" lon="5.85501">
        <ele>857.299513</ele>
        <time>2025-07-10T06:07:35.000Z</time>
      </trkpt>
      <trkpt lat="44.54791" lon="5.85505">
        <ele>857.36354</ele>
        <time>2025-07-10T06:07:36.000Z</time>
      </trkpt>
      <trkpt lat="44.54793" lon="5.85508">
        <ele>857.426563</ele>
        <time>2025-07-10T06:07:37.000Z</time>
      </trkpt>
      <trkpt lat="44.54795" lon="5.85512">
        <ele>857.487373</ele>
        <time>2025-07-10T06:07:38.000Z</time>
      </trkpt>
      <trkpt lat="44.54797" lon="5.85516">
        <ele>857.548186</ele>
        <time>2025-07-10T06:07:39.000Z</time>
      </trkpt>
      <trkpt lat="44.54799" lon="5.8552">
        <ele>857.611141</ele>
        <time>2025-07-10T06:07:40.000Z</time>
      </trkpt>
      <trkpt lat="44.54801" lon="5.85524">
        <ele>857.674063</ele>
        <time>2025-07-10T06:07:41.000Z</time>
      </trkpt>
      <trkpt lat="44.54804" lon="5.85528">
        <ele>857.736092</ele>
        <time>2025-07-10T06:07:42.000Z</time>
      </trkpt>
      <trkpt lat="44.54806" lon="5.85531">
        <ele>857.796894</ele>
        <time>2025-07-10T06:07:43.000Z</time>
      </trkpt>
      <trkpt lat="44.54809" lon="5.85533">
        <ele>857.854241</ele>
        <time>2025-07-10T06:07:44.000Z</time>
      </trkpt>
      <trkpt lat="44.54812" lon="5.85534">
        <ele>857.915182</ele>
        <time>2025-07-10T06:07:45.000Z</time>
      </trkpt>
      <trkpt lat="44.54815" lon="5.85535">
        <ele>857.975904</ele>
        <time>2025-07-10T06:07:46.000Z</time>
      </trkpt>
      <trkpt lat="44.54819" lon="5.85536">
        <ele>858.032135</ele>
        <time>2025-07-10T06:07:47.000Z</time>
      </trkpt>
      <trkpt lat="44.54822" lon="5.85536">
        <ele>858.08995</ele>
        <time>2025-07-10T06:07:48.000Z</time>
      </trkpt>
      <trkpt lat="44.54825" lon="5.85536">
        <ele>858.145945</ele>
        <time>2025-07-10T06:07:49.000Z</time>
      </trkpt>
      <trkpt lat="44.54828" lon="5.85536">
        <ele>858.205552</ele>
        <time>2025-07-10T06:07:50.000Z</time>
      </trkpt>
      <trkpt lat="44.54832" lon="5.85536">
        <ele>858.267086</ele>
        <time>2025-07-10T06:07:51.000Z</time>
      </trkpt>
      <trkpt lat="44.54835" lon="5.85535">
        <ele>858.328621</ele>
        <time>2025-07-10T06:07:52.000Z</time>
      </trkpt>
      <trkpt lat="44.54838" lon="5.85535">
        <ele>858.386551</ele>
        <time>2025-07-10T06:07:53.000Z</time>
      </trkpt>
      <trkpt lat="44.54841" lon="5.85535">
        <ele>858.444351</ele>
        <time>2025-07-10T06:07:54.000Z</time>
      </trkpt>
      <trkpt lat="44.54845" lon="5.85535">
        <ele>858.504083</ele>
        <time>2025-07-10T06:07:55.000Z</time>
      </trkpt>
      <trkpt lat="44.54848" lon="5.85535">
        <ele>858.573866</ele>
        <time>2025-07-10T06:07:56.000Z</time>
      </trkpt>
      <trkpt lat="44.54851" lon="5.85535">
        <ele>858.650179</ele>
        <time>2025-07-10T06:07:57.000Z</time>
      </trkpt>
      <trkpt lat="44.54855" lon="5.85535">
        <ele>858.72635</ele>
        <time>2025-07-10T06:07:58.000Z</time>
      </trkpt>
      <trkpt lat="44.54858" lon="5.85535">
        <ele>858.800196</ele>
        <time>2025-07-10T06:07:59.000Z</time>
      </trkpt>
      <trkpt lat="44.54861" lon="5.85535">
        <ele>858.878726</ele>
        <time>2025-07-10T06:08:00.000Z</time>
      </trkpt>
      <trkpt lat="44.54864" lon="5.85535">
        <ele>858.954951</ele>
        <time>2025-07-10T06:08:01.000Z</time>
      </trkpt>
      <trkpt lat="44.54868" lon="5.85534">
        <ele>859.035988</ele>
        <time>2025-07-10T06:08:02.000Z</time>
      </trkpt>
      <trkpt lat="44.54871" lon="5.85534">
        <ele>859.112301</ele>
        <time>2025-07-10T06:08:03.000Z</time>
      </trkpt>
      <trkpt lat="44.54874" lon="5.85534">
        <ele>859.18622</ele>
        <time>2025-07-10T06:08:04.000Z</time>
      </trkpt>
      <trkpt lat="44.54878" lon="5.85535">
        <ele>859.262657</ele>
        <time>2025-07-10T06:08:05.000Z</time>
      </trkpt>
      <trkpt lat="44.54881" lon="5.85535">
        <ele>859.34861</ele>
        <time>2025-07-10T06:08:06.000Z</time>
      </trkpt>
      <trkpt lat="44.54885" lon="5.85535">
        <ele>859.427071</ele>
        <time>2025-07-10T06:08:07.000Z</time>
      </trkpt>
      <trkpt lat="44.54888" lon="5.85535">
        <ele>859.50784</ele>
        <time>2025-07-10T06:08:08.000Z</time>
      </trkpt>
      <trkpt lat="44.54892" lon="5.85535">
        <ele>859.586731</ele>
        <time>2025-07-10T06:08:09.000Z</time>
      </trkpt>
      <trkpt lat="44.54895" lon="5.85535">
        <ele>859.662902</ele>
        <time>2025-07-10T06:08:10.000Z</time>
      </trkpt>
      <trkpt lat="44.54898" lon="5.85535">
        <ele>859.73934</ele>
        <time>2025-07-10T06:08:11.000Z</time>
      </trkpt>
      <trkpt lat="44.54902" lon="5.85536">
        <ele>859.820709</ele>
        <time>2025-07-10T06:08:12.000Z</time>
      </trkpt>
      <trkpt lat="44.54905" lon="5.85536">
        <ele>859.8996</ele>
        <time>2025-07-10T06:08:13.000Z</time>
      </trkpt>
      <trkpt lat="44.54909" lon="5.85537">
        <ele>859.980787</ele>
        <time>2025-07-10T06:08:14.000Z</time>
      </trkpt>
      <trkpt lat="44.54912" lon="5.85537">
        <ele>860.061623</ele>
        <time>2025-07-10T06:08:15.000Z</time>
      </trkpt>
      <trkpt lat="44.54916" lon="5.85538">
        <ele>860.143208</ele>
        <time>2025-07-10T06:08:16.000Z</time>
      </trkpt>
      <trkpt lat="44.54919" lon="5.85538">
        <ele>860.222765</ele>
        <time>2025-07-10T06:08:17.000Z</time>
      </trkpt>
      <trkpt lat="44.54923" lon="5.85539">
        <ele>860.302931</ele>
        <time>2025-07-10T06:08:18.000Z</time>
      </trkpt>
      <trkpt lat="44.54926" lon="5.85541">
        <ele>860.381204</ele>
        <time>2025-07-10T06:08:19.000Z</time>
      </trkpt>
      <trkpt lat="44.54929" lon="5.85542">
        <ele>860.454608</ele>
        <time>2025-07-10T06:08:20.000Z</time>
      </trkpt>
      <trkpt lat="44.54932" lon="5.85543">
        <ele>860.528012</ele>
        <time>2025-07-10T06:08:21.000Z</time>
      </trkpt>
      <trkpt lat="44.54935" lon="5.85543">
        <ele>860.605591</ele>
        <time>2025-07-10T06:08:22.000Z</time>
      </trkpt>
      <trkpt lat="44.54939" lon="5.85544">
        <ele>860.68261</ele>
        <time>2025-07-10T06:08:23.000Z</time>
      </trkpt>
      <trkpt lat="44.54942" lon="5.85545">
        <ele>860.755663</ele>
        <time>2025-07-10T06:08:24.000Z</time>
      </trkpt>
      <trkpt lat="44.54945" lon="5.85546">
        <ele>860.82682</ele>
        <time>2025-07-10T06:08:25.000Z</time>
      </trkpt>
      <trkpt lat="44.54948" lon="5.85547">
        <ele>860.897075</ele>
        <time>2025-07-10T06:08:26.000Z</time>
      </trkpt>
      <trkpt lat="44.54951" lon="5.85549">
        <ele>860.96733</ele>
        <time>2025-07-10T06:08:27.000Z</time>
      </trkpt>
      <trkpt lat="44.54953" lon="5.8555">
        <ele>861.034429</ele>
        <time>2025-07-10T06:08:28.000Z</time>
      </trkpt>
      <trkpt lat="44.54956" lon="5.85551">
        <ele>861.098871</ele>
        <time>2025-07-10T06:08:29.000Z</time>
      </trkpt>
      <trkpt lat="44.54959" lon="5.85552">
        <ele>861.160669</ele>
        <time>2025-07-10T06:08:30.000Z</time>
      </trkpt>
      <trkpt lat="44.54961" lon="5.85553">
        <ele>861.223831</ele>
        <time>2025-07-10T06:08:31.000Z</time>
      </trkpt>
      <trkpt lat="44.54964" lon="5.85554">
        <ele>861.284805</ele>
        <time>2025-07-10T06:08:32.000Z</time>
      </trkpt>
      <trkpt lat="44.54966" lon="5.85555">
        <ele>861.347473</ele>
        <time>2025-07-10T06:08:33.000Z</time>
      </trkpt>
      <trkpt lat="44.54969" lon="5.85556">
        <ele>861.41014</ele>
        <time>2025-07-10T06:08:34.000Z</time>
      </trkpt>
      <trkpt lat="44.54971" lon="5.85557">
        <ele>861.469701</ele>
        <time>2025-07-10T06:08:35.000Z</time>
      </trkpt>
      <trkpt lat="44.54974" lon="5.85558">
        <ele>861.531499</ele>
        <time>2025-07-10T06:08:36.000Z</time>
      </trkpt>
      <trkpt lat="44.54977" lon="5.85559">
        <ele>861.592473</ele>
        <time>2025-07-10T06:08:37.000Z</time>
      </trkpt>
      <trkpt lat="44.54979" lon="5.85561">
        <ele>861.656168</ele>
        <time>2025-07-10T06:08:38.000Z</time>
      </trkpt>
      <trkpt lat="44.54982" lon="5.85562">
        <ele>861.720434</ele>
        <time>2025-07-10T06:08:39.000Z</time>
      </trkpt>
      <trkpt lat="44.54984" lon="5.85564">
        <ele>861.78807</ele>
        <time>2025-07-10T06:08:40.000Z</time>
      </trkpt>
      <trkpt lat="44.54987" lon="5.85565">
        <ele>861.855705</ele>
        <time>2025-07-10T06:08:41.000Z</time>
      </trkpt>
      <trkpt lat="44.5499" lon="5.85566">
        <ele>861.923267</ele>
        <time>2025-07-10T06:08:42.000Z</time>
      </trkpt>
      <trkpt lat="44.54993" lon="5.85568">
        <ele>861.991862</ele>
        <time>2025-07-10T06:08:43.000Z</time>
      </trkpt>
      <trkpt lat="44.54995" lon="5.85569">
        <ele>862.057735</ele>
        <time>2025-07-10T06:08:44.000Z</time>
      </trkpt>
      <trkpt lat="44.54998" lon="5.8557">
        <ele>862.128508</ele>
        <time>2025-07-10T06:08:45.000Z</time>
      </trkpt>
      <trkpt lat="44.55001" lon="5.85572">
        <ele>862.196143</ele>
        <time>2025-07-10T06:08:46.000Z</time>
      </trkpt>
      <trkpt lat="44.55004" lon="5.85574">
        <ele>862.268053</ele>
        <time>2025-07-10T06:08:47.000Z</time>
      </trkpt>
      <trkpt lat="44.55007" lon="5.85575">
        <ele>862.339126</ele>
        <time>2025-07-10T06:08:48.000Z</time>
      </trkpt>
      <trkpt lat="44.5501" lon="5.85577">
        <ele>862.408894</ele>
        <time>2025-07-10T06:08:49.000Z</time>
      </trkpt>
      <trkpt lat="44.55013" lon="5.85579">
        <ele>862.483556</ele>
        <time>2025-07-10T06:08:50.000Z</time>
      </trkpt>
      <trkpt lat="44.55015" lon="5.85581">
        <ele>862.55533</ele>
        <time>2025-07-10T06:08:51.000Z</time>
      </trkpt>
      <trkpt lat="44.55018" lon="5.85582">
        <ele>862.626403</ele>
        <time>2025-07-10T06:08:52.000Z</time>
      </trkpt>
      <trkpt lat="44.55021" lon="5.85584">
        <ele>862.696205</ele>
        <time>2025-07-10T06:08:53.000Z</time>
      </trkpt>
      <trkpt lat="44.55024" lon="5.85586">
        <ele>862.770689</ele>
        <time>2025-07-10T06:08:54.000Z</time>
      </trkpt>
      <trkpt lat="44.55027" lon="5.85587">
        <ele>862.844307</ele>
        <time>2025-07-10T06:08:55.000Z</time>
      </trkpt>
      <trkpt lat="44.55029" lon="5.85589">
        <ele>862.917285</ele>
        <time>2025-07-10T06:08:56.000Z</time>
      </trkpt>
      <trkpt lat="44.55032" lon="5.85591">
        <ele>862.992386</ele>
        <time>2025-07-10T06:08:57.000Z</time>
      </trkpt>
      <trkpt lat="44.55035" lon="5.85593">
        <ele>863.068274</ele>
        <time>2025-07-10T06:08:58.000Z</time>
      </trkpt>
      <trkpt lat="44.55038" lon="5.85595">
        <ele>863.145609</ele>
        <time>2025-07-10T06:08:59.000Z</time>
      </trkpt>
      <trkpt lat="44.55041" lon="5.85597">
        <ele>863.223599</ele>
        <time>2025-07-10T06:09:00.000Z</time>
      </trkpt>
      <trkpt lat="44.55044" lon="5.85599">
        <ele>863.302273</ele>
        <time>2025-07-10T06:09:01.000Z</time>
      </trkpt>
      <trkpt lat="44.55047" lon="5.85601">
        <ele>863.378775</ele>
        <time>2025-07-10T06:09:02.000Z</time>
      </trkpt>
      <trkpt lat="44.5505" lon="5.85602">
        <ele>863.4539</ele>
        <time>2025-07-10T06:09:03.000Z</time>
      </trkpt>
      <trkpt lat="44.55053" lon="5.85604">
        <ele>863.533456</ele>
        <time>2025-07-10T06:09:04.000Z</time>
      </trkpt>
      <trkpt lat="44.55056" lon="5.85606">
        <ele>863.613013</ele>
        <time>2025-07-10T06:09:05.000Z</time>
      </trkpt>
      <trkpt lat="44.55059" lon="5.85608">
        <ele>863.692404</ele>
        <time>2025-07-10T06:09:06.000Z</time>
      </trkpt>
      <trkpt lat="44.55062" lon="5.8561">
        <ele>863.771078</ele>
        <time>2025-07-10T06:09:07.000Z</time>
      </trkpt>
      <trkpt lat="44.55065" lon="5.85612">
        <ele>863.849067</ele>
        <time>2025-07-10T06:09:08.000Z</time>
      </trkpt>
      <trkpt lat="44.55068" lon="5.85613">
        <ele>863.925193</ele>
        <time>2025-07-10T06:09:09.000Z</time>
      </trkpt>
      <trkpt lat="44.55071" lon="5.85615">
        <ele>864.00099</ele>
        <time>2025-07-10T06:09:10.000Z</time>
      </trkpt>
      <trkpt lat="44.55074" lon="5.85617">
        <ele>864.079664</ele>
        <time>2025-07-10T06:09:11.000Z</time>
      </trkpt>
      <trkpt lat="44.55077" lon="5.85619">
        <ele>864.153282</ele>
        <time>2025-07-10T06:09:12.000Z</time>
      </trkpt>
      <trkpt lat="44.55079" lon="5.8562">
        <ele>864.224733</ele>
        <time>2025-07-10T06:09:13.000Z</time>
      </trkpt>
      <trkpt lat="44.55082" lon="5.85622">
        <ele>864.298039</ele>
        <time>2025-07-10T06:09:14.000Z</time>
      </trkpt>
      <trkpt lat="44.55085" lon="5.85623">
        <ele>864.369679</ele>
        <time>2025-07-10T06:09:15.000Z</time>
      </trkpt>
      <trkpt lat="44.55088" lon="5.85625">
        <ele>864.441319</ele>
        <time>2025-07-10T06:09:16.000Z</time>
      </trkpt>
      <trkpt lat="44.55091" lon="5.85626">
        <ele>864.5113</ele>
        <time>2025-07-10T06:09:17.000Z</time>
      </trkpt>
      <trkpt lat="44.55093" lon="5.85627">
        <ele>864.581796</ele>
        <time>2025-07-10T06:09:18.000Z</time>
      </trkpt>
      <trkpt lat="44.55096" lon="5.85628">
        <ele>864.653603</ele>
        <time>2025-07-10T06:09:19.000Z</time>
      </trkpt>
      <trkpt lat="44.55099" lon="5.85629">
        <ele>864.722665</ele>
        <time>2025-07-10T06:09:20.000Z</time>
      </trkpt>
      <trkpt lat="44.55102" lon="5.85631">
        <ele>864.790526</ele>
        <time>2025-07-10T06:09:21.000Z</time>
      </trkpt>
      <trkpt lat="44.55104" lon="5.85633">
        <ele>864.860583</ele>
        <time>2025-07-10T06:09:22.000Z</time>
      </trkpt>
      <trkpt lat="44.55107" lon="5.85634">
        <ele>864.931634</ele>
        <time>2025-07-10T06:09:23.000Z</time>
      </trkpt>
      <trkpt lat="44.5511" lon="5.85635">
        <ele>865.000696</ele>
        <time>2025-07-10T06:09:24.000Z</time>
      </trkpt>
      <trkpt lat="44.55113" lon="5.85636">
        <ele>865.06703</ele>
        <time>2025-07-10T06:09:25.000Z</time>
      </trkpt>
      <trkpt lat="44.55116" lon="5.85636">
        <ele>865.134734</ele>
        <time>2025-07-10T06:09:26.000Z</time>
      </trkpt>
      <trkpt lat="44.55118" lon="5.85637">
        <ele>865.204574</ele>
        <time>2025-07-10T06:09:27.000Z</time>
      </trkpt>
      <trkpt lat="44.55122" lon="5.85638">
        <ele>865.279375</ele>
        <time>2025-07-10T06:09:28.000Z</time>
      </trkpt>
      <trkpt lat="44.55125" lon="5.85638">
        <ele>865.351809</ele>
        <time>2025-07-10T06:09:29.000Z</time>
      </trkpt>
      <trkpt lat="44.55127" lon="5.85638">
        <ele>865.421316</ele>
        <time>2025-07-10T06:09:30.000Z</time>
      </trkpt>
      <trkpt lat="44.55131" lon="5.85638">
        <ele>865.500214</ele>
        <time>2025-07-10T06:09:31.000Z</time>
      </trkpt>
      <trkpt lat="44.55134" lon="5.85638">
        <ele>865.574392</ele>
        <time>2025-07-10T06:09:32.000Z</time>
      </trkpt>
      <trkpt lat="44.55137" lon="5.85638">
        <ele>865.650958</ele>
        <time>2025-07-10T06:09:33.000Z</time>
      </trkpt>
      <trkpt lat="44.5514" lon="5.85638">
        <ele>865.722687</ele>
        <time>2025-07-10T06:09:34.000Z</time>
      </trkpt>
      <trkpt lat="44.55143" lon="5.85638">
        <ele>865.794396</ele>
        <time>2025-07-10T06:09:35.000Z</time>
      </trkpt>
      <trkpt lat="44.55146" lon="5.85638">
        <ele>865.868496</ele>
        <time>2025-07-10T06:09:36.000Z</time>
      </trkpt>
      <trkpt lat="44.55149" lon="5.85638">
        <ele>865.942615</ele>
        <time>2025-07-10T06:09:37.000Z</time>
      </trkpt>
      <trkpt lat="44.55152" lon="5.85638">
        <ele>866.016734</ele>
        <time>2025-07-10T06:09:38.000Z</time>
      </trkpt>
      <trkpt lat="44.55156" lon="5.85638">
        <ele>866.093526</ele>
        <time>2025-07-10T06:09:39.000Z</time>
      </trkpt>
      <trkpt lat="44.55159" lon="5.85637">
        <ele>866.165739</ele>
        <time>2025-07-10T06:09:40.000Z</time>
      </trkpt>
      <trkpt lat="44.55162" lon="5.85637">
        <ele>866.237469</ele>
        <time>2025-07-10T06:09:41.000Z</time>
      </trkpt>
      <trkpt lat="44.55165" lon="5.85638">
        <ele>866.311744</ele>
        <time>2025-07-10T06:09:42.000Z</time>
      </trkpt>
      <trkpt lat="44.55168" lon="5.85638">
        <ele>866.388234</ele>
        <time>2025-07-10T06:09:43.000Z</time>
      </trkpt>
      <trkpt lat="44.55171" lon="5.85637">
        <ele>866.464894</ele>
        <time>2025-07-10T06:09:44.000Z</time>
      </trkpt>
      <trkpt lat="44.55174" lon="5.85637">
        <ele>866.544068</ele>
        <time>2025-07-10T06:09:45.000Z</time>
      </trkpt>
      <trkpt lat="44.55178" lon="5.85637">
        <ele>866.620728</ele>
        <time>2025-07-10T06:09:46.000Z</time>
      </trkpt>
      <trkpt lat="44.55181" lon="5.85637">
        <ele>866.699627</ele>
        <time>2025-07-10T06:09:47.000Z</time>
      </trkpt>
      <trkpt lat="44.55184" lon="5.85637">
        <ele>866.778672</ele>
        <time>2025-07-10T06:09:48.000Z</time>
      </trkpt>
      <trkpt lat="44.55187" lon="5.85637">
        <ele>866.857718</ele>
        <time>2025-07-10T06:09:49.000Z</time>
      </trkpt>
      <trkpt lat="44.55191" lon="5.85637">
        <ele>866.934283</ele>
        <time>2025-07-10T06:09:50.000Z</time>
      </trkpt>
      <trkpt lat="44.55194" lon="5.85638">
        <ele>867.008002</ele>
        <time>2025-07-10T06:09:51.000Z</time>
      </trkpt>
      <trkpt lat="44.55197" lon="5.85638">
        <ele>867.075724</ele>
        <time>2025-07-10T06:09:52.000Z</time>
      </trkpt>
      <trkpt lat="44.552" lon="5.85639">
        <ele>867.139707</ele>
        <time>2025-07-10T06:09:53.000Z</time>
      </trkpt>
      <trkpt lat="44.55204" lon="5.85639">
        <ele>867.207429</ele>
        <time>2025-07-10T06:09:54.000Z</time>
      </trkpt>
      <trkpt lat="44.55207" lon="5.85639">
        <ele>867.274964</ele>
        <time>2025-07-10T06:09:55.000Z</time>
      </trkpt>
      <trkpt lat="44.5521" lon="5.85639">
        <ele>867.340455</ele>
        <time>2025-07-10T06:09:56.000Z</time>
      </trkpt>
      <trkpt lat="44.55213" lon="5.8564">
        <ele>867.406028</ele>
        <time>2025-07-10T06:09:57.000Z</time>
      </trkpt>
      <trkpt lat="44.55217" lon="5.8564">
        <ele>867.471714</ele>
        <time>2025-07-10T06:09:58.000Z</time>
      </trkpt>
      <trkpt lat="44.5522" lon="5.85641">
        <ele>867.535911</ele>
        <time>2025-07-10T06:09:59.000Z</time>
      </trkpt>
      <trkpt lat="44.55223" lon="5.85641">
        <ele>867.60192</ele>
        <time>2025-07-10T06:10:00.000Z</time>
      </trkpt>
      <trkpt lat="44.55226" lon="5.85642">
        <ele>867.667751</ele>
        <time>2025-07-10T06:10:01.000Z</time>
      </trkpt>
      <trkpt lat="44.55229" lon="5.85643">
        <ele>867.735786</ele>
        <time>2025-07-10T06:10:02.000Z</time>
      </trkpt>
      <trkpt lat="44.55233" lon="5.85643">
        <ele>867.805683</ele>
        <time>2025-07-10T06:10:03.000Z</time>
      </trkpt>
      <trkpt lat="44.55236" lon="5.85643">
        <ele>867.873406</ele>
        <time>2025-07-10T06:10:04.000Z</time>
      </trkpt>
      <trkpt lat="44.55239" lon="5.85644">
        <ele>867.941128</ele>
        <time>2025-07-10T06:10:05.000Z</time>
      </trkpt>
      <trkpt lat="44.55243" lon="5.85644">
        <ele>868.009164</ele>
        <time>2025-07-10T06:10:06.000Z</time>
      </trkpt>
      <trkpt lat="44.55246" lon="5.85645">
        <ele>868.07965</ele>
        <time>2025-07-10T06:10:07.000Z</time>
      </trkpt>
      <trkpt lat="44.55249" lon="5.85646">
        <ele>868.146107</ele>
        <time>2025-07-10T06:10:08.000Z</time>
      </trkpt>
      <trkpt lat="44.55252" lon="5.85647">
        <ele>868.212115</ele>
        <time>2025-07-10T06:10:09.000Z</time>
      </trkpt>
      <trkpt lat="44.55256" lon="5.85647">
        <ele>868.280151</ele>
        <time>2025-07-10T06:10:10.000Z</time>
      </trkpt>
      <trkpt lat="44.55259" lon="5.85648">
        <ele>868.350214</ele>
        <time>2025-07-10T06:10:11.000Z</time>
      </trkpt>
      <trkpt lat="44.55263" lon="5.85648">
        <ele>868.419974</ele>
        <time>2025-07-10T06:10:12.000Z</time>
      </trkpt>
      <trkpt lat="44.55266" lon="5.85649">
        <ele>868.489734</ele>
        <time>2025-07-10T06:10:13.000Z</time>
      </trkpt>
      <trkpt lat="44.55269" lon="5.85649">
        <ele>868.557769</ele>
        <time>2025-07-10T06:10:14.000Z</time>
      </trkpt>
      <trkpt lat="44.55273" lon="5.8565">
        <ele>868.627833</ele>
        <time>2025-07-10T06:10:15.000Z</time>
      </trkpt>
      <trkpt lat="44.55276" lon="5.8565">
        <ele>868.695555</ele>
        <time>2025-07-10T06:10:16.000Z</time>
      </trkpt>
      <trkpt lat="44.55279" lon="5.85651">
        <ele>868.767486</ele>
        <time>2025-07-10T06:10:17.000Z</time>
      </trkpt>
      <trkpt lat="44.55283" lon="5.85651">
        <ele>868.841149</ele>
        <time>2025-07-10T06:10:18.000Z</time>
      </trkpt>
      <trkpt lat="44.55287" lon="5.85651">
        <ele>868.914984</ele>
        <time>2025-07-10T06:10:19.000Z</time>
      </trkpt>
      <trkpt lat="44.5529" lon="5.85652">
        <ele>868.991762</ele>
        <time>2025-07-10T06:10:20.000Z</time>
      </trkpt>
      <trkpt lat="44.55294" lon="5.85653">
        <ele>869.070326</ele>
        <time>2025-07-10T06:10:21.000Z</time>
      </trkpt>
      <trkpt lat="44.55298" lon="5.85654">
        <ele>869.146479</ele>
        <time>2025-07-10T06:10:22.000Z</time>
      </trkpt>
      <trkpt lat="44.55301" lon="5.85654">
        <ele>869.220444</ele>
        <time>2025-07-10T06:10:23.000Z</time>
      </trkpt>
      <trkpt lat="44.55305" lon="5.85655">
        <ele>869.294408</ele>
        <time>2025-07-10T06:10:24.000Z</time>
      </trkpt>
      <trkpt lat="44.55309" lon="5.85655">
        <ele>869.366692</ele>
        <time>2025-07-10T06:10:25.000Z</time>
      </trkpt>
      <trkpt lat="44.55312" lon="5.85656">
        <ele>869.434415</ele>
        <time>2025-07-10T06:10:26.000Z</time>
      </trkpt>
      <trkpt lat="44.55315" lon="5.85656">
        <ele>869.50599</ele>
        <time>2025-07-10T06:10:27.000Z</time>
      </trkpt>
      <trkpt lat="44.55319" lon="5.85656">
        <ele>869.579725</ele>
        <time>2025-07-10T06:10:28.000Z</time>
      </trkpt>
      <trkpt lat="44.55322" lon="5.85656">
        <ele>869.651419</ele>
        <time>2025-07-10T06:10:29.000Z</time>
      </trkpt>
      <trkpt lat="44.55326" lon="5.85657">
        <ele>869.726183</ele>
        <time>2025-07-10T06:10:30.000Z</time>
      </trkpt>
      <trkpt lat="44.5533" lon="5.85658">
        <ele>869.802517</ele>
        <time>2025-07-10T06:10:31.000Z</time>
      </trkpt>
      <trkpt lat="44.55333" lon="5.85659">
        <ele>869.878517</ele>
        <time>2025-07-10T06:10:32.000Z</time>
      </trkpt>
      <trkpt lat="44.55337" lon="5.85659">
        <ele>869.950609</ele>
        <time>2025-07-10T06:10:33.000Z</time>
      </trkpt>
      <trkpt lat="44.5534" lon="5.8566">
        <ele>870.020369</ele>
        <time>2025-07-10T06:10:34.000Z</time>
      </trkpt>
      <trkpt lat="44.55344" lon="5.8566">
        <ele>870.092462</ele>
        <time>2025-07-10T06:10:35.000Z</time>
      </trkpt>
      <trkpt lat="44.55347" lon="5.85661">
        <ele>870.16677</ele>
        <time>2025-07-10T06:10:36.000Z</time>
      </trkpt>
      <trkpt lat="44.55351" lon="5.85661">
        <ele>870.240893</ele>
        <time>2025-07-10T06:10:37.000Z</time>
      </trkpt>
      <trkpt lat="44.55355" lon="5.85662">
        <ele>870.31269</ele>
        <time>2025-07-10T06:10:38.000Z</time>
      </trkpt>
      <trkpt lat="44.55358" lon="5.85662">
        <ele>870.384384</ele>
        <time>2025-07-10T06:10:39.000Z</time>
      </trkpt>
      <trkpt lat="44.55362" lon="5.85662">
        <ele>870.458047</ele>
        <time>2025-07-10T06:10:40.000Z</time>
      </trkpt>
      <trkpt lat="44.55365" lon="5.85663">
        <ele>870.527807</ele>
        <time>2025-07-10T06:10:41.000Z</time>
      </trkpt>
      <trkpt lat="44.55369" lon="5.85663">
        <ele>870.60009</ele>
        <time>2025-07-10T06:10:42.000Z</time>
      </trkpt>
      <trkpt lat="44.55372" lon="5.85664">
        <ele>870.670413</ele>
        <time>2025-07-10T06:10:43.000Z</time>
      </trkpt>
      <trkpt lat="44.55375" lon="5.85665">
        <ele>870.762162</ele>
        <time>2025-07-10T06:10:44.000Z</time>
      </trkpt>
      <trkpt lat="44.55379" lon="5.85665">
        <ele>870.858844</ele>
        <time>2025-07-10T06:10:45.000Z</time>
      </trkpt>
      <trkpt lat="44.55382" lon="5.85666">
        <ele>870.955844</ele>
        <time>2025-07-10T06:10:46.000Z</time>
      </trkpt>
      <trkpt lat="44.55385" lon="5.85666">
        <ele>871.047593</ele>
        <time>2025-07-10T06:10:47.000Z</time>
      </trkpt>
      <trkpt lat="44.55389" lon="5.85667">
        <ele>871.142076</ele>
        <time>2025-07-10T06:10:48.000Z</time>
      </trkpt>
      <trkpt lat="44.55392" lon="5.85667">
        <ele>871.233824</ele>
        <time>2025-07-10T06:10:49.000Z</time>
      </trkpt>
      <trkpt lat="44.55395" lon="5.85668">
        <ele>871.327898</ele>
        <time>2025-07-10T06:10:50.000Z</time>
      </trkpt>
      <trkpt lat="44.55399" lon="5.85668">
        <ele>871.427235</ele>
        <time>2025-07-10T06:10:51.000Z</time>
      </trkpt>
      <trkpt lat="44.55403" lon="5.85668">
        <ele>871.526979</ele>
        <time>2025-07-10T06:10:52.000Z</time>
      </trkpt>
      <trkpt lat="44.55405" lon="5.85669">
        <ele>871.604406</ele>
        <time>2025-07-10T06:10:53.000Z</time>
      </trkpt>
      <trkpt lat="44.55408" lon="5.85669">
        <ele>871.676201</ele>
        <time>2025-07-10T06:10:54.000Z</time>
      </trkpt>
      <trkpt lat="44.55411" lon="5.8567">
        <ele>871.757024</ele>
        <time>2025-07-10T06:10:55.000Z</time>
      </trkpt>
      <trkpt lat="44.55414" lon="5.85671">
        <ele>871.844726</ele>
        <time>2025-07-10T06:10:56.000Z</time>
      </trkpt>
      <trkpt lat="44.55417" lon="5.85671">
        <ele>871.938985</ele>
        <time>2025-07-10T06:10:57.000Z</time>
      </trkpt>
      <trkpt lat="44.55421" lon="5.85671">
        <ele>872.033059</ele>
        <time>2025-07-10T06:10:58.000Z</time>
      </trkpt>
      <trkpt lat="44.55424" lon="5.85672">
        <ele>872.132396</ele>
        <time>2025-07-10T06:10:59.000Z</time>
      </trkpt>
      <trkpt lat="44.55428" lon="5.85672">
        <ele>872.23783</ele>
        <time>2025-07-10T06:11:00.000Z</time>
      </trkpt>
      <trkpt lat="44.55432" lon="5.85673">
        <ele>872.337575</ele>
        <time>2025-07-10T06:11:01.000Z</time>
      </trkpt>
      <trkpt lat="44.55435" lon="5.85673">
        <ele>872.434576</ele>
        <time>2025-07-10T06:11:02.000Z</time>
      </trkpt>
      <trkpt lat="44.55439" lon="5.85674">
        <ele>872.523351</ele>
        <time>2025-07-10T06:11:03.000Z</time>
      </trkpt>
      <trkpt lat="44.55442" lon="5.85674">
        <ele>872.620173</ele>
        <time>2025-07-10T06:11:04.000Z</time>
      </trkpt>
      <trkpt lat="44.55445" lon="5.85675">
        <ele>872.71169</ele>
        <time>2025-07-10T06:11:05.000Z</time>
      </trkpt>
      <trkpt lat="44.55449" lon="5.85675">
        <ele>872.800269</ele>
        <time>2025-07-10T06:11:06.000Z</time>
      </trkpt>
      <trkpt lat="44.55452" lon="5.85675">
        <ele>872.891596</ele>
        <time>2025-07-10T06:11:07.000Z</time>
      </trkpt>
      <trkpt lat="44.55455" lon="5.85676">
        <ele>872.982923</ele>
        <time>2025-07-10T06:11:08.000Z</time>
      </trkpt>
      <trkpt lat="44.55458" lon="5.85676">
        <ele>873.073995</ele>
        <time>2025-07-10T06:11:09.000Z</time>
      </trkpt>
      <trkpt lat="44.55462" lon="5.85676">
        <ele>873.165322</ele>
        <time>2025-07-10T06:11:10.000Z</time>
      </trkpt>
      <trkpt lat="44.55465" lon="5.85677">
        <ele>873.257343</ele>
        <time>2025-07-10T06:11:11.000Z</time>
      </trkpt>
      <trkpt lat="44.55468" lon="5.85678">
        <ele>873.343379</ele>
        <time>2025-07-10T06:11:12.000Z</time>
      </trkpt>
      <trkpt lat="44.55471" lon="5.85678">
        <ele>873.426676</ele>
        <time>2025-07-10T06:11:13.000Z</time>
      </trkpt>
      <trkpt lat="44.55474" lon="5.85678">
        <ele>873.515104</ele>
        <time>2025-07-10T06:11:14.000Z</time>
      </trkpt>
      <trkpt lat="44.55478" lon="5.85679">
        <ele>873.606282</ele>
        <time>2025-07-10T06:11:15.000Z</time>
      </trkpt>
      <trkpt lat="44.55481" lon="5.85679">
        <ele>873.691846</ele>
        <time>2025-07-10T06:11:16.000Z</time>
      </trkpt>
      <trkpt lat="44.55484" lon="5.8568">
        <ele>873.775398</ele>
        <time>2025-07-10T06:11:17.000Z</time>
      </trkpt>
      <trkpt lat="44.55487" lon="5.8568">
        <ele>873.865017</ele>
        <time>2025-07-10T06:11:18.000Z</time>
      </trkpt>
      <trkpt lat="44.5549" lon="5.85681">
        <ele>873.953793</ele>
        <time>2025-07-10T06:11:19.000Z</time>
      </trkpt>
      <trkpt lat="44.55493" lon="5.85681">
        <ele>874.039829</ele>
        <time>2025-07-10T06:11:20.000Z</time>
      </trkpt>
      <trkpt lat="44.55496" lon="5.85682">
        <ele>874.123681</ele>
        <time>2025-07-10T06:11:21.000Z</time>
      </trkpt>
      <trkpt lat="44.55499" lon="5.85683">
        <ele>874.205571</ele>
        <time>2025-07-10T06:11:22.000Z</time>
      </trkpt>
      <trkpt lat="44.55502" lon="5.85684">
        <ele>874.291854</ele>
        <time>2025-07-10T06:11:23.000Z</time>
      </trkpt>
      <trkpt lat="44.55505" lon="5.85684">
        <ele>874.380172</ele>
        <time>2025-07-10T06:11:24.000Z</time>
      </trkpt>
      <trkpt lat="44.55509" lon="5.85684">
        <ele>874.468948</ele>
        <time>2025-07-10T06:11:25.000Z</time>
      </trkpt>
      <trkpt lat="44.55512" lon="5.85685">
        <ele>874.552036</ele>
        <time>2025-07-10T06:11:26.000Z</time>
      </trkpt>
      <trkpt lat="44.55515" lon="5.85685">
        <ele>874.634962</ele>
        <time>2025-07-10T06:11:27.000Z</time>
      </trkpt>
      <trkpt lat="44.55518" lon="5.85685">
        <ele>874.720998</ele>
        <time>2025-07-10T06:11:28.000Z</time>
      </trkpt>
      <trkpt lat="44.55521" lon="5.85686">
        <ele>874.801558</ele>
        <time>2025-07-10T06:11:29.000Z</time>
      </trkpt>
      <trkpt lat="44.55524" lon="5.85686">
        <ele>874.884856</ele>
        <time>2025-07-10T06:11:30.000Z</time>
      </trkpt>
      <trkpt lat="44.55527" lon="5.85687">
        <ele>874.970892</ele>
        <time>2025-07-10T06:11:31.000Z</time>
      </trkpt>
      <trkpt lat="44.5553" lon="5.85687">
        <ele>875.056726</ele>
        <time>2025-07-10T06:11:32.000Z</time>
      </trkpt>
      <trkpt lat="44.55533" lon="5.85688">
        <ele>875.139814</ele>
        <time>2025-07-10T06:11:33.000Z</time>
      </trkpt>
      <trkpt lat="44.55536" lon="5.85688">
        <ele>875.222903</ele>
        <time>2025-07-10T06:11:34.000Z</time>
      </trkpt>
      <trkpt lat="44.55539" lon="5.85689">
        <ele>875.308737</ele>
        <time>2025-07-10T06:11:35.000Z</time>
      </trkpt>
      <trkpt lat="44.55542" lon="5.85689">
        <ele>875.391663</ele>
        <time>2025-07-10T06:11:36.000Z</time>
      </trkpt>
      <trkpt lat="44.55545" lon="5.85689">
        <ele>875.471838</ele>
        <time>2025-07-10T06:11:37.000Z</time>
      </trkpt>
      <trkpt lat="44.55548" lon="5.8569">
        <ele>875.549439</ele>
        <time>2025-07-10T06:11:38.000Z</time>
      </trkpt>
      <trkpt lat="44.55551" lon="5.8569">
        <ele>875.633333</ele>
        <time>2025-07-10T06:11:39.000Z</time>
      </trkpt>
      <trkpt lat="44.55554" lon="5.8569">
        <ele>875.720202</ele>
        <time>2025-07-10T06:11:40.000Z</time>
      </trkpt>
      <trkpt lat="44.55557" lon="5.85691">
        <ele>875.804217</ele>
        <time>2025-07-10T06:11:41.000Z</time>
      </trkpt>
      <trkpt lat="44.5556" lon="5.85691">
        <ele>875.891087</ele>
        <time>2025-07-10T06:11:42.000Z</time>
      </trkpt>
      <trkpt lat="44.55562" lon="5.85692">
        <ele>875.974575</ele>
        <time>2025-07-10T06:11:43.000Z</time>
      </trkpt>
      <trkpt lat="44.55566" lon="5.85692">
        <ele>876.063808</ele>
        <time>2025-07-10T06:11:44.000Z</time>
      </trkpt>
      <trkpt lat="44.55569" lon="5.85692">
        <ele>876.153159</ele>
        <time>2025-07-10T06:11:45.000Z</time>
      </trkpt>
      <trkpt lat="44.55572" lon="5.85692">
        <ele>876.239519</ele>
        <time>2025-07-10T06:11:46.000Z</time>
      </trkpt>
      <trkpt lat="44.55575" lon="5.85693">
        <ele>876.323133</ele>
        <time>2025-07-10T06:11:47.000Z</time>
      </trkpt>
      <trkpt lat="44.55578" lon="5.85693">
        <ele>876.409615</ele>
        <time>2025-07-10T06:11:48.000Z</time>
      </trkpt>
      <trkpt lat="44.5558" lon="5.85693">
        <ele>876.493405</ele>
        <time>2025-07-10T06:11:49.000Z</time>
      </trkpt>
      <trkpt lat="44.55584" lon="5.85694">
        <ele>876.582638</ele>
        <time>2025-07-10T06:11:50.000Z</time>
      </trkpt>
      <trkpt lat="44.55587" lon="5.85694">
        <ele>876.668926</ele>
        <time>2025-07-10T06:11:51.000Z</time>
      </trkpt>
      <trkpt lat="44.5559" lon="5.85694">
        <ele>876.755286</ele>
        <time>2025-07-10T06:11:52.000Z</time>
      </trkpt>
      <trkpt lat="44.55593" lon="5.85694">
        <ele>876.844801</ele>
        <time>2025-07-10T06:11:53.000Z</time>
      </trkpt>
      <trkpt lat="44.55595" lon="5.85695">
        <ele>876.922869</ele>
        <time>2025-07-10T06:11:54.000Z</time>
      </trkpt>
      <trkpt lat="44.55598" lon="5.85695">
        <ele>877.006884</ele>
        <time>2025-07-10T06:11:55.000Z</time>
      </trkpt>
      <trkpt lat="44.55601" lon="5.85695">
        <ele>877.099103</ele>
        <time>2025-07-10T06:11:56.000Z</time>
      </trkpt>
      <trkpt lat="44.55604" lon="5.85696">
        <ele>877.182517</ele>
        <time>2025-07-10T06:11:57.000Z</time>
      </trkpt>
      <trkpt lat="44.55607" lon="5.85696">
        <ele>877.267129</ele>
        <time>2025-07-10T06:11:58.000Z</time>
      </trkpt>
      <trkpt lat="44.5561" lon="5.85697">
        <ele>877.345197</ele>
        <time>2025-07-10T06:11:59.000Z</time>
      </trkpt>
      <trkpt lat="44.55613" lon="5.85697">
        <ele>877.428811</ele>
        <time>2025-07-10T06:12:00.000Z</time>
      </trkpt>
      <trkpt lat="44.55616" lon="5.85697">
        <ele>877.515463</ele>
        <time>2025-07-10T06:12:01.000Z</time>
      </trkpt>
      <trkpt lat="44.55619" lon="5.85698">
        <ele>877.602115</ele>
        <time>2025-07-10T06:12:02.000Z</time>
      </trkpt>
      <trkpt lat="44.55622" lon="5.85698">
        <ele>877.683043</ele>
        <time>2025-07-10T06:12:03.000Z</time>
      </trkpt>
      <trkpt lat="44.55625" lon="5.85698">
        <ele>877.766658</ele>
        <time>2025-07-10T06:12:04.000Z</time>
      </trkpt>
      <trkpt lat="44.55627" lon="5.85699">
        <ele>877.850447</ele>
        <time>2025-07-10T06:12:05.000Z</time>
      </trkpt>
      <trkpt lat="44.5563" lon="5.85699">
        <ele>877.931893</ele>
        <time>2025-07-10T06:12:06.000Z</time>
      </trkpt>
      <trkpt lat="44.55633" lon="5.857">
        <ele>878.015682</ele>
        <time>2025-07-10T06:12:07.000Z</time>
      </trkpt>
      <trkpt lat="44.55636" lon="5.857">
        <ele>878.099472</ele>
        <time>2025-07-10T06:12:08.000Z</time>
      </trkpt>
      <trkpt lat="44.55639" lon="5.85701">
        <ele>878.180401</ele>
        <time>2025-07-10T06:12:09.000Z</time>
      </trkpt>
      <trkpt lat="44.55642" lon="5.85701">
        <ele>878.26419</ele>
        <time>2025-07-10T06:12:10.000Z</time>
      </trkpt>
      <trkpt lat="44.55645" lon="5.85701">
        <ele>878.344937</ele>
        <time>2025-07-10T06:12:11.000Z</time>
      </trkpt>
      <trkpt lat="44.55647" lon="5.85702">
        <ele>878.425554</ele>
        <time>2025-07-10T06:12:12.000Z</time>
      </trkpt>
      <trkpt lat="44.5565" lon="5.85702">
        <ele>878.50617</ele>
        <time>2025-07-10T06:12:13.000Z</time>
      </trkpt>
      <trkpt lat="44.55653" lon="5.85702">
        <ele>878.585121</ele>
        <time>2025-07-10T06:12:14.000Z</time>
      </trkpt>
      <trkpt lat="44.55656" lon="5.85703">
        <ele>878.663725</ele>
        <time>2025-07-10T06:12:15.000Z</time>
      </trkpt>
      <trkpt lat="44.55658" lon="5.85704">
        <ele>878.748014</ele>
        <time>2025-07-10T06:12:16.000Z</time>
      </trkpt>
      <trkpt lat="44.55661" lon="5.85704">
        <ele>878.831629</ele>
        <time>2025-07-10T06:12:17.000Z</time>
      </trkpt>
      <trkpt lat="44.55664" lon="5.85704">
        <ele>878.915042</ele>
        <time>2025-07-10T06:12:18.000Z</time>
      </trkpt>
      <trkpt lat="44.55667" lon="5.85704">
        <ele>878.99311</ele>
        <time>2025-07-10T06:12:19.000Z</time>
      </trkpt>
      <trkpt lat="44.55669" lon="5.85705">
        <ele>879.053529</ele>
        <time>2025-07-10T06:12:20.000Z</time>
      </trkpt>
      <trkpt lat="44.5567" lon="5.85705">
        <ele>879.093993</ele>
        <time>2025-07-10T06:12:21.000Z</time>
      </trkpt>
      <trkpt lat="44.55671" lon="5.85705">
        <ele>879.114534</ele>
        <time>2025-07-10T06:12:22.000Z</time>
      </trkpt>
      <trkpt lat="44.55672" lon="5.85707">
        <ele>879.169688</ele>
        <time>2025-07-10T06:12:50.000Z</time>
      </trkpt>
      <trkpt lat="44.55674" lon="5.85707">
        <ele>879.21642</ele>
        <time>2025-07-10T06:12:51.000Z</time>
      </trkpt>
      <trkpt lat="44.55676" lon="5.85708">
        <ele>879.271092</ele>
        <time>2025-07-10T06:12:52.000Z</time>
      </trkpt>
      <trkpt lat="44.55678" lon="5.85707">
        <ele>879.331511</ele>
        <time>2025-07-10T06:12:53.000Z</time>
      </trkpt>
      <trkpt lat="44.5568" lon="5.85707">
        <ele>879.383632</ele>
        <time>2025-07-10T06:12:54.000Z</time>
      </trkpt>
      <trkpt lat="44.55682" lon="5.85707">
        <ele>879.44457</ele>
        <time>2025-07-10T06:12:55.000Z</time>
      </trkpt>
      <trkpt lat="44.55684" lon="5.85707">
        <ele>879.50783</ele>
        <time>2025-07-10T06:12:56.000Z</time>
      </trkpt>
      <trkpt lat="44.55686" lon="5.85707">
        <ele>879.578315</ele>
        <time>2025-07-10T06:12:57.000Z</time>
      </trkpt>
      <trkpt lat="44.55689" lon="5.85708">
        <ele>879.650928</ele>
        <time>2025-07-10T06:12:58.000Z</time>
      </trkpt>
      <trkpt lat="44.55692" lon="5.85708">
        <ele>879.731674</ele>
        <time>2025-07-10T06:12:59.000Z</time>
      </trkpt>
      <trkpt lat="44.55694" lon="5.85709">
        <ele>879.810625</ele>
        <time>2025-07-10T06:13:00.000Z</time>
      </trkpt>
      <trkpt lat="44.55697" lon="5.8571">
        <ele>879.895237</ele>
        <time>2025-07-10T06:13:01.000Z</time>
      </trkpt>
      <trkpt lat="44.557" lon="5.8571">
        <ele>879.982372</ele>
        <time>2025-07-10T06:13:02.000Z</time>
      </trkpt>
      <trkpt lat="44.55703" lon="5.85711">
        <ele>880.066387</ele>
        <time>2025-07-10T06:13:03.000Z</time>
      </trkpt>
      <trkpt lat="44.55706" lon="5.85711">
        <ele>880.156113</ele>
        <time>2025-07-10T06:13:04.000Z</time>
      </trkpt>
      <trkpt lat="44.55709" lon="5.85712">
        <ele>880.245627</ele>
        <time>2025-07-10T06:13:05.000Z</time>
      </trkpt>
      <trkpt lat="44.55713" lon="5.85712">
        <ele>880.33479</ele>
        <time>2025-07-10T06:13:06.000Z</time>
      </trkpt>
      <trkpt lat="44.55716" lon="5.85712">
        <ele>880.421077</ele>
        <time>2025-07-10T06:13:07.000Z</time>
      </trkpt>
      <trkpt lat="44.55719" lon="5.85712">
        <ele>880.510592</ele>
        <time>2025-07-10T06:13:08.000Z</time>
      </trkpt>
      <trkpt lat="44.55722" lon="5.85712">
        <ele>880.599825</ele>
        <time>2025-07-10T06:13:09.000Z</time>
      </trkpt>
      <trkpt lat="44.55725" lon="5.85713">
        <ele>880.695068</ele>
        <time>2025-07-10T06:13:10.000Z</time>
      </trkpt>
      <trkpt lat="44.55728" lon="5.85713">
        <ele>880.787456</ele>
        <time>2025-07-10T06:13:11.000Z</time>
      </trkpt>
      <trkpt lat="44.55731" lon="5.85714">
        <ele>880.871258</ele>
        <time>2025-07-10T06:13:12.000Z</time>
      </trkpt>
      <trkpt lat="44.55735" lon="5.85714">
        <ele>880.956998</ele>
        <time>2025-07-10T06:13:13.000Z</time>
      </trkpt>
      <trkpt lat="44.55738" lon="5.85714">
        <ele>881.040082</ele>
        <time>2025-07-10T06:13:14.000Z</time>
      </trkpt>
      <trkpt lat="44.55741" lon="5.85714">
        <ele>881.120636</ele>
        <time>2025-07-10T06:13:15.000Z</time>
      </trkpt>
      <trkpt lat="44.55744" lon="5.85715">
        <ele>881.199055</ele>
        <time>2025-07-10T06:13:16.000Z</time>
      </trkpt>
      <trkpt lat="44.55747" lon="5.85716">
        <ele>881.280559</ele>
        <time>2025-07-10T06:13:17.000Z</time>
      </trkpt>
      <trkpt lat="44.5575" lon="5.85716">
        <ele>881.3595</ele>
        <time>2025-07-10T06:13:18.000Z</time>
      </trkpt>
      <trkpt lat="44.55753" lon="5.85717">
        <ele>881.441003</ele>
        <time>2025-07-10T06:13:19.000Z</time>
      </trkpt>
      <trkpt lat="44.55756" lon="5.85718">
        <ele>881.522506</ele>
        <time>2025-07-10T06:13:20.000Z</time>
      </trkpt>
      <trkpt lat="44.5576" lon="5.85718">
        <ele>881.606084</ele>
        <time>2025-07-10T06:13:21.000Z</time>
      </trkpt>
      <trkpt lat="44.55763" lon="5.85719">
        <ele>881.689661</ele>
        <time>2025-07-10T06:13:22.000Z</time>
      </trkpt>
      <trkpt lat="44.55766" lon="5.85719">
        <ele>881.775639</ele>
        <time>2025-07-10T06:13:23.000Z</time>
      </trkpt>
      <trkpt lat="44.55769" lon="5.8572">
        <ele>881.859032</ele>
        <time>2025-07-10T06:13:24.000Z</time>
      </trkpt>
      <trkpt lat="44.55772" lon="5.8572">
        <ele>881.93984</ele>
        <time>2025-07-10T06:13:25.000Z</time>
      </trkpt>
      <trkpt lat="44.55776" lon="5.8572">
        <ele>882.023417</ele>
        <time>2025-07-10T06:13:26.000Z</time>
      </trkpt>
      <trkpt lat="44.55779" lon="5.85721">
        <ele>882.106994</ele>
        <time>2025-07-10T06:13:27.000Z</time>
      </trkpt>
      <trkpt lat="44.55782" lon="5.85721">
        <ele>882.187547</ele>
        <time>2025-07-10T06:13:28.000Z</time>
      </trkpt>
      <trkpt lat="44.55785" lon="5.85721">
        <ele>882.270797</ele>
        <time>2025-07-10T06:13:29.000Z</time>
      </trkpt>
      <trkpt lat="44.55788" lon="5.85722">
        <ele>882.356536</ele>
        <time>2025-07-10T06:13:30.000Z</time>
      </trkpt>
      <trkpt lat="44.55791" lon="5.85722">
        <ele>882.434759</ele>
        <time>2025-07-10T06:13:31.000Z</time>
      </trkpt>
      <trkpt lat="44.55794" lon="5.85722">
        <ele>882.510399</ele>
        <time>2025-07-10T06:13:32.000Z</time>
      </trkpt>
      <trkpt lat="44.55797" lon="5.85723">
        <ele>882.588359</ele>
        <time>2025-07-10T06:13:33.000Z</time>
      </trkpt>
      <trkpt lat="44.55801" lon="5.85723">
        <ele>882.674198</ele>
        <time>2025-07-10T06:13:34.000Z</time>
      </trkpt>
      <trkpt lat="44.55804" lon="5.85723">
        <ele>882.755006</ele>
        <time>2025-07-10T06:13:35.000Z</time>
      </trkpt>
      <trkpt lat="44.55807" lon="5.85724">
        <ele>882.840985</ele>
        <time>2025-07-10T06:13:36.000Z</time>
      </trkpt>
      <trkpt lat="44.5581" lon="5.85724">
        <ele>882.921982</ele>
        <time>2025-07-10T06:13:37.000Z</time>
      </trkpt>
      <trkpt lat="44.55813" lon="5.85725">
        <ele>883.000642</ele>
        <time>2025-07-10T06:13:38.000Z</time>
      </trkpt>
      <trkpt lat="44.55816" lon="5.85725">
        <ele>883.081872</ele>
        <time>2025-07-10T06:13:39.000Z</time>
      </trkpt>
      <trkpt lat="44.55819" lon="5.85726">
        <ele>883.162425</ele>
        <time>2025-07-10T06:13:40.000Z</time>
      </trkpt>
      <trkpt lat="44.55822" lon="5.85726">
        <ele>883.242893</ele>
        <time>2025-07-10T06:13:41.000Z</time>
      </trkpt>
      <trkpt lat="44.55826" lon="5.85726">
        <ele>883.326286</ele>
        <time>2025-07-10T06:13:42.000Z</time>
      </trkpt>
      <trkpt lat="44.55829" lon="5.85727">
        <ele>883.409863</ele>
        <time>2025-07-10T06:13:43.000Z</time>
      </trkpt>
      <trkpt lat="44.55832" lon="5.85727">
        <ele>883.491093</ele>
        <time>2025-07-10T06:13:44.000Z</time>
      </trkpt>
      <trkpt lat="44.55835" lon="5.85728">
        <ele>883.572091</ele>
        <time>2025-07-10T06:13:45.000Z</time>
      </trkpt>
      <trkpt lat="44.55838" lon="5.85728">
        <ele>883.655668</ele>
        <time>2025-07-10T06:13:46.000Z</time>
      </trkpt>
      <trkpt lat="44.55841" lon="5.85729">
        <ele>883.741647</ele>
        <time>2025-07-10T06:13:47.000Z</time>
      </trkpt>
      <trkpt lat="44.55845" lon="5.85729">
        <ele>883.827486</ele>
        <time>2025-07-10T06:13:48.000Z</time>
      </trkpt>
      <trkpt lat="44.55848" lon="5.85729">
        <ele>883.913464</ele>
        <time>2025-07-10T06:13:49.000Z</time>
      </trkpt>
      <trkpt lat="44.55851" lon="5.8573">
        <ele>883.994462</ele>
        <time>2025-07-10T06:13:50.000Z</time>
      </trkpt>
      <trkpt lat="44.55854" lon="5.8573">
        <ele>884.075692</ele>
        <time>2025-07-10T06:13:51.000Z</time>
      </trkpt>
      <trkpt lat="44.55857" lon="5.85731">
        <ele>884.159494</ele>
        <time>2025-07-10T06:13:52.000Z</time>
      </trkpt>
      <trkpt lat="44.55861" lon="5.85731">
        <ele>884.242887</ele>
        <time>2025-07-10T06:13:53.000Z</time>
      </trkpt>
      <trkpt lat="44.55864" lon="5.85732">
        <ele>884.329045</ele>
        <time>2025-07-10T06:13:54.000Z</time>
      </trkpt>
      <trkpt lat="44.55867" lon="5.85732">
        <ele>884.414884</ele>
        <time>2025-07-10T06:13:55.000Z</time>
      </trkpt>
      <trkpt lat="44.5587" lon="5.85733">
        <ele>884.495691</ele>
        <time>2025-07-10T06:13:56.000Z</time>
      </trkpt>
      <trkpt lat="44.55874" lon="5.85733">
        <ele>884.579269</ele>
        <time>2025-07-10T06:13:57.000Z</time>
      </trkpt>
      <trkpt lat="44.55877" lon="5.85734">
        <ele>884.660498</ele>
        <time>2025-07-10T06:13:58.000Z</time>
      </trkpt>
      <trkpt lat="44.5588" lon="5.85734">
        <ele>884.744076</ele>
        <time>2025-07-10T06:13:59.000Z</time>
      </trkpt>
      <trkpt lat="44.55883" lon="5.85735">
        <ele>884.824883</ele>
        <time>2025-07-10T06:14:00.000Z</time>
      </trkpt>
      <trkpt lat="44.55886" lon="5.85735">
        <ele>884.908276</ele>
        <time>2025-07-10T06:14:01.000Z</time>
      </trkpt>
      <trkpt lat="44.55889" lon="5.85735">
        <ele>884.989274</ele>
        <time>2025-07-10T06:14:02.000Z</time>
      </trkpt>
      <trkpt lat="44.55892" lon="5.85736">
        <ele>885.067933</ele>
        <time>2025-07-10T06:14:03.000Z</time>
      </trkpt>
      <trkpt lat="44.55895" lon="5.85737">
        <ele>885.151735</ele>
        <time>2025-07-10T06:14:04.000Z</time>
      </trkpt>
      <trkpt lat="44.55899" lon="5.85737">
        <ele>885.235128</ele>
        <time>2025-07-10T06:14:05.000Z</time>
      </trkpt>
      <trkpt lat="44.55902" lon="5.85737">
        <ele>885.318521</ele>
        <time>2025-07-10T06:14:06.000Z</time>
      </trkpt>
      <trkpt lat="44.55905" lon="5.85738">
        <ele>885.404678</ele>
        <time>2025-07-10T06:14:07.000Z</time>
      </trkpt>
      <trkpt lat="44.55908" lon="5.85738">
        <ele>885.488799</ele>
        <time>2025-07-10T06:14:08.000Z</time>
      </trkpt>
      <trkpt lat="44.55911" lon="5.85739">
        <ele>885.580539</ele>
        <time>2025-07-10T06:14:09.000Z</time>
      </trkpt>
      <trkpt lat="44.55915" lon="5.85739">
        <ele>885.675124</ele>
        <time>2025-07-10T06:14:10.000Z</time>
      </trkpt>
      <trkpt lat="44.55918" lon="5.8574">
        <ele>885.766706</ele>
        <time>2025-07-10T06:14:11.000Z</time>
      </trkpt>
      <trkpt lat="44.55921" lon="5.8574">
        <ele>885.858446</ele>
        <time>2025-07-10T06:14:12.000Z</time>
      </trkpt>
      <trkpt lat="44.55924" lon="5.85741">
        <ele>885.95375</ele>
        <time>2025-07-10T06:14:13.000Z</time>
      </trkpt>
      <trkpt lat="44.55928" lon="5.85741">
        <ele>886.042646</ele>
        <time>2025-07-10T06:14:14.000Z</time>
      </trkpt>
      <trkpt lat="44.55931" lon="5.85741">
        <ele>886.131379</ele>
        <time>2025-07-10T06:14:15.000Z</time>
      </trkpt>
      <trkpt lat="44.55934" lon="5.85742">
        <ele>886.223322</ele>
        <time>2025-07-10T06:14:16.000Z</time>
      </trkpt>
      <trkpt lat="44.55937" lon="5.85742">
        <ele>886.312683</ele>
        <time>2025-07-10T06:14:17.000Z</time>
      </trkpt>
      <trkpt lat="44.5594" lon="5.85743">
        <ele>886.401788</ele>
        <time>2025-07-10T06:14:18.000Z</time>
      </trkpt>
      <trkpt lat="44.55943" lon="5.85743">
        <ele>886.49657</ele>
        <time>2025-07-10T06:14:19.000Z</time>
      </trkpt>
      <trkpt lat="44.55946" lon="5.85744">
        <ele>886.58593</ele>
        <time>2025-07-10T06:14:20.000Z</time>
      </trkpt>
      <trkpt lat="44.5595" lon="5.85745">
        <ele>886.677873</ele>
        <time>2025-07-10T06:14:21.000Z</time>
      </trkpt>
      <trkpt lat="44.55953" lon="5.85745">
        <ele>886.769455</ele>
        <time>2025-07-10T06:14:22.000Z</time>
      </trkpt>
      <trkpt lat="44.55956" lon="5.85745">
        <ele>886.858072</ele>
        <time>2025-07-10T06:14:23.000Z</time>
      </trkpt>
      <trkpt lat="44.55959" lon="5.85746">
        <ele>886.950014</ele>
        <time>2025-07-10T06:14:24.000Z</time>
      </trkpt>
      <trkpt lat="44.55962" lon="5.85746">
        <ele>887.038747</ele>
        <time>2025-07-10T06:14:25.000Z</time>
      </trkpt>
      <trkpt lat="44.55965" lon="5.85746">
        <ele>887.130938</ele>
        <time>2025-07-10T06:14:26.000Z</time>
      </trkpt>
      <trkpt lat="44.55969" lon="5.85747">
        <ele>887.220945</ele>
        <time>2025-07-10T06:14:27.000Z</time>
      </trkpt>
      <trkpt lat="44.55972" lon="5.85748">
        <ele>887.313135</ele>
        <time>2025-07-10T06:14:28.000Z</time>
      </trkpt>
      <trkpt lat="44.55975" lon="5.85748">
        <ele>887.404717</ele>
        <time>2025-07-10T06:14:29.000Z</time>
      </trkpt>
      <trkpt lat="44.55978" lon="5.85749">
        <ele>887.499302</ele>
        <time>2025-07-10T06:14:30.000Z</time>
      </trkpt>
      <trkpt lat="44.55982" lon="5.85749">
        <ele>887.594323</ele>
        <time>2025-07-10T06:14:31.000Z</time>
      </trkpt>
      <trkpt lat="44.55985" lon="5.8575">
        <ele>887.683684</ele>
        <time>2025-07-10T06:14:32.000Z</time>
      </trkpt>
      <trkpt lat="44.55988" lon="5.8575">
        <ele>887.778988</ele>
        <time>2025-07-10T06:14:33.000Z</time>
      </trkpt>
      <trkpt lat="44.55991" lon="5.85751">
        <ele>887.870728</ele>
        <time>2025-07-10T06:14:34.000Z</time>
      </trkpt>
      <trkpt lat="44.55994" lon="5.85751">
        <ele>887.965159</ele>
        <time>2025-07-10T06:14:35.000Z</time>
      </trkpt>
      <trkpt lat="44.55998" lon="5.85752">
        <ele>888.059941</ele>
        <time>2025-07-10T06:14:36.000Z</time>
      </trkpt>
      <trkpt lat="44.56001" lon="5.85752">
        <ele>888.152131</ele>
        <time>2025-07-10T06:14:37.000Z</time>
      </trkpt>
      <trkpt lat="44.56004" lon="5.85753">
        <ele>888.246913</ele>
        <time>2025-07-10T06:14:38.000Z</time>
      </trkpt>
      <trkpt lat="44.56007" lon="5.85753">
        <ele>888.338856</ele>
        <time>2025-07-10T06:14:39.000Z</time>
      </trkpt>
      <trkpt lat="44.56011" lon="5.85754">
        <ele>888.433877</ele>
        <time>2025-07-10T06:14:40.000Z</time>
      </trkpt>
      <trkpt lat="44.56014" lon="5.85755">
        <ele>888.529181</ele>
        <time>2025-07-10T06:14:41.000Z</time>
      </trkpt>
      <trkpt lat="44.56017" lon="5.85755">
        <ele>888.625178</ele>
        <time>2025-07-10T06:14:42.000Z</time>
      </trkpt>
      <trkpt lat="44.56021" lon="5.85756">
        <ele>888.717368</ele>
        <time>2025-07-10T06:14:43.000Z</time>
      </trkpt>
      <trkpt lat="44.56024" lon="5.85756">
        <ele>888.806264</ele>
        <time>2025-07-10T06:14:44.000Z</time>
      </trkpt>
      <trkpt lat="44.56027" lon="5.85757">
        <ele>888.894997</ele>
        <time>2025-07-10T06:14:45.000Z</time>
      </trkpt>
      <trkpt lat="44.5603" lon="5.85757">
        <ele>888.980882</ele>
        <time>2025-07-10T06:14:46.000Z</time>
      </trkpt>
      <trkpt lat="44.56033" lon="5.85758">
        <ele>889.067151</ele>
        <time>2025-07-10T06:14:47.000Z</time>
      </trkpt>
      <trkpt lat="44.56036" lon="5.85758">
        <ele>889.150857</ele>
        <time>2025-07-10T06:14:48.000Z</time>
      </trkpt>
      <trkpt lat="44.56038" lon="5.85759">
        <ele>889.231458</ele>
        <time>2025-07-10T06:14:49.000Z</time>
      </trkpt>
      <trkpt lat="44.56042" lon="5.85759">
        <ele>889.320819</ele>
        <time>2025-07-10T06:14:50.000Z</time>
      </trkpt>
      <trkpt lat="44.56045" lon="5.8576">
        <ele>889.409715</ele>
        <time>2025-07-10T06:14:51.000Z</time>
      </trkpt>
      <trkpt lat="44.56048" lon="5.8576">
        <ele>889.495599</ele>
        <time>2025-07-10T06:14:52.000Z</time>
      </trkpt>
      <trkpt lat="44.56051" lon="5.8576">
        <ele>889.57881</ele>
        <time>2025-07-10T06:14:53.000Z</time>
      </trkpt>
      <trkpt lat="44.56054" lon="5.85761">
        <ele>889.664694</ele>
        <time>2025-07-10T06:14:54.000Z</time>
      </trkpt>
      <trkpt lat="44.56057" lon="5.85761">
        <ele>889.750458</ele>
        <time>2025-07-10T06:14:55.000Z</time>
      </trkpt>
      <trkpt lat="44.5606" lon="5.85761">
        <ele>889.839563</ele>
        <time>2025-07-10T06:14:56.000Z</time>
      </trkpt>
      <trkpt lat="44.56063" lon="5.85762">
        <ele>889.928669</ele>
        <time>2025-07-10T06:14:57.000Z</time>
      </trkpt>
      <trkpt lat="44.56066" lon="5.85762">
        <ele>890.014938</ele>
        <time>2025-07-10T06:14:58.000Z</time>
      </trkpt>
      <trkpt lat="44.56069" lon="5.85763">
        <ele>890.104043</ele>
        <time>2025-07-10T06:14:59.000Z</time>
      </trkpt>
      <trkpt lat="44.56072" lon="5.85763">
        <ele>890.193404</ele>
        <time>2025-07-10T06:15:00.000Z</time>
      </trkpt>
      <trkpt lat="44.56075" lon="5.85764">
        <ele>890.282509</ele>
        <time>2025-07-10T06:15:01.000Z</time>
      </trkpt>
      <trkpt lat="44.56078" lon="5.85764">
        <ele>890.371406</ele>
        <time>2025-07-10T06:15:02.000Z</time>
      </trkpt>
      <trkpt lat="44.56081" lon="5.85765">
        <ele>890.462988</ele>
        <time>2025-07-10T06:15:03.000Z</time>
      </trkpt>
      <trkpt lat="44.56084" lon="5.85765">
        <ele>890.552093</ele>
        <time>2025-07-10T06:15:04.000Z</time>
      </trkpt>
      <trkpt lat="44.56087" lon="5.85766">
        <ele>890.637983</ele>
        <time>2025-07-10T06:15:05.000Z</time>
      </trkpt>
      <trkpt lat="44.5609" lon="5.85766">
        <ele>890.72925</ele>
        <time>2025-07-10T06:15:06.000Z</time>
      </trkpt>
      <trkpt lat="44.56093" lon="5.85767">
        <ele>890.823231</ele>
        <time>2025-07-10T06:15:07.000Z</time>
      </trkpt>
      <trkpt lat="44.56097" lon="5.85767">
        <ele>890.916819</ele>
        <time>2025-07-10T06:15:08.000Z</time>
      </trkpt>
      <trkpt lat="44.561" lon="5.85767">
        <ele>891.01021</ele>
        <time>2025-07-10T06:15:09.000Z</time>
      </trkpt>
      <trkpt lat="44.56103" lon="5.85767">
        <ele>891.103798</ele>
        <time>2025-07-10T06:15:10.000Z</time>
      </trkpt>
      <trkpt lat="44.56106" lon="5.85768">
        <ele>891.200558</ele>
        <time>2025-07-10T06:15:11.000Z</time>
      </trkpt>
      <trkpt lat="44.56109" lon="5.85768">
        <ele>891.288137</ele>
        <time>2025-07-10T06:15:12.000Z</time>
      </trkpt>
      <trkpt lat="44.56112" lon="5.85769">
        <ele>891.372904</ele>
        <time>2025-07-10T06:15:13.000Z</time>
      </trkpt>
      <trkpt lat="44.56115" lon="5.85769">
        <ele>891.463487</ele>
        <time>2025-07-10T06:15:14.000Z</time>
      </trkpt>
      <trkpt lat="44.56118" lon="5.85769">
        <ele>891.553944</ele>
        <time>2025-07-10T06:15:15.000Z</time>
      </trkpt>
      <trkpt lat="44.56121" lon="5.85769">
        <ele>891.647704</ele>
        <time>2025-07-10T06:15:16.000Z</time>
      </trkpt>
      <trkpt lat="44.56124" lon="5.8577">
        <ele>891.735073</ele>
        <time>2025-07-10T06:15:17.000Z</time>
      </trkpt>
      <trkpt lat="44.56127" lon="5.8577">
        <ele>891.825427</ele>
        <time>2025-07-10T06:15:18.000Z</time>
      </trkpt>
      <trkpt lat="44.5613" lon="5.85769">
        <ele>891.918818</ele>
        <time>2025-07-10T06:15:19.000Z</time>
      </trkpt>
      <trkpt lat="44.56133" lon="5.85769">
        <ele>892.006266</ele>
        <time>2025-07-10T06:15:20.000Z</time>
      </trkpt>
      <trkpt lat="44.56136" lon="5.85769">
        <ele>892.099854</ele>
        <time>2025-07-10T06:15:21.000Z</time>
      </trkpt>
      <trkpt lat="44.56139" lon="5.85768">
        <ele>892.191121</ele>
        <time>2025-07-10T06:15:22.000Z</time>
      </trkpt>
      <trkpt lat="44.56142" lon="5.85768">
        <ele>892.285688</ele>
        <time>2025-07-10T06:15:23.000Z</time>
      </trkpt>
      <trkpt lat="44.56145" lon="5.85767">
        <ele>892.383583</ele>
        <time>2025-07-10T06:15:24.000Z</time>
      </trkpt>
      <trkpt lat="44.56148" lon="5.85766">
        <ele>892.47815</ele>
        <time>2025-07-10T06:15:25.000Z</time>
      </trkpt>
      <trkpt lat="44.56151" lon="5.85765">
        <ele>892.572717</ele>
        <time>2025-07-10T06:15:26.000Z</time>
      </trkpt>
      <trkpt lat="44.56154" lon="5.85765">
        <ele>892.667284</ele>
        <time>2025-07-10T06:15:27.000Z</time>
      </trkpt>
      <trkpt lat="44.56157" lon="5.85764">
        <ele>892.762216</ele>
        <time>2025-07-10T06:15:28.000Z</time>
      </trkpt>
      <trkpt lat="44.56161" lon="5.85763">
        <ele>892.857147</ele>
        <time>2025-07-10T06:15:29.000Z</time>
      </trkpt>
      <trkpt lat="44.56164" lon="5.85762">
        <ele>892.955042</ele>
        <time>2025-07-10T06:15:30.000Z</time>
      </trkpt>
      <trkpt lat="44.56167" lon="5.85761">
        <ele>893.04791</ele>
        <time>2025-07-10T06:15:31.000Z</time>
      </trkpt>
      <trkpt lat="44.5617" lon="5.8576">
        <ele>893.147669</ele>
        <time>2025-07-10T06:15:32.000Z</time>
      </trkpt>
      <trkpt lat="44.56173" lon="5.85759">
        <ele>893.240537</ele>
        <time>2025-07-10T06:15:33.000Z</time>
      </trkpt>
      <trkpt lat="44.56176" lon="5.85758">
        <ele>893.336337</ele>
        <time>2025-07-10T06:15:34.000Z</time>
      </trkpt>
      <trkpt lat="44.56179" lon="5.85757">
        <ele>893.432138</ele>
        <time>2025-07-10T06:15:35.000Z</time>
      </trkpt>
      <trkpt lat="44.56182" lon="5.85756">
        <ele>893.524109</ele>
        <time>2025-07-10T06:15:36.000Z</time>
      </trkpt>
      <trkpt lat="44.56185" lon="5.85756">
        <ele>893.61608</ele>
        <time>2025-07-10T06:15:37.000Z</time>
      </trkpt>
      <trkpt lat="44.56188" lon="5.85755">
        <ele>893.71188</ele>
        <time>2025-07-10T06:15:38.000Z</time>
      </trkpt>
      <trkpt lat="44.56191" lon="5.85754">
        <ele>893.803851</ele>
        <time>2025-07-10T06:15:39.000Z</time>
      </trkpt>
      <trkpt lat="44.56194" lon="5.85753">
        <ele>893.896247</ele>
        <time>2025-07-10T06:15:40.000Z</time>
      </trkpt>
      <trkpt lat="44.56197" lon="5.85752">
        <ele>893.985699</ele>
        <time>2025-07-10T06:15:41.000Z</time>
      </trkpt>
      <trkpt lat="44.562" lon="5.85751">
        <ele>894.072717</ele>
        <time>2025-07-10T06:15:42.000Z</time>
      </trkpt>
      <trkpt lat="44.56203" lon="5.8575">
        <ele>894.165113</ele>
        <time>2025-07-10T06:15:43.000Z</time>
      </trkpt>
      <trkpt lat="44.56206" lon="5.85749">
        <ele>894.256707</ele>
        <time>2025-07-10T06:15:44.000Z</time>
      </trkpt>
      <trkpt lat="44.56209" lon="5.85749">
        <ele>894.348678</ele>
        <time>2025-07-10T06:15:45.000Z</time>
      </trkpt>
      <trkpt lat="44.56212" lon="5.85748">
        <ele>894.443245</ele>
        <time>2025-07-10T06:15:46.000Z</time>
      </trkpt>
      <trkpt lat="44.56215" lon="5.85747">
        <ele>894.532697</ele>
        <time>2025-07-10T06:15:47.000Z</time>
      </trkpt>
      <trkpt lat="44.56218" lon="5.85746">
        <ele>894.621322</ele>
        <time>2025-07-10T06:15:48.000Z</time>
      </trkpt>
      <trkpt lat="44.56221" lon="5.85746">
        <ele>894.706981</ele>
        <time>2025-07-10T06:15:49.000Z</time>
      </trkpt>
      <trkpt lat="44.56223" lon="5.85745">
        <ele>894.790561</ele>
        <time>2025-07-10T06:15:50.000Z</time>
      </trkpt>
      <trkpt lat="44.56226" lon="5.85744">
        <ele>894.873256</ele>
        <time>2025-07-10T06:15:51.000Z</time>
      </trkpt>
      <trkpt lat="44.56229" lon="5.85743">
        <ele>894.955588</ele>
        <time>2025-07-10T06:15:52.000Z</time>
      </trkpt>
      <trkpt lat="44.56232" lon="5.85743">
        <ele>895.041649</ele>
        <time>2025-07-10T06:15:53.000Z</time>
      </trkpt>
      <trkpt lat="44.56234" lon="5.85742">
        <ele>895.126957</ele>
        <time>2025-07-10T06:15:54.000Z</time>
      </trkpt>
      <trkpt lat="44.56237" lon="5.85741">
        <ele>895.215243</ele>
        <time>2025-07-10T06:15:55.000Z</time>
      </trkpt>
      <trkpt lat="44.5624" lon="5.85741">
        <ele>895.306838</ele>
        <time>2025-07-10T06:15:56.000Z</time>
      </trkpt>
      <trkpt lat="44.56243" lon="5.8574">
        <ele>895.398809</ele>
        <time>2025-07-10T06:15:57.000Z</time>
      </trkpt>
      <trkpt lat="44.56246" lon="5.85739">
        <ele>895.487822</ele>
        <time>2025-07-10T06:15:58.000Z</time>
      </trkpt>
      <trkpt lat="44.56249" lon="5.85738">
        <ele>895.583165</ele>
        <time>2025-07-10T06:15:59.000Z</time>
      </trkpt>
      <trkpt lat="44.56252" lon="5.85737">
        <ele>895.675561</ele>
        <time>2025-07-10T06:16:00.000Z</time>
      </trkpt>
      <trkpt lat="44.56255" lon="5.85736">
        <ele>895.767956</ele>
        <time>2025-07-10T06:16:01.000Z</time>
      </trkpt>
      <trkpt lat="44.56258" lon="5.85736">
        <ele>895.856581</ele>
        <time>2025-07-10T06:16:02.000Z</time>
      </trkpt>
      <trkpt lat="44.56261" lon="5.85735">
        <ele>895.94458</ele>
        <time>2025-07-10T06:16:03.000Z</time>
      </trkpt>
      <trkpt lat="44.56264" lon="5.85735">
        <ele>896.033792</ele>
        <time>2025-07-10T06:16:04.000Z</time>
      </trkpt>
      <trkpt lat="44.56267" lon="5.85734">
        <ele>896.127291</ele>
        <time>2025-07-10T06:16:05.000Z</time>
      </trkpt>
      <trkpt lat="44.5627" lon="5.85734">
        <ele>896.223653</ele>
        <time>2025-07-10T06:16:06.000Z</time>
      </trkpt>
      <trkpt lat="44.56273" lon="5.85733">
        <ele>896.321505</ele>
        <time>2025-07-10T06:16:07.000Z</time>
      </trkpt>
      <trkpt lat="44.56276" lon="5.85732">
        <ele>896.419356</ele>
        <time>2025-07-10T06:16:08.000Z</time>
      </trkpt>
      <trkpt lat="44.56279" lon="5.85731">
        <ele>896.517707</ele>
        <time>2025-07-10T06:16:09.000Z</time>
      </trkpt>
      <trkpt lat="44.56282" lon="5.8573">
        <ele>896.617207</ele>
        <time>2025-07-10T06:16:10.000Z</time>
      </trkpt>
      <trkpt lat="44.56285" lon="5.85729">
        <ele>896.708349</ele>
        <time>2025-07-10T06:16:11.000Z</time>
      </trkpt>
      <trkpt lat="44.56287" lon="5.85728">
        <ele>896.795927</ele>
        <time>2025-07-10T06:16:12.000Z</time>
      </trkpt>
      <trkpt lat="44.5629" lon="5.85727">
        <ele>896.88037</ele>
        <time>2025-07-10T06:16:13.000Z</time>
      </trkpt>
      <trkpt lat="44.56292" lon="5.85727">
        <ele>896.960917</ele>
        <time>2025-07-10T06:16:14.000Z</time>
      </trkpt>
      <trkpt lat="44.56295" lon="5.85727">
        <ele>897.044345</ele>
        <time>2025-07-10T06:16:15.000Z</time>
      </trkpt>
      <trkpt lat="44.56298" lon="5.85726">
        <ele>897.130944</ele>
        <time>2025-07-10T06:16:16.000Z</time>
      </trkpt>
      <trkpt lat="44.563" lon="5.85726">
        <ele>897.214372</ele>
        <time>2025-07-10T06:16:17.000Z</time>
      </trkpt>
      <trkpt lat="44.56303" lon="5.85726">
        <ele>897.297427</ele>
        <time>2025-07-10T06:16:18.000Z</time>
      </trkpt>
      <trkpt lat="44.56305" lon="5.85725">
        <ele>897.377974</ele>
        <time>2025-07-10T06:16:19.000Z</time>
      </trkpt>
      <trkpt lat="44.56308" lon="5.85725">
        <ele>897.448477</ele>
        <time>2025-07-10T06:16:20.000Z</time>
      </trkpt>
      <trkpt lat="44.5631" lon="5.85724">
        <ele>897.522155</ele>
        <time>2025-07-10T06:16:21.000Z</time>
      </trkpt>
      <trkpt lat="44.56312" lon="5.85724">
        <ele>897.595553</ele>
        <time>2025-07-10T06:16:22.000Z</time>
      </trkpt>
      <trkpt lat="44.56315" lon="5.85724">
        <ele>897.672138</ele>
        <time>2025-07-10T06:16:23.000Z</time>
      </trkpt>
      <trkpt lat="44.56317" lon="5.85724">
        <ele>897.742348</ele>
        <time>2025-07-10T06:16:24.000Z</time>
      </trkpt>
      <trkpt lat="44.56319" lon="5.85724">
        <ele>897.812557</ele>
        <time>2025-07-10T06:16:25.000Z</time>
      </trkpt>
      <trkpt lat="44.56321" lon="5.85724">
        <ele>897.889142</ele>
        <time>2025-07-10T06:16:26.000Z</time>
      </trkpt>
      <trkpt lat="44.56324" lon="5.85724">
        <ele>897.972105</ele>
        <time>2025-07-10T06:16:27.000Z</time>
      </trkpt>
      <trkpt lat="44.56326" lon="5.85724">
        <ele>898.048791</ele>
        <time>2025-07-10T06:16:28.000Z</time>
      </trkpt>
      <trkpt lat="44.56329" lon="5.85725">
        <ele>898.125881</ele>
        <time>2025-07-10T06:16:29.000Z</time>
      </trkpt>
      <trkpt lat="44.56331" lon="5.85725">
        <ele>898.20297</ele>
        <time>2025-07-10T06:16:30.000Z</time>
      </trkpt>
      <trkpt lat="44.56334" lon="5.85725">
        <ele>898.285933</ele>
        <time>2025-07-10T06:16:31.000Z</time>
      </trkpt>
      <trkpt lat="44.56336" lon="5.85725">
        <ele>898.365707</ele>
        <time>2025-07-10T06:16:32.000Z</time>
      </trkpt>
      <trkpt lat="44.56339" lon="5.85726">
        <ele>898.455277</ele>
        <time>2025-07-10T06:16:33.000Z</time>
      </trkpt>
      <trkpt lat="44.56342" lon="5.85726">
        <ele>898.551639</ele>
        <time>2025-07-10T06:16:34.000Z</time>
      </trkpt>
      <trkpt lat="44.56345" lon="5.85726">
        <ele>898.635067</ele>
        <time>2025-07-10T06:16:35.000Z</time>
      </trkpt>
      <trkpt lat="44.56348" lon="5.85727">
        <ele>898.728262</ele>
        <time>2025-07-10T06:16:36.000Z</time>
      </trkpt>
      <trkpt lat="44.56351" lon="5.85727">
        <ele>898.830735</ele>
        <time>2025-07-10T06:16:37.000Z</time>
      </trkpt>
      <trkpt lat="44.56354" lon="5.85728">
        <ele>898.934036</ele>
        <time>2025-07-10T06:16:38.000Z</time>
      </trkpt>
      <trkpt lat="44.56357" lon="5.85729">
        <ele>899.037338</ele>
        <time>2025-07-10T06:16:39.000Z</time>
      </trkpt>
      <trkpt lat="44.5636" lon="5.8573">
        <ele>899.137875</ele>
        <time>2025-07-10T06:16:40.000Z</time>
      </trkpt>
      <trkpt lat="44.56364" lon="5.85731">
        <ele>899.245559</ele>
        <time>2025-07-10T06:16:41.000Z</time>
      </trkpt>
      <trkpt lat="44.56367" lon="5.85731">
        <ele>899.349657</ele>
        <time>2025-07-10T06:16:42.000Z</time>
      </trkpt>
      <trkpt lat="44.5637" lon="5.85732">
        <ele>899.453755</ele>
        <time>2025-07-10T06:16:43.000Z</time>
      </trkpt>
      <trkpt lat="44.56373" lon="5.85733">
        <ele>899.554292</ele>
        <time>2025-07-10T06:16:44.000Z</time>
      </trkpt>
      <trkpt lat="44.56376" lon="5.85734">
        <ele>899.656863</ele>
        <time>2025-07-10T06:16:45.000Z</time>
      </trkpt>
      <trkpt lat="44.56379" lon="5.85736">
        <ele>899.756362</ele>
        <time>2025-07-10T06:16:46.000Z</time>
      </trkpt>
      <trkpt lat="44.56382" lon="5.85737">
        <ele>899.855862</ele>
        <time>2025-07-10T06:16:47.000Z</time>
      </trkpt>
      <trkpt lat="44.56385" lon="5.85738">
        <ele>899.951681</ele>
        <time>2025-07-10T06:16:48.000Z</time>
      </trkpt>
      <trkpt lat="44.56388" lon="5.85739">
        <ele>900.047499</ele>
        <time>2025-07-10T06:16:49.000Z</time>
      </trkpt>
      <trkpt lat="44.56391" lon="5.8574">
        <ele>900.14275</ele>
        <time>2025-07-10T06:16:50.000Z</time>
      </trkpt>
      <trkpt lat="44.56394" lon="5.85741">
        <ele>900.234372</ele>
        <time>2025-07-10T06:16:51.000Z</time>
      </trkpt>
      <trkpt lat="44.56397" lon="5.85742">
        <ele>900.33019</ele>
        <time>2025-07-10T06:16:52.000Z</time>
      </trkpt>
      <trkpt lat="44.564" lon="5.85743">
        <ele>900.425441</ele>
        <time>2025-07-10T06:16:53.000Z</time>
      </trkpt>
      <trkpt lat="44.56402" lon="5.85744">
        <ele>900.516583</ele>
        <time>2025-07-10T06:16:54.000Z</time>
      </trkpt>
      <trkpt lat="44.56405" lon="5.85745">
        <ele>900.608206</ele>
        <time>2025-07-10T06:16:55.000Z</time>
      </trkpt>
      <trkpt lat="44.56408" lon="5.85745">
        <ele>900.698922</ele>
        <time>2025-07-10T06:16:56.000Z</time>
      </trkpt>
      <trkpt lat="44.56411" lon="5.85746">
        <ele>900.786941</ele>
        <time>2025-07-10T06:16:57.000Z</time>
      </trkpt>
      <trkpt lat="44.56413" lon="5.85747">
        <ele>900.874518</ele>
        <time>2025-07-10T06:16:58.000Z</time>
      </trkpt>
      <trkpt lat="44.56416" lon="5.85747">
        <ele>900.960908</ele>
        <time>2025-07-10T06:16:59.000Z</time>
      </trkpt>
      <trkpt lat="44.56419" lon="5.85747">
        <ele>901.053659</ele>
        <time>2025-07-10T06:17:00.000Z</time>
      </trkpt>
      <trkpt lat="44.56422" lon="5.85748">
        <ele>901.1399</ele>
        <time>2025-07-10T06:17:01.000Z</time>
      </trkpt>
      <trkpt lat="44.56424" lon="5.85748">
        <ele>901.22947</ele>
        <time>2025-07-10T06:17:02.000Z</time>
      </trkpt>
      <trkpt lat="44.56427" lon="5.85748">
        <ele>901.318781</ele>
        <time>2025-07-10T06:17:03.000Z</time>
      </trkpt>
      <trkpt lat="44.5643" lon="5.85748">
        <ele>901.404931</ele>
        <time>2025-07-10T06:17:04.000Z</time>
      </trkpt>
      <trkpt lat="44.56433" lon="5.85748">
        <ele>901.494242</ele>
        <time>2025-07-10T06:17:05.000Z</time>
      </trkpt>
      <trkpt lat="44.56436" lon="5.85748">
        <ele>901.593147</ele>
        <time>2025-07-10T06:17:06.000Z</time>
      </trkpt>
      <trkpt lat="44.56439" lon="5.85748">
        <ele>901.682458</ele>
        <time>2025-07-10T06:17:07.000Z</time>
      </trkpt>
      <trkpt lat="44.56441" lon="5.85748">
        <ele>901.774422</ele>
        <time>2025-07-10T06:17:08.000Z</time>
      </trkpt>
      <trkpt lat="44.56444" lon="5.85748">
        <ele>901.885646</ele>
        <time>2025-07-10T06:17:09.000Z</time>
      </trkpt>
      <trkpt lat="44.56447" lon="5.85748">
        <ele>902.00904</ele>
        <time>2025-07-10T06:17:10.000Z</time>
      </trkpt>
      <trkpt lat="44.5645" lon="5.85747">
        <ele>902.124755</ele>
        <time>2025-07-10T06:17:11.000Z</time>
      </trkpt>
      <trkpt lat="44.56453" lon="5.85747">
        <ele>902.247889</ele>
        <time>2025-07-10T06:17:12.000Z</time>
      </trkpt>
      <trkpt lat="44.56456" lon="5.85747">
        <ele>902.363048</ele>
        <time>2025-07-10T06:17:13.000Z</time>
      </trkpt>
      <trkpt lat="44.56459" lon="5.85747">
        <ele>902.474811</ele>
        <time>2025-07-10T06:17:14.000Z</time>
      </trkpt>
      <trkpt lat="44.56462" lon="5.85747">
        <ele>902.590283</ele>
        <time>2025-07-10T06:17:15.000Z</time>
      </trkpt>
      <trkpt lat="44.56465" lon="5.85747">
        <ele>902.709448</ele>
        <time>2025-07-10T06:17:16.000Z</time>
      </trkpt>
      <trkpt lat="44.56468" lon="5.85747">
        <ele>902.824642</ele>
        <time>2025-07-10T06:17:17.000Z</time>
      </trkpt>
      <trkpt lat="44.5647" lon="5.85747">
        <ele>902.927927</ele>
        <time>2025-07-10T06:17:18.000Z</time>
      </trkpt>
      <trkpt lat="44.56473" lon="5.85747">
        <ele>903.043122</ele>
        <time>2025-07-10T06:17:19.000Z</time>
      </trkpt>
      <trkpt lat="44.56476" lon="5.85747">
        <ele>903.15842</ele>
        <time>2025-07-10T06:17:20.000Z</time>
      </trkpt>
      <trkpt lat="44.56479" lon="5.85747">
        <ele>903.265787</ele>
        <time>2025-07-10T06:17:21.000Z</time>
      </trkpt>
      <trkpt lat="44.56482" lon="5.85748">
        <ele>903.373154</ele>
        <time>2025-07-10T06:17:22.000Z</time>
      </trkpt>
      <trkpt lat="44.56484" lon="5.85748">
        <ele>903.477365</ele>
        <time>2025-07-10T06:17:23.000Z</time>
      </trkpt>
      <trkpt lat="44.56487" lon="5.85749">
        <ele>903.58123</ele>
        <time>2025-07-10T06:17:24.000Z</time>
      </trkpt>
      <trkpt lat="44.56489" lon="5.85749">
        <ele>903.680867</ele>
        <time>2025-07-10T06:17:25.000Z</time>
      </trkpt>
      <trkpt lat="44.56492" lon="5.85749">
        <ele>903.792379</ele>
        <time>2025-07-10T06:17:26.000Z</time>
      </trkpt>
      <trkpt lat="44.56495" lon="5.8575">
        <ele>903.900193</ele>
        <time>2025-07-10T06:17:27.000Z</time>
      </trkpt>
      <trkpt lat="44.56497" lon="5.8575">
        <ele>904.000909</ele>
        <time>2025-07-10T06:17:28.000Z</time>
      </trkpt>
      <trkpt lat="44.56499" lon="5.8575">
        <ele>904.080531</ele>
        <time>2025-07-10T06:17:29.000Z</time>
      </trkpt>
      <trkpt lat="44.56502" lon="5.85751">
        <ele>904.183932</ele>
        <time>2025-07-10T06:17:30.000Z</time>
      </trkpt>
      <trkpt lat="44.56504" lon="5.85751">
        <ele>904.287334</ele>
        <time>2025-07-10T06:17:31.000Z</time>
      </trkpt>
      <trkpt lat="44.56507" lon="5.85751">
        <ele>904.392462</ele>
        <time>2025-07-10T06:17:32.000Z</time>
      </trkpt>
      <trkpt lat="44.5651" lon="5.85752">
        <ele>904.499515</ele>
        <time>2025-07-10T06:17:33.000Z</time>
      </trkpt>
      <trkpt lat="44.56512" lon="5.85753">
        <ele>904.602004</ele>
        <time>2025-07-10T06:17:34.000Z</time>
      </trkpt>
      <trkpt lat="44.56514" lon="5.85754">
        <ele>904.694901</ele>
        <time>2025-07-10T06:17:35.000Z</time>
      </trkpt>
      <trkpt lat="44.56517" lon="5.85755">
        <ele>904.8006</ele>
        <time>2025-07-10T06:17:36.000Z</time>
      </trkpt>
      <trkpt lat="44.5652" lon="5.85756">
        <ele>904.902423</ele>
        <time>2025-07-10T06:17:37.000Z</time>
      </trkpt>
      <trkpt lat="44.56522" lon="5.85756">
        <ele>905.012003</ele>
        <time>2025-07-10T06:17:38.000Z</time>
      </trkpt>
      <trkpt lat="44.56525" lon="5.85757">
        <ele>905.112719</ele>
        <time>2025-07-10T06:17:39.000Z</time>
      </trkpt>
      <trkpt lat="44.56527" lon="5.85757">
        <ele>905.212357</ele>
        <time>2025-07-10T06:17:40.000Z</time>
      </trkpt>
      <trkpt lat="44.5653" lon="5.85758">
        <ele>905.316568</ele>
        <time>2025-07-10T06:17:41.000Z</time>
      </trkpt>
      <trkpt lat="44.56532" lon="5.85759">
        <ele>905.423621</ele>
        <time>2025-07-10T06:17:42.000Z</time>
      </trkpt>
      <trkpt lat="44.56535" lon="5.8576">
        <ele>905.516361</ele>
        <time>2025-07-10T06:17:43.000Z</time>
      </trkpt>
      <trkpt lat="44.56537" lon="5.85761">
        <ele>905.613701</ele>
        <time>2025-07-10T06:17:44.000Z</time>
      </trkpt>
      <trkpt lat="44.56539" lon="5.85761">
        <ele>905.701247</ele>
        <time>2025-07-10T06:17:45.000Z</time>
      </trkpt>
      <trkpt lat="44.56542" lon="5.85761">
        <ele>905.800683</ele>
        <time>2025-07-10T06:17:46.000Z</time>
      </trkpt>
      <trkpt lat="44.56544" lon="5.85761">
        <ele>905.908496</ele>
        <time>2025-07-10T06:17:47.000Z</time>
      </trkpt>
      <trkpt lat="44.56547" lon="5.85762">
        <ele>906.005301</ele>
        <time>2025-07-10T06:17:48.000Z</time>
      </trkpt>
      <trkpt lat="44.56549" lon="5.85763">
        <ele>906.102105</ele>
        <time>2025-07-10T06:17:49.000Z</time>
      </trkpt>
      <trkpt lat="44.56552" lon="5.85763">
        <ele>906.201743</ele>
        <time>2025-07-10T06:17:50.000Z</time>
      </trkpt>
      <trkpt lat="44.56555" lon="5.85763">
        <ele>906.312968</ele>
        <time>2025-07-10T06:17:51.000Z</time>
      </trkpt>
      <trkpt lat="44.56557" lon="5.85764">
        <ele>906.42152</ele>
        <time>2025-07-10T06:17:52.000Z</time>
      </trkpt>
      <trkpt lat="44.5656" lon="5.85764">
        <ele>906.525732</ele>
        <time>2025-07-10T06:17:53.000Z</time>
      </trkpt>
      <trkpt lat="44.56562" lon="5.85764">
        <ele>906.629596</ele>
        <time>2025-07-10T06:17:54.000Z</time>
      </trkpt>
      <trkpt lat="44.56565" lon="5.85765">
        <ele>906.734725</ele>
        <time>2025-07-10T06:17:55.000Z</time>
      </trkpt>
      <trkpt lat="44.56568" lon="5.85766">
        <ele>906.848194</ele>
        <time>2025-07-10T06:17:56.000Z</time>
      </trkpt>
      <trkpt lat="44.5657" lon="5.85767">
        <ele>906.955247</ele>
        <time>2025-07-10T06:17:57.000Z</time>
      </trkpt>
      <trkpt lat="44.56573" lon="5.85768">
        <ele>907.055963</ele>
        <time>2025-07-10T06:17:58.000Z</time>
      </trkpt>
      <trkpt lat="44.56575" lon="5.85768">
        <ele>907.149419</ele>
        <time>2025-07-10T06:17:59.000Z</time>
      </trkpt>
      <trkpt lat="44.56577" lon="5.85769">
        <ele>907.237511</ele>
        <time>2025-07-10T06:18:00.000Z</time>
      </trkpt>
      <trkpt lat="44.5658" lon="5.8577">
        <ele>907.333126</ele>
        <time>2025-07-10T06:18:01.000Z</time>
      </trkpt>
      <trkpt lat="44.56582" lon="5.85771">
        <ele>907.429616</ele>
        <time>2025-07-10T06:18:02.000Z</time>
      </trkpt>
      <trkpt lat="44.56584" lon="5.85772">
        <ele>907.517676</ele>
        <time>2025-07-10T06:18:03.000Z</time>
      </trkpt>
      <trkpt lat="44.56586" lon="5.85773">
        <ele>907.607713</ele>
        <time>2025-07-10T06:18:04.000Z</time>
      </trkpt>
      <trkpt lat="44.56588" lon="5.85774">
        <ele>907.699542</ele>
        <time>2025-07-10T06:18:05.000Z</time>
      </trkpt>
      <trkpt lat="44.56591" lon="5.85775">
        <ele>907.789121</ele>
        <time>2025-07-10T06:18:06.000Z</time>
      </trkpt>
      <trkpt lat="44.56593" lon="5.85776">
        <ele>907.876313</ele>
        <time>2025-07-10T06:18:07.000Z</time>
      </trkpt>
      <trkpt lat="44.56595" lon="5.85777">
        <ele>907.969053</ele>
        <time>2025-07-10T06:18:08.000Z</time>
      </trkpt>
      <trkpt lat="44.56597" lon="5.85778">
        <ele>908.06278</ele>
        <time>2025-07-10T06:18:09.000Z</time>
      </trkpt>
      <trkpt lat="44.56599" lon="5.85779">
        <ele>908.157665</ele>
        <time>2025-07-10T06:18:10.000Z</time>
      </trkpt>
      <trkpt lat="44.56602" lon="5.85781">
        <ele>908.255104</ele>
        <time>2025-07-10T06:18:11.000Z</time>
      </trkpt>
      <trkpt lat="44.56604" lon="5.85782">
        <ele>908.357259</ele>
        <time>2025-07-10T06:18:12.000Z</time>
      </trkpt>
      <trkpt lat="44.56606" lon="5.85783">
        <ele>908.465224</ele>
        <time>2025-07-10T06:18:13.000Z</time>
      </trkpt>
      <trkpt lat="44.56609" lon="5.85785">
        <ele>908.583257</ele>
        <time>2025-07-10T06:18:14.000Z</time>
      </trkpt>
      <trkpt lat="44.56612" lon="5.85786">
        <ele>908.691942</ele>
        <time>2025-07-10T06:18:15.000Z</time>
      </trkpt>
      <trkpt lat="44.56614" lon="5.85787">
        <ele>908.801543</ele>
        <time>2025-07-10T06:18:16.000Z</time>
      </trkpt>
      <trkpt lat="44.56617" lon="5.85789">
        <ele>908.897738</ele>
        <time>2025-07-10T06:18:17.000Z</time>
      </trkpt>
      <trkpt lat="44.56619" lon="5.85791">
        <ele>908.964268</ele>
        <time>2025-07-10T06:18:18.000Z</time>
      </trkpt>
      <trkpt lat="44.56622" lon="5.85792">
        <ele>909.038589</ele>
        <time>2025-07-10T06:18:19.000Z</time>
      </trkpt>
      <trkpt lat="44.56624" lon="5.85794">
        <ele>909.109863</ele>
        <time>2025-07-10T06:18:20.000Z</time>
      </trkpt>
      <trkpt lat="44.56627" lon="5.85794">
        <ele>909.177621</ele>
        <time>2025-07-10T06:18:21.000Z</time>
      </trkpt>
      <trkpt lat="44.5663" lon="5.85794">
        <ele>909.267276</ele>
        <time>2025-07-10T06:18:22.000Z</time>
      </trkpt>
      <trkpt lat="44.56633" lon="5.85795">
        <ele>909.342058</ele>
        <time>2025-07-10T06:18:23.000Z</time>
      </trkpt>
      <trkpt lat="44.56636" lon="5.85795">
        <ele>909.41684</ele>
        <time>2025-07-10T06:18:24.000Z</time>
      </trkpt>
      <trkpt lat="44.56639" lon="5.85796">
        <ele>909.486543</ele>
        <time>2025-07-10T06:18:25.000Z</time>
      </trkpt>
      <trkpt lat="44.56642" lon="5.85796">
        <ele>909.553089</ele>
        <time>2025-07-10T06:18:26.000Z</time>
      </trkpt>
      <trkpt lat="44.56644" lon="5.85796">
        <ele>909.624962</ele>
        <time>2025-07-10T06:18:27.000Z</time>
      </trkpt>
      <trkpt lat="44.56647" lon="5.85795">
        <ele>909.692129</ele>
        <time>2025-07-10T06:18:28.000Z</time>
      </trkpt>
      <trkpt lat="44.5665" lon="5.85794">
        <ele>909.760255</ele>
        <time>2025-07-10T06:18:29.000Z</time>
      </trkpt>
      <trkpt lat="44.56652" lon="5.85793">
        <ele>909.834673</ele>
        <time>2025-07-10T06:18:30.000Z</time>
      </trkpt>
      <trkpt lat="44.56655" lon="5.85791">
        <ele>909.913496</ele>
        <time>2025-07-10T06:18:31.000Z</time>
      </trkpt>
      <trkpt lat="44.56658" lon="5.8579">
        <ele>909.992319</ele>
        <time>2025-07-10T06:18:32.000Z</time>
      </trkpt>
      <trkpt lat="44.56661" lon="5.85788">
        <ele>910.072071</ele>
        <time>2025-07-10T06:18:33.000Z</time>
      </trkpt>
      <trkpt lat="44.56664" lon="5.85786">
        <ele>910.149374</ele>
        <time>2025-07-10T06:18:34.000Z</time>
      </trkpt>
      <trkpt lat="44.56666" lon="5.85784">
        <ele>910.226678</ele>
        <time>2025-07-10T06:18:35.000Z</time>
      </trkpt>
      <trkpt lat="44.56669" lon="5.85782">
        <ele>910.304379</ele>
        <time>2025-07-10T06:18:36.000Z</time>
      </trkpt>
      <trkpt lat="44.56671" lon="5.8578">
        <ele>910.379901</ele>
        <time>2025-07-10T06:18:37.000Z</time>
      </trkpt>
      <trkpt lat="44.56674" lon="5.85778">
        <ele>910.4541</ele>
        <time>2025-07-10T06:18:38.000Z</time>
      </trkpt>
      <trkpt lat="44.56676" lon="5.85777">
        <ele>910.523687</ele>
        <time>2025-07-10T06:18:39.000Z</time>
      </trkpt>
      <trkpt lat="44.56679" lon="5.85775">
        <ele>910.595124</ele>
        <time>2025-07-10T06:18:40.000Z</time>
      </trkpt>
      <trkpt lat="44.56681" lon="5.85772">
        <ele>910.6719</ele>
        <time>2025-07-10T06:18:41.000Z</time>
      </trkpt>
      <trkpt lat="44.56684" lon="5.8577">
        <ele>910.747421</ele>
        <time>2025-07-10T06:18:42.000Z</time>
      </trkpt>
      <trkpt lat="44.56686" lon="5.85769">
        <ele>910.816226</ele>
        <time>2025-07-10T06:18:43.000Z</time>
      </trkpt>
      <trkpt lat="44.56689" lon="5.85767">
        <ele>910.882339</ele>
        <time>2025-07-10T06:18:44.000Z</time>
      </trkpt>
      <trkpt lat="44.56691" lon="5.85765">
        <ele>910.950433</ele>
        <time>2025-07-10T06:18:45.000Z</time>
      </trkpt>
      <trkpt lat="44.56693" lon="5.85763">
        <ele>911.020956</ele>
        <time>2025-07-10T06:18:46.000Z</time>
      </trkpt>
      <trkpt lat="44.56696" lon="5.85761">
        <ele>911.090543</ele>
        <time>2025-07-10T06:18:47.000Z</time>
      </trkpt>
      <trkpt lat="44.56698" lon="5.85759">
        <ele>911.15259</ele>
        <time>2025-07-10T06:18:48.000Z</time>
      </trkpt>
      <trkpt lat="44.567" lon="5.85758">
        <ele>911.2144</ele>
        <time>2025-07-10T06:18:49.000Z</time>
      </trkpt>
      <trkpt lat="44.56702" lon="5.85755">
        <ele>911.281469</ele>
        <time>2025-07-10T06:18:50.000Z</time>
      </trkpt>
      <trkpt lat="44.56704" lon="5.85754">
        <ele>911.348867</ele>
        <time>2025-07-10T06:18:51.000Z</time>
      </trkpt>
      <trkpt lat="44.56707" lon="5.85752">
        <ele>911.41687</ele>
        <time>2025-07-10T06:18:52.000Z</time>
      </trkpt>
      <trkpt lat="44.56709" lon="5.8575">
        <ele>911.487393</ele>
        <time>2025-07-10T06:18:53.000Z</time>
      </trkpt>
      <trkpt lat="44.56712" lon="5.85749">
        <ele>911.561714</ele>
        <time>2025-07-10T06:18:54.000Z</time>
      </trkpt>
      <trkpt lat="44.56714" lon="5.85747">
        <ele>911.628244</ele>
        <time>2025-07-10T06:18:55.000Z</time>
      </trkpt>
      <trkpt lat="44.56717" lon="5.85745">
        <ele>911.700904</ele>
        <time>2025-07-10T06:18:56.000Z</time>
      </trkpt>
      <trkpt lat="44.56719" lon="5.85744">
        <ele>911.775225</ele>
        <time>2025-07-10T06:18:57.000Z</time>
      </trkpt>
      <trkpt lat="44.56722" lon="5.85742">
        <ele>911.851932</ele>
        <time>2025-07-10T06:18:58.000Z</time>
      </trkpt>
      <trkpt lat="44.56725" lon="5.85741">
        <ele>911.930013</ele>
        <time>2025-07-10T06:18:59.000Z</time>
      </trkpt>
      <trkpt lat="44.56728" lon="5.85739">
        <ele>912.010449</ele>
        <time>2025-07-10T06:19:00.000Z</time>
      </trkpt>
      <trkpt lat="44.56731" lon="5.85737">
        <ele>912.093798</ele>
        <time>2025-07-10T06:19:01.000Z</time>
      </trkpt>
      <trkpt lat="44.56734" lon="5.85736">
        <ele>912.179061</ele>
        <time>2025-07-10T06:19:02.000Z</time>
      </trkpt>
      <trkpt lat="44.56737" lon="5.85735">
        <ele>912.257552</ele>
        <time>2025-07-10T06:19:03.000Z</time>
      </trkpt>
      <trkpt lat="44.5674" lon="5.85734">
        <ele>912.34146</ele>
        <time>2025-07-10T06:19:04.000Z</time>
      </trkpt>
      <trkpt lat="44.56743" lon="5.85733">
        <ele>912.425367</ele>
        <time>2025-07-10T06:19:05.000Z</time>
      </trkpt>
      <trkpt lat="44.56747" lon="5.85732">
        <ele>912.511079</ele>
        <time>2025-07-10T06:19:06.000Z</time>
      </trkpt>
      <trkpt lat="44.5675" lon="5.85731">
        <ele>912.598785</ele>
        <time>2025-07-10T06:19:07.000Z</time>
      </trkpt>
      <trkpt lat="44.56754" lon="5.85731">
        <ele>912.694341</ele>
        <time>2025-07-10T06:19:08.000Z</time>
      </trkpt>
      <trkpt lat="44.56757" lon="5.8573">
        <ele>912.782896</ele>
        <time>2025-07-10T06:19:09.000Z</time>
      </trkpt>
      <trkpt lat="44.56761" lon="5.85729">
        <ele>912.877194</ele>
        <time>2025-07-10T06:19:10.000Z</time>
      </trkpt>
      <trkpt lat="44.56765" lon="5.85728">
        <ele>912.978072</ele>
        <time>2025-07-10T06:19:11.000Z</time>
      </trkpt>
      <trkpt lat="44.56769" lon="5.85727">
        <ele>913.081243</ele>
        <time>2025-07-10T06:19:12.000Z</time>
      </trkpt>
      <trkpt lat="44.56773" lon="5.85726">
        <ele>913.189494</ele>
        <time>2025-07-10T06:19:13.000Z</time>
      </trkpt>
      <trkpt lat="44.56777" lon="5.85726">
        <ele>913.297238</ele>
        <time>2025-07-10T06:19:14.000Z</time>
      </trkpt>
      <trkpt lat="44.56781" lon="5.85726">
        <ele>913.404982</ele>
        <time>2025-07-10T06:19:15.000Z</time>
      </trkpt>
      <trkpt lat="44.56786" lon="5.85725">
        <ele>913.505209</ele>
        <time>2025-07-10T06:19:16.000Z</time>
      </trkpt>
      <trkpt lat="44.5679" lon="5.85725">
        <ele>913.568116</ele>
        <time>2025-07-10T06:19:17.000Z</time>
      </trkpt>
      <trkpt lat="44.56794" lon="5.85724">
        <ele>913.631086</ele>
        <time>2025-07-10T06:19:18.000Z</time>
      </trkpt>
      <trkpt lat="44.56798" lon="5.85724">
        <ele>913.697042</ele>
        <time>2025-07-10T06:19:19.000Z</time>
      </trkpt>
      <trkpt lat="44.56803" lon="5.85724">
        <ele>913.760012</ele>
        <time>2025-07-10T06:19:20.000Z</time>
      </trkpt>
      <trkpt lat="44.56807" lon="5.85723">
        <ele>913.823163</ele>
        <time>2025-07-10T06:19:21.000Z</time>
      </trkpt>
      <trkpt lat="44.56811" lon="5.85722">
        <ele>913.883338</ele>
        <time>2025-07-10T06:19:22.000Z</time>
      </trkpt>
      <trkpt lat="44.56815" lon="5.85722">
        <ele>913.943257</ele>
        <time>2025-07-10T06:19:23.000Z</time>
      </trkpt>
      <trkpt lat="44.56819" lon="5.85722">
        <ele>914.003177</ele>
        <time>2025-07-10T06:19:24.000Z</time>
      </trkpt>
      <trkpt lat="44.56823" lon="5.85722">
        <ele>914.063021</ele>
        <time>2025-07-10T06:19:25.000Z</time>
      </trkpt>
      <trkpt lat="44.56827" lon="5.85722">
        <ele>914.121369</ele>
        <time>2025-07-10T06:19:26.000Z</time>
      </trkpt>
      <trkpt lat="44.56831" lon="5.85721">
        <ele>914.179795</ele>
        <time>2025-07-10T06:19:27.000Z</time>
      </trkpt>
      <trkpt lat="44.56835" lon="5.85721">
        <ele>914.239866</ele>
        <time>2025-07-10T06:19:28.000Z</time>
      </trkpt>
      <trkpt lat="44.56838" lon="5.8572">
        <ele>914.29836</ele>
        <time>2025-07-10T06:19:29.000Z</time>
      </trkpt>
      <trkpt lat="44.56842" lon="5.8572">
        <ele>914.356854</ele>
        <time>2025-07-10T06:19:30.000Z</time>
      </trkpt>
      <trkpt lat="44.56846" lon="5.8572">
        <ele>914.412211</ele>
        <time>2025-07-10T06:19:31.000Z</time>
      </trkpt>
      <trkpt lat="44.5685" lon="5.8572">
        <ele>914.467558</ele>
        <time>2025-07-10T06:19:32.000Z</time>
      </trkpt>
      <trkpt lat="44.56853" lon="5.8572">
        <ele>914.522945</ele>
        <time>2025-07-10T06:19:33.000Z</time>
      </trkpt>
      <trkpt lat="44.56857" lon="5.85719">
        <ele>914.579947</ele>
        <time>2025-07-10T06:19:34.000Z</time>
      </trkpt>
      <trkpt lat="44.56861" lon="5.85719">
        <ele>914.635386</ele>
        <time>2025-07-10T06:19:35.000Z</time>
      </trkpt>
      <trkpt lat="44.56865" lon="5.85719">
        <ele>914.690897</ele>
        <time>2025-07-10T06:19:36.000Z</time>
      </trkpt>
      <trkpt lat="44.56868" lon="5.85718">
        <ele>914.747829</ele>
        <time>2025-07-10T06:19:37.000Z</time>
      </trkpt>
      <trkpt lat="44.56872" lon="5.85718">
        <ele>914.804762</ele>
        <time>2025-07-10T06:19:38.000Z</time>
      </trkpt>
      <trkpt lat="44.56876" lon="5.85718">
        <ele>914.860201</ele>
        <time>2025-07-10T06:19:39.000Z</time>
      </trkpt>
      <trkpt lat="44.5688" lon="5.85718">
        <ele>914.918578</ele>
        <time>2025-07-10T06:19:40.000Z</time>
      </trkpt>
      <trkpt lat="44.56884" lon="5.85717">
        <ele>914.976955</ele>
        <time>2025-07-10T06:19:41.000Z</time>
      </trkpt>
      <trkpt lat="44.56888" lon="5.85717">
        <ele>915.036799</ele>
        <time>2025-07-10T06:19:42.000Z</time>
      </trkpt>
      <trkpt lat="44.56892" lon="5.85717">
        <ele>915.096719</ele>
        <time>2025-07-10T06:19:43.000Z</time>
      </trkpt>
      <trkpt lat="44.56896" lon="5.85717">
        <ele>915.158058</ele>
        <time>2025-07-10T06:19:44.000Z</time>
      </trkpt>
      <trkpt lat="44.569" lon="5.85716">
        <ele>915.218129</ele>
        <time>2025-07-10T06:19:45.000Z</time>
      </trkpt>
      <trkpt lat="44.56904" lon="5.85716">
        <ele>915.278304</ele>
        <time>2025-07-10T06:19:46.000Z</time>
      </trkpt>
      <trkpt lat="44.56908" lon="5.85715">
        <ele>915.336885</ele>
        <time>2025-07-10T06:19:47.000Z</time>
      </trkpt>
      <trkpt lat="44.56912" lon="5.85715">
        <ele>915.393977</ele>
        <time>2025-07-10T06:19:48.000Z</time>
      </trkpt>
      <trkpt lat="44.56915" lon="5.85714">
        <ele>915.450979</ele>
        <time>2025-07-10T06:19:49.000Z</time>
      </trkpt>
      <trkpt lat="44.56919" lon="5.85714">
        <ele>915.506418</ele>
        <time>2025-07-10T06:19:50.000Z</time>
      </trkpt>
      <trkpt lat="44.56923" lon="5.85714">
        <ele>915.56351</ele>
        <time>2025-07-10T06:19:51.000Z</time>
      </trkpt>
      <trkpt lat="44.56927" lon="5.85713">
        <ele>915.622091</ele>
        <time>2025-07-10T06:19:52.000Z</time>
      </trkpt>
      <trkpt lat="44.56931" lon="5.85713">
        <ele>915.678944</ele>
        <time>2025-07-10T06:19:53.000Z</time>
      </trkpt>
      <trkpt lat="44.56934" lon="5.85713">
        <ele>915.734332</ele>
        <time>2025-07-10T06:19:54.000Z</time>
      </trkpt>
      <trkpt lat="44.56938" lon="5.85713">
        <ele>915.789689</ele>
        <time>2025-07-10T06:19:55.000Z</time>
      </trkpt>
      <trkpt lat="44.56941" lon="5.85712">
        <ele>915.842141</ele>
        <time>2025-07-10T06:19:56.000Z</time>
      </trkpt>
      <trkpt lat="44.56945" lon="5.85712">
        <ele>915.896034</ele>
        <time>2025-07-10T06:19:57.000Z</time>
      </trkpt>
      <trkpt lat="44.56949" lon="5.85712">
        <ele>915.949927</ele>
        <time>2025-07-10T06:19:58.000Z</time>
      </trkpt>
      <trkpt lat="44.56952" lon="5.85712">
        <ele>915.999394</ele>
        <time>2025-07-10T06:19:59.000Z</time>
      </trkpt>
      <trkpt lat="44.56955" lon="5.85711">
        <ele>916.050431</ele>
        <time>2025-07-10T06:20:00.000Z</time>
      </trkpt>
      <trkpt lat="44.56958" lon="5.85711">
        <ele>916.097108</ele>
        <time>2025-07-10T06:20:01.000Z</time>
      </trkpt>
      <trkpt lat="44.56962" lon="5.85711">
        <ele>916.143528</ele>
        <time>2025-07-10T06:20:02.000Z</time>
      </trkpt>
      <trkpt lat="44.56965" lon="5.8571">
        <ele>916.199873</ele>
        <time>2025-07-10T06:20:03.000Z</time>
      </trkpt>
      <trkpt lat="44.56968" lon="5.8571">
        <ele>916.300102</ele>
        <time>2025-07-10T06:20:04.000Z</time>
      </trkpt>
      <trkpt lat="44.56971" lon="5.8571">
        <ele>916.397113</ele>
        <time>2025-07-10T06:20:05.000Z</time>
      </trkpt>
      <trkpt lat="44.56974" lon="5.85709">
        <ele>916.497342</ele>
        <time>2025-07-10T06:20:06.000Z</time>
      </trkpt>
      <trkpt lat="44.56977" lon="5.85709">
        <ele>916.600789</ele>
        <time>2025-07-10T06:20:07.000Z</time>
      </trkpt>
      <trkpt lat="44.5698" lon="5.85709">
        <ele>916.710673</ele>
        <time>2025-07-10T06:20:08.000Z</time>
      </trkpt>
      <trkpt lat="44.56984" lon="5.85709">
        <ele>916.820558</ele>
        <time>2025-07-10T06:20:09.000Z</time>
      </trkpt>
      <trkpt lat="44.56987" lon="5.85708">
        <ele>916.927224</ele>
        <time>2025-07-10T06:20:10.000Z</time>
      </trkpt>
      <trkpt lat="44.5699" lon="5.85708">
        <ele>917.030671</ele>
        <time>2025-07-10T06:20:11.000Z</time>
      </trkpt>
      <trkpt lat="44.56994" lon="5.85708">
        <ele>917.140555</ele>
        <time>2025-07-10T06:20:12.000Z</time>
      </trkpt>
      <trkpt lat="44.56997" lon="5.85707">
        <ele>917.244689</ele>
        <time>2025-07-10T06:20:13.000Z</time>
      </trkpt>
      <trkpt lat="44.57" lon="5.85707">
        <ele>917.348544</ele>
        <time>2025-07-10T06:20:14.000Z</time>
      </trkpt>
      <trkpt lat="44.57003" lon="5.85706">
        <ele>917.452169</ele>
        <time>2025-07-10T06:20:15.000Z</time>
      </trkpt>
      <trkpt lat="44.57007" lon="5.85706">
        <ele>917.555616</ele>
        <time>2025-07-10T06:20:16.000Z</time>
      </trkpt>
      <trkpt lat="44.5701" lon="5.85705">
        <ele>917.659471</ele>
        <time>2025-07-10T06:20:17.000Z</time>
      </trkpt>
      <trkpt lat="44.57013" lon="5.85705">
        <ele>917.769523</ele>
        <time>2025-07-10T06:20:18.000Z</time>
      </trkpt>
      <trkpt lat="44.57017" lon="5.85705">
        <ele>917.879408</ele>
        <time>2025-07-10T06:20:19.000Z</time>
      </trkpt>
      <trkpt lat="44.5702" lon="5.85704">
        <ele>917.982727</ele>
        <time>2025-07-10T06:20:20.000Z</time>
      </trkpt>
      <trkpt lat="44.57023" lon="5.85704">
        <ele>918.089195</ele>
        <time>2025-07-10T06:20:21.000Z</time>
      </trkpt>
      <trkpt lat="44.57026" lon="5.85704">
        <ele>918.195736</ele>
        <time>2025-07-10T06:20:22.000Z</time>
      </trkpt>
      <trkpt lat="44.5703" lon="5.85704">
        <ele>918.306005</ele>
        <time>2025-07-10T06:20:23.000Z</time>
      </trkpt>
      <trkpt lat="44.57033" lon="5.85703">
        <ele>918.412844</ele>
        <time>2025-07-10T06:20:24.000Z</time>
      </trkpt>
      <trkpt lat="44.57036" lon="5.85703">
        <ele>918.513781</ele>
        <time>2025-07-10T06:20:25.000Z</time>
      </trkpt>
      <trkpt lat="44.57039" lon="5.85703">
        <ele>918.610574</ele>
        <time>2025-07-10T06:20:26.000Z</time>
      </trkpt>
      <trkpt lat="44.57042" lon="5.85702">
        <ele>918.710592</ele>
        <time>2025-07-10T06:20:27.000Z</time>
      </trkpt>
      <trkpt lat="44.57045" lon="5.85702">
        <ele>918.81061</ele>
        <time>2025-07-10T06:20:28.000Z</time>
      </trkpt>
      <trkpt lat="44.57048" lon="5.85702">
        <ele>918.907404</ele>
        <time>2025-07-10T06:20:29.000Z</time>
      </trkpt>
      <trkpt lat="44.57051" lon="5.85702">
        <ele>919.001198</ele>
        <time>2025-07-10T06:20:30.000Z</time>
      </trkpt>
      <trkpt lat="44.57054" lon="5.85702">
        <ele>919.098073</ele>
        <time>2025-07-10T06:20:31.000Z</time>
      </trkpt>
      <trkpt lat="44.57057" lon="5.85702">
        <ele>919.191642</ele>
        <time>2025-07-10T06:20:32.000Z</time>
      </trkpt>
      <trkpt lat="44.5706" lon="5.85702">
        <ele>919.288435</ele>
        <time>2025-07-10T06:20:33.000Z</time>
      </trkpt>
      <trkpt lat="44.57063" lon="5.85701">
        <ele>919.382088</ele>
        <time>2025-07-10T06:20:34.000Z</time>
      </trkpt>
      <trkpt lat="44.57066" lon="5.85701">
        <ele>919.479534</ele>
        <time>2025-07-10T06:20:35.000Z</time>
      </trkpt>
      <trkpt lat="44.57069" lon="5.857">
        <ele>919.573525</ele>
        <time>2025-07-10T06:20:36.000Z</time>
      </trkpt>
      <trkpt lat="44.57072" lon="5.857">
        <ele>919.673516</ele>
        <time>2025-07-10T06:20:37.000Z</time>
      </trkpt>
      <trkpt lat="44.57075" lon="5.857">
        <ele>919.770718</ele>
        <time>2025-07-10T06:20:38.000Z</time>
      </trkpt>
      <trkpt lat="44.57078" lon="5.857">
        <ele>919.867729</ele>
        <time>2025-07-10T06:20:39.000Z</time>
      </trkpt>
      <trkpt lat="44.57081" lon="5.85699">
        <ele>919.967958</ele>
        <time>2025-07-10T06:20:40.000Z</time>
      </trkpt>
      <trkpt lat="44.57084" lon="5.85699">
        <ele>920.071277</ele>
        <time>2025-07-10T06:20:41.000Z</time>
      </trkpt>
      <trkpt lat="44.57087" lon="5.85699">
        <ele>920.168479</ele>
        <time>2025-07-10T06:20:42.000Z</time>
      </trkpt>
      <trkpt lat="44.5709" lon="5.85698">
        <ele>920.26568</ele>
        <time>2025-07-10T06:20:43.000Z</time>
      </trkpt>
      <trkpt lat="44.57093" lon="5.85698">
        <ele>920.365778</ele>
        <time>2025-07-10T06:20:44.000Z</time>
      </trkpt>
      <trkpt lat="44.57097" lon="5.85698">
        <ele>920.46902</ele>
        <time>2025-07-10T06:20:45.000Z</time>
      </trkpt>
      <trkpt lat="44.571" lon="5.85698">
        <ele>920.569012</ele>
        <time>2025-07-10T06:20:46.000Z</time>
      </trkpt>
      <trkpt lat="44.57103" lon="5.85698">
        <ele>920.672254</ele>
        <time>2025-07-10T06:20:47.000Z</time>
      </trkpt>
      <trkpt lat="44.57106" lon="5.85699">
        <ele>920.772904</ele>
        <time>2025-07-10T06:20:48.000Z</time>
      </trkpt>
      <trkpt lat="44.57109" lon="5.85699">
        <ele>920.869779</ele>
        <time>2025-07-10T06:20:49.000Z</time>
      </trkpt>
      <trkpt lat="44.57112" lon="5.85699">
        <ele>920.969876</ele>
        <time>2025-07-10T06:20:50.000Z</time>
      </trkpt>
      <trkpt lat="44.57115" lon="5.85699">
        <ele>921.073323</ele>
        <time>2025-07-10T06:20:51.000Z</time>
      </trkpt>
      <trkpt lat="44.57118" lon="5.857">
        <ele>921.171066</ele>
        <time>2025-07-10T06:20:52.000Z</time>
      </trkpt>
      <trkpt lat="44.57121" lon="5.85701">
        <ele>921.26598</ele>
        <time>2025-07-10T06:20:53.000Z</time>
      </trkpt>
      <trkpt lat="44.57124" lon="5.85702">
        <ele>921.364476</ele>
        <time>2025-07-10T06:20:54.000Z</time>
      </trkpt>
      <trkpt lat="44.57127" lon="5.85702">
        <ele>921.463427</ele>
        <time>2025-07-10T06:20:55.000Z</time>
      </trkpt>
      <trkpt lat="44.5713" lon="5.85703">
        <ele>921.558341</ele>
        <time>2025-07-10T06:20:56.000Z</time>
      </trkpt>
      <trkpt lat="44.57133" lon="5.85704">
        <ele>921.650077</ele>
        <time>2025-07-10T06:20:57.000Z</time>
      </trkpt>
      <trkpt lat="44.57136" lon="5.85704">
        <ele>921.738251</ele>
        <time>2025-07-10T06:20:58.000Z</time>
      </trkpt>
      <trkpt lat="44.57138" lon="5.85705">
        <ele>921.826095</ele>
        <time>2025-07-10T06:20:59.000Z</time>
      </trkpt>
      <trkpt lat="44.57141" lon="5.85706">
        <ele>921.912471</ele>
        <time>2025-07-10T06:21:00.000Z</time>
      </trkpt>
      <trkpt lat="44.57143" lon="5.85707">
        <ele>921.98788</ele>
        <time>2025-07-10T06:21:01.000Z</time>
      </trkpt>
      <trkpt lat="44.57146" lon="5.85708">
        <ele>922.024878</ele>
        <time>2025-07-10T06:21:02.000Z</time>
      </trkpt>
      <trkpt lat="44.57148" lon="5.85708">
        <ele>922.058403</ele>
        <time>2025-07-10T06:21:03.000Z</time>
      </trkpt>
      <trkpt lat="44.57151" lon="5.85708">
        <ele>922.093297</ele>
        <time>2025-07-10T06:21:04.000Z</time>
      </trkpt>
      <trkpt lat="44.57153" lon="5.85708">
        <ele>922.126821</ele>
        <time>2025-07-10T06:21:05.000Z</time>
      </trkpt>
      <trkpt lat="44.57155" lon="5.85709">
        <ele>922.161898</ele>
        <time>2025-07-10T06:21:06.000Z</time>
      </trkpt>
      <trkpt lat="44.57158" lon="5.85709">
        <ele>922.196745</ele>
        <time>2025-07-10T06:21:07.000Z</time>
      </trkpt>
      <trkpt lat="44.5716" lon="5.85709">
        <ele>922.230142</ele>
        <time>2025-07-10T06:21:08.000Z</time>
      </trkpt>
      <trkpt lat="44.57162" lon="5.85709">
        <ele>922.262072</ele>
        <time>2025-07-10T06:21:09.000Z</time>
      </trkpt>
      <trkpt lat="44.57164" lon="5.85709">
        <ele>922.294151</ele>
        <time>2025-07-10T06:21:10.000Z</time>
      </trkpt>
      <trkpt lat="44.57167" lon="5.85708">
        <ele>922.327787</ele>
        <time>2025-07-10T06:21:11.000Z</time>
      </trkpt>
      <trkpt lat="44.57169" lon="5.85708">
        <ele>922.360314</ele>
        <time>2025-07-10T06:21:12.000Z</time>
      </trkpt>
      <trkpt lat="44.57171" lon="5.85707">
        <ele>922.394704</ele>
        <time>2025-07-10T06:21:13.000Z</time>
      </trkpt>
      <trkpt lat="44.57174" lon="5.85706">
        <ele>922.433127</ele>
        <time>2025-07-10T06:21:14.000Z</time>
      </trkpt>
      <trkpt lat="44.57177" lon="5.85705">
        <ele>922.47567</ele>
        <time>2025-07-10T06:21:15.000Z</time>
      </trkpt>
      <trkpt lat="44.57179" lon="5.85705">
        <ele>922.516518</ele>
        <time>2025-07-10T06:21:16.000Z</time>
      </trkpt>
      <trkpt lat="44.57182" lon="5.85704">
        <ele>922.557795</ele>
        <time>2025-07-10T06:21:17.000Z</time>
      </trkpt>
      <trkpt lat="44.57185" lon="5.85703">
        <ele>922.59807</ele>
        <time>2025-07-10T06:21:18.000Z</time>
      </trkpt>
      <trkpt lat="44.57188" lon="5.85702">
        <ele>922.640269</ele>
        <time>2025-07-10T06:21:19.000Z</time>
      </trkpt>
      <trkpt lat="44.57191" lon="5.85701">
        <ele>922.684149</ele>
        <time>2025-07-10T06:21:20.000Z</time>
      </trkpt>
      <trkpt lat="44.57194" lon="5.857">
        <ele>922.728332</ele>
        <time>2025-07-10T06:21:21.000Z</time>
      </trkpt>
      <trkpt lat="44.57196" lon="5.85699">
        <ele>922.771134</ele>
        <time>2025-07-10T06:21:22.000Z</time>
      </trkpt>
      <trkpt lat="44.57199" lon="5.85697">
        <ele>922.815642</ele>
        <time>2025-07-10T06:21:23.000Z</time>
      </trkpt>
      <trkpt lat="44.57202" lon="5.85696">
        <ele>922.86121</ele>
        <time>2025-07-10T06:21:24.000Z</time>
      </trkpt>
      <trkpt lat="44.57205" lon="5.85694">
        <ele>922.907786</ele>
        <time>2025-07-10T06:21:25.000Z</time>
      </trkpt>
      <trkpt lat="44.57208" lon="5.85692">
        <ele>922.953806</ele>
        <time>2025-07-10T06:21:26.000Z</time>
      </trkpt>
      <trkpt lat="44.57211" lon="5.85691">
        <ele>923.00384</ele>
        <time>2025-07-10T06:21:27.000Z</time>
      </trkpt>
      <trkpt lat="44.57215" lon="5.8569">
        <ele>923.051429</ele>
        <time>2025-07-10T06:21:28.000Z</time>
      </trkpt>
      <trkpt lat="44.57218" lon="5.85688">
        <ele>923.101086</ele>
        <time>2025-07-10T06:21:29.000Z</time>
      </trkpt>
      <trkpt lat="44.57221" lon="5.85686">
        <ele>923.14974</ele>
        <time>2025-07-10T06:21:30.000Z</time>
      </trkpt>
      <trkpt lat="44.57223" lon="5.85683">
        <ele>923.19726</ele>
        <time>2025-07-10T06:21:31.000Z</time>
      </trkpt>
      <trkpt lat="44.57226" lon="5.85681">
        <ele>923.24687</ele>
        <time>2025-07-10T06:21:32.000Z</time>
      </trkpt>
      <trkpt lat="44.5723" lon="5.85679">
        <ele>923.301714</ele>
        <time>2025-07-10T06:21:33.000Z</time>
      </trkpt>
      <trkpt lat="44.57233" lon="5.85677">
        <ele>923.356559</ele>
        <time>2025-07-10T06:21:34.000Z</time>
      </trkpt>
      <trkpt lat="44.57237" lon="5.85674">
        <ele>923.411792</ele>
        <time>2025-07-10T06:21:35.000Z</time>
      </trkpt>
      <trkpt lat="44.5724" lon="5.85672">
        <ele>923.466714</ele>
        <time>2025-07-10T06:21:36.000Z</time>
      </trkpt>
      <trkpt lat="44.57243" lon="5.85669">
        <ele>923.52256</ele>
        <time>2025-07-10T06:21:37.000Z</time>
      </trkpt>
      <trkpt lat="44.57246" lon="5.85665">
        <ele>923.578406</ele>
        <time>2025-07-10T06:21:38.000Z</time>
      </trkpt>
      <trkpt lat="44.5725" lon="5.85662">
        <ele>923.635428</ele>
        <time>2025-07-10T06:21:39.000Z</time>
      </trkpt>
      <trkpt lat="44.57253" lon="5.85659">
        <ele>923.697202</ele>
        <time>2025-07-10T06:21:40.000Z</time>
      </trkpt>
      <trkpt lat="44.57256" lon="5.85655">
        <ele>923.757229</ele>
        <time>2025-07-10T06:21:41.000Z</time>
      </trkpt>
      <trkpt lat="44.5726" lon="5.85652">
        <ele>923.819175</ele>
        <time>2025-07-10T06:21:42.000Z</time>
      </trkpt>
      <trkpt lat="44.57263" lon="5.85648">
        <ele>923.881543</ele>
        <time>2025-07-10T06:21:43.000Z</time>
      </trkpt>
      <trkpt lat="44.57266" lon="5.85644">
        <ele>923.942839</ele>
        <time>2025-07-10T06:21:44.000Z</time>
      </trkpt>
      <trkpt lat="44.5727" lon="5.85641">
        <ele>924.009376</ele>
        <time>2025-07-10T06:21:45.000Z</time>
      </trkpt>
      <trkpt lat="44.57274" lon="5.85636">
        <ele>924.078935</ele>
        <time>2025-07-10T06:21:46.000Z</time>
      </trkpt>
      <trkpt lat="44.57278" lon="5.85632">
        <ele>924.150212</ele>
        <time>2025-07-10T06:21:47.000Z</time>
      </trkpt>
      <trkpt lat="44.57282" lon="5.85628">
        <ele>924.222829</ele>
        <time>2025-07-10T06:21:48.000Z</time>
      </trkpt>
      <trkpt lat="44.57286" lon="5.85624">
        <ele>924.291729</ele>
        <time>2025-07-10T06:21:49.000Z</time>
      </trkpt>
      <trkpt lat="44.5729" lon="5.85621">
        <ele>924.360137</ele>
        <time>2025-07-10T06:21:50.000Z</time>
      </trkpt>
      <trkpt lat="44.57294" lon="5.85617">
        <ele>924.425538</ele>
        <time>2025-07-10T06:21:51.000Z</time>
      </trkpt>
      <trkpt lat="44.57297" lon="5.85614">
        <ele>924.490875</ele>
        <time>2025-07-10T06:21:52.000Z</time>
      </trkpt>
      <trkpt lat="44.57301" lon="5.8561">
        <ele>924.556276</ele>
        <time>2025-07-10T06:21:53.000Z</time>
      </trkpt>
      <trkpt lat="44.57305" lon="5.85608">
        <ele>924.637243</ele>
        <time>2025-07-10T06:21:54.000Z</time>
      </trkpt>
      <trkpt lat="44.57309" lon="5.85605">
        <ele>924.748706</ele>
        <time>2025-07-10T06:21:55.000Z</time>
      </trkpt>
      <trkpt lat="44.57312" lon="5.85602">
        <ele>924.857029</ele>
        <time>2025-07-10T06:21:56.000Z</time>
      </trkpt>
      <trkpt lat="44.57316" lon="5.856">
        <ele>924.96058</ele>
        <time>2025-07-10T06:21:57.000Z</time>
      </trkpt>
      <trkpt lat="44.5732" lon="5.85597">
        <ele>925.066401</ele>
        <time>2025-07-10T06:21:58.000Z</time>
      </trkpt>
      <trkpt lat="44.57323" lon="5.85595">
        <ele>925.170732</ele>
        <time>2025-07-10T06:21:59.000Z</time>
      </trkpt>
      <trkpt lat="44.57327" lon="5.85592">
        <ele>925.274283</ele>
        <time>2025-07-10T06:22:00.000Z</time>
      </trkpt>
      <trkpt lat="44.57331" lon="5.8559">
        <ele>925.374665</ele>
        <time>2025-07-10T06:22:01.000Z</time>
      </trkpt>
      <trkpt lat="44.57334" lon="5.85588">
        <ele>925.477369</ele>
        <time>2025-07-10T06:22:02.000Z</time>
      </trkpt>
      <trkpt lat="44.57337" lon="5.85586">
        <ele>925.567341</ele>
        <time>2025-07-10T06:22:03.000Z</time>
      </trkpt>
      <trkpt lat="44.57341" lon="5.85584">
        <ele>925.6577</ele>
        <time>2025-07-10T06:22:04.000Z</time>
      </trkpt>
      <trkpt lat="44.57344" lon="5.85582">
        <ele>925.743287</ele>
        <time>2025-07-10T06:22:05.000Z</time>
      </trkpt>
      <trkpt lat="44.57347" lon="5.8558">
        <ele>925.827788</ele>
        <time>2025-07-10T06:22:06.000Z</time>
      </trkpt>
      <trkpt lat="44.5735" lon="5.85579">
        <ele>925.91155</ele>
        <time>2025-07-10T06:22:07.000Z</time>
      </trkpt>
      <trkpt lat="44.57353" lon="5.85578">
        <ele>925.996667</ele>
        <time>2025-07-10T06:22:08.000Z</time>
      </trkpt>
      <trkpt lat="44.57356" lon="5.85576">
        <ele>926.08004</ele>
        <time>2025-07-10T06:22:09.000Z</time>
      </trkpt>
      <trkpt lat="44.57359" lon="5.85575">
        <ele>926.161511</ele>
        <time>2025-07-10T06:22:10.000Z</time>
      </trkpt>
      <trkpt lat="44.57362" lon="5.85575">
        <ele>926.238844</ele>
        <time>2025-07-10T06:22:11.000Z</time>
      </trkpt>
      <trkpt lat="44.57365" lon="5.85574">
        <ele>926.312136</ele>
        <time>2025-07-10T06:22:12.000Z</time>
      </trkpt>
      <trkpt lat="44.57368" lon="5.85573">
        <ele>926.389092</ele>
        <time>2025-07-10T06:22:13.000Z</time>
      </trkpt>
      <trkpt lat="44.57371" lon="5.85572">
        <ele>926.468553</ele>
        <time>2025-07-10T06:22:14.000Z</time>
      </trkpt>
      <trkpt lat="44.57374" lon="5.85571">
        <ele>926.550523</ele>
        <time>2025-07-10T06:22:15.000Z</time>
      </trkpt>
      <trkpt lat="44.57377" lon="5.8557">
        <ele>926.629984</ele>
        <time>2025-07-10T06:22:16.000Z</time>
      </trkpt>
      <trkpt lat="44.5738" lon="5.85569">
        <ele>926.707897</ele>
        <time>2025-07-10T06:22:17.000Z</time>
      </trkpt>
      <trkpt lat="44.57382" lon="5.85568">
        <ele>926.782827</ele>
        <time>2025-07-10T06:22:18.000Z</time>
      </trkpt>
      <trkpt lat="44.57385" lon="5.85567">
        <ele>926.859365</ele>
        <time>2025-07-10T06:22:19.000Z</time>
      </trkpt>
      <trkpt lat="44.57388" lon="5.85566">
        <ele>926.93927</ele>
        <time>2025-07-10T06:22:20.000Z</time>
      </trkpt>
      <trkpt lat="44.57392" lon="5.85564">
        <ele>927.025119</ele>
        <time>2025-07-10T06:22:21.000Z</time>
      </trkpt>
      <trkpt lat="44.57395" lon="5.85563">
        <ele>927.107989</ele>
        <time>2025-07-10T06:22:22.000Z</time>
      </trkpt>
      <trkpt lat="44.57398" lon="5.85562">
        <ele>927.188378</ele>
        <time>2025-07-10T06:22:23.000Z</time>
      </trkpt>
      <trkpt lat="44.57401" lon="5.85561">
        <ele>927.271575</ele>
        <time>2025-07-10T06:22:24.000Z</time>
      </trkpt>
      <trkpt lat="44.57404" lon="5.85561">
        <ele>927.346669</ele>
        <time>2025-07-10T06:22:25.000Z</time>
      </trkpt>
      <trkpt lat="44.57407" lon="5.8556">
        <ele>927.421125</ele>
        <time>2025-07-10T06:22:26.000Z</time>
      </trkpt>
      <trkpt lat="44.57409" lon="5.85559">
        <ele>927.497289</ele>
        <time>2025-07-10T06:22:27.000Z</time>
      </trkpt>
      <trkpt lat="44.57413" lon="5.85559">
        <ele>927.587783</ele>
        <time>2025-07-10T06:22:28.000Z</time>
      </trkpt>
      <trkpt lat="44.57416" lon="5.85558">
        <ele>927.666155</ele>
        <time>2025-07-10T06:22:29.000Z</time>
      </trkpt>
      <trkpt lat="44.57419" lon="5.85557">
        <ele>927.742156</ele>
        <time>2025-07-10T06:22:30.000Z</time>
      </trkpt>
      <trkpt lat="44.57422" lon="5.85556">
        <ele>927.824127</ele>
        <time>2025-07-10T06:22:31.000Z</time>
      </trkpt>
      <trkpt lat="44.57425" lon="5.85555">
        <ele>927.913649</ele>
        <time>2025-07-10T06:22:32.000Z</time>
      </trkpt>
      <trkpt lat="44.57428" lon="5.85554">
        <ele>927.990604</ele>
        <time>2025-07-10T06:22:33.000Z</time>
      </trkpt>
      <trkpt lat="44.57431" lon="5.85553">
        <ele>928.070065</ele>
        <time>2025-07-10T06:22:34.000Z</time>
      </trkpt>
      <trkpt lat="44.57434" lon="5.85552">
        <ele>928.149122</ele>
        <time>2025-07-10T06:22:35.000Z</time>
      </trkpt>
      <trkpt lat="44.57437" lon="5.85551">
        <ele>928.228583</ele>
        <time>2025-07-10T06:22:36.000Z</time>
      </trkpt>
      <trkpt lat="44.5744" lon="5.8555">
        <ele>928.308488</ele>
        <time>2025-07-10T06:22:37.000Z</time>
      </trkpt>
      <trkpt lat="44.57443" lon="5.85549">
        <ele>928.393389</ele>
        <time>2025-07-10T06:22:38.000Z</time>
      </trkpt>
      <trkpt lat="44.57447" lon="5.85548">
        <ele>928.48039</ele>
        <time>2025-07-10T06:22:39.000Z</time>
      </trkpt>
      <trkpt lat="44.5745" lon="5.85547">
        <ele>928.564494</ele>
        <time>2025-07-10T06:22:40.000Z</time>
      </trkpt>
      <trkpt lat="44.57453" lon="5.85546">
        <ele>928.648599</ele>
        <time>2025-07-10T06:22:41.000Z</time>
      </trkpt>
      <trkpt lat="44.57456" lon="5.85545">
        <ele>928.735231</ele>
        <time>2025-07-10T06:22:42.000Z</time>
      </trkpt>
      <trkpt lat="44.5746" lon="5.85544">
        <ele>928.819335</ele>
        <time>2025-07-10T06:22:43.000Z</time>
      </trkpt>
      <trkpt lat="44.57463" lon="5.85543">
        <ele>928.898796</ele>
        <time>2025-07-10T06:22:44.000Z</time>
      </trkpt>
      <trkpt lat="44.57466" lon="5.85542">
        <ele>928.978256</ele>
        <time>2025-07-10T06:22:45.000Z</time>
      </trkpt>
      <trkpt lat="44.57469" lon="5.85541">
        <ele>929.058161</ele>
        <time>2025-07-10T06:22:46.000Z</time>
      </trkpt>
      <trkpt lat="44.57471" lon="5.8554">
        <ele>929.134325</ele>
        <time>2025-07-10T06:22:47.000Z</time>
      </trkpt>
      <trkpt lat="44.57474" lon="5.85539">
        <ele>929.203797</ele>
        <time>2025-07-10T06:22:48.000Z</time>
      </trkpt>
      <trkpt lat="44.57477" lon="5.85538">
        <ele>929.291617</ele>
        <time>2025-07-10T06:22:49.000Z</time>
      </trkpt>
      <trkpt lat="44.5748" lon="5.85537">
        <ele>929.386302</ele>
        <time>2025-07-10T06:22:50.000Z</time>
      </trkpt>
      <trkpt lat="44.57483" lon="5.85536">
        <ele>929.480166</ele>
        <time>2025-07-10T06:22:51.000Z</time>
      </trkpt>
      <trkpt lat="44.57486" lon="5.85536">
        <ele>929.57064</ele>
        <time>2025-07-10T06:22:52.000Z</time>
      </trkpt>
      <trkpt lat="44.57489" lon="5.85535">
        <ele>929.664169</ele>
        <time>2025-07-10T06:22:53.000Z</time>
      </trkpt>
      <trkpt lat="44.57492" lon="5.85534">
        <ele>929.752362</ele>
        <time>2025-07-10T06:22:54.000Z</time>
      </trkpt>
      <trkpt lat="44.57495" lon="5.85534">
        <ele>929.847047</ele>
        <time>2025-07-10T06:22:55.000Z</time>
      </trkpt>
      <trkpt lat="44.57498" lon="5.85532">
        <ele>929.939764</ele>
        <time>2025-07-10T06:22:56.000Z</time>
      </trkpt>
      <trkpt lat="44.575" lon="5.85531">
        <ele>930.032482</ele>
        <time>2025-07-10T06:22:57.000Z</time>
      </trkpt>
      <trkpt lat="44.57503" lon="5.8553">
        <ele>930.12765</ele>
        <time>2025-07-10T06:22:58.000Z</time>
      </trkpt>
      <trkpt lat="44.57506" lon="5.85529">
        <ele>930.216824</ele>
        <time>2025-07-10T06:22:59.000Z</time>
      </trkpt>
      <trkpt lat="44.57509" lon="5.85529">
        <ele>930.308043</ele>
        <time>2025-07-10T06:23:00.000Z</time>
      </trkpt>
      <trkpt lat="44.57512" lon="5.85528">
        <ele>930.404954</ele>
        <time>2025-07-10T06:23:01.000Z</time>
      </trkpt>
      <trkpt lat="44.57515" lon="5.85527">
        <ele>930.495978</ele>
        <time>2025-07-10T06:23:02.000Z</time>
      </trkpt>
      <trkpt lat="44.57518" lon="5.85525">
        <ele>930.589285</ele>
        <time>2025-07-10T06:23:03.000Z</time>
      </trkpt>
      <trkpt lat="44.57521" lon="5.85523">
        <ele>930.67974</ele>
        <time>2025-07-10T06:23:04.000Z</time>
      </trkpt>
      <trkpt lat="44.57523" lon="5.85522">
        <ele>930.771479</ele>
        <time>2025-07-10T06:23:05.000Z</time>
      </trkpt>
      <trkpt lat="44.57526" lon="5.8552">
        <ele>930.861934</ele>
        <time>2025-07-10T06:23:06.000Z</time>
      </trkpt>
      <trkpt lat="44.57529" lon="5.85519">
        <ele>930.947671</ele>
        <time>2025-07-10T06:23:07.000Z</time>
      </trkpt>
      <trkpt lat="44.57531" lon="5.85517">
        <ele>931.032473</ele>
        <time>2025-07-10T06:23:08.000Z</time>
      </trkpt>
      <trkpt lat="44.57534" lon="5.85516">
        <ele>931.119233</ele>
        <time>2025-07-10T06:23:09.000Z</time>
      </trkpt>
      <trkpt lat="44.57536" lon="5.85514">
        <ele>931.198631</ele>
        <time>2025-07-10T06:23:10.000Z</time>
      </trkpt>
      <trkpt lat="44.57539" lon="5.85513">
        <ele>931.281705</ele>
        <time>2025-07-10T06:23:11.000Z</time>
      </trkpt>
      <trkpt lat="44.57541" lon="5.85511">
        <ele>931.36279</ele>
        <time>2025-07-10T06:23:12.000Z</time>
      </trkpt>
      <trkpt lat="44.57544" lon="5.8551">
        <ele>931.451448</ele>
        <time>2025-07-10T06:23:13.000Z</time>
      </trkpt>
      <trkpt lat="44.57547" lon="5.8551">
        <ele>931.538565</ele>
        <time>2025-07-10T06:23:14.000Z</time>
      </trkpt>
      <trkpt lat="44.57549" lon="5.85509">
        <ele>931.629039</ele>
        <time>2025-07-10T06:23:15.000Z</time>
      </trkpt>
      <trkpt lat="44.57552" lon="5.85509">
        <ele>931.710037</ele>
        <time>2025-07-10T06:23:16.000Z</time>
      </trkpt>
      <trkpt lat="44.57555" lon="5.85509">
        <ele>931.793372</ele>
        <time>2025-07-10T06:23:17.000Z</time>
      </trkpt>
      <trkpt lat="44.57557" lon="5.85509">
        <ele>931.86131</ele>
        <time>2025-07-10T06:23:18.000Z</time>
      </trkpt>
      <trkpt lat="44.57559" lon="5.85509">
        <ele>931.932332</ele>
        <time>2025-07-10T06:23:19.000Z</time>
      </trkpt>
      <trkpt lat="44.57561" lon="5.85509">
        <ele>931.994413</ele>
        <time>2025-07-10T06:23:20.000Z</time>
      </trkpt>
      <trkpt lat="44.57563" lon="5.8551">
        <ele>932.058599</ele>
        <time>2025-07-10T06:23:21.000Z</time>
      </trkpt>
      <trkpt lat="44.57565" lon="5.85511">
        <ele>932.124897</ele>
        <time>2025-07-10T06:23:22.000Z</time>
      </trkpt>
      <trkpt lat="44.57567" lon="5.85513">
        <ele>932.185528</ele>
        <time>2025-07-10T06:23:23.000Z</time>
      </trkpt>
      <trkpt lat="44.57568" lon="5.85515">
        <ele>932.244122</ele>
        <time>2025-07-10T06:23:24.000Z</time>
      </trkpt>
      <trkpt lat="44.5757" lon="5.85517">
        <ele>932.307973</ele>
        <time>2025-07-10T06:23:25.000Z</time>
      </trkpt>
      <trkpt lat="44.57571" lon="5.85519">
        <ele>932.380843</ele>
        <time>2025-07-10T06:23:26.000Z</time>
      </trkpt>
      <trkpt lat="44.57573" lon="5.85521">
        <ele>932.45104</ele>
        <time>2025-07-10T06:23:27.000Z</time>
      </trkpt>
      <trkpt lat="44.57574" lon="5.85524">
        <ele>932.5196</ele>
        <time>2025-07-10T06:23:28.000Z</time>
      </trkpt>
      <trkpt lat="44.57576" lon="5.85526">
        <ele>932.597193</ele>
        <time>2025-07-10T06:23:29.000Z</time>
      </trkpt>
      <trkpt lat="44.57578" lon="5.85529">
        <ele>932.667874</ele>
        <time>2025-07-10T06:23:30.000Z</time>
      </trkpt>
      <trkpt lat="44.57579" lon="5.85531">
        <ele>932.742287</ele>
        <time>2025-07-10T06:23:31.000Z</time>
      </trkpt>
      <trkpt lat="44.57581" lon="5.85534">
        <ele>932.821206</ele>
        <time>2025-07-10T06:23:32.000Z</time>
      </trkpt>
      <trkpt lat="44.57583" lon="5.85537">
        <ele>932.909463</ele>
        <time>2025-07-10T06:23:33.000Z</time>
      </trkpt>
      <trkpt lat="44.57585" lon="5.8554">
        <ele>932.999375</ele>
        <time>2025-07-10T06:23:34.000Z</time>
      </trkpt>
      <trkpt lat="44.57587" lon="5.85543">
        <ele>933.097152</ele>
        <time>2025-07-10T06:23:35.000Z</time>
      </trkpt>
      <trkpt lat="44.57589" lon="5.85546">
        <ele>933.192812</ele>
        <time>2025-07-10T06:23:36.000Z</time>
      </trkpt>
      <trkpt lat="44.57591" lon="5.8555">
        <ele>933.2901</ele>
        <time>2025-07-10T06:23:37.000Z</time>
      </trkpt>
      <trkpt lat="44.57593" lon="5.85552">
        <ele>933.375121</ele>
        <time>2025-07-10T06:23:38.000Z</time>
      </trkpt>
      <trkpt lat="44.57595" lon="5.85555">
        <ele>933.454833</ele>
        <time>2025-07-10T06:23:39.000Z</time>
      </trkpt>
      <trkpt lat="44.57597" lon="5.85558">
        <ele>933.535479</ele>
        <time>2025-07-10T06:23:40.000Z</time>
      </trkpt>
      <trkpt lat="44.57598" lon="5.85561">
        <ele>933.620047</ele>
        <time>2025-07-10T06:23:41.000Z</time>
      </trkpt>
      <trkpt lat="44.576" lon="5.85563">
        <ele>933.7027</ele>
        <time>2025-07-10T06:23:42.000Z</time>
      </trkpt>
      <trkpt lat="44.57603" lon="5.85566">
        <ele>933.796266</ele>
        <time>2025-07-10T06:23:43.000Z</time>
      </trkpt>
      <trkpt lat="44.57605" lon="5.85568">
        <ele>933.888521</ele>
        <time>2025-07-10T06:23:44.000Z</time>
      </trkpt>
      <trkpt lat="44.57608" lon="5.85569">
        <ele>933.970068</ele>
        <time>2025-07-10T06:23:45.000Z</time>
      </trkpt>
      <trkpt lat="44.5761" lon="5.85569">
        <ele>934.053403</ele>
        <time>2025-07-10T06:23:46.000Z</time>
      </trkpt>
      <trkpt lat="44.57613" lon="5.85569">
        <ele>934.144224</ele>
        <time>2025-07-10T06:23:47.000Z</time>
      </trkpt>
      <trkpt lat="44.57616" lon="5.85567">
        <ele>934.235556</ele>
        <time>2025-07-10T06:23:48.000Z</time>
      </trkpt>
      <trkpt lat="44.57619" lon="5.85565">
        <ele>934.336812</ele>
        <time>2025-07-10T06:23:49.000Z</time>
      </trkpt>
      <trkpt lat="44.57621" lon="5.85562">
        <ele>934.434078</ele>
        <time>2025-07-10T06:23:50.000Z</time>
      </trkpt>
      <trkpt lat="44.57624" lon="5.85559">
        <ele>934.527645</ele>
        <time>2025-07-10T06:23:51.000Z</time>
      </trkpt>
      <trkpt lat="44.57626" lon="5.85557">
        <ele>934.627462</ele>
        <time>2025-07-10T06:23:52.000Z</time>
      </trkpt>
      <trkpt lat="44.57629" lon="5.85554">
        <ele>934.729955</ele>
        <time>2025-07-10T06:23:53.000Z</time>
      </trkpt>
      <trkpt lat="44.57631" lon="5.85551">
        <ele>934.810938</ele>
        <time>2025-07-10T06:23:54.000Z</time>
      </trkpt>
      <trkpt lat="44.57634" lon="5.85548">
        <ele>934.878489</ele>
        <time>2025-07-10T06:23:55.000Z</time>
      </trkpt>
      <trkpt lat="44.57637" lon="5.85546">
        <ele>934.948627</ele>
        <time>2025-07-10T06:23:56.000Z</time>
      </trkpt>
      <trkpt lat="44.57639" lon="5.85543">
        <ele>935.018063</ele>
        <time>2025-07-10T06:23:57.000Z</time>
      </trkpt>
      <trkpt lat="44.57642" lon="5.8554">
        <ele>935.086455</ele>
        <time>2025-07-10T06:23:58.000Z</time>
      </trkpt>
      <trkpt lat="44.57645" lon="5.85537">
        <ele>935.157381</ele>
        <time>2025-07-10T06:23:59.000Z</time>
      </trkpt>
      <trkpt lat="44.57648" lon="5.85534">
        <ele>935.227464</ele>
        <time>2025-07-10T06:24:00.000Z</time>
      </trkpt>
      <trkpt lat="44.57651" lon="5.85532">
        <ele>935.297675</ele>
        <time>2025-07-10T06:24:01.000Z</time>
      </trkpt>
      <trkpt lat="44.57653" lon="5.85529">
        <ele>935.365226</ele>
        <time>2025-07-10T06:24:02.000Z</time>
      </trkpt>
      <trkpt lat="44.57656" lon="5.85526">
        <ele>935.436151</ele>
        <time>2025-07-10T06:24:03.000Z</time>
      </trkpt>
      <trkpt lat="44.57659" lon="5.85524">
        <ele>935.505413</ele>
        <time>2025-07-10T06:24:04.000Z</time>
      </trkpt>
      <trkpt lat="44.57662" lon="5.85521">
        <ele>935.575624</ele>
        <time>2025-07-10T06:24:05.000Z</time>
      </trkpt>
      <trkpt lat="44.57665" lon="5.85519">
        <ele>935.649146</ele>
        <time>2025-07-10T06:24:06.000Z</time>
      </trkpt>
      <trkpt lat="44.57668" lon="5.85516">
        <ele>935.725999</ele>
        <time>2025-07-10T06:24:07.000Z</time>
      </trkpt>
      <trkpt lat="44.57671" lon="5.85512">
        <ele>935.802853</ele>
        <time>2025-07-10T06:24:08.000Z</time>
      </trkpt>
      <trkpt lat="44.57674" lon="5.8551">
        <ele>935.881435</ele>
        <time>2025-07-10T06:24:09.000Z</time>
      </trkpt>
      <trkpt lat="44.57677" lon="5.85507">
        <ele>935.960238</ele>
        <time>2025-07-10T06:24:10.000Z</time>
      </trkpt>
      <trkpt lat="44.57681" lon="5.85504">
        <ele>936.040561</ele>
        <time>2025-07-10T06:24:11.000Z</time>
      </trkpt>
      <trkpt lat="44.57684" lon="5.85501">
        <ele>936.124151</ele>
        <time>2025-07-10T06:24:12.000Z</time>
      </trkpt>
      <trkpt lat="44.57687" lon="5.85498">
        <ele>936.203881</ele>
        <time>2025-07-10T06:24:13.000Z</time>
      </trkpt>
      <trkpt lat="44.57691" lon="5.85496">
        <ele>936.284887</ele>
        <time>2025-07-10T06:24:14.000Z</time>
      </trkpt>
      <trkpt lat="44.57695" lon="5.85494">
        <ele>936.370262</ele>
        <time>2025-07-10T06:24:15.000Z</time>
      </trkpt>
      <trkpt lat="44.57698" lon="5.85491">
        <ele>936.453788</ele>
        <time>2025-07-10T06:24:16.000Z</time>
      </trkpt>
      <trkpt lat="44.57702" lon="5.85489">
        <ele>936.535485</ele>
        <time>2025-07-10T06:24:17.000Z</time>
      </trkpt>
      <trkpt lat="44.57706" lon="5.85486">
        <ele>936.61901</ele>
        <time>2025-07-10T06:24:18.000Z</time>
      </trkpt>
      <trkpt lat="44.57709" lon="5.85483">
        <ele>936.704376</ele>
        <time>2025-07-10T06:24:19.000Z</time>
      </trkpt>
      <trkpt lat="44.57713" lon="5.85481">
        <ele>936.788631</ele>
        <time>2025-07-10T06:24:20.000Z</time>
      </trkpt>
      <trkpt lat="44.57717" lon="5.85479">
        <ele>936.869651</ele>
        <time>2025-07-10T06:24:21.000Z</time>
      </trkpt>
      <trkpt lat="44.5772" lon="5.85476">
        <ele>936.948166</ele>
        <time>2025-07-10T06:24:22.000Z</time>
      </trkpt>
      <trkpt lat="44.57723" lon="5.85474">
        <ele>937.026681</ele>
        <time>2025-07-10T06:24:23.000Z</time>
      </trkpt>
      <trkpt lat="44.57727" lon="5.85472">
        <ele>937.104547</ele>
        <time>2025-07-10T06:24:24.000Z</time>
      </trkpt>
      <trkpt lat="44.5773" lon="5.8547">
        <ele>937.181786</ele>
        <time>2025-07-10T06:24:25.000Z</time>
      </trkpt>
      <trkpt lat="44.57734" lon="5.85467">
        <ele>937.260315</ele>
        <time>2025-07-10T06:24:26.000Z</time>
      </trkpt>
      <trkpt lat="44.57737" lon="5.85465">
        <ele>937.335686</ele>
        <time>2025-07-10T06:24:27.000Z</time>
      </trkpt>
      <trkpt lat="44.5774" lon="5.85463">
        <ele>937.413552</ele>
        <time>2025-07-10T06:24:28.000Z</time>
      </trkpt>
      <trkpt lat="44.57744" lon="5.85461">
        <ele>937.490791</ele>
        <time>2025-07-10T06:24:29.000Z</time>
      </trkpt>
      <trkpt lat="44.57747" lon="5.85459">
        <ele>937.567427</ele>
        <time>2025-07-10T06:24:30.000Z</time>
      </trkpt>
      <trkpt lat="44.57751" lon="5.85456">
        <ele>937.644667</ele>
        <time>2025-07-10T06:24:31.000Z</time>
      </trkpt>
      <trkpt lat="44.57754" lon="5.85454">
        <ele>937.716934</ele>
        <time>2025-07-10T06:24:32.000Z</time>
      </trkpt>
      <trkpt lat="44.57757" lon="5.85452">
        <ele>937.79357</ele>
        <time>2025-07-10T06:24:33.000Z</time>
      </trkpt>
      <trkpt lat="44.5776" lon="5.8545">
        <ele>937.863958</ele>
        <time>2025-07-10T06:24:34.000Z</time>
      </trkpt>
      <trkpt lat="44.57763" lon="5.85448">
        <ele>937.934973</ele>
        <time>2025-07-10T06:24:35.000Z</time>
      </trkpt>
      <trkpt lat="44.57766" lon="5.85446">
        <ele>938.006638</ele>
        <time>2025-07-10T06:24:36.000Z</time>
      </trkpt>
      <trkpt lat="44.5777" lon="5.85444">
        <ele>938.076425</ele>
        <time>2025-07-10T06:24:37.000Z</time>
      </trkpt>
      <trkpt lat="44.57773" lon="5.85442">
        <ele>938.144943</ele>
        <time>2025-07-10T06:24:38.000Z</time>
      </trkpt>
      <trkpt lat="44.57776" lon="5.8544">
        <ele>938.212845</ele>
        <time>2025-07-10T06:24:39.000Z</time>
      </trkpt>
      <trkpt lat="44.57779" lon="5.85438">
        <ele>938.283233</ele>
        <time>2025-07-10T06:24:40.000Z</time>
      </trkpt>
      <trkpt lat="44.57782" lon="5.85436">
        <ele>938.354915</ele>
        <time>2025-07-10T06:24:41.000Z</time>
      </trkpt>
      <trkpt lat="44.57785" lon="5.85435">
        <ele>938.424128</ele>
        <time>2025-07-10T06:24:42.000Z</time>
      </trkpt>
      <trkpt lat="44.57788" lon="5.85433">
        <ele>938.499911</ele>
        <time>2025-07-10T06:24:43.000Z</time>
      </trkpt>
      <trkpt lat="44.57791" lon="5.85431">
        <ele>938.6123</ele>
        <time>2025-07-10T06:24:44.000Z</time>
      </trkpt>
      <trkpt lat="44.57794" lon="5.85429">
        <ele>938.729878</ele>
        <time>2025-07-10T06:24:45.000Z</time>
      </trkpt>
      <trkpt lat="44.57798" lon="5.85427">
        <ele>938.846539</ele>
        <time>2025-07-10T06:24:46.000Z</time>
      </trkpt>
      <trkpt lat="44.57801" lon="5.85425">
        <ele>938.961008</ele>
        <time>2025-07-10T06:24:47.000Z</time>
      </trkpt>
      <trkpt lat="44.57804" lon="5.85423">
        <ele>939.078587</ele>
        <time>2025-07-10T06:24:48.000Z</time>
      </trkpt>
      <trkpt lat="44.57807" lon="5.85421">
        <ele>939.191214</ele>
        <time>2025-07-10T06:24:49.000Z</time>
      </trkpt>
      <trkpt lat="44.5781" lon="5.8542">
        <ele>939.302986</ele>
        <time>2025-07-10T06:24:50.000Z</time>
      </trkpt>
      <trkpt lat="44.57813" lon="5.85418">
        <ele>939.417155</ele>
        <time>2025-07-10T06:24:51.000Z</time>
      </trkpt>
      <trkpt lat="44.57816" lon="5.85417">
        <ele>939.523405</ele>
        <time>2025-07-10T06:24:52.000Z</time>
      </trkpt>
      <trkpt lat="44.57819" lon="5.85415">
        <ele>939.634368</ele>
        <time>2025-07-10T06:24:53.000Z</time>
      </trkpt>
      <trkpt lat="44.57822" lon="5.85414">
        <ele>939.74201</ele>
        <time>2025-07-10T06:24:54.000Z</time>
      </trkpt>
      <trkpt lat="44.57826" lon="5.85414">
        <ele>939.855338</ele>
        <time>2025-07-10T06:24:55.000Z</time>
      </trkpt>
      <trkpt lat="44.57829" lon="5.85413">
        <ele>939.961238</ele>
        <time>2025-07-10T06:24:56.000Z</time>
      </trkpt>
      <trkpt lat="44.57832" lon="5.85412">
        <ele>940.067494</ele>
        <time>2025-07-10T06:24:57.000Z</time>
      </trkpt>
      <trkpt lat="44.57835" lon="5.85412">
        <ele>940.17749</ele>
        <time>2025-07-10T06:24:58.000Z</time>
      </trkpt>
      <trkpt lat="44.57838" lon="5.85411">
        <ele>940.283745</ele>
        <time>2025-07-10T06:24:59.000Z</time>
      </trkpt>
      <trkpt lat="44.57841" lon="5.8541">
        <ele>940.389095</ele>
        <time>2025-07-10T06:25:00.000Z</time>
      </trkpt>
      <trkpt lat="44.57844" lon="5.8541">
        <ele>940.494445</ele>
        <time>2025-07-10T06:25:01.000Z</time>
      </trkpt>
      <trkpt lat="44.57848" lon="5.8541">
        <ele>940.609606</ele>
        <time>2025-07-10T06:25:02.000Z</time>
      </trkpt>
      <trkpt lat="44.57851" lon="5.8541">
        <ele>940.721308</ele>
        <time>2025-07-10T06:25:03.000Z</time>
      </trkpt>
      <trkpt lat="44.57854" lon="5.8541">
        <ele>940.829707</ele>
        <time>2025-07-10T06:25:04.000Z</time>
      </trkpt>
      <trkpt lat="44.57858" lon="5.8541">
        <ele>940.941383</ele>
        <time>2025-07-10T06:25:05.000Z</time>
      </trkpt>
      <trkpt lat="44.57861" lon="5.8541">
        <ele>941.042935</ele>
        <time>2025-07-10T06:25:06.000Z</time>
      </trkpt>
      <trkpt lat="44.57864" lon="5.8541">
        <ele>941.148285</ele>
        <time>2025-07-10T06:25:07.000Z</time>
      </trkpt>
      <trkpt lat="44.57867" lon="5.85411">
        <ele>941.250265</ele>
        <time>2025-07-10T06:25:08.000Z</time>
      </trkpt>
      <trkpt lat="44.5787" lon="5.85411">
        <ele>941.362874</ele>
        <time>2025-07-10T06:25:09.000Z</time>
      </trkpt>
      <trkpt lat="44.57873" lon="5.85412">
        <ele>941.475817</ele>
        <time>2025-07-10T06:25:10.000Z</time>
      </trkpt>
      <trkpt lat="44.57877" lon="5.85413">
        <ele>941.584778</ele>
        <time>2025-07-10T06:25:11.000Z</time>
      </trkpt>
      <trkpt lat="44.5788" lon="5.85414">
        <ele>941.691905</ele>
        <time>2025-07-10T06:25:12.000Z</time>
      </trkpt>
      <trkpt lat="44.57883" lon="5.85414">
        <ele>941.799032</ele>
        <time>2025-07-10T06:25:13.000Z</time>
      </trkpt>
      <trkpt lat="44.57886" lon="5.85416">
        <ele>941.907239</ele>
        <time>2025-07-10T06:25:14.000Z</time>
      </trkpt>
      <trkpt lat="44.57889" lon="5.85417">
        <ele>942.008295</ele>
        <time>2025-07-10T06:25:15.000Z</time>
      </trkpt>
      <trkpt lat="44.57892" lon="5.85418">
        <ele>942.110608</ele>
        <time>2025-07-10T06:25:16.000Z</time>
      </trkpt>
      <trkpt lat="44.57895" lon="5.85419">
        <ele>942.216172</ele>
        <time>2025-07-10T06:25:17.000Z</time>
      </trkpt>
      <trkpt lat="44.57898" lon="5.8542">
        <ele>942.326374</ele>
        <time>2025-07-10T06:25:18.000Z</time>
      </trkpt>
      <trkpt lat="44.57901" lon="5.85422">
        <ele>942.438146</ele>
        <time>2025-07-10T06:25:19.000Z</time>
      </trkpt>
      <trkpt lat="44.57904" lon="5.85424">
        <ele>942.548553</ele>
        <time>2025-07-10T06:25:20.000Z</time>
      </trkpt>
      <trkpt lat="44.57907" lon="5.85426">
        <ele>942.655855</ele>
        <time>2025-07-10T06:25:21.000Z</time>
      </trkpt>
      <trkpt lat="44.5791" lon="5.85427">
        <ele>942.762206</ele>
        <time>2025-07-10T06:25:22.000Z</time>
      </trkpt>
      <trkpt lat="44.57913" lon="5.85429">
        <ele>942.873979</ele>
        <time>2025-07-10T06:25:23.000Z</time>
      </trkpt>
      <trkpt lat="44.57916" lon="5.8543">
        <ele>942.979424</ele>
        <time>2025-07-10T06:25:24.000Z</time>
      </trkpt>
      <trkpt lat="44.57919" lon="5.85432">
        <ele>943.086727</ele>
        <time>2025-07-10T06:25:25.000Z</time>
      </trkpt>
      <trkpt lat="44.57921" lon="5.85434">
        <ele>943.19197</ele>
        <time>2025-07-10T06:25:26.000Z</time>
      </trkpt>
      <trkpt lat="44.57924" lon="5.85436">
        <ele>943.295279</ele>
        <time>2025-07-10T06:25:27.000Z</time>
      </trkpt>
      <trkpt lat="44.57927" lon="5.85438">
        <ele>943.403579</ele>
        <time>2025-07-10T06:25:28.000Z</time>
      </trkpt>
      <trkpt lat="44.5793" lon="5.8544">
        <ele>943.509224</ele>
        <time>2025-07-10T06:25:29.000Z</time>
      </trkpt>
      <trkpt lat="44.57932" lon="5.85442">
        <ele>943.614868</ele>
        <time>2025-07-10T06:25:30.000Z</time>
      </trkpt>
      <trkpt lat="44.57935" lon="5.85445">
        <ele>943.720513</ele>
        <time>2025-07-10T06:25:31.000Z</time>
      </trkpt>
      <trkpt lat="44.57938" lon="5.85447">
        <ele>943.830296</ele>
        <time>2025-07-10T06:25:32.000Z</time>
      </trkpt>
      <trkpt lat="44.57941" lon="5.85449">
        <ele>943.93661</ele>
        <time>2025-07-10T06:25:33.000Z</time>
      </trkpt>
      <trkpt lat="44.57943" lon="5.85451">
        <ele>944.041852</ele>
        <time>2025-07-10T06:25:34.000Z</time>
      </trkpt>
      <trkpt lat="44.57946" lon="5.85453">
        <ele>944.147095</ele>
        <time>2025-07-10T06:25:35.000Z</time>
      </trkpt>
      <trkpt lat="44.57949" lon="5.85455">
        <ele>944.254524</ele>
        <time>2025-07-10T06:25:36.000Z</time>
      </trkpt>
      <trkpt lat="44.57952" lon="5.85457">
        <ele>944.358979</ele>
        <time>2025-07-10T06:25:37.000Z</time>
      </trkpt>
      <trkpt lat="44.57954" lon="5.85459">
        <ele>944.462288</ele>
        <time>2025-07-10T06:25:38.000Z</time>
      </trkpt>
      <trkpt lat="44.57957" lon="5.85461">
        <ele>944.560391</ele>
        <time>2025-07-10T06:25:39.000Z</time>
      </trkpt>
      <trkpt lat="44.5796" lon="5.85463">
        <ele>944.656007</ele>
        <time>2025-07-10T06:25:40.000Z</time>
      </trkpt>
      <trkpt lat="44.57962" lon="5.85465">
        <ele>944.749712</ele>
        <time>2025-07-10T06:25:41.000Z</time>
      </trkpt>
      <trkpt lat="44.57965" lon="5.85466">
        <ele>944.842356</ele>
        <time>2025-07-10T06:25:42.000Z</time>
      </trkpt>
      <trkpt lat="44.57968" lon="5.85468">
        <ele>944.940651</ele>
        <time>2025-07-10T06:25:43.000Z</time>
      </trkpt>
      <trkpt lat="44.5797" lon="5.8547">
        <ele>945.035123</ele>
        <time>2025-07-10T06:25:44.000Z</time>
      </trkpt>
      <trkpt lat="44.57973" lon="5.85472">
        <ele>945.134452</ele>
        <time>2025-07-10T06:25:45.000Z</time>
      </trkpt>
      <trkpt lat="44.57976" lon="5.85474">
        <ele>945.22798</ele>
        <time>2025-07-10T06:25:46.000Z</time>
      </trkpt>
      <trkpt lat="44.57979" lon="5.85475">
        <ele>945.321925</ele>
        <time>2025-07-10T06:25:47.000Z</time>
      </trkpt>
      <trkpt lat="44.57982" lon="5.85476">
        <ele>945.428556</ele>
        <time>2025-07-10T06:25:48.000Z</time>
      </trkpt>
      <trkpt lat="44.57985" lon="5.85478">
        <ele>945.530815</ele>
        <time>2025-07-10T06:25:49.000Z</time>
      </trkpt>
      <trkpt lat="44.57988" lon="5.85479">
        <ele>945.633741</ele>
        <time>2025-07-10T06:25:50.000Z</time>
      </trkpt>
      <trkpt lat="44.57991" lon="5.85481">
        <ele>945.729291</ele>
        <time>2025-07-10T06:25:51.000Z</time>
      </trkpt>
      <trkpt lat="44.57994" lon="5.85482">
        <ele>945.824237</ele>
        <time>2025-07-10T06:25:52.000Z</time>
      </trkpt>
      <trkpt lat="44.57997" lon="5.85483">
        <ele>945.923472</ele>
        <time>2025-07-10T06:25:53.000Z</time>
      </trkpt>
      <trkpt lat="44.58" lon="5.85484">
        <ele>946.019692</ele>
        <time>2025-07-10T06:25:54.000Z</time>
      </trkpt>
      <trkpt lat="44.58003" lon="5.85485">
        <ele>946.116653</ele>
        <time>2025-07-10T06:25:55.000Z</time>
      </trkpt>
      <trkpt lat="44.58006" lon="5.85486">
        <ele>946.21411</ele>
        <time>2025-07-10T06:25:56.000Z</time>
      </trkpt>
      <trkpt lat="44.58009" lon="5.85488">
        <ele>946.318799</ele>
        <time>2025-07-10T06:25:57.000Z</time>
      </trkpt>
      <trkpt lat="44.58012" lon="5.85489">
        <ele>946.418034</ele>
        <time>2025-07-10T06:25:58.000Z</time>
      </trkpt>
      <trkpt lat="44.58015" lon="5.8549">
        <ele>946.513592</ele>
        <time>2025-07-10T06:25:59.000Z</time>
      </trkpt>
      <trkpt lat="44.58018" lon="5.85491">
        <ele>946.607465</ele>
        <time>2025-07-10T06:26:00.000Z</time>
      </trkpt>
      <trkpt lat="44.58021" lon="5.85492">
        <ele>946.706706</ele>
        <time>2025-07-10T06:26:01.000Z</time>
      </trkpt>
      <trkpt lat="44.58024" lon="5.85492">
        <ele>946.808249</ele>
        <time>2025-07-10T06:26:02.000Z</time>
      </trkpt>
      <trkpt lat="44.58027" lon="5.85493">
        <ele>946.904027</ele>
        <time>2025-07-10T06:26:03.000Z</time>
      </trkpt>
      <trkpt lat="44.5803" lon="5.85493">
        <ele>947.003268</ele>
        <time>2025-07-10T06:26:04.000Z</time>
      </trkpt>
      <trkpt lat="44.58033" lon="5.85494">
        <ele>947.099047</ele>
        <time>2025-07-10T06:26:05.000Z</time>
      </trkpt>
      <trkpt lat="44.58036" lon="5.85494">
        <ele>947.197132</ele>
        <time>2025-07-10T06:26:06.000Z</time>
      </trkpt>
      <trkpt lat="44.5804" lon="5.85494">
        <ele>947.298374</ele>
        <time>2025-07-10T06:26:07.000Z</time>
      </trkpt>
      <trkpt lat="44.58043" lon="5.85495">
        <ele>947.403283</ele>
        <time>2025-07-10T06:26:08.000Z</time>
      </trkpt>
      <trkpt lat="44.58046" lon="5.85495">
        <ele>947.505324</ele>
        <time>2025-07-10T06:26:09.000Z</time>
      </trkpt>
      <trkpt lat="44.58049" lon="5.85496">
        <ele>947.604947</ele>
        <time>2025-07-10T06:26:10.000Z</time>
      </trkpt>
      <trkpt lat="44.58052" lon="5.85497">
        <ele>947.710121</ele>
        <time>2025-07-10T06:26:11.000Z</time>
      </trkpt>
      <trkpt lat="44.58055" lon="5.85498">
        <ele>947.806243</ele>
        <time>2025-07-10T06:26:12.000Z</time>
      </trkpt>
      <trkpt lat="44.58058" lon="5.85498">
        <ele>947.902759</ele>
        <time>2025-07-10T06:26:13.000Z</time>
      </trkpt>
      <trkpt lat="44.58061" lon="5.85499">
        <ele>947.998538</ele>
        <time>2025-07-10T06:26:14.000Z</time>
      </trkpt>
      <trkpt lat="44.58064" lon="5.855">
        <ele>948.094316</ele>
        <time>2025-07-10T06:26:15.000Z</time>
      </trkpt>
      <trkpt lat="44.58067" lon="5.855">
        <ele>948.189803</ele>
        <time>2025-07-10T06:26:16.000Z</time>
      </trkpt>
      <trkpt lat="44.5807" lon="5.85501">
        <ele>948.285581</ele>
        <time>2025-07-10T06:26:17.000Z</time>
      </trkpt>
      <trkpt lat="44.58074" lon="5.85501">
        <ele>948.383795</ele>
        <time>2025-07-10T06:26:18.000Z</time>
      </trkpt>
      <trkpt lat="44.58076" lon="5.85502">
        <ele>948.476446</ele>
        <time>2025-07-10T06:26:19.000Z</time>
      </trkpt>
      <trkpt lat="44.5808" lon="5.85502">
        <ele>948.575072</ele>
        <time>2025-07-10T06:26:20.000Z</time>
      </trkpt>
      <trkpt lat="44.58083" lon="5.85502">
        <ele>948.67032</ele>
        <time>2025-07-10T06:26:21.000Z</time>
      </trkpt>
      <trkpt lat="44.58086" lon="5.85503">
        <ele>948.768946</ele>
        <time>2025-07-10T06:26:22.000Z</time>
      </trkpt>
      <trkpt lat="44.58089" lon="5.85504">
        <ele>948.865462</ele>
        <time>2025-07-10T06:26:23.000Z</time>
      </trkpt>
      <trkpt lat="44.58092" lon="5.85504">
        <ele>948.961584</ele>
        <time>2025-07-10T06:26:24.000Z</time>
      </trkpt>
      <trkpt lat="44.58095" lon="5.85505">
        <ele>949.056645</ele>
        <time>2025-07-10T06:26:25.000Z</time>
      </trkpt>
      <trkpt lat="44.58098" lon="5.85505">
        <ele>949.152132</ele>
        <time>2025-07-10T06:26:26.000Z</time>
      </trkpt>
      <trkpt lat="44.58101" lon="5.85506">
        <ele>949.250758</ele>
        <time>2025-07-10T06:26:27.000Z</time>
      </trkpt>
      <trkpt lat="44.58104" lon="5.85506">
        <ele>949.34688</ele>
        <time>2025-07-10T06:26:28.000Z</time>
      </trkpt>
      <trkpt lat="44.58107" lon="5.85507">
        <ele>949.438789</ele>
        <time>2025-07-10T06:26:29.000Z</time>
      </trkpt>
      <trkpt lat="44.5811" lon="5.85508">
        <ele>949.535751</ele>
        <time>2025-07-10T06:26:30.000Z</time>
      </trkpt>
      <trkpt lat="44.58113" lon="5.85508">
        <ele>949.630812</ele>
        <time>2025-07-10T06:26:31.000Z</time>
      </trkpt>
      <trkpt lat="44.58116" lon="5.85508">
        <ele>949.72606</ele>
        <time>2025-07-10T06:26:32.000Z</time>
      </trkpt>
      <trkpt lat="44.58119" lon="5.85509">
        <ele>949.821838</ele>
        <time>2025-07-10T06:26:33.000Z</time>
      </trkpt>
      <trkpt lat="44.58122" lon="5.8551">
        <ele>949.918354</ele>
        <time>2025-07-10T06:26:34.000Z</time>
      </trkpt>
      <trkpt lat="44.58125" lon="5.85511">
        <ele>950.012739</ele>
        <time>2025-07-10T06:26:35.000Z</time>
      </trkpt>
      <trkpt lat="44.58128" lon="5.85511">
        <ele>950.10886</ele>
        <time>2025-07-10T06:26:36.000Z</time>
      </trkpt>
      <trkpt lat="44.5813" lon="5.85512">
        <ele>950.201866</ele>
        <time>2025-07-10T06:26:37.000Z</time>
      </trkpt>
      <trkpt lat="44.58134" lon="5.85513">
        <ele>950.299202</ele>
        <time>2025-07-10T06:26:38.000Z</time>
      </trkpt>
      <trkpt lat="44.58137" lon="5.85513">
        <ele>950.399041</ele>
        <time>2025-07-10T06:26:39.000Z</time>
      </trkpt>
      <trkpt lat="44.5814" lon="5.85514">
        <ele>950.498206</ele>
        <time>2025-07-10T06:26:40.000Z</time>
      </trkpt>
      <trkpt lat="44.58143" lon="5.85514">
        <ele>950.594053</ele>
        <time>2025-07-10T06:26:41.000Z</time>
      </trkpt>
      <trkpt lat="44.58146" lon="5.85515">
        <ele>950.696264</ele>
        <time>2025-07-10T06:26:42.000Z</time>
      </trkpt>
      <trkpt lat="44.5815" lon="5.85516">
        <ele>950.795742</ele>
        <time>2025-07-10T06:26:43.000Z</time>
      </trkpt>
      <trkpt lat="44.58153" lon="5.85516">
        <ele>950.897953</ele>
        <time>2025-07-10T06:26:44.000Z</time>
      </trkpt>
      <trkpt lat="44.58156" lon="5.85517">
        <ele>950.997118</ele>
        <time>2025-07-10T06:26:45.000Z</time>
      </trkpt>
      <trkpt lat="44.58159" lon="5.85518">
        <ele>951.096597</ele>
        <time>2025-07-10T06:26:46.000Z</time>
      </trkpt>
      <trkpt lat="44.58162" lon="5.85518">
        <ele>951.193041</ele>
        <time>2025-07-10T06:26:47.000Z</time>
      </trkpt>
      <trkpt lat="44.58166" lon="5.85519">
        <ele>951.292206</ele>
        <time>2025-07-10T06:26:48.000Z</time>
      </trkpt>
      <trkpt lat="44.58169" lon="5.8552">
        <ele>951.388651</ele>
        <time>2025-07-10T06:26:49.000Z</time>
      </trkpt>
      <trkpt lat="44.58172" lon="5.8552">
        <ele>951.488129</ele>
        <time>2025-07-10T06:26:50.000Z</time>
      </trkpt>
      <trkpt lat="44.58175" lon="5.85521">
        <ele>951.583977</ele>
        <time>2025-07-10T06:26:51.000Z</time>
      </trkpt>
      <trkpt lat="44.58178" lon="5.85521">
        <ele>951.67654</ele>
        <time>2025-07-10T06:26:52.000Z</time>
      </trkpt>
      <trkpt lat="44.58181" lon="5.85522">
        <ele>951.76962</ele>
        <time>2025-07-10T06:26:53.000Z</time>
      </trkpt>
      <trkpt lat="44.58184" lon="5.85523">
        <ele>951.863033</ele>
        <time>2025-07-10T06:26:54.000Z</time>
      </trkpt>
      <trkpt lat="44.58187" lon="5.85523">
        <ele>951.955416</ele>
        <time>2025-07-10T06:26:55.000Z</time>
      </trkpt>
      <trkpt lat="44.5819" lon="5.85523">
        <ele>952.050863</ele>
        <time>2025-07-10T06:26:56.000Z</time>
      </trkpt>
      <trkpt lat="44.58193" lon="5.85524">
        <ele>952.146984</ele>
        <time>2025-07-10T06:26:57.000Z</time>
      </trkpt>
      <trkpt lat="44.58196" lon="5.85525">
        <ele>952.24422</ele>
        <time>2025-07-10T06:26:58.000Z</time>
      </trkpt>
      <trkpt lat="44.58199" lon="5.85525">
        <ele>952.343385</ele>
        <time>2025-07-10T06:26:59.000Z</time>
      </trkpt>
      <trkpt lat="44.58203" lon="5.85526">
        <ele>952.439232</ele>
        <time>2025-07-10T06:27:00.000Z</time>
      </trkpt>
      <trkpt lat="44.58206" lon="5.85526">
        <ele>952.535677</ele>
        <time>2025-07-10T06:27:01.000Z</time>
      </trkpt>
      <trkpt lat="44.58209" lon="5.85527">
        <ele>952.632493</ele>
        <time>2025-07-10T06:27:02.000Z</time>
      </trkpt>
      <trkpt lat="44.58212" lon="5.85528">
        <ele>952.731658</ele>
        <time>2025-07-10T06:27:03.000Z</time>
      </trkpt>
      <trkpt lat="44.58215" lon="5.85528">
        <ele>952.830823</ele>
        <time>2025-07-10T06:27:04.000Z</time>
      </trkpt>
      <trkpt lat="44.58218" lon="5.85529">
        <ele>952.929722</ele>
        <time>2025-07-10T06:27:05.000Z</time>
      </trkpt>
      <trkpt lat="44.58221" lon="5.85529">
        <ele>953.02557</ele>
        <time>2025-07-10T06:27:06.000Z</time>
      </trkpt>
      <trkpt lat="44.58224" lon="5.8553">
        <ele>953.119366</ele>
        <time>2025-07-10T06:27:07.000Z</time>
      </trkpt>
      <trkpt lat="44.58228" lon="5.85531">
        <ele>953.219205</ele>
        <time>2025-07-10T06:27:08.000Z</time>
      </trkpt>
      <trkpt lat="44.58231" lon="5.85532">
        <ele>953.315052</ele>
        <time>2025-07-10T06:27:09.000Z</time>
      </trkpt>
      <trkpt lat="44.58234" lon="5.85532">
        <ele>953.410899</ele>
        <time>2025-07-10T06:27:10.000Z</time>
      </trkpt>
      <trkpt lat="44.58237" lon="5.85533">
        <ele>953.509799</ele>
        <time>2025-07-10T06:27:11.000Z</time>
      </trkpt>
      <trkpt lat="44.5824" lon="5.85533">
        <ele>953.605421</ele>
        <time>2025-07-10T06:27:12.000Z</time>
      </trkpt>
      <trkpt lat="44.58243" lon="5.85533">
        <ele>953.697985</ele>
        <time>2025-07-10T06:27:13.000Z</time>
      </trkpt>
      <trkpt lat="44.58246" lon="5.85534">
        <ele>953.791064</ele>
        <time>2025-07-10T06:27:14.000Z</time>
      </trkpt>
      <trkpt lat="44.58249" lon="5.85535">
        <ele>953.8883</ele>
        <time>2025-07-10T06:27:15.000Z</time>
      </trkpt>
      <trkpt lat="44.58252" lon="5.85536">
        <ele>953.981713</ele>
        <time>2025-07-10T06:27:16.000Z</time>
      </trkpt>
      <trkpt lat="44.58255" lon="5.85536">
        <ele>954.080878</ele>
        <time>2025-07-10T06:27:17.000Z</time>
      </trkpt>
      <trkpt lat="44.58258" lon="5.85537">
        <ele>954.173442</ele>
        <time>2025-07-10T06:27:18.000Z</time>
      </trkpt>
      <trkpt lat="44.58261" lon="5.85537">
        <ele>954.265824</ele>
        <time>2025-07-10T06:27:19.000Z</time>
      </trkpt>
      <trkpt lat="44.58265" lon="5.85537">
        <ele>954.361447</ele>
        <time>2025-07-10T06:27:20.000Z</time>
      </trkpt>
      <trkpt lat="44.58268" lon="5.85538">
        <ele>954.457294</ele>
        <time>2025-07-10T06:27:21.000Z</time>
      </trkpt>
      <trkpt lat="44.58271" lon="5.85539">
        <ele>954.55411</ele>
        <time>2025-07-10T06:27:22.000Z</time>
      </trkpt>
      <trkpt lat="44.58274" lon="5.85539">
        <ele>954.654355</ele>
        <time>2025-07-10T06:27:23.000Z</time>
      </trkpt>
      <trkpt lat="44.58277" lon="5.8554">
        <ele>954.744102</ele>
        <time>2025-07-10T06:27:24.000Z</time>
      </trkpt>
      <trkpt lat="44.5828" lon="5.85541">
        <ele>954.840223</ele>
        <time>2025-07-10T06:27:25.000Z</time>
      </trkpt>
      <trkpt lat="44.58283" lon="5.85541">
        <ele>954.937039</ele>
        <time>2025-07-10T06:27:26.000Z</time>
      </trkpt>
      <trkpt lat="44.58286" lon="5.85542">
        <ele>955.033855</ele>
        <time>2025-07-10T06:27:27.000Z</time>
      </trkpt>
      <trkpt lat="44.58289" lon="5.85543">
        <ele>955.127269</ele>
        <time>2025-07-10T06:27:28.000Z</time>
      </trkpt>
      <trkpt lat="44.58292" lon="5.85543">
        <ele>955.222715</ele>
        <time>2025-07-10T06:27:29.000Z</time>
      </trkpt>
      <trkpt lat="44.58295" lon="5.85543">
        <ele>955.318037</ele>
        <time>2025-07-10T06:27:30.000Z</time>
      </trkpt>
      <trkpt lat="44.58298" lon="5.85543">
        <ele>955.413283</ele>
        <time>2025-07-10T06:27:31.000Z</time>
      </trkpt>
      <trkpt lat="44.58302" lon="5.85544">
        <ele>955.511964</ele>
        <time>2025-07-10T06:27:32.000Z</time>
      </trkpt>
      <trkpt lat="44.58305" lon="5.85544">
        <ele>955.610354</ele>
        <time>2025-07-10T06:27:33.000Z</time>
      </trkpt>
      <trkpt lat="44.58308" lon="5.85545">
        <ele>955.706799</ele>
        <time>2025-07-10T06:27:34.000Z</time>
      </trkpt>
      <trkpt lat="44.58311" lon="5.85545">
        <ele>955.801954</ele>
        <time>2025-07-10T06:27:35.000Z</time>
      </trkpt>
      <trkpt lat="44.58314" lon="5.85546">
        <ele>955.907462</ele>
        <time>2025-07-10T06:27:36.000Z</time>
      </trkpt>
      <trkpt lat="44.58317" lon="5.85546">
        <ele>956.016183</ele>
        <time>2025-07-10T06:27:37.000Z</time>
      </trkpt>
      <trkpt lat="44.5832" lon="5.85547">
        <ele>956.124705</ele>
        <time>2025-07-10T06:27:38.000Z</time>
      </trkpt>
      <trkpt lat="44.58323" lon="5.85547">
        <ele>956.233226</ele>
        <time>2025-07-10T06:27:39.000Z</time>
      </trkpt>
      <trkpt lat="44.58326" lon="5.85548">
        <ele>956.342515</ele>
        <time>2025-07-10T06:27:40.000Z</time>
      </trkpt>
      <trkpt lat="44.58329" lon="5.85548">
        <ele>956.452171</ele>
        <time>2025-07-10T06:27:41.000Z</time>
      </trkpt>
      <trkpt lat="44.58332" lon="5.85549">
        <ele>956.557679</ele>
        <time>2025-07-10T06:27:42.000Z</time>
      </trkpt>
      <trkpt lat="44.58335" lon="5.8555">
        <ele>956.664324</ele>
        <time>2025-07-10T06:27:43.000Z</time>
      </trkpt>
      <trkpt lat="44.58338" lon="5.8555">
        <ele>956.770154</ele>
        <time>2025-07-10T06:27:44.000Z</time>
      </trkpt>
      <trkpt lat="44.58341" lon="5.85551">
        <ele>956.872528</ele>
        <time>2025-07-10T06:27:45.000Z</time>
      </trkpt>
      <trkpt lat="44.58344" lon="5.85551">
        <ele>956.978358</ele>
        <time>2025-07-10T06:27:46.000Z</time>
      </trkpt>
      <trkpt lat="44.58347" lon="5.85552">
        <ele>957.083866</ele>
        <time>2025-07-10T06:27:47.000Z</time>
      </trkpt>
      <trkpt lat="44.58351" lon="5.85553">
        <ele>957.200821</ele>
        <time>2025-07-10T06:27:48.000Z</time>
      </trkpt>
      <trkpt lat="44.58354" lon="5.85553">
        <ele>957.310477</ele>
        <time>2025-07-10T06:27:49.000Z</time>
      </trkpt>
      <trkpt lat="44.58357" lon="5.85554">
        <ele>957.419765</ele>
        <time>2025-07-10T06:27:50.000Z</time>
      </trkpt>
      <trkpt lat="44.5836" lon="5.85554">
        <ele>957.531633</ele>
        <time>2025-07-10T06:27:51.000Z</time>
      </trkpt>
      <trkpt lat="44.58363" lon="5.85554">
        <ele>957.640155</ele>
        <time>2025-07-10T06:27:52.000Z</time>
      </trkpt>
      <trkpt lat="44.58366" lon="5.85555">
        <ele>957.745663</ele>
        <time>2025-07-10T06:27:53.000Z</time>
      </trkpt>
      <trkpt lat="44.58369" lon="5.85556">
        <ele>957.854951</ele>
        <time>2025-07-10T06:27:54.000Z</time>
      </trkpt>
      <trkpt lat="44.58372" lon="5.85556">
        <ele>957.956992</ele>
        <time>2025-07-10T06:27:55.000Z</time>
      </trkpt>
      <trkpt lat="44.58375" lon="5.85557">
        <ele>958.065969</ele>
        <time>2025-07-10T06:27:56.000Z</time>
      </trkpt>
      <trkpt lat="44.58378" lon="5.85557">
        <ele>958.171477</ele>
        <time>2025-07-10T06:27:57.000Z</time>
      </trkpt>
      <trkpt lat="44.58381" lon="5.85558">
        <ele>958.276985</ele>
        <time>2025-07-10T06:27:58.000Z</time>
      </trkpt>
      <trkpt lat="44.58384" lon="5.85558">
        <ele>958.386641</ele>
        <time>2025-07-10T06:27:59.000Z</time>
      </trkpt>
      <trkpt lat="44.58388" lon="5.85559">
        <ele>958.498647</ele>
        <time>2025-07-10T06:28:00.000Z</time>
      </trkpt>
      <trkpt lat="44.58391" lon="5.85559">
        <ele>958.607623</ele>
        <time>2025-07-10T06:28:01.000Z</time>
      </trkpt>
      <trkpt lat="44.58394" lon="5.8556">
        <ele>958.7166</ele>
        <time>2025-07-10T06:28:02.000Z</time>
      </trkpt>
      <trkpt lat="44.58397" lon="5.8556">
        <ele>958.819817</ele>
        <time>2025-07-10T06:28:03.000Z</time>
      </trkpt>
      <trkpt lat="44.584" lon="5.85561">
        <ele>958.921857</ele>
        <time>2025-07-10T06:28:04.000Z</time>
      </trkpt>
      <trkpt lat="44.58402" lon="5.85561">
        <ele>959.023625</ele>
        <time>2025-07-10T06:28:05.000Z</time>
      </trkpt>
      <trkpt lat="44.58405" lon="5.85562">
        <ele>959.129834</ele>
        <time>2025-07-10T06:28:06.000Z</time>
      </trkpt>
      <trkpt lat="44.58408" lon="5.85563">
        <ele>959.236971</ele>
        <time>2025-07-10T06:28:07.000Z</time>
      </trkpt>
      <trkpt lat="44.58411" lon="5.85563">
        <ele>959.342801</ele>
        <time>2025-07-10T06:28:08.000Z</time>
      </trkpt>
      <trkpt lat="44.58414" lon="5.85564">
        <ele>959.444356</ele>
        <time>2025-07-10T06:28:09.000Z</time>
      </trkpt>
      <trkpt lat="44.58417" lon="5.85564">
        <ele>959.549158</ele>
        <time>2025-07-10T06:28:10.000Z</time>
      </trkpt>
      <trkpt lat="44.5842" lon="5.85564">
        <ele>959.654401</ele>
        <time>2025-07-10T06:28:11.000Z</time>
      </trkpt>
      <trkpt lat="44.58423" lon="5.85565">
        <ele>959.760611</ele>
        <time>2025-07-10T06:28:12.000Z</time>
      </trkpt>
      <trkpt lat="44.58426" lon="5.85566">
        <ele>959.86682</ele>
        <time>2025-07-10T06:28:13.000Z</time>
      </trkpt>
      <trkpt lat="44.58429" lon="5.85566">
        <ele>959.96574</ele>
        <time>2025-07-10T06:28:14.000Z</time>
      </trkpt>
      <trkpt lat="44.58432" lon="5.85567">
        <ele>960.069464</ele>
        <time>2025-07-10T06:28:15.000Z</time>
      </trkpt>
      <trkpt lat="44.58435" lon="5.85568">
        <ele>960.17611</ele>
        <time>2025-07-10T06:28:16.000Z</time>
      </trkpt>
      <trkpt lat="44.58438" lon="5.85568">
        <ele>960.281617</ele>
        <time>2025-07-10T06:28:17.000Z</time>
      </trkpt>
      <trkpt lat="44.58441" lon="5.85569">
        <ele>960.383658</ele>
        <time>2025-07-10T06:28:18.000Z</time>
      </trkpt>
      <trkpt lat="44.58444" lon="5.85569">
        <ele>960.488902</ele>
        <time>2025-07-10T06:28:19.000Z</time>
      </trkpt>
      <trkpt lat="44.58447" lon="5.8557">
        <ele>960.593792</ele>
        <time>2025-07-10T06:28:20.000Z</time>
      </trkpt>
      <trkpt lat="44.5845" lon="5.8557">
        <ele>960.702314</ele>
        <time>2025-07-10T06:28:21.000Z</time>
      </trkpt>
      <trkpt lat="44.58453" lon="5.85571">
        <ele>960.81197</ele>
        <time>2025-07-10T06:28:22.000Z</time>
      </trkpt>
      <trkpt lat="44.58456" lon="5.85571">
        <ele>960.911295</ele>
        <time>2025-07-10T06:28:23.000Z</time>
      </trkpt>
      <trkpt lat="44.58459" lon="5.85572">
        <ele>961.011613</ele>
        <time>2025-07-10T06:28:24.000Z</time>
      </trkpt>
      <trkpt lat="44.58462" lon="5.85573">
        <ele>961.127287</ele>
        <time>2025-07-10T06:28:25.000Z</time>
      </trkpt>
      <trkpt lat="44.58465" lon="5.85574">
        <ele>961.242965</ele>
        <time>2025-07-10T06:28:26.000Z</time>
      </trkpt>
      <trkpt lat="44.58468" lon="5.85574">
        <ele>961.348209</ele>
        <time>2025-07-10T06:28:27.000Z</time>
      </trkpt>
      <trkpt lat="44.58471" lon="5.85575">
        <ele>961.450583</ele>
        <time>2025-07-10T06:28:28.000Z</time>
      </trkpt>
      <trkpt lat="44.58474" lon="5.85575">
        <ele>961.549502</ele>
        <time>2025-07-10T06:28:29.000Z</time>
      </trkpt>
      <trkpt lat="44.58477" lon="5.85576">
        <ele>961.644971</ele>
        <time>2025-07-10T06:28:30.000Z</time>
      </trkpt>
      <trkpt lat="44.58479" lon="5.85577">
        <ele>961.74044</ele>
        <time>2025-07-10T06:28:31.000Z</time>
      </trkpt>
      <trkpt lat="44.58482" lon="5.85577">
        <ele>961.843206</ele>
        <time>2025-07-10T06:28:32.000Z</time>
      </trkpt>
      <trkpt lat="44.58485" lon="5.85578">
        <ele>961.942126</ele>
        <time>2025-07-10T06:28:33.000Z</time>
      </trkpt>
      <trkpt lat="44.58488" lon="5.85578">
        <ele>962.047634</ele>
        <time>2025-07-10T06:28:34.000Z</time>
      </trkpt>
      <trkpt lat="44.58491" lon="5.85579">
        <ele>962.177421</ele>
        <time>2025-07-10T06:28:35.000Z</time>
      </trkpt>
      <trkpt lat="44.58494" lon="5.8558">
        <ele>962.318011</ele>
        <time>2025-07-10T06:28:36.000Z</time>
      </trkpt>
      <trkpt lat="44.58497" lon="5.85581">
        <ele>962.444321</ele>
        <time>2025-07-10T06:28:37.000Z</time>
      </trkpt>
      <trkpt lat="44.585" lon="5.85581">
        <ele>962.569037</ele>
        <time>2025-07-10T06:28:38.000Z</time>
      </trkpt>
      <trkpt lat="44.58503" lon="5.85581">
        <ele>962.694033</ele>
        <time>2025-07-10T06:28:39.000Z</time>
      </trkpt>
      <trkpt lat="44.58505" lon="5.85582">
        <ele>962.814321</ele>
        <time>2025-07-10T06:28:40.000Z</time>
      </trkpt>
      <trkpt lat="44.58508" lon="5.85582">
        <ele>962.935272</ele>
        <time>2025-07-10T06:28:41.000Z</time>
      </trkpt>
      <trkpt lat="44.58511" lon="5.85583">
        <ele>963.069444</ele>
        <time>2025-07-10T06:28:42.000Z</time>
      </trkpt>
      <trkpt lat="44.58514" lon="5.85583">
        <ele>963.1948</ele>
        <time>2025-07-10T06:28:43.000Z</time>
      </trkpt>
      <trkpt lat="44.58517" lon="5.85584">
        <ele>963.329864</ele>
        <time>2025-07-10T06:28:44.000Z</time>
      </trkpt>
      <trkpt lat="44.58519" lon="5.85584">
        <ele>963.450816</ele>
        <time>2025-07-10T06:28:45.000Z</time>
      </trkpt>
      <trkpt lat="44.58522" lon="5.85585">
        <ele>963.567837</ele>
        <time>2025-07-10T06:28:46.000Z</time>
      </trkpt>
      <trkpt lat="44.58525" lon="5.85586">
        <ele>963.689777</ele>
        <time>2025-07-10T06:28:47.000Z</time>
      </trkpt>
      <trkpt lat="44.58527" lon="5.85586">
        <ele>963.806798</ele>
        <time>2025-07-10T06:28:48.000Z</time>
      </trkpt>
      <trkpt lat="44.5853" lon="5.85587">
        <ele>963.913808</ele>
        <time>2025-07-10T06:28:49.000Z</time>
      </trkpt>
      <trkpt lat="44.58532" lon="5.85587">
        <ele>964.025019</ele>
        <time>2025-07-10T06:28:50.000Z</time>
      </trkpt>
      <trkpt lat="44.58535" lon="5.85587">
        <ele>964.136454</ele>
        <time>2025-07-10T06:28:51.000Z</time>
      </trkpt>
      <trkpt lat="44.58537" lon="5.85588">
        <ele>964.24472</ele>
        <time>2025-07-10T06:28:52.000Z</time>
      </trkpt>
      <trkpt lat="44.5854" lon="5.85588">
        <ele>964.352986</ele>
        <time>2025-07-10T06:28:53.000Z</time>
      </trkpt>
      <trkpt lat="44.58542" lon="5.85589">
        <ele>964.468847</ele>
        <time>2025-07-10T06:28:54.000Z</time>
      </trkpt>
      <trkpt lat="44.58545" lon="5.85589">
        <ele>964.580596</ele>
        <time>2025-07-10T06:28:55.000Z</time>
      </trkpt>
      <trkpt lat="44.58547" lon="5.85589">
        <ele>964.687232</ele>
        <time>2025-07-10T06:28:56.000Z</time>
      </trkpt>
      <trkpt lat="44.5855" lon="5.85589">
        <ele>964.798443</ele>
        <time>2025-07-10T06:28:57.000Z</time>
      </trkpt>
      <trkpt lat="44.58552" lon="5.85589">
        <ele>964.905079</ele>
        <time>2025-07-10T06:28:58.000Z</time>
      </trkpt>
      <trkpt lat="44.58555" lon="5.8559">
        <ele>965.020724</ele>
        <time>2025-07-10T06:28:59.000Z</time>
      </trkpt>
      <trkpt lat="44.58557" lon="5.8559">
        <ele>965.132473</ele>
        <time>2025-07-10T06:29:00.000Z</time>
      </trkpt>
      <trkpt lat="44.5856" lon="5.85591">
        <ele>965.244624</ele>
        <time>2025-07-10T06:29:01.000Z</time>
      </trkpt>
      <trkpt lat="44.58562" lon="5.85591">
        <ele>965.35238</ele>
        <time>2025-07-10T06:29:02.000Z</time>
      </trkpt>
      <trkpt lat="44.58565" lon="5.85591">
        <ele>965.468241</ele>
        <time>2025-07-10T06:29:03.000Z</time>
      </trkpt>
      <trkpt lat="44.58567" lon="5.85592">
        <ele>965.582119</ele>
        <time>2025-07-10T06:29:04.000Z</time>
      </trkpt>
      <trkpt lat="44.5857" lon="5.85593">
        <ele>965.69914</ele>
        <time>2025-07-10T06:29:05.000Z</time>
      </trkpt>
      <trkpt lat="44.58572" lon="5.85594">
        <ele>965.808692</ele>
        <time>2025-07-10T06:29:06.000Z</time>
      </trkpt>
      <trkpt lat="44.58574" lon="5.85594">
        <ele>965.917556</ele>
        <time>2025-07-10T06:29:07.000Z</time>
      </trkpt>
      <trkpt lat="44.58577" lon="5.85595">
        <ele>966.028992</ele>
        <time>2025-07-10T06:29:08.000Z</time>
      </trkpt>
      <trkpt lat="44.58579" lon="5.85595">
        <ele>966.140427</ele>
        <time>2025-07-10T06:29:09.000Z</time>
      </trkpt>
      <trkpt lat="44.58582" lon="5.85595">
        <ele>966.251862</ele>
        <time>2025-07-10T06:29:10.000Z</time>
      </trkpt>
      <trkpt lat="44.58584" lon="5.85596">
        <ele>966.355758</ele>
        <time>2025-07-10T06:29:11.000Z</time>
      </trkpt>
      <trkpt lat="44.58587" lon="5.85596">
        <ele>966.473334</ele>
        <time>2025-07-10T06:29:12.000Z</time>
      </trkpt>
      <trkpt lat="44.58589" lon="5.85597">
        <ele>966.57723</ele>
        <time>2025-07-10T06:29:13.000Z</time>
      </trkpt>
      <trkpt lat="44.58592" lon="5.85598">
        <ele>966.694251</ele>
        <time>2025-07-10T06:29:14.000Z</time>
      </trkpt>
      <trkpt lat="44.58594" lon="5.85598">
        <ele>966.802007</ele>
        <time>2025-07-10T06:29:15.000Z</time>
      </trkpt>
      <trkpt lat="44.58597" lon="5.85599">
        <ele>966.909763</ele>
        <time>2025-07-10T06:29:16.000Z</time>
      </trkpt>
      <trkpt lat="44.58599" lon="5.85599">
        <ele>967.016774</ele>
        <time>2025-07-10T06:29:17.000Z</time>
      </trkpt>
      <trkpt lat="44.58601" lon="5.85599">
        <ele>967.118922</ele>
        <time>2025-07-10T06:29:18.000Z</time>
      </trkpt>
      <trkpt lat="44.58604" lon="5.85599">
        <ele>967.221851</ele>
        <time>2025-07-10T06:29:19.000Z</time>
      </trkpt>
      <trkpt lat="44.58606" lon="5.856">
        <ele>967.325216</ele>
        <time>2025-07-10T06:29:20.000Z</time>
      </trkpt>
      <trkpt lat="44.58608" lon="5.856">
        <ele>967.423382</ele>
        <time>2025-07-10T06:29:21.000Z</time>
      </trkpt>
      <trkpt lat="44.5861" lon="5.85601">
        <ele>967.528618</ele>
        <time>2025-07-10T06:29:22.000Z</time>
      </trkpt>
      <trkpt lat="44.58613" lon="5.85602">
        <ele>967.633138</ele>
        <time>2025-07-10T06:29:23.000Z</time>
      </trkpt>
      <trkpt lat="44.58615" lon="5.85602">
        <ele>967.736067</ele>
        <time>2025-07-10T06:29:24.000Z</time>
      </trkpt>
      <trkpt lat="44.58617" lon="5.85602">
        <ele>967.834589</ele>
        <time>2025-07-10T06:29:25.000Z</time>
      </trkpt>
      <trkpt lat="44.58619" lon="5.85603">
        <ele>967.932756</ele>
        <time>2025-07-10T06:29:26.000Z</time>
      </trkpt>
      <trkpt lat="44.58622" lon="5.85603">
        <ele>968.035685</ele>
        <time>2025-07-10T06:29:27.000Z</time>
      </trkpt>
      <trkpt lat="44.58624" lon="5.85603">
        <ele>968.138273</ele>
        <time>2025-07-10T06:29:28.000Z</time>
      </trkpt>
      <trkpt lat="44.58626" lon="5.85604">
        <ele>968.237805</ele>
        <time>2025-07-10T06:29:29.000Z</time>
      </trkpt>
      <trkpt lat="44.58628" lon="5.85605">
        <ele>968.33799</ele>
        <time>2025-07-10T06:29:30.000Z</time>
      </trkpt>
      <trkpt lat="44.58631" lon="5.85605">
        <ele>968.4492</ele>
        <time>2025-07-10T06:29:31.000Z</time>
      </trkpt>
      <trkpt lat="44.58633" lon="5.85605">
        <ele>968.552129</ele>
        <time>2025-07-10T06:29:32.000Z</time>
      </trkpt>
      <trkpt lat="44.58635" lon="5.85606">
        <ele>968.656025</ele>
        <time>2025-07-10T06:29:33.000Z</time>
      </trkpt>
      <trkpt lat="44.58638" lon="5.85607">
        <ele>968.760545</ele>
        <time>2025-07-10T06:29:34.000Z</time>
      </trkpt>
      <trkpt lat="44.5864" lon="5.85607">
        <ele>968.86391</ele>
        <time>2025-07-10T06:29:35.000Z</time>
      </trkpt>
      <trkpt lat="44.58642" lon="5.85608">
        <ele>968.967806</ele>
        <time>2025-07-10T06:29:36.000Z</time>
      </trkpt>
      <trkpt lat="44.58645" lon="5.85608">
        <ele>969.084827</ele>
        <time>2025-07-10T06:29:37.000Z</time>
      </trkpt>
      <trkpt lat="44.58647" lon="5.85609">
        <ele>969.192583</ele>
        <time>2025-07-10T06:29:38.000Z</time>
      </trkpt>
      <trkpt lat="44.5865" lon="5.85609">
        <ele>969.304019</ele>
        <time>2025-07-10T06:29:39.000Z</time>
      </trkpt>
      <trkpt lat="44.58652" lon="5.85609">
        <ele>969.415454</ele>
        <time>2025-07-10T06:29:40.000Z</time>
      </trkpt>
      <trkpt lat="44.58655" lon="5.8561">
        <ele>969.535534</ele>
        <time>2025-07-10T06:29:41.000Z</time>
      </trkpt>
      <trkpt lat="44.58658" lon="5.8561">
        <ele>969.651179</ele>
        <time>2025-07-10T06:29:42.000Z</time>
      </trkpt>
      <trkpt lat="44.5866" lon="5.8561">
        <ele>969.771757</ele>
        <time>2025-07-10T06:29:43.000Z</time>
      </trkpt>
      <trkpt lat="44.58663" lon="5.85611">
        <ele>969.888307</ele>
        <time>2025-07-10T06:29:44.000Z</time>
      </trkpt>
      <trkpt lat="44.58666" lon="5.85611">
        <ele>970.004168</ele>
        <time>2025-07-10T06:29:45.000Z</time>
      </trkpt>
      <trkpt lat="44.58668" lon="5.85611">
        <ele>970.092782</ele>
        <time>2025-07-10T06:29:46.000Z</time>
      </trkpt>
      <trkpt lat="44.58671" lon="5.85612">
        <ele>970.158513</ele>
        <time>2025-07-10T06:29:47.000Z</time>
      </trkpt>
      <trkpt lat="44.58673" lon="5.85612">
        <ele>970.224464</ele>
        <time>2025-07-10T06:29:48.000Z</time>
      </trkpt>
      <trkpt lat="44.58676" lon="5.85613">
        <ele>970.295194</ele>
        <time>2025-07-10T06:29:49.000Z</time>
      </trkpt>
      <trkpt lat="44.58679" lon="5.85613">
        <ele>970.363071</ele>
        <time>2025-07-10T06:29:50.000Z</time>
      </trkpt>
      <trkpt lat="44.58682" lon="5.85613">
        <ele>970.430948</ele>
        <time>2025-07-10T06:29:51.000Z</time>
      </trkpt>
      <trkpt lat="44.58684" lon="5.85613">
        <ele>970.498896</ele>
        <time>2025-07-10T06:29:52.000Z</time>
      </trkpt>
      <trkpt lat="44.58687" lon="5.85613">
        <ele>970.571973</ele>
        <time>2025-07-10T06:29:53.000Z</time>
      </trkpt>
      <trkpt lat="44.5869" lon="5.85614">
        <ele>970.642907</ele>
        <time>2025-07-10T06:29:54.000Z</time>
      </trkpt>
      <trkpt lat="44.58693" lon="5.85614">
        <ele>970.713364</ele>
        <time>2025-07-10T06:29:55.000Z</time>
      </trkpt>
      <trkpt lat="44.58696" lon="5.85614">
        <ele>970.783731</ele>
        <time>2025-07-10T06:29:56.000Z</time>
      </trkpt>
      <trkpt lat="44.58699" lon="5.85614">
        <ele>970.861719</ele>
        <time>2025-07-10T06:29:57.000Z</time>
      </trkpt>
      <trkpt lat="44.58701" lon="5.85614">
        <ele>970.932109</ele>
        <time>2025-07-10T06:29:58.000Z</time>
      </trkpt>
      <trkpt lat="44.58704" lon="5.85614">
        <ele>971.00501</ele>
        <time>2025-07-10T06:29:59.000Z</time>
      </trkpt>
      <trkpt lat="44.58707" lon="5.85615">
        <ele>971.082999</ele>
        <time>2025-07-10T06:30:00.000Z</time>
      </trkpt>
      <trkpt lat="44.5871" lon="5.85615">
        <ele>971.1559</ele>
        <time>2025-07-10T06:30:01.000Z</time>
      </trkpt>
      <trkpt lat="44.58713" lon="5.85615">
        <ele>971.223777</ele>
        <time>2025-07-10T06:30:02.000Z</time>
      </trkpt>
      <trkpt lat="44.58716" lon="5.85615">
        <ele>971.294144</ele>
        <time>2025-07-10T06:30:03.000Z</time>
      </trkpt>
      <trkpt lat="44.58719" lon="5.85614">
        <ele>971.372562</ele>
        <time>2025-07-10T06:30:04.000Z</time>
      </trkpt>
      <trkpt lat="44.58722" lon="5.85614">
        <ele>971.445464</ele>
        <time>2025-07-10T06:30:05.000Z</time>
      </trkpt>
      <trkpt lat="44.58725" lon="5.85614">
        <ele>971.518344</ele>
        <time>2025-07-10T06:30:06.000Z</time>
      </trkpt>
      <trkpt lat="44.58728" lon="5.85614">
        <ele>971.591245</ele>
        <time>2025-07-10T06:30:07.000Z</time>
      </trkpt>
      <trkpt lat="44.58731" lon="5.85614">
        <ele>971.674197</ele>
        <time>2025-07-10T06:30:08.000Z</time>
      </trkpt>
      <trkpt lat="44.58734" lon="5.85614">
        <ele>971.754696</ele>
        <time>2025-07-10T06:30:09.000Z</time>
      </trkpt>
      <trkpt lat="44.58737" lon="5.85614">
        <ele>971.832684</ele>
        <time>2025-07-10T06:30:10.000Z</time>
      </trkpt>
      <trkpt lat="44.5874" lon="5.85614">
        <ele>971.91059</ele>
        <time>2025-07-10T06:30:11.000Z</time>
      </trkpt>
      <trkpt lat="44.58743" lon="5.85614">
        <ele>971.988496</ele>
        <time>2025-07-10T06:30:12.000Z</time>
      </trkpt>
      <trkpt lat="44.58747" lon="5.85613">
        <ele>972.066484</ele>
        <time>2025-07-10T06:30:13.000Z</time>
      </trkpt>
      <trkpt lat="44.58749" lon="5.85613">
        <ele>972.139561</ele>
        <time>2025-07-10T06:30:14.000Z</time>
      </trkpt>
      <trkpt lat="44.58752" lon="5.85613">
        <ele>972.215483</ele>
        <time>2025-07-10T06:30:15.000Z</time>
      </trkpt>
      <trkpt lat="44.58756" lon="5.85612">
        <ele>972.294126</ele>
        <time>2025-07-10T06:30:16.000Z</time>
      </trkpt>
      <trkpt lat="44.58759" lon="5.85612">
        <ele>972.372052</ele>
        <time>2025-07-10T06:30:17.000Z</time>
      </trkpt>
      <trkpt lat="44.58762" lon="5.85612">
        <ele>972.450143</ele>
        <time>2025-07-10T06:30:18.000Z</time>
      </trkpt>
      <trkpt lat="44.58765" lon="5.85611">
        <ele>972.533556</ele>
        <time>2025-07-10T06:30:19.000Z</time>
      </trkpt>
      <trkpt lat="44.58768" lon="5.85611">
        <ele>972.619674</ele>
        <time>2025-07-10T06:30:20.000Z</time>
      </trkpt>
      <trkpt lat="44.58772" lon="5.8561">
        <ele>972.70278</ele>
        <time>2025-07-10T06:30:21.000Z</time>
      </trkpt>
      <trkpt lat="44.58775" lon="5.8561">
        <ele>972.784169</ele>
        <time>2025-07-10T06:30:22.000Z</time>
      </trkpt>
      <trkpt lat="44.58778" lon="5.85609">
        <ele>972.871468</ele>
        <time>2025-07-10T06:30:23.000Z</time>
      </trkpt>
      <trkpt lat="44.58781" lon="5.85608">
        <ele>972.951404</ele>
        <time>2025-07-10T06:30:24.000Z</time>
      </trkpt>
      <trkpt lat="44.58785" lon="5.85607">
        <ele>973.030311</ele>
        <time>2025-07-10T06:30:25.000Z</time>
      </trkpt>
      <trkpt lat="44.58788" lon="5.85606">
        <ele>973.109217</ele>
        <time>2025-07-10T06:30:26.000Z</time>
      </trkpt>
      <trkpt lat="44.58791" lon="5.85605">
        <ele>973.188771</ele>
        <time>2025-07-10T06:30:27.000Z</time>
      </trkpt>
      <trkpt lat="44.58794" lon="5.85604">
        <ele>973.273253</ele>
        <time>2025-07-10T06:30:28.000Z</time>
      </trkpt>
      <trkpt lat="44.58797" lon="5.85603">
        <ele>973.357735</ele>
        <time>2025-07-10T06:30:29.000Z</time>
      </trkpt>
      <trkpt lat="44.58801" lon="5.85603">
        <ele>973.445984</ele>
        <time>2025-07-10T06:30:30.000Z</time>
      </trkpt>
      <trkpt lat="44.58804" lon="5.85603">
        <ele>973.536473</ele>
        <time>2025-07-10T06:30:31.000Z</time>
      </trkpt>
      <trkpt lat="44.58808" lon="5.85603">
        <ele>973.629527</ele>
        <time>2025-07-10T06:30:32.000Z</time>
      </trkpt>
      <trkpt lat="44.58812" lon="5.85602">
        <ele>973.717776</ele>
        <time>2025-07-10T06:30:33.000Z</time>
      </trkpt>
      <trkpt lat="44.58815" lon="5.85602">
        <ele>973.803893</ele>
        <time>2025-07-10T06:30:34.000Z</time>
      </trkpt>
      <trkpt lat="44.58819" lon="5.85601">
        <ele>973.892306</ele>
        <time>2025-07-10T06:30:35.000Z</time>
      </trkpt>
      <trkpt lat="44.58822" lon="5.856">
        <ele>973.976465</ele>
        <time>2025-07-10T06:30:36.000Z</time>
      </trkpt>
      <trkpt lat="44.58825" lon="5.856">
        <ele>974.060947</ele>
        <time>2025-07-10T06:30:37.000Z</time>
      </trkpt>
      <trkpt lat="44.58829" lon="5.85599">
        <ele>974.150368</ele>
        <time>2025-07-10T06:30:38.000Z</time>
      </trkpt>
      <trkpt lat="44.58832" lon="5.85598">
        <ele>974.239789</ele>
        <time>2025-07-10T06:30:39.000Z</time>
      </trkpt>
      <trkpt lat="44.58836" lon="5.85597">
        <ele>974.330895</ele>
        <time>2025-07-10T06:30:40.000Z</time>
      </trkpt>
      <trkpt lat="44.58839" lon="5.85597">
        <ele>974.416808</ele>
        <time>2025-07-10T06:30:41.000Z</time>
      </trkpt>
      <trkpt lat="44.58843" lon="5.85596">
        <ele>974.503167</ele>
        <time>2025-07-10T06:30:42.000Z</time>
      </trkpt>
      <trkpt lat="44.58846" lon="5.85595">
        <ele>974.589644</ele>
        <time>2025-07-10T06:30:43.000Z</time>
      </trkpt>
      <trkpt lat="44.58849" lon="5.85594">
        <ele>974.683963</ele>
        <time>2025-07-10T06:30:44.000Z</time>
      </trkpt>
      <trkpt lat="44.58852" lon="5.85594">
        <ele>974.783401</ele>
        <time>2025-07-10T06:30:45.000Z</time>
      </trkpt>
      <trkpt lat="44.58856" lon="5.85593">
        <ele>974.882408</ele>
        <time>2025-07-10T06:30:46.000Z</time>
      </trkpt>
      <trkpt lat="44.58859" lon="5.85593">
        <ele>974.97584</ele>
        <time>2025-07-10T06:30:47.000Z</time>
      </trkpt>
      <trkpt lat="44.58862" lon="5.85592">
        <ele>975.069818</ele>
        <time>2025-07-10T06:30:48.000Z</time>
      </trkpt>
      <trkpt lat="44.58865" lon="5.85591">
        <ele>975.164521</ele>
        <time>2025-07-10T06:30:49.000Z</time>
      </trkpt>
      <trkpt lat="44.58869" lon="5.85591">
        <ele>975.260837</ele>
        <time>2025-07-10T06:30:50.000Z</time>
      </trkpt>
      <trkpt lat="44.58872" lon="5.8559">
        <ele>975.354268</ele>
        <time>2025-07-10T06:30:51.000Z</time>
      </trkpt>
      <trkpt lat="44.58875" lon="5.85589">
        <ele>975.445731</ele>
        <time>2025-07-10T06:30:52.000Z</time>
      </trkpt>
      <trkpt lat="44.58878" lon="5.85588">
        <ele>975.54005</ele>
        <time>2025-07-10T06:30:53.000Z</time>
      </trkpt>
      <trkpt lat="44.58881" lon="5.85588">
        <ele>975.630857</ele>
        <time>2025-07-10T06:30:54.000Z</time>
      </trkpt>
      <trkpt lat="44.58884" lon="5.85587">
        <ele>975.712527</ele>
        <time>2025-07-10T06:30:55.000Z</time>
      </trkpt>
      <trkpt lat="44.58887" lon="5.85586">
        <ele>975.79918</ele>
        <time>2025-07-10T06:30:56.000Z</time>
      </trkpt>
      <trkpt lat="44.5889" lon="5.85585">
        <ele>975.889154</ele>
        <time>2025-07-10T06:30:57.000Z</time>
      </trkpt>
      <trkpt lat="44.58893" lon="5.85584">
        <ele>975.974105</ele>
        <time>2025-07-10T06:30:58.000Z</time>
      </trkpt>
      <trkpt lat="44.58896" lon="5.85583">
        <ele>976.057943</ele>
        <time>2025-07-10T06:30:59.000Z</time>
      </trkpt>
      <trkpt lat="44.58899" lon="5.85582">
        <ele>976.144127</ele>
        <time>2025-07-10T06:31:00.000Z</time>
      </trkpt>
      <trkpt lat="44.58901" lon="5.85582">
        <ele>976.229514</ele>
        <time>2025-07-10T06:31:01.000Z</time>
      </trkpt>
      <trkpt lat="44.58904" lon="5.85581">
        <ele>976.318533</ele>
        <time>2025-07-10T06:31:02.000Z</time>
      </trkpt>
      <trkpt lat="44.58908" lon="5.8558">
        <ele>976.409645</ele>
        <time>2025-07-10T06:31:03.000Z</time>
      </trkpt>
      <trkpt lat="44.58911" lon="5.85579">
        <ele>976.501108</ele>
        <time>2025-07-10T06:31:04.000Z</time>
      </trkpt>
      <trkpt lat="44.58914" lon="5.85578">
        <ele>976.586869</ele>
        <time>2025-07-10T06:31:05.000Z</time>
      </trkpt>
      <trkpt lat="44.58917" lon="5.85577">
        <ele>976.678729</ele>
        <time>2025-07-10T06:31:06.000Z</time>
      </trkpt>
      <trkpt lat="44.5892" lon="5.85577">
        <ele>976.781046</ele>
        <time>2025-07-10T06:31:07.000Z</time>
      </trkpt>
      <trkpt lat="44.58923" lon="5.85576">
        <ele>976.872509</ele>
        <time>2025-07-10T06:31:08.000Z</time>
      </trkpt>
      <trkpt lat="44.58926" lon="5.85576">
        <ele>976.960175</ele>
        <time>2025-07-10T06:31:09.000Z</time>
      </trkpt>
      <trkpt lat="44.58929" lon="5.85575">
        <ele>977.051638</ele>
        <time>2025-07-10T06:31:10.000Z</time>
      </trkpt>
      <trkpt lat="44.58932" lon="5.85574">
        <ele>977.139571</ele>
        <time>2025-07-10T06:31:11.000Z</time>
      </trkpt>
      <trkpt lat="44.58935" lon="5.85573">
        <ele>977.231034</ele>
        <time>2025-07-10T06:31:12.000Z</time>
      </trkpt>
      <trkpt lat="44.58939" lon="5.85573">
        <ele>977.321582</ele>
        <time>2025-07-10T06:31:13.000Z</time>
      </trkpt>
      <trkpt lat="44.58942" lon="5.85572">
        <ele>977.415561</ele>
        <time>2025-07-10T06:31:14.000Z</time>
      </trkpt>
      <trkpt lat="44.58945" lon="5.85572">
        <ele>977.502836</ele>
        <time>2025-07-10T06:31:15.000Z</time>
      </trkpt>
      <trkpt lat="44.58948" lon="5.85571">
        <ele>977.596061</ele>
        <time>2025-07-10T06:31:16.000Z</time>
      </trkpt>
      <trkpt lat="44.58951" lon="5.85571">
        <ele>977.681823</ele>
        <time>2025-07-10T06:31:17.000Z</time>
      </trkpt>
      <trkpt lat="44.58954" lon="5.8557">
        <ele>977.769488</ele>
        <time>2025-07-10T06:31:18.000Z</time>
      </trkpt>
      <trkpt lat="44.58957" lon="5.85569">
        <ele>977.8606</ele>
        <time>2025-07-10T06:31:19.000Z</time>
      </trkpt>
      <trkpt lat="44.5896" lon="5.85569">
        <ele>977.95645</ele>
        <time>2025-07-10T06:31:20.000Z</time>
      </trkpt>
      <trkpt lat="44.58963" lon="5.85569">
        <ele>978.046997</ele>
        <time>2025-07-10T06:31:21.000Z</time>
      </trkpt>
      <trkpt lat="44.58967" lon="5.85568">
        <ele>978.140062</ele>
        <time>2025-07-10T06:31:22.000Z</time>
      </trkpt>
      <trkpt lat="44.5897" lon="5.85569">
        <ele>978.23907</ele>
        <time>2025-07-10T06:31:23.000Z</time>
      </trkpt>
      <trkpt lat="44.58973" lon="5.85569">
        <ele>978.332135</ele>
        <time>2025-07-10T06:31:24.000Z</time>
      </trkpt>
      <trkpt lat="44.58976" lon="5.85569">
        <ele>978.425566</ele>
        <time>2025-07-10T06:31:25.000Z</time>
      </trkpt>
      <trkpt lat="44.58979" lon="5.85569">
        <ele>978.515618</ele>
        <time>2025-07-10T06:31:26.000Z</time>
      </trkpt>
      <trkpt lat="44.58983" lon="5.85568">
        <ele>978.606425</ele>
        <time>2025-07-10T06:31:27.000Z</time>
      </trkpt>
      <trkpt lat="44.58986" lon="5.85568">
        <ele>978.699856</ele>
        <time>2025-07-10T06:31:28.000Z</time>
      </trkpt>
      <trkpt lat="44.58989" lon="5.85567">
        <ele>978.793539</ele>
        <time>2025-07-10T06:31:29.000Z</time>
      </trkpt>
      <trkpt lat="44.58992" lon="5.85566">
        <ele>978.882149</ele>
        <time>2025-07-10T06:31:30.000Z</time>
      </trkpt>
      <trkpt lat="44.58995" lon="5.85566">
        <ele>978.972697</ele>
        <time>2025-07-10T06:31:31.000Z</time>
      </trkpt>
      <trkpt lat="44.58998" lon="5.85565">
        <ele>979.063245</ele>
        <time>2025-07-10T06:31:32.000Z</time>
      </trkpt>
      <trkpt lat="44.59001" lon="5.85565">
        <ele>979.15647</ele>
        <time>2025-07-10T06:31:33.000Z</time>
      </trkpt>
      <trkpt lat="44.59004" lon="5.85564">
        <ele>979.244404</ele>
        <time>2025-07-10T06:31:34.000Z</time>
      </trkpt>
      <trkpt lat="44.59008" lon="5.85564">
        <ele>979.337629</ele>
        <time>2025-07-10T06:31:35.000Z</time>
      </trkpt>
      <trkpt lat="44.59011" lon="5.85564">
        <ele>979.427964</ele>
        <time>2025-07-10T06:31:36.000Z</time>
      </trkpt>
      <trkpt lat="44.59014" lon="5.85563">
        <ele>979.521943</ele>
        <time>2025-07-10T06:31:37.000Z</time>
      </trkpt>
      <trkpt lat="44.59017" lon="5.85562">
        <ele>979.618502</ele>
        <time>2025-07-10T06:31:38.000Z</time>
      </trkpt>
      <trkpt lat="44.5902" lon="5.85562">
        <ele>979.706751</ele>
        <time>2025-07-10T06:31:39.000Z</time>
      </trkpt>
      <trkpt lat="44.59023" lon="5.85561">
        <ele>979.80113</ele>
        <time>2025-07-10T06:31:40.000Z</time>
      </trkpt>
      <trkpt lat="44.59026" lon="5.8556">
        <ele>979.901474</ele>
        <time>2025-07-10T06:31:41.000Z</time>
      </trkpt>
      <trkpt lat="44.5903" lon="5.85559">
        <ele>980.001818</ele>
        <time>2025-07-10T06:31:42.000Z</time>
      </trkpt>
      <trkpt lat="44.59033" lon="5.85559">
        <ele>980.102549</ele>
        <time>2025-07-10T06:31:43.000Z</time>
      </trkpt>
      <trkpt lat="44.59036" lon="5.85558">
        <ele>980.196588</ele>
        <time>2025-07-10T06:31:44.000Z</time>
      </trkpt>
      <trkpt lat="44.59039" lon="5.85557">
        <ele>980.296596</ele>
        <time>2025-07-10T06:31:45.000Z</time>
      </trkpt>
      <trkpt lat="44.59042" lon="5.85557">
        <ele>980.393439</ele>
        <time>2025-07-10T06:31:46.000Z</time>
      </trkpt>
      <trkpt lat="44.59045" lon="5.85556">
        <ele>980.493783</ele>
        <time>2025-07-10T06:31:47.000Z</time>
      </trkpt>
      <trkpt lat="44.59048" lon="5.85555">
        <ele>980.594127</ele>
        <time>2025-07-10T06:31:48.000Z</time>
      </trkpt>
      <trkpt lat="44.59051" lon="5.85554">
        <ele>980.695294</ele>
        <time>2025-07-10T06:31:49.000Z</time>
      </trkpt>
      <trkpt lat="44.59054" lon="5.85554">
        <ele>980.79646</ele>
        <time>2025-07-10T06:31:50.000Z</time>
      </trkpt>
      <trkpt lat="44.59057" lon="5.85553">
        <ele>980.90312</ele>
        <time>2025-07-10T06:31:51.000Z</time>
      </trkpt>
      <trkpt lat="44.5906" lon="5.85552">
        <ele>980.999963</ele>
        <time>2025-07-10T06:31:52.000Z</time>
      </trkpt>
      <trkpt lat="44.59063" lon="5.85552">
        <ele>981.096512</ele>
        <time>2025-07-10T06:31:53.000Z</time>
      </trkpt>
      <trkpt lat="44.59066" lon="5.85551">
        <ele>981.193355</ele>
        <time>2025-07-10T06:31:54.000Z</time>
      </trkpt>
      <trkpt lat="44.59069" lon="5.85551">
        <ele>981.293363</ele>
        <time>2025-07-10T06:31:55.000Z</time>
      </trkpt>
      <trkpt lat="44.59072" lon="5.8555">
        <ele>981.390206</ele>
        <time>2025-07-10T06:31:56.000Z</time>
      </trkpt>
      <trkpt lat="44.59075" lon="5.85549">
        <ele>981.486754</ele>
        <time>2025-07-10T06:31:57.000Z</time>
      </trkpt>
      <trkpt lat="44.59079" lon="5.85549">
        <ele>981.592829</ele>
        <time>2025-07-10T06:31:58.000Z</time>
      </trkpt>
      <trkpt lat="44.59082" lon="5.85548">
        <ele>981.695728</ele>
        <time>2025-07-10T06:31:59.000Z</time>
      </trkpt>
      <trkpt lat="44.59085" lon="5.85548">
        <ele>981.798903</ele>
        <time>2025-07-10T06:32:00.000Z</time>
      </trkpt>
      <trkpt lat="44.59088" lon="5.85547">
        <ele>981.898911</ele>
        <time>2025-07-10T06:32:01.000Z</time>
      </trkpt>
      <trkpt lat="44.59091" lon="5.85547">
        <ele>981.996101</ele>
        <time>2025-07-10T06:32:02.000Z</time>
      </trkpt>
      <trkpt lat="44.59094" lon="5.85546">
        <ele>982.096831</ele>
        <time>2025-07-10T06:32:03.000Z</time>
      </trkpt>
      <trkpt lat="44.59097" lon="5.85545">
        <ele>982.191747</ele>
        <time>2025-07-10T06:32:04.000Z</time>
      </trkpt>
      <trkpt lat="44.591" lon="5.85544">
        <ele>982.292092</ele>
        <time>2025-07-10T06:32:05.000Z</time>
      </trkpt>
      <trkpt lat="44.59103" lon="5.85544">
        <ele>982.39158</ele>
        <time>2025-07-10T06:32:06.000Z</time>
      </trkpt>
      <trkpt lat="44.59106" lon="5.85543">
        <ele>982.487699</ele>
        <time>2025-07-10T06:32:07.000Z</time>
      </trkpt>
      <trkpt lat="44.59109" lon="5.85543">
        <ele>982.583817</ele>
        <time>2025-07-10T06:32:08.000Z</time>
      </trkpt>
      <trkpt lat="44.59112" lon="5.85543">
        <ele>982.680124</ele>
        <time>2025-07-10T06:32:09.000Z</time>
      </trkpt>
      <trkpt lat="44.59115" lon="5.85542">
        <ele>982.777314</ele>
        <time>2025-07-10T06:32:10.000Z</time>
      </trkpt>
      <trkpt lat="44.59118" lon="5.85541">
        <ele>982.874504</ele>
        <time>2025-07-10T06:32:11.000Z</time>
      </trkpt>
      <trkpt lat="44.59121" lon="5.85541">
        <ele>982.968955</ele>
        <time>2025-07-10T06:32:12.000Z</time>
      </trkpt>
      <trkpt lat="44.59124" lon="5.8554">
        <ele>983.066145</ele>
        <time>2025-07-10T06:32:13.000Z</time>
      </trkpt>
      <trkpt lat="44.59128" lon="5.85539">
        <ele>983.168817</ele>
        <time>2025-07-10T06:32:14.000Z</time>
      </trkpt>
      <trkpt lat="44.59131" lon="5.85539">
        <ele>983.268123</ele>
        <time>2025-07-10T06:32:15.000Z</time>
      </trkpt>
      <trkpt lat="44.59134" lon="5.85539">
        <ele>983.370795</ele>
        <time>2025-07-10T06:32:16.000Z</time>
      </trkpt>
      <trkpt lat="44.59137" lon="5.85538">
        <ele>983.470517</ele>
        <time>2025-07-10T06:32:17.000Z</time>
      </trkpt>
      <trkpt lat="44.5914" lon="5.85538">
        <ele>983.576861</ele>
        <time>2025-07-10T06:32:18.000Z</time>
      </trkpt>
      <trkpt lat="44.59143" lon="5.85537">
        <ele>983.680362</ele>
        <time>2025-07-10T06:32:19.000Z</time>
      </trkpt>
      <trkpt lat="44.59147" lon="5.85536">
        <ele>983.786437</ele>
        <time>2025-07-10T06:32:20.000Z</time>
      </trkpt>
      <trkpt lat="44.5915" lon="5.85536">
        <ele>983.89531</ele>
        <time>2025-07-10T06:32:21.000Z</time>
      </trkpt>
      <trkpt lat="44.59154" lon="5.85536">
        <ele>984.007373</ele>
        <time>2025-07-10T06:32:22.000Z</time>
      </trkpt>
      <trkpt lat="44.59157" lon="5.85535">
        <ele>984.110271</ele>
        <time>2025-07-10T06:32:23.000Z</time>
      </trkpt>
      <trkpt lat="44.5916" lon="5.85535">
        <ele>984.21317</ele>
        <time>2025-07-10T06:32:24.000Z</time>
      </trkpt>
      <trkpt lat="44.59163" lon="5.85534">
        <ele>984.319245</ele>
        <time>2025-07-10T06:32:25.000Z</time>
      </trkpt>
      <trkpt lat="44.59166" lon="5.85534">
        <ele>984.415552</ele>
        <time>2025-07-10T06:32:26.000Z</time>
      </trkpt>
      <trkpt lat="44.59169" lon="5.85534">
        <ele>984.51504</ele>
        <time>2025-07-10T06:32:27.000Z</time>
      </trkpt>
      <trkpt lat="44.59172" lon="5.85533">
        <ele>984.611024</ele>
        <time>2025-07-10T06:32:28.000Z</time>
      </trkpt>
      <trkpt lat="44.59176" lon="5.85533">
        <ele>984.710747</ele>
        <time>2025-07-10T06:32:29.000Z</time>
      </trkpt>
      <trkpt lat="44.59179" lon="5.85532">
        <ele>984.810469</ele>
        <time>2025-07-10T06:32:30.000Z</time>
      </trkpt>
      <trkpt lat="44.59182" lon="5.85532">
        <ele>984.906372</ele>
        <time>2025-07-10T06:32:31.000Z</time>
      </trkpt>
      <trkpt lat="44.59185" lon="5.85532">
        <ele>985.002355</ele>
        <time>2025-07-10T06:32:32.000Z</time>
      </trkpt>
      <trkpt lat="44.59188" lon="5.85533">
        <ele>985.10485</ele>
        <time>2025-07-10T06:32:33.000Z</time>
      </trkpt>
      <trkpt lat="44.59191" lon="5.85533">
        <ele>985.204026</ele>
        <time>2025-07-10T06:32:34.000Z</time>
      </trkpt>
      <trkpt lat="44.59194" lon="5.85533">
        <ele>985.303097</ele>
        <time>2025-07-10T06:32:35.000Z</time>
      </trkpt>
      <trkpt lat="44.59197" lon="5.85533">
        <ele>985.408561</ele>
        <time>2025-07-10T06:32:36.000Z</time>
      </trkpt>
      <trkpt lat="44.592" lon="5.85533">
        <ele>985.504463</ele>
        <time>2025-07-10T06:32:37.000Z</time>
      </trkpt>
      <trkpt lat="44.59203" lon="5.85534">
        <ele>985.6079</ele>
        <time>2025-07-10T06:32:38.000Z</time>
      </trkpt>
      <trkpt lat="44.59207" lon="5.85534">
        <ele>985.713878</ele>
        <time>2025-07-10T06:32:39.000Z</time>
      </trkpt>
      <trkpt lat="44.59209" lon="5.85534">
        <ele>985.809252</ele>
        <time>2025-07-10T06:32:40.000Z</time>
      </trkpt>
      <trkpt lat="44.59212" lon="5.85535">
        <ele>985.911856</ele>
        <time>2025-07-10T06:32:41.000Z</time>
      </trkpt>
      <trkpt lat="44.59215" lon="5.85535">
        <ele>986.014774</ele>
        <time>2025-07-10T06:32:42.000Z</time>
      </trkpt>
      <trkpt lat="44.59218" lon="5.85536">
        <ele>986.117691</ele>
        <time>2025-07-10T06:32:43.000Z</time>
      </trkpt>
      <trkpt lat="44.59221" lon="5.85537">
        <ele>986.220609</ele>
        <time>2025-07-10T06:32:44.000Z</time>
      </trkpt>
      <trkpt lat="44.59224" lon="5.85537">
        <ele>986.326587</ele>
        <time>2025-07-10T06:32:45.000Z</time>
      </trkpt>
      <trkpt lat="44.59227" lon="5.85538">
        <ele>986.429873</ele>
        <time>2025-07-10T06:32:46.000Z</time>
      </trkpt>
      <trkpt lat="44.5923" lon="5.85539">
        <ele>986.531896</ele>
        <time>2025-07-10T06:32:47.000Z</time>
      </trkpt>
      <trkpt lat="44.59233" lon="5.8554">
        <ele>986.637839</ele>
        <time>2025-07-10T06:32:48.000Z</time>
      </trkpt>
      <trkpt lat="44.59236" lon="5.85541">
        <ele>986.735963</ele>
        <time>2025-07-10T06:32:49.000Z</time>
      </trkpt>
      <trkpt lat="44.59239" lon="5.85542">
        <ele>986.83539</ele>
        <time>2025-07-10T06:32:50.000Z</time>
      </trkpt>
      <trkpt lat="44.59242" lon="5.85544">
        <ele>986.934921</ele>
        <time>2025-07-10T06:32:51.000Z</time>
      </trkpt>
      <trkpt lat="44.59245" lon="5.85545">
        <ele>987.039072</ele>
        <time>2025-07-10T06:32:52.000Z</time>
      </trkpt>
      <trkpt lat="44.59247" lon="5.85547">
        <ele>987.138499</ele>
        <time>2025-07-10T06:32:53.000Z</time>
      </trkpt>
      <trkpt lat="44.5925" lon="5.85548">
        <ele>987.242649</ele>
        <time>2025-07-10T06:32:54.000Z</time>
      </trkpt>
      <trkpt lat="44.59253" lon="5.85549">
        <ele>987.34533</ele>
        <time>2025-07-10T06:32:55.000Z</time>
      </trkpt>
      <trkpt lat="44.59256" lon="5.85551">
        <ele>987.443082</ele>
        <time>2025-07-10T06:32:56.000Z</time>
      </trkpt>
      <trkpt lat="44.59259" lon="5.85552">
        <ele>987.542613</ele>
        <time>2025-07-10T06:32:57.000Z</time>
      </trkpt>
      <trkpt lat="44.59261" lon="5.85554">
        <ele>987.648435</ele>
        <time>2025-07-10T06:32:58.000Z</time>
      </trkpt>
      <trkpt lat="44.59264" lon="5.85555">
        <ele>987.75204</ele>
        <time>2025-07-10T06:32:59.000Z</time>
      </trkpt>
      <trkpt lat="44.59267" lon="5.85557">
        <ele>987.848585</ele>
        <time>2025-07-10T06:33:00.000Z</time>
      </trkpt>
      <trkpt lat="44.59269" lon="5.85559">
        <ele>987.946305</ele>
        <time>2025-07-10T06:33:01.000Z</time>
      </trkpt>
      <trkpt lat="44.59272" lon="5.85561">
        <ele>988.04585</ele>
        <time>2025-07-10T06:33:02.000Z</time>
      </trkpt>
      <trkpt lat="44.59275" lon="5.85563">
        <ele>988.149526</ele>
        <time>2025-07-10T06:33:03.000Z</time>
      </trkpt>
      <trkpt lat="44.59277" lon="5.85565">
        <ele>988.251395</ele>
        <time>2025-07-10T06:33:04.000Z</time>
      </trkpt>
      <trkpt lat="44.5928" lon="5.85567">
        <ele>988.347435</ele>
        <time>2025-07-10T06:33:05.000Z</time>
      </trkpt>
      <trkpt lat="44.59282" lon="5.85569">
        <ele>988.44812</ele>
        <time>2025-07-10T06:33:06.000Z</time>
      </trkpt>
      <trkpt lat="44.59285" lon="5.85572">
        <ele>988.545461</ele>
        <time>2025-07-10T06:33:07.000Z</time>
      </trkpt>
      <trkpt lat="44.59287" lon="5.85574">
        <ele>988.641501</ele>
        <time>2025-07-10T06:33:08.000Z</time>
      </trkpt>
      <trkpt lat="44.59289" lon="5.85576">
        <ele>988.74044</ele>
        <time>2025-07-10T06:33:09.000Z</time>
      </trkpt>
      <trkpt lat="44.59292" lon="5.85578">
        <ele>988.840507</ele>
        <time>2025-07-10T06:33:10.000Z</time>
      </trkpt>
      <trkpt lat="44.59294" lon="5.85581">
        <ele>988.943455</ele>
        <time>2025-07-10T06:33:11.000Z</time>
      </trkpt>
      <trkpt lat="44.59296" lon="5.85584">
        <ele>989.044296</ele>
        <time>2025-07-10T06:33:12.000Z</time>
      </trkpt>
      <trkpt lat="44.59299" lon="5.85586">
        <ele>989.146111</ele>
        <time>2025-07-10T06:33:13.000Z</time>
      </trkpt>
      <trkpt lat="44.59301" lon="5.85589">
        <ele>989.242229</ele>
        <time>2025-07-10T06:33:14.000Z</time>
      </trkpt>
      <trkpt lat="44.59303" lon="5.85591">
        <ele>989.338348</ele>
        <time>2025-07-10T06:33:15.000Z</time>
      </trkpt>
      <trkpt lat="44.59305" lon="5.85594">
        <ele>989.436006</ele>
        <time>2025-07-10T06:33:16.000Z</time>
      </trkpt>
      <trkpt lat="44.59307" lon="5.85597">
        <ele>989.536037</ele>
        <time>2025-07-10T06:33:17.000Z</time>
      </trkpt>
      <trkpt lat="44.5931" lon="5.856">
        <ele>989.640188</ele>
        <time>2025-07-10T06:33:18.000Z</time>
      </trkpt>
      <trkpt lat="44.59312" lon="5.85603">
        <ele>989.741929</ele>
        <time>2025-07-10T06:33:19.000Z</time>
      </trkpt>
      <trkpt lat="44.59314" lon="5.85606">
        <ele>989.84028</ele>
        <time>2025-07-10T06:33:20.000Z</time>
      </trkpt>
      <trkpt lat="44.59316" lon="5.85608">
        <ele>989.934504</ele>
        <time>2025-07-10T06:33:21.000Z</time>
      </trkpt>
      <trkpt lat="44.59318" lon="5.85611">
        <ele>990.028728</ele>
        <time>2025-07-10T06:33:22.000Z</time>
      </trkpt>
      <trkpt lat="44.5932" lon="5.85614">
        <ele>990.125429</ele>
        <time>2025-07-10T06:33:23.000Z</time>
      </trkpt>
      <trkpt lat="44.59322" lon="5.85616">
        <ele>990.217993</ele>
        <time>2025-07-10T06:33:24.000Z</time>
      </trkpt>
      <trkpt lat="44.59324" lon="5.85619">
        <ele>990.305695</ele>
        <time>2025-07-10T06:33:25.000Z</time>
      </trkpt>
      <trkpt lat="44.59326" lon="5.85622">
        <ele>990.395146</ele>
        <time>2025-07-10T06:33:26.000Z</time>
      </trkpt>
      <trkpt lat="44.59327" lon="5.85624">
        <ele>990.481941</ele>
        <time>2025-07-10T06:33:27.000Z</time>
      </trkpt>
      <trkpt lat="44.59329" lon="5.85627">
        <ele>990.570371</ele>
        <time>2025-07-10T06:33:28.000Z</time>
      </trkpt>
      <trkpt lat="44.59331" lon="5.85629">
        <ele>990.661603</ele>
        <time>2025-07-10T06:33:29.000Z</time>
      </trkpt>
      <trkpt lat="44.59333" lon="5.85632">
        <ele>990.755144</ele>
        <time>2025-07-10T06:33:30.000Z</time>
      </trkpt>
      <trkpt lat="44.59335" lon="5.85635">
        <ele>990.848686</ele>
        <time>2025-07-10T06:33:31.000Z</time>
      </trkpt>
      <trkpt lat="44.59337" lon="5.85638">
        <ele>990.943992</ele>
        <time>2025-07-10T06:33:32.000Z</time>
      </trkpt>
      <trkpt lat="44.59339" lon="5.85641">
        <ele>991.039908</ele>
        <time>2025-07-10T06:33:33.000Z</time>
      </trkpt>
      <trkpt lat="44.59341" lon="5.85643">
        <ele>991.136609</ele>
        <time>2025-07-10T06:33:34.000Z</time>
      </trkpt>
      <trkpt lat="44.59343" lon="5.85646">
        <ele>991.23331</ele>
        <time>2025-07-10T06:33:35.000Z</time>
      </trkpt>
      <trkpt lat="44.59345" lon="5.85649">
        <ele>991.328617</ele>
        <time>2025-07-10T06:33:36.000Z</time>
      </trkpt>
      <trkpt lat="44.59347" lon="5.85652">
        <ele>991.426255</ele>
        <time>2025-07-10T06:33:37.000Z</time>
      </trkpt>
      <trkpt lat="44.59349" lon="5.85654">
        <ele>991.518819</ele>
        <time>2025-07-10T06:33:38.000Z</time>
      </trkpt>
      <trkpt lat="44.59351" lon="5.85657">
        <ele>991.610625</ele>
        <time>2025-07-10T06:33:39.000Z</time>
      </trkpt>
      <trkpt lat="44.59353" lon="5.8566">
        <ele>991.700578</ele>
        <time>2025-07-10T06:33:40.000Z</time>
      </trkpt>
      <trkpt lat="44.59355" lon="5.85662">
        <ele>991.787253</ele>
        <time>2025-07-10T06:33:41.000Z</time>
      </trkpt>
      <trkpt lat="44.59356" lon="5.85665">
        <ele>991.866011</ele>
        <time>2025-07-10T06:33:42.000Z</time>
      </trkpt>
      <trkpt lat="44.59358" lon="5.85667">
        <ele>991.950377</ele>
        <time>2025-07-10T06:33:43.000Z</time>
      </trkpt>
      <trkpt lat="44.5936" lon="5.8567">
        <ele>992.037052</ele>
        <time>2025-07-10T06:33:44.000Z</time>
      </trkpt>
      <trkpt lat="44.59362" lon="5.85673">
        <ele>992.122119</ele>
        <time>2025-07-10T06:33:45.000Z</time>
      </trkpt>
      <trkpt lat="44.59364" lon="5.85675">
        <ele>992.207187</ele>
        <time>2025-07-10T06:33:46.000Z</time>
      </trkpt>
      <trkpt lat="44.59366" lon="5.85678">
        <ele>992.293862</ele>
        <time>2025-07-10T06:33:47.000Z</time>
      </trkpt>
      <trkpt lat="44.59368" lon="5.8568">
        <ele>992.382176</ele>
        <time>2025-07-10T06:33:48.000Z</time>
      </trkpt>
      <trkpt lat="44.5937" lon="5.85683">
        <ele>992.469656</ele>
        <time>2025-07-10T06:33:49.000Z</time>
      </trkpt>
      <trkpt lat="44.59371" lon="5.85685">
        <ele>992.55008</ele>
        <time>2025-07-10T06:33:50.000Z</time>
      </trkpt>
      <trkpt lat="44.59373" lon="5.85688">
        <ele>992.632793</ele>
        <time>2025-07-10T06:33:51.000Z</time>
      </trkpt>
      <trkpt lat="44.59375" lon="5.8569">
        <ele>992.717861</ele>
        <time>2025-07-10T06:33:52.000Z</time>
      </trkpt>
      <trkpt lat="44.59377" lon="5.85693">
        <ele>992.802928</ele>
        <time>2025-07-10T06:33:53.000Z</time>
      </trkpt>
      <trkpt lat="44.59379" lon="5.85696">
        <ele>992.884651</ele>
        <time>2025-07-10T06:33:54.000Z</time>
      </trkpt>
      <trkpt lat="44.5938" lon="5.85698">
        <ele>992.963408</ele>
        <time>2025-07-10T06:33:55.000Z</time>
      </trkpt>
      <trkpt lat="44.59382" lon="5.857">
        <ele>993.047866</ele>
        <time>2025-07-10T06:33:56.000Z</time>
      </trkpt>
      <trkpt lat="44.59384" lon="5.85703">
        <ele>993.134876</ele>
        <time>2025-07-10T06:33:57.000Z</time>
      </trkpt>
      <trkpt lat="44.59386" lon="5.85705">
        <ele>993.222356</ele>
        <time>2025-07-10T06:33:58.000Z</time>
      </trkpt>
      <trkpt lat="44.59388" lon="5.85707">
        <ele>993.306814</ele>
        <time>2025-07-10T06:33:59.000Z</time>
      </trkpt>
      <trkpt lat="44.5939" lon="5.8571">
        <ele>993.38877</ele>
        <time>2025-07-10T06:34:00.000Z</time>
      </trkpt>
      <trkpt lat="44.59392" lon="5.85712">
        <ele>993.47262</ele>
        <time>2025-07-10T06:34:01.000Z</time>
      </trkpt>
      <trkpt lat="44.59394" lon="5.85715">
        <ele>993.55647</ele>
        <time>2025-07-10T06:34:02.000Z</time>
      </trkpt>
      <trkpt lat="44.59396" lon="5.85717">
        <ele>993.639964</ele>
        <time>2025-07-10T06:34:03.000Z</time>
      </trkpt>
      <trkpt lat="44.59398" lon="5.8572">
        <ele>993.732427</ele>
        <time>2025-07-10T06:34:04.000Z</time>
      </trkpt>
      <trkpt lat="44.594" lon="5.85723">
        <ele>993.825451</ele>
        <time>2025-07-10T06:34:05.000Z</time>
      </trkpt>
      <trkpt lat="44.59402" lon="5.85725">
        <ele>993.916919</ele>
        <time>2025-07-10T06:34:06.000Z</time>
      </trkpt>
      <trkpt lat="44.59404" lon="5.85728">
        <ele>994.014861</ele>
        <time>2025-07-10T06:34:07.000Z</time>
      </trkpt>
      <trkpt lat="44.59406" lon="5.8573">
        <ele>994.107324</ele>
        <time>2025-07-10T06:34:08.000Z</time>
      </trkpt>
      <trkpt lat="44.59409" lon="5.85733">
        <ele>994.198341</ele>
        <time>2025-07-10T06:34:09.000Z</time>
      </trkpt>
      <trkpt lat="44.59411" lon="5.85735">
        <ele>994.290804</ele>
        <time>2025-07-10T06:34:10.000Z</time>
      </trkpt>
      <trkpt lat="44.59413" lon="5.85738">
        <ele>994.377479</ele>
        <time>2025-07-10T06:34:11.000Z</time>
      </trkpt>
      <trkpt lat="44.59415" lon="5.8574">
        <ele>994.462546</ele>
        <time>2025-07-10T06:34:12.000Z</time>
      </trkpt>
      <trkpt lat="44.59416" lon="5.85743">
        <ele>994.541303</ele>
        <time>2025-07-10T06:34:13.000Z</time>
      </trkpt>
      <trkpt lat="44.59418" lon="5.85745">
        <ele>994.628313</ele>
        <time>2025-07-10T06:34:14.000Z</time>
      </trkpt>
      <trkpt lat="44.5942" lon="5.85748">
        <ele>994.711807</ele>
        <time>2025-07-10T06:34:15.000Z</time>
      </trkpt>
      <trkpt lat="44.59422" lon="5.8575">
        <ele>994.790563</ele>
        <time>2025-07-10T06:34:16.000Z</time>
      </trkpt>
      <trkpt lat="44.59424" lon="5.85752">
        <ele>994.870074</ele>
        <time>2025-07-10T06:34:17.000Z</time>
      </trkpt>
      <trkpt lat="44.59426" lon="5.85754">
        <ele>994.947653</ele>
        <time>2025-07-10T06:34:18.000Z</time>
      </trkpt>
      <trkpt lat="44.59428" lon="5.85757">
        <ele>995.029609</ele>
        <time>2025-07-10T06:34:19.000Z</time>
      </trkpt>
      <trkpt lat="44.5943" lon="5.85759">
        <ele>995.113102</ele>
        <time>2025-07-10T06:34:20.000Z</time>
      </trkpt>
      <trkpt lat="44.59431" lon="5.85761">
        <ele>995.196596</ele>
        <time>2025-07-10T06:34:21.000Z</time>
      </trkpt>
      <trkpt lat="44.59433" lon="5.85764">
        <ele>995.28009</ele>
        <time>2025-07-10T06:34:22.000Z</time>
      </trkpt>
      <trkpt lat="44.59435" lon="5.85766">
        <ele>995.367569</ele>
        <time>2025-07-10T06:34:23.000Z</time>
      </trkpt>
      <trkpt lat="44.59438" lon="5.85768">
        <ele>995.461208</ele>
        <time>2025-07-10T06:34:24.000Z</time>
      </trkpt>
      <trkpt lat="44.5944" lon="5.8577">
        <ele>995.552387</ele>
        <time>2025-07-10T06:34:25.000Z</time>
      </trkpt>
      <trkpt lat="44.59442" lon="5.85773">
        <ele>995.644637</ele>
        <time>2025-07-10T06:34:26.000Z</time>
      </trkpt>
      <trkpt lat="44.59445" lon="5.85775">
        <ele>995.735557</ele>
        <time>2025-07-10T06:34:27.000Z</time>
      </trkpt>
      <trkpt lat="44.59447" lon="5.85777">
        <ele>995.823941</ele>
        <time>2025-07-10T06:34:28.000Z</time>
      </trkpt>
      <trkpt lat="44.5945" lon="5.85779">
        <ele>995.916815</ele>
        <time>2025-07-10T06:34:29.000Z</time>
      </trkpt>
      <trkpt lat="44.59452" lon="5.85781">
        <ele>996.010818</ele>
        <time>2025-07-10T06:34:30.000Z</time>
      </trkpt>
      <trkpt lat="44.59455" lon="5.85783">
        <ele>996.105994</ele>
        <time>2025-07-10T06:34:31.000Z</time>
      </trkpt>
      <trkpt lat="44.59457" lon="5.85785">
        <ele>996.201753</ele>
        <time>2025-07-10T06:34:32.000Z</time>
      </trkpt>
      <trkpt lat="44.5946" lon="5.85787">
        <ele>996.290647</ele>
        <time>2025-07-10T06:34:33.000Z</time>
      </trkpt>
      <trkpt lat="44.59462" lon="5.85789">
        <ele>996.38066</ele>
        <time>2025-07-10T06:34:34.000Z</time>
      </trkpt>
      <trkpt lat="44.59464" lon="5.8579">
        <ele>996.468482</ele>
        <time>2025-07-10T06:34:35.000Z</time>
      </trkpt>
      <trkpt lat="44.59467" lon="5.85792">
        <ele>996.560271</ele>
        <time>2025-07-10T06:34:36.000Z</time>
      </trkpt>
      <trkpt lat="44.59469" lon="5.85794">
        <ele>996.647453</ele>
        <time>2025-07-10T06:34:37.000Z</time>
      </trkpt>
      <trkpt lat="44.59472" lon="5.85796">
        <ele>996.735275</ele>
        <time>2025-07-10T06:34:38.000Z</time>
      </trkpt>
      <trkpt lat="44.59474" lon="5.85797">
        <ele>996.830141</ele>
        <time>2025-07-10T06:34:39.000Z</time>
      </trkpt>
      <trkpt lat="44.59477" lon="5.85799">
        <ele>996.927247</ele>
        <time>2025-07-10T06:34:40.000Z</time>
      </trkpt>
      <trkpt lat="44.5948" lon="5.858">
        <ele>997.025158</ele>
        <time>2025-07-10T06:34:41.000Z</time>
      </trkpt>
      <trkpt lat="44.59483" lon="5.85802">
        <ele>997.120023</ele>
        <time>2025-07-10T06:34:42.000Z</time>
      </trkpt>
      <trkpt lat="44.59485" lon="5.85803">
        <ele>997.211858</ele>
        <time>2025-07-10T06:34:43.000Z</time>
      </trkpt>
      <trkpt lat="44.59488" lon="5.85804">
        <ele>997.308964</ele>
        <time>2025-07-10T06:34:44.000Z</time>
      </trkpt>
      <trkpt lat="44.59491" lon="5.85806">
        <ele>997.40149</ele>
        <time>2025-07-10T06:34:45.000Z</time>
      </trkpt>
      <trkpt lat="44.59493" lon="5.85807">
        <ele>997.490312</ele>
        <time>2025-07-10T06:34:46.000Z</time>
      </trkpt>
      <trkpt lat="44.59496" lon="5.85809">
        <ele>997.580064</ele>
        <time>2025-07-10T06:34:47.000Z</time>
      </trkpt>
      <trkpt lat="44.59499" lon="5.8581">
        <ele>997.672783</ele>
        <time>2025-07-10T06:34:48.000Z</time>
      </trkpt>
      <trkpt lat="44.59501" lon="5.85811">
        <ele>997.759376</ele>
        <time>2025-07-10T06:34:49.000Z</time>
      </trkpt>
      <trkpt lat="44.59504" lon="5.85812">
        <ele>997.850975</ele>
        <time>2025-07-10T06:34:50.000Z</time>
      </trkpt>
      <trkpt lat="44.59507" lon="5.85813">
        <ele>997.945685</ele>
        <time>2025-07-10T06:34:51.000Z</time>
      </trkpt>
      <trkpt lat="44.59509" lon="5.85813">
        <ele>998.030564</ele>
        <time>2025-07-10T06:34:52.000Z</time>
      </trkpt>
      <trkpt lat="44.59512" lon="5.85814">
        <ele>998.114986</ele>
        <time>2025-07-10T06:34:53.000Z</time>
      </trkpt>
      <trkpt lat="44.59515" lon="5.85815">
        <ele>998.205309</ele>
        <time>2025-07-10T06:34:54.000Z</time>
      </trkpt>
      <trkpt lat="44.59518" lon="5.85815">
        <ele>998.296003</ele>
        <time>2025-07-10T06:34:55.000Z</time>
      </trkpt>
      <trkpt lat="44.5952" lon="5.85816">
        <ele>998.377295</ele>
        <time>2025-07-10T06:34:56.000Z</time>
      </trkpt>
      <trkpt lat="44.59523" lon="5.85817">
        <ele>998.462174</ele>
        <time>2025-07-10T06:34:57.000Z</time>
      </trkpt>
      <trkpt lat="44.59525" lon="5.85817">
        <ele>998.549021</ele>
        <time>2025-07-10T06:34:58.000Z</time>
      </trkpt>
      <trkpt lat="44.59528" lon="5.85818">
        <ele>998.64175</ele>
        <time>2025-07-10T06:34:59.000Z</time>
      </trkpt>
      <trkpt lat="44.59531" lon="5.85818">
        <ele>998.724942</ele>
        <time>2025-07-10T06:35:00.000Z</time>
      </trkpt>
      <trkpt lat="44.59533" lon="5.85818">
        <ele>998.805181</ele>
        <time>2025-07-10T06:35:01.000Z</time>
      </trkpt>
      <trkpt lat="44.59536" lon="5.85819">
        <ele>998.894931</ele>
        <time>2025-07-10T06:35:02.000Z</time>
      </trkpt>
      <trkpt lat="44.59539" lon="5.85819">
        <ele>998.984682</ele>
        <time>2025-07-10T06:35:03.000Z</time>
      </trkpt>
      <trkpt lat="44.59542" lon="5.8582">
        <ele>999.077606</ele>
        <time>2025-07-10T06:35:04.000Z</time>
      </trkpt>
      <trkpt lat="44.59545" lon="5.8582">
        <ele>999.170085</ele>
        <time>2025-07-10T06:35:05.000Z</time>
      </trkpt>
      <trkpt lat="44.59548" lon="5.8582">
        <ele>999.262592</ele>
        <time>2025-07-10T06:35:06.000Z</time>
      </trkpt>
      <trkpt lat="44.59551" lon="5.8582">
        <ele>999.355071</ele>
        <time>2025-07-10T06:35:07.000Z</time>
      </trkpt>
      <trkpt lat="44.59554" lon="5.8582">
        <ele>999.450765</ele>
        <time>2025-07-10T06:35:08.000Z</time>
      </trkpt>
      <trkpt lat="44.59557" lon="5.85819">
        <ele>999.549857</ele>
        <time>2025-07-10T06:35:09.000Z</time>
      </trkpt>
      <trkpt lat="44.5956" lon="5.85819">
        <ele>999.645524</ele>
        <time>2025-07-10T06:35:10.000Z</time>
      </trkpt>
      <trkpt lat="44.59563" lon="5.85819">
        <ele>999.734843</ele>
        <time>2025-07-10T06:35:11.000Z</time>
      </trkpt>
      <trkpt lat="44.59566" lon="5.85819">
        <ele>999.830753</ele>
        <time>2025-07-10T06:35:12.000Z</time>
      </trkpt>
      <trkpt lat="44.59568" lon="5.85819">
        <ele>999.923483</ele>
        <time>2025-07-10T06:35:13.000Z</time>
      </trkpt>
      <trkpt lat="44.59571" lon="5.85818">
        <ele>1000.013233</ele>
        <time>2025-07-10T06:35:14.000Z</time>
      </trkpt>
      <trkpt lat="44.59574" lon="5.85818">
        <ele>1000.099604</ele>
        <time>2025-07-10T06:35:15.000Z</time>
      </trkpt>
      <trkpt lat="44.59577" lon="5.85818">
        <ele>1000.188922</ele>
        <time>2025-07-10T06:35:16.000Z</time>
      </trkpt>
      <trkpt lat="44.5958" lon="5.85818">
        <ele>1000.281429</ele>
        <time>2025-07-10T06:35:17.000Z</time>
      </trkpt>
      <trkpt lat="44.59583" lon="5.85818">
        <ele>1000.373908</ele>
        <time>2025-07-10T06:35:18.000Z</time>
      </trkpt>
      <trkpt lat="44.59586" lon="5.85818">
        <ele>1000.469684</ele>
        <time>2025-07-10T06:35:19.000Z</time>
      </trkpt>
      <trkpt lat="44.59589" lon="5.85818">
        <ele>1000.565351</ele>
        <time>2025-07-10T06:35:20.000Z</time>
      </trkpt>
      <trkpt lat="44.59592" lon="5.85818">
        <ele>1000.664234</ele>
        <time>2025-07-10T06:35:21.000Z</time>
      </trkpt>
      <trkpt lat="44.59595" lon="5.85817">
        <ele>1000.756825</ele>
        <time>2025-07-10T06:35:22.000Z</time>
      </trkpt>
      <trkpt lat="44.59597" lon="5.85817">
        <ele>1000.849554</ele>
        <time>2025-07-10T06:35:23.000Z</time>
      </trkpt>
      <trkpt lat="44.596" lon="5.85817">
        <ele>1000.942283</ele>
        <time>2025-07-10T06:35:24.000Z</time>
      </trkpt>
      <trkpt lat="44.59603" lon="5.85816">
        <ele>1001.038194</ele>
        <time>2025-07-10T06:35:25.000Z</time>
      </trkpt>
      <trkpt lat="44.59606" lon="5.85816">
        <ele>1001.124295</ele>
        <time>2025-07-10T06:35:26.000Z</time>
      </trkpt>
      <trkpt lat="44.59609" lon="5.85816">
        <ele>1001.216801</ele>
        <time>2025-07-10T06:35:27.000Z</time>
      </trkpt>
      <trkpt lat="44.59612" lon="5.85816">
        <ele>1001.30928</ele>
        <time>2025-07-10T06:35:28.000Z</time>
      </trkpt>
      <trkpt lat="44.59615" lon="5.85816">
        <ele>1001.398599</ele>
        <time>2025-07-10T06:35:29.000Z</time>
      </trkpt>
      <trkpt lat="44.59618" lon="5.85816">
        <ele>1001.491106</ele>
        <time>2025-07-10T06:35:30.000Z</time>
      </trkpt>
      <trkpt lat="44.5962" lon="5.85816">
        <ele>1001.583696</ele>
        <time>2025-07-10T06:35:31.000Z</time>
      </trkpt>
      <trkpt lat="44.59623" lon="5.85816">
        <ele>1001.676286</ele>
        <time>2025-07-10T06:35:32.000Z</time>
      </trkpt>
      <trkpt lat="44.59626" lon="5.85816">
        <ele>1001.765576</ele>
        <time>2025-07-10T06:35:33.000Z</time>
      </trkpt>
      <trkpt lat="44.59629" lon="5.85816">
        <ele>1001.8585</ele>
        <time>2025-07-10T06:35:34.000Z</time>
      </trkpt>
      <trkpt lat="44.59632" lon="5.85816">
        <ele>1001.951007</ele>
        <time>2025-07-10T06:35:35.000Z</time>
      </trkpt>
      <trkpt lat="44.59635" lon="5.85816">
        <ele>1002.043486</ele>
        <time>2025-07-10T06:35:36.000Z</time>
      </trkpt>
      <trkpt lat="44.59638" lon="5.85815">
        <ele>1002.133035</ele>
        <time>2025-07-10T06:35:37.000Z</time>
      </trkpt>
      <trkpt lat="44.59641" lon="5.85815">
        <ele>1002.225542</ele>
        <time>2025-07-10T06:35:38.000Z</time>
      </trkpt>
      <trkpt lat="44.59643" lon="5.85815">
        <ele>1002.318133</ele>
        <time>2025-07-10T06:35:39.000Z</time>
      </trkpt>
      <trkpt lat="44.59646" lon="5.85815">
        <ele>1002.413908</ele>
        <time>2025-07-10T06:35:40.000Z</time>
      </trkpt>
      <trkpt lat="44.59649" lon="5.85815">
        <ele>1002.506415</ele>
        <time>2025-07-10T06:35:41.000Z</time>
      </trkpt>
      <trkpt lat="44.59652" lon="5.85814">
        <ele>1002.595964</ele>
        <time>2025-07-10T06:35:42.000Z</time>
      </trkpt>
      <trkpt lat="44.59655" lon="5.85814">
        <ele>1002.688471</ele>
        <time>2025-07-10T06:35:43.000Z</time>
      </trkpt>
      <trkpt lat="44.59658" lon="5.85814">
        <ele>1002.781948</ele>
        <time>2025-07-10T06:35:44.000Z</time>
      </trkpt>
      <trkpt lat="44.59661" lon="5.85813">
        <ele>1002.871498</ele>
        <time>2025-07-10T06:35:45.000Z</time>
      </trkpt>
      <trkpt lat="44.59664" lon="5.85813">
        <ele>1002.964421</ele>
        <time>2025-07-10T06:35:46.000Z</time>
      </trkpt>
      <trkpt lat="44.59667" lon="5.85813">
        <ele>1003.057345</ele>
        <time>2025-07-10T06:35:47.000Z</time>
      </trkpt>
      <trkpt lat="44.59669" lon="5.85812">
        <ele>1003.149936</ele>
        <time>2025-07-10T06:35:48.000Z</time>
      </trkpt>
      <trkpt lat="44.59672" lon="5.85812">
        <ele>1003.242859</ele>
        <time>2025-07-10T06:35:49.000Z</time>
      </trkpt>
      <trkpt lat="44.59675" lon="5.85812">
        <ele>1003.331323</ele>
        <time>2025-07-10T06:35:50.000Z</time>
      </trkpt>
      <trkpt lat="44.59678" lon="5.85812">
        <ele>1003.418416</ele>
        <time>2025-07-10T06:35:51.000Z</time>
      </trkpt>
      <trkpt lat="44.59681" lon="5.85812">
        <ele>1003.502534</ele>
        <time>2025-07-10T06:35:52.000Z</time>
      </trkpt>
      <trkpt lat="44.59684" lon="5.85812">
        <ele>1003.586869</ele>
        <time>2025-07-10T06:35:53.000Z</time>
      </trkpt>
      <trkpt lat="44.59687" lon="5.85811">
        <ele>1003.671069</ele>
        <time>2025-07-10T06:35:54.000Z</time>
      </trkpt>
      <trkpt lat="44.59689" lon="5.85811">
        <ele>1003.755593</ele>
        <time>2025-07-10T06:35:55.000Z</time>
      </trkpt>
      <trkpt lat="44.59692" lon="5.85811">
        <ele>1003.845918</ele>
        <time>2025-07-10T06:35:56.000Z</time>
      </trkpt>
      <trkpt lat="44.59695" lon="5.85811">
        <ele>1003.933039</ele>
        <time>2025-07-10T06:35:57.000Z</time>
      </trkpt>
      <trkpt lat="44.59698" lon="5.8581">
        <ele>1004.020368</ele>
        <time>2025-07-10T06:35:58.000Z</time>
      </trkpt>
      <trkpt lat="44.59701" lon="5.8581">
        <ele>1004.107698</ele>
        <time>2025-07-10T06:35:59.000Z</time>
      </trkpt>
      <trkpt lat="44.59704" lon="5.8581">
        <ele>1004.198024</ele>
        <time>2025-07-10T06:36:00.000Z</time>
      </trkpt>
      <trkpt lat="44.59707" lon="5.8581">
        <ele>1004.285222</ele>
        <time>2025-07-10T06:36:01.000Z</time>
      </trkpt>
      <trkpt lat="44.5971" lon="5.85809">
        <ele>1004.372552</ele>
        <time>2025-07-10T06:36:02.000Z</time>
      </trkpt>
      <trkpt lat="44.59713" lon="5.85809">
        <ele>1004.459672</ele>
        <time>2025-07-10T06:36:03.000Z</time>
      </trkpt>
      <trkpt lat="44.59716" lon="5.85809">
        <ele>1004.549795</ele>
        <time>2025-07-10T06:36:04.000Z</time>
      </trkpt>
      <trkpt lat="44.59719" lon="5.8581">
        <ele>1004.643116</ele>
        <time>2025-07-10T06:36:05.000Z</time>
      </trkpt>
      <trkpt lat="44.59722" lon="5.8581">
        <ele>1004.73021</ele>
        <time>2025-07-10T06:36:06.000Z</time>
      </trkpt>
      <trkpt lat="44.59725" lon="5.8581">
        <ele>1004.814328</ele>
        <time>2025-07-10T06:36:07.000Z</time>
      </trkpt>
      <trkpt lat="44.59727" lon="5.85809">
        <ele>1004.901841</ele>
        <time>2025-07-10T06:36:08.000Z</time>
      </trkpt>
      <trkpt lat="44.5973" lon="5.85809">
        <ele>1004.98604</ele>
        <time>2025-07-10T06:36:09.000Z</time>
      </trkpt>
      <trkpt lat="44.59733" lon="5.85809">
        <ele>1005.073553</ele>
        <time>2025-07-10T06:36:10.000Z</time>
      </trkpt>
      <trkpt lat="44.59736" lon="5.85808">
        <ele>1005.157752</ele>
        <time>2025-07-10T06:36:11.000Z</time>
      </trkpt>
      <trkpt lat="44.59739" lon="5.85808">
        <ele>1005.247875</ele>
        <time>2025-07-10T06:36:12.000Z</time>
      </trkpt>
      <trkpt lat="44.59742" lon="5.85808">
        <ele>1005.334995</ele>
        <time>2025-07-10T06:36:13.000Z</time>
      </trkpt>
      <trkpt lat="44.59745" lon="5.85808">
        <ele>1005.425092</ele>
        <time>2025-07-10T06:36:14.000Z</time>
      </trkpt>
      <trkpt lat="44.59748" lon="5.85808">
        <ele>1005.515214</ele>
        <time>2025-07-10T06:36:15.000Z</time>
      </trkpt>
      <trkpt lat="44.59751" lon="5.85808">
        <ele>1005.60554</ele>
        <time>2025-07-10T06:36:16.000Z</time>
      </trkpt>
      <trkpt lat="44.59754" lon="5.85808">
        <ele>1005.695865</ele>
        <time>2025-07-10T06:36:17.000Z</time>
      </trkpt>
      <trkpt lat="44.59757" lon="5.85808">
        <ele>1005.789063</ele>
        <time>2025-07-10T06:36:18.000Z</time>
      </trkpt>
      <trkpt lat="44.5976" lon="5.85808">
        <ele>1005.882188</ele>
        <time>2025-07-10T06:36:19.000Z</time>
      </trkpt>
      <trkpt lat="44.59763" lon="5.85808">
        <ele>1005.966306</ele>
        <time>2025-07-10T06:36:20.000Z</time>
      </trkpt>
      <trkpt lat="44.59766" lon="5.85807">
        <ele>1006.050641</ele>
        <time>2025-07-10T06:36:21.000Z</time>
      </trkpt>
      <trkpt lat="44.59769" lon="5.85807">
        <ele>1006.14084</ele>
        <time>2025-07-10T06:36:22.000Z</time>
      </trkpt>
      <trkpt lat="44.59772" lon="5.85807">
        <ele>1006.231038</ele>
        <time>2025-07-10T06:36:23.000Z</time>
      </trkpt>
      <trkpt lat="44.59775" lon="5.85807">
        <ele>1006.321364</ele>
        <time>2025-07-10T06:36:24.000Z</time>
      </trkpt>
      <trkpt lat="44.59778" lon="5.85807">
        <ele>1006.411461</ele>
        <time>2025-07-10T06:36:25.000Z</time>
      </trkpt>
      <trkpt lat="44.59781" lon="5.85806">
        <ele>1006.49866</ele>
        <time>2025-07-10T06:36:26.000Z</time>
      </trkpt>
      <trkpt lat="44.59783" lon="5.85806">
        <ele>1006.582995</ele>
        <time>2025-07-10T06:36:27.000Z</time>
      </trkpt>
      <trkpt lat="44.59786" lon="5.85806">
        <ele>1006.667194</ele>
        <time>2025-07-10T06:36:28.000Z</time>
      </trkpt>
      <trkpt lat="44.59789" lon="5.85806">
        <ele>1006.757316</ele>
        <time>2025-07-10T06:36:29.000Z</time>
      </trkpt>
      <trkpt lat="44.59792" lon="5.85806">
        <ele>1006.841434</ele>
        <time>2025-07-10T06:36:30.000Z</time>
      </trkpt>
      <trkpt lat="44.59795" lon="5.85806">
        <ele>1006.928554</ele>
        <time>2025-07-10T06:36:31.000Z</time>
      </trkpt>
      <trkpt lat="44.59798" lon="5.85806">
        <ele>1007.012754</ele>
        <time>2025-07-10T06:36:32.000Z</time>
      </trkpt>
      <trkpt lat="44.598" lon="5.85805">
        <ele>1007.097089</ele>
        <time>2025-07-10T06:36:33.000Z</time>
      </trkpt>
      <trkpt lat="44.59803" lon="5.85805">
        <ele>1007.184183</ele>
        <time>2025-07-10T06:36:34.000Z</time>
      </trkpt>
      <trkpt lat="44.59806" lon="5.85805">
        <ele>1007.2683</ele>
        <time>2025-07-10T06:36:35.000Z</time>
      </trkpt>
      <trkpt lat="44.59809" lon="5.85806">
        <ele>1007.352418</ele>
        <time>2025-07-10T06:36:36.000Z</time>
      </trkpt>
      <trkpt lat="44.59812" lon="5.85806">
        <ele>1007.442617</ele>
        <time>2025-07-10T06:36:37.000Z</time>
      </trkpt>
      <trkpt lat="44.59815" lon="5.85806">
        <ele>1007.532815</ele>
        <time>2025-07-10T06:36:38.000Z</time>
      </trkpt>
      <trkpt lat="44.59818" lon="5.85806">
        <ele>1007.62594</ele>
        <time>2025-07-10T06:36:39.000Z</time>
      </trkpt>
      <trkpt lat="44.59821" lon="5.85806">
        <ele>1007.719261</ele>
        <time>2025-07-10T06:36:40.000Z</time>
      </trkpt>
      <trkpt lat="44.59824" lon="5.85806">
        <ele>1007.809587</ele>
        <time>2025-07-10T06:36:41.000Z</time>
      </trkpt>
      <trkpt lat="44.59827" lon="5.85806">
        <ele>1007.899912</ele>
        <time>2025-07-10T06:36:42.000Z</time>
      </trkpt>
      <trkpt lat="44.5983" lon="5.85806">
        <ele>1007.98403</ele>
        <time>2025-07-10T06:36:43.000Z</time>
      </trkpt>
      <trkpt lat="44.59833" lon="5.85806">
        <ele>1008.07115</ele>
        <time>2025-07-10T06:36:44.000Z</time>
      </trkpt>
      <trkpt lat="44.59836" lon="5.85805">
        <ele>1008.164275</ele>
        <time>2025-07-10T06:36:45.000Z</time>
      </trkpt>
      <trkpt lat="44.59839" lon="5.85805">
        <ele>1008.260473</ele>
        <time>2025-07-10T06:36:46.000Z</time>
      </trkpt>
      <trkpt lat="44.59842" lon="5.85805">
        <ele>1008.350571</ele>
        <time>2025-07-10T06:36:47.000Z</time>
      </trkpt>
      <trkpt lat="44.59845" lon="5.85805">
        <ele>1008.440769</ele>
        <time>2025-07-10T06:36:48.000Z</time>
      </trkpt>
      <trkpt lat="44.59848" lon="5.85805">
        <ele>1008.530968</ele>
        <time>2025-07-10T06:36:49.000Z</time>
      </trkpt>
      <trkpt lat="44.59851" lon="5.85805">
        <ele>1008.618088</ele>
        <time>2025-07-10T06:36:50.000Z</time>
      </trkpt>
      <trkpt lat="44.59854" lon="5.85805">
        <ele>1008.705406</ele>
        <time>2025-07-10T06:36:51.000Z</time>
      </trkpt>
      <trkpt lat="44.59857" lon="5.85805">
        <ele>1008.789763</ele>
        <time>2025-07-10T06:36:52.000Z</time>
      </trkpt>
      <trkpt lat="44.5986" lon="5.85805">
        <ele>1008.87412</ele>
        <time>2025-07-10T06:36:53.000Z</time>
      </trkpt>
      <trkpt lat="44.59862" lon="5.85804">
        <ele>1008.959157</ele>
        <time>2025-07-10T06:36:54.000Z</time>
      </trkpt>
      <trkpt lat="44.59865" lon="5.85804">
        <ele>1009.043949</ele>
        <time>2025-07-10T06:36:55.000Z</time>
      </trkpt>
      <trkpt lat="44.59868" lon="5.85804">
        <ele>1009.125294</ele>
        <time>2025-07-10T06:36:56.000Z</time>
      </trkpt>
      <trkpt lat="44.59871" lon="5.85804">
        <ele>1009.20976</ele>
        <time>2025-07-10T06:36:57.000Z</time>
      </trkpt>
      <trkpt lat="44.59873" lon="5.85805">
        <ele>1009.294553</ele>
        <time>2025-07-10T06:36:58.000Z</time>
      </trkpt>
      <trkpt lat="44.59876" lon="5.85805">
        <ele>1009.381923</ele>
        <time>2025-07-10T06:36:59.000Z</time>
      </trkpt>
      <trkpt lat="44.59879" lon="5.85804">
        <ele>1009.463719</ele>
        <time>2025-07-10T06:37:00.000Z</time>
      </trkpt>
      <trkpt lat="44.59882" lon="5.85804">
        <ele>1009.548321</ele>
        <time>2025-07-10T06:37:01.000Z</time>
      </trkpt>
      <trkpt lat="44.59885" lon="5.85804">
        <ele>1009.629694</ele>
        <time>2025-07-10T06:37:02.000Z</time>
      </trkpt>
      <trkpt lat="44.59887" lon="5.85804">
        <ele>1009.717169</ele>
        <time>2025-07-10T06:37:03.000Z</time>
      </trkpt>
      <trkpt lat="44.5989" lon="5.85804">
        <ele>1009.807552</ele>
        <time>2025-07-10T06:37:04.000Z</time>
      </trkpt>
      <trkpt lat="44.59893" lon="5.85804">
        <ele>1009.895343</ele>
        <time>2025-07-10T06:37:05.000Z</time>
      </trkpt>
      <trkpt lat="44.59896" lon="5.85804">
        <ele>1009.979727</ele>
        <time>2025-07-10T06:37:06.000Z</time>
      </trkpt>
      <trkpt lat="44.59899" lon="5.85804">
        <ele>1010.070212</ele>
        <time>2025-07-10T06:37:07.000Z</time>
      </trkpt>
      <trkpt lat="44.59902" lon="5.85804">
        <ele>1010.158002</ele>
        <time>2025-07-10T06:37:08.000Z</time>
      </trkpt>
      <trkpt lat="44.59905" lon="5.85803">
        <ele>1010.248614</ele>
        <time>2025-07-10T06:37:09.000Z</time>
      </trkpt>
      <trkpt lat="44.59908" lon="5.85803">
        <ele>1010.336089</ele>
        <time>2025-07-10T06:37:10.000Z</time>
      </trkpt>
      <trkpt lat="44.59911" lon="5.85803">
        <ele>1010.429706</ele>
        <time>2025-07-10T06:37:11.000Z</time>
      </trkpt>
      <trkpt lat="44.59914" lon="5.85802">
        <ele>1010.517313</ele>
        <time>2025-07-10T06:37:12.000Z</time>
      </trkpt>
      <trkpt lat="44.59917" lon="5.85802">
        <ele>1010.607925</ele>
        <time>2025-07-10T06:37:13.000Z</time>
      </trkpt>
      <trkpt lat="44.5992" lon="5.85802">
        <ele>1010.692961</ele>
        <time>2025-07-10T06:37:14.000Z</time>
      </trkpt>
      <trkpt lat="44.59922" lon="5.85801">
        <ele>1010.774419</ele>
        <time>2025-07-10T06:37:15.000Z</time>
      </trkpt>
      <trkpt lat="44.59925" lon="5.85801">
        <ele>1010.858803</ele>
        <time>2025-07-10T06:37:16.000Z</time>
      </trkpt>
      <trkpt lat="44.59928" lon="5.85802">
        <ele>1010.943269</ele>
        <time>2025-07-10T06:37:17.000Z</time>
      </trkpt>
      <trkpt lat="44.59931" lon="5.85802">
        <ele>1011.030639</ele>
        <time>2025-07-10T06:37:18.000Z</time>
      </trkpt>
      <trkpt lat="44.59934" lon="5.85801">
        <ele>1011.118036</ele>
        <time>2025-07-10T06:37:19.000Z</time>
      </trkpt>
      <trkpt lat="44.59937" lon="5.85801">
        <ele>1011.205432</ele>
        <time>2025-07-10T06:37:20.000Z</time>
      </trkpt>
      <trkpt lat="44.5994" lon="5.85801">
        <ele>1011.292829</ele>
        <time>2025-07-10T06:37:21.000Z</time>
      </trkpt>
      <trkpt lat="44.59943" lon="5.85801">
        <ele>1011.380225</ele>
        <time>2025-07-10T06:37:22.000Z</time>
      </trkpt>
      <trkpt lat="44.59945" lon="5.85801">
        <ele>1011.461683</ele>
        <time>2025-07-10T06:37:23.000Z</time>
      </trkpt>
      <trkpt lat="44.59948" lon="5.85801">
        <ele>1011.546067</ele>
        <time>2025-07-10T06:37:24.000Z</time>
      </trkpt>
      <trkpt lat="44.59951" lon="5.85801">
        <ele>1011.62744</ele>
        <time>2025-07-10T06:37:25.000Z</time>
      </trkpt>
      <trkpt lat="44.59954" lon="5.85801">
        <ele>1011.714836</ele>
        <time>2025-07-10T06:37:26.000Z</time>
      </trkpt>
      <trkpt lat="44.59957" lon="5.85801">
        <ele>1011.802206</ele>
        <time>2025-07-10T06:37:27.000Z</time>
      </trkpt>
      <trkpt lat="44.59959" lon="5.85801">
        <ele>1011.890232</ele>
        <time>2025-07-10T06:37:28.000Z</time>
      </trkpt>
      <trkpt lat="44.59962" lon="5.85801">
        <ele>1011.977839</ele>
        <time>2025-07-10T06:37:29.000Z</time>
      </trkpt>
      <trkpt lat="44.59965" lon="5.85801">
        <ele>1012.065209</ele>
        <time>2025-07-10T06:37:30.000Z</time>
      </trkpt>
      <trkpt lat="44.59968" lon="5.85801">
        <ele>1012.149675</ele>
        <time>2025-07-10T06:37:31.000Z</time>
      </trkpt>
      <trkpt lat="44.59971" lon="5.85801">
        <ele>1012.237151</ele>
        <time>2025-07-10T06:37:32.000Z</time>
      </trkpt>
      <trkpt lat="44.59974" lon="5.85802">
        <ele>1012.325177</ele>
        <time>2025-07-10T06:37:33.000Z</time>
      </trkpt>
      <trkpt lat="44.59977" lon="5.85802">
        <ele>1012.41349</ele>
        <time>2025-07-10T06:37:34.000Z</time>
      </trkpt>
      <trkpt lat="44.5998" lon="5.85802">
        <ele>1012.501096</ele>
        <time>2025-07-10T06:37:35.000Z</time>
      </trkpt>
      <trkpt lat="44.59982" lon="5.85802">
        <ele>1012.585481</ele>
        <time>2025-07-10T06:37:36.000Z</time>
      </trkpt>
      <trkpt lat="44.59985" lon="5.85802">
        <ele>1012.666854</ele>
        <time>2025-07-10T06:37:37.000Z</time>
      </trkpt>
      <trkpt lat="44.59988" lon="5.85802">
        <ele>1012.751646</ele>
        <time>2025-07-10T06:37:38.000Z</time>
      </trkpt>
      <trkpt lat="44.59991" lon="5.85802">
        <ele>1012.839043</ele>
        <time>2025-07-10T06:37:39.000Z</time>
      </trkpt>
      <trkpt lat="44.59994" lon="5.85802">
        <ele>1012.926439</ele>
        <time>2025-07-10T06:37:40.000Z</time>
      </trkpt>
      <trkpt lat="44.59997" lon="5.85802">
        <ele>1013.011042</ele>
        <time>2025-07-10T06:37:41.000Z</time>
      </trkpt>
      <trkpt lat="44.59999" lon="5.85802">
        <ele>1013.095426</ele>
        <time>2025-07-10T06:37:42.000Z</time>
      </trkpt>
      <trkpt lat="44.60002" lon="5.85802">
        <ele>1013.182901</ele>
        <time>2025-07-10T06:37:43.000Z</time>
      </trkpt>
      <trkpt lat="44.60005" lon="5.85802">
        <ele>1013.270272</ele>
        <time>2025-07-10T06:37:44.000Z</time>
      </trkpt>
      <trkpt lat="44.60008" lon="5.85802">
        <ele>1013.351644</ele>
        <time>2025-07-10T06:37:45.000Z</time>
      </trkpt>
      <trkpt lat="44.60011" lon="5.85802">
        <ele>1013.436029</ele>
        <time>2025-07-10T06:37:46.000Z</time>
      </trkpt>
      <trkpt lat="44.60014" lon="5.85802">
        <ele>1013.523399</ele>
        <time>2025-07-10T06:37:47.000Z</time>
      </trkpt>
      <trkpt lat="44.60016" lon="5.85802">
        <ele>1013.604772</ele>
        <time>2025-07-10T06:37:48.000Z</time>
      </trkpt>
      <trkpt lat="44.60019" lon="5.85802">
        <ele>1013.683834</ele>
        <time>2025-07-10T06:37:49.000Z</time>
      </trkpt>
      <trkpt lat="44.60022" lon="5.85801">
        <ele>1013.765433</ele>
        <time>2025-07-10T06:37:50.000Z</time>
      </trkpt>
      <trkpt lat="44.60024" lon="5.85801">
        <ele>1013.846891</ele>
        <time>2025-07-10T06:37:51.000Z</time>
      </trkpt>
      <trkpt lat="44.60027" lon="5.85801">
        <ele>1013.92224</ele>
        <time>2025-07-10T06:37:52.000Z</time>
      </trkpt>
      <trkpt lat="44.6003" lon="5.85802">
        <ele>1014.006843</ele>
        <time>2025-07-10T06:37:53.000Z</time>
      </trkpt>
      <trkpt lat="44.60032" lon="5.85802">
        <ele>1014.095248</ele>
        <time>2025-07-10T06:37:54.000Z</time>
      </trkpt>
      <trkpt lat="44.60035" lon="5.85802">
        <ele>1014.240357</ele>
        <time>2025-07-10T06:37:55.000Z</time>
      </trkpt>
      <trkpt lat="44.60038" lon="5.85802">
        <ele>1014.374409</ele>
        <time>2025-07-10T06:37:56.000Z</time>
      </trkpt>
      <trkpt lat="44.60041" lon="5.85803">
        <ele>1014.519934</ele>
        <time>2025-07-10T06:37:57.000Z</time>
      </trkpt>
      <trkpt lat="44.60043" lon="5.85804">
        <ele>1014.671646</ele>
        <time>2025-07-10T06:37:58.000Z</time>
      </trkpt>
      <trkpt lat="44.60046" lon="5.85804">
        <ele>1014.826496</ele>
        <time>2025-07-10T06:37:59.000Z</time>
      </trkpt>
      <trkpt lat="44.60049" lon="5.85804">
        <ele>1014.97606</ele>
        <time>2025-07-10T06:38:00.000Z</time>
      </trkpt>
      <trkpt lat="44.60052" lon="5.85804">
        <ele>1015.130779</ele>
        <time>2025-07-10T06:38:01.000Z</time>
      </trkpt>
      <trkpt lat="44.60055" lon="5.85804">
        <ele>1015.275142</ele>
        <time>2025-07-10T06:38:02.000Z</time>
      </trkpt>
      <trkpt lat="44.60058" lon="5.85804">
        <ele>1015.41435</ele>
        <time>2025-07-10T06:38:03.000Z</time>
      </trkpt>
      <trkpt lat="44.60061" lon="5.85804">
        <ele>1015.57456</ele>
        <time>2025-07-10T06:38:04.000Z</time>
      </trkpt>
      <trkpt lat="44.60064" lon="5.85804">
        <ele>1015.71911</ele>
        <time>2025-07-10T06:38:05.000Z</time>
      </trkpt>
      <trkpt lat="44.60067" lon="5.85804">
        <ele>1015.873829</ele>
        <time>2025-07-10T06:38:06.000Z</time>
      </trkpt>
      <trkpt lat="44.6007" lon="5.85804">
        <ele>1016.028548</ele>
        <time>2025-07-10T06:38:07.000Z</time>
      </trkpt>
      <trkpt lat="44.60073" lon="5.85804">
        <ele>1016.178787</ele>
        <time>2025-07-10T06:38:08.000Z</time>
      </trkpt>
      <trkpt lat="44.60075" lon="5.85805">
        <ele>1016.318767</ele>
        <time>2025-07-10T06:38:09.000Z</time>
      </trkpt>
      <trkpt lat="44.60078" lon="5.85805">
        <ele>1016.458747</ele>
        <time>2025-07-10T06:38:10.000Z</time>
      </trkpt>
      <trkpt lat="44.60081" lon="5.85805">
        <ele>1016.608311</ele>
        <time>2025-07-10T06:38:11.000Z</time>
      </trkpt>
      <trkpt lat="44.60084" lon="5.85805">
        <ele>1016.752862</ele>
        <time>2025-07-10T06:38:12.000Z</time>
      </trkpt>
      <trkpt lat="44.60087" lon="5.85805">
        <ele>1016.897272</ele>
        <time>2025-07-10T06:38:13.000Z</time>
      </trkpt>
      <trkpt lat="44.60089" lon="5.85805">
        <ele>1017.031374</ele>
        <time>2025-07-10T06:38:14.000Z</time>
      </trkpt>
      <trkpt lat="44.60092" lon="5.85805">
        <ele>1017.160322</ele>
        <time>2025-07-10T06:38:15.000Z</time>
      </trkpt>
      <trkpt lat="44.60094" lon="5.85804">
        <ele>1017.294575</ele>
        <time>2025-07-10T06:38:16.000Z</time>
      </trkpt>
      <trkpt lat="44.60097" lon="5.85804">
        <ele>1017.423523</ele>
        <time>2025-07-10T06:38:17.000Z</time>
      </trkpt>
      <trkpt lat="44.60099" lon="5.85804">
        <ele>1017.552472</ele>
        <time>2025-07-10T06:38:18.000Z</time>
      </trkpt>
      <trkpt lat="44.60102" lon="5.85804">
        <ele>1017.686524</ele>
        <time>2025-07-10T06:38:19.000Z</time>
      </trkpt>
      <trkpt lat="44.60105" lon="5.85804">
        <ele>1017.82578</ele>
        <time>2025-07-10T06:38:20.000Z</time>
      </trkpt>
      <trkpt lat="44.60107" lon="5.85804">
        <ele>1017.960033</ele>
        <time>2025-07-10T06:38:21.000Z</time>
      </trkpt>
      <trkpt lat="44.6011" lon="5.85804">
        <ele>1018.094135</ele>
        <time>2025-07-10T06:38:22.000Z</time>
      </trkpt>
      <trkpt lat="44.60112" lon="5.85804">
        <ele>1018.228237</ele>
        <time>2025-07-10T06:38:23.000Z</time>
      </trkpt>
      <trkpt lat="44.60115" lon="5.85804">
        <ele>1018.36274</ele>
        <time>2025-07-10T06:38:24.000Z</time>
      </trkpt>
      <trkpt lat="44.60118" lon="5.85803">
        <ele>1018.49859</ele>
        <time>2025-07-10T06:38:25.000Z</time>
      </trkpt>
      <trkpt lat="44.6012" lon="5.85803">
        <ele>1018.637846</ele>
        <time>2025-07-10T06:38:26.000Z</time>
      </trkpt>
      <trkpt lat="44.60123" lon="5.85803">
        <ele>1018.771948</ele>
        <time>2025-07-10T06:38:27.000Z</time>
      </trkpt>
      <trkpt lat="44.60125" lon="5.85803">
        <ele>1018.90605</ele>
        <time>2025-07-10T06:38:28.000Z</time>
      </trkpt>
      <trkpt lat="44.60128" lon="5.85803">
        <ele>1019.040303</ele>
        <time>2025-07-10T06:38:29.000Z</time>
      </trkpt>
      <trkpt lat="44.60131" lon="5.85803">
        <ele>1019.174556</ele>
        <time>2025-07-10T06:38:30.000Z</time>
      </trkpt>
      <trkpt lat="44.60133" lon="5.85803">
        <ele>1019.293197</ele>
        <time>2025-07-10T06:38:31.000Z</time>
      </trkpt>
      <trkpt lat="44.60135" lon="5.85804">
        <ele>1019.416992</ele>
        <time>2025-07-10T06:38:32.000Z</time>
      </trkpt>
      <trkpt lat="44.60138" lon="5.85803">
        <ele>1019.54095</ele>
        <time>2025-07-10T06:38:33.000Z</time>
      </trkpt>
      <trkpt lat="44.6014" lon="5.85804">
        <ele>1019.660946</ele>
        <time>2025-07-10T06:38:34.000Z</time>
      </trkpt>
      <trkpt lat="44.60142" lon="5.85804">
        <ele>1019.779587</ele>
        <time>2025-07-10T06:38:35.000Z</time>
      </trkpt>
      <trkpt lat="44.60145" lon="5.85804">
        <ele>1019.898228</ele>
        <time>2025-07-10T06:38:36.000Z</time>
      </trkpt>
      <trkpt lat="44.60147" lon="5.85804">
        <ele>1020.016813</ele>
        <time>2025-07-10T06:38:37.000Z</time>
      </trkpt>
      <trkpt lat="44.60149" lon="5.85804">
        <ele>1020.125148</ele>
        <time>2025-07-10T06:38:38.000Z</time>
      </trkpt>
      <trkpt lat="44.60151" lon="5.85804">
        <ele>1020.244242</ele>
        <time>2025-07-10T06:38:39.000Z</time>
      </trkpt>
      <trkpt lat="44.60154" lon="5.85805">
        <ele>1020.363054</ele>
        <time>2025-07-10T06:38:40.000Z</time>
      </trkpt>
      <trkpt lat="44.60156" lon="5.85805">
        <ele>1020.476542</ele>
        <time>2025-07-10T06:38:41.000Z</time>
      </trkpt>
      <trkpt lat="44.60158" lon="5.85804">
        <ele>1020.591446</ele>
        <time>2025-07-10T06:38:42.000Z</time>
      </trkpt>
      <trkpt lat="44.6016" lon="5.85804">
        <ele>1020.710087</ele>
        <time>2025-07-10T06:38:43.000Z</time>
      </trkpt>
      <trkpt lat="44.60163" lon="5.85804">
        <ele>1020.824462</ele>
        <time>2025-07-10T06:38:44.000Z</time>
      </trkpt>
      <trkpt lat="44.60165" lon="5.85804">
        <ele>1020.932735</ele>
        <time>2025-07-10T06:38:45.000Z</time>
      </trkpt>
      <trkpt lat="44.60167" lon="5.85804">
        <ele>1021.041999</ele>
        <time>2025-07-10T06:38:46.000Z</time>
      </trkpt>
      <trkpt lat="44.60169" lon="5.85804">
        <ele>1021.161995</ele>
        <time>2025-07-10T06:38:47.000Z</time>
      </trkpt>
      <trkpt lat="44.60171" lon="5.85804">
        <ele>1021.280806</ele>
        <time>2025-07-10T06:38:48.000Z</time>
      </trkpt>
      <trkpt lat="44.60174" lon="5.85804">
        <ele>1021.394472</ele>
        <time>2025-07-10T06:38:49.000Z</time>
      </trkpt>
      <trkpt lat="44.60176" lon="5.85804">
        <ele>1021.502807</ele>
        <time>2025-07-10T06:38:50.000Z</time>
      </trkpt>
      <trkpt lat="44.60178" lon="5.85804">
        <ele>1021.611142</ele>
        <time>2025-07-10T06:38:51.000Z</time>
      </trkpt>
      <trkpt lat="44.6018" lon="5.85804">
        <ele>1021.719477</ele>
        <time>2025-07-10T06:38:52.000Z</time>
      </trkpt>
      <trkpt lat="44.60182" lon="5.85804">
        <ele>1021.832906</ele>
        <time>2025-07-10T06:38:53.000Z</time>
      </trkpt>
      <trkpt lat="44.60184" lon="5.85803">
        <ele>1021.941737</ele>
        <time>2025-07-10T06:38:54.000Z</time>
      </trkpt>
      <trkpt lat="44.60186" lon="5.85803">
        <ele>1022.055403</ele>
        <time>2025-07-10T06:38:55.000Z</time>
      </trkpt>
      <trkpt lat="44.60188" lon="5.85804">
        <ele>1022.164667</ele>
        <time>2025-07-10T06:38:56.000Z</time>
      </trkpt>
      <trkpt lat="44.60191" lon="5.85804">
        <ele>1022.273931</ele>
        <time>2025-07-10T06:38:57.000Z</time>
      </trkpt>
      <trkpt lat="44.60193" lon="5.85804">
        <ele>1022.377308</ele>
        <time>2025-07-10T06:38:58.000Z</time>
      </trkpt>
      <trkpt lat="44.60195" lon="5.85804">
        <ele>1022.48583</ele>
        <time>2025-07-10T06:38:59.000Z</time>
      </trkpt>
      <trkpt lat="44.60197" lon="5.85804">
        <ele>1022.594165</ele>
        <time>2025-07-10T06:39:00.000Z</time>
      </trkpt>
      <trkpt lat="44.60199" lon="5.85804">
        <ele>1022.702437</ele>
        <time>2025-07-10T06:39:01.000Z</time>
      </trkpt>
      <trkpt lat="44.60201" lon="5.85804">
        <ele>1022.805554</ele>
        <time>2025-07-10T06:39:02.000Z</time>
      </trkpt>
      <trkpt lat="44.60203" lon="5.85804">
        <ele>1022.908736</ele>
        <time>2025-07-10T06:39:03.000Z</time>
      </trkpt>
      <trkpt lat="44.60205" lon="5.85804">
        <ele>1023.011919</ele>
        <time>2025-07-10T06:39:04.000Z</time>
      </trkpt>
      <trkpt lat="44.60207" lon="5.85804">
        <ele>1023.10988</ele>
        <time>2025-07-10T06:39:05.000Z</time>
      </trkpt>
      <trkpt lat="44.60209" lon="5.85803">
        <ele>1023.213257</ele>
        <time>2025-07-10T06:39:06.000Z</time>
      </trkpt>
      <trkpt lat="44.60211" lon="5.85803">
        <ele>1023.316961</ele>
        <time>2025-07-10T06:39:07.000Z</time>
      </trkpt>
      <trkpt lat="44.60213" lon="5.85803">
        <ele>1023.44672</ele>
        <time>2025-07-10T06:39:08.000Z</time>
      </trkpt>
      <trkpt lat="44.60215" lon="5.85803">
        <ele>1023.602901</ele>
        <time>2025-07-10T06:39:09.000Z</time>
      </trkpt>
      <trkpt lat="44.60217" lon="5.85803">
        <ele>1023.767287</ele>
        <time>2025-07-10T06:39:10.000Z</time>
      </trkpt>
      <trkpt lat="44.60219" lon="5.85802">
        <ele>1023.924273</ele>
        <time>2025-07-10T06:39:11.000Z</time>
      </trkpt>
      <trkpt lat="44.60221" lon="5.85802">
        <ele>1024.080543</ele>
        <time>2025-07-10T06:39:12.000Z</time>
      </trkpt>
      <trkpt lat="44.60223" lon="5.85802">
        <ele>1024.244161</ele>
        <time>2025-07-10T06:39:13.000Z</time>
      </trkpt>
      <trkpt lat="44.60226" lon="5.85802">
        <ele>1024.415951</ele>
        <time>2025-07-10T06:39:14.000Z</time>
      </trkpt>
      <trkpt lat="44.60228" lon="5.85802">
        <ele>1024.579568</ele>
        <time>2025-07-10T06:39:15.000Z</time>
      </trkpt>
      <trkpt lat="44.6023" lon="5.85802">
        <ele>1024.728688</ele>
        <time>2025-07-10T06:39:16.000Z</time>
      </trkpt>
      <trkpt lat="44.60232" lon="5.85802">
        <ele>1024.877525</ele>
        <time>2025-07-10T06:39:17.000Z</time>
      </trkpt>
      <trkpt lat="44.60234" lon="5.85802">
        <ele>1025.033705</ele>
        <time>2025-07-10T06:39:18.000Z</time>
      </trkpt>
      <trkpt lat="44.60236" lon="5.85802">
        <ele>1025.190691</ele>
        <time>2025-07-10T06:39:19.000Z</time>
      </trkpt>
      <trkpt lat="44.60238" lon="5.85802">
        <ele>1025.362073</ele>
        <time>2025-07-10T06:39:20.000Z</time>
      </trkpt>
      <trkpt lat="44.60241" lon="5.85802">
        <ele>1025.534434</ele>
        <time>2025-07-10T06:39:21.000Z</time>
      </trkpt>
      <trkpt lat="44.60243" lon="5.85802">
        <ele>1025.69142</ele>
        <time>2025-07-10T06:39:22.000Z</time>
      </trkpt>
      <trkpt lat="44.60245" lon="5.85802">
        <ele>1025.833122</ele>
        <time>2025-07-10T06:39:23.000Z</time>
      </trkpt>
      <trkpt lat="44.60247" lon="5.85803">
        <ele>1025.990108</ele>
        <time>2025-07-10T06:39:24.000Z</time>
      </trkpt>
      <trkpt lat="44.60249" lon="5.85802">
        <ele>1026.154495</ele>
        <time>2025-07-10T06:39:25.000Z</time>
      </trkpt>
      <trkpt lat="44.60251" lon="5.85803">
        <ele>1026.303615</ele>
        <time>2025-07-10T06:39:26.000Z</time>
      </trkpt>
      <trkpt lat="44.60253" lon="5.85802">
        <ele>1026.467574</ele>
        <time>2025-07-10T06:39:27.000Z</time>
      </trkpt>
      <trkpt lat="44.60255" lon="5.85802">
        <ele>1026.623844</ele>
        <time>2025-07-10T06:39:28.000Z</time>
      </trkpt>
      <trkpt lat="44.60257" lon="5.85802">
        <ele>1026.772964</ele>
        <time>2025-07-10T06:39:29.000Z</time>
      </trkpt>
      <trkpt lat="44.60259" lon="5.85802">
        <ele>1026.907251</ele>
        <time>2025-07-10T06:39:30.000Z</time>
      </trkpt>
      <trkpt lat="44.60261" lon="5.85802">
        <ele>1027.063521</ele>
        <time>2025-07-10T06:39:31.000Z</time>
      </trkpt>
      <trkpt lat="44.60263" lon="5.85802">
        <ele>1027.197494</ele>
        <time>2025-07-10T06:39:32.000Z</time>
      </trkpt>
      <trkpt lat="44.60265" lon="5.85802">
        <ele>1027.331363</ele>
        <time>2025-07-10T06:39:33.000Z</time>
      </trkpt>
      <trkpt lat="44.60267" lon="5.85802">
        <ele>1027.458237</ele>
        <time>2025-07-10T06:39:34.000Z</time>
      </trkpt>
      <trkpt lat="44.60268" lon="5.85802">
        <ele>1027.599543</ele>
        <time>2025-07-10T06:39:35.000Z</time>
      </trkpt>
      <trkpt lat="44.6027" lon="5.85802">
        <ele>1027.733517</ele>
        <time>2025-07-10T06:39:36.000Z</time>
      </trkpt>
      <trkpt lat="44.60272" lon="5.85802">
        <ele>1027.86749</ele>
        <time>2025-07-10T06:39:37.000Z</time>
      </trkpt>
      <trkpt lat="44.60274" lon="5.85802">
        <ele>1028.001463</ele>
        <time>2025-07-10T06:39:38.000Z</time>
      </trkpt>
      <trkpt lat="44.60276" lon="5.85802">
        <ele>1028.142769</ele>
        <time>2025-07-10T06:39:39.000Z</time>
      </trkpt>
      <trkpt lat="44.60278" lon="5.85802">
        <ele>1028.276743</ele>
        <time>2025-07-10T06:39:40.000Z</time>
      </trkpt>
      <trkpt lat="44.60279" lon="5.85802">
        <ele>1028.418148</ele>
        <time>2025-07-10T06:39:41.000Z</time>
      </trkpt>
      <trkpt lat="44.60281" lon="5.85802">
        <ele>1028.552121</ele>
        <time>2025-07-10T06:39:42.000Z</time>
      </trkpt>
      <trkpt lat="44.60283" lon="5.85802">
        <ele>1028.686094</ele>
        <time>2025-07-10T06:39:43.000Z</time>
      </trkpt>
      <trkpt lat="44.60285" lon="5.85803">
        <ele>1028.820381</ele>
        <time>2025-07-10T06:39:44.000Z</time>
      </trkpt>
      <trkpt lat="44.60287" lon="5.85803">
        <ele>1028.962577</ele>
        <time>2025-07-10T06:39:45.000Z</time>
      </trkpt>
      <trkpt lat="44.60289" lon="5.85803">
        <ele>1029.104773</ele>
        <time>2025-07-10T06:39:46.000Z</time>
      </trkpt>
      <trkpt lat="44.6029" lon="5.85803">
        <ele>1029.231205</ele>
        <time>2025-07-10T06:39:47.000Z</time>
      </trkpt>
      <trkpt lat="44.60292" lon="5.85803">
        <ele>1029.374089</ele>
        <time>2025-07-10T06:39:48.000Z</time>
      </trkpt>
      <trkpt lat="44.60294" lon="5.85803">
        <ele>1029.515395</ele>
        <time>2025-07-10T06:39:49.000Z</time>
      </trkpt>
      <trkpt lat="44.60296" lon="5.85803">
        <ele>1029.634508</ele>
        <time>2025-07-10T06:39:50.000Z</time>
      </trkpt>
      <trkpt lat="44.60298" lon="5.85802">
        <ele>1029.777392</ele>
        <time>2025-07-10T06:39:51.000Z</time>
      </trkpt>
      <trkpt lat="44.60299" lon="5.85802">
        <ele>1029.9122</ele>
        <time>2025-07-10T06:39:52.000Z</time>
      </trkpt>
      <trkpt lat="44.60301" lon="5.85802">
        <ele>1030.046069</ele>
        <time>2025-07-10T06:39:53.000Z</time>
      </trkpt>
      <trkpt lat="44.60303" lon="5.85802">
        <ele>1030.173494</ele>
        <time>2025-07-10T06:39:54.000Z</time>
      </trkpt>
      <trkpt lat="44.60305" lon="5.85803">
        <ele>1030.32262</ele>
        <time>2025-07-10T06:39:55.000Z</time>
      </trkpt>
      <trkpt lat="44.60307" lon="5.85803">
        <ele>1030.463926</ele>
        <time>2025-07-10T06:39:56.000Z</time>
      </trkpt>
      <trkpt lat="44.60308" lon="5.85803">
        <ele>1030.583038</ele>
        <time>2025-07-10T06:39:57.000Z</time>
      </trkpt>
      <trkpt lat="44.6031" lon="5.85803">
        <ele>1030.717012</ele>
        <time>2025-07-10T06:39:58.000Z</time>
      </trkpt>
      <trkpt lat="44.60312" lon="5.85803">
        <ele>1030.858417</ele>
        <time>2025-07-10T06:39:59.000Z</time>
      </trkpt>
      <trkpt lat="44.60314" lon="5.85803">
        <ele>1030.984959</ele>
        <time>2025-07-10T06:40:00.000Z</time>
      </trkpt>
      <trkpt lat="44.60316" lon="5.85803">
        <ele>1031.119246</ele>
        <time>2025-07-10T06:40:01.000Z</time>
      </trkpt>
      <trkpt lat="44.60317" lon="5.85803">
        <ele>1031.253115</ele>
        <time>2025-07-10T06:40:02.000Z</time>
      </trkpt>
      <trkpt lat="44.60319" lon="5.85803">
        <ele>1031.401952</ele>
        <time>2025-07-10T06:40:03.000Z</time>
      </trkpt>
      <trkpt lat="44.60321" lon="5.85803">
        <ele>1031.543357</ele>
        <time>2025-07-10T06:40:04.000Z</time>
      </trkpt>
      <trkpt lat="44.60323" lon="5.85803">
        <ele>1031.67733</ele>
        <time>2025-07-10T06:40:05.000Z</time>
      </trkpt>
      <trkpt lat="44.60325" lon="5.85803">
        <ele>1031.818735</ele>
        <time>2025-07-10T06:40:06.000Z</time>
      </trkpt>
      <trkpt lat="44.60327" lon="5.85803">
        <ele>1031.960931</ele>
        <time>2025-07-10T06:40:07.000Z</time>
      </trkpt>
      <trkpt lat="44.60329" lon="5.85803">
        <ele>1032.102634</ele>
        <time>2025-07-10T06:40:08.000Z</time>
      </trkpt>
      <trkpt lat="44.60331" lon="5.85803">
        <ele>1032.252222</ele>
        <time>2025-07-10T06:40:09.000Z</time>
      </trkpt>
      <trkpt lat="44.60332" lon="5.85803">
        <ele>1032.379097</ele>
        <time>2025-07-10T06:40:10.000Z</time>
      </trkpt>
      <trkpt lat="44.60334" lon="5.85803">
        <ele>1032.498209</ele>
        <time>2025-07-10T06:40:11.000Z</time>
      </trkpt>
      <trkpt lat="44.60336" lon="5.85803">
        <ele>1032.624751</ele>
        <time>2025-07-10T06:40:12.000Z</time>
      </trkpt>
      <trkpt lat="44.60338" lon="5.85804">
        <ele>1032.758725</ele>
        <time>2025-07-10T06:40:13.000Z</time>
      </trkpt>
      <trkpt lat="44.60339" lon="5.85804">
        <ele>1032.892698</ele>
        <time>2025-07-10T06:40:14.000Z</time>
      </trkpt>
      <trkpt lat="44.60341" lon="5.85804">
        <ele>1033.019241</ele>
        <time>2025-07-10T06:40:15.000Z</time>
      </trkpt>
      <trkpt lat="44.60343" lon="5.85804">
        <ele>1033.138705</ele>
        <time>2025-07-10T06:40:16.000Z</time>
      </trkpt>
      <trkpt lat="44.60345" lon="5.85803">
        <ele>1033.280901</ele>
        <time>2025-07-10T06:40:17.000Z</time>
      </trkpt>
      <trkpt lat="44.60346" lon="5.85803">
        <ele>1033.41477</ele>
        <time>2025-07-10T06:40:18.000Z</time>
      </trkpt>
      <trkpt lat="44.60348" lon="5.85803">
        <ele>1033.541312</ele>
        <time>2025-07-10T06:40:19.000Z</time>
      </trkpt>
      <trkpt lat="44.6035" lon="5.85803">
        <ele>1033.682717</ele>
        <time>2025-07-10T06:40:20.000Z</time>
      </trkpt>
      <trkpt lat="44.60352" lon="5.85803">
        <ele>1033.824023</ele>
        <time>2025-07-10T06:40:21.000Z</time>
      </trkpt>
      <trkpt lat="44.60354" lon="5.85803">
        <ele>1033.965428</ele>
        <time>2025-07-10T06:40:22.000Z</time>
      </trkpt>
      <trkpt lat="44.60356" lon="5.85803">
        <ele>1034.099402</ele>
        <time>2025-07-10T06:40:23.000Z</time>
      </trkpt>
      <trkpt lat="44.60357" lon="5.85803">
        <ele>1034.233375</ele>
        <time>2025-07-10T06:40:24.000Z</time>
      </trkpt>
      <trkpt lat="44.60359" lon="5.85803">
        <ele>1034.359918</ele>
        <time>2025-07-10T06:40:25.000Z</time>
      </trkpt>
      <trkpt lat="44.60361" lon="5.85802">
        <ele>1034.495451</ele>
        <time>2025-07-10T06:40:26.000Z</time>
      </trkpt>
      <trkpt lat="44.60363" lon="5.85802">
        <ele>1034.627204</ele>
        <time>2025-07-10T06:40:27.000Z</time>
      </trkpt>
      <trkpt lat="44.60364" lon="5.85801">
        <ele>1034.756378</ele>
        <time>2025-07-10T06:40:28.000Z</time>
      </trkpt>
      <trkpt lat="44.60366" lon="5.85802">
        <ele>1034.906622</ele>
        <time>2025-07-10T06:40:29.000Z</time>
      </trkpt>
      <trkpt lat="44.60368" lon="5.85802">
        <ele>1035.047928</ele>
        <time>2025-07-10T06:40:30.000Z</time>
      </trkpt>
      <trkpt lat="44.6037" lon="5.85801">
        <ele>1035.18963</ele>
        <time>2025-07-10T06:40:31.000Z</time>
      </trkpt>
      <trkpt lat="44.60372" lon="5.85801">
        <ele>1035.323603</ele>
        <time>2025-07-10T06:40:32.000Z</time>
      </trkpt>
      <trkpt lat="44.60374" lon="5.85801">
        <ele>1035.47244</ele>
        <time>2025-07-10T06:40:33.000Z</time>
      </trkpt>
      <trkpt lat="44.60376" lon="5.85801">
        <ele>1035.62156</ele>
        <time>2025-07-10T06:40:34.000Z</time>
      </trkpt>
      <trkpt lat="44.60378" lon="5.85801">
        <ele>1035.757094</ele>
        <time>2025-07-10T06:40:35.000Z</time>
      </trkpt>
      <trkpt lat="44.60379" lon="5.85801">
        <ele>1035.891902</ele>
        <time>2025-07-10T06:40:36.000Z</time>
      </trkpt>
      <trkpt lat="44.60381" lon="5.85801">
        <ele>1036.040739</ele>
        <time>2025-07-10T06:40:37.000Z</time>
      </trkpt>
      <trkpt lat="44.60383" lon="5.85801">
        <ele>1036.175026</ele>
        <time>2025-07-10T06:40:38.000Z</time>
      </trkpt>
      <trkpt lat="44.60385" lon="5.85801">
        <ele>1036.309834</ele>
        <time>2025-07-10T06:40:39.000Z</time>
      </trkpt>
      <trkpt lat="44.60387" lon="5.85801">
        <ele>1036.443807</ele>
        <time>2025-07-10T06:40:40.000Z</time>
      </trkpt>
      <trkpt lat="44.60389" lon="5.85801">
        <ele>1036.592645</ele>
        <time>2025-07-10T06:40:41.000Z</time>
      </trkpt>
      <trkpt lat="44.60391" lon="5.85801">
        <ele>1036.719076</ele>
        <time>2025-07-10T06:40:42.000Z</time>
      </trkpt>
      <trkpt lat="44.60392" lon="5.85801">
        <ele>1036.84227</ele>
        <time>2025-07-10T06:40:43.000Z</time>
      </trkpt>
      <trkpt lat="44.60394" lon="5.85801">
        <ele>1036.962844</ele>
        <time>2025-07-10T06:40:44.000Z</time>
      </trkpt>
      <trkpt lat="44.60396" lon="5.85801">
        <ele>1037.077081</ele>
        <time>2025-07-10T06:40:45.000Z</time>
      </trkpt>
      <trkpt lat="44.60398" lon="5.85801">
        <ele>1037.19203</ele>
        <time>2025-07-10T06:40:46.000Z</time>
      </trkpt>
      <trkpt lat="44.604" lon="5.85802">
        <ele>1037.301339</ele>
        <time>2025-07-10T06:40:47.000Z</time>
      </trkpt>
      <trkpt lat="44.60401" lon="5.85802">
        <ele>1037.403205</ele>
        <time>2025-07-10T06:40:48.000Z</time>
      </trkpt>
      <trkpt lat="44.60403" lon="5.85802">
        <ele>1037.50467</ele>
        <time>2025-07-10T06:40:49.000Z</time>
      </trkpt>
      <trkpt lat="44.60405" lon="5.85802">
        <ele>1037.612571</ele>
        <time>2025-07-10T06:40:50.000Z</time>
      </trkpt>
      <trkpt lat="44.60406" lon="5.85802">
        <ele>1037.726809</ele>
        <time>2025-07-10T06:40:51.000Z</time>
      </trkpt>
      <trkpt lat="44.60408" lon="5.85802">
        <ele>1037.840957</ele>
        <time>2025-07-10T06:40:52.000Z</time>
      </trkpt>
      <trkpt lat="44.6041" lon="5.85802">
        <ele>1037.961446</ele>
        <time>2025-07-10T06:40:53.000Z</time>
      </trkpt>
      <trkpt lat="44.60412" lon="5.85802">
        <ele>1038.075951</ele>
        <time>2025-07-10T06:40:54.000Z</time>
      </trkpt>
      <trkpt lat="44.60414" lon="5.85802">
        <ele>1038.190188</ele>
        <time>2025-07-10T06:40:55.000Z</time>
      </trkpt>
      <trkpt lat="44.60416" lon="5.85802">
        <ele>1038.317341</ele>
        <time>2025-07-10T06:40:56.000Z</time>
      </trkpt>
      <trkpt lat="44.60418" lon="5.85802">
        <ele>1038.43783</ele>
        <time>2025-07-10T06:40:57.000Z</time>
      </trkpt>
      <trkpt lat="44.6042" lon="5.85802">
        <ele>1038.564742</ele>
        <time>2025-07-10T06:40:58.000Z</time>
      </trkpt>
      <trkpt lat="44.60421" lon="5.85802">
        <ele>1038.685231</ele>
        <time>2025-07-10T06:40:59.000Z</time>
      </trkpt>
      <trkpt lat="44.60423" lon="5.85802">
        <ele>1038.812063</ele>
        <time>2025-07-10T06:41:00.000Z</time>
      </trkpt>
      <trkpt lat="44.60426" lon="5.85802">
        <ele>1038.945312</ele>
        <time>2025-07-10T06:41:01.000Z</time>
      </trkpt>
      <trkpt lat="44.60428" lon="5.85802">
        <ele>1039.072464</ele>
        <time>2025-07-10T06:41:02.000Z</time>
      </trkpt>
      <trkpt lat="44.6043" lon="5.85802">
        <ele>1039.199616</ele>
        <time>2025-07-10T06:41:03.000Z</time>
      </trkpt>
      <trkpt lat="44.60432" lon="5.85802">
        <ele>1039.326528</ele>
        <time>2025-07-10T06:41:04.000Z</time>
      </trkpt>
      <trkpt lat="44.60434" lon="5.85802">
        <ele>1039.45344</ele>
        <time>2025-07-10T06:41:05.000Z</time>
      </trkpt>
      <trkpt lat="44.60435" lon="5.85802">
        <ele>1039.574267</ele>
        <time>2025-07-10T06:41:06.000Z</time>
      </trkpt>
      <trkpt lat="44.60437" lon="5.85802">
        <ele>1039.701098</ele>
        <time>2025-07-10T06:41:07.000Z</time>
      </trkpt>
      <trkpt lat="44.60439" lon="5.85802">
        <ele>1039.82801</ele>
        <time>2025-07-10T06:41:08.000Z</time>
      </trkpt>
      <trkpt lat="44.60441" lon="5.85802">
        <ele>1039.954921</ele>
        <time>2025-07-10T06:41:09.000Z</time>
      </trkpt>
      <trkpt lat="44.60444" lon="5.85802">
        <ele>1040.09625</ele>
        <time>2025-07-10T06:41:10.000Z</time>
      </trkpt>
      <trkpt lat="44.60446" lon="5.85801">
        <ele>1040.2295</ele>
        <time>2025-07-10T06:41:11.000Z</time>
      </trkpt>
      <trkpt lat="44.60448" lon="5.85801">
        <ele>1040.350074</ele>
        <time>2025-07-10T06:41:12.000Z</time>
      </trkpt>
      <trkpt lat="44.6045" lon="5.85801">
        <ele>1040.483247</ele>
        <time>2025-07-10T06:41:13.000Z</time>
      </trkpt>
      <trkpt lat="44.60452" lon="5.85801">
        <ele>1040.622834</ele>
        <time>2025-07-10T06:41:14.000Z</time>
      </trkpt>
      <trkpt lat="44.60454" lon="5.85801">
        <ele>1040.763004</ele>
        <time>2025-07-10T06:41:15.000Z</time>
      </trkpt>
      <trkpt lat="44.60456" lon="5.858">
        <ele>1040.904333</ele>
        <time>2025-07-10T06:41:16.000Z</time>
      </trkpt>
      <trkpt lat="44.60458" lon="5.858">
        <ele>1041.038725</ele>
        <time>2025-07-10T06:41:17.000Z</time>
      </trkpt>
      <trkpt lat="44.60461" lon="5.858">
        <ele>1041.178531</ele>
        <time>2025-07-10T06:41:18.000Z</time>
      </trkpt>
      <trkpt lat="44.60463" lon="5.858">
        <ele>1041.318046</ele>
        <time>2025-07-10T06:41:19.000Z</time>
      </trkpt>
      <trkpt lat="44.60465" lon="5.858">
        <ele>1041.464181</ele>
        <time>2025-07-10T06:41:20.000Z</time>
      </trkpt>
      <trkpt lat="44.60467" lon="5.858">
        <ele>1041.603987</ele>
        <time>2025-07-10T06:41:21.000Z</time>
      </trkpt>
      <trkpt lat="44.6047" lon="5.858">
        <ele>1041.743574</ele>
        <time>2025-07-10T06:41:22.000Z</time>
      </trkpt>
      <trkpt lat="44.60472" lon="5.858">
        <ele>1041.88943</ele>
        <time>2025-07-10T06:41:23.000Z</time>
      </trkpt>
      <trkpt lat="44.60474" lon="5.858">
        <ele>1042.035356</ele>
        <time>2025-07-10T06:41:24.000Z</time>
      </trkpt>
      <trkpt lat="44.60476" lon="5.858">
        <ele>1042.181212</ele>
        <time>2025-07-10T06:41:25.000Z</time>
      </trkpt>
      <trkpt lat="44.60479" lon="5.858">
        <ele>1042.327138</ele>
        <time>2025-07-10T06:41:26.000Z</time>
      </trkpt>
      <trkpt lat="44.60481" lon="5.85799">
        <ele>1042.475488</ele>
        <time>2025-07-10T06:41:27.000Z</time>
      </trkpt>
      <trkpt lat="44.60483" lon="5.85799">
        <ele>1042.624729</ele>
        <time>2025-07-10T06:41:28.000Z</time>
      </trkpt>
      <trkpt lat="44.60485" lon="5.85798">
        <ele>1042.759121</ele>
        <time>2025-07-10T06:41:29.000Z</time>
      </trkpt>
      <trkpt lat="44.60488" lon="5.85798">
        <ele>1042.898708</ele>
        <time>2025-07-10T06:41:30.000Z</time>
      </trkpt>
      <trkpt lat="44.6049" lon="5.85798">
        <ele>1043.038295</ele>
        <time>2025-07-10T06:41:31.000Z</time>
      </trkpt>
      <trkpt lat="44.60492" lon="5.85798">
        <ele>1043.171545</ele>
        <time>2025-07-10T06:41:32.000Z</time>
      </trkpt>
      <trkpt lat="44.60494" lon="5.85799">
        <ele>1043.313665</ele>
        <time>2025-07-10T06:41:33.000Z</time>
      </trkpt>
      <trkpt lat="44.60496" lon="5.858">
        <ele>1043.437162</ele>
        <time>2025-07-10T06:41:34.000Z</time>
      </trkpt>
      <trkpt lat="44.60498" lon="5.858">
        <ele>1043.576676</ele>
        <time>2025-07-10T06:41:35.000Z</time>
      </trkpt>
      <trkpt lat="44.60501" lon="5.858">
        <ele>1043.722532</ele>
        <time>2025-07-10T06:41:36.000Z</time>
      </trkpt>
      <trkpt lat="44.60503" lon="5.858">
        <ele>1043.855705</ele>
        <time>2025-07-10T06:41:37.000Z</time>
      </trkpt>
      <trkpt lat="44.60505" lon="5.858">
        <ele>1044.001561</ele>
        <time>2025-07-10T06:41:38.000Z</time>
      </trkpt>
      <trkpt lat="44.60507" lon="5.858">
        <ele>1044.153758</ele>
        <time>2025-07-10T06:41:39.000Z</time>
      </trkpt>
      <trkpt lat="44.60509" lon="5.858">
        <ele>1044.287008</ele>
        <time>2025-07-10T06:41:40.000Z</time>
      </trkpt>
      <trkpt lat="44.60512" lon="5.858">
        <ele>1044.420486</ele>
        <time>2025-07-10T06:41:41.000Z</time>
      </trkpt>
      <trkpt lat="44.60514" lon="5.858">
        <ele>1044.548597</ele>
        <time>2025-07-10T06:41:42.000Z</time>
      </trkpt>
      <trkpt lat="44.60516" lon="5.858">
        <ele>1044.675508</ele>
        <time>2025-07-10T06:41:43.000Z</time>
      </trkpt>
      <trkpt lat="44.60518" lon="5.85801">
        <ele>1044.809368</ele>
        <time>2025-07-10T06:41:44.000Z</time>
      </trkpt>
      <trkpt lat="44.6052" lon="5.85801">
        <ele>1044.948956</ele>
        <time>2025-07-10T06:41:45.000Z</time>
      </trkpt>
      <trkpt lat="44.60522" lon="5.85801">
        <ele>1045.075867</ele>
        <time>2025-07-10T06:41:46.000Z</time>
      </trkpt>
      <trkpt lat="44.60524" lon="5.85801">
        <ele>1045.196357</ele>
        <time>2025-07-10T06:41:47.000Z</time>
      </trkpt>
      <trkpt lat="44.60526" lon="5.85801">
        <ele>1045.323268</ele>
        <time>2025-07-10T06:41:48.000Z</time>
      </trkpt>
      <trkpt lat="44.60528" lon="5.858">
        <ele>1045.457128</ele>
        <time>2025-07-10T06:41:49.000Z</time>
      </trkpt>
      <trkpt lat="44.6053" lon="5.858">
        <ele>1045.583959</ele>
        <time>2025-07-10T06:41:50.000Z</time>
      </trkpt>
      <trkpt lat="44.60532" lon="5.858">
        <ele>1045.717209</ele>
        <time>2025-07-10T06:41:51.000Z</time>
      </trkpt>
      <trkpt lat="44.60534" lon="5.858">
        <ele>1045.857015</ele>
        <time>2025-07-10T06:41:52.000Z</time>
      </trkpt>
      <trkpt lat="44.60536" lon="5.858">
        <ele>1045.996602</ele>
        <time>2025-07-10T06:41:53.000Z</time>
      </trkpt>
      <trkpt lat="44.60538" lon="5.858">
        <ele>1046.117092</ele>
        <time>2025-07-10T06:41:54.000Z</time>
      </trkpt>
      <trkpt lat="44.6054" lon="5.858">
        <ele>1046.250341</ele>
        <time>2025-07-10T06:41:55.000Z</time>
      </trkpt>
      <trkpt lat="44.60543" lon="5.858">
        <ele>1046.396476</ele>
        <time>2025-07-10T06:41:56.000Z</time>
      </trkpt>
      <trkpt lat="44.60545" lon="5.858">
        <ele>1046.536064</ele>
        <time>2025-07-10T06:41:57.000Z</time>
      </trkpt>
      <trkpt lat="44.60547" lon="5.858">
        <ele>1046.669313</ele>
        <time>2025-07-10T06:41:58.000Z</time>
      </trkpt>
      <trkpt lat="44.60549" lon="5.858">
        <ele>1046.796144</ele>
        <time>2025-07-10T06:41:59.000Z</time>
      </trkpt>
      <trkpt lat="44.60551" lon="5.858">
        <ele>1046.917393</ele>
        <time>2025-07-10T06:42:00.000Z</time>
      </trkpt>
      <trkpt lat="44.60553" lon="5.858">
        <ele>1047.051252</ele>
        <time>2025-07-10T06:42:01.000Z</time>
      </trkpt>
      <trkpt lat="44.60555" lon="5.85799">
        <ele>1047.180077</ele>
        <time>2025-07-10T06:42:02.000Z</time>
      </trkpt>
      <trkpt lat="44.60557" lon="5.85798">
        <ele>1047.29852</ele>
        <time>2025-07-10T06:42:03.000Z</time>
      </trkpt>
      <trkpt lat="44.60558" lon="5.85798">
        <ele>1047.409678</ele>
        <time>2025-07-10T06:42:04.000Z</time>
      </trkpt>
      <trkpt lat="44.6056" lon="5.85797">
        <ele>1047.512043</ele>
        <time>2025-07-10T06:42:05.000Z</time>
      </trkpt>
      <trkpt lat="44.60562" lon="5.85797">
        <ele>1047.632617</ele>
        <time>2025-07-10T06:42:06.000Z</time>
      </trkpt>
      <trkpt lat="44.60564" lon="5.85797">
        <ele>1047.758404</ele>
        <time>2025-07-10T06:42:07.000Z</time>
      </trkpt>
      <trkpt lat="44.60566" lon="5.85796">
        <ele>1047.875722</ele>
        <time>2025-07-10T06:42:08.000Z</time>
      </trkpt>
      <trkpt lat="44.60567" lon="5.85795">
        <ele>1047.985867</ele>
        <time>2025-07-10T06:42:09.000Z</time>
      </trkpt>
      <trkpt lat="44.60569" lon="5.85795">
        <ele>1048.09214</ele>
        <time>2025-07-10T06:42:10.000Z</time>
      </trkpt>
      <trkpt lat="44.60571" lon="5.85794">
        <ele>1048.209655</ele>
        <time>2025-07-10T06:42:11.000Z</time>
      </trkpt>
      <trkpt lat="44.60572" lon="5.85794">
        <ele>1048.336245</ele>
        <time>2025-07-10T06:42:12.000Z</time>
      </trkpt>
      <trkpt lat="44.60574" lon="5.85794">
        <ele>1048.46401</ele>
        <time>2025-07-10T06:42:13.000Z</time>
      </trkpt>
      <trkpt lat="44.60576" lon="5.85793">
        <ele>1048.584855</ele>
        <time>2025-07-10T06:42:14.000Z</time>
      </trkpt>
      <trkpt lat="44.60578" lon="5.85792">
        <ele>1048.710551</ele>
        <time>2025-07-10T06:42:15.000Z</time>
      </trkpt>
      <trkpt lat="44.6058" lon="5.85792">
        <ele>1048.844597</ele>
        <time>2025-07-10T06:42:16.000Z</time>
      </trkpt>
      <trkpt lat="44.60581" lon="5.85792">
        <ele>1048.963886</ele>
        <time>2025-07-10T06:42:17.000Z</time>
      </trkpt>
      <trkpt lat="44.60583" lon="5.85792">
        <ele>1049.08307</ele>
        <time>2025-07-10T06:42:18.000Z</time>
      </trkpt>
      <trkpt lat="44.60585" lon="5.85791">
        <ele>1049.214014</ele>
        <time>2025-07-10T06:42:19.000Z</time>
      </trkpt>
      <trkpt lat="44.60587" lon="5.85791">
        <ele>1049.343714</ele>
        <time>2025-07-10T06:42:20.000Z</time>
      </trkpt>
      <trkpt lat="44.60588" lon="5.8579">
        <ele>1049.471084</ele>
        <time>2025-07-10T06:42:21.000Z</time>
      </trkpt>
      <trkpt lat="44.6059" lon="5.85789">
        <ele>1049.598453</ele>
        <time>2025-07-10T06:42:22.000Z</time>
      </trkpt>
      <trkpt lat="44.60592" lon="5.85788">
        <ele>1049.725823</ele>
        <time>2025-07-10T06:42:23.000Z</time>
      </trkpt>
      <trkpt lat="44.60594" lon="5.85787">
        <ele>1049.8664</ele>
        <time>2025-07-10T06:42:24.000Z</time>
      </trkpt>
      <trkpt lat="44.60595" lon="5.85786">
        <ele>1049.998762</ele>
        <time>2025-07-10T06:42:25.000Z</time>
      </trkpt>
      <trkpt lat="44.60597" lon="5.85785">
        <ele>1050.141013</ele>
        <time>2025-07-10T06:42:26.000Z</time>
      </trkpt>
      <trkpt lat="44.60599" lon="5.85784">
        <ele>1050.278636</ele>
        <time>2025-07-10T06:42:27.000Z</time>
      </trkpt>
      <trkpt lat="44.60601" lon="5.85783">
        <ele>1050.416258</ele>
        <time>2025-07-10T06:42:28.000Z</time>
      </trkpt>
      <trkpt lat="44.60603" lon="5.85782">
        <ele>1050.562311</ele>
        <time>2025-07-10T06:42:29.000Z</time>
      </trkpt>
      <trkpt lat="44.60605" lon="5.85781">
        <ele>1050.693254</ele>
        <time>2025-07-10T06:42:30.000Z</time>
      </trkpt>
      <trkpt lat="44.60606" lon="5.8578">
        <ele>1050.820418</ele>
        <time>2025-07-10T06:42:31.000Z</time>
      </trkpt>
      <trkpt lat="44.60608" lon="5.85779">
        <ele>1050.950007</ele>
        <time>2025-07-10T06:42:32.000Z</time>
      </trkpt>
      <trkpt lat="44.60609" lon="5.85778">
        <ele>1051.079221</ele>
        <time>2025-07-10T06:42:33.000Z</time>
      </trkpt>
      <trkpt lat="44.60611" lon="5.85777">
        <ele>1051.211584</ele>
        <time>2025-07-10T06:42:34.000Z</time>
      </trkpt>
      <trkpt lat="44.60613" lon="5.85776">
        <ele>1051.33728</ele>
        <time>2025-07-10T06:42:35.000Z</time>
      </trkpt>
      <trkpt lat="44.60615" lon="5.85775">
        <ele>1051.46217</ele>
        <time>2025-07-10T06:42:36.000Z</time>
      </trkpt>
      <trkpt lat="44.60616" lon="5.85774">
        <ele>1051.58637</ele>
        <time>2025-07-10T06:42:37.000Z</time>
      </trkpt>
      <trkpt lat="44.60618" lon="5.85774">
        <ele>1051.721065</ele>
        <time>2025-07-10T06:42:38.000Z</time>
      </trkpt>
      <trkpt lat="44.6062" lon="5.85773">
        <ele>1051.84676</ele>
        <time>2025-07-10T06:42:39.000Z</time>
      </trkpt>
      <trkpt lat="44.60622" lon="5.85772">
        <ele>1051.975975</ele>
        <time>2025-07-10T06:42:40.000Z</time>
      </trkpt>
      <trkpt lat="44.60623" lon="5.85771">
        <ele>1052.100865</ele>
        <time>2025-07-10T06:42:41.000Z</time>
      </trkpt>
      <trkpt lat="44.60625" lon="5.8577">
        <ele>1052.219934</ele>
        <time>2025-07-10T06:42:42.000Z</time>
      </trkpt>
      <trkpt lat="44.60627" lon="5.8577">
        <ele>1052.349634</ele>
        <time>2025-07-10T06:42:43.000Z</time>
      </trkpt>
      <trkpt lat="44.60628" lon="5.85769">
        <ele>1052.467123</ele>
        <time>2025-07-10T06:42:44.000Z</time>
      </trkpt>
      <trkpt lat="44.6063" lon="5.85768">
        <ele>1052.588893</ele>
        <time>2025-07-10T06:42:45.000Z</time>
      </trkpt>
      <trkpt lat="44.60631" lon="5.85767">
        <ele>1052.713783</ele>
        <time>2025-07-10T06:42:46.000Z</time>
      </trkpt>
      <trkpt lat="44.60633" lon="5.85766">
        <ele>1052.832416</ele>
        <time>2025-07-10T06:42:47.000Z</time>
      </trkpt>
      <trkpt lat="44.60635" lon="5.85765">
        <ele>1052.957306</ele>
        <time>2025-07-10T06:42:48.000Z</time>
      </trkpt>
      <trkpt lat="44.60636" lon="5.85765">
        <ele>1053.085071</ele>
        <time>2025-07-10T06:42:49.000Z</time>
      </trkpt>
      <trkpt lat="44.60638" lon="5.85764">
        <ele>1053.205916</ele>
        <time>2025-07-10T06:42:50.000Z</time>
      </trkpt>
      <trkpt lat="44.6064" lon="5.85764">
        <ele>1053.334556</ele>
        <time>2025-07-10T06:42:51.000Z</time>
      </trkpt>
      <trkpt lat="44.60642" lon="5.85763">
        <ele>1053.463196</ele>
        <time>2025-07-10T06:42:52.000Z</time>
      </trkpt>
      <trkpt lat="44.60643" lon="5.85762">
        <ele>1053.58403</ele>
        <time>2025-07-10T06:42:53.000Z</time>
      </trkpt>
      <trkpt lat="44.60645" lon="5.85762">
        <ele>1053.716392</ele>
        <time>2025-07-10T06:42:54.000Z</time>
      </trkpt>
      <trkpt lat="44.60647" lon="5.85761">
        <ele>1053.83917</ele>
        <time>2025-07-10T06:42:55.000Z</time>
      </trkpt>
      <trkpt lat="44.60648" lon="5.8576">
        <ele>1053.955272</ele>
        <time>2025-07-10T06:42:56.000Z</time>
      </trkpt>
      <trkpt lat="44.6065" lon="5.85759">
        <ele>1054.078843</ele>
        <time>2025-07-10T06:42:57.000Z</time>
      </trkpt>
      <trkpt lat="44.60652" lon="5.85758">
        <ele>1054.207482</ele>
        <time>2025-07-10T06:42:58.000Z</time>
      </trkpt>
      <trkpt lat="44.60653" lon="5.85757">
        <ele>1054.336697</ele>
        <time>2025-07-10T06:42:59.000Z</time>
      </trkpt>
      <trkpt lat="44.60655" lon="5.85756">
        <ele>1054.46792</ele>
        <time>2025-07-10T06:43:00.000Z</time>
      </trkpt>
      <trkpt lat="44.60657" lon="5.85755">
        <ele>1054.590697</ele>
        <time>2025-07-10T06:43:01.000Z</time>
      </trkpt>
      <trkpt lat="44.60658" lon="5.85754">
        <ele>1054.705053</ele>
        <time>2025-07-10T06:43:02.000Z</time>
      </trkpt>
      <trkpt lat="44.6066" lon="5.85753">
        <ele>1054.839918</ele>
        <time>2025-07-10T06:43:03.000Z</time>
      </trkpt>
      <trkpt lat="44.60661" lon="5.85752">
        <ele>1054.958987</ele>
        <time>2025-07-10T06:43:04.000Z</time>
      </trkpt>
      <trkpt lat="44.60663" lon="5.85751">
        <ele>1055.101237</ele>
        <time>2025-07-10T06:43:05.000Z</time>
      </trkpt>
      <trkpt lat="44.60665" lon="5.8575">
        <ele>1055.223007</ele>
        <time>2025-07-10T06:43:06.000Z</time>
      </trkpt>
      <trkpt lat="44.60667" lon="5.8575">
        <ele>1055.349596</ele>
        <time>2025-07-10T06:43:07.000Z</time>
      </trkpt>
      <trkpt lat="44.60668" lon="5.85749">
        <ele>1055.473797</ele>
        <time>2025-07-10T06:43:08.000Z</time>
      </trkpt>
      <trkpt lat="44.6067" lon="5.85749">
        <ele>1055.596686</ele>
        <time>2025-07-10T06:43:09.000Z</time>
      </trkpt>
      <trkpt lat="44.60672" lon="5.85749">
        <ele>1055.730732</ele>
        <time>2025-07-10T06:43:10.000Z</time>
      </trkpt>
      <trkpt lat="44.60674" lon="5.85748">
        <ele>1055.871038</ele>
        <time>2025-07-10T06:43:11.000Z</time>
      </trkpt>
      <trkpt lat="44.60676" lon="5.85749">
        <ele>1056.025599</ele>
        <time>2025-07-10T06:43:12.000Z</time>
      </trkpt>
      <trkpt lat="44.60679" lon="5.85749">
        <ele>1056.194156</ele>
        <time>2025-07-10T06:43:13.000Z</time>
      </trkpt>
      <trkpt lat="44.60681" lon="5.85749">
        <ele>1056.334462</ele>
        <time>2025-07-10T06:43:14.000Z</time>
      </trkpt>
      <trkpt lat="44.60683" lon="5.8575">
        <ele>1056.485779</ele>
        <time>2025-07-10T06:43:15.000Z</time>
      </trkpt>
      <trkpt lat="44.60685" lon="5.8575">
        <ele>1056.633345</ele>
        <time>2025-07-10T06:43:16.000Z</time>
      </trkpt>
      <trkpt lat="44.60687" lon="5.8575">
        <ele>1056.780657</ele>
        <time>2025-07-10T06:43:17.000Z</time>
      </trkpt>
      <trkpt lat="44.60689" lon="5.8575">
        <ele>1056.928224</ele>
        <time>2025-07-10T06:43:18.000Z</time>
      </trkpt>
      <trkpt lat="44.60691" lon="5.8575">
        <ele>1057.07579</ele>
        <time>2025-07-10T06:43:19.000Z</time>
      </trkpt>
      <trkpt lat="44.60693" lon="5.8575">
        <ele>1057.223777</ele>
        <time>2025-07-10T06:43:20.000Z</time>
      </trkpt>
      <trkpt lat="44.60695" lon="5.8575">
        <ele>1057.378016</ele>
        <time>2025-07-10T06:43:21.000Z</time>
      </trkpt>
      <trkpt lat="44.60698" lon="5.8575">
        <ele>1057.532255</ele>
        <time>2025-07-10T06:43:22.000Z</time>
      </trkpt>
      <trkpt lat="44.607" lon="5.85751">
        <ele>1057.672827</ele>
        <time>2025-07-10T06:43:23.000Z</time>
      </trkpt>
      <trkpt lat="44.60701" lon="5.8575">
        <ele>1057.785996</ele>
        <time>2025-07-10T06:43:24.000Z</time>
      </trkpt>
      <trkpt lat="44.60703" lon="5.8575">
        <ele>1057.926568</ele>
        <time>2025-07-10T06:43:25.000Z</time>
      </trkpt>
      <trkpt lat="44.60705" lon="5.8575">
        <ele>1058.053649</ele>
        <time>2025-07-10T06:43:26.000Z</time>
      </trkpt>
      <trkpt lat="44.60707" lon="5.85751">
        <ele>1058.189356</ele>
        <time>2025-07-10T06:43:27.000Z</time>
      </trkpt>
      <trkpt lat="44.60708" lon="5.85752">
        <ele>1058.315052</ele>
        <time>2025-07-10T06:43:28.000Z</time>
      </trkpt>
      <trkpt lat="44.6071" lon="5.85754">
        <ele>1058.455802</ele>
        <time>2025-07-10T06:43:29.000Z</time>
      </trkpt>
      <trkpt lat="44.60712" lon="5.85754">
        <ele>1058.586744</ele>
        <time>2025-07-10T06:43:30.000Z</time>
      </trkpt>
      <trkpt lat="44.60713" lon="5.85755">
        <ele>1058.697559</ele>
        <time>2025-07-10T06:43:31.000Z</time>
      </trkpt>
      <trkpt lat="44.60715" lon="5.85756">
        <ele>1058.805643</ele>
        <time>2025-07-10T06:43:32.000Z</time>
      </trkpt>
      <trkpt lat="44.60716" lon="5.85756">
        <ele>1058.916458</ele>
        <time>2025-07-10T06:43:33.000Z</time>
      </trkpt>
      <trkpt lat="44.60718" lon="5.85758">
        <ele>1059.063192</ele>
        <time>2025-07-10T06:43:34.000Z</time>
      </trkpt>
      <trkpt lat="44.6072" lon="5.85759">
        <ele>1059.208984</ele>
        <time>2025-07-10T06:43:35.000Z</time>
      </trkpt>
      <trkpt lat="44.60722" lon="5.8576">
        <ele>1059.342936</ele>
        <time>2025-07-10T06:43:36.000Z</time>
      </trkpt>
      <trkpt lat="44.60724" lon="5.8576">
        <ele>1059.476888</ele>
        <time>2025-07-10T06:43:37.000Z</time>
      </trkpt>
      <trkpt lat="44.60726" lon="5.8576">
        <ele>1059.596177</ele>
        <time>2025-07-10T06:43:38.000Z</time>
      </trkpt>
      <trkpt lat="44.60727" lon="5.85761">
        <ele>1059.724817</ele>
        <time>2025-07-10T06:43:39.000Z</time>
      </trkpt>
      <trkpt lat="44.60729" lon="5.85762">
        <ele>1059.872054</ele>
        <time>2025-07-10T06:43:40.000Z</time>
      </trkpt>
      <trkpt lat="44.60731" lon="5.85762">
        <ele>1060.006748</ele>
        <time>2025-07-10T06:43:41.000Z</time>
      </trkpt>
      <trkpt lat="44.60733" lon="5.85763">
        <ele>1060.14838</ele>
        <time>2025-07-10T06:43:42.000Z</time>
      </trkpt>
      <trkpt lat="44.60735" lon="5.85762">
        <ele>1060.295692</ele>
        <time>2025-07-10T06:43:43.000Z</time>
      </trkpt>
      <trkpt lat="44.60737" lon="5.85762">
        <ele>1060.435909</ele>
        <time>2025-07-10T06:43:44.000Z</time>
      </trkpt>
      <trkpt lat="44.60739" lon="5.85763">
        <ele>1060.568272</ele>
        <time>2025-07-10T06:43:45.000Z</time>
      </trkpt>
      <trkpt lat="44.60741" lon="5.85762">
        <ele>1060.689106</ele>
        <time>2025-07-10T06:43:46.000Z</time>
      </trkpt>
      <trkpt lat="44.60743" lon="5.85763">
        <ele>1060.831562</ele>
        <time>2025-07-10T06:43:47.000Z</time>
      </trkpt>
      <trkpt lat="44.60744" lon="5.85764">
        <ele>1060.952725</ele>
        <time>2025-07-10T06:43:48.000Z</time>
      </trkpt>
      <trkpt lat="44.60746" lon="5.85764">
        <ele>1061.086375</ele>
        <time>2025-07-10T06:43:49.000Z</time>
      </trkpt>
      <trkpt lat="44.60748" lon="5.85763">
        <ele>1061.227321</ele>
        <time>2025-07-10T06:43:50.000Z</time>
      </trkpt>
      <trkpt lat="44.6075" lon="5.85762">
        <ele>1061.364211</ele>
        <time>2025-07-10T06:43:51.000Z</time>
      </trkpt>
      <trkpt lat="44.60752" lon="5.85761">
        <ele>1061.509095</ele>
        <time>2025-07-10T06:43:52.000Z</time>
      </trkpt>
      <trkpt lat="44.60754" lon="5.85761">
        <ele>1061.643492</ele>
        <time>2025-07-10T06:43:53.000Z</time>
      </trkpt>
      <trkpt lat="44.60756" lon="5.85761">
        <ele>1061.777423</ele>
        <time>2025-07-10T06:43:54.000Z</time>
      </trkpt>
      <trkpt lat="44.60758" lon="5.85759">
        <ele>1061.947799</ele>
        <time>2025-07-10T06:43:55.000Z</time>
      </trkpt>
      <trkpt lat="44.6076" lon="5.85758">
        <ele>1062.110338</ele>
        <time>2025-07-10T06:43:56.000Z</time>
      </trkpt>
      <trkpt lat="44.60762" lon="5.85758">
        <ele>1062.272012</ele>
        <time>2025-07-10T06:43:57.000Z</time>
      </trkpt>
      <trkpt lat="44.60764" lon="5.85757">
        <ele>1062.408076</ele>
        <time>2025-07-10T06:43:58.000Z</time>
      </trkpt>
      <trkpt lat="44.60766" lon="5.85756">
        <ele>1062.554512</ele>
        <time>2025-07-10T06:43:59.000Z</time>
      </trkpt>
      <trkpt lat="44.60768" lon="5.85755">
        <ele>1062.705329</ele>
        <time>2025-07-10T06:44:00.000Z</time>
      </trkpt>
      <trkpt lat="44.6077" lon="5.85754">
        <ele>1062.852953</ele>
        <time>2025-07-10T06:44:01.000Z</time>
      </trkpt>
      <trkpt lat="44.60772" lon="5.85754">
        <ele>1062.993628</ele>
        <time>2025-07-10T06:44:02.000Z</time>
      </trkpt>
      <trkpt lat="44.60774" lon="5.85753">
        <ele>1063.131702</ele>
        <time>2025-07-10T06:44:03.000Z</time>
      </trkpt>
      <trkpt lat="44.60776" lon="5.85752">
        <ele>1063.26544</ele>
        <time>2025-07-10T06:44:04.000Z</time>
      </trkpt>
      <trkpt lat="44.60778" lon="5.85751">
        <ele>1063.411877</ele>
        <time>2025-07-10T06:44:05.000Z</time>
      </trkpt>
      <trkpt lat="44.6078" lon="5.8575">
        <ele>1063.562514</ele>
        <time>2025-07-10T06:44:06.000Z</time>
      </trkpt>
      <trkpt lat="44.60782" lon="5.85749">
        <ele>1063.70346</ele>
        <time>2025-07-10T06:44:07.000Z</time>
      </trkpt>
      <trkpt lat="44.60784" lon="5.85749">
        <ele>1063.858428</ele>
        <time>2025-07-10T06:44:08.000Z</time>
      </trkpt>
      <trkpt lat="44.60786" lon="5.85748">
        <ele>1064.021336</ele>
        <time>2025-07-10T06:44:09.000Z</time>
      </trkpt>
      <trkpt lat="44.60788" lon="5.85748">
        <ele>1064.191884</ele>
        <time>2025-07-10T06:44:10.000Z</time>
      </trkpt>
      <trkpt lat="44.60791" lon="5.85747">
        <ele>1064.346217</ele>
        <time>2025-07-10T06:44:11.000Z</time>
      </trkpt>
      <trkpt lat="44.60793" lon="5.85746">
        <ele>1064.492392</ele>
        <time>2025-07-10T06:44:12.000Z</time>
      </trkpt>
      <trkpt lat="44.60794" lon="5.85746">
        <ele>1064.622433</ele>
        <time>2025-07-10T06:44:13.000Z</time>
      </trkpt>
      <trkpt lat="44.60796" lon="5.85745">
        <ele>1064.765228</ele>
        <time>2025-07-10T06:44:14.000Z</time>
      </trkpt>
      <trkpt lat="44.60798" lon="5.85744">
        <ele>1064.903302</ele>
        <time>2025-07-10T06:44:15.000Z</time>
      </trkpt>
      <trkpt lat="44.608" lon="5.85744">
        <ele>1065.032279</ele>
        <time>2025-07-10T06:44:16.000Z</time>
      </trkpt>
      <trkpt lat="44.60802" lon="5.85743">
        <ele>1065.155491</ele>
        <time>2025-07-10T06:44:17.000Z</time>
      </trkpt>
      <trkpt lat="44.60803" lon="5.85743">
        <ele>1065.281517</ele>
        <time>2025-07-10T06:44:18.000Z</time>
      </trkpt>
      <trkpt lat="44.60805" lon="5.85742">
        <ele>1065.418407</ele>
        <time>2025-07-10T06:44:19.000Z</time>
      </trkpt>
      <trkpt lat="44.60807" lon="5.85742">
        <ele>1065.56041</ele>
        <time>2025-07-10T06:44:20.000Z</time>
      </trkpt>
      <trkpt lat="44.60809" lon="5.85741">
        <ele>1065.691697</ele>
        <time>2025-07-10T06:44:21.000Z</time>
      </trkpt>
      <trkpt lat="44.60811" lon="5.8574">
        <ele>1065.836153</ele>
        <time>2025-07-10T06:44:22.000Z</time>
      </trkpt>
      <trkpt lat="44.60813" lon="5.85739">
        <ele>1065.986791</ele>
        <time>2025-07-10T06:44:23.000Z</time>
      </trkpt>
      <trkpt lat="44.60815" lon="5.85739">
        <ele>1066.144323</ele>
        <time>2025-07-10T06:44:24.000Z</time>
      </trkpt>
      <trkpt lat="44.60817" lon="5.85738">
        <ele>1066.289207</ele>
        <time>2025-07-10T06:44:25.000Z</time>
      </trkpt>
      <trkpt lat="44.60819" lon="5.85737">
        <ele>1066.434091</ele>
        <time>2025-07-10T06:44:26.000Z</time>
      </trkpt>
      <trkpt lat="44.60821" lon="5.85736">
        <ele>1066.587038</ele>
        <time>2025-07-10T06:44:27.000Z</time>
      </trkpt>
      <trkpt lat="44.60824" lon="5.85736">
        <ele>1066.737676</ele>
        <time>2025-07-10T06:44:28.000Z</time>
      </trkpt>
      <trkpt lat="44.60826" lon="5.85735">
        <ele>1066.879679</ele>
        <time>2025-07-10T06:44:29.000Z</time>
      </trkpt>
      <trkpt lat="44.60828" lon="5.85735">
        <ele>1067.024564</ele>
        <time>2025-07-10T06:44:30.000Z</time>
      </trkpt>
      <trkpt lat="44.60829" lon="5.85734">
        <ele>1067.160443</ele>
        <time>2025-07-10T06:44:31.000Z</time>
      </trkpt>
      <trkpt lat="44.60832" lon="5.85734">
        <ele>1067.317976</ele>
        <time>2025-07-10T06:44:32.000Z</time>
      </trkpt>
      <trkpt lat="44.60834" lon="5.85733">
        <ele>1067.476538</ele>
        <time>2025-07-10T06:44:33.000Z</time>
      </trkpt>
      <trkpt lat="44.60836" lon="5.85732">
        <ele>1067.611586</ele>
        <time>2025-07-10T06:44:34.000Z</time>
      </trkpt>
      <trkpt lat="44.60837" lon="5.85732">
        <ele>1067.731083</ele>
        <time>2025-07-10T06:44:35.000Z</time>
      </trkpt>
      <trkpt lat="44.60839" lon="5.85732">
        <ele>1067.85761</ele>
        <time>2025-07-10T06:44:36.000Z</time>
      </trkpt>
      <trkpt lat="44.60841" lon="5.85732">
        <ele>1068.005564</ele>
        <time>2025-07-10T06:44:37.000Z</time>
      </trkpt>
      <trkpt lat="44.60844" lon="5.85732">
        <ele>1068.161498</ele>
        <time>2025-07-10T06:44:38.000Z</time>
      </trkpt>
      <trkpt lat="44.60846" lon="5.85732">
        <ele>1068.309875</ele>
        <time>2025-07-10T06:44:39.000Z</time>
      </trkpt>
      <trkpt lat="44.60847" lon="5.85731">
        <ele>1068.422787</ele>
        <time>2025-07-10T06:44:40.000Z</time>
      </trkpt>
      <trkpt lat="44.60848" lon="5.85732">
        <ele>1068.504057</ele>
        <time>2025-07-10T06:44:41.000Z</time>
      </trkpt>
      <trkpt lat="44.60849" lon="5.85733">
        <ele>1068.584721</ele>
        <time>2025-07-10T06:44:42.000Z</time>
      </trkpt>
      <trkpt lat="44.6085" lon="5.85733">
        <ele>1068.667668</ele>
        <time>2025-07-10T06:44:43.000Z</time>
      </trkpt>
      <trkpt lat="44.60852" lon="5.85733">
        <ele>1068.753345</ele>
        <time>2025-07-10T06:44:44.000Z</time>
      </trkpt>
      <trkpt lat="44.60853" lon="5.85734">
        <ele>1068.831882</ele>
        <time>2025-07-10T06:44:45.000Z</time>
      </trkpt>
      <trkpt lat="44.60853" lon="5.85735">
        <ele>1068.917495</ele>
        <time>2025-07-10T06:44:46.000Z</time>
      </trkpt>
      <trkpt lat="44.60854" lon="5.85737">
        <ele>1068.999063</ele>
        <time>2025-07-10T06:44:47.000Z</time>
      </trkpt>
      <trkpt lat="44.60856" lon="5.85739">
        <ele>1069.16039</ele>
        <time>2025-07-10T06:44:49.000Z</time>
      </trkpt>
      <trkpt lat="44.60857" lon="5.85742">
        <ele>1069.342737</ele>
        <time>2025-07-10T06:44:51.000Z</time>
      </trkpt>
      <trkpt lat="44.60859" lon="5.85744">
        <ele>1069.541494</ele>
        <time>2025-07-10T06:44:53.000Z</time>
      </trkpt>
      <trkpt lat="44.60861" lon="5.85752">
        <ele>1069.958617</ele>
        <time>2025-07-10T06:44:55.000Z</time>
      </trkpt>
      <trkpt lat="44.60861" lon="5.85752">
        <ele>1069.958617</ele>
        <time>2025-07-10T06:44:56.000Z</time>
      </trkpt>
      <trkpt lat="44.60861" lon="5.85752">
        <ele>1069.958617</ele>
        <time>2025-07-10T06:45:00.000Z</time>
      </trkpt>
      <trkpt lat="44.60861" lon="5.85752">
        <ele>1069.958617</ele>
        <time>2025-07-10T06:45:05.000Z</time>
      </trkpt>
      <trkpt lat="44.60861" lon="5.85752">
        <ele>1069.958617</ele>
        <time>2025-07-10T06:45:12.000Z</time>
      </trkpt>
      <trkpt lat="44.60861" lon="5.85752">
        <ele>1069.958617</ele>
        <time>2025-07-10T06:45:13.000Z</time>
      </trkpt>
      <trkpt lat="44.60861" lon="5.85752">
        <ele>1069.958617</ele>
        <time>2025-07-10T06:45:16.000Z</time>
      </trkpt>
      <trkpt lat="44.60861" lon="5.85752">
        <ele>1069.958617</ele>
        <time>2025-07-10T06:45:17.000Z</time>
      </trkpt>
      <trkpt lat="44.60861" lon="5.85752">
        <ele>1069.958617</ele>
        <time>2025-07-10T06:45:20.000Z</time>
      </trkpt>
      <trkpt lat="44.60861" lon="5.85752">
        <ele>1069.958617</ele>
        <time>2025-07-10T06:45:22.000Z</time>
      </trkpt>
      <trkpt lat="44.60861" lon="5.85752">
        <ele>1069.958617</ele>
        <time>2025-07-10T06:45:26.000Z</time>
      </trkpt>
      <trkpt lat="44.60861" lon="5.85752">
        <ele>1069.958617</ele>
        <time>2025-07-10T06:45:27.000Z</time>
      </trkpt>
      <trkpt lat="44.60861" lon="5.85752">
        <ele>1069.958617</ele>
        <time>2025-07-10T06:45:31.000Z</time>
      </trkpt>
      <trkpt lat="44.60861" lon="5.85752">
        <ele>1069.958617</ele>
        <time>2025-07-10T06:45:34.000Z</time>
      </trkpt>
      <trkpt lat="44.60861" lon="5.85752">
        <ele>1069.958617</ele>
        <time>2025-07-10T06:45:35.000Z</time>
      </trkpt>
      <trkpt lat="44.60861" lon="5.85752">
        <ele>1069.958617</ele>
        <time>2025-07-10T06:45:39.000Z</time>
      </trkpt>
      <trkpt lat="44.60861" lon="5.85752">
        <ele>1069.958617</ele>
        <time>2025-07-10T06:45:40.000Z</time>
      </trkpt>
      <trkpt lat="44.6097" lon="5.85758">
        <ele>1076.609566</ele>
        <time>2025-07-10T06:45:45.000Z</time>
      </trkpt>
      <trkpt lat="44.60972" lon="5.85758">
        <ele>1076.691359</ele>
        <time>2025-07-10T06:45:47.000Z</time>
      </trkpt>
      <trkpt lat="44.60973" lon="5.85761">
        <ele>1076.837128</ele>
        <time>2025-07-10T06:45:48.000Z</time>
      </trkpt>
      <trkpt lat="44.60977" lon="5.85772">
        <ele>1077.288767</ele>
        <time>2025-07-10T06:45:51.000Z</time>
      </trkpt>
      <trkpt lat="44.60979" lon="5.85772">
        <ele>1077.400183</ele>
        <time>2025-07-10T06:45:52.000Z</time>
      </trkpt>
      <trkpt lat="44.60981" lon="5.85772">
        <ele>1077.527739</ele>
        <time>2025-07-10T06:45:53.000Z</time>
      </trkpt>
      <trkpt lat="44.60982" lon="5.85771">
        <ele>1077.597256</ele>
        <time>2025-07-10T06:45:54.000Z</time>
      </trkpt>
      <trkpt lat="44.60987" lon="5.8577">
        <ele>1077.82692</ele>
        <time>2025-07-10T06:45:56.000Z</time>
      </trkpt>
      <trkpt lat="44.60989" lon="5.85769">
        <ele>1077.964809</ele>
        <time>2025-07-10T06:45:57.000Z</time>
      </trkpt>
      <trkpt lat="44.60989" lon="5.85769">
        <ele>1077.964809</ele>
        <time>2025-07-10T06:46:00.000Z</time>
      </trkpt>
      <trkpt lat="44.60989" lon="5.85769">
        <ele>1077.964809</ele>
        <time>2025-07-10T06:46:05.000Z</time>
      </trkpt>
      <trkpt lat="44.60989" lon="5.85769">
        <ele>1077.964809</ele>
        <time>2025-07-10T06:46:06.000Z</time>
      </trkpt>
      <trkpt lat="44.60989" lon="5.85769">
        <ele>1077.964809</ele>
        <time>2025-07-10T06:46:10.000Z</time>
      </trkpt>
      <trkpt lat="44.60989" lon="5.85769">
        <ele>1077.964809</ele>
        <time>2025-07-10T06:46:11.000Z</time>
      </trkpt>
      <trkpt lat="44.60989" lon="5.85769">
        <ele>1077.964809</ele>
        <time>2025-07-10T06:46:15.000Z</time>
      </trkpt>
      <trkpt lat="44.60989" lon="5.85769">
        <ele>1077.964809</ele>
        <time>2025-07-10T06:46:18.000Z</time>
      </trkpt>
      <trkpt lat="44.60989" lon="5.85769">
        <ele>1077.964809</ele>
        <time>2025-07-10T06:46:19.000Z</time>
      </trkpt>
      <trkpt lat="44.61028" lon="5.85809">
        <ele>1080.559786</ele>
        <time>2025-07-10T06:46:25.000Z</time>
      </trkpt>
      <trkpt lat="44.6103" lon="5.85811">
        <ele>1080.644893</ele>
        <time>2025-07-10T06:46:26.000Z</time>
      </trkpt>
      <trkpt lat="44.6103" lon="5.85811">
        <ele>1080.7014</ele>
        <time>2025-07-10T06:46:27.000Z</time>
      </trkpt>
      <trkpt lat="44.61032" lon="5.85813">
        <ele>1080.809968</ele>
        <time>2025-07-10T06:46:28.000Z</time>
      </trkpt>
      <trkpt lat="44.61034" lon="5.85815">
        <ele>1080.927195</ele>
        <time>2025-07-10T06:46:29.000Z</time>
      </trkpt>
      <trkpt lat="44.61036" lon="5.85816">
        <ele>1081.04258</ele>
        <time>2025-07-10T06:46:30.000Z</time>
      </trkpt>
      <trkpt lat="44.61037" lon="5.85818">
        <ele>1081.138335</ele>
        <time>2025-07-10T06:46:31.000Z</time>
      </trkpt>
      <trkpt lat="44.61039" lon="5.85819">
        <ele>1081.240393</ele>
        <time>2025-07-10T06:46:32.000Z</time>
      </trkpt>
      <trkpt lat="44.6104" lon="5.85821">
        <ele>1081.323685</ele>
        <time>2025-07-10T06:46:33.000Z</time>
      </trkpt>
      <trkpt lat="44.61041" lon="5.85823">
        <ele>1081.422814</ele>
        <time>2025-07-10T06:46:34.000Z</time>
      </trkpt>
      <trkpt lat="44.61042" lon="5.85824">
        <ele>1081.517324</ele>
        <time>2025-07-10T06:46:35.000Z</time>
      </trkpt>
      <trkpt lat="44.61044" lon="5.85825">
        <ele>1081.605415</ele>
        <time>2025-07-10T06:46:36.000Z</time>
      </trkpt>
      <trkpt lat="44.61045" lon="5.85827">
        <ele>1081.706109</ele>
        <time>2025-07-10T06:46:37.000Z</time>
      </trkpt>
      <trkpt lat="44.61047" lon="5.85829">
        <ele>1081.804291</ele>
        <time>2025-07-10T06:46:38.000Z</time>
      </trkpt>
      <trkpt lat="44.61048" lon="5.85831">
        <ele>1081.905999</ele>
        <time>2025-07-10T06:46:39.000Z</time>
      </trkpt>
      <trkpt lat="44.61049" lon="5.85832">
        <ele>1082.004182</ele>
        <time>2025-07-10T06:46:40.000Z</time>
      </trkpt>
      <trkpt lat="44.61051" lon="5.85834">
        <ele>1082.093222</ele>
        <time>2025-07-10T06:46:41.000Z</time>
      </trkpt>
      <trkpt lat="44.61052" lon="5.85835">
        <ele>1082.182997</ele>
        <time>2025-07-10T06:46:42.000Z</time>
      </trkpt>
      <trkpt lat="44.61054" lon="5.85836">
        <ele>1082.274173</ele>
        <time>2025-07-10T06:46:43.000Z</time>
      </trkpt>
      <trkpt lat="44.61055" lon="5.85838">
        <ele>1082.36535</ele>
        <time>2025-07-10T06:46:44.000Z</time>
      </trkpt>
      <trkpt lat="44.61056" lon="5.85839">
        <ele>1082.452363</ele>
        <time>2025-07-10T06:46:45.000Z</time>
      </trkpt>
      <trkpt lat="44.61058" lon="5.8584">
        <ele>1082.547911</ele>
        <time>2025-07-10T06:46:46.000Z</time>
      </trkpt>
      <trkpt lat="44.61059" lon="5.85842">
        <ele>1082.650167</ele>
        <time>2025-07-10T06:46:47.000Z</time>
      </trkpt>
      <trkpt lat="44.61061" lon="5.85843">
        <ele>1082.734026</ele>
        <time>2025-07-10T06:46:48.000Z</time>
      </trkpt>
      <trkpt lat="44.61063" lon="5.85844">
        <ele>1082.838172</ele>
        <time>2025-07-10T06:46:49.000Z</time>
      </trkpt>
      <trkpt lat="44.61064" lon="5.85845">
        <ele>1082.926262</ele>
        <time>2025-07-10T06:46:50.000Z</time>
      </trkpt>
      <trkpt lat="44.61066" lon="5.85846">
        <ele>1082.988288</ele>
        <time>2025-07-10T06:46:51.000Z</time>
      </trkpt>
      <trkpt lat="44.61068" lon="5.85847">
        <ele>1083.047882</ele>
        <time>2025-07-10T06:46:52.000Z</time>
      </trkpt>
      <trkpt lat="44.61069" lon="5.85848">
        <ele>1083.105611</ele>
        <time>2025-07-10T06:46:53.000Z</time>
      </trkpt>
      <trkpt lat="44.61071" lon="5.85849">
        <ele>1083.169669</ele>
        <time>2025-07-10T06:46:54.000Z</time>
      </trkpt>
      <trkpt lat="44.61073" lon="5.85849">
        <ele>1083.229847</ele>
        <time>2025-07-10T06:46:55.000Z</time>
      </trkpt>
      <trkpt lat="44.61075" lon="5.8585">
        <ele>1083.296227</ele>
        <time>2025-07-10T06:46:56.000Z</time>
      </trkpt>
      <trkpt lat="44.61077" lon="5.8585">
        <ele>1083.356405</ele>
        <time>2025-07-10T06:46:57.000Z</time>
      </trkpt>
      <trkpt lat="44.61079" lon="5.8585">
        <ele>1083.428586</ele>
        <time>2025-07-10T06:46:58.000Z</time>
      </trkpt>
      <trkpt lat="44.61082" lon="5.85851">
        <ele>1083.501178</ele>
        <time>2025-07-10T06:46:59.000Z</time>
      </trkpt>
      <trkpt lat="44.61084" lon="5.85851">
        <ele>1083.570088</ele>
        <time>2025-07-10T06:47:00.000Z</time>
      </trkpt>
      <trkpt lat="44.61086" lon="5.8585">
        <ele>1083.645395</ele>
        <time>2025-07-10T06:47:01.000Z</time>
      </trkpt>
      <trkpt lat="44.61089" lon="5.8585">
        <ele>1083.720702</ele>
        <time>2025-07-10T06:47:02.000Z</time>
      </trkpt>
      <trkpt lat="44.61091" lon="5.8585">
        <ele>1083.792883</ele>
        <time>2025-07-10T06:47:03.000Z</time>
      </trkpt>
      <trkpt lat="44.61094" lon="5.8585">
        <ele>1083.871696</ele>
        <time>2025-07-10T06:47:04.000Z</time>
      </trkpt>
      <trkpt lat="44.61096" lon="5.85849">
        <ele>1083.953623</ele>
        <time>2025-07-10T06:47:05.000Z</time>
      </trkpt>
      <trkpt lat="44.61099" lon="5.85849">
        <ele>1084.035549</ele>
        <time>2025-07-10T06:47:06.000Z</time>
      </trkpt>
      <trkpt lat="44.61101" lon="5.85848">
        <ele>1084.114141</ele>
        <time>2025-07-10T06:47:07.000Z</time>
      </trkpt>
      <trkpt lat="44.61104" lon="5.85848">
        <ele>1084.199445</ele>
        <time>2025-07-10T06:47:08.000Z</time>
      </trkpt>
      <trkpt lat="44.61107" lon="5.85847">
        <ele>1084.291261</ele>
        <time>2025-07-10T06:47:09.000Z</time>
      </trkpt>
      <trkpt lat="44.6111" lon="5.85847">
        <ele>1084.383832</ele>
        <time>2025-07-10T06:47:10.000Z</time>
      </trkpt>
      <trkpt lat="44.61113" lon="5.85846">
        <ele>1084.475648</ele>
        <time>2025-07-10T06:47:11.000Z</time>
      </trkpt>
      <trkpt lat="44.61115" lon="5.85846">
        <ele>1084.563805</ele>
        <time>2025-07-10T06:47:12.000Z</time>
      </trkpt>
      <trkpt lat="44.61118" lon="5.85845">
        <ele>1084.645731</ele>
        <time>2025-07-10T06:47:13.000Z</time>
      </trkpt>
      <trkpt lat="44.61121" lon="5.85844">
        <ele>1084.734813</ele>
        <time>2025-07-10T06:47:14.000Z</time>
      </trkpt>
      <trkpt lat="44.61124" lon="5.85844">
        <ele>1084.826629</ele>
        <time>2025-07-10T06:47:15.000Z</time>
      </trkpt>
      <trkpt lat="44.61127" lon="5.85843">
        <ele>1084.915348</ele>
        <time>2025-07-10T06:47:16.000Z</time>
      </trkpt>
      <trkpt lat="44.6113" lon="5.85843">
        <ele>1085.010264</ele>
        <time>2025-07-10T06:47:17.000Z</time>
      </trkpt>
      <trkpt lat="44.61132" lon="5.85842">
        <ele>1085.097726</ele>
        <time>2025-07-10T06:47:18.000Z</time>
      </trkpt>
      <trkpt lat="44.61135" lon="5.85841">
        <ele>1085.182163</ele>
        <time>2025-07-10T06:47:19.000Z</time>
      </trkpt>
      <trkpt lat="44.61138" lon="5.85839">
        <ele>1085.270866</ele>
        <time>2025-07-10T06:47:20.000Z</time>
      </trkpt>
      <trkpt lat="44.6114" lon="5.85838">
        <ele>1085.356589</ele>
        <time>2025-07-10T06:47:21.000Z</time>
      </trkpt>
      <trkpt lat="44.61143" lon="5.85838">
        <ele>1085.445671</ele>
        <time>2025-07-10T06:47:22.000Z</time>
      </trkpt>
      <trkpt lat="44.61146" lon="5.85837">
        <ele>1085.538242</ele>
        <time>2025-07-10T06:47:23.000Z</time>
      </trkpt>
      <trkpt lat="44.61149" lon="5.85836">
        <ele>1085.628213</ele>
        <time>2025-07-10T06:47:24.000Z</time>
      </trkpt>
      <trkpt lat="44.61151" lon="5.85835">
        <ele>1085.71627</ele>
        <time>2025-07-10T06:47:25.000Z</time>
      </trkpt>
      <trkpt lat="44.61154" lon="5.85834">
        <ele>1085.804327</ele>
        <time>2025-07-10T06:47:26.000Z</time>
      </trkpt>
      <trkpt lat="44.61157" lon="5.85833">
        <ele>1085.891247</ele>
        <time>2025-07-10T06:47:27.000Z</time>
      </trkpt>
      <trkpt lat="44.61159" lon="5.85832">
        <ele>1085.979303</ele>
        <time>2025-07-10T06:47:28.000Z</time>
      </trkpt>
      <trkpt lat="44.61162" lon="5.8583">
        <ele>1086.071674</ele>
        <time>2025-07-10T06:47:29.000Z</time>
      </trkpt>
      <trkpt lat="44.61165" lon="5.85829">
        <ele>1086.161823</ele>
        <time>2025-07-10T06:47:30.000Z</time>
      </trkpt>
      <trkpt lat="44.61168" lon="5.85828">
        <ele>1086.24988</ele>
        <time>2025-07-10T06:47:31.000Z</time>
      </trkpt>
      <trkpt lat="44.6117" lon="5.85827">
        <ele>1086.34225</ele>
        <time>2025-07-10T06:47:32.000Z</time>
      </trkpt>
      <trkpt lat="44.61173" lon="5.85825">
        <ele>1086.436945</ele>
        <time>2025-07-10T06:47:33.000Z</time>
      </trkpt>
      <trkpt lat="44.61176" lon="5.85824">
        <ele>1086.531035</ele>
        <time>2025-07-10T06:47:34.000Z</time>
      </trkpt>
      <trkpt lat="44.61179" lon="5.85823">
        <ele>1086.617955</ele>
        <time>2025-07-10T06:47:35.000Z</time>
      </trkpt>
      <trkpt lat="44.61182" lon="5.85822">
        <ele>1086.70183</ele>
        <time>2025-07-10T06:47:36.000Z</time>
      </trkpt>
      <trkpt lat="44.61184" lon="5.85822">
        <ele>1086.79133</ele>
        <time>2025-07-10T06:47:37.000Z</time>
      </trkpt>
      <trkpt lat="44.61187" lon="5.8582">
        <ele>1086.874083</ele>
        <time>2025-07-10T06:47:38.000Z</time>
      </trkpt>
      <trkpt lat="44.6119" lon="5.85819">
        <ele>1086.964577</ele>
        <time>2025-07-10T06:47:39.000Z</time>
      </trkpt>
      <trkpt lat="44.61192" lon="5.85818">
        <ele>1087.048077</ele>
        <time>2025-07-10T06:47:40.000Z</time>
      </trkpt>
      <trkpt lat="44.61195" lon="5.85817">
        <ele>1087.14161</ele>
        <time>2025-07-10T06:47:41.000Z</time>
      </trkpt>
      <trkpt lat="44.61198" lon="5.85816">
        <ele>1087.226663</ele>
        <time>2025-07-10T06:47:42.000Z</time>
      </trkpt>
      <trkpt lat="44.612" lon="5.85815">
        <ele>1087.310963</ele>
        <time>2025-07-10T06:47:43.000Z</time>
      </trkpt>
      <trkpt lat="44.61203" lon="5.85814">
        <ele>1087.394838</ele>
        <time>2025-07-10T06:47:44.000Z</time>
      </trkpt>
      <trkpt lat="44.61205" lon="5.85813">
        <ele>1087.47776</ele>
        <time>2025-07-10T06:47:45.000Z</time>
      </trkpt>
      <trkpt lat="44.61208" lon="5.85813">
        <ele>1087.559959</ele>
        <time>2025-07-10T06:47:46.000Z</time>
      </trkpt>
      <trkpt lat="44.6121" lon="5.85812">
        <ele>1087.639056</ele>
        <time>2025-07-10T06:47:47.000Z</time>
      </trkpt>
      <trkpt lat="44.61213" lon="5.85811">
        <ele>1087.716318</ele>
        <time>2025-07-10T06:47:48.000Z</time>
      </trkpt>
      <trkpt lat="44.61215" lon="5.8581">
        <ele>1087.79358</ele>
        <time>2025-07-10T06:47:49.000Z</time>
      </trkpt>
      <trkpt lat="44.61218" lon="5.8581">
        <ele>1087.880013</ele>
        <time>2025-07-10T06:47:50.000Z</time>
      </trkpt>
      <trkpt lat="44.61221" lon="5.85809">
        <ele>1087.969983</ele>
        <time>2025-07-10T06:47:51.000Z</time>
      </trkpt>
      <trkpt lat="44.61223" lon="5.85808">
        <ele>1088.05804</ele>
        <time>2025-07-10T06:47:52.000Z</time>
      </trkpt>
      <trkpt lat="44.61226" lon="5.85807">
        <ele>1088.138878</ele>
        <time>2025-07-10T06:47:53.000Z</time>
      </trkpt>
      <trkpt lat="44.61229" lon="5.85806">
        <ele>1088.234525</ele>
        <time>2025-07-10T06:47:54.000Z</time>
      </trkpt>
      <trkpt lat="44.61232" lon="5.85805">
        <ele>1088.323607</ele>
        <time>2025-07-10T06:47:55.000Z</time>
      </trkpt>
      <trkpt lat="44.61235" lon="5.85805">
        <ele>1088.411763</ele>
        <time>2025-07-10T06:47:56.000Z</time>
      </trkpt>
      <trkpt lat="44.61237" lon="5.85804">
        <ele>1088.504789</ele>
        <time>2025-07-10T06:47:57.000Z</time>
      </trkpt>
      <trkpt lat="44.61241" lon="5.85803">
        <ele>1088.599294</ele>
        <time>2025-07-10T06:47:58.000Z</time>
      </trkpt>
      <trkpt lat="44.61243" lon="5.85802">
        <ele>1088.678366</ele>
        <time>2025-07-10T06:47:59.000Z</time>
      </trkpt>
      <trkpt lat="44.61246" lon="5.85801">
        <ele>1088.760845</ele>
        <time>2025-07-10T06:48:00.000Z</time>
      </trkpt>
      <trkpt lat="44.61249" lon="5.858">
        <ele>1088.838431</ele>
        <time>2025-07-10T06:48:01.000Z</time>
      </trkpt>
      <trkpt lat="44.61252" lon="5.858">
        <ele>1088.920573</ele>
        <time>2025-07-10T06:48:02.000Z</time>
      </trkpt>
      <trkpt lat="44.61255" lon="5.85799">
        <ele>1089.002716</ele>
        <time>2025-07-10T06:48:03.000Z</time>
      </trkpt>
      <trkpt lat="44.61258" lon="5.85798">
        <ele>1089.085576</ele>
        <time>2025-07-10T06:48:04.000Z</time>
      </trkpt>
      <trkpt lat="44.61261" lon="5.85797">
        <ele>1089.164648</ele>
        <time>2025-07-10T06:48:05.000Z</time>
      </trkpt>
      <trkpt lat="44.61264" lon="5.85796">
        <ele>1089.244869</ele>
        <time>2025-07-10T06:48:06.000Z</time>
      </trkpt>
      <trkpt lat="44.61267" lon="5.85795">
        <ele>1089.326006</ele>
        <time>2025-07-10T06:48:07.000Z</time>
      </trkpt>
      <trkpt lat="44.6127" lon="5.85793">
        <ele>1089.411393</ele>
        <time>2025-07-10T06:48:08.000Z</time>
      </trkpt>
      <trkpt lat="44.61273" lon="5.85792">
        <ele>1089.494253</ele>
        <time>2025-07-10T06:48:09.000Z</time>
      </trkpt>
      <trkpt lat="44.61276" lon="5.85791">
        <ele>1089.578507</ele>
        <time>2025-07-10T06:48:10.000Z</time>
      </trkpt>
      <trkpt lat="44.61279" lon="5.8579">
        <ele>1089.661335</ele>
        <time>2025-07-10T06:48:11.000Z</time>
      </trkpt>
      <trkpt lat="44.61281" lon="5.85789">
        <ele>1089.737827</ele>
        <time>2025-07-10T06:48:12.000Z</time>
      </trkpt>
      <trkpt lat="44.61284" lon="5.85787">
        <ele>1089.809583</ele>
        <time>2025-07-10T06:48:13.000Z</time>
      </trkpt>
      <trkpt lat="44.61286" lon="5.85785">
        <ele>1089.883789</ele>
        <time>2025-07-10T06:48:14.000Z</time>
      </trkpt>
      <trkpt lat="44.61289" lon="5.85784">
        <ele>1089.95586</ele>
        <time>2025-07-10T06:48:15.000Z</time>
      </trkpt>
      <trkpt lat="44.61291" lon="5.85782">
        <ele>1090.030065</ele>
        <time>2025-07-10T06:48:16.000Z</time>
      </trkpt>
      <trkpt lat="44.61293" lon="5.85781">
        <ele>1090.098875</ele>
        <time>2025-07-10T06:48:17.000Z</time>
      </trkpt>
      <trkpt lat="44.61296" lon="5.8578">
        <ele>1090.173829</ele>
        <time>2025-07-10T06:48:18.000Z</time>
      </trkpt>
      <trkpt lat="44.61299" lon="5.85779">
        <ele>1090.247751</ele>
        <time>2025-07-10T06:48:19.000Z</time>
      </trkpt>
      <trkpt lat="44.61302" lon="5.85778">
        <ele>1090.328888</ele>
        <time>2025-07-10T06:48:20.000Z</time>
      </trkpt>
      <trkpt lat="44.61304" lon="5.85776">
        <ele>1090.404808</ele>
        <time>2025-07-10T06:48:21.000Z</time>
      </trkpt>
      <trkpt lat="44.61307" lon="5.85775">
        <ele>1090.477504</ele>
        <time>2025-07-10T06:48:22.000Z</time>
      </trkpt>
      <trkpt lat="44.61309" lon="5.85773">
        <ele>1090.554967</ele>
        <time>2025-07-10T06:48:23.000Z</time>
      </trkpt>
      <trkpt lat="44.61312" lon="5.85771">
        <ele>1090.632356</ele>
        <time>2025-07-10T06:48:24.000Z</time>
      </trkpt>
      <trkpt lat="44.61314" lon="5.85768">
        <ele>1090.709763</ele>
        <time>2025-07-10T06:48:25.000Z</time>
      </trkpt>
      <trkpt lat="44.61316" lon="5.85766">
        <ele>1090.783858</ele>
        <time>2025-07-10T06:48:26.000Z</time>
      </trkpt>
      <trkpt lat="44.61319" lon="5.85764">
        <ele>1090.85464</ele>
        <time>2025-07-10T06:48:27.000Z</time>
      </trkpt>
      <trkpt lat="44.61321" lon="5.85762">
        <ele>1090.934213</ele>
        <time>2025-07-10T06:48:28.000Z</time>
      </trkpt>
      <trkpt lat="44.61323" lon="5.8576">
        <ele>1091.004029</ele>
        <time>2025-07-10T06:48:29.000Z</time>
      </trkpt>
      <trkpt lat="44.61325" lon="5.85757">
        <ele>1091.072642</ele>
        <time>2025-07-10T06:48:30.000Z</time>
      </trkpt>
      <trkpt lat="44.61326" lon="5.85756">
        <ele>1091.112735</ele>
        <time>2025-07-10T06:48:31.000Z</time>
      </trkpt>
      <trkpt lat="44.61328" lon="5.85754">
        <ele>1091.171321</ele>
        <time>2025-07-10T06:49:26.000Z</time>
      </trkpt>
      <trkpt lat="44.61329" lon="5.85751">
        <ele>1091.236763</ele>
        <time>2025-07-10T06:49:27.000Z</time>
      </trkpt>
      <trkpt lat="44.6133" lon="5.85749">
        <ele>1091.291594</ele>
        <time>2025-07-10T06:49:28.000Z</time>
      </trkpt>
      <trkpt lat="44.61331" lon="5.85746">
        <ele>1091.351256</ele>
        <time>2025-07-10T06:49:29.000Z</time>
      </trkpt>
      <trkpt lat="44.61333" lon="5.85745">
        <ele>1091.406624</ele>
        <time>2025-07-10T06:49:30.000Z</time>
      </trkpt>
      <trkpt lat="44.61335" lon="5.85743">
        <ele>1091.46577</ele>
        <time>2025-07-10T06:49:31.000Z</time>
      </trkpt>
      <trkpt lat="44.61336" lon="5.8574">
        <ele>1091.531562</ele>
        <time>2025-07-10T06:49:32.000Z</time>
      </trkpt>
      <trkpt lat="44.61338" lon="5.85737">
        <ele>1091.604104</ele>
        <time>2025-07-10T06:49:33.000Z</time>
      </trkpt>
      <trkpt lat="44.6134" lon="5.85734">
        <ele>1091.677833</ele>
        <time>2025-07-10T06:49:34.000Z</time>
      </trkpt>
      <trkpt lat="44.61342" lon="5.85731">
        <ele>1091.756864</ele>
        <time>2025-07-10T06:49:35.000Z</time>
      </trkpt>
      <trkpt lat="44.61344" lon="5.85728">
        <ele>1091.84521</ele>
        <time>2025-07-10T06:49:36.000Z</time>
      </trkpt>
      <trkpt lat="44.61346" lon="5.85724">
        <ele>1091.936799</ele>
        <time>2025-07-10T06:49:37.000Z</time>
      </trkpt>
      <trkpt lat="44.61348" lon="5.8572">
        <ele>1092.027788</ele>
        <time>2025-07-10T06:49:38.000Z</time>
      </trkpt>
      <trkpt lat="44.6135" lon="5.85717">
        <ele>1092.112564</ele>
        <time>2025-07-10T06:49:39.000Z</time>
      </trkpt>
      <trkpt lat="44.61353" lon="5.85714">
        <ele>1092.205063</ele>
        <time>2025-07-10T06:49:40.000Z</time>
      </trkpt>
      <trkpt lat="44.61355" lon="5.8571">
        <ele>1092.295249</ele>
        <time>2025-07-10T06:49:41.000Z</time>
      </trkpt>
      <trkpt lat="44.61357" lon="5.85706">
        <ele>1092.3897</ele>
        <time>2025-07-10T06:49:42.000Z</time>
      </trkpt>
      <trkpt lat="44.61359" lon="5.85703">
        <ele>1092.48415</ele>
        <time>2025-07-10T06:49:43.000Z</time>
      </trkpt>
      <trkpt lat="44.61362" lon="5.85699">
        <ele>1092.570703</ele>
        <time>2025-07-10T06:49:44.000Z</time>
      </trkpt>
      <trkpt lat="44.61364" lon="5.85696">
        <ele>1092.661691</ele>
        <time>2025-07-10T06:49:45.000Z</time>
      </trkpt>
      <trkpt lat="44.61366" lon="5.85693">
        <ele>1092.753805</ele>
        <time>2025-07-10T06:49:46.000Z</time>
      </trkpt>
      <trkpt lat="44.61369" lon="5.85689">
        <ele>1092.84187</ele>
        <time>2025-07-10T06:49:47.000Z</time>
      </trkpt>
      <trkpt lat="44.61371" lon="5.85687">
        <ele>1092.924863</ele>
        <time>2025-07-10T06:49:48.000Z</time>
      </trkpt>
      <trkpt lat="44.61374" lon="5.85685">
        <ele>1093.003541</ele>
        <time>2025-07-10T06:49:49.000Z</time>
      </trkpt>
      <trkpt lat="44.61377" lon="5.85683">
        <ele>1093.094456</ele>
        <time>2025-07-10T06:49:50.000Z</time>
      </trkpt>
      <trkpt lat="44.61379" lon="5.85681">
        <ele>1093.176024</ele>
        <time>2025-07-10T06:49:51.000Z</time>
      </trkpt>
      <trkpt lat="44.61382" lon="5.85679">
        <ele>1093.251944</ele>
        <time>2025-07-10T06:49:52.000Z</time>
      </trkpt>
      <trkpt lat="44.61384" lon="5.85677">
        <ele>1093.32872</ele>
        <time>2025-07-10T06:49:53.000Z</time>
      </trkpt>
      <trkpt lat="44.61387" lon="5.85675">
        <ele>1093.405496</ele>
        <time>2025-07-10T06:49:54.000Z</time>
      </trkpt>
      <trkpt lat="44.61389" lon="5.85674">
        <ele>1093.442679</ele>
        <time>2025-07-10T06:49:55.000Z</time>
      </trkpt>
      <trkpt lat="44.61392" lon="5.85672">
        <ele>1093.463922</ele>
        <time>2025-07-10T06:49:56.000Z</time>
      </trkpt>
      <trkpt lat="44.61395" lon="5.85671">
        <ele>1093.484589</ele>
        <time>2025-07-10T06:49:57.000Z</time>
      </trkpt>
      <trkpt lat="44.61398" lon="5.8567">
        <ele>1093.505397</ele>
        <time>2025-07-10T06:49:58.000Z</time>
      </trkpt>
      <trkpt lat="44.61401" lon="5.85669">
        <ele>1093.527313</ele>
        <time>2025-07-10T06:49:59.000Z</time>
      </trkpt>
      <trkpt lat="44.61404" lon="5.85668">
        <ele>1093.550261</ele>
        <time>2025-07-10T06:50:00.000Z</time>
      </trkpt>
      <trkpt lat="44.61407" lon="5.85667">
        <ele>1093.570927</ele>
        <time>2025-07-10T06:50:01.000Z</time>
      </trkpt>
      <trkpt lat="44.6141" lon="5.85667">
        <ele>1093.593875</ele>
        <time>2025-07-10T06:50:02.000Z</time>
      </trkpt>
      <trkpt lat="44.61413" lon="5.85666">
        <ele>1093.616822</ele>
        <time>2025-07-10T06:50:03.000Z</time>
      </trkpt>
      <trkpt lat="44.61416" lon="5.85666">
        <ele>1093.639002</ele>
        <time>2025-07-10T06:50:04.000Z</time>
      </trkpt>
      <trkpt lat="44.61419" lon="5.85665">
        <ele>1093.662508</ele>
        <time>2025-07-10T06:50:05.000Z</time>
      </trkpt>
      <trkpt lat="44.61423" lon="5.85666">
        <ele>1093.685304</ele>
        <time>2025-07-10T06:50:06.000Z</time>
      </trkpt>
      <trkpt lat="44.61427" lon="5.85666">
        <ele>1093.713031</ele>
        <time>2025-07-10T06:50:07.000Z</time>
      </trkpt>
      <trkpt lat="44.6143" lon="5.85666">
        <ele>1093.737955</ele>
        <time>2025-07-10T06:50:08.000Z</time>
      </trkpt>
      <trkpt lat="44.61434" lon="5.85666">
        <ele>1093.764966</ele>
        <time>2025-07-10T06:50:09.000Z</time>
      </trkpt>
      <trkpt lat="44.61437" lon="5.85666">
        <ele>1093.789133</ele>
        <time>2025-07-10T06:50:10.000Z</time>
      </trkpt>
      <trkpt lat="44.61441" lon="5.85667">
        <ele>1093.815916</ele>
        <time>2025-07-10T06:50:11.000Z</time>
      </trkpt>
      <trkpt lat="44.61445" lon="5.85667">
        <ele>1093.842945</ele>
        <time>2025-07-10T06:50:12.000Z</time>
      </trkpt>
      <trkpt lat="44.61449" lon="5.85668">
        <ele>1093.870187</ele>
        <time>2025-07-10T06:50:13.000Z</time>
      </trkpt>
      <trkpt lat="44.61452" lon="5.85669">
        <ele>1093.898367</ele>
        <time>2025-07-10T06:50:14.000Z</time>
      </trkpt>
      <trkpt lat="44.61456" lon="5.8567">
        <ele>1093.926547</ele>
        <time>2025-07-10T06:50:15.000Z</time>
      </trkpt>
      <trkpt lat="44.61461" lon="5.85671">
        <ele>1093.957262</ele>
        <time>2025-07-10T06:50:16.000Z</time>
      </trkpt>
      <trkpt lat="44.61465" lon="5.85672">
        <ele>1093.987031</ele>
        <time>2025-07-10T06:50:17.000Z</time>
      </trkpt>
      <trkpt lat="44.61469" lon="5.85673">
        <ele>1094.019415</ele>
        <time>2025-07-10T06:50:18.000Z</time>
      </trkpt>
      <trkpt lat="44.61474" lon="5.85673">
        <ele>1094.050184</ele>
        <time>2025-07-10T06:50:19.000Z</time>
      </trkpt>
      <trkpt lat="44.61478" lon="5.85674">
        <ele>1094.081165</ele>
        <time>2025-07-10T06:50:20.000Z</time>
      </trkpt>
      <trkpt lat="44.61482" lon="5.85675">
        <ele>1094.114053</ele>
        <time>2025-07-10T06:50:21.000Z</time>
      </trkpt>
      <trkpt lat="44.61487" lon="5.85676">
        <ele>1094.147706</ele>
        <time>2025-07-10T06:50:22.000Z</time>
      </trkpt>
      <trkpt lat="44.61492" lon="5.85676">
        <ele>1094.182569</ele>
        <time>2025-07-10T06:50:23.000Z</time>
      </trkpt>
      <trkpt lat="44.61497" lon="5.85677">
        <ele>1094.21753</ele>
        <time>2025-07-10T06:50:24.000Z</time>
      </trkpt>
      <trkpt lat="44.61502" lon="5.85677">
        <ele>1094.255325</ele>
        <time>2025-07-10T06:50:25.000Z</time>
      </trkpt>
      <trkpt lat="44.61507" lon="5.85678">
        <ele>1094.290214</ele>
        <time>2025-07-10T06:50:26.000Z</time>
      </trkpt>
      <trkpt lat="44.61512" lon="5.85679">
        <ele>1094.325984</ele>
        <time>2025-07-10T06:50:27.000Z</time>
      </trkpt>
      <trkpt lat="44.61517" lon="5.85679">
        <ele>1094.361654</ele>
        <time>2025-07-10T06:50:28.000Z</time>
      </trkpt>
      <trkpt lat="44.61522" lon="5.85679">
        <ele>1094.395077</ele>
        <time>2025-07-10T06:50:29.000Z</time>
      </trkpt>
      <trkpt lat="44.61527" lon="5.85679">
        <ele>1094.429196</ele>
        <time>2025-07-10T06:50:30.000Z</time>
      </trkpt>
      <trkpt lat="44.61531" lon="5.85679">
        <ele>1094.462665</ele>
        <time>2025-07-10T06:50:31.000Z</time>
      </trkpt>
      <trkpt lat="44.61536" lon="5.85679">
        <ele>1094.496135</ele>
        <time>2025-07-10T06:50:32.000Z</time>
      </trkpt>
      <trkpt lat="44.61541" lon="5.85678">
        <ele>1094.531056</ele>
        <time>2025-07-10T06:50:33.000Z</time>
      </trkpt>
      <trkpt lat="44.61546" lon="5.85677">
        <ele>1094.564708</ele>
        <time>2025-07-10T06:50:34.000Z</time>
      </trkpt>
      <trkpt lat="44.6155" lon="5.85676">
        <ele>1094.59913</ele>
        <time>2025-07-10T06:50:35.000Z</time>
      </trkpt>
      <trkpt lat="44.61555" lon="5.85675">
        <ele>1094.634325</ele>
        <time>2025-07-10T06:50:36.000Z</time>
      </trkpt>
      <trkpt lat="44.6156" lon="5.85674">
        <ele>1094.67038</ele>
        <time>2025-07-10T06:50:37.000Z</time>
      </trkpt>
      <trkpt lat="44.61565" lon="5.85673">
        <ele>1094.704249</ele>
        <time>2025-07-10T06:50:38.000Z</time>
      </trkpt>
      <trkpt lat="44.6157" lon="5.85672">
        <ele>1094.745467</ele>
        <time>2025-07-10T06:50:39.000Z</time>
      </trkpt>
      <trkpt lat="44.61575" lon="5.85671">
        <ele>1094.79063</ele>
        <time>2025-07-10T06:50:40.000Z</time>
      </trkpt>
      <trkpt lat="44.6158" lon="5.8567">
        <ele>1094.834229</ele>
        <time>2025-07-10T06:50:41.000Z</time>
      </trkpt>
      <trkpt lat="44.61584" lon="5.85669">
        <ele>1094.875956</ele>
        <time>2025-07-10T06:50:42.000Z</time>
      </trkpt>
      <trkpt lat="44.61589" lon="5.85668">
        <ele>1094.918465</ele>
        <time>2025-07-10T06:50:43.000Z</time>
      </trkpt>
      <trkpt lat="44.61594" lon="5.85667">
        <ele>1094.961956</ele>
        <time>2025-07-10T06:50:44.000Z</time>
      </trkpt>
      <trkpt lat="44.61598" lon="5.85666">
        <ele>1095.004374</ele>
        <time>2025-07-10T06:50:45.000Z</time>
      </trkpt>
      <trkpt lat="44.61603" lon="5.85665">
        <ele>1095.047866</ele>
        <time>2025-07-10T06:50:46.000Z</time>
      </trkpt>
      <trkpt lat="44.61608" lon="5.85663">
        <ele>1095.089704</ele>
        <time>2025-07-10T06:50:47.000Z</time>
      </trkpt>
      <trkpt lat="44.61612" lon="5.85662">
        <ele>1095.129786</ele>
        <time>2025-07-10T06:50:48.000Z</time>
      </trkpt>
      <trkpt lat="44.61616" lon="5.85661">
        <ele>1095.168574</ele>
        <time>2025-07-10T06:50:49.000Z</time>
      </trkpt>
      <trkpt lat="44.61621" lon="5.85661">
        <ele>1095.208249</ele>
        <time>2025-07-10T06:50:50.000Z</time>
      </trkpt>
      <trkpt lat="44.61625" lon="5.8566">
        <ele>1095.248737</ele>
        <time>2025-07-10T06:50:51.000Z</time>
      </trkpt>
      <trkpt lat="44.6163" lon="5.85659">
        <ele>1095.289224</ele>
        <time>2025-07-10T06:50:52.000Z</time>
      </trkpt>
      <trkpt lat="44.61634" lon="5.85658">
        <ele>1095.331313</ele>
        <time>2025-07-10T06:50:53.000Z</time>
      </trkpt>
      <trkpt lat="44.61639" lon="5.85656">
        <ele>1095.370581</ele>
        <time>2025-07-10T06:50:54.000Z</time>
      </trkpt>
      <trkpt lat="44.61643" lon="5.85654">
        <ele>1095.409667</ele>
        <time>2025-07-10T06:50:55.000Z</time>
      </trkpt>
      <trkpt lat="44.61647" lon="5.85653">
        <ele>1095.447038</ele>
        <time>2025-07-10T06:50:56.000Z</time>
      </trkpt>
      <trkpt lat="44.61651" lon="5.85651">
        <ele>1095.485953</ele>
        <time>2025-07-10T06:50:57.000Z</time>
      </trkpt>
      <trkpt lat="44.61655" lon="5.8565">
        <ele>1095.524706</ele>
        <time>2025-07-10T06:50:58.000Z</time>
      </trkpt>
      <trkpt lat="44.61659" lon="5.85648">
        <ele>1095.562758</ele>
        <time>2025-07-10T06:50:59.000Z</time>
      </trkpt>
      <trkpt lat="44.61664" lon="5.85646">
        <ele>1095.602216</ele>
        <time>2025-07-10T06:51:00.000Z</time>
      </trkpt>
      <trkpt lat="44.61668" lon="5.85644">
        <ele>1095.641483</ele>
        <time>2025-07-10T06:51:01.000Z</time>
      </trkpt>
      <trkpt lat="44.61672" lon="5.85643">
        <ele>1095.681262</ele>
        <time>2025-07-10T06:51:02.000Z</time>
      </trkpt>
      <trkpt lat="44.61676" lon="5.85641">
        <ele>1095.719869</ele>
        <time>2025-07-10T06:51:03.000Z</time>
      </trkpt>
      <trkpt lat="44.6168" lon="5.85639">
        <ele>1095.757429</ele>
        <time>2025-07-10T06:51:04.000Z</time>
      </trkpt>
      <trkpt lat="44.61684" lon="5.85637">
        <ele>1095.79329</ele>
        <time>2025-07-10T06:51:05.000Z</time>
      </trkpt>
      <trkpt lat="44.61688" lon="5.85636">
        <ele>1095.82945</ele>
        <time>2025-07-10T06:51:06.000Z</time>
      </trkpt>
      <trkpt lat="44.61692" lon="5.85634">
        <ele>1095.864261</ele>
        <time>2025-07-10T06:51:07.000Z</time>
      </trkpt>
      <trkpt lat="44.61695" lon="5.85632">
        <ele>1095.897815</ele>
        <time>2025-07-10T06:51:08.000Z</time>
      </trkpt>
      <trkpt lat="44.61698" lon="5.8563">
        <ele>1095.929708</ele>
        <time>2025-07-10T06:51:09.000Z</time>
      </trkpt>
      <trkpt lat="44.61702" lon="5.85628">
        <ele>1095.961364</ele>
        <time>2025-07-10T06:51:10.000Z</time>
      </trkpt>
      <trkpt lat="44.61705" lon="5.85627">
        <ele>1095.992381</ele>
        <time>2025-07-10T06:51:11.000Z</time>
      </trkpt>
      <trkpt lat="44.61708" lon="5.85625">
        <ele>1096.022974</ele>
        <time>2025-07-10T06:51:12.000Z</time>
      </trkpt>
      <trkpt lat="44.61711" lon="5.85624">
        <ele>1096.053141</ele>
        <time>2025-07-10T06:51:13.000Z</time>
      </trkpt>
      <trkpt lat="44.61715" lon="5.85622">
        <ele>1096.083308</ele>
        <time>2025-07-10T06:51:14.000Z</time>
      </trkpt>
      <trkpt lat="44.61718" lon="5.85621">
        <ele>1096.112841</ele>
        <time>2025-07-10T06:51:15.000Z</time>
      </trkpt>
      <trkpt lat="44.61721" lon="5.85619">
        <ele>1096.143216</ele>
        <time>2025-07-10T06:51:16.000Z</time>
      </trkpt>
      <trkpt lat="44.61724" lon="5.85617">
        <ele>1096.173212</ele>
        <time>2025-07-10T06:51:17.000Z</time>
      </trkpt>
      <trkpt lat="44.61727" lon="5.85615">
        <ele>1096.203457</ele>
        <time>2025-07-10T06:51:18.000Z</time>
      </trkpt>
      <trkpt lat="44.6173" lon="5.85614">
        <ele>1096.233216</ele>
        <time>2025-07-10T06:51:19.000Z</time>
      </trkpt>
      <trkpt lat="44.61733" lon="5.85611">
        <ele>1096.262884</ele>
        <time>2025-07-10T06:51:20.000Z</time>
      </trkpt>
      <trkpt lat="44.61736" lon="5.85609">
        <ele>1096.292356</ele>
        <time>2025-07-10T06:51:21.000Z</time>
      </trkpt>
      <trkpt lat="44.61739" lon="5.85607">
        <ele>1096.327616</ele>
        <time>2025-07-10T06:51:22.000Z</time>
      </trkpt>
      <trkpt lat="44.61742" lon="5.85606">
        <ele>1096.429929</ele>
        <time>2025-07-10T06:51:23.000Z</time>
      </trkpt>
      <trkpt lat="44.61745" lon="5.85604">
        <ele>1096.535319</ele>
        <time>2025-07-10T06:51:24.000Z</time>
      </trkpt>
      <trkpt lat="44.61748" lon="5.85603">
        <ele>1096.643794</ele>
        <time>2025-07-10T06:51:25.000Z</time>
      </trkpt>
      <trkpt lat="44.61751" lon="5.85601">
        <ele>1096.747652</ele>
        <time>2025-07-10T06:51:26.000Z</time>
      </trkpt>
      <trkpt lat="44.61754" lon="5.856">
        <ele>1096.851723</ele>
        <time>2025-07-10T06:51:27.000Z</time>
      </trkpt>
      <trkpt lat="44.61757" lon="5.85598">
        <ele>1096.95823</ele>
        <time>2025-07-10T06:51:28.000Z</time>
      </trkpt>
      <trkpt lat="44.6176" lon="5.85596">
        <ele>1097.067759</ele>
        <time>2025-07-10T06:51:29.000Z</time>
      </trkpt>
      <trkpt lat="44.61763" lon="5.85594">
        <ele>1097.180746</ele>
        <time>2025-07-10T06:51:30.000Z</time>
      </trkpt>
      <trkpt lat="44.61767" lon="5.85593">
        <ele>1097.290679</ele>
        <time>2025-07-10T06:51:31.000Z</time>
      </trkpt>
      <trkpt lat="44.6177" lon="5.85592">
        <ele>1097.403602</ele>
        <time>2025-07-10T06:51:32.000Z</time>
      </trkpt>
      <trkpt lat="44.61773" lon="5.8559">
        <ele>1097.517064</ele>
        <time>2025-07-10T06:51:33.000Z</time>
      </trkpt>
      <trkpt lat="44.61777" lon="5.85589">
        <ele>1097.627791</ele>
        <time>2025-07-10T06:51:34.000Z</time>
      </trkpt>
      <trkpt lat="44.6178" lon="5.85587">
        <ele>1097.73468</ele>
        <time>2025-07-10T06:51:35.000Z</time>
      </trkpt>
      <trkpt lat="44.61783" lon="5.85585">
        <ele>1097.839377</ele>
        <time>2025-07-10T06:51:36.000Z</time>
      </trkpt>
      <trkpt lat="44.61786" lon="5.85584">
        <ele>1097.94199</ele>
        <time>2025-07-10T06:51:37.000Z</time>
      </trkpt>
      <trkpt lat="44.61788" lon="5.85582">
        <ele>1098.038181</ele>
        <time>2025-07-10T06:51:38.000Z</time>
      </trkpt>
      <trkpt lat="44.61791" lon="5.85581">
        <ele>1098.136027</ele>
        <time>2025-07-10T06:51:39.000Z</time>
      </trkpt>
      <trkpt lat="44.61794" lon="5.8558">
        <ele>1098.240099</ele>
        <time>2025-07-10T06:51:40.000Z</time>
      </trkpt>
      <trkpt lat="44.61797" lon="5.85578">
        <ele>1098.337932</ele>
        <time>2025-07-10T06:51:41.000Z</time>
      </trkpt>
      <trkpt lat="44.618" lon="5.85577">
        <ele>1098.434123</ele>
        <time>2025-07-10T06:51:42.000Z</time>
      </trkpt>
      <trkpt lat="44.61803" lon="5.85576">
        <ele>1098.520402</ele>
        <time>2025-07-10T06:51:43.000Z</time>
      </trkpt>
      <trkpt lat="44.61805" lon="5.85574">
        <ele>1098.61355</ele>
        <time>2025-07-10T06:51:44.000Z</time>
      </trkpt>
      <trkpt lat="44.61808" lon="5.85573">
        <ele>1098.705926</ele>
        <time>2025-07-10T06:51:45.000Z</time>
      </trkpt>
      <trkpt lat="44.61811" lon="5.85572">
        <ele>1098.796913</ele>
        <time>2025-07-10T06:51:46.000Z</time>
      </trkpt>
      <trkpt lat="44.61813" lon="5.85571">
        <ele>1098.890419</ele>
        <time>2025-07-10T06:51:47.000Z</time>
      </trkpt>
      <trkpt lat="44.61816" lon="5.8557">
        <ele>1098.980791</ele>
        <time>2025-07-10T06:51:48.000Z</time>
      </trkpt>
      <trkpt lat="44.61819" lon="5.85569">
        <ele>1099.074891</ele>
        <time>2025-07-10T06:51:49.000Z</time>
      </trkpt>
      <trkpt lat="44.61822" lon="5.85567">
        <ele>1099.167267</ele>
        <time>2025-07-10T06:51:50.000Z</time>
      </trkpt>
      <trkpt lat="44.61824" lon="5.85566">
        <ele>1099.257386</ele>
        <time>2025-07-10T06:51:51.000Z</time>
      </trkpt>
      <trkpt lat="44.61827" lon="5.85565">
        <ele>1099.345269</ele>
        <time>2025-07-10T06:51:52.000Z</time>
      </trkpt>
      <trkpt lat="44.61829" lon="5.85564">
        <ele>1099.432516</ele>
        <time>2025-07-10T06:51:53.000Z</time>
      </trkpt>
      <trkpt lat="44.61832" lon="5.85563">
        <ele>1099.522328</ele>
        <time>2025-07-10T06:51:54.000Z</time>
      </trkpt>
      <trkpt lat="44.61835" lon="5.85562">
        <ele>1099.61119</ele>
        <time>2025-07-10T06:51:55.000Z</time>
      </trkpt>
      <trkpt lat="44.61837" lon="5.85561">
        <ele>1099.69364</ele>
        <time>2025-07-10T06:51:56.000Z</time>
      </trkpt>
      <trkpt lat="44.6184" lon="5.8556">
        <ele>1099.786118</ele>
        <time>2025-07-10T06:51:57.000Z</time>
      </trkpt>
      <trkpt lat="44.61843" lon="5.85559">
        <ele>1099.873365</ele>
        <time>2025-07-10T06:51:58.000Z</time>
      </trkpt>
      <trkpt lat="44.61845" lon="5.85558">
        <ele>1099.961248</ele>
        <time>2025-07-10T06:51:59.000Z</time>
      </trkpt>
      <trkpt lat="44.61848" lon="5.85557">
        <ele>1100.042269</ele>
        <time>2025-07-10T06:52:00.000Z</time>
      </trkpt>
      <trkpt lat="44.6185" lon="5.85556">
        <ele>1100.130152</ele>
        <time>2025-07-10T06:52:01.000Z</time>
      </trkpt>
      <trkpt lat="44.61853" lon="5.85555">
        <ele>1100.224252</ele>
        <time>2025-07-10T06:52:02.000Z</time>
      </trkpt>
      <trkpt lat="44.61856" lon="5.85554">
        <ele>1100.310918</ele>
        <time>2025-07-10T06:52:03.000Z</time>
      </trkpt>
      <trkpt lat="44.61858" lon="5.85553">
        <ele>1100.395047</ele>
        <time>2025-07-10T06:52:04.000Z</time>
      </trkpt>
      <trkpt lat="44.61861" lon="5.85552">
        <ele>1100.481714</ele>
        <time>2025-07-10T06:52:05.000Z</time>
      </trkpt>
      <trkpt lat="44.61863" lon="5.85551">
        <ele>1100.571023</ele>
        <time>2025-07-10T06:52:06.000Z</time>
      </trkpt>
      <trkpt lat="44.61866" lon="5.8555">
        <ele>1100.658906</ele>
        <time>2025-07-10T06:52:07.000Z</time>
      </trkpt>
      <trkpt lat="44.61869" lon="5.85549">
        <ele>1100.751871</ele>
        <time>2025-07-10T06:52:08.000Z</time>
      </trkpt>
      <trkpt lat="44.61871" lon="5.85548">
        <ele>1100.839754</ele>
        <time>2025-07-10T06:52:09.000Z</time>
      </trkpt>
      <trkpt lat="44.61874" lon="5.85547">
        <ele>1100.925259</ele>
        <time>2025-07-10T06:52:10.000Z</time>
      </trkpt>
      <trkpt lat="44.61876" lon="5.85546">
        <ele>1101.009389</ele>
        <time>2025-07-10T06:52:11.000Z</time>
      </trkpt>
      <trkpt lat="44.61879" lon="5.85545">
        <ele>1101.094666</ele>
        <time>2025-07-10T06:52:12.000Z</time>
      </trkpt>
      <trkpt lat="44.61882" lon="5.85545">
        <ele>1101.177171</ele>
        <time>2025-07-10T06:52:13.000Z</time>
      </trkpt>
      <trkpt lat="44.61884" lon="5.85543">
        <ele>1101.260421</ele>
        <time>2025-07-10T06:52:14.000Z</time>
      </trkpt>
      <trkpt lat="44.61887" lon="5.85542">
        <ele>1101.348304</ele>
        <time>2025-07-10T06:52:15.000Z</time>
      </trkpt>
      <trkpt lat="44.61889" lon="5.85541">
        <ele>1101.436288</ele>
        <time>2025-07-10T06:52:16.000Z</time>
      </trkpt>
      <trkpt lat="44.61892" lon="5.85539">
        <ele>1101.526407</ele>
        <time>2025-07-10T06:52:17.000Z</time>
      </trkpt>
      <trkpt lat="44.61894" lon="5.85538">
        <ele>1101.615728</ele>
        <time>2025-07-10T06:52:18.000Z</time>
      </trkpt>
      <trkpt lat="44.61897" lon="5.85537">
        <ele>1101.70554</ele>
        <time>2025-07-10T06:52:19.000Z</time>
      </trkpt>
      <trkpt lat="44.619" lon="5.85536">
        <ele>1101.792207</ele>
        <time>2025-07-10T06:52:20.000Z</time>
      </trkpt>
      <trkpt lat="44.61902" lon="5.85535">
        <ele>1101.872446</ele>
        <time>2025-07-10T06:52:21.000Z</time>
      </trkpt>
      <trkpt lat="44.61904" lon="5.85534">
        <ele>1101.948613</ele>
        <time>2025-07-10T06:52:22.000Z</time>
      </trkpt>
      <trkpt lat="44.61906" lon="5.85533">
        <ele>1102.017321</ele>
        <time>2025-07-10T06:52:23.000Z</time>
      </trkpt>
      <trkpt lat="44.61908" lon="5.85533">
        <ele>1102.090871</ele>
        <time>2025-07-10T06:52:24.000Z</time>
      </trkpt>
      <trkpt lat="44.61911" lon="5.85532">
        <ele>1102.176866</ele>
        <time>2025-07-10T06:52:25.000Z</time>
      </trkpt>
      <trkpt lat="44.61914" lon="5.85531">
        <ele>1102.265735</ele>
        <time>2025-07-10T06:52:26.000Z</time>
      </trkpt>
      <trkpt lat="44.61916" lon="5.85531">
        <ele>1102.355625</ele>
        <time>2025-07-10T06:52:27.000Z</time>
      </trkpt>
      <trkpt lat="44.61919" lon="5.85529">
        <ele>1102.449097</ele>
        <time>2025-07-10T06:52:28.000Z</time>
      </trkpt>
      <trkpt lat="44.61921" lon="5.85528">
        <ele>1102.539441</ele>
        <time>2025-07-10T06:52:29.000Z</time>
      </trkpt>
      <trkpt lat="44.61924" lon="5.85527">
        <ele>1102.629933</ele>
        <time>2025-07-10T06:52:30.000Z</time>
      </trkpt>
      <trkpt lat="44.61927" lon="5.85526">
        <ele>1102.723087</ele>
        <time>2025-07-10T06:52:31.000Z</time>
      </trkpt>
      <trkpt lat="44.61929" lon="5.85525">
        <ele>1102.816821</ele>
        <time>2025-07-10T06:52:32.000Z</time>
      </trkpt>
      <trkpt lat="44.61932" lon="5.85524">
        <ele>1102.907313</ele>
        <time>2025-07-10T06:52:33.000Z</time>
      </trkpt>
      <trkpt lat="44.61935" lon="5.85523">
        <ele>1103.006523</ele>
        <time>2025-07-10T06:52:34.000Z</time>
      </trkpt>
      <trkpt lat="44.61937" lon="5.85522">
        <ele>1103.099676</ele>
        <time>2025-07-10T06:52:35.000Z</time>
      </trkpt>
      <trkpt lat="44.6194" lon="5.85521">
        <ele>1103.190168</ele>
        <time>2025-07-10T06:52:36.000Z</time>
      </trkpt>
      <trkpt lat="44.61943" lon="5.8552">
        <ele>1103.288438</ele>
        <time>2025-07-10T06:52:37.000Z</time>
      </trkpt>
      <trkpt lat="44.61946" lon="5.85519">
        <ele>1103.382172</ele>
        <time>2025-07-10T06:52:38.000Z</time>
      </trkpt>
      <trkpt lat="44.61948" lon="5.85518">
        <ele>1103.479156</ele>
        <time>2025-07-10T06:52:39.000Z</time>
      </trkpt>
      <trkpt lat="44.61951" lon="5.85517">
        <ele>1103.579396</ele>
        <time>2025-07-10T06:52:40.000Z</time>
      </trkpt>
      <trkpt lat="44.61954" lon="5.85516">
        <ele>1103.67313</ele>
        <time>2025-07-10T06:52:41.000Z</time>
      </trkpt>
      <trkpt lat="44.61957" lon="5.85515">
        <ele>1103.770114</ele>
        <time>2025-07-10T06:52:42.000Z</time>
      </trkpt>
      <trkpt lat="44.61959" lon="5.85514">
        <ele>1103.863267</ele>
        <time>2025-07-10T06:52:43.000Z</time>
      </trkpt>
      <trkpt lat="44.61962" lon="5.85513">
        <ele>1103.953759</ele>
        <time>2025-07-10T06:52:44.000Z</time>
      </trkpt>
      <trkpt lat="44.61965" lon="5.85512">
        <ele>1104.055483</ele>
        <time>2025-07-10T06:52:45.000Z</time>
      </trkpt>
      <trkpt lat="44.61968" lon="5.85512">
        <ele>1104.153302</ele>
        <time>2025-07-10T06:52:46.000Z</time>
      </trkpt>
      <trkpt lat="44.61971" lon="5.85511">
        <ele>1104.247036</ele>
        <time>2025-07-10T06:52:47.000Z</time>
      </trkpt>
      <trkpt lat="44.61973" lon="5.8551">
        <ele>1104.344019</ele>
        <time>2025-07-10T06:52:48.000Z</time>
      </trkpt>
      <trkpt lat="44.61976" lon="5.85509">
        <ele>1104.435171</ele>
        <time>2025-07-10T06:52:49.000Z</time>
      </trkpt>
      <trkpt lat="44.61979" lon="5.85508">
        <ele>1104.523858</ele>
        <time>2025-07-10T06:52:50.000Z</time>
      </trkpt>
      <trkpt lat="44.61981" lon="5.85506">
        <ele>1104.610205</ele>
        <time>2025-07-10T06:52:51.000Z</time>
      </trkpt>
      <trkpt lat="44.61983" lon="5.85506">
        <ele>1104.692489</ele>
        <time>2025-07-10T06:52:52.000Z</time>
      </trkpt>
      <trkpt lat="44.61986" lon="5.85505">
        <ele>1104.781838</ele>
        <time>2025-07-10T06:52:53.000Z</time>
      </trkpt>
      <trkpt lat="44.61989" lon="5.85504">
        <ele>1104.87233</ele>
        <time>2025-07-10T06:52:54.000Z</time>
      </trkpt>
      <trkpt lat="44.61991" lon="5.85503">
        <ele>1104.968753</ele>
        <time>2025-07-10T06:52:55.000Z</time>
      </trkpt>
      <trkpt lat="44.61994" lon="5.85502">
        <ele>1105.05824</ele>
        <time>2025-07-10T06:52:56.000Z</time>
      </trkpt>
      <trkpt lat="44.61996" lon="5.855">
        <ele>1105.150883</ele>
        <time>2025-07-10T06:52:57.000Z</time>
      </trkpt>
      <trkpt lat="44.61999" lon="5.855">
        <ele>1105.240773</ele>
        <time>2025-07-10T06:52:58.000Z</time>
      </trkpt>
      <trkpt lat="44.62002" lon="5.85499">
        <ele>1105.328032</ele>
        <time>2025-07-10T06:52:59.000Z</time>
      </trkpt>
      <trkpt lat="44.62004" lon="5.85497">
        <ele>1105.422403</ele>
        <time>2025-07-10T06:53:00.000Z</time>
      </trkpt>
      <trkpt lat="44.62007" lon="5.85496">
        <ele>1105.516137</ele>
        <time>2025-07-10T06:53:01.000Z</time>
      </trkpt>
      <trkpt lat="44.6201" lon="5.85496">
        <ele>1105.606027</ele>
        <time>2025-07-10T06:53:02.000Z</time>
      </trkpt>
      <trkpt lat="44.62012" lon="5.85494">
        <ele>1105.700399</ele>
        <time>2025-07-10T06:53:03.000Z</time>
      </trkpt>
      <trkpt lat="44.62015" lon="5.85493">
        <ele>1105.79089</ele>
        <time>2025-07-10T06:53:04.000Z</time>
      </trkpt>
      <trkpt lat="44.62017" lon="5.85492">
        <ele>1105.880378</ele>
        <time>2025-07-10T06:53:05.000Z</time>
      </trkpt>
      <trkpt lat="44.6202" lon="5.85491">
        <ele>1105.972247</ele>
        <time>2025-07-10T06:53:06.000Z</time>
      </trkpt>
      <trkpt lat="44.62022" lon="5.8549">
        <ele>1106.057764</ele>
        <time>2025-07-10T06:53:07.000Z</time>
      </trkpt>
      <trkpt lat="44.62025" lon="5.85489">
        <ele>1106.150917</ele>
        <time>2025-07-10T06:53:08.000Z</time>
      </trkpt>
      <trkpt lat="44.62028" lon="5.85488">
        <ele>1106.242786</ele>
        <time>2025-07-10T06:53:09.000Z</time>
      </trkpt>
      <trkpt lat="44.6203" lon="5.85487">
        <ele>1106.337867</ele>
        <time>2025-07-10T06:53:10.000Z</time>
      </trkpt>
      <trkpt lat="44.62033" lon="5.85486">
        <ele>1106.429737</ele>
        <time>2025-07-10T06:53:11.000Z</time>
      </trkpt>
      <trkpt lat="44.62035" lon="5.85485">
        <ele>1106.514482</ele>
        <time>2025-07-10T06:53:12.000Z</time>
      </trkpt>
      <trkpt lat="44.62038" lon="5.85484">
        <ele>1106.608853</ele>
        <time>2025-07-10T06:53:13.000Z</time>
      </trkpt>
      <trkpt lat="44.62041" lon="5.85482">
        <ele>1106.707847</ele>
        <time>2025-07-10T06:53:14.000Z</time>
      </trkpt>
      <trkpt lat="44.62043" lon="5.85481">
        <ele>1106.797334</ele>
        <time>2025-07-10T06:53:15.000Z</time>
      </trkpt>
      <trkpt lat="44.62046" lon="5.8548">
        <ele>1106.886821</ele>
        <time>2025-07-10T06:53:16.000Z</time>
      </trkpt>
      <trkpt lat="44.62048" lon="5.85479">
        <ele>1106.972395</ele>
        <time>2025-07-10T06:53:17.000Z</time>
      </trkpt>
      <trkpt lat="44.62051" lon="5.85478">
        <ele>1107.064159</ele>
        <time>2025-07-10T06:53:18.000Z</time>
      </trkpt>
      <trkpt lat="44.62054" lon="5.85477">
        <ele>1107.152102</ele>
        <time>2025-07-10T06:53:19.000Z</time>
      </trkpt>
      <trkpt lat="44.62056" lon="5.85476">
        <ele>1107.248525</ele>
        <time>2025-07-10T06:53:20.000Z</time>
      </trkpt>
      <trkpt lat="44.62059" lon="5.85476">
        <ele>1107.340289</ele>
        <time>2025-07-10T06:53:21.000Z</time>
      </trkpt>
      <trkpt lat="44.62062" lon="5.85475">
        <ele>1107.43466</ele>
        <time>2025-07-10T06:53:22.000Z</time>
      </trkpt>
      <trkpt lat="44.62065" lon="5.85474">
        <ele>1107.529724</ele>
        <time>2025-07-10T06:53:23.000Z</time>
      </trkpt>
      <trkpt lat="44.62067" lon="5.85473">
        <ele>1107.622355</ele>
        <time>2025-07-10T06:53:24.000Z</time>
      </trkpt>
      <trkpt lat="44.6207" lon="5.85472">
        <ele>1107.714986</ele>
        <time>2025-07-10T06:53:25.000Z</time>
      </trkpt>
      <trkpt lat="44.62073" lon="5.85471">
        <ele>1107.806138</ele>
        <time>2025-07-10T06:53:26.000Z</time>
      </trkpt>
      <trkpt lat="44.62075" lon="5.8547">
        <ele>1107.902561</ele>
        <time>2025-07-10T06:53:27.000Z</time>
      </trkpt>
      <trkpt lat="44.62078" lon="5.85469">
        <ele>1107.992451</ele>
        <time>2025-07-10T06:53:28.000Z</time>
      </trkpt>
      <trkpt lat="44.62081" lon="5.85468">
        <ele>1108.085604</ele>
        <time>2025-07-10T06:53:29.000Z</time>
      </trkpt>
      <trkpt lat="44.62083" lon="5.85467">
        <ele>1108.174473</ele>
        <time>2025-07-10T06:53:30.000Z</time>
      </trkpt>
      <trkpt lat="44.62086" lon="5.85467">
        <ele>1108.27768</ele>
        <time>2025-07-10T06:53:31.000Z</time>
      </trkpt>
      <trkpt lat="44.62089" lon="5.85466">
        <ele>1108.379249</ele>
        <time>2025-07-10T06:53:32.000Z</time>
      </trkpt>
      <trkpt lat="44.62091" lon="5.85465">
        <ele>1108.476066</ele>
        <time>2025-07-10T06:53:33.000Z</time>
      </trkpt>
      <trkpt lat="44.62094" lon="5.85464">
        <ele>1108.574121</ele>
        <time>2025-07-10T06:53:34.000Z</time>
      </trkpt>
      <trkpt lat="44.62097" lon="5.85463">
        <ele>1108.672176</ele>
        <time>2025-07-10T06:53:35.000Z</time>
      </trkpt>
      <trkpt lat="44.62099" lon="5.85462">
        <ele>1108.773745</ele>
        <time>2025-07-10T06:53:36.000Z</time>
      </trkpt>
      <trkpt lat="44.62102" lon="5.85461">
        <ele>1108.873292</ele>
        <time>2025-07-10T06:53:37.000Z</time>
      </trkpt>
      <trkpt lat="44.62105" lon="5.85459">
        <ele>1108.977113</ele>
        <time>2025-07-10T06:53:38.000Z</time>
      </trkpt>
      <trkpt lat="44.62107" lon="5.85458">
        <ele>1109.086378</ele>
        <time>2025-07-10T06:53:39.000Z</time>
      </trkpt>
      <trkpt lat="44.6211" lon="5.85457">
        <ele>1109.195642</ele>
        <time>2025-07-10T06:53:40.000Z</time>
      </trkpt>
      <trkpt lat="44.62113" lon="5.85456">
        <ele>1109.30561</ele>
        <time>2025-07-10T06:53:41.000Z</time>
      </trkpt>
      <trkpt lat="44.62116" lon="5.85455">
        <ele>1109.417196</ele>
        <time>2025-07-10T06:53:42.000Z</time>
      </trkpt>
      <trkpt lat="44.62119" lon="5.85454">
        <ele>1109.528782</ele>
        <time>2025-07-10T06:53:43.000Z</time>
      </trkpt>
      <trkpt lat="44.62122" lon="5.85453">
        <ele>1109.63689</ele>
        <time>2025-07-10T06:53:44.000Z</time>
      </trkpt>
      <trkpt lat="44.62125" lon="5.85451">
        <ele>1109.741578</ele>
        <time>2025-07-10T06:53:45.000Z</time>
      </trkpt>
      <trkpt lat="44.62128" lon="5.8545">
        <ele>1109.851546</ele>
        <time>2025-07-10T06:53:46.000Z</time>
      </trkpt>
      <trkpt lat="44.62131" lon="5.85449">
        <ele>1109.978531</ele>
        <time>2025-07-10T06:53:47.000Z</time>
      </trkpt>
      <trkpt lat="44.62134" lon="5.85447">
        <ele>1110.093519</ele>
        <time>2025-07-10T06:53:48.000Z</time>
      </trkpt>
      <trkpt lat="44.62137" lon="5.85446">
        <ele>1110.20506</ele>
        <time>2025-07-10T06:53:49.000Z</time>
      </trkpt>
      <trkpt lat="44.6214" lon="5.85444">
        <ele>1110.31747</ele>
        <time>2025-07-10T06:53:50.000Z</time>
      </trkpt>
      <trkpt lat="44.62143" lon="5.85443">
        <ele>1110.4308</ele>
        <time>2025-07-10T06:53:51.000Z</time>
      </trkpt>
      <trkpt lat="44.62146" lon="5.85441">
        <ele>1110.544998</ele>
        <time>2025-07-10T06:53:52.000Z</time>
      </trkpt>
      <trkpt lat="44.62149" lon="5.8544">
        <ele>1110.662677</ele>
        <time>2025-07-10T06:53:53.000Z</time>
      </trkpt>
      <trkpt lat="44.62152" lon="5.85439">
        <ele>1110.776875</ele>
        <time>2025-07-10T06:53:54.000Z</time>
      </trkpt>
      <trkpt lat="44.62154" lon="5.85437">
        <ele>1110.882309</ele>
        <time>2025-07-10T06:53:55.000Z</time>
      </trkpt>
      <trkpt lat="44.62157" lon="5.85435">
        <ele>1110.995417</ele>
        <time>2025-07-10T06:53:56.000Z</time>
      </trkpt>
      <trkpt lat="44.6216" lon="5.85434">
        <ele>1111.105369</ele>
        <time>2025-07-10T06:53:57.000Z</time>
      </trkpt>
      <trkpt lat="44.62163" lon="5.85432">
        <ele>1111.214634</ele>
        <time>2025-07-10T06:53:58.000Z</time>
      </trkpt>
      <trkpt lat="44.62166" lon="5.85431">
        <ele>1111.333879</ele>
        <time>2025-07-10T06:53:59.000Z</time>
      </trkpt>
      <trkpt lat="44.62169" lon="5.8543">
        <ele>1111.452325</ele>
        <time>2025-07-10T06:54:00.000Z</time>
      </trkpt>
      <trkpt lat="44.62172" lon="5.85428">
        <ele>1111.563278</ele>
        <time>2025-07-10T06:54:01.000Z</time>
      </trkpt>
      <trkpt lat="44.62175" lon="5.85427">
        <ele>1111.679108</ele>
        <time>2025-07-10T06:54:02.000Z</time>
      </trkpt>
      <trkpt lat="44.62178" lon="5.85425">
        <ele>1111.792438</ele>
        <time>2025-07-10T06:54:03.000Z</time>
      </trkpt>
      <trkpt lat="44.62181" lon="5.85424">
        <ele>1111.910117</ele>
        <time>2025-07-10T06:54:04.000Z</time>
      </trkpt>
      <trkpt lat="44.62184" lon="5.85423">
        <ele>1112.016601</ele>
        <time>2025-07-10T06:54:05.000Z</time>
      </trkpt>
      <trkpt lat="44.62186" lon="5.85421">
        <ele>1112.118839</ele>
        <time>2025-07-10T06:54:06.000Z</time>
      </trkpt>
      <trkpt lat="44.62189" lon="5.8542">
        <ele>1112.226463</ele>
        <time>2025-07-10T06:54:07.000Z</time>
      </trkpt>
      <trkpt lat="44.62192" lon="5.85418">
        <ele>1112.332947</ele>
        <time>2025-07-10T06:54:08.000Z</time>
      </trkpt>
      <trkpt lat="44.62194" lon="5.85417">
        <ele>1112.432495</ele>
        <time>2025-07-10T06:54:09.000Z</time>
      </trkpt>
      <trkpt lat="44.62197" lon="5.85416">
        <ele>1112.53039</ele>
        <time>2025-07-10T06:54:10.000Z</time>
      </trkpt>
      <trkpt lat="44.62199" lon="5.85415">
        <ele>1112.625683</ele>
        <time>2025-07-10T06:54:11.000Z</time>
      </trkpt>
      <trkpt lat="44.62202" lon="5.85414">
        <ele>1112.720235</ele>
        <time>2025-07-10T06:54:12.000Z</time>
      </trkpt>
      <trkpt lat="44.62204" lon="5.85412">
        <ele>1112.814761</ele>
        <time>2025-07-10T06:54:13.000Z</time>
      </trkpt>
      <trkpt lat="44.62207" lon="5.85411">
        <ele>1112.913531</ele>
        <time>2025-07-10T06:54:14.000Z</time>
      </trkpt>
      <trkpt lat="44.62209" lon="5.8541">
        <ele>1113.007095</ele>
        <time>2025-07-10T06:54:15.000Z</time>
      </trkpt>
      <trkpt lat="44.62212" lon="5.85409">
        <ele>1113.105865</ele>
        <time>2025-07-10T06:54:16.000Z</time>
      </trkpt>
      <trkpt lat="44.62214" lon="5.85407">
        <ele>1113.203761</ele>
        <time>2025-07-10T06:54:17.000Z</time>
      </trkpt>
      <trkpt lat="44.62217" lon="5.85406">
        <ele>1113.298312</ele>
        <time>2025-07-10T06:54:18.000Z</time>
      </trkpt>
      <trkpt lat="44.62219" lon="5.85405">
        <ele>1113.392864</ele>
        <time>2025-07-10T06:54:19.000Z</time>
      </trkpt>
      <trkpt lat="44.62222" lon="5.85404">
        <ele>1113.491634</ele>
        <time>2025-07-10T06:54:20.000Z</time>
      </trkpt>
      <trkpt lat="44.62225" lon="5.85403">
        <ele>1113.587733</ele>
        <time>2025-07-10T06:54:21.000Z</time>
      </trkpt>
      <trkpt lat="44.62227" lon="5.85402">
        <ele>1113.680999</ele>
        <time>2025-07-10T06:54:22.000Z</time>
      </trkpt>
      <trkpt lat="44.6223" lon="5.85401">
        <ele>1113.774266</ele>
        <time>2025-07-10T06:54:23.000Z</time>
      </trkpt>
      <trkpt lat="44.62232" lon="5.854">
        <ele>1113.873814</ele>
        <time>2025-07-10T06:54:24.000Z</time>
      </trkpt>
      <trkpt lat="44.62235" lon="5.85399">
        <ele>1113.980297</ele>
        <time>2025-07-10T06:54:25.000Z</time>
      </trkpt>
      <trkpt lat="44.62237" lon="5.85398">
        <ele>1114.071474</ele>
        <time>2025-07-10T06:54:26.000Z</time>
      </trkpt>
      <trkpt lat="44.6224" lon="5.85396">
        <ele>1114.162652</ele>
        <time>2025-07-10T06:54:27.000Z</time>
      </trkpt>
      <trkpt lat="44.62242" lon="5.85395">
        <ele>1114.253829</ele>
        <time>2025-07-10T06:54:28.000Z</time>
      </trkpt>
      <trkpt lat="44.62244" lon="5.85394">
        <ele>1114.345657</ele>
        <time>2025-07-10T06:54:29.000Z</time>
      </trkpt>
      <trkpt lat="44.62247" lon="5.85392">
        <ele>1114.43922</ele>
        <time>2025-07-10T06:54:30.000Z</time>
      </trkpt>
      <trkpt lat="44.62249" lon="5.85391">
        <ele>1114.531457</ele>
        <time>2025-07-10T06:54:31.000Z</time>
      </trkpt>
      <trkpt lat="44.62251" lon="5.8539">
        <ele>1114.628424</ele>
        <time>2025-07-10T06:54:32.000Z</time>
      </trkpt>
      <trkpt lat="44.62254" lon="5.85389">
        <ele>1114.715271</ele>
        <time>2025-07-10T06:54:33.000Z</time>
      </trkpt>
      <trkpt lat="44.62256" lon="5.85388">
        <ele>1114.822761</ele>
        <time>2025-07-10T06:54:34.000Z</time>
      </trkpt>
      <trkpt lat="44.62258" lon="5.85386">
        <ele>1114.931265</ele>
        <time>2025-07-10T06:54:35.000Z</time>
      </trkpt>
      <trkpt lat="44.62261" lon="5.85385">
        <ele>1115.038714</ele>
        <time>2025-07-10T06:54:36.000Z</time>
      </trkpt>
      <trkpt lat="44.62263" lon="5.85384">
        <ele>1115.151374</ele>
        <time>2025-07-10T06:54:37.000Z</time>
      </trkpt>
      <trkpt lat="44.62265" lon="5.85383">
        <ele>1115.264035</ele>
        <time>2025-07-10T06:54:38.000Z</time>
      </trkpt>
      <trkpt lat="44.62268" lon="5.85382">
        <ele>1115.375679</ele>
        <time>2025-07-10T06:54:39.000Z</time>
      </trkpt>
      <trkpt lat="44.6227" lon="5.85381">
        <ele>1115.480467</ele>
        <time>2025-07-10T06:54:40.000Z</time>
      </trkpt>
      <trkpt lat="44.62272" lon="5.8538">
        <ele>1115.585255</ele>
        <time>2025-07-10T06:54:41.000Z</time>
      </trkpt>
      <trkpt lat="44.62275" lon="5.85379">
        <ele>1115.696899</ele>
        <time>2025-07-10T06:54:42.000Z</time>
      </trkpt>
      <trkpt lat="44.62277" lon="5.85378">
        <ele>1115.807752</ele>
        <time>2025-07-10T06:54:43.000Z</time>
      </trkpt>
      <trkpt lat="44.6228" lon="5.85377">
        <ele>1115.923609</ele>
        <time>2025-07-10T06:54:44.000Z</time>
      </trkpt>
      <trkpt lat="44.62282" lon="5.85375">
        <ele>1116.035253</ele>
        <time>2025-07-10T06:54:45.000Z</time>
      </trkpt>
      <trkpt lat="44.62284" lon="5.85375">
        <ele>1116.145108</ele>
        <time>2025-07-10T06:54:46.000Z</time>
      </trkpt>
      <trkpt lat="44.62287" lon="5.85374">
        <ele>1116.264324</ele>
        <time>2025-07-10T06:54:47.000Z</time>
      </trkpt>
      <trkpt lat="44.62289" lon="5.85373">
        <ele>1116.375032</ele>
        <time>2025-07-10T06:54:48.000Z</time>
      </trkpt>
      <trkpt lat="44.62292" lon="5.85372">
        <ele>1116.488426</ele>
        <time>2025-07-10T06:54:49.000Z</time>
      </trkpt>
      <trkpt lat="44.62294" lon="5.85371">
        <ele>1116.598281</ele>
        <time>2025-07-10T06:54:50.000Z</time>
      </trkpt>
      <trkpt lat="44.62297" lon="5.8537">
        <ele>1116.709925</ele>
        <time>2025-07-10T06:54:51.000Z</time>
      </trkpt>
      <trkpt lat="44.62299" lon="5.85369">
        <ele>1116.817374</ele>
        <time>2025-07-10T06:54:52.000Z</time>
      </trkpt>
      <trkpt lat="44.62301" lon="5.85367">
        <ele>1116.931128</ele>
        <time>2025-07-10T06:54:53.000Z</time>
      </trkpt>
      <trkpt lat="44.62304" lon="5.85366">
        <ele>1117.043789</ele>
        <time>2025-07-10T06:54:54.000Z</time>
      </trkpt>
      <trkpt lat="44.62306" lon="5.85365">
        <ele>1117.157543</ele>
        <time>2025-07-10T06:54:55.000Z</time>
      </trkpt>
      <trkpt lat="44.62309" lon="5.85364">
        <ele>1117.267398</ele>
        <time>2025-07-10T06:54:56.000Z</time>
      </trkpt>
      <trkpt lat="44.62311" lon="5.85363">
        <ele>1117.377253</ele>
        <time>2025-07-10T06:54:57.000Z</time>
      </trkpt>
      <trkpt lat="44.62313" lon="5.85362">
        <ele>1117.483729</ele>
        <time>2025-07-10T06:54:58.000Z</time>
      </trkpt>
      <trkpt lat="44.62316" lon="5.85361">
        <ele>1117.594438</ele>
        <time>2025-07-10T06:54:59.000Z</time>
      </trkpt>
      <trkpt lat="44.62318" lon="5.8536">
        <ele>1117.709362</ele>
        <time>2025-07-10T06:55:00.000Z</time>
      </trkpt>
      <trkpt lat="44.6232" lon="5.85358">
        <ele>1117.821503</ele>
        <time>2025-07-10T06:55:01.000Z</time>
      </trkpt>
      <trkpt lat="44.62323" lon="5.85357">
        <ele>1117.929649</ele>
        <time>2025-07-10T06:55:02.000Z</time>
      </trkpt>
      <trkpt lat="44.62325" lon="5.85355">
        <ele>1118.046081</ele>
        <time>2025-07-10T06:55:03.000Z</time>
      </trkpt>
      <trkpt lat="44.62327" lon="5.85353">
        <ele>1118.15712</ele>
        <time>2025-07-10T06:55:04.000Z</time>
      </trkpt>
      <trkpt lat="44.62329" lon="5.85352">
        <ele>1118.261305</ele>
        <time>2025-07-10T06:55:05.000Z</time>
      </trkpt>
      <trkpt lat="44.62331" lon="5.8535">
        <ele>1118.364102</ele>
        <time>2025-07-10T06:55:06.000Z</time>
      </trkpt>
      <trkpt lat="44.62333" lon="5.85349">
        <ele>1118.460279</ele>
        <time>2025-07-10T06:55:07.000Z</time>
      </trkpt>
      <trkpt lat="44.62335" lon="5.85348">
        <ele>1118.559098</ele>
        <time>2025-07-10T06:55:08.000Z</time>
      </trkpt>
      <trkpt lat="44.62337" lon="5.85347">
        <ele>1118.64998</ele>
        <time>2025-07-10T06:55:09.000Z</time>
      </trkpt>
      <trkpt lat="44.62339" lon="5.85345">
        <ele>1118.750239</ele>
        <time>2025-07-10T06:55:10.000Z</time>
      </trkpt>
      <trkpt lat="44.62341" lon="5.85344">
        <ele>1118.844123</ele>
        <time>2025-07-10T06:55:11.000Z</time>
      </trkpt>
      <trkpt lat="44.62343" lon="5.85343">
        <ele>1118.942184</ele>
        <time>2025-07-10T06:55:12.000Z</time>
      </trkpt>
      <trkpt lat="44.62346" lon="5.85342">
        <ele>1119.047832</ele>
        <time>2025-07-10T06:55:13.000Z</time>
      </trkpt>
      <trkpt lat="44.62348" lon="5.8534">
        <ele>1119.155017</ele>
        <time>2025-07-10T06:55:14.000Z</time>
      </trkpt>
      <trkpt lat="44.6235" lon="5.85338">
        <ele>1119.258393</ele>
        <time>2025-07-10T06:55:15.000Z</time>
      </trkpt>
      <trkpt lat="44.62352" lon="5.85337">
        <ele>1119.362578</ele>
        <time>2025-07-10T06:55:16.000Z</time>
      </trkpt>
      <trkpt lat="44.62354" lon="5.85335">
        <ele>1119.477502</ele>
        <time>2025-07-10T06:55:17.000Z</time>
      </trkpt>
      <trkpt lat="44.62356" lon="5.85334">
        <ele>1119.591708</ele>
        <time>2025-07-10T06:55:18.000Z</time>
      </trkpt>
      <trkpt lat="44.62359" lon="5.85332">
        <ele>1119.70814</ele>
        <time>2025-07-10T06:55:19.000Z</time>
      </trkpt>
      <trkpt lat="44.62361" lon="5.8533">
        <ele>1119.820281</ele>
        <time>2025-07-10T06:55:20.000Z</time>
      </trkpt>
      <trkpt lat="44.62363" lon="5.85328">
        <ele>1119.927052</ele>
        <time>2025-07-10T06:55:21.000Z</time>
      </trkpt>
      <trkpt lat="44.62365" lon="5.85327">
        <ele>1120.0345</ele>
        <time>2025-07-10T06:55:22.000Z</time>
      </trkpt>
      <trkpt lat="44.62368" lon="5.85326">
        <ele>1120.14414</ele>
        <time>2025-07-10T06:55:23.000Z</time>
      </trkpt>
      <trkpt lat="44.6237" lon="5.85324">
        <ele>1120.264361</ele>
        <time>2025-07-10T06:55:24.000Z</time>
      </trkpt>
      <trkpt lat="44.62372" lon="5.85323">
        <ele>1120.377863</ele>
        <time>2025-07-10T06:55:25.000Z</time>
      </trkpt>
      <trkpt lat="44.62375" lon="5.85321">
        <ele>1120.495859</ele>
        <time>2025-07-10T06:55:26.000Z</time>
      </trkpt>
      <trkpt lat="44.62377" lon="5.85319">
        <ele>1120.617351</ele>
        <time>2025-07-10T06:55:27.000Z</time>
      </trkpt>
      <trkpt lat="44.6238" lon="5.85318">
        <ele>1120.7394</ele>
        <time>2025-07-10T06:55:28.000Z</time>
      </trkpt>
      <trkpt lat="44.62382" lon="5.85316">
        <ele>1120.860892</ele>
        <time>2025-07-10T06:55:29.000Z</time>
      </trkpt>
      <trkpt lat="44.62385" lon="5.85315">
        <ele>1120.990485</ele>
        <time>2025-07-10T06:55:30.000Z</time>
      </trkpt>
      <trkpt lat="44.62388" lon="5.85313">
        <ele>1121.113624</ele>
        <time>2025-07-10T06:55:31.000Z</time>
      </trkpt>
      <trkpt lat="44.6239" lon="5.85312">
        <ele>1121.237925</ele>
        <time>2025-07-10T06:55:32.000Z</time>
      </trkpt>
      <trkpt lat="44.62393" lon="5.8531">
        <ele>1121.368774</ele>
        <time>2025-07-10T06:55:33.000Z</time>
      </trkpt>
      <trkpt lat="44.62396" lon="5.85309">
        <ele>1121.496053</ele>
        <time>2025-07-10T06:55:34.000Z</time>
      </trkpt>
      <trkpt lat="44.62398" lon="5.85308">
        <ele>1121.608713</ele>
        <time>2025-07-10T06:55:35.000Z</time>
      </trkpt>
      <trkpt lat="44.62401" lon="5.85307">
        <ele>1121.727928</ele>
        <time>2025-07-10T06:55:36.000Z</time>
      </trkpt>
      <trkpt lat="44.62403" lon="5.85306">
        <ele>1121.856507</ele>
        <time>2025-07-10T06:55:37.000Z</time>
      </trkpt>
      <trkpt lat="44.62406" lon="5.85305">
        <ele>1121.983535</ele>
        <time>2025-07-10T06:55:38.000Z</time>
      </trkpt>
      <trkpt lat="44.62409" lon="5.85304">
        <ele>1122.114879</ele>
        <time>2025-07-10T06:55:39.000Z</time>
      </trkpt>
      <trkpt lat="44.62412" lon="5.85303">
        <ele>1122.238365</ele>
        <time>2025-07-10T06:55:40.000Z</time>
      </trkpt>
      <trkpt lat="44.62414" lon="5.85302">
        <ele>1122.358145</ele>
        <time>2025-07-10T06:55:41.000Z</time>
      </trkpt>
      <trkpt lat="44.62417" lon="5.85302">
        <ele>1122.477717</ele>
        <time>2025-07-10T06:55:42.000Z</time>
      </trkpt>
      <trkpt lat="44.6242" lon="5.85302">
        <ele>1122.59914</ele>
        <time>2025-07-10T06:55:43.000Z</time>
      </trkpt>
      <trkpt lat="44.62422" lon="5.85301">
        <ele>1122.706011</ele>
        <time>2025-07-10T06:55:44.000Z</time>
      </trkpt>
      <trkpt lat="44.62425" lon="5.85301">
        <ele>1122.799678</ele>
        <time>2025-07-10T06:55:45.000Z</time>
      </trkpt>
      <trkpt lat="44.62428" lon="5.853">
        <ele>1122.897011</ele>
        <time>2025-07-10T06:55:46.000Z</time>
      </trkpt>
      <trkpt lat="44.62431" lon="5.853">
        <ele>1122.991194</ele>
        <time>2025-07-10T06:55:47.000Z</time>
      </trkpt>
      <trkpt lat="44.62433" lon="5.853">
        <ele>1123.088309</ele>
        <time>2025-07-10T06:55:48.000Z</time>
      </trkpt>
      <trkpt lat="44.62436" lon="5.85299">
        <ele>1123.182202</ele>
        <time>2025-07-10T06:55:49.000Z</time>
      </trkpt>
      <trkpt lat="44.62439" lon="5.85298">
        <ele>1123.272096</ele>
        <time>2025-07-10T06:55:50.000Z</time>
      </trkpt>
      <trkpt lat="44.62441" lon="5.85298">
        <ele>1123.356866</ele>
        <time>2025-07-10T06:55:51.000Z</time>
      </trkpt>
      <trkpt lat="44.62444" lon="5.85297">
        <ele>1123.44676</ele>
        <time>2025-07-10T06:55:52.000Z</time>
      </trkpt>
      <trkpt lat="44.62446" lon="5.85296">
        <ele>1123.533778</ele>
        <time>2025-07-10T06:55:53.000Z</time>
      </trkpt>
      <trkpt lat="44.62449" lon="5.85295">
        <ele>1123.629219</ele>
        <time>2025-07-10T06:55:54.000Z</time>
      </trkpt>
      <trkpt lat="44.62451" lon="5.85294">
        <ele>1123.719818</ele>
        <time>2025-07-10T06:55:55.000Z</time>
      </trkpt>
      <trkpt lat="44.62454" lon="5.85293">
        <ele>1123.818172</ele>
        <time>2025-07-10T06:55:56.000Z</time>
      </trkpt>
      <trkpt lat="44.62456" lon="5.85292">
        <ele>1123.905477</ele>
        <time>2025-07-10T06:55:57.000Z</time>
      </trkpt>
      <trkpt lat="44.62459" lon="5.85291">
        <ele>1123.988046</ele>
        <time>2025-07-10T06:55:58.000Z</time>
      </trkpt>
      <trkpt lat="44.62461" lon="5.8529">
        <ele>1124.077941</ele>
        <time>2025-07-10T06:55:59.000Z</time>
      </trkpt>
      <trkpt lat="44.62464" lon="5.85289">
        <ele>1124.169305</ele>
        <time>2025-07-10T06:56:00.000Z</time>
      </trkpt>
      <trkpt lat="44.62466" lon="5.85287">
        <ele>1124.272939</ele>
        <time>2025-07-10T06:56:01.000Z</time>
      </trkpt>
      <trkpt lat="44.62469" lon="5.85286">
        <ele>1124.368906</ele>
        <time>2025-07-10T06:56:02.000Z</time>
      </trkpt>
      <trkpt lat="44.62472" lon="5.85285">
        <ele>1124.470145</ele>
        <time>2025-07-10T06:56:03.000Z</time>
      </trkpt>
      <trkpt lat="44.62475" lon="5.85284">
        <ele>1124.56948</ele>
        <time>2025-07-10T06:56:04.000Z</time>
      </trkpt>
      <trkpt lat="44.62477" lon="5.85284">
        <ele>1124.657191</ele>
        <time>2025-07-10T06:56:05.000Z</time>
      </trkpt>
      <trkpt lat="44.6248" lon="5.85283">
        <ele>1124.750858</ele>
        <time>2025-07-10T06:56:06.000Z</time>
      </trkpt>
      <trkpt lat="44.62483" lon="5.85282">
        <ele>1124.844763</ele>
        <time>2025-07-10T06:56:07.000Z</time>
      </trkpt>
      <trkpt lat="44.62485" lon="5.85281">
        <ele>1124.930669</ele>
        <time>2025-07-10T06:56:08.000Z</time>
      </trkpt>
      <trkpt lat="44.62487" lon="5.85281">
        <ele>1125.016574</ele>
        <time>2025-07-10T06:56:09.000Z</time>
      </trkpt>
      <trkpt lat="44.6249" lon="5.85279">
        <ele>1125.101423</ele>
        <time>2025-07-10T06:56:10.000Z</time>
      </trkpt>
      <trkpt lat="44.62492" lon="5.85278">
        <ele>1125.183962</ele>
        <time>2025-07-10T06:56:11.000Z</time>
      </trkpt>
      <trkpt lat="44.62494" lon="5.85277">
        <ele>1125.280256</ele>
        <time>2025-07-10T06:56:12.000Z</time>
      </trkpt>
      <trkpt lat="44.62497" lon="5.85276">
        <ele>1125.374161</ele>
        <time>2025-07-10T06:56:13.000Z</time>
      </trkpt>
      <trkpt lat="44.625" lon="5.85274">
        <ele>1125.472096</ele>
        <time>2025-07-10T06:56:14.000Z</time>
      </trkpt>
      <trkpt lat="44.62503" lon="5.85273">
        <ele>1125.578968</ele>
        <time>2025-07-10T06:56:15.000Z</time>
      </trkpt>
      <trkpt lat="44.62505" lon="5.85272">
        <ele>1125.680952</ele>
        <time>2025-07-10T06:56:16.000Z</time>
      </trkpt>
      <trkpt lat="44.62508" lon="5.8527">
        <ele>1125.780483</ele>
        <time>2025-07-10T06:56:17.000Z</time>
      </trkpt>
      <trkpt lat="44.62511" lon="5.85269">
        <ele>1125.877685</ele>
        <time>2025-07-10T06:56:18.000Z</time>
      </trkpt>
      <trkpt lat="44.62513" lon="5.85267">
        <ele>1125.969875</ele>
        <time>2025-07-10T06:56:19.000Z</time>
      </trkpt>
      <trkpt lat="44.62516" lon="5.85266">
        <ele>1126.058632</ele>
        <time>2025-07-10T06:56:20.000Z</time>
      </trkpt>
      <trkpt lat="44.62518" lon="5.85264">
        <ele>1126.152644</ele>
        <time>2025-07-10T06:56:21.000Z</time>
      </trkpt>
      <trkpt lat="44.62521" lon="5.85263">
        <ele>1126.248085</ele>
        <time>2025-07-10T06:56:22.000Z</time>
      </trkpt>
      <trkpt lat="44.62523" lon="5.85262">
        <ele>1126.342729</ele>
        <time>2025-07-10T06:56:23.000Z</time>
      </trkpt>
      <trkpt lat="44.62526" lon="5.8526">
        <ele>1126.444712</ele>
        <time>2025-07-10T06:56:24.000Z</time>
      </trkpt>
      <trkpt lat="44.62529" lon="5.85259">
        <ele>1126.551342</ele>
        <time>2025-07-10T06:56:25.000Z</time>
      </trkpt>
      <trkpt lat="44.62532" lon="5.85258">
        <ele>1126.653326</ele>
        <time>2025-07-10T06:56:26.000Z</time>
      </trkpt>
      <trkpt lat="44.62535" lon="5.85257">
        <ele>1126.752032</ele>
        <time>2025-07-10T06:56:27.000Z</time>
      </trkpt>
      <trkpt lat="44.62537" lon="5.85256">
        <ele>1126.848597</ele>
        <time>2025-07-10T06:56:28.000Z</time>
      </trkpt>
      <trkpt lat="44.6254" lon="5.85254">
        <ele>1126.944649</ele>
        <time>2025-07-10T06:56:29.000Z</time>
      </trkpt>
      <trkpt lat="44.62542" lon="5.85253">
        <ele>1127.040942</ele>
        <time>2025-07-10T06:56:30.000Z</time>
      </trkpt>
      <trkpt lat="44.62545" lon="5.85251">
        <ele>1127.136383</ele>
        <time>2025-07-10T06:56:31.000Z</time>
      </trkpt>
      <trkpt lat="44.62548" lon="5.8525">
        <ele>1127.229608</ele>
        <time>2025-07-10T06:56:32.000Z</time>
      </trkpt>
      <trkpt lat="44.6255" lon="5.85249">
        <ele>1127.330949</ele>
        <time>2025-07-10T06:56:33.000Z</time>
      </trkpt>
      <trkpt lat="44.62553" lon="5.85248">
        <ele>1127.422313</ele>
        <time>2025-07-10T06:56:34.000Z</time>
      </trkpt>
      <trkpt lat="44.62555" lon="5.85246">
        <ele>1127.513678</ele>
        <time>2025-07-10T06:56:35.000Z</time>
      </trkpt>
      <trkpt lat="44.62558" lon="5.85246">
        <ele>1127.60293</ele>
        <time>2025-07-10T06:56:36.000Z</time>
      </trkpt>
      <trkpt lat="44.6256" lon="5.85244">
        <ele>1127.693529</ele>
        <time>2025-07-10T06:56:37.000Z</time>
      </trkpt>
      <trkpt lat="44.62563" lon="5.85243">
        <ele>1127.787433</ele>
        <time>2025-07-10T06:56:38.000Z</time>
      </trkpt>
      <trkpt lat="44.62565" lon="5.85242">
        <ele>1127.878032</ele>
        <time>2025-07-10T06:56:39.000Z</time>
      </trkpt>
      <trkpt lat="44.62568" lon="5.85241">
        <ele>1127.966987</ele>
        <time>2025-07-10T06:56:40.000Z</time>
      </trkpt>
      <trkpt lat="44.6257" lon="5.8524">
        <ele>1128.051836</ele>
        <time>2025-07-10T06:56:41.000Z</time>
      </trkpt>
      <trkpt lat="44.62572" lon="5.85239">
        <ele>1128.135859</ele>
        <time>2025-07-10T06:56:42.000Z</time>
      </trkpt>
      <trkpt lat="44.62575" lon="5.85237">
        <ele>1128.218398</ele>
        <time>2025-07-10T06:56:43.000Z</time>
      </trkpt>
      <trkpt lat="44.62577" lon="5.85236">
        <ele>1128.307155</ele>
        <time>2025-07-10T06:56:44.000Z</time>
      </trkpt>
      <trkpt lat="44.62579" lon="5.85234">
        <ele>1128.401239</ele>
        <time>2025-07-10T06:56:45.000Z</time>
      </trkpt>
      <trkpt lat="44.62581" lon="5.85232">
        <ele>1128.49186</ele>
        <time>2025-07-10T06:56:46.000Z</time>
      </trkpt>
      <trkpt lat="44.62584" lon="5.8523">
        <ele>1128.582908</ele>
        <time>2025-07-10T06:56:47.000Z</time>
      </trkpt>
      <trkpt lat="44.62586" lon="5.85228">
        <ele>1128.676993</ele>
        <time>2025-07-10T06:56:48.000Z</time>
      </trkpt>
      <trkpt lat="44.62589" lon="5.85227">
        <ele>1128.774142</ele>
        <time>2025-07-10T06:56:49.000Z</time>
      </trkpt>
      <trkpt lat="44.62591" lon="5.85226">
        <ele>1128.870707</ele>
        <time>2025-07-10T06:56:50.000Z</time>
      </trkpt>
      <trkpt lat="44.62594" lon="5.85225">
        <ele>1128.992432</ele>
        <time>2025-07-10T06:56:51.000Z</time>
      </trkpt>
      <trkpt lat="44.62597" lon="5.85224">
        <ele>1129.120012</ele>
        <time>2025-07-10T06:56:52.000Z</time>
      </trkpt>
      <trkpt lat="44.62599" lon="5.85222">
        <ele>1129.250028</ele>
        <time>2025-07-10T06:56:53.000Z</time>
      </trkpt>
      <trkpt lat="44.62602" lon="5.85221">
        <ele>1129.386238</ele>
        <time>2025-07-10T06:56:54.000Z</time>
      </trkpt>
      <trkpt lat="44.62604" lon="5.8522">
        <ele>1129.511272</ele>
        <time>2025-07-10T06:56:55.000Z</time>
      </trkpt>
      <trkpt lat="44.62607" lon="5.85218">
        <ele>1129.641884</ele>
        <time>2025-07-10T06:56:56.000Z</time>
      </trkpt>
      <trkpt lat="44.62609" lon="5.85217">
        <ele>1129.764871</ele>
        <time>2025-07-10T06:56:57.000Z</time>
      </trkpt>
      <trkpt lat="44.62612" lon="5.85215">
        <ele>1129.892242</ele>
        <time>2025-07-10T06:56:58.000Z</time>
      </trkpt>
      <trkpt lat="44.62614" lon="5.85214">
        <ele>1130.018405</ele>
        <time>2025-07-10T06:56:59.000Z</time>
      </trkpt>
      <trkpt lat="44.62617" lon="5.85213">
        <ele>1130.147927</ele>
        <time>2025-07-10T06:57:00.000Z</time>
      </trkpt>
      <trkpt lat="44.6262" lon="5.85211">
        <ele>1130.283651</ele>
        <time>2025-07-10T06:57:01.000Z</time>
      </trkpt>
      <trkpt lat="44.62622" lon="5.8521">
        <ele>1130.417988</ele>
        <time>2025-07-10T06:57:02.000Z</time>
      </trkpt>
      <trkpt lat="44.62625" lon="5.85209">
        <ele>1130.544721</ele>
        <time>2025-07-10T06:57:03.000Z</time>
      </trkpt>
      <trkpt lat="44.62627" lon="5.85207">
        <ele>1130.68093</ele>
        <time>2025-07-10T06:57:04.000Z</time>
      </trkpt>
      <trkpt lat="44.6263" lon="5.85206">
        <ele>1130.807093</ele>
        <time>2025-07-10T06:57:05.000Z</time>
      </trkpt>
      <trkpt lat="44.62632" lon="5.85205">
        <ele>1130.933256</ele>
        <time>2025-07-10T06:57:06.000Z</time>
      </trkpt>
      <trkpt lat="44.62635" lon="5.85204">
        <ele>1131.061441</ele>
        <time>2025-07-10T06:57:07.000Z</time>
      </trkpt>
      <trkpt lat="44.62638" lon="5.85204">
        <ele>1131.184494</ele>
        <time>2025-07-10T06:57:08.000Z</time>
      </trkpt>
      <trkpt lat="44.6264" lon="5.85204">
        <ele>1131.298877</ele>
        <time>2025-07-10T06:57:09.000Z</time>
      </trkpt>
      <trkpt lat="44.62643" lon="5.85204">
        <ele>1131.413706</ele>
        <time>2025-07-10T06:57:10.000Z</time>
      </trkpt>
      <trkpt lat="44.62645" lon="5.85203">
        <ele>1131.532457</ele>
        <time>2025-07-10T06:57:11.000Z</time>
      </trkpt>
      <trkpt lat="44.62648" lon="5.85203">
        <ele>1131.657749</ele>
        <time>2025-07-10T06:57:12.000Z</time>
      </trkpt>
      <trkpt lat="44.6265" lon="5.85202">
        <ele>1131.784481</ele>
        <time>2025-07-10T06:57:13.000Z</time>
      </trkpt>
      <trkpt lat="44.62653" lon="5.85202">
        <ele>1131.912311</ele>
        <time>2025-07-10T06:57:14.000Z</time>
      </trkpt>
      <trkpt lat="44.62656" lon="5.85202">
        <ele>1132.049604</ele>
        <time>2025-07-10T06:57:15.000Z</time>
      </trkpt>
      <trkpt lat="44.62659" lon="5.85202">
        <ele>1132.177434</ele>
        <time>2025-07-10T06:57:16.000Z</time>
      </trkpt>
      <trkpt lat="44.62661" lon="5.85202">
        <ele>1132.300671</ele>
        <time>2025-07-10T06:57:17.000Z</time>
      </trkpt>
      <trkpt lat="44.62663" lon="5.85202">
        <ele>1132.404793</ele>
        <time>2025-07-10T06:57:18.000Z</time>
      </trkpt>
      <trkpt lat="44.62666" lon="5.85202">
        <ele>1132.51838</ele>
        <time>2025-07-10T06:57:19.000Z</time>
      </trkpt>
      <trkpt lat="44.62669" lon="5.85201">
        <ele>1132.651582</ele>
        <time>2025-07-10T06:57:20.000Z</time>
      </trkpt>
      <trkpt lat="44.62671" lon="5.85201">
        <ele>1132.774681</ele>
        <time>2025-07-10T06:57:21.000Z</time>
      </trkpt>
      <trkpt lat="44.62673" lon="5.85202">
        <ele>1132.884004</ele>
        <time>2025-07-10T06:57:22.000Z</time>
      </trkpt>
      <trkpt lat="44.62676" lon="5.85202">
        <ele>1132.994153</ele>
        <time>2025-07-10T06:57:23.000Z</time>
      </trkpt>
      <trkpt lat="44.62678" lon="5.85203">
        <ele>1133.108983</ele>
        <time>2025-07-10T06:57:24.000Z</time>
      </trkpt>
      <trkpt lat="44.62681" lon="5.85203">
        <ele>1133.22257</ele>
        <time>2025-07-10T06:57:25.000Z</time>
      </trkpt>
      <trkpt lat="44.62683" lon="5.85203">
        <ele>1133.33272</ele>
        <time>2025-07-10T06:57:26.000Z</time>
      </trkpt>
      <trkpt lat="44.62685" lon="5.85203">
        <ele>1133.446357</ele>
        <time>2025-07-10T06:57:27.000Z</time>
      </trkpt>
      <trkpt lat="44.62687" lon="5.85203">
        <ele>1133.550696</ele>
        <time>2025-07-10T06:57:28.000Z</time>
      </trkpt>
      <trkpt lat="44.6269" lon="5.85203">
        <ele>1133.654818</ele>
        <time>2025-07-10T06:57:29.000Z</time>
      </trkpt>
      <trkpt lat="44.62692" lon="5.85203">
        <ele>1133.754264</ele>
        <time>2025-07-10T06:57:30.000Z</time>
      </trkpt>
      <trkpt lat="44.62694" lon="5.85203">
        <ele>1133.872584</ele>
        <time>2025-07-10T06:57:31.000Z</time>
      </trkpt>
      <trkpt lat="44.62697" lon="5.85203">
        <ele>1133.98662</ele>
        <time>2025-07-10T06:57:32.000Z</time>
      </trkpt>
      <trkpt lat="44.62699" lon="5.85202">
        <ele>1134.097335</ele>
        <time>2025-07-10T06:57:33.000Z</time>
      </trkpt>
      <trkpt lat="44.62701" lon="5.85201">
        <ele>1134.212322</ele>
        <time>2025-07-10T06:57:34.000Z</time>
      </trkpt>
      <trkpt lat="44.62703" lon="5.852">
        <ele>1134.310739</ele>
        <time>2025-07-10T06:57:35.000Z</time>
      </trkpt>
      <trkpt lat="44.62705" lon="5.852">
        <ele>1134.416214</ele>
        <time>2025-07-10T06:57:36.000Z</time>
      </trkpt>
      <trkpt lat="44.62708" lon="5.852">
        <ele>1134.515603</ele>
        <time>2025-07-10T06:57:37.000Z</time>
      </trkpt>
      <trkpt lat="44.6271" lon="5.852">
        <ele>1134.61978</ele>
        <time>2025-07-10T06:57:38.000Z</time>
      </trkpt>
      <trkpt lat="44.62712" lon="5.852">
        <ele>1134.729102</ele>
        <time>2025-07-10T06:57:39.000Z</time>
      </trkpt>
      <trkpt lat="44.62714" lon="5.85199">
        <ele>1134.838009</ele>
        <time>2025-07-10T06:57:40.000Z</time>
      </trkpt>
      <trkpt lat="44.62716" lon="5.85199">
        <ele>1134.933203</ele>
        <time>2025-07-10T06:57:41.000Z</time>
      </trkpt>
      <trkpt lat="44.62718" lon="5.85199">
        <ele>1135.02469</ele>
        <time>2025-07-10T06:57:42.000Z</time>
      </trkpt>
      <trkpt lat="44.6272" lon="5.85198">
        <ele>1135.098502</ele>
        <time>2025-07-10T06:57:43.000Z</time>
      </trkpt>
      <trkpt lat="44.62721" lon="5.85197">
        <ele>1135.177813</ele>
        <time>2025-07-10T06:57:44.000Z</time>
      </trkpt>
      <trkpt lat="44.62724" lon="5.85197">
        <ele>1135.283288</ele>
        <time>2025-07-10T06:57:45.000Z</time>
      </trkpt>
      <trkpt lat="44.62726" lon="5.85196">
        <ele>1135.395428</ele>
        <time>2025-07-10T06:57:46.000Z</time>
      </trkpt>
      <trkpt lat="44.62728" lon="5.85195">
        <ele>1135.506143</ele>
        <time>2025-07-10T06:57:47.000Z</time>
      </trkpt>
      <trkpt lat="44.6273" lon="5.85195">
        <ele>1135.600017</ele>
        <time>2025-07-10T06:57:48.000Z</time>
      </trkpt>
      <trkpt lat="44.62732" lon="5.85194">
        <ele>1135.693891</ele>
        <time>2025-07-10T06:57:49.000Z</time>
      </trkpt>
      <trkpt lat="44.62734" lon="5.85193">
        <ele>1135.802336</ele>
        <time>2025-07-10T06:57:50.000Z</time>
      </trkpt>
      <trkpt lat="44.62736" lon="5.85192">
        <ele>1135.908401</ele>
        <time>2025-07-10T06:57:51.000Z</time>
      </trkpt>
      <trkpt lat="44.62738" lon="5.85192">
        <ele>1136.007847</ele>
        <time>2025-07-10T06:57:52.000Z</time>
      </trkpt>
      <trkpt lat="44.62741" lon="5.85192">
        <ele>1136.121883</ele>
        <time>2025-07-10T06:57:53.000Z</time>
      </trkpt>
      <trkpt lat="44.62743" lon="5.85192">
        <ele>1136.231205</ele>
        <time>2025-07-10T06:57:54.000Z</time>
      </trkpt>
      <trkpt lat="44.62746" lon="5.85191">
        <ele>1136.363356</ele>
        <time>2025-07-10T06:57:55.000Z</time>
      </trkpt>
      <trkpt lat="44.62748" lon="5.8519">
        <ele>1136.473505</ele>
        <time>2025-07-10T06:57:56.000Z</time>
      </trkpt>
      <trkpt lat="44.62751" lon="5.85191">
        <ele>1136.593018</ele>
        <time>2025-07-10T06:57:57.000Z</time>
      </trkpt>
      <trkpt lat="44.62753" lon="5.8519">
        <ele>1136.702703</ele>
        <time>2025-07-10T06:57:58.000Z</time>
      </trkpt>
      <trkpt lat="44.62755" lon="5.8519">
        <ele>1136.808768</ele>
        <time>2025-07-10T06:57:59.000Z</time>
      </trkpt>
      <trkpt lat="44.62757" lon="5.85189">
        <ele>1136.914833</ele>
        <time>2025-07-10T06:58:00.000Z</time>
      </trkpt>
      <trkpt lat="44.62759" lon="5.85188">
        <ele>1137.009729</ele>
        <time>2025-07-10T06:58:01.000Z</time>
      </trkpt>
      <trkpt lat="44.62761" lon="5.85187">
        <ele>1137.118174</ele>
        <time>2025-07-10T06:58:02.000Z</time>
      </trkpt>
      <trkpt lat="44.62763" lon="5.85186">
        <ele>1137.221098</ele>
        <time>2025-07-10T06:58:03.000Z</time>
      </trkpt>
      <trkpt lat="44.62765" lon="5.85185">
        <ele>1137.322748</ele>
        <time>2025-07-10T06:58:04.000Z</time>
      </trkpt>
      <trkpt lat="44.62768" lon="5.85184">
        <ele>1137.437774</ele>
        <time>2025-07-10T06:58:05.000Z</time>
      </trkpt>
      <trkpt lat="44.6277" lon="5.85183">
        <ele>1137.556245</ele>
        <time>2025-07-10T06:58:06.000Z</time>
      </trkpt>
      <trkpt lat="44.62772" lon="5.85182">
        <ele>1137.687941</ele>
        <time>2025-07-10T06:58:07.000Z</time>
      </trkpt>
      <trkpt lat="44.62774" lon="5.85182">
        <ele>1137.802645</ele>
        <time>2025-07-10T06:58:08.000Z</time>
      </trkpt>
      <trkpt lat="44.62776" lon="5.85181">
        <ele>1137.923749</ele>
        <time>2025-07-10T06:58:09.000Z</time>
      </trkpt>
      <trkpt lat="44.62778" lon="5.8518">
        <ele>1138.044854</ele>
        <time>2025-07-10T06:58:10.000Z</time>
      </trkpt>
      <trkpt lat="44.6278" lon="5.85179">
        <ele>1138.168478</ele>
        <time>2025-07-10T06:58:11.000Z</time>
      </trkpt>
      <trkpt lat="44.62783" lon="5.85178">
        <ele>1138.307727</ele>
        <time>2025-07-10T06:58:12.000Z</time>
      </trkpt>
      <trkpt lat="44.62785" lon="5.85177">
        <ele>1138.435271</ele>
        <time>2025-07-10T06:58:13.000Z</time>
      </trkpt>
      <trkpt lat="44.62787" lon="5.85175">
        <ele>1138.550176</ele>
        <time>2025-07-10T06:58:14.000Z</time>
      </trkpt>
      <trkpt lat="44.62789" lon="5.85174">
        <ele>1138.666746</ele>
        <time>2025-07-10T06:58:15.000Z</time>
      </trkpt>
      <trkpt lat="44.62791" lon="5.85173">
        <ele>1138.791795</ele>
        <time>2025-07-10T06:58:16.000Z</time>
      </trkpt>
      <trkpt lat="44.62793" lon="5.85171">
        <ele>1138.910135</ele>
        <time>2025-07-10T06:58:17.000Z</time>
      </trkpt>
      <trkpt lat="44.62795" lon="5.8517">
        <ele>1139.027623</ele>
        <time>2025-07-10T06:58:18.000Z</time>
      </trkpt>
      <trkpt lat="44.62796" lon="5.85168">
        <ele>1139.147442</ele>
        <time>2025-07-10T06:58:19.000Z</time>
      </trkpt>
      <trkpt lat="44.62798" lon="5.85166">
        <ele>1139.279212</ele>
        <time>2025-07-10T06:58:20.000Z</time>
      </trkpt>
      <trkpt lat="44.628" lon="5.85165">
        <ele>1139.409156</ele>
        <time>2025-07-10T06:58:21.000Z</time>
      </trkpt>
      <trkpt lat="44.62803" lon="5.85164">
        <ele>1139.534205</ele>
        <time>2025-07-10T06:58:22.000Z</time>
      </trkpt>
      <trkpt lat="44.62805" lon="5.85162">
        <ele>1139.654162</ele>
        <time>2025-07-10T06:58:23.000Z</time>
      </trkpt>
      <trkpt lat="44.62807" lon="5.85161">
        <ele>1139.779215</ele>
        <time>2025-07-10T06:58:24.000Z</time>
      </trkpt>
      <trkpt lat="44.62809" lon="5.8516">
        <ele>1139.899172</ele>
        <time>2025-07-10T06:58:25.000Z</time>
      </trkpt>
      <trkpt lat="44.6281" lon="5.85159">
        <ele>1140.012524</ele>
        <time>2025-07-10T06:58:26.000Z</time>
      </trkpt>
      <trkpt lat="44.62812" lon="5.85157">
        <ele>1140.12796</ele>
        <time>2025-07-10T06:58:27.000Z</time>
      </trkpt>
      <trkpt lat="44.62814" lon="5.85156">
        <ele>1140.250145</ele>
        <time>2025-07-10T06:58:28.000Z</time>
      </trkpt>
      <trkpt lat="44.62816" lon="5.85154">
        <ele>1140.370359</ele>
        <time>2025-07-10T06:58:29.000Z</time>
      </trkpt>
      <trkpt lat="44.62818" lon="5.85152">
        <ele>1140.495217</ele>
        <time>2025-07-10T06:58:30.000Z</time>
      </trkpt>
      <trkpt lat="44.6282" lon="5.8515">
        <ele>1140.626811</ele>
        <time>2025-07-10T06:58:31.000Z</time>
      </trkpt>
      <trkpt lat="44.62821" lon="5.85148">
        <ele>1140.754294</ele>
        <time>2025-07-10T06:58:32.000Z</time>
      </trkpt>
      <trkpt lat="44.62823" lon="5.85146">
        <ele>1140.865022</ele>
        <time>2025-07-10T06:58:33.000Z</time>
      </trkpt>
      <trkpt lat="44.62825" lon="5.85145">
        <ele>1140.979927</ele>
        <time>2025-07-10T06:58:34.000Z</time>
      </trkpt>
      <trkpt lat="44.62827" lon="5.85143">
        <ele>1141.103179</ele>
        <time>2025-07-10T06:58:35.000Z</time>
      </trkpt>
      <trkpt lat="44.62829" lon="5.85142">
        <ele>1141.219748</ele>
        <time>2025-07-10T06:58:36.000Z</time>
      </trkpt>
      <trkpt lat="44.62831" lon="5.85141">
        <ele>1141.331663</ele>
        <time>2025-07-10T06:58:37.000Z</time>
      </trkpt>
      <trkpt lat="44.62833" lon="5.8514">
        <ele>1141.44876</ele>
        <time>2025-07-10T06:58:38.000Z</time>
      </trkpt>
      <trkpt lat="44.62835" lon="5.85139">
        <ele>1141.574111</ele>
        <time>2025-07-10T06:58:39.000Z</time>
      </trkpt>
      <trkpt lat="44.62837" lon="5.85139">
        <ele>1141.677132</ele>
        <time>2025-07-10T06:58:40.000Z</time>
      </trkpt>
      <trkpt lat="44.62839" lon="5.85137">
        <ele>1141.797089</ele>
        <time>2025-07-10T06:58:41.000Z</time>
      </trkpt>
      <trkpt lat="44.62841" lon="5.85136">
        <ele>1141.920712</ele>
        <time>2025-07-10T06:58:42.000Z</time>
      </trkpt>
      <trkpt lat="44.62843" lon="5.85135">
        <ele>1142.035617</ele>
        <time>2025-07-10T06:58:43.000Z</time>
      </trkpt>
      <trkpt lat="44.62845" lon="5.85134">
        <ele>1142.155635</ele>
        <time>2025-07-10T06:58:44.000Z</time>
      </trkpt>
      <trkpt lat="44.62846" lon="5.85133">
        <ele>1142.264326</ele>
        <time>2025-07-10T06:58:45.000Z</time>
      </trkpt>
      <trkpt lat="44.62848" lon="5.85132">
        <ele>1142.371086</ele>
        <time>2025-07-10T06:58:46.000Z</time>
      </trkpt>
      <trkpt lat="44.6285" lon="5.8513">
        <ele>1142.487655</ele>
        <time>2025-07-10T06:58:47.000Z</time>
      </trkpt>
      <trkpt lat="44.62852" lon="5.85129">
        <ele>1142.60984</ele>
        <time>2025-07-10T06:58:48.000Z</time>
      </trkpt>
      <trkpt lat="44.62854" lon="5.85127">
        <ele>1142.726409</ele>
        <time>2025-07-10T06:58:49.000Z</time>
      </trkpt>
      <trkpt lat="44.62856" lon="5.85126">
        <ele>1142.843896</ele>
        <time>2025-07-10T06:58:50.000Z</time>
      </trkpt>
      <trkpt lat="44.62858" lon="5.85124">
        <ele>1142.968144</ele>
        <time>2025-07-10T06:58:51.000Z</time>
      </trkpt>
      <trkpt lat="44.62859" lon="5.85123">
        <ele>1143.083581</ele>
        <time>2025-07-10T06:58:52.000Z</time>
      </trkpt>
      <trkpt lat="44.62861" lon="5.85121">
        <ele>1143.203538</ele>
        <time>2025-07-10T06:58:53.000Z</time>
      </trkpt>
      <trkpt lat="44.62863" lon="5.8512">
        <ele>1143.325845</ele>
        <time>2025-07-10T06:58:54.000Z</time>
      </trkpt>
      <trkpt lat="44.62865" lon="5.85119">
        <ele>1143.444186</ele>
        <time>2025-07-10T06:58:55.000Z</time>
      </trkpt>
      <trkpt lat="44.62867" lon="5.85118">
        <ele>1143.569238</ele>
        <time>2025-07-10T06:58:56.000Z</time>
      </trkpt>
      <trkpt lat="44.62869" lon="5.85116">
        <ele>1143.692861</ele>
        <time>2025-07-10T06:58:57.000Z</time>
      </trkpt>
      <trkpt lat="44.62872" lon="5.85116">
        <ele>1143.827325</ele>
        <time>2025-07-10T06:58:58.000Z</time>
      </trkpt>
      <trkpt lat="44.62874" lon="5.85115">
        <ele>1143.956131</ele>
        <time>2025-07-10T06:58:59.000Z</time>
      </trkpt>
      <trkpt lat="44.62876" lon="5.85113">
        <ele>1144.089816</ele>
        <time>2025-07-10T06:59:00.000Z</time>
      </trkpt>
      <trkpt lat="44.62878" lon="5.85111">
        <ele>1144.212001</ele>
        <time>2025-07-10T06:59:01.000Z</time>
      </trkpt>
      <trkpt lat="44.6288" lon="5.8511">
        <ele>1144.340213</ele>
        <time>2025-07-10T06:59:02.000Z</time>
      </trkpt>
      <trkpt lat="44.62882" lon="5.85109">
        <ele>1144.465564</ele>
        <time>2025-07-10T06:59:03.000Z</time>
      </trkpt>
      <trkpt lat="44.62884" lon="5.85109">
        <ele>1144.579255</ele>
        <time>2025-07-10T06:59:04.000Z</time>
      </trkpt>
      <trkpt lat="44.62886" lon="5.85108">
        <ele>1144.69117</ele>
        <time>2025-07-10T06:59:05.000Z</time>
      </trkpt>
      <trkpt lat="44.62888" lon="5.85106">
        <ele>1144.799442</ele>
        <time>2025-07-10T06:59:06.000Z</time>
      </trkpt>
      <trkpt lat="44.6289" lon="5.85105">
        <ele>1144.912306</ele>
        <time>2025-07-10T06:59:07.000Z</time>
      </trkpt>
      <trkpt lat="44.62892" lon="5.85104">
        <ele>1145.025658</ele>
        <time>2025-07-10T06:59:08.000Z</time>
      </trkpt>
      <trkpt lat="44.62893" lon="5.85103">
        <ele>1145.128679</ele>
        <time>2025-07-10T06:59:09.000Z</time>
      </trkpt>
      <trkpt lat="44.62895" lon="5.85103">
        <ele>1145.235306</ele>
        <time>2025-07-10T06:59:10.000Z</time>
      </trkpt>
      <trkpt lat="44.62897" lon="5.85102">
        <ele>1145.333021</ele>
        <time>2025-07-10T06:59:11.000Z</time>
      </trkpt>
      <trkpt lat="44.62899" lon="5.85101">
        <ele>1145.429707</ele>
        <time>2025-07-10T06:59:12.000Z</time>
      </trkpt>
      <trkpt lat="44.62901" lon="5.851">
        <ele>1145.539115</ele>
        <time>2025-07-10T06:59:13.000Z</time>
      </trkpt>
      <trkpt lat="44.62903" lon="5.851">
        <ele>1145.645742</ele>
        <time>2025-07-10T06:59:14.000Z</time>
      </trkpt>
      <trkpt lat="44.62905" lon="5.85099">
        <ele>1145.770167</ele>
        <time>2025-07-10T06:59:15.000Z</time>
      </trkpt>
      <trkpt lat="44.62907" lon="5.85098">
        <ele>1145.886735</ele>
        <time>2025-07-10T06:59:16.000Z</time>
      </trkpt>
      <trkpt lat="44.62909" lon="5.85097">
        <ele>1145.993362</ele>
        <time>2025-07-10T06:59:17.000Z</time>
      </trkpt>
      <trkpt lat="44.6291" lon="5.85096">
        <ele>1146.105277</ele>
        <time>2025-07-10T06:59:18.000Z</time>
      </trkpt>
      <trkpt lat="44.62912" lon="5.85095">
        <ele>1146.206935</ele>
        <time>2025-07-10T06:59:19.000Z</time>
      </trkpt>
      <trkpt lat="44.62914" lon="5.85094">
        <ele>1146.333515</ele>
        <time>2025-07-10T06:59:20.000Z</time>
      </trkpt>
      <trkpt lat="44.62917" lon="5.85094">
        <ele>1146.461892</ele>
        <time>2025-07-10T06:59:21.000Z</time>
      </trkpt>
      <trkpt lat="44.62919" lon="5.85093">
        <ele>1146.587243</ele>
        <time>2025-07-10T06:59:22.000Z</time>
      </trkpt>
      <trkpt lat="44.62921" lon="5.85092">
        <ele>1146.710866</ele>
        <time>2025-07-10T06:59:23.000Z</time>
      </trkpt>
      <trkpt lat="44.62923" lon="5.85091">
        <ele>1146.829336</ele>
        <time>2025-07-10T06:59:24.000Z</time>
      </trkpt>
      <trkpt lat="44.62925" lon="5.85089">
        <ele>1146.936096</ele>
        <time>2025-07-10T06:59:25.000Z</time>
      </trkpt>
      <trkpt lat="44.62926" lon="5.85089">
        <ele>1147.040233</ele>
        <time>2025-07-10T06:59:26.000Z</time>
      </trkpt>
      <trkpt lat="44.62928" lon="5.85088">
        <ele>1147.144369</ele>
        <time>2025-07-10T06:59:27.000Z</time>
      </trkpt>
      <trkpt lat="44.6293" lon="5.85087">
        <ele>1147.261466</ele>
        <time>2025-07-10T06:59:28.000Z</time>
      </trkpt>
      <trkpt lat="44.62932" lon="5.85086">
        <ele>1147.375549</ele>
        <time>2025-07-10T06:59:29.000Z</time>
      </trkpt>
      <trkpt lat="44.62934" lon="5.85085">
        <ele>1147.472241</ele>
        <time>2025-07-10T06:59:30.000Z</time>
      </trkpt>
      <trkpt lat="44.62936" lon="5.85085">
        <ele>1147.562371</ele>
        <time>2025-07-10T06:59:31.000Z</time>
      </trkpt>
      <trkpt lat="44.62938" lon="5.85084">
        <ele>1147.6446</ele>
        <time>2025-07-10T06:59:32.000Z</time>
      </trkpt>
      <trkpt lat="44.6294" lon="5.85083">
        <ele>1147.732217</ele>
        <time>2025-07-10T06:59:33.000Z</time>
      </trkpt>
      <trkpt lat="44.62942" lon="5.85083">
        <ele>1147.825267</ele>
        <time>2025-07-10T06:59:34.000Z</time>
      </trkpt>
      <trkpt lat="44.62944" lon="5.85082">
        <ele>1147.9258</ele>
        <time>2025-07-10T06:59:35.000Z</time>
      </trkpt>
      <trkpt lat="44.62946" lon="5.85081">
        <ele>1148.017158</ele>
        <time>2025-07-10T06:59:36.000Z</time>
      </trkpt>
      <trkpt lat="44.62947" lon="5.85081">
        <ele>1148.103235</ele>
        <time>2025-07-10T06:59:37.000Z</time>
      </trkpt>
      <trkpt lat="44.62949" lon="5.8508">
        <ele>1148.198534</ele>
        <time>2025-07-10T06:59:38.000Z</time>
      </trkpt>
      <trkpt lat="44.62951" lon="5.8508">
        <ele>1148.292597</ele>
        <time>2025-07-10T06:59:39.000Z</time>
      </trkpt>
      <trkpt lat="44.62954" lon="5.8508">
        <ele>1148.409926</ele>
        <time>2025-07-10T06:59:40.000Z</time>
      </trkpt>
      <trkpt lat="44.62956" lon="5.8508">
        <ele>1148.523306</ele>
        <time>2025-07-10T06:59:41.000Z</time>
      </trkpt>
      <trkpt lat="44.62958" lon="5.85079">
        <ele>1148.629915</ele>
        <time>2025-07-10T06:59:42.000Z</time>
      </trkpt>
      <trkpt lat="44.6296" lon="5.85078">
        <ele>1148.726607</ele>
        <time>2025-07-10T06:59:43.000Z</time>
      </trkpt>
      <trkpt lat="44.62963" lon="5.85079">
        <ele>1148.831157</ele>
        <time>2025-07-10T06:59:44.000Z</time>
      </trkpt>
      <trkpt lat="44.62964" lon="5.85079">
        <ele>1148.916192</ele>
        <time>2025-07-10T06:59:45.000Z</time>
      </trkpt>
      <trkpt lat="44.62966" lon="5.85078">
        <ele>1149.012132</ele>
        <time>2025-07-10T06:59:46.000Z</time>
      </trkpt>
      <trkpt lat="44.62968" lon="5.85078">
        <ele>1149.101827</ele>
        <time>2025-07-10T06:59:47.000Z</time>
      </trkpt>
      <trkpt lat="44.6297" lon="5.85077">
        <ele>1149.191956</ele>
        <time>2025-07-10T06:59:48.000Z</time>
      </trkpt>
      <trkpt lat="44.62972" lon="5.85077">
        <ele>1149.292489</ele>
        <time>2025-07-10T06:59:49.000Z</time>
      </trkpt>
      <trkpt lat="44.62975" lon="5.85076">
        <ele>1149.399097</ele>
        <time>2025-07-10T06:59:50.000Z</time>
      </trkpt>
      <trkpt lat="44.62977" lon="5.85075">
        <ele>1149.500348</ele>
        <time>2025-07-10T06:59:51.000Z</time>
      </trkpt>
      <trkpt lat="44.62979" lon="5.85075">
        <ele>1149.609532</ele>
        <time>2025-07-10T06:59:52.000Z</time>
      </trkpt>
      <trkpt lat="44.62981" lon="5.85074">
        <ele>1149.718254</ele>
        <time>2025-07-10T06:59:53.000Z</time>
      </trkpt>
      <trkpt lat="44.62984" lon="5.85074">
        <ele>1149.832076</ele>
        <time>2025-07-10T06:59:54.000Z</time>
      </trkpt>
      <trkpt lat="44.62986" lon="5.85073">
        <ele>1149.932609</ele>
        <time>2025-07-10T06:59:55.000Z</time>
      </trkpt>
      <trkpt lat="44.62988" lon="5.85073">
        <ele>1150.03253</ele>
        <time>2025-07-10T06:59:56.000Z</time>
      </trkpt>
      <trkpt lat="44.6299" lon="5.85072">
        <ele>1150.137079</ele>
        <time>2025-07-10T06:59:57.000Z</time>
      </trkpt>
      <trkpt lat="44.62992" lon="5.85071">
        <ele>1150.2429</ele>
        <time>2025-07-10T06:59:58.000Z</time>
      </trkpt>
      <trkpt lat="44.62995" lon="5.85071">
        <ele>1150.355936</ele>
        <time>2025-07-10T06:59:59.000Z</time>
      </trkpt>
      <trkpt lat="44.62997" lon="5.85071">
        <ele>1150.473408</ele>
        <time>2025-07-10T07:00:00.000Z</time>
      </trkpt>
      <trkpt lat="44.63" lon="5.85071">
        <ele>1150.586197</ele>
        <time>2025-07-10T07:00:01.000Z</time>
      </trkpt>
      <trkpt lat="44.63001" lon="5.8507">
        <ele>1150.675892</ele>
        <time>2025-07-10T07:00:02.000Z</time>
      </trkpt>
      <trkpt lat="44.63004" lon="5.8507">
        <ele>1150.7791</ele>
        <time>2025-07-10T07:00:03.000Z</time>
      </trkpt>
      <trkpt lat="44.63006" lon="5.8507">
        <ele>1150.887051</ele>
        <time>2025-07-10T07:00:04.000Z</time>
      </trkpt>
      <trkpt lat="44.63008" lon="5.8507">
        <ele>1150.985568</ele>
        <time>2025-07-10T07:00:05.000Z</time>
      </trkpt>
      <trkpt lat="44.6301" lon="5.8507">
        <ele>1151.089261</ele>
        <time>2025-07-10T07:00:06.000Z</time>
      </trkpt>
      <trkpt lat="44.63013" lon="5.8507">
        <ele>1151.198444</ele>
        <time>2025-07-10T07:00:07.000Z</time>
      </trkpt>
      <trkpt lat="44.63015" lon="5.85069">
        <ele>1151.316908</ele>
        <time>2025-07-10T07:00:08.000Z</time>
      </trkpt>
      <trkpt lat="44.63017" lon="5.85069">
        <ele>1151.42486</ele>
        <time>2025-07-10T07:00:09.000Z</time>
      </trkpt>
      <trkpt lat="44.6302" lon="5.85069">
        <ele>1151.5375</ele>
        <time>2025-07-10T07:00:10.000Z</time>
      </trkpt>
      <trkpt lat="44.63022" lon="5.85069">
        <ele>1151.650289</ele>
        <time>2025-07-10T07:00:11.000Z</time>
      </trkpt>
      <trkpt lat="44.63025" lon="5.85069">
        <ele>1151.776953</ele>
        <time>2025-07-10T07:00:12.000Z</time>
      </trkpt>
      <trkpt lat="44.63027" lon="5.85069">
        <ele>1151.894283</ele>
        <time>2025-07-10T07:00:13.000Z</time>
      </trkpt>
      <trkpt lat="44.6303" lon="5.85069">
        <ele>1152.011612</ele>
        <time>2025-07-10T07:00:14.000Z</time>
      </trkpt>
      <trkpt lat="44.63032" lon="5.8507">
        <ele>1152.124253</ele>
        <time>2025-07-10T07:00:15.000Z</time>
      </trkpt>
      <trkpt lat="44.63035" lon="5.8507">
        <ele>1152.232616</ele>
        <time>2025-07-10T07:00:16.000Z</time>
      </trkpt>
      <trkpt lat="44.63037" lon="5.8507">
        <ele>1152.349946</ele>
        <time>2025-07-10T07:00:17.000Z</time>
      </trkpt>
      <trkpt lat="44.6304" lon="5.8507">
        <ele>1152.476654</ele>
        <time>2025-07-10T07:00:18.000Z</time>
      </trkpt>
      <trkpt lat="44.63042" lon="5.8507">
        <ele>1152.599038</ele>
        <time>2025-07-10T07:00:19.000Z</time>
      </trkpt>
      <trkpt lat="44.63045" lon="5.8507">
        <ele>1152.711678</ele>
        <time>2025-07-10T07:00:20.000Z</time>
      </trkpt>
      <trkpt lat="44.63047" lon="5.8507">
        <ele>1152.838387</ele>
        <time>2025-07-10T07:00:21.000Z</time>
      </trkpt>
      <trkpt lat="44.6305" lon="5.8507">
        <ele>1152.96036</ele>
        <time>2025-07-10T07:00:22.000Z</time>
      </trkpt>
      <trkpt lat="44.63053" lon="5.8507">
        <ele>1153.082744</ele>
        <time>2025-07-10T07:00:23.000Z</time>
      </trkpt>
      <trkpt lat="44.63055" lon="5.85071">
        <ele>1153.191467</ele>
        <time>2025-07-10T07:00:24.000Z</time>
      </trkpt>
      <trkpt lat="44.63057" lon="5.85071">
        <ele>1153.308939</ele>
        <time>2025-07-10T07:00:25.000Z</time>
      </trkpt>
      <trkpt lat="44.6306" lon="5.85071">
        <ele>1153.421728</ele>
        <time>2025-07-10T07:00:26.000Z</time>
      </trkpt>
      <trkpt lat="44.63062" lon="5.85071">
        <ele>1153.529834</ele>
        <time>2025-07-10T07:00:27.000Z</time>
      </trkpt>
      <trkpt lat="44.63065" lon="5.85071">
        <ele>1153.642474</ele>
        <time>2025-07-10T07:00:28.000Z</time>
      </trkpt>
      <trkpt lat="44.63067" lon="5.85071">
        <ele>1153.750425</ele>
        <time>2025-07-10T07:00:29.000Z</time>
      </trkpt>
      <trkpt lat="44.63069" lon="5.85071">
        <ele>1153.863214</ele>
        <time>2025-07-10T07:00:30.000Z</time>
      </trkpt>
      <trkpt lat="44.63072" lon="5.85071">
        <ele>1153.980923</ele>
        <time>2025-07-10T07:00:31.000Z</time>
      </trkpt>
      <trkpt lat="44.63074" lon="5.85071">
        <ele>1154.098632</ele>
        <time>2025-07-10T07:00:32.000Z</time>
      </trkpt>
      <trkpt lat="44.63077" lon="5.85071">
        <ele>1154.221015</ele>
        <time>2025-07-10T07:00:33.000Z</time>
      </trkpt>
      <trkpt lat="44.63079" lon="5.85071">
        <ele>1154.338298</ele>
        <time>2025-07-10T07:00:34.000Z</time>
      </trkpt>
      <trkpt lat="44.63082" lon="5.85071">
        <ele>1154.460317</ele>
        <time>2025-07-10T07:00:35.000Z</time>
      </trkpt>
      <trkpt lat="44.63085" lon="5.8507">
        <ele>1154.587683</ele>
        <time>2025-07-10T07:00:36.000Z</time>
      </trkpt>
      <trkpt lat="44.63087" lon="5.8507">
        <ele>1154.709702</ele>
        <time>2025-07-10T07:00:37.000Z</time>
      </trkpt>
      <trkpt lat="44.6309" lon="5.8507">
        <ele>1154.824061</ele>
        <time>2025-07-10T07:00:38.000Z</time>
      </trkpt>
      <trkpt lat="44.63092" lon="5.85069">
        <ele>1154.941391</ele>
        <time>2025-07-10T07:00:39.000Z</time>
      </trkpt>
      <trkpt lat="44.63094" lon="5.85069">
        <ele>1155.049497</ele>
        <time>2025-07-10T07:00:40.000Z</time>
      </trkpt>
      <trkpt lat="44.63097" lon="5.85069">
        <ele>1155.162532</ele>
        <time>2025-07-10T07:00:41.000Z</time>
      </trkpt>
      <trkpt lat="44.63099" lon="5.85069">
        <ele>1155.275172</ele>
        <time>2025-07-10T07:00:42.000Z</time>
      </trkpt>
      <trkpt lat="44.63102" lon="5.85069">
        <ele>1155.383123</ele>
        <time>2025-07-10T07:00:43.000Z</time>
      </trkpt>
      <trkpt lat="44.63104" lon="5.85069">
        <ele>1155.491229</ele>
        <time>2025-07-10T07:00:44.000Z</time>
      </trkpt>
      <trkpt lat="44.63106" lon="5.85069">
        <ele>1155.594492</ele>
        <time>2025-07-10T07:00:45.000Z</time>
      </trkpt>
      <trkpt lat="44.63108" lon="5.85069">
        <ele>1155.70885</ele>
        <time>2025-07-10T07:00:46.000Z</time>
      </trkpt>
      <trkpt lat="44.63111" lon="5.85068">
        <ele>1155.843329</ele>
        <time>2025-07-10T07:00:47.000Z</time>
      </trkpt>
      <trkpt lat="44.63113" lon="5.85068">
        <ele>1155.989723</ele>
        <time>2025-07-10T07:00:48.000Z</time>
      </trkpt>
      <trkpt lat="44.63115" lon="5.85068">
        <ele>1156.1234</ele>
        <time>2025-07-10T07:00:49.000Z</time>
      </trkpt>
      <trkpt lat="44.63118" lon="5.85068">
        <ele>1156.269795</ele>
        <time>2025-07-10T07:00:50.000Z</time>
      </trkpt>
      <trkpt lat="44.6312" lon="5.85068">
        <ele>1156.410415</ele>
        <time>2025-07-10T07:00:51.000Z</time>
      </trkpt>
      <trkpt lat="44.63122" lon="5.85067">
        <ele>1156.56477</ele>
        <time>2025-07-10T07:00:52.000Z</time>
      </trkpt>
      <trkpt lat="44.63124" lon="5.85067">
        <ele>1156.70539</ele>
        <time>2025-07-10T07:00:53.000Z</time>
      </trkpt>
      <trkpt lat="44.63127" lon="5.85067">
        <ele>1156.851994</ele>
        <time>2025-07-10T07:00:54.000Z</time>
      </trkpt>
      <trkpt lat="44.63129" lon="5.85067">
        <ele>1157.004747</ele>
        <time>2025-07-10T07:00:55.000Z</time>
      </trkpt>
      <trkpt lat="44.63131" lon="5.85066">
        <ele>1157.157501</ele>
        <time>2025-07-10T07:00:56.000Z</time>
      </trkpt>
      <trkpt lat="44.63134" lon="5.85066">
        <ele>1157.316613</ele>
        <time>2025-07-10T07:00:57.000Z</time>
      </trkpt>
      <trkpt lat="44.63136" lon="5.85066">
        <ele>1157.462938</ele>
        <time>2025-07-10T07:00:58.000Z</time>
      </trkpt>
      <trkpt lat="44.63139" lon="5.85066">
        <ele>1157.610378</ele>
        <time>2025-07-10T07:00:59.000Z</time>
      </trkpt>
      <trkpt lat="44.63141" lon="5.85066">
        <ele>1157.770454</ele>
        <time>2025-07-10T07:01:00.000Z</time>
      </trkpt>
      <trkpt lat="44.63143" lon="5.85065">
        <ele>1157.911074</ele>
        <time>2025-07-10T07:01:01.000Z</time>
      </trkpt>
      <trkpt lat="44.63145" lon="5.85065">
        <ele>1158.05111</ele>
        <time>2025-07-10T07:01:02.000Z</time>
      </trkpt>
      <trkpt lat="44.63148" lon="5.85065">
        <ele>1158.197714</ele>
        <time>2025-07-10T07:01:03.000Z</time>
      </trkpt>
      <trkpt lat="44.6315" lon="5.85065">
        <ele>1158.337749</ele>
        <time>2025-07-10T07:01:04.000Z</time>
      </trkpt>
      <trkpt lat="44.63152" lon="5.85065">
        <ele>1158.484144</ele>
        <time>2025-07-10T07:01:05.000Z</time>
      </trkpt>
      <trkpt lat="44.63154" lon="5.85065">
        <ele>1158.624399</ele>
        <time>2025-07-10T07:01:06.000Z</time>
      </trkpt>
      <trkpt lat="44.63156" lon="5.85064">
        <ele>1158.75292</ele>
        <time>2025-07-10T07:01:07.000Z</time>
      </trkpt>
      <trkpt lat="44.63158" lon="5.85064">
        <ele>1158.88144</ele>
        <time>2025-07-10T07:01:08.000Z</time>
      </trkpt>
      <trkpt lat="44.6316" lon="5.85064">
        <ele>1159.002656</ele>
        <time>2025-07-10T07:01:09.000Z</time>
      </trkpt>
      <trkpt lat="44.63162" lon="5.85063">
        <ele>1159.136945</ele>
        <time>2025-07-10T07:01:10.000Z</time>
      </trkpt>
      <trkpt lat="44.63165" lon="5.85063">
        <ele>1159.2772</ele>
        <time>2025-07-10T07:01:11.000Z</time>
      </trkpt>
      <trkpt lat="44.63167" lon="5.85063">
        <ele>1159.412022</ele>
        <time>2025-07-10T07:01:12.000Z</time>
      </trkpt>
      <trkpt lat="44.63169" lon="5.85063">
        <ele>1159.532899</ele>
        <time>2025-07-10T07:01:13.000Z</time>
      </trkpt>
      <trkpt lat="44.63171" lon="5.85063">
        <ele>1159.660459</ele>
        <time>2025-07-10T07:01:14.000Z</time>
      </trkpt>
      <trkpt lat="44.63173" lon="5.85062">
        <ele>1159.8079</ele>
        <time>2025-07-10T07:01:15.000Z</time>
      </trkpt>
      <trkpt lat="44.63175" lon="5.85062">
        <ele>1159.947935</ele>
        <time>2025-07-10T07:01:16.000Z</time>
      </trkpt>
      <trkpt lat="44.63177" lon="5.85062">
        <ele>1160.081612</ele>
        <time>2025-07-10T07:01:17.000Z</time>
      </trkpt>
      <trkpt lat="44.63179" lon="5.85062">
        <ele>1160.215902</ele>
        <time>2025-07-10T07:01:18.000Z</time>
      </trkpt>
      <trkpt lat="44.63181" lon="5.85061">
        <ele>1160.350724</ele>
        <time>2025-07-10T07:01:19.000Z</time>
      </trkpt>
      <trkpt lat="44.63183" lon="5.85061">
        <ele>1160.473702</ele>
        <time>2025-07-10T07:01:20.000Z</time>
      </trkpt>
      <trkpt lat="44.63186" lon="5.8506">
        <ele>1160.617207</ele>
        <time>2025-07-10T07:01:21.000Z</time>
      </trkpt>
      <trkpt lat="44.63188" lon="5.8506">
        <ele>1160.751496</ele>
        <time>2025-07-10T07:01:22.000Z</time>
      </trkpt>
      <trkpt lat="44.6319" lon="5.8506">
        <ele>1160.892116</ele>
        <time>2025-07-10T07:01:23.000Z</time>
      </trkpt>
      <trkpt lat="44.63192" lon="5.85059">
        <ele>1161.025793</ele>
        <time>2025-07-10T07:01:24.000Z</time>
      </trkpt>
      <trkpt lat="44.63194" lon="5.85059">
        <ele>1161.1597</ele>
        <time>2025-07-10T07:01:25.000Z</time>
      </trkpt>
      <trkpt lat="44.63196" lon="5.85059">
        <ele>1161.274304</ele>
        <time>2025-07-10T07:01:26.000Z</time>
      </trkpt>
      <trkpt lat="44.63198" lon="5.85059">
        <ele>1161.402266</ele>
        <time>2025-07-10T07:01:27.000Z</time>
      </trkpt>
      <trkpt lat="44.632" lon="5.85059">
        <ele>1161.535866</ele>
        <time>2025-07-10T07:01:28.000Z</time>
      </trkpt>
      <trkpt lat="44.63202" lon="5.85058">
        <ele>1161.664387</ele>
        <time>2025-07-10T07:01:29.000Z</time>
      </trkpt>
      <trkpt lat="44.63204" lon="5.85058">
        <ele>1161.786613</ele>
        <time>2025-07-10T07:01:30.000Z</time>
      </trkpt>
      <trkpt lat="44.63206" lon="5.85058">
        <ele>1161.909591</ele>
        <time>2025-07-10T07:01:31.000Z</time>
      </trkpt>
      <trkpt lat="44.63208" lon="5.85057">
        <ele>1162.025529</ele>
        <time>2025-07-10T07:01:32.000Z</time>
      </trkpt>
      <trkpt lat="44.63209" lon="5.85057">
        <ele>1162.133776</ele>
        <time>2025-07-10T07:01:33.000Z</time>
      </trkpt>
      <trkpt lat="44.63211" lon="5.85057">
        <ele>1162.242023</ele>
        <time>2025-07-10T07:01:34.000Z</time>
      </trkpt>
      <trkpt lat="44.63213" lon="5.85057">
        <ele>1162.344716</ele>
        <time>2025-07-10T07:01:35.000Z</time>
      </trkpt>
      <trkpt lat="44.63214" lon="5.85056">
        <ele>1162.456228</ele>
        <time>2025-07-10T07:01:36.000Z</time>
      </trkpt>
      <trkpt lat="44.63216" lon="5.85055">
        <ele>1162.559992</ele>
        <time>2025-07-10T07:01:37.000Z</time>
      </trkpt>
      <trkpt lat="44.63217" lon="5.85054">
        <ele>1162.654529</ele>
        <time>2025-07-10T07:01:38.000Z</time>
      </trkpt>
      <trkpt lat="44.63219" lon="5.85054">
        <ele>1162.770103</ele>
        <time>2025-07-10T07:01:39.000Z</time>
      </trkpt>
      <trkpt lat="44.63221" lon="5.85053">
        <ele>1162.882803</ele>
        <time>2025-07-10T07:01:40.000Z</time>
      </trkpt>
      <trkpt lat="44.63222" lon="5.85052">
        <ele>1162.989413</ele>
        <time>2025-07-10T07:01:41.000Z</time>
      </trkpt>
      <trkpt lat="44.63224" lon="5.85052">
        <ele>1163.106144</ele>
        <time>2025-07-10T07:01:42.000Z</time>
      </trkpt>
      <trkpt lat="44.63226" lon="5.85051">
        <ele>1163.215146</ele>
        <time>2025-07-10T07:01:43.000Z</time>
      </trkpt>
      <trkpt lat="44.63227" lon="5.85051">
        <ele>1163.325643</ele>
        <time>2025-07-10T07:01:44.000Z</time>
      </trkpt>
      <trkpt lat="44.63229" lon="5.8505">
        <ele>1163.437155</ele>
        <time>2025-07-10T07:01:45.000Z</time>
      </trkpt>
      <trkpt lat="44.63231" lon="5.85049">
        <ele>1163.55726</ele>
        <time>2025-07-10T07:01:46.000Z</time>
      </trkpt>
      <trkpt lat="44.63233" lon="5.85049">
        <ele>1163.668772</ele>
        <time>2025-07-10T07:01:47.000Z</time>
      </trkpt>
      <trkpt lat="44.63234" lon="5.85048">
        <ele>1163.775382</ele>
        <time>2025-07-10T07:01:48.000Z</time>
      </trkpt>
      <trkpt lat="44.63236" lon="5.85048">
        <ele>1163.880735</ele>
        <time>2025-07-10T07:01:49.000Z</time>
      </trkpt>
      <trkpt lat="44.63237" lon="5.85047">
        <ele>1163.987345</ele>
        <time>2025-07-10T07:01:50.000Z</time>
      </trkpt>
      <trkpt lat="44.63239" lon="5.85046">
        <ele>1164.093956</ele>
        <time>2025-07-10T07:01:51.000Z</time>
      </trkpt>
      <trkpt lat="44.63241" lon="5.85046">
        <ele>1164.199309</ele>
        <time>2025-07-10T07:01:52.000Z</time>
      </trkpt>
      <trkpt lat="44.63242" lon="5.85044">
        <ele>1164.318376</ele>
        <time>2025-07-10T07:01:53.000Z</time>
      </trkpt>
      <trkpt lat="44.63244" lon="5.85044">
        <ele>1164.43395</ele>
        <time>2025-07-10T07:01:54.000Z</time>
      </trkpt>
      <trkpt lat="44.63246" lon="5.85043">
        <ele>1164.543608</ele>
        <time>2025-07-10T07:01:55.000Z</time>
      </trkpt>
      <trkpt lat="44.63247" lon="5.85043">
        <ele>1164.653267</ele>
        <time>2025-07-10T07:01:56.000Z</time>
      </trkpt>
      <trkpt lat="44.63249" lon="5.85042">
        <ele>1164.757544</ele>
        <time>2025-07-10T07:01:57.000Z</time>
      </trkpt>
      <trkpt lat="44.63251" lon="5.85042">
        <ele>1164.859737</ele>
        <time>2025-07-10T07:01:58.000Z</time>
      </trkpt>
      <trkpt lat="44.63252" lon="5.85041">
        <ele>1164.96029</ele>
        <time>2025-07-10T07:01:59.000Z</time>
      </trkpt>
      <trkpt lat="44.63254" lon="5.8504">
        <ele>1165.071695</ele>
        <time>2025-07-10T07:02:00.000Z</time>
      </trkpt>
      <trkpt lat="44.63255" lon="5.85039">
        <ele>1165.187269</ele>
        <time>2025-07-10T07:02:01.000Z</time>
      </trkpt>
      <trkpt lat="44.63257" lon="5.85039">
        <ele>1165.295311</ele>
        <time>2025-07-10T07:02:02.000Z</time>
      </trkpt>
      <trkpt lat="44.63259" lon="5.85038">
        <ele>1165.399589</ele>
        <time>2025-07-10T07:02:03.000Z</time>
      </trkpt>
      <trkpt lat="44.6326" lon="5.85038">
        <ele>1165.489685</ele>
        <time>2025-07-10T07:02:04.000Z</time>
      </trkpt>
      <trkpt lat="44.63261" lon="5.85038">
        <ele>1165.586076</ele>
        <time>2025-07-10T07:02:05.000Z</time>
      </trkpt>
      <trkpt lat="44.63263" lon="5.85037">
        <ele>1165.70068</ele>
        <time>2025-07-10T07:02:06.000Z</time>
      </trkpt>
      <trkpt lat="44.63265" lon="5.85037">
        <ele>1165.803373</ele>
        <time>2025-07-10T07:02:07.000Z</time>
      </trkpt>
      <trkpt lat="44.63267" lon="5.85037">
        <ele>1165.912375</ele>
        <time>2025-07-10T07:02:08.000Z</time>
      </trkpt>
      <trkpt lat="44.63268" lon="5.85037">
        <ele>1166.021377</ele>
        <time>2025-07-10T07:02:09.000Z</time>
      </trkpt>
      <trkpt lat="44.6327" lon="5.85036">
        <ele>1166.137315</ele>
        <time>2025-07-10T07:02:10.000Z</time>
      </trkpt>
      <trkpt lat="44.63272" lon="5.85036">
        <ele>1166.252187</ele>
        <time>2025-07-10T07:02:11.000Z</time>
      </trkpt>
      <trkpt lat="44.63274" lon="5.85036">
        <ele>1166.360435</ele>
        <time>2025-07-10T07:02:12.000Z</time>
      </trkpt>
      <trkpt lat="44.63275" lon="5.85036">
        <ele>1166.462226</ele>
        <time>2025-07-10T07:02:13.000Z</time>
      </trkpt>
      <trkpt lat="44.63277" lon="5.85036">
        <ele>1166.57674</ele>
        <time>2025-07-10T07:02:14.000Z</time>
      </trkpt>
      <trkpt lat="44.63279" lon="5.85036">
        <ele>1166.691612</ele>
        <time>2025-07-10T07:02:15.000Z</time>
      </trkpt>
      <trkpt lat="44.6328" lon="5.85035">
        <ele>1166.78747</ele>
        <time>2025-07-10T07:02:16.000Z</time>
      </trkpt>
      <trkpt lat="44.63282" lon="5.85035">
        <ele>1166.897128</ele>
        <time>2025-07-10T07:02:17.000Z</time>
      </trkpt>
      <trkpt lat="44.63284" lon="5.85035">
        <ele>1167.012446</ele>
        <time>2025-07-10T07:02:18.000Z</time>
      </trkpt>
      <trkpt lat="44.63285" lon="5.85035">
        <ele>1167.120693</ele>
        <time>2025-07-10T07:02:19.000Z</time>
      </trkpt>
      <trkpt lat="44.63287" lon="5.85035">
        <ele>1167.242205</ele>
        <time>2025-07-10T07:02:20.000Z</time>
      </trkpt>
      <trkpt lat="44.63289" lon="5.85035">
        <ele>1167.394354</ele>
        <time>2025-07-10T07:02:21.000Z</time>
      </trkpt>
      <trkpt lat="44.63291" lon="5.85035">
        <ele>1167.562913</ele>
        <time>2025-07-10T07:02:22.000Z</time>
      </trkpt>
      <trkpt lat="44.63293" lon="5.85035">
        <ele>1167.690807</ele>
        <time>2025-07-10T07:02:23.000Z</time>
      </trkpt>
      <trkpt lat="44.63295" lon="5.85035">
        <ele>1167.829502</ele>
        <time>2025-07-10T07:02:24.000Z</time>
      </trkpt>
      <trkpt lat="44.63296" lon="5.85035">
        <ele>1167.974249</ele>
        <time>2025-07-10T07:02:25.000Z</time>
      </trkpt>
      <trkpt lat="44.63298" lon="5.85036">
        <ele>1168.118436</ele>
        <time>2025-07-10T07:02:26.000Z</time>
      </trkpt>
      <trkpt lat="44.633" lon="5.85036">
        <ele>1168.254664</ele>
        <time>2025-07-10T07:02:27.000Z</time>
      </trkpt>
      <trkpt lat="44.63302" lon="5.85036">
        <ele>1168.398851</ele>
        <time>2025-07-10T07:02:28.000Z</time>
      </trkpt>
      <trkpt lat="44.63303" lon="5.85037">
        <ele>1168.53109</ele>
        <time>2025-07-10T07:02:29.000Z</time>
      </trkpt>
      <trkpt lat="44.63305" lon="5.85037">
        <ele>1168.659209</ele>
        <time>2025-07-10T07:02:30.000Z</time>
      </trkpt>
      <trkpt lat="44.63306" lon="5.85038">
        <ele>1168.777872</ele>
        <time>2025-07-10T07:02:31.000Z</time>
      </trkpt>
      <trkpt lat="44.63308" lon="5.85039">
        <ele>1168.910111</ele>
        <time>2025-07-10T07:02:32.000Z</time>
      </trkpt>
      <trkpt lat="44.63309" lon="5.8504">
        <ele>1169.059565</ele>
        <time>2025-07-10T07:02:33.000Z</time>
      </trkpt>
      <trkpt lat="44.63311" lon="5.8504">
        <ele>1169.206085</ele>
        <time>2025-07-10T07:02:34.000Z</time>
      </trkpt>
      <trkpt lat="44.63313" lon="5.85041">
        <ele>1169.361593</ele>
        <time>2025-07-10T07:02:35.000Z</time>
      </trkpt>
      <trkpt lat="44.63315" lon="5.85042">
        <ele>1169.493832</ele>
        <time>2025-07-10T07:02:36.000Z</time>
      </trkpt>
      <trkpt lat="44.63316" lon="5.85042">
        <ele>1169.618372</ele>
        <time>2025-07-10T07:02:37.000Z</time>
      </trkpt>
      <trkpt lat="44.63318" lon="5.85043">
        <ele>1169.780389</ele>
        <time>2025-07-10T07:02:38.000Z</time>
      </trkpt>
      <trkpt lat="44.6332" lon="5.85044">
        <ele>1169.912967</ele>
        <time>2025-07-10T07:02:39.000Z</time>
      </trkpt>
      <trkpt lat="44.63321" lon="5.85045">
        <ele>1170.028693</ele>
        <time>2025-07-10T07:02:40.000Z</time>
      </trkpt>
      <trkpt lat="44.63322" lon="5.85046">
        <ele>1170.147356</ele>
        <time>2025-07-10T07:02:41.000Z</time>
      </trkpt>
      <trkpt lat="44.63324" lon="5.85046">
        <ele>1170.27357</ele>
        <time>2025-07-10T07:02:42.000Z</time>
      </trkpt>
      <trkpt lat="44.63325" lon="5.85047">
        <ele>1170.399785</ele>
        <time>2025-07-10T07:02:43.000Z</time>
      </trkpt>
      <trkpt lat="44.63327" lon="5.85048">
        <ele>1170.533602</ele>
        <time>2025-07-10T07:02:44.000Z</time>
      </trkpt>
      <trkpt lat="44.63329" lon="5.85049">
        <ele>1170.667418</ele>
        <time>2025-07-10T07:02:45.000Z</time>
      </trkpt>
      <trkpt lat="44.6333" lon="5.85049">
        <ele>1170.825807</ele>
        <time>2025-07-10T07:02:46.000Z</time>
      </trkpt>
      <trkpt lat="44.63332" lon="5.8505">
        <ele>1170.964502</ele>
        <time>2025-07-10T07:02:47.000Z</time>
      </trkpt>
      <trkpt lat="44.63334" lon="5.8505">
        <ele>1171.109248</ele>
        <time>2025-07-10T07:02:48.000Z</time>
      </trkpt>
      <trkpt lat="44.63336" lon="5.85051">
        <ele>1171.256975</ele>
        <time>2025-07-10T07:02:49.000Z</time>
      </trkpt>
      <trkpt lat="44.63337" lon="5.85052">
        <ele>1171.385094</ele>
        <time>2025-07-10T07:02:50.000Z</time>
      </trkpt>
      <trkpt lat="44.63339" lon="5.85052">
        <ele>1171.525064</ele>
        <time>2025-07-10T07:02:51.000Z</time>
      </trkpt>
      <trkpt lat="44.63341" lon="5.85053">
        <ele>1171.655953</ele>
        <time>2025-07-10T07:02:52.000Z</time>
      </trkpt>
      <trkpt lat="44.63342" lon="5.85053">
        <ele>1171.786841</ele>
        <time>2025-07-10T07:02:53.000Z</time>
      </trkpt>
      <trkpt lat="44.63344" lon="5.85054">
        <ele>1171.926811</ele>
        <time>2025-07-10T07:02:54.000Z</time>
      </trkpt>
      <trkpt lat="44.63346" lon="5.85054">
        <ele>1172.074538</ele>
        <time>2025-07-10T07:02:55.000Z</time>
      </trkpt>
      <trkpt lat="44.63347" lon="5.85055">
        <ele>1172.199079</ele>
        <time>2025-07-10T07:02:56.000Z</time>
      </trkpt>
      <trkpt lat="44.63349" lon="5.85055">
        <ele>1172.327979</ele>
        <time>2025-07-10T07:02:57.000Z</time>
      </trkpt>
      <trkpt lat="44.6335" lon="5.85056">
        <ele>1172.471142</ele>
        <time>2025-07-10T07:02:58.000Z</time>
      </trkpt>
      <trkpt lat="44.63352" lon="5.85057">
        <ele>1172.611111</ele>
        <time>2025-07-10T07:02:59.000Z</time>
      </trkpt>
      <trkpt lat="44.63354" lon="5.85057">
        <ele>1172.734217</ele>
        <time>2025-07-10T07:03:00.000Z</time>
      </trkpt>
      <trkpt lat="44.63355" lon="5.85058">
        <ele>1172.84028</ele>
        <time>2025-07-10T07:03:01.000Z</time>
      </trkpt>
      <trkpt lat="44.63356" lon="5.85058">
        <ele>1172.954364</ele>
        <time>2025-07-10T07:03:02.000Z</time>
      </trkpt>
      <trkpt lat="44.63358" lon="5.85059">
        <ele>1173.09911</ele>
        <time>2025-07-10T07:03:03.000Z</time>
      </trkpt>
      <trkpt lat="44.6336" lon="5.85059">
        <ele>1173.243856</ele>
        <time>2025-07-10T07:03:04.000Z</time>
      </trkpt>
      <trkpt lat="44.63361" lon="5.85059">
        <ele>1173.355797</ele>
        <time>2025-07-10T07:03:05.000Z</time>
      </trkpt>
      <trkpt lat="44.63363" lon="5.85059">
        <ele>1173.475714</ele>
        <time>2025-07-10T07:03:06.000Z</time>
      </trkpt>
      <trkpt lat="44.63364" lon="5.85059">
        <ele>1173.603482</ele>
        <time>2025-07-10T07:03:07.000Z</time>
      </trkpt>
      <trkpt lat="44.63366" lon="5.85059">
        <ele>1173.723264</ele>
        <time>2025-07-10T07:03:08.000Z</time>
      </trkpt>
      <trkpt lat="44.63367" lon="5.85059">
        <ele>1173.851158</ele>
        <time>2025-07-10T07:03:09.000Z</time>
      </trkpt>
      <trkpt lat="44.63369" lon="5.85059">
        <ele>1173.979431</ele>
        <time>2025-07-10T07:03:10.000Z</time>
      </trkpt>
      <trkpt lat="44.63371" lon="5.85059">
        <ele>1174.107198</ele>
        <time>2025-07-10T07:03:11.000Z</time>
      </trkpt>
      <trkpt lat="44.63372" lon="5.85059">
        <ele>1174.244018</ele>
        <time>2025-07-10T07:03:12.000Z</time>
      </trkpt>
      <trkpt lat="44.63374" lon="5.85058">
        <ele>1174.382713</ele>
        <time>2025-07-10T07:03:13.000Z</time>
      </trkpt>
      <trkpt lat="44.63376" lon="5.85058">
        <ele>1174.546021</ele>
        <time>2025-07-10T07:03:14.000Z</time>
      </trkpt>
      <trkpt lat="44.63378" lon="5.85057">
        <ele>1174.691546</ele>
        <time>2025-07-10T07:03:15.000Z</time>
      </trkpt>
      <trkpt lat="44.63379" lon="5.85057">
        <ele>1174.82132</ele>
        <time>2025-07-10T07:03:16.000Z</time>
      </trkpt>
      <trkpt lat="44.63381" lon="5.85057">
        <ele>1174.960015</ele>
        <time>2025-07-10T07:03:17.000Z</time>
      </trkpt>
      <trkpt lat="44.63383" lon="5.85056">
        <ele>1175.092254</ele>
        <time>2025-07-10T07:03:18.000Z</time>
      </trkpt>
      <trkpt lat="44.63384" lon="5.85056">
        <ele>1175.229897</ele>
        <time>2025-07-10T07:03:19.000Z</time>
      </trkpt>
      <trkpt lat="44.63386" lon="5.85055">
        <ele>1175.360785</ele>
        <time>2025-07-10T07:03:20.000Z</time>
      </trkpt>
      <trkpt lat="44.63388" lon="5.85055">
        <ele>1175.507305</ele>
        <time>2025-07-10T07:03:21.000Z</time>
      </trkpt>
      <trkpt lat="44.63389" lon="5.85054">
        <ele>1175.635578</ele>
        <time>2025-07-10T07:03:22.000Z</time>
      </trkpt>
      <trkpt lat="44.63391" lon="5.85054">
        <ele>1175.772397</ele>
        <time>2025-07-10T07:03:23.000Z</time>
      </trkpt>
      <trkpt lat="44.63393" lon="5.85054">
        <ele>1175.911092</ele>
        <time>2025-07-10T07:03:24.000Z</time>
      </trkpt>
      <trkpt lat="44.63395" lon="5.85053">
        <ele>1176.051061</ele>
        <time>2025-07-10T07:03:25.000Z</time>
      </trkpt>
      <trkpt lat="44.63396" lon="5.85052">
        <ele>1176.194224</ele>
        <time>2025-07-10T07:03:26.000Z</time>
      </trkpt>
      <trkpt lat="44.63398" lon="5.85051">
        <ele>1176.337387</ele>
        <time>2025-07-10T07:03:27.000Z</time>
      </trkpt>
      <trkpt lat="44.634" lon="5.85051">
        <ele>1176.47503</ele>
        <time>2025-07-10T07:03:28.000Z</time>
      </trkpt>
      <trkpt lat="44.63401" lon="5.85051">
        <ele>1176.612673</ele>
        <time>2025-07-10T07:03:29.000Z</time>
      </trkpt>
      <trkpt lat="44.63403" lon="5.8505">
        <ele>1176.764822</ele>
        <time>2025-07-10T07:03:30.000Z</time>
      </trkpt>
      <trkpt lat="44.63405" lon="5.8505">
        <ele>1176.910347</ele>
        <time>2025-07-10T07:03:31.000Z</time>
      </trkpt>
      <trkpt lat="44.63407" lon="5.85049">
        <ele>1177.058074</ele>
        <time>2025-07-10T07:03:32.000Z</time>
      </trkpt>
      <trkpt lat="44.63409" lon="5.85048">
        <ele>1177.21064</ele>
        <time>2025-07-10T07:03:33.000Z</time>
      </trkpt>
      <trkpt lat="44.6341" lon="5.85048">
        <ele>1177.356165</ele>
        <time>2025-07-10T07:03:34.000Z</time>
      </trkpt>
      <trkpt lat="44.63412" lon="5.85047">
        <ele>1177.503892</ele>
        <time>2025-07-10T07:03:35.000Z</time>
      </trkpt>
      <trkpt lat="44.63414" lon="5.85047">
        <ele>1177.65162</ele>
        <time>2025-07-10T07:03:36.000Z</time>
      </trkpt>
      <trkpt lat="44.63416" lon="5.85046">
        <ele>1177.802376</ele>
        <time>2025-07-10T07:03:37.000Z</time>
      </trkpt>
      <trkpt lat="44.63418" lon="5.85045">
        <ele>1177.942345</ele>
        <time>2025-07-10T07:03:38.000Z</time>
      </trkpt>
      <trkpt lat="44.63419" lon="5.85045">
        <ele>1178.08787</ele>
        <time>2025-07-10T07:03:39.000Z</time>
      </trkpt>
      <trkpt lat="44.63421" lon="5.85045">
        <ele>1178.232616</ele>
        <time>2025-07-10T07:03:40.000Z</time>
      </trkpt>
      <trkpt lat="44.63423" lon="5.85044">
        <ele>1178.393935</ele>
        <time>2025-07-10T07:03:41.000Z</time>
      </trkpt>
      <trkpt lat="44.63425" lon="5.85044">
        <ele>1178.554552</ele>
        <time>2025-07-10T07:03:42.000Z</time>
      </trkpt>
      <trkpt lat="44.63427" lon="5.85044">
        <ele>1178.682446</ele>
        <time>2025-07-10T07:03:43.000Z</time>
      </trkpt>
      <trkpt lat="44.63428" lon="5.85044">
        <ele>1178.803436</ele>
        <time>2025-07-10T07:03:44.000Z</time>
      </trkpt>
      <trkpt lat="44.6343" lon="5.85043">
        <ele>1178.932336</ele>
        <time>2025-07-10T07:03:45.000Z</time>
      </trkpt>
      <trkpt lat="44.63432" lon="5.85043">
        <ele>1179.077082</ele>
        <time>2025-07-10T07:03:46.000Z</time>
      </trkpt>
      <trkpt lat="44.63433" lon="5.85043">
        <ele>1179.21331</ele>
        <time>2025-07-10T07:03:47.000Z</time>
      </trkpt>
      <trkpt lat="44.63435" lon="5.85044">
        <ele>1179.358835</ele>
        <time>2025-07-10T07:03:48.000Z</time>
      </trkpt>
      <trkpt lat="44.63437" lon="5.85044">
        <ele>1179.503022</ele>
        <time>2025-07-10T07:03:49.000Z</time>
      </trkpt>
      <trkpt lat="44.63439" lon="5.85044">
        <ele>1179.638776</ele>
        <time>2025-07-10T07:03:50.000Z</time>
      </trkpt>
      <trkpt lat="44.6344" lon="5.85044">
        <ele>1179.766543</ele>
        <time>2025-07-10T07:03:51.000Z</time>
      </trkpt>
      <trkpt lat="44.63442" lon="5.85044">
        <ele>1179.910282</ele>
        <time>2025-07-10T07:03:52.000Z</time>
      </trkpt>
      <trkpt lat="44.63444" lon="5.85044">
        <ele>1180.055807</ele>
        <time>2025-07-10T07:03:53.000Z</time>
      </trkpt>
      <trkpt lat="44.63445" lon="5.85045">
        <ele>1180.159561</ele>
        <time>2025-07-10T07:03:54.000Z</time>
      </trkpt>
      <trkpt lat="44.63446" lon="5.85046">
        <ele>1180.28497</ele>
        <time>2025-07-10T07:03:55.000Z</time>
      </trkpt>
      <trkpt lat="44.63448" lon="5.85047">
        <ele>1180.426431</ele>
        <time>2025-07-10T07:03:56.000Z</time>
      </trkpt>
      <trkpt lat="44.6345" lon="5.85047">
        <ele>1180.574158</ele>
        <time>2025-07-10T07:03:57.000Z</time>
      </trkpt>
      <trkpt lat="44.63451" lon="5.85048">
        <ele>1180.687487</ele>
        <time>2025-07-10T07:03:58.000Z</time>
      </trkpt>
      <trkpt lat="44.63453" lon="5.85049">
        <ele>1180.82511</ele>
        <time>2025-07-10T07:03:59.000Z</time>
      </trkpt>
      <trkpt lat="44.63455" lon="5.8505">
        <ele>1180.972277</ele>
        <time>2025-07-10T07:04:00.000Z</time>
      </trkpt>
      <trkpt lat="44.63456" lon="5.85051">
        <ele>1181.107891</ele>
        <time>2025-07-10T07:04:01.000Z</time>
      </trkpt>
      <trkpt lat="44.63458" lon="5.85052">
        <ele>1181.230831</ele>
        <time>2025-07-10T07:04:02.000Z</time>
      </trkpt>
      <trkpt lat="44.63459" lon="5.85053">
        <ele>1181.373069</ele>
        <time>2025-07-10T07:04:03.000Z</time>
      </trkpt>
      <trkpt lat="44.63461" lon="5.85054">
        <ele>1181.496008</ele>
        <time>2025-07-10T07:04:04.000Z</time>
      </trkpt>
      <trkpt lat="44.63462" lon="5.85055">
        <ele>1181.63999</ele>
        <time>2025-07-10T07:04:05.000Z</time>
      </trkpt>
      <trkpt lat="44.63464" lon="5.85056">
        <ele>1181.778687</ele>
        <time>2025-07-10T07:04:06.000Z</time>
      </trkpt>
      <trkpt lat="44.63465" lon="5.85057">
        <ele>1181.906539</ele>
        <time>2025-07-10T07:04:07.000Z</time>
      </trkpt>
      <trkpt lat="44.63466" lon="5.85058">
        <ele>1182.03404</ele>
        <time>2025-07-10T07:04:08.000Z</time>
      </trkpt>
      <trkpt lat="44.63468" lon="5.8506">
        <ele>1182.165525</ele>
        <time>2025-07-10T07:04:09.000Z</time>
      </trkpt>
      <trkpt lat="44.63469" lon="5.85061">
        <ele>1182.313137</ele>
        <time>2025-07-10T07:04:10.000Z</time>
      </trkpt>
      <trkpt lat="44.63471" lon="5.85062">
        <ele>1182.464054</ele>
        <time>2025-07-10T07:04:11.000Z</time>
      </trkpt>
      <trkpt lat="44.63472" lon="5.85064">
        <ele>1182.60837</ele>
        <time>2025-07-10T07:04:12.000Z</time>
      </trkpt>
      <trkpt lat="44.63473" lon="5.85065">
        <ele>1182.749861</ele>
        <time>2025-07-10T07:04:13.000Z</time>
      </trkpt>
      <trkpt lat="44.63475" lon="5.85066">
        <ele>1182.888559</ele>
        <time>2025-07-10T07:04:14.000Z</time>
      </trkpt>
      <trkpt lat="44.63476" lon="5.85067">
        <ele>1183.030049</ele>
        <time>2025-07-10T07:04:15.000Z</time>
      </trkpt>
      <trkpt lat="44.63478" lon="5.85069">
        <ele>1183.161534</ele>
        <time>2025-07-10T07:04:16.000Z</time>
      </trkpt>
      <trkpt lat="44.63479" lon="5.8507">
        <ele>1183.283022</ele>
        <time>2025-07-10T07:04:17.000Z</time>
      </trkpt>
      <trkpt lat="44.6348" lon="5.85071">
        <ele>1183.40451</ele>
        <time>2025-07-10T07:04:18.000Z</time>
      </trkpt>
      <trkpt lat="44.63482" lon="5.85072">
        <ele>1183.533249</ele>
        <time>2025-07-10T07:04:19.000Z</time>
      </trkpt>
      <trkpt lat="44.63483" lon="5.85073">
        <ele>1183.664044</ele>
        <time>2025-07-10T07:04:20.000Z</time>
      </trkpt>
      <trkpt lat="44.63485" lon="5.85074">
        <ele>1183.8016</ele>
        <time>2025-07-10T07:04:21.000Z</time>
      </trkpt>
      <trkpt lat="44.63486" lon="5.85075">
        <ele>1183.932394</ele>
        <time>2025-07-10T07:04:22.000Z</time>
      </trkpt>
      <trkpt lat="44.63487" lon="5.85077">
        <ele>1184.06995</ele>
        <time>2025-07-10T07:04:23.000Z</time>
      </trkpt>
      <trkpt lat="44.63489" lon="5.85078">
        <ele>1184.208647</ele>
        <time>2025-07-10T07:04:24.000Z</time>
      </trkpt>
      <trkpt lat="44.6349" lon="5.85079">
        <ele>1184.332854</ele>
        <time>2025-07-10T07:04:25.000Z</time>
      </trkpt>
      <trkpt lat="44.63491" lon="5.8508">
        <ele>1184.463648</ele>
        <time>2025-07-10T07:04:26.000Z</time>
      </trkpt>
      <trkpt lat="44.63493" lon="5.85081">
        <ele>1184.585136</ele>
        <time>2025-07-10T07:04:27.000Z</time>
      </trkpt>
      <trkpt lat="44.63494" lon="5.85082">
        <ele>1184.718837</ele>
        <time>2025-07-10T07:04:28.000Z</time>
      </trkpt>
      <trkpt lat="44.63495" lon="5.85084">
        <ele>1184.849632</ele>
        <time>2025-07-10T07:04:29.000Z</time>
      </trkpt>
      <trkpt lat="44.63496" lon="5.85085">
        <ele>1184.975279</ele>
        <time>2025-07-10T07:04:30.000Z</time>
      </trkpt>
      <trkpt lat="44.63497" lon="5.85087">
        <ele>1185.100085</ele>
        <time>2025-07-10T07:04:31.000Z</time>
      </trkpt>
      <trkpt lat="44.63498" lon="5.85089">
        <ele>1185.228867</ele>
        <time>2025-07-10T07:04:32.000Z</time>
      </trkpt>
      <trkpt lat="44.63499" lon="5.8509">
        <ele>1185.344578</ele>
        <time>2025-07-10T07:04:33.000Z</time>
      </trkpt>
      <trkpt lat="44.635" lon="5.85091">
        <ele>1185.472425</ele>
        <time>2025-07-10T07:04:34.000Z</time>
      </trkpt>
      <trkpt lat="44.63502" lon="5.85091">
        <ele>1185.570967</ele>
        <time>2025-07-10T07:04:35.000Z</time>
      </trkpt>
      <trkpt lat="44.63502" lon="5.85091">
        <ele>1185.629524</ele>
        <time>2025-07-10T07:04:36.000Z</time>
      </trkpt>
      <trkpt lat="44.63504" lon="5.85091">
        <ele>1185.777193</ele>
        <time>2025-07-10T07:09:36.000Z</time>
      </trkpt>
      <trkpt lat="44.63506" lon="5.85092">
        <ele>1185.894306</ele>
        <time>2025-07-10T07:09:37.000Z</time>
      </trkpt>
      <trkpt lat="44.63507" lon="5.85092">
        <ele>1186.031675</ele>
        <time>2025-07-10T07:09:38.000Z</time>
      </trkpt>
      <trkpt lat="44.63509" lon="5.85093">
        <ele>1186.174051</ele>
        <time>2025-07-10T07:09:39.000Z</time>
      </trkpt>
      <trkpt lat="44.6351" lon="5.85093">
        <ele>1186.292464</ele>
        <time>2025-07-10T07:09:40.000Z</time>
      </trkpt>
      <trkpt lat="44.63511" lon="5.85094">
        <ele>1186.401342</ele>
        <time>2025-07-10T07:09:41.000Z</time>
      </trkpt>
      <trkpt lat="44.63513" lon="5.85095">
        <ele>1186.537439</ele>
        <time>2025-07-10T07:09:42.000Z</time>
      </trkpt>
      <trkpt lat="44.63515" lon="5.85096">
        <ele>1186.684402</ele>
        <time>2025-07-10T07:09:43.000Z</time>
      </trkpt>
      <trkpt lat="44.63516" lon="5.85097">
        <ele>1186.810776</ele>
        <time>2025-07-10T07:09:44.000Z</time>
      </trkpt>
      <trkpt lat="44.63517" lon="5.85096">
        <ele>1186.91798</ele>
        <time>2025-07-10T07:09:45.000Z</time>
      </trkpt>
      <trkpt lat="44.63519" lon="5.85096">
        <ele>1187.024707</ele>
        <time>2025-07-10T07:09:46.000Z</time>
      </trkpt>
      <trkpt lat="44.6352" lon="5.85096">
        <ele>1187.139619</ele>
        <time>2025-07-10T07:09:47.000Z</time>
      </trkpt>
      <trkpt lat="44.63522" lon="5.85097">
        <ele>1187.29272</ele>
        <time>2025-07-10T07:09:48.000Z</time>
      </trkpt>
      <trkpt lat="44.63524" lon="5.85098">
        <ele>1187.438734</ele>
        <time>2025-07-10T07:09:49.000Z</time>
      </trkpt>
      <trkpt lat="44.63525" lon="5.85099">
        <ele>1187.572435</ele>
        <time>2025-07-10T07:09:50.000Z</time>
      </trkpt>
      <trkpt lat="44.63526" lon="5.851">
        <ele>1187.691232</ele>
        <time>2025-07-10T07:09:51.000Z</time>
      </trkpt>
      <trkpt lat="44.63528" lon="5.851">
        <ele>1187.808344</ele>
        <time>2025-07-10T07:09:52.000Z</time>
      </trkpt>
      <trkpt lat="44.63529" lon="5.85101">
        <ele>1187.918831</ele>
        <time>2025-07-10T07:09:53.000Z</time>
      </trkpt>
      <trkpt lat="44.6353" lon="5.85102">
        <ele>1188.013158</ele>
        <time>2025-07-10T07:09:54.000Z</time>
      </trkpt>
      <trkpt lat="44.63531" lon="5.85103">
        <ele>1188.131955</ele>
        <time>2025-07-10T07:09:55.000Z</time>
      </trkpt>
      <trkpt lat="44.63533" lon="5.85103">
        <ele>1188.243457</ele>
        <time>2025-07-10T07:09:56.000Z</time>
      </trkpt>
      <trkpt lat="44.63534" lon="5.85104">
        <ele>1188.362254</ele>
        <time>2025-07-10T07:09:57.000Z</time>
      </trkpt>
      <trkpt lat="44.63535" lon="5.85105">
        <ele>1188.480667</ele>
        <time>2025-07-10T07:09:58.000Z</time>
      </trkpt>
      <trkpt lat="44.63537" lon="5.85105">
        <ele>1188.611827</ele>
        <time>2025-07-10T07:09:59.000Z</time>
      </trkpt>
      <trkpt lat="44.63538" lon="5.85105">
        <ele>1188.736028</ele>
        <time>2025-07-10T07:10:00.000Z</time>
      </trkpt>
      <trkpt lat="44.6354" lon="5.85106">
        <ele>1188.869247</ele>
        <time>2025-07-10T07:10:01.000Z</time>
      </trkpt>
      <trkpt lat="44.63542" lon="5.85106">
        <ele>1189.027706</ele>
        <time>2025-07-10T07:10:02.000Z</time>
      </trkpt>
      <trkpt lat="44.63544" lon="5.85106">
        <ele>1189.167186</ele>
        <time>2025-07-10T07:10:03.000Z</time>
      </trkpt>
      <trkpt lat="44.63545" lon="5.85106">
        <ele>1189.299508</ele>
        <time>2025-07-10T07:10:04.000Z</time>
      </trkpt>
      <trkpt lat="44.63547" lon="5.85107">
        <ele>1189.431829</ele>
        <time>2025-07-10T07:10:05.000Z</time>
      </trkpt>
      <trkpt lat="44.63549" lon="5.85107">
        <ele>1189.579384</ele>
        <time>2025-07-10T07:10:06.000Z</time>
      </trkpt>
      <trkpt lat="44.6355" lon="5.85107">
        <ele>1189.712603</ele>
        <time>2025-07-10T07:10:07.000Z</time>
      </trkpt>
      <trkpt lat="44.63552" lon="5.85108">
        <ele>1189.8539</ele>
        <time>2025-07-10T07:10:08.000Z</time>
      </trkpt>
      <trkpt lat="44.63554" lon="5.85108">
        <ele>1189.994351</ele>
        <time>2025-07-10T07:10:09.000Z</time>
      </trkpt>
      <trkpt lat="44.63555" lon="5.85108">
        <ele>1190.14294</ele>
        <time>2025-07-10T07:10:10.000Z</time>
      </trkpt>
      <trkpt lat="44.63557" lon="5.85108">
        <ele>1190.274229</ele>
        <time>2025-07-10T07:10:11.000Z</time>
      </trkpt>
      <trkpt lat="44.63558" lon="5.85108">
        <ele>1190.397744</ele>
        <time>2025-07-10T07:10:12.000Z</time>
      </trkpt>
      <trkpt lat="44.6356" lon="5.85109">
        <ele>1190.521945</ele>
        <time>2025-07-10T07:10:13.000Z</time>
      </trkpt>
      <trkpt lat="44.63561" lon="5.85109">
        <ele>1190.638036</ele>
        <time>2025-07-10T07:10:14.000Z</time>
      </trkpt>
      <trkpt lat="44.63563" lon="5.85109">
        <ele>1190.739135</ele>
        <time>2025-07-10T07:10:15.000Z</time>
      </trkpt>
      <trkpt lat="44.63564" lon="5.8511">
        <ele>1190.840234</ele>
        <time>2025-07-10T07:10:16.000Z</time>
      </trkpt>
      <trkpt lat="44.63565" lon="5.8511">
        <ele>1190.965391</ele>
        <time>2025-07-10T07:10:17.000Z</time>
      </trkpt>
      <trkpt lat="44.63567" lon="5.8511">
        <ele>1191.112945</ele>
        <time>2025-07-10T07:10:18.000Z</time>
      </trkpt>
      <trkpt lat="44.63569" lon="5.85111">
        <ele>1191.253397</ele>
        <time>2025-07-10T07:10:19.000Z</time>
      </trkpt>
      <trkpt lat="44.6357" lon="5.85111">
        <ele>1191.390766</ele>
        <time>2025-07-10T07:10:20.000Z</time>
      </trkpt>
      <trkpt lat="44.63572" lon="5.85112">
        <ele>1191.499857</ele>
        <time>2025-07-10T07:10:21.000Z</time>
      </trkpt>
      <trkpt lat="44.63574" lon="5.85111">
        <ele>1191.700789</ele>
        <time>2025-07-10T07:11:14.000Z</time>
      </trkpt>
      <trkpt lat="44.63576" lon="5.85111">
        <ele>1191.850177</ele>
        <time>2025-07-10T07:11:15.000Z</time>
      </trkpt>
      <trkpt lat="44.63577" lon="5.85112">
        <ele>1191.96859</ele>
        <time>2025-07-10T07:11:16.000Z</time>
      </trkpt>
      <trkpt lat="44.63579" lon="5.85112">
        <ele>1192.101809</ele>
        <time>2025-07-10T07:11:17.000Z</time>
      </trkpt>
      <trkpt lat="44.6358" lon="5.85113">
        <ele>1192.234131</ele>
        <time>2025-07-10T07:11:18.000Z</time>
      </trkpt>
      <trkpt lat="44.63582" lon="5.85113">
        <ele>1192.365291</ele>
        <time>2025-07-10T07:11:19.000Z</time>
      </trkpt>
      <trkpt lat="44.63584" lon="5.85113">
        <ele>1192.513879</ele>
        <time>2025-07-10T07:11:20.000Z</time>
      </trkpt>
      <trkpt lat="44.63586" lon="5.85113">
        <ele>1192.661549</ele>
        <time>2025-07-10T07:11:21.000Z</time>
      </trkpt>
      <trkpt lat="44.63587" lon="5.85113">
        <ele>1192.801028</ele>
        <time>2025-07-10T07:11:22.000Z</time>
      </trkpt>
      <trkpt lat="44.63589" lon="5.85113">
        <ele>1192.940507</ele>
        <time>2025-07-10T07:11:23.000Z</time>
      </trkpt>
      <trkpt lat="44.63591" lon="5.85113">
        <ele>1193.079986</ele>
        <time>2025-07-10T07:11:24.000Z</time>
      </trkpt>
      <trkpt lat="44.63592" lon="5.85113">
        <ele>1193.211146</ele>
        <time>2025-07-10T07:11:25.000Z</time>
      </trkpt>
      <trkpt lat="44.63594" lon="5.85113">
        <ele>1193.367334</ele>
        <time>2025-07-10T07:11:26.000Z</time>
      </trkpt>
      <trkpt lat="44.63596" lon="5.85113">
        <ele>1193.515004</ele>
        <time>2025-07-10T07:11:27.000Z</time>
      </trkpt>
      <trkpt lat="44.63598" lon="5.85113">
        <ele>1193.670866</ele>
        <time>2025-07-10T07:11:28.000Z</time>
      </trkpt>
      <trkpt lat="44.636" lon="5.85113">
        <ele>1193.827054</ele>
        <time>2025-07-10T07:11:29.000Z</time>
      </trkpt>
      <trkpt lat="44.63602" lon="5.85113">
        <ele>1193.983242</ele>
        <time>2025-07-10T07:11:30.000Z</time>
      </trkpt>
      <trkpt lat="44.63604" lon="5.85114">
        <ele>1194.147606</ele>
        <time>2025-07-10T07:11:31.000Z</time>
      </trkpt>
      <trkpt lat="44.63606" lon="5.85114">
        <ele>1194.303795</ele>
        <time>2025-07-10T07:11:32.000Z</time>
      </trkpt>
      <trkpt lat="44.63608" lon="5.85114">
        <ele>1194.459656</ele>
        <time>2025-07-10T07:11:33.000Z</time>
      </trkpt>
      <trkpt lat="44.63609" lon="5.85114">
        <ele>1194.615844</ele>
        <time>2025-07-10T07:11:34.000Z</time>
      </trkpt>
      <trkpt lat="44.63611" lon="5.85113">
        <ele>1194.763859</ele>
        <time>2025-07-10T07:11:35.000Z</time>
      </trkpt>
      <trkpt lat="44.63613" lon="5.85114">
        <ele>1194.879951</ele>
        <time>2025-07-10T07:11:36.000Z</time>
      </trkpt>
      <trkpt lat="44.63614" lon="5.85114">
        <ele>1195.004152</ele>
        <time>2025-07-10T07:11:37.000Z</time>
      </trkpt>
      <trkpt lat="44.63616" lon="5.85114">
        <ele>1195.143631</ele>
        <time>2025-07-10T07:11:38.000Z</time>
      </trkpt>
      <trkpt lat="44.63617" lon="5.85114">
        <ele>1195.266731</ele>
        <time>2025-07-10T07:11:39.000Z</time>
      </trkpt>
      <trkpt lat="44.63619" lon="5.85114">
        <ele>1195.390933</ele>
        <time>2025-07-10T07:11:40.000Z</time>
      </trkpt>
      <trkpt lat="44.63621" lon="5.85114">
        <ele>1195.538602</ele>
        <time>2025-07-10T07:11:41.000Z</time>
      </trkpt>
      <trkpt lat="44.63622" lon="5.85114">
        <ele>1195.677959</ele>
        <time>2025-07-10T07:11:42.000Z</time>
      </trkpt>
      <trkpt lat="44.63624" lon="5.85114">
        <ele>1195.80106</ele>
        <time>2025-07-10T07:11:43.000Z</time>
      </trkpt>
      <trkpt lat="44.63625" lon="5.85114">
        <ele>1195.92416</ele>
        <time>2025-07-10T07:11:44.000Z</time>
      </trkpt>
      <trkpt lat="44.63627" lon="5.85114">
        <ele>1196.031364</ele>
        <time>2025-07-10T07:11:45.000Z</time>
      </trkpt>
      <trkpt lat="44.63628" lon="5.85113">
        <ele>1196.138091</ele>
        <time>2025-07-10T07:11:46.000Z</time>
      </trkpt>
      <trkpt lat="44.63629" lon="5.85114">
        <ele>1196.253004</ele>
        <time>2025-07-10T07:11:47.000Z</time>
      </trkpt>
      <trkpt lat="44.6363" lon="5.85114">
        <ele>1196.33712</ele>
        <time>2025-07-10T07:11:48.000Z</time>
      </trkpt>
      <trkpt lat="44.63633" lon="5.85114">
        <ele>1196.536859</ele>
        <time>2025-07-10T07:12:55.000Z</time>
      </trkpt>
      <trkpt lat="44.63634" lon="5.85114">
        <ele>1196.662201</ele>
        <time>2025-07-10T07:12:56.000Z</time>
      </trkpt>
      <trkpt lat="44.63636" lon="5.85114">
        <ele>1196.787123</ele>
        <time>2025-07-10T07:12:57.000Z</time>
      </trkpt>
      <trkpt lat="44.63638" lon="5.85114">
        <ele>1196.936861</ele>
        <time>2025-07-10T07:12:58.000Z</time>
      </trkpt>
      <trkpt lat="44.6364" lon="5.85114">
        <ele>1197.103658</ele>
        <time>2025-07-10T07:12:59.000Z</time>
      </trkpt>
      <trkpt lat="44.63641" lon="5.85114">
        <ele>1197.253513</ele>
        <time>2025-07-10T07:13:00.000Z</time>
      </trkpt>
      <trkpt lat="44.63643" lon="5.85114">
        <ele>1197.403251</ele>
        <time>2025-07-10T07:13:01.000Z</time>
      </trkpt>
      <trkpt lat="44.63645" lon="5.85113">
        <ele>1197.570047</ele>
        <time>2025-07-10T07:13:02.000Z</time>
      </trkpt>
      <trkpt lat="44.63647" lon="5.85113">
        <ele>1197.730852</ele>
        <time>2025-07-10T07:13:03.000Z</time>
      </trkpt>
      <trkpt lat="44.63649" lon="5.85112">
        <ele>1197.89425</ele>
        <time>2025-07-10T07:13:04.000Z</time>
      </trkpt>
      <trkpt lat="44.63651" lon="5.85112">
        <ele>1198.064374</ele>
        <time>2025-07-10T07:13:05.000Z</time>
      </trkpt>
      <trkpt lat="44.63653" lon="5.85111">
        <ele>1198.21701</ele>
        <time>2025-07-10T07:13:06.000Z</time>
      </trkpt>
      <trkpt lat="44.63655" lon="5.8511">
        <ele>1198.370902</ele>
        <time>2025-07-10T07:13:07.000Z</time>
      </trkpt>
      <trkpt lat="44.63656" lon="5.8511">
        <ele>1198.523538</ele>
        <time>2025-07-10T07:13:08.000Z</time>
      </trkpt>
      <trkpt lat="44.63658" lon="5.85109">
        <ele>1198.669349</ele>
        <time>2025-07-10T07:13:09.000Z</time>
      </trkpt>
      <trkpt lat="44.6366" lon="5.85109">
        <ele>1198.81516</ele>
        <time>2025-07-10T07:13:10.000Z</time>
      </trkpt>
      <trkpt lat="44.63662" lon="5.85108">
        <ele>1198.969053</ele>
        <time>2025-07-10T07:13:11.000Z</time>
      </trkpt>
      <trkpt lat="44.63663" lon="5.85107">
        <ele>1199.124418</ele>
        <time>2025-07-10T07:13:12.000Z</time>
      </trkpt>
      <trkpt lat="44.63665" lon="5.85107">
        <ele>1199.273556</ele>
        <time>2025-07-10T07:13:13.000Z</time>
      </trkpt>
      <trkpt lat="44.63667" lon="5.85107">
        <ele>1199.439932</ele>
        <time>2025-07-10T07:13:14.000Z</time>
      </trkpt>
      <trkpt lat="44.63669" lon="5.85106">
        <ele>1199.581846</ele>
        <time>2025-07-10T07:13:15.000Z</time>
      </trkpt>
      <trkpt lat="44.6367" lon="5.85106">
        <ele>1199.718197</ele>
        <time>2025-07-10T07:13:16.000Z</time>
      </trkpt>
      <trkpt lat="44.63672" lon="5.85105">
        <ele>1199.857599</ele>
        <time>2025-07-10T07:13:17.000Z</time>
      </trkpt>
      <trkpt lat="44.63673" lon="5.85104">
        <ele>1199.995709</ele>
        <time>2025-07-10T07:13:18.000Z</time>
      </trkpt>
      <trkpt lat="44.63675" lon="5.85103">
        <ele>1200.139076</ele>
        <time>2025-07-10T07:13:19.000Z</time>
      </trkpt>
      <trkpt lat="44.63677" lon="5.85102">
        <ele>1200.294765</ele>
        <time>2025-07-10T07:13:20.000Z</time>
      </trkpt>
      <trkpt lat="44.63678" lon="5.85101">
        <ele>1200.448074</ele>
        <time>2025-07-10T07:13:21.000Z</time>
      </trkpt>
      <trkpt lat="44.6368" lon="5.851">
        <ele>1200.598943</ele>
        <time>2025-07-10T07:13:22.000Z</time>
      </trkpt>
      <trkpt lat="44.63682" lon="5.85099">
        <ele>1200.7572</ele>
        <time>2025-07-10T07:13:23.000Z</time>
      </trkpt>
      <trkpt lat="44.63683" lon="5.85098">
        <ele>1200.905374</ele>
        <time>2025-07-10T07:13:24.000Z</time>
      </trkpt>
      <trkpt lat="44.63685" lon="5.85097">
        <ele>1201.046123</ele>
        <time>2025-07-10T07:13:25.000Z</time>
      </trkpt>
      <trkpt lat="44.63686" lon="5.85096">
        <ele>1201.191793</ele>
        <time>2025-07-10T07:13:26.000Z</time>
      </trkpt>
      <trkpt lat="44.63688" lon="5.85094">
        <ele>1201.335376</ele>
        <time>2025-07-10T07:13:27.000Z</time>
      </trkpt>
      <trkpt lat="44.6369" lon="5.85093">
        <ele>1201.486245</ele>
        <time>2025-07-10T07:13:28.000Z</time>
      </trkpt>
      <trkpt lat="44.63691" lon="5.85092">
        <ele>1201.643037</ele>
        <time>2025-07-10T07:13:29.000Z</time>
      </trkpt>
      <trkpt lat="44.63693" lon="5.85091">
        <ele>1201.783786</ele>
        <time>2025-07-10T07:13:30.000Z</time>
      </trkpt>
      <trkpt lat="44.63694" lon="5.8509">
        <ele>1201.932923</ele>
        <time>2025-07-10T07:13:31.000Z</time>
      </trkpt>
      <trkpt lat="44.63696" lon="5.85089">
        <ele>1202.072513</ele>
        <time>2025-07-10T07:13:32.000Z</time>
      </trkpt>
      <trkpt lat="44.63697" lon="5.85087">
        <ele>1202.205242</ele>
        <time>2025-07-10T07:13:33.000Z</time>
      </trkpt>
      <trkpt lat="44.63698" lon="5.85086">
        <ele>1202.332746</ele>
        <time>2025-07-10T07:13:34.000Z</time>
      </trkpt>
      <trkpt lat="44.63699" lon="5.85084">
        <ele>1202.466346</ele>
        <time>2025-07-10T07:13:35.000Z</time>
      </trkpt>
      <trkpt lat="44.63701" lon="5.85083">
        <ele>1202.608091</ele>
        <time>2025-07-10T07:13:36.000Z</time>
      </trkpt>
      <trkpt lat="44.63702" lon="5.85081">
        <ele>1202.755812</ele>
        <time>2025-07-10T07:13:37.000Z</time>
      </trkpt>
      <trkpt lat="44.63703" lon="5.85079">
        <ele>1202.912467</ele>
        <time>2025-07-10T07:13:38.000Z</time>
      </trkpt>
      <trkpt lat="44.63705" lon="5.85078">
        <ele>1203.058917</ele>
        <time>2025-07-10T07:13:39.000Z</time>
      </trkpt>
      <trkpt lat="44.63706" lon="5.85076">
        <ele>1203.205366</ele>
        <time>2025-07-10T07:13:40.000Z</time>
      </trkpt>
      <trkpt lat="44.63708" lon="5.85075">
        <ele>1203.362021</ele>
        <time>2025-07-10T07:13:41.000Z</time>
      </trkpt>
      <trkpt lat="44.63709" lon="5.85073">
        <ele>1203.515169</ele>
        <time>2025-07-10T07:13:42.000Z</time>
      </trkpt>
      <trkpt lat="44.63711" lon="5.85071">
        <ele>1203.679252</ele>
        <time>2025-07-10T07:13:43.000Z</time>
      </trkpt>
      <trkpt lat="44.63712" lon="5.8507">
        <ele>1203.846112</ele>
        <time>2025-07-10T07:13:44.000Z</time>
      </trkpt>
      <trkpt lat="44.63714" lon="5.85068">
        <ele>1204.002139</ele>
        <time>2025-07-10T07:13:45.000Z</time>
      </trkpt>
      <trkpt lat="44.63715" lon="5.85066">
        <ele>1204.152251</ele>
        <time>2025-07-10T07:13:46.000Z</time>
      </trkpt>
      <trkpt lat="44.63716" lon="5.85064">
        <ele>1204.307109</ele>
        <time>2025-07-10T07:13:47.000Z</time>
      </trkpt>
      <trkpt lat="44.63718" lon="5.85063">
        <ele>1204.461024</ele>
        <time>2025-07-10T07:13:48.000Z</time>
      </trkpt>
      <trkpt lat="44.63719" lon="5.85061">
        <ele>1204.621327</ele>
        <time>2025-07-10T07:13:49.000Z</time>
      </trkpt>
      <trkpt lat="44.63721" lon="5.85059">
        <ele>1204.774475</ele>
        <time>2025-07-10T07:13:50.000Z</time>
      </trkpt>
      <trkpt lat="44.63722" lon="5.85058">
        <ele>1204.922196</ele>
        <time>2025-07-10T07:13:51.000Z</time>
      </trkpt>
      <trkpt lat="44.63723" lon="5.85056">
        <ele>1205.074011</ele>
        <time>2025-07-10T07:13:52.000Z</time>
      </trkpt>
      <trkpt lat="44.63724" lon="5.85054">
        <ele>1205.214461</ele>
        <time>2025-07-10T07:13:53.000Z</time>
      </trkpt>
      <trkpt lat="44.63725" lon="5.85052">
        <ele>1205.354911</ele>
        <time>2025-07-10T07:13:54.000Z</time>
      </trkpt>
      <trkpt lat="44.63726" lon="5.85051">
        <ele>1205.47564</ele>
        <time>2025-07-10T07:13:55.000Z</time>
      </trkpt>
      <trkpt lat="44.63727" lon="5.85049">
        <ele>1205.61609</ele>
        <time>2025-07-10T07:13:56.000Z</time>
      </trkpt>
      <trkpt lat="44.63729" lon="5.85047">
        <ele>1205.745831</ele>
        <time>2025-07-10T07:13:57.000Z</time>
      </trkpt>
      <trkpt lat="44.6373" lon="5.85046">
        <ele>1205.883436</ele>
        <time>2025-07-10T07:13:58.000Z</time>
      </trkpt>
      <trkpt lat="44.63731" lon="5.85044">
        <ele>1206.009493</ele>
        <time>2025-07-10T07:13:59.000Z</time>
      </trkpt>
      <trkpt lat="44.63732" lon="5.85043">
        <ele>1206.125636</ele>
        <time>2025-07-10T07:14:00.000Z</time>
      </trkpt>
      <trkpt lat="44.63733" lon="5.85041">
        <ele>1206.265526</ele>
        <time>2025-07-10T07:14:01.000Z</time>
      </trkpt>
      <trkpt lat="44.63734" lon="5.85039">
        <ele>1206.405976</ele>
        <time>2025-07-10T07:14:02.000Z</time>
      </trkpt>
      <trkpt lat="44.63735" lon="5.85037">
        <ele>1206.526705</ele>
        <time>2025-07-10T07:14:03.000Z</time>
      </trkpt>
      <trkpt lat="44.63736" lon="5.85036">
        <ele>1206.658399</ele>
        <time>2025-07-10T07:14:04.000Z</time>
      </trkpt>
      <trkpt lat="44.63737" lon="5.85034">
        <ele>1206.814426</ele>
        <time>2025-07-10T07:14:05.000Z</time>
      </trkpt>
      <trkpt lat="44.63738" lon="5.85032">
        <ele>1206.949603</ele>
        <time>2025-07-10T07:14:06.000Z</time>
      </trkpt>
      <trkpt lat="44.63739" lon="5.8503">
        <ele>1207.085617</ele>
        <time>2025-07-10T07:14:07.000Z</time>
      </trkpt>
      <trkpt lat="44.6374" lon="5.85029">
        <ele>1207.207289</ele>
        <time>2025-07-10T07:14:08.000Z</time>
      </trkpt>
      <trkpt lat="44.63741" lon="5.85027">
        <ele>1207.334793</ele>
        <time>2025-07-10T07:14:09.000Z</time>
      </trkpt>
      <trkpt lat="44.63742" lon="5.85026">
        <ele>1207.462297</ele>
        <time>2025-07-10T07:14:10.000Z</time>
      </trkpt>
      <trkpt lat="44.63743" lon="5.85024">
        <ele>1207.587921</ele>
        <time>2025-07-10T07:14:11.000Z</time>
      </trkpt>
      <trkpt lat="44.63744" lon="5.85023">
        <ele>1207.709593</ele>
        <time>2025-07-10T07:14:12.000Z</time>
      </trkpt>
      <trkpt lat="44.63745" lon="5.85021">
        <ele>1207.837097</ele>
        <time>2025-07-10T07:14:13.000Z</time>
      </trkpt>
      <trkpt lat="44.63746" lon="5.8502">
        <ele>1207.954519</ele>
        <time>2025-07-10T07:14:14.000Z</time>
      </trkpt>
      <trkpt lat="44.63747" lon="5.85018">
        <ele>1208.074081</ele>
        <time>2025-07-10T07:14:15.000Z</time>
      </trkpt>
      <trkpt lat="44.63749" lon="5.85017">
        <ele>1208.200123</ele>
        <time>2025-07-10T07:14:16.000Z</time>
      </trkpt>
      <trkpt lat="44.6375" lon="5.85016">
        <ele>1208.327627</ele>
        <time>2025-07-10T07:14:17.000Z</time>
      </trkpt>
      <trkpt lat="44.63751" lon="5.85014">
        <ele>1208.449299</ele>
        <time>2025-07-10T07:14:18.000Z</time>
      </trkpt>
      <trkpt lat="44.63752" lon="5.85013">
        <ele>1208.56262</ele>
        <time>2025-07-10T07:14:19.000Z</time>
      </trkpt>
      <trkpt lat="44.63753" lon="5.85012">
        <ele>1208.682182</ele>
        <time>2025-07-10T07:14:20.000Z</time>
      </trkpt>
      <trkpt lat="44.63754" lon="5.8501">
        <ele>1208.811923</ele>
        <time>2025-07-10T07:14:21.000Z</time>
      </trkpt>
      <trkpt lat="44.63755" lon="5.85009">
        <ele>1208.925245</ele>
        <time>2025-07-10T07:14:22.000Z</time>
      </trkpt>
      <trkpt lat="44.63756" lon="5.85007">
        <ele>1209.052749</ele>
        <time>2025-07-10T07:14:23.000Z</time>
      </trkpt>
      <trkpt lat="44.63757" lon="5.85006">
        <ele>1209.17017</ele>
        <time>2025-07-10T07:14:24.000Z</time>
      </trkpt>
      <trkpt lat="44.63758" lon="5.85004">
        <ele>1209.305279</ele>
        <time>2025-07-10T07:14:25.000Z</time>
      </trkpt>
      <trkpt lat="44.63759" lon="5.85002">
        <ele>1209.430705</ele>
        <time>2025-07-10T07:14:26.000Z</time>
      </trkpt>
      <trkpt lat="44.6376" lon="5.85">
        <ele>1209.570595</ele>
        <time>2025-07-10T07:14:27.000Z</time>
      </trkpt>
      <trkpt lat="44.63761" lon="5.84999">
        <ele>1209.691323</ele>
        <time>2025-07-10T07:14:28.000Z</time>
      </trkpt>
      <trkpt lat="44.63762" lon="5.84997">
        <ele>1209.807466</ele>
        <time>2025-07-10T07:14:29.000Z</time>
      </trkpt>
      <trkpt lat="44.63763" lon="5.84996">
        <ele>1209.923307</ele>
        <time>2025-07-10T07:14:30.000Z</time>
      </trkpt>
      <trkpt lat="44.63764" lon="5.84995">
        <ele>1210.046761</ele>
        <time>2025-07-10T07:14:31.000Z</time>
      </trkpt>
      <trkpt lat="44.63765" lon="5.84993">
        <ele>1210.168433</ele>
        <time>2025-07-10T07:14:32.000Z</time>
      </trkpt>
      <trkpt lat="44.63766" lon="5.84992">
        <ele>1210.285854</ele>
        <time>2025-07-10T07:14:33.000Z</time>
      </trkpt>
      <trkpt lat="44.63767" lon="5.84991">
        <ele>1210.408372</ele>
        <time>2025-07-10T07:14:34.000Z</time>
      </trkpt>
      <trkpt lat="44.63768" lon="5.84989">
        <ele>1210.548297</ele>
        <time>2025-07-10T07:14:35.000Z</time>
      </trkpt>
      <trkpt lat="44.6377" lon="5.84988">
        <ele>1210.678038</ele>
        <time>2025-07-10T07:14:36.000Z</time>
      </trkpt>
      <trkpt lat="44.63771" lon="5.84987">
        <ele>1210.787426</ele>
        <time>2025-07-10T07:14:37.000Z</time>
      </trkpt>
      <trkpt lat="44.63771" lon="5.84985">
        <ele>1210.917649</ele>
        <time>2025-07-10T07:14:38.000Z</time>
      </trkpt>
      <trkpt lat="44.63772" lon="5.84983">
        <ele>1211.033791</ele>
        <time>2025-07-10T07:14:39.000Z</time>
      </trkpt>
      <trkpt lat="44.63773" lon="5.84982">
        <ele>1211.157246</ele>
        <time>2025-07-10T07:14:40.000Z</time>
      </trkpt>
      <trkpt lat="44.63774" lon="5.84981">
        <ele>1211.270567</ele>
        <time>2025-07-10T07:14:41.000Z</time>
      </trkpt>
      <trkpt lat="44.63775" lon="5.84979">
        <ele>1211.393271</ele>
        <time>2025-07-10T07:14:42.000Z</time>
      </trkpt>
      <trkpt lat="44.63776" lon="5.84978">
        <ele>1211.522386</ele>
        <time>2025-07-10T07:14:43.000Z</time>
      </trkpt>
      <trkpt lat="44.63777" lon="5.84976">
        <ele>1211.671427</ele>
        <time>2025-07-10T07:14:44.000Z</time>
      </trkpt>
      <trkpt lat="44.63779" lon="5.84974">
        <ele>1211.825288</ele>
        <time>2025-07-10T07:14:45.000Z</time>
      </trkpt>
      <trkpt lat="44.6378" lon="5.84972">
        <ele>1211.97131</ele>
        <time>2025-07-10T07:14:46.000Z</time>
      </trkpt>
      <trkpt lat="44.63781" lon="5.84971">
        <ele>1212.108988</ele>
        <time>2025-07-10T07:14:47.000Z</time>
      </trkpt>
      <trkpt lat="44.63782" lon="5.84969">
        <ele>1212.264396</ele>
        <time>2025-07-10T07:14:48.000Z</time>
      </trkpt>
      <trkpt lat="44.63784" lon="5.84968">
        <ele>1212.408976</ele>
        <time>2025-07-10T07:14:49.000Z</time>
      </trkpt>
      <trkpt lat="44.63785" lon="5.84967">
        <ele>1212.53358</ele>
        <time>2025-07-10T07:14:50.000Z</time>
      </trkpt>
      <trkpt lat="44.63786" lon="5.84965">
        <ele>1212.671258</ele>
        <time>2025-07-10T07:14:51.000Z</time>
      </trkpt>
      <trkpt lat="44.63787" lon="5.84964">
        <ele>1212.806561</ele>
        <time>2025-07-10T07:14:52.000Z</time>
      </trkpt>
      <trkpt lat="44.63788" lon="5.84962">
        <ele>1212.946312</ele>
        <time>2025-07-10T07:14:53.000Z</time>
      </trkpt>
      <trkpt lat="44.63789" lon="5.84961">
        <ele>1213.083989</ele>
        <time>2025-07-10T07:14:54.000Z</time>
      </trkpt>
      <trkpt lat="44.63791" lon="5.84959">
        <ele>1213.235671</ele>
        <time>2025-07-10T07:14:55.000Z</time>
      </trkpt>
      <trkpt lat="44.63792" lon="5.84958">
        <ele>1213.372972</ele>
        <time>2025-07-10T07:14:56.000Z</time>
      </trkpt>
      <trkpt lat="44.63793" lon="5.84957">
        <ele>1213.480933</ele>
        <time>2025-07-10T07:14:57.000Z</time>
      </trkpt>
      <trkpt lat="44.63794" lon="5.84956">
        <ele>1213.597013</ele>
        <time>2025-07-10T07:14:58.000Z</time>
      </trkpt>
      <trkpt lat="44.63795" lon="5.84955">
        <ele>1213.727839</ele>
        <time>2025-07-10T07:14:59.000Z</time>
      </trkpt>
      <trkpt lat="44.63796" lon="5.84954">
        <ele>1213.855768</ele>
        <time>2025-07-10T07:15:00.000Z</time>
      </trkpt>
      <trkpt lat="44.63798" lon="5.84953">
        <ele>1213.983697</ele>
        <time>2025-07-10T07:15:01.000Z</time>
      </trkpt>
      <trkpt lat="44.63799" lon="5.84952">
        <ele>1214.117653</ele>
        <time>2025-07-10T07:15:02.000Z</time>
      </trkpt>
      <trkpt lat="44.638" lon="5.8495">
        <ele>1214.254954</ele>
        <time>2025-07-10T07:15:03.000Z</time>
      </trkpt>
      <trkpt lat="44.63801" lon="5.84949">
        <ele>1214.381429</ele>
        <time>2025-07-10T07:15:04.000Z</time>
      </trkpt>
      <trkpt lat="44.63803" lon="5.84948">
        <ele>1214.504584</ele>
        <time>2025-07-10T07:15:05.000Z</time>
      </trkpt>
      <trkpt lat="44.63804" lon="5.84947">
        <ele>1214.646175</ele>
        <time>2025-07-10T07:15:06.000Z</time>
      </trkpt>
      <trkpt lat="44.63805" lon="5.84946">
        <ele>1214.776188</ele>
        <time>2025-07-10T07:15:07.000Z</time>
      </trkpt>
      <trkpt lat="44.63807" lon="5.84945">
        <ele>1214.928555</ele>
        <time>2025-07-10T07:15:08.000Z</time>
      </trkpt>
      <trkpt lat="44.63808" lon="5.84944">
        <ele>1215.077913</ele>
        <time>2025-07-10T07:15:09.000Z</time>
      </trkpt>
      <trkpt lat="44.63809" lon="5.84943">
        <ele>1215.204388</ele>
        <time>2025-07-10T07:15:10.000Z</time>
      </trkpt>
      <trkpt lat="44.63811" lon="5.84942">
        <ele>1215.330863</ele>
        <time>2025-07-10T07:15:11.000Z</time>
      </trkpt>
      <trkpt lat="44.63812" lon="5.84941">
        <ele>1215.469497</ele>
        <time>2025-07-10T07:15:12.000Z</time>
      </trkpt>
      <trkpt lat="44.63814" lon="5.8494">
        <ele>1215.613476</ele>
        <time>2025-07-10T07:15:13.000Z</time>
      </trkpt>
      <trkpt lat="44.63815" lon="5.84939">
        <ele>1215.753001</ele>
        <time>2025-07-10T07:15:14.000Z</time>
      </trkpt>
      <trkpt lat="44.63816" lon="5.84938">
        <ele>1215.873791</ele>
        <time>2025-07-10T07:15:15.000Z</time>
      </trkpt>
      <trkpt lat="44.63818" lon="5.84938">
        <ele>1215.996686</ele>
        <time>2025-07-10T07:15:16.000Z</time>
      </trkpt>
      <trkpt lat="44.63819" lon="5.84937">
        <ele>1216.132775</ele>
        <time>2025-07-10T07:15:17.000Z</time>
      </trkpt>
      <trkpt lat="44.63821" lon="5.84937">
        <ele>1216.258891</ele>
        <time>2025-07-10T07:15:18.000Z</time>
      </trkpt>
      <trkpt lat="44.63822" lon="5.84936">
        <ele>1216.377871</ele>
        <time>2025-07-10T07:15:19.000Z</time>
      </trkpt>
      <trkpt lat="44.63823" lon="5.84936">
        <ele>1216.515545</ele>
        <time>2025-07-10T07:15:20.000Z</time>
      </trkpt>
      <trkpt lat="44.63825" lon="5.84935">
        <ele>1216.660238</ele>
        <time>2025-07-10T07:15:21.000Z</time>
      </trkpt>
      <trkpt lat="44.63827" lon="5.84935">
        <ele>1216.802732</ele>
        <time>2025-07-10T07:15:22.000Z</time>
      </trkpt>
      <trkpt lat="44.63828" lon="5.84935">
        <ele>1216.92648</ele>
        <time>2025-07-10T07:15:23.000Z</time>
      </trkpt>
      <trkpt lat="44.63829" lon="5.84935">
        <ele>1217.059044</ele>
        <time>2025-07-10T07:15:24.000Z</time>
      </trkpt>
      <trkpt lat="44.63831" lon="5.84934">
        <ele>1217.212366</ele>
        <time>2025-07-10T07:15:25.000Z</time>
      </trkpt>
      <trkpt lat="44.63833" lon="5.84933">
        <ele>1217.343542</ele>
        <time>2025-07-10T07:15:26.000Z</time>
      </trkpt>
      <trkpt lat="44.63834" lon="5.84933">
        <ele>1217.479631</ele>
        <time>2025-07-10T07:15:27.000Z</time>
      </trkpt>
      <trkpt lat="44.63836" lon="5.84933">
        <ele>1217.613381</ele>
        <time>2025-07-10T07:15:28.000Z</time>
      </trkpt>
      <trkpt lat="44.63837" lon="5.84932">
        <ele>1217.730859</ele>
        <time>2025-07-10T07:15:29.000Z</time>
      </trkpt>
      <trkpt lat="44.63838" lon="5.84932">
        <ele>1217.858375</ele>
        <time>2025-07-10T07:15:30.000Z</time>
      </trkpt>
      <trkpt lat="44.6384" lon="5.84932">
        <ele>1217.999757</ele>
        <time>2025-07-10T07:15:31.000Z</time>
      </trkpt>
      <trkpt lat="44.63842" lon="5.84932">
        <ele>1218.159152</ele>
        <time>2025-07-10T07:15:32.000Z</time>
      </trkpt>
      <trkpt lat="44.63843" lon="5.84932">
        <ele>1218.300952</ele>
        <time>2025-07-10T07:15:33.000Z</time>
      </trkpt>
      <trkpt lat="44.63845" lon="5.84932">
        <ele>1218.43573</ele>
        <time>2025-07-10T07:15:34.000Z</time>
      </trkpt>
      <trkpt lat="44.63846" lon="5.84933">
        <ele>1218.56874</ele>
        <time>2025-07-10T07:15:35.000Z</time>
      </trkpt>
      <trkpt lat="44.63848" lon="5.84933">
        <ele>1218.710123</ele>
        <time>2025-07-10T07:15:36.000Z</time>
      </trkpt>
      <trkpt lat="44.63849" lon="5.84933">
        <ele>1218.851366</ele>
        <time>2025-07-10T07:15:37.000Z</time>
      </trkpt>
      <trkpt lat="44.63851" lon="5.84933">
        <ele>1218.984376</ele>
        <time>2025-07-10T07:15:38.000Z</time>
      </trkpt>
      <trkpt lat="44.63853" lon="5.84933">
        <ele>1219.14377</ele>
        <time>2025-07-10T07:15:39.000Z</time>
      </trkpt>
      <trkpt lat="44.63854" lon="5.84933">
        <ele>1219.295929</ele>
        <time>2025-07-10T07:15:40.000Z</time>
      </trkpt>
      <trkpt lat="44.63856" lon="5.84934">
        <ele>1219.440622</ele>
        <time>2025-07-10T07:15:41.000Z</time>
      </trkpt>
      <trkpt lat="44.63858" lon="5.84934">
        <ele>1219.582423</ele>
        <time>2025-07-10T07:15:42.000Z</time>
      </trkpt>
      <trkpt lat="44.63859" lon="5.84934">
        <ele>1219.725883</ele>
        <time>2025-07-10T07:15:43.000Z</time>
      </trkpt>
      <trkpt lat="44.63861" lon="5.84936">
        <ele>1219.885981</ele>
        <time>2025-07-10T07:15:44.000Z</time>
      </trkpt>
      <trkpt lat="44.63862" lon="5.84936">
        <ele>1220.006771</ele>
        <time>2025-07-10T07:15:45.000Z</time>
      </trkpt>
      <trkpt lat="44.63864" lon="5.84936">
        <ele>1220.130995</ele>
        <time>2025-07-10T07:15:46.000Z</time>
      </trkpt>
      <trkpt lat="44.63865" lon="5.84937">
        <ele>1220.264745</ele>
        <time>2025-07-10T07:15:47.000Z</time>
      </trkpt>
      <trkpt lat="44.63867" lon="5.84938">
        <ele>1220.408723</ele>
        <time>2025-07-10T07:15:48.000Z</time>
      </trkpt>
      <trkpt lat="44.63868" lon="5.84938">
        <ele>1220.507639</ele>
        <time>2025-07-10T07:15:49.000Z</time>
      </trkpt>
      <trkpt lat="44.63869" lon="5.84938">
        <ele>1220.64944</ele>
        <time>2025-07-10T07:15:50.000Z</time>
      </trkpt>
      <trkpt lat="44.63871" lon="5.84938">
        <ele>1220.799642</ele>
        <time>2025-07-10T07:15:51.000Z</time>
      </trkpt>
      <trkpt lat="44.63873" lon="5.84939">
        <ele>1220.950891</ele>
        <time>2025-07-10T07:15:52.000Z</time>
      </trkpt>
      <trkpt lat="44.63874" lon="5.84939">
        <ele>1221.084304</ele>
        <time>2025-07-10T07:15:53.000Z</time>
      </trkpt>
      <trkpt lat="44.63875" lon="5.8494">
        <ele>1221.21548</ele>
        <time>2025-07-10T07:15:54.000Z</time>
      </trkpt>
      <trkpt lat="44.63877" lon="5.84941">
        <ele>1221.368802</ele>
        <time>2025-07-10T07:15:55.000Z</time>
      </trkpt>
      <trkpt lat="44.63879" lon="5.84941">
        <ele>1221.504891</ele>
        <time>2025-07-10T07:15:56.000Z</time>
      </trkpt>
      <trkpt lat="44.6388" lon="5.84942">
        <ele>1221.64098</ele>
        <time>2025-07-10T07:15:57.000Z</time>
      </trkpt>
      <trkpt lat="44.63882" lon="5.84942">
        <ele>1221.795711</ele>
        <time>2025-07-10T07:15:58.000Z</time>
      </trkpt>
      <trkpt lat="44.63883" lon="5.84943">
        <ele>1221.926537</ele>
        <time>2025-07-10T07:15:59.000Z</time>
      </trkpt>
      <trkpt lat="44.63885" lon="5.84944">
        <ele>1222.064211</ele>
        <time>2025-07-10T07:16:00.000Z</time>
      </trkpt>
      <trkpt lat="44.63886" lon="5.84944">
        <ele>1222.191727</ele>
        <time>2025-07-10T07:16:01.000Z</time>
      </trkpt>
      <trkpt lat="44.63888" lon="5.84945">
        <ele>1222.337911</ele>
        <time>2025-07-10T07:16:02.000Z</time>
      </trkpt>
      <trkpt lat="44.63889" lon="5.84945">
        <ele>1222.490071</ele>
        <time>2025-07-10T07:16:03.000Z</time>
      </trkpt>
      <trkpt lat="44.63891" lon="5.84946">
        <ele>1222.617999</ele>
        <time>2025-07-10T07:16:04.000Z</time>
      </trkpt>
      <trkpt lat="44.63892" lon="5.84947">
        <ele>1222.745928</ele>
        <time>2025-07-10T07:16:05.000Z</time>
      </trkpt>
      <trkpt lat="44.63893" lon="5.84948">
        <ele>1222.871207</ele>
        <time>2025-07-10T07:16:06.000Z</time>
      </trkpt>
      <trkpt lat="44.63895" lon="5.84949">
        <ele>1223.002384</ele>
        <time>2025-07-10T07:16:07.000Z</time>
      </trkpt>
      <trkpt lat="44.63896" lon="5.84949">
        <ele>1223.141908</ele>
        <time>2025-07-10T07:16:08.000Z</time>
      </trkpt>
      <trkpt lat="44.63898" lon="5.8495">
        <ele>1223.298288</ele>
        <time>2025-07-10T07:16:09.000Z</time>
      </trkpt>
      <trkpt lat="44.63899" lon="5.84951">
        <ele>1223.439917</ele>
        <time>2025-07-10T07:16:10.000Z</time>
      </trkpt>
      <trkpt lat="44.63901" lon="5.84951">
        <ele>1223.576006</ele>
        <time>2025-07-10T07:16:11.000Z</time>
      </trkpt>
      <trkpt lat="44.63902" lon="5.84952">
        <ele>1223.705213</ele>
        <time>2025-07-10T07:16:12.000Z</time>
      </trkpt>
      <trkpt lat="44.63903" lon="5.84953">
        <ele>1223.822459</ele>
        <time>2025-07-10T07:16:13.000Z</time>
      </trkpt>
      <trkpt lat="44.63905" lon="5.84953">
        <ele>1223.967152</ele>
        <time>2025-07-10T07:16:14.000Z</time>
      </trkpt>
      <trkpt lat="44.63907" lon="5.84954">
        <ele>1224.11371</ele>
        <time>2025-07-10T07:16:15.000Z</time>
      </trkpt>
      <trkpt lat="44.63908" lon="5.84955">
        <ele>1224.260268</ele>
        <time>2025-07-10T07:16:16.000Z</time>
      </trkpt>
      <trkpt lat="44.6391" lon="5.84956">
        <ele>1224.418529</ele>
        <time>2025-07-10T07:16:17.000Z</time>
      </trkpt>
      <trkpt lat="44.63911" lon="5.84957">
        <ele>1224.566457</ele>
        <time>2025-07-10T07:16:18.000Z</time>
      </trkpt>
      <trkpt lat="44.63913" lon="5.84957">
        <ele>1224.709918</ele>
        <time>2025-07-10T07:16:19.000Z</time>
      </trkpt>
      <trkpt lat="44.63915" lon="5.84958">
        <ele>1224.859833</ele>
        <time>2025-07-10T07:16:20.000Z</time>
      </trkpt>
      <trkpt lat="44.63916" lon="5.84959">
        <ele>1225.007762</ele>
        <time>2025-07-10T07:16:21.000Z</time>
      </trkpt>
      <trkpt lat="44.63918" lon="5.84959">
        <ele>1225.145436</ele>
        <time>2025-07-10T07:16:22.000Z</time>
      </trkpt>
      <trkpt lat="44.63919" lon="5.8496">
        <ele>1225.28134</ele>
        <time>2025-07-10T07:16:23.000Z</time>
      </trkpt>
      <trkpt lat="44.6392" lon="5.84961">
        <ele>1225.417243</ele>
        <time>2025-07-10T07:16:24.000Z</time>
      </trkpt>
      <trkpt lat="44.63922" lon="5.84962">
        <ele>1225.555877</ele>
        <time>2025-07-10T07:16:25.000Z</time>
      </trkpt>
      <trkpt lat="44.63923" lon="5.84963">
        <ele>1225.681156</ele>
        <time>2025-07-10T07:16:26.000Z</time>
      </trkpt>
      <trkpt lat="44.63925" lon="5.84963">
        <ele>1225.817245</ele>
        <time>2025-07-10T07:16:27.000Z</time>
      </trkpt>
      <trkpt lat="44.63926" lon="5.84964">
        <ele>1225.95492</ele>
        <time>2025-07-10T07:16:28.000Z</time>
      </trkpt>
      <trkpt lat="44.63928" lon="5.84965">
        <ele>1226.086096</ele>
        <time>2025-07-10T07:16:29.000Z</time>
      </trkpt>
      <trkpt lat="44.63929" lon="5.84965">
        <ele>1226.238255</ele>
        <time>2025-07-10T07:16:30.000Z</time>
      </trkpt>
      <trkpt lat="44.63931" lon="5.84965">
        <ele>1226.381715</ele>
        <time>2025-07-10T07:16:31.000Z</time>
      </trkpt>
      <trkpt lat="44.63932" lon="5.84966">
        <ele>1226.510922</ele>
        <time>2025-07-10T07:16:32.000Z</time>
      </trkpt>
      <trkpt lat="44.63934" lon="5.84967">
        <ele>1226.640128</ele>
        <time>2025-07-10T07:16:33.000Z</time>
      </trkpt>
      <trkpt lat="44.63935" lon="5.84967">
        <ele>1226.783588</ele>
        <time>2025-07-10T07:16:34.000Z</time>
      </trkpt>
      <trkpt lat="44.63937" lon="5.84967">
        <ele>1226.902568</ele>
        <time>2025-07-10T07:16:35.000Z</time>
      </trkpt>
      <trkpt lat="44.63938" lon="5.84968">
        <ele>1227.033744</ele>
        <time>2025-07-10T07:16:36.000Z</time>
      </trkpt>
      <trkpt lat="44.63939" lon="5.84969">
        <ele>1227.169127</ele>
        <time>2025-07-10T07:16:37.000Z</time>
      </trkpt>
      <trkpt lat="44.63941" lon="5.8497">
        <ele>1227.297428</ele>
        <time>2025-07-10T07:16:38.000Z</time>
      </trkpt>
      <trkpt lat="44.63942" lon="5.84971">
        <ele>1227.423068</ele>
        <time>2025-07-10T07:16:39.000Z</time>
      </trkpt>
      <trkpt lat="44.63943" lon="5.84972">
        <ele>1227.550851</ele>
        <time>2025-07-10T07:16:40.000Z</time>
      </trkpt>
      <trkpt lat="44.63945" lon="5.84972">
        <ele>1227.694439</ele>
        <time>2025-07-10T07:16:41.000Z</time>
      </trkpt>
      <trkpt lat="44.63946" lon="5.84973">
        <ele>1227.822221</ele>
        <time>2025-07-10T07:16:42.000Z</time>
      </trkpt>
      <trkpt lat="44.63948" lon="5.84974">
        <ele>1227.944355</ele>
        <time>2025-07-10T07:16:43.000Z</time>
      </trkpt>
      <trkpt lat="44.63949" lon="5.84974">
        <ele>1228.0747</ele>
        <time>2025-07-10T07:16:44.000Z</time>
      </trkpt>
      <trkpt lat="44.63951" lon="5.84975">
        <ele>1228.216386</ele>
        <time>2025-07-10T07:16:45.000Z</time>
      </trkpt>
      <trkpt lat="44.63953" lon="5.84975">
        <ele>1228.354972</ele>
        <time>2025-07-10T07:16:46.000Z</time>
      </trkpt>
      <trkpt lat="44.63955" lon="5.84976">
        <ele>1228.525778</ele>
        <time>2025-07-10T07:16:47.000Z</time>
      </trkpt>
      <trkpt lat="44.63956" lon="5.84977">
        <ele>1228.659414</ele>
        <time>2025-07-10T07:16:48.000Z</time>
      </trkpt>
      <trkpt lat="44.63957" lon="5.84977">
        <ele>1228.789581</ele>
        <time>2025-07-10T07:16:49.000Z</time>
      </trkpt>
      <trkpt lat="44.63959" lon="5.84978">
        <ele>1228.93317</ele>
        <time>2025-07-10T07:16:50.000Z</time>
      </trkpt>
      <trkpt lat="44.63961" lon="5.84979">
        <ele>1229.081226</ele>
        <time>2025-07-10T07:16:51.000Z</time>
      </trkpt>
      <trkpt lat="44.63962" lon="5.8498">
        <ele>1229.234823</ele>
        <time>2025-07-10T07:16:52.000Z</time>
      </trkpt>
      <trkpt lat="44.63964" lon="5.84981">
        <ele>1229.392734</ele>
        <time>2025-07-10T07:16:53.000Z</time>
      </trkpt>
      <trkpt lat="44.63966" lon="5.84982">
        <ele>1229.550645</ele>
        <time>2025-07-10T07:16:54.000Z</time>
      </trkpt>
      <trkpt lat="44.63968" lon="5.84982">
        <ele>1229.694234</ele>
        <time>2025-07-10T07:16:55.000Z</time>
      </trkpt>
      <trkpt lat="44.63969" lon="5.84983">
        <ele>1229.814226</ele>
        <time>2025-07-10T07:16:56.000Z</time>
      </trkpt>
      <trkpt lat="44.6397" lon="5.84984">
        <ele>1229.934218</ele>
        <time>2025-07-10T07:16:57.000Z</time>
      </trkpt>
      <trkpt lat="44.63971" lon="5.84985">
        <ele>1230.04991</ele>
        <time>2025-07-10T07:16:58.000Z</time>
      </trkpt>
      <trkpt lat="44.63973" lon="5.84985">
        <ele>1230.181773</ele>
        <time>2025-07-10T07:16:59.000Z</time>
      </trkpt>
      <trkpt lat="44.63975" lon="5.84986">
        <ele>1230.331553</ele>
        <time>2025-07-10T07:17:00.000Z</time>
      </trkpt>
      <trkpt lat="44.63976" lon="5.84986">
        <ele>1230.470138</ele>
        <time>2025-07-10T07:17:01.000Z</time>
      </trkpt>
      <trkpt lat="44.63977" lon="5.84987">
        <ele>1230.585143</ele>
        <time>2025-07-10T07:17:02.000Z</time>
      </trkpt>
      <trkpt lat="44.63979" lon="5.84988">
        <ele>1230.694997</ele>
        <time>2025-07-10T07:17:03.000Z</time>
      </trkpt>
      <trkpt lat="44.6398" lon="5.84989">
        <ele>1230.828633</ele>
        <time>2025-07-10T07:17:04.000Z</time>
      </trkpt>
      <trkpt lat="44.63982" lon="5.84989">
        <ele>1230.978413</ele>
        <time>2025-07-10T07:17:05.000Z</time>
      </trkpt>
      <trkpt lat="44.63983" lon="5.8499">
        <ele>1231.126469</ele>
        <time>2025-07-10T07:17:06.000Z</time>
      </trkpt>
      <trkpt lat="44.63985" lon="5.84991">
        <ele>1231.269523</ele>
        <time>2025-07-10T07:17:07.000Z</time>
      </trkpt>
      <trkpt lat="44.63986" lon="5.84992">
        <ele>1231.407424</ele>
        <time>2025-07-10T07:17:08.000Z</time>
      </trkpt>
      <trkpt lat="44.63988" lon="5.84993">
        <ele>1231.543076</ele>
        <time>2025-07-10T07:17:09.000Z</time>
      </trkpt>
      <trkpt lat="44.63989" lon="5.84994">
        <ele>1231.647797</ele>
        <time>2025-07-10T07:17:10.000Z</time>
      </trkpt>
      <trkpt lat="44.6399" lon="5.84995">
        <ele>1231.755489</ele>
        <time>2025-07-10T07:17:11.000Z</time>
      </trkpt>
      <trkpt lat="44.63992" lon="5.84995">
        <ele>1231.897174</ele>
        <time>2025-07-10T07:17:12.000Z</time>
      </trkpt>
      <trkpt lat="44.63993" lon="5.84996">
        <ele>1232.03576</ele>
        <time>2025-07-10T07:17:13.000Z</time>
      </trkpt>
      <trkpt lat="44.63995" lon="5.84996">
        <ele>1232.153467</ele>
        <time>2025-07-10T07:17:14.000Z</time>
      </trkpt>
      <trkpt lat="44.63996" lon="5.84997">
        <ele>1232.287103</ele>
        <time>2025-07-10T07:17:15.000Z</time>
      </trkpt>
      <trkpt lat="44.63998" lon="5.84998">
        <ele>1232.427118</ele>
        <time>2025-07-10T07:17:16.000Z</time>
      </trkpt>
      <trkpt lat="44.64" lon="5.84998">
        <ele>1232.575318</ele>
        <time>2025-07-10T07:17:17.000Z</time>
      </trkpt>
      <trkpt lat="44.64001" lon="5.84999">
        <ele>1232.708954</ele>
        <time>2025-07-10T07:17:18.000Z</time>
      </trkpt>
      <trkpt lat="44.64003" lon="5.85">
        <ele>1232.844606</ele>
        <time>2025-07-10T07:17:19.000Z</time>
      </trkpt>
      <trkpt lat="44.64004" lon="5.85001">
        <ele>1232.980258</ele>
        <time>2025-07-10T07:17:20.000Z</time>
      </trkpt>
      <trkpt lat="44.64006" lon="5.85001">
        <ele>1233.113894</ele>
        <time>2025-07-10T07:17:21.000Z</time>
      </trkpt>
      <trkpt lat="44.64007" lon="5.85002">
        <ele>1233.237647</ele>
        <time>2025-07-10T07:17:22.000Z</time>
      </trkpt>
      <trkpt lat="44.64008" lon="5.85003">
        <ele>1233.360176</ele>
        <time>2025-07-10T07:17:23.000Z</time>
      </trkpt>
      <trkpt lat="44.6401" lon="5.85004">
        <ele>1233.500548</ele>
        <time>2025-07-10T07:17:24.000Z</time>
      </trkpt>
      <trkpt lat="44.64011" lon="5.85005">
        <ele>1233.611727</ele>
        <time>2025-07-10T07:17:25.000Z</time>
      </trkpt>
      <trkpt lat="44.64012" lon="5.85006">
        <ele>1233.724025</ele>
        <time>2025-07-10T07:17:26.000Z</time>
      </trkpt>
      <trkpt lat="44.64013" lon="5.85006">
        <ele>1233.85213</ele>
        <time>2025-07-10T07:17:27.000Z</time>
      </trkpt>
      <trkpt lat="44.64015" lon="5.85006">
        <ele>1233.996369</ele>
        <time>2025-07-10T07:17:28.000Z</time>
      </trkpt>
      <trkpt lat="44.64017" lon="5.85007">
        <ele>1234.134955</ele>
        <time>2025-07-10T07:17:29.000Z</time>
      </trkpt>
      <trkpt lat="44.64018" lon="5.85008">
        <ele>1234.260595</ele>
        <time>2025-07-10T07:17:30.000Z</time>
      </trkpt>
      <trkpt lat="44.64019" lon="5.85008">
        <ele>1234.380587</ele>
        <time>2025-07-10T07:17:31.000Z</time>
      </trkpt>
      <trkpt lat="44.64021" lon="5.85009">
        <ele>1234.526324</ele>
        <time>2025-07-10T07:17:32.000Z</time>
      </trkpt>
      <trkpt lat="44.64023" lon="5.85009">
        <ele>1234.674524</ele>
        <time>2025-07-10T07:17:33.000Z</time>
      </trkpt>
      <trkpt lat="44.64024" lon="5.8501">
        <ele>1234.80816</ele>
        <time>2025-07-10T07:17:34.000Z</time>
      </trkpt>
      <trkpt lat="44.64026" lon="5.85011">
        <ele>1234.935942</ele>
        <time>2025-07-10T07:17:35.000Z</time>
      </trkpt>
      <trkpt lat="44.64027" lon="5.85012">
        <ele>1235.045796</ele>
        <time>2025-07-10T07:17:36.000Z</time>
      </trkpt>
      <trkpt lat="44.64028" lon="5.85012">
        <ele>1235.168325</ele>
        <time>2025-07-10T07:17:37.000Z</time>
      </trkpt>
      <trkpt lat="44.6403" lon="5.85013">
        <ele>1235.288317</ele>
        <time>2025-07-10T07:17:38.000Z</time>
      </trkpt>
      <trkpt lat="44.64031" lon="5.85014">
        <ele>1235.41207</ele>
        <time>2025-07-10T07:17:39.000Z</time>
      </trkpt>
      <trkpt lat="44.64032" lon="5.85015">
        <ele>1235.521924</ele>
        <time>2025-07-10T07:17:40.000Z</time>
      </trkpt>
      <trkpt lat="44.64033" lon="5.85015">
        <ele>1235.641915</ele>
        <time>2025-07-10T07:17:41.000Z</time>
      </trkpt>
      <trkpt lat="44.64035" lon="5.85016">
        <ele>1235.793496</ele>
        <time>2025-07-10T07:17:42.000Z</time>
      </trkpt>
      <trkpt lat="44.64037" lon="5.85017">
        <ele>1235.923663</ele>
        <time>2025-07-10T07:17:43.000Z</time>
      </trkpt>
      <trkpt lat="44.64038" lon="5.85018">
        <ele>1236.051445</ele>
        <time>2025-07-10T07:17:44.000Z</time>
      </trkpt>
      <trkpt lat="44.64039" lon="5.85018">
        <ele>1236.175198</ele>
        <time>2025-07-10T07:17:45.000Z</time>
      </trkpt>
      <trkpt lat="44.64041" lon="5.85019">
        <ele>1236.313099</ele>
        <time>2025-07-10T07:17:46.000Z</time>
      </trkpt>
      <trkpt lat="44.64042" lon="5.8502">
        <ele>1236.453471</ele>
        <time>2025-07-10T07:17:47.000Z</time>
      </trkpt>
      <trkpt lat="44.64044" lon="5.85021">
        <ele>1236.591372</ele>
        <time>2025-07-10T07:17:48.000Z</time>
      </trkpt>
      <trkpt lat="44.64045" lon="5.85022">
        <ele>1236.715125</ele>
        <time>2025-07-10T07:17:49.000Z</time>
      </trkpt>
      <trkpt lat="44.64047" lon="5.85022">
        <ele>1236.846989</ele>
        <time>2025-07-10T07:17:50.000Z</time>
      </trkpt>
      <trkpt lat="44.64048" lon="5.85023">
        <ele>1236.966981</ele>
        <time>2025-07-10T07:17:51.000Z</time>
      </trkpt>
      <trkpt lat="44.64049" lon="5.85024">
        <ele>1237.092284</ele>
        <time>2025-07-10T07:17:52.000Z</time>
      </trkpt>
      <trkpt lat="44.64051" lon="5.85025">
        <ele>1237.225066</ele>
        <time>2025-07-10T07:17:53.000Z</time>
      </trkpt>
      <trkpt lat="44.64052" lon="5.85026">
        <ele>1237.36812</ele>
        <time>2025-07-10T07:17:54.000Z</time>
      </trkpt>
      <trkpt lat="44.64054" lon="5.85027">
        <ele>1237.496421</ele>
        <time>2025-07-10T07:17:55.000Z</time>
      </trkpt>
      <trkpt lat="44.64055" lon="5.85029">
        <ele>1237.632035</ele>
        <time>2025-07-10T07:17:56.000Z</time>
      </trkpt>
      <trkpt lat="44.64056" lon="5.85029">
        <ele>1237.762202</ele>
        <time>2025-07-10T07:17:57.000Z</time>
      </trkpt>
      <trkpt lat="44.64058" lon="5.8503">
        <ele>1237.892369</ele>
        <time>2025-07-10T07:17:58.000Z</time>
      </trkpt>
      <trkpt lat="44.64059" lon="5.85031">
        <ele>1238.013505</ele>
        <time>2025-07-10T07:17:59.000Z</time>
      </trkpt>
      <trkpt lat="44.6406" lon="5.85033">
        <ele>1238.138028</ele>
        <time>2025-07-10T07:18:00.000Z</time>
      </trkpt>
      <trkpt lat="44.64061" lon="5.85034">
        <ele>1238.259164</ele>
        <time>2025-07-10T07:18:01.000Z</time>
      </trkpt>
      <trkpt lat="44.64063" lon="5.85035">
        <ele>1238.405098</ele>
        <time>2025-07-10T07:18:02.000Z</time>
      </trkpt>
      <trkpt lat="44.64064" lon="5.85036">
        <ele>1238.550376</ele>
        <time>2025-07-10T07:18:03.000Z</time>
      </trkpt>
      <trkpt lat="44.64066" lon="5.85038">
        <ele>1238.68188</ele>
        <time>2025-07-10T07:18:04.000Z</time>
      </trkpt>
      <trkpt lat="44.64067" lon="5.85039">
        <ele>1238.806404</ele>
        <time>2025-07-10T07:18:05.000Z</time>
      </trkpt>
      <trkpt lat="44.64068" lon="5.8504">
        <ele>1238.927923</ele>
        <time>2025-07-10T07:18:06.000Z</time>
      </trkpt>
      <trkpt lat="44.64069" lon="5.85041">
        <ele>1239.045879</ele>
        <time>2025-07-10T07:18:07.000Z</time>
      </trkpt>
      <trkpt lat="44.6407" lon="5.85042">
        <ele>1239.18078</ele>
        <time>2025-07-10T07:18:08.000Z</time>
      </trkpt>
      <trkpt lat="44.64072" lon="5.85044">
        <ele>1239.336435</ele>
        <time>2025-07-10T07:18:09.000Z</time>
      </trkpt>
      <trkpt lat="44.64073" lon="5.85046">
        <ele>1239.465154</ele>
        <time>2025-07-10T07:18:10.000Z</time>
      </trkpt>
      <trkpt lat="44.64073" lon="5.85048">
        <ele>1239.592832</ele>
        <time>2025-07-10T07:18:11.000Z</time>
      </trkpt>
      <trkpt lat="44.64074" lon="5.85049">
        <ele>1239.722422</ele>
        <time>2025-07-10T07:18:12.000Z</time>
      </trkpt>
      <trkpt lat="44.64076" lon="5.8505">
        <ele>1239.847897</ele>
        <time>2025-07-10T07:18:13.000Z</time>
      </trkpt>
      <trkpt lat="44.64077" lon="5.85052">
        <ele>1239.96724</ele>
        <time>2025-07-10T07:18:14.000Z</time>
      </trkpt>
      <trkpt lat="44.64077" lon="5.85054">
        <ele>1240.097818</ele>
        <time>2025-07-10T07:18:15.000Z</time>
      </trkpt>
      <trkpt lat="44.64078" lon="5.85056">
        <ele>1240.215982</ele>
        <time>2025-07-10T07:18:16.000Z</time>
      </trkpt>
      <trkpt lat="44.64079" lon="5.85057">
        <ele>1240.318922</ele>
        <time>2025-07-10T07:18:17.000Z</time>
      </trkpt>
      <trkpt lat="44.64079" lon="5.85058">
        <ele>1240.436964</ele>
        <time>2025-07-10T07:18:18.000Z</time>
      </trkpt>
      <trkpt lat="44.6408" lon="5.8506">
        <ele>1240.569662</ele>
        <time>2025-07-10T07:18:19.000Z</time>
      </trkpt>
      <trkpt lat="44.64082" lon="5.85062">
        <ele>1240.703511</ele>
        <time>2025-07-10T07:18:20.000Z</time>
      </trkpt>
      <trkpt lat="44.64083" lon="5.85063">
        <ele>1240.839296</ele>
        <time>2025-07-10T07:18:21.000Z</time>
      </trkpt>
      <trkpt lat="44.64084" lon="5.85065">
        <ele>1240.976684</ele>
        <time>2025-07-10T07:18:22.000Z</time>
      </trkpt>
      <trkpt lat="44.64085" lon="5.85067">
        <ele>1241.109503</ele>
        <time>2025-07-10T07:18:23.000Z</time>
      </trkpt>
      <trkpt lat="44.64085" lon="5.85069">
        <ele>1241.232205</ele>
        <time>2025-07-10T07:18:24.000Z</time>
      </trkpt>
      <trkpt lat="44.64086" lon="5.8507">
        <ele>1241.359883</ele>
        <time>2025-07-10T07:18:25.000Z</time>
      </trkpt>
      <trkpt lat="44.64087" lon="5.85072">
        <ele>1241.492235</ele>
        <time>2025-07-10T07:18:26.000Z</time>
      </trkpt>
      <trkpt lat="44.64088" lon="5.85074">
        <ele>1241.634982</ele>
        <time>2025-07-10T07:18:27.000Z</time>
      </trkpt>
      <trkpt lat="44.64089" lon="5.85076">
        <ele>1241.782466</ele>
        <time>2025-07-10T07:18:28.000Z</time>
      </trkpt>
      <trkpt lat="44.6409" lon="5.85078">
        <ele>1241.93952</ele>
        <time>2025-07-10T07:18:29.000Z</time>
      </trkpt>
      <trkpt lat="44.64091" lon="5.8508">
        <ele>1242.070098</ele>
        <time>2025-07-10T07:18:30.000Z</time>
      </trkpt>
      <trkpt lat="44.64091" lon="5.85082">
        <ele>1242.200676</ele>
        <time>2025-07-10T07:18:31.000Z</time>
      </trkpt>
      <trkpt lat="44.64092" lon="5.85084">
        <ele>1242.320259</ele>
        <time>2025-07-10T07:18:32.000Z</time>
      </trkpt>
      <trkpt lat="44.64093" lon="5.85086">
        <ele>1242.452268</ele>
        <time>2025-07-10T07:18:33.000Z</time>
      </trkpt>
      <trkpt lat="44.64094" lon="5.85088">
        <ele>1242.603911</ele>
        <time>2025-07-10T07:18:34.000Z</time>
      </trkpt>
      <trkpt lat="44.64095" lon="5.8509">
        <ele>1242.75012</ele>
        <time>2025-07-10T07:18:35.000Z</time>
      </trkpt>
      <trkpt lat="44.64096" lon="5.85091">
        <ele>1242.859919</ele>
        <time>2025-07-10T07:18:36.000Z</time>
      </trkpt>
      <trkpt lat="44.64096" lon="5.85093">
        <ele>1242.98763</ele>
        <time>2025-07-10T07:18:37.000Z</time>
      </trkpt>
      <trkpt lat="44.64097" lon="5.85095">
        <ele>1243.104868</ele>
        <time>2025-07-10T07:18:38.000Z</time>
      </trkpt>
      <trkpt lat="44.64098" lon="5.85097">
        <ele>1243.236184</ele>
        <time>2025-07-10T07:18:39.000Z</time>
      </trkpt>
      <trkpt lat="44.64099" lon="5.85098">
        <ele>1243.358624</ele>
        <time>2025-07-10T07:18:40.000Z</time>
      </trkpt>
      <trkpt lat="44.64099" lon="5.85101">
        <ele>1243.497045</ele>
        <time>2025-07-10T07:18:41.000Z</time>
      </trkpt>
      <trkpt lat="44.641" lon="5.85103">
        <ele>1243.644517</ele>
        <time>2025-07-10T07:18:42.000Z</time>
      </trkpt>
      <trkpt lat="44.64101" lon="5.85105">
        <ele>1243.781466</ele>
        <time>2025-07-10T07:18:43.000Z</time>
      </trkpt>
      <trkpt lat="44.64102" lon="5.85107">
        <ele>1243.927675</ele>
        <time>2025-07-10T07:18:44.000Z</time>
      </trkpt>
      <trkpt lat="44.64103" lon="5.85108">
        <ele>1244.049332</ele>
        <time>2025-07-10T07:18:45.000Z</time>
      </trkpt>
      <trkpt lat="44.64104" lon="5.8511">
        <ele>1244.171772</ele>
        <time>2025-07-10T07:18:46.000Z</time>
      </trkpt>
      <trkpt lat="44.64104" lon="5.85112">
        <ele>1244.308722</ele>
        <time>2025-07-10T07:18:47.000Z</time>
      </trkpt>
      <trkpt lat="44.64105" lon="5.85114">
        <ele>1244.445671</ele>
        <time>2025-07-10T07:18:48.000Z</time>
      </trkpt>
      <trkpt lat="44.64106" lon="5.85116">
        <ele>1244.587853</ele>
        <time>2025-07-10T07:18:49.000Z</time>
      </trkpt>
      <trkpt lat="44.64107" lon="5.85118">
        <ele>1244.724803</ele>
        <time>2025-07-10T07:18:50.000Z</time>
      </trkpt>
      <trkpt lat="44.64108" lon="5.8512">
        <ele>1244.851281</ele>
        <time>2025-07-10T07:18:51.000Z</time>
      </trkpt>
      <trkpt lat="44.64108" lon="5.85122">
        <ele>1244.969927</ele>
        <time>2025-07-10T07:18:52.000Z</time>
      </trkpt>
      <trkpt lat="44.64109" lon="5.85124">
        <ele>1245.101706</ele>
        <time>2025-07-10T07:18:53.000Z</time>
      </trkpt>
      <trkpt lat="44.6411" lon="5.85125">
        <ele>1245.233021</ele>
        <time>2025-07-10T07:18:54.000Z</time>
      </trkpt>
      <trkpt lat="44.64111" lon="5.85127">
        <ele>1245.3648</ele>
        <time>2025-07-10T07:18:55.000Z</time>
      </trkpt>
      <trkpt lat="44.64111" lon="5.85129">
        <ele>1245.488877</ele>
        <time>2025-07-10T07:18:56.000Z</time>
      </trkpt>
      <trkpt lat="44.64112" lon="5.85131">
        <ele>1245.625826</ele>
        <time>2025-07-10T07:18:57.000Z</time>
      </trkpt>
      <trkpt lat="44.64113" lon="5.85133">
        <ele>1245.768008</ele>
        <time>2025-07-10T07:18:58.000Z</time>
      </trkpt>
      <trkpt lat="44.64114" lon="5.85135">
        <ele>1245.914337</ele>
        <time>2025-07-10T07:18:59.000Z</time>
      </trkpt>
      <trkpt lat="44.64115" lon="5.85137">
        <ele>1246.059299</ele>
        <time>2025-07-10T07:19:00.000Z</time>
      </trkpt>
      <trkpt lat="44.64116" lon="5.85139">
        <ele>1246.185777</ele>
        <time>2025-07-10T07:19:01.000Z</time>
      </trkpt>
      <trkpt lat="44.64117" lon="5.8514">
        <ele>1246.307518</ele>
        <time>2025-07-10T07:19:02.000Z</time>
      </trkpt>
      <trkpt lat="44.64118" lon="5.85142">
        <ele>1246.44383</ele>
        <time>2025-07-10T07:19:03.000Z</time>
      </trkpt>
      <trkpt lat="44.64119" lon="5.85144">
        <ele>1246.590159</ele>
        <time>2025-07-10T07:19:04.000Z</time>
      </trkpt>
      <trkpt lat="44.6412" lon="5.85146">
        <ele>1246.732341</ele>
        <time>2025-07-10T07:19:05.000Z</time>
      </trkpt>
      <trkpt lat="44.64121" lon="5.85148">
        <ele>1246.864119</ele>
        <time>2025-07-10T07:19:06.000Z</time>
      </trkpt>
      <trkpt lat="44.64121" lon="5.8515">
        <ele>1246.980844</ele>
        <time>2025-07-10T07:19:07.000Z</time>
      </trkpt>
      <trkpt lat="44.64123" lon="5.85151">
        <ele>1247.115566</ele>
        <time>2025-07-10T07:19:08.000Z</time>
      </trkpt>
      <trkpt lat="44.64124" lon="5.85153">
        <ele>1247.257195</ele>
        <time>2025-07-10T07:19:09.000Z</time>
      </trkpt>
      <trkpt lat="44.64124" lon="5.85155">
        <ele>1247.379635</ele>
        <time>2025-07-10T07:19:10.000Z</time>
      </trkpt>
      <trkpt lat="44.64125" lon="5.85157">
        <ele>1247.501377</ele>
        <time>2025-07-10T07:19:11.000Z</time>
      </trkpt>
      <trkpt lat="44.64126" lon="5.85158">
        <ele>1247.627855</ele>
        <time>2025-07-10T07:19:12.000Z</time>
      </trkpt>
      <trkpt lat="44.64127" lon="5.8516">
        <ele>1247.768918</ele>
        <time>2025-07-10T07:19:13.000Z</time>
      </trkpt>
      <trkpt lat="44.64128" lon="5.85162">
        <ele>1247.914824</ele>
        <time>2025-07-10T07:19:14.000Z</time>
      </trkpt>
      <trkpt lat="44.64129" lon="5.85164">
        <ele>1248.043399</ele>
        <time>2025-07-10T07:19:15.000Z</time>
      </trkpt>
      <trkpt lat="44.6413" lon="5.85165">
        <ele>1248.160637</ele>
        <time>2025-07-10T07:19:16.000Z</time>
      </trkpt>
      <trkpt lat="44.64131" lon="5.85167">
        <ele>1248.297585</ele>
        <time>2025-07-10T07:19:17.000Z</time>
      </trkpt>
      <trkpt lat="44.64132" lon="5.85169">
        <ele>1248.439214</ele>
        <time>2025-07-10T07:19:18.000Z</time>
      </trkpt>
      <trkpt lat="44.64133" lon="5.85171">
        <ele>1248.602477</ele>
        <time>2025-07-10T07:19:19.000Z</time>
      </trkpt>
      <trkpt lat="44.64134" lon="5.85173">
        <ele>1248.741238</ele>
        <time>2025-07-10T07:19:20.000Z</time>
      </trkpt>
      <trkpt lat="44.64135" lon="5.85174">
        <ele>1248.859645</ele>
        <time>2025-07-10T07:19:21.000Z</time>
      </trkpt>
      <trkpt lat="44.64136" lon="5.85176">
        <ele>1248.982339</ele>
        <time>2025-07-10T07:19:22.000Z</time>
      </trkpt>
      <trkpt lat="44.64138" lon="5.85177">
        <ele>1249.117061</ele>
        <time>2025-07-10T07:19:23.000Z</time>
      </trkpt>
      <trkpt lat="44.64139" lon="5.85178">
        <ele>1249.244163</ele>
        <time>2025-07-10T07:19:24.000Z</time>
      </trkpt>
      <trkpt lat="44.6414" lon="5.8518">
        <ele>1249.372737</ele>
        <time>2025-07-10T07:19:25.000Z</time>
      </trkpt>
      <trkpt lat="44.64141" lon="5.85181">
        <ele>1249.499852</ele>
        <time>2025-07-10T07:19:26.000Z</time>
      </trkpt>
      <trkpt lat="44.64142" lon="5.85183">
        <ele>1249.626966</ele>
        <time>2025-07-10T07:19:27.000Z</time>
      </trkpt>
      <trkpt lat="44.64143" lon="5.85184">
        <ele>1249.754068</ele>
        <time>2025-07-10T07:19:28.000Z</time>
      </trkpt>
      <trkpt lat="44.64144" lon="5.85185">
        <ele>1249.86732</ele>
        <time>2025-07-10T07:19:29.000Z</time>
      </trkpt>
      <trkpt lat="44.64145" lon="5.85187">
        <ele>1249.995895</ele>
        <time>2025-07-10T07:19:30.000Z</time>
      </trkpt>
      <trkpt lat="44.64147" lon="5.85188">
        <ele>1250.130617</ele>
        <time>2025-07-10T07:19:31.000Z</time>
      </trkpt>
      <trkpt lat="44.64148" lon="5.8519">
        <ele>1250.255109</ele>
        <time>2025-07-10T07:19:32.000Z</time>
      </trkpt>
      <trkpt lat="44.64149" lon="5.85192">
        <ele>1250.381587</ele>
        <time>2025-07-10T07:19:33.000Z</time>
      </trkpt>
      <trkpt lat="44.6415" lon="5.85193">
        <ele>1250.526548</ele>
        <time>2025-07-10T07:19:34.000Z</time>
      </trkpt>
      <trkpt lat="44.64151" lon="5.85194">
        <ele>1250.678687</ele>
        <time>2025-07-10T07:19:35.000Z</time>
      </trkpt>
      <trkpt lat="44.64153" lon="5.85195">
        <ele>1250.825583</ele>
        <time>2025-07-10T07:19:36.000Z</time>
      </trkpt>
      <trkpt lat="44.64154" lon="5.85197">
        <ele>1250.956414</ele>
        <time>2025-07-10T07:19:37.000Z</time>
      </trkpt>
      <trkpt lat="44.64155" lon="5.85198">
        <ele>1251.080906</ele>
        <time>2025-07-10T07:19:38.000Z</time>
      </trkpt>
      <trkpt lat="44.64156" lon="5.85199">
        <ele>1251.201472</ele>
        <time>2025-07-10T07:19:39.000Z</time>
      </trkpt>
      <trkpt lat="44.64158" lon="5.85201">
        <ele>1251.335316</ele>
        <time>2025-07-10T07:19:40.000Z</time>
      </trkpt>
      <trkpt lat="44.64159" lon="5.85202">
        <ele>1251.483151</ele>
        <time>2025-07-10T07:19:41.000Z</time>
      </trkpt>
      <trkpt lat="44.64161" lon="5.85203">
        <ele>1251.623915</ele>
        <time>2025-07-10T07:19:42.000Z</time>
      </trkpt>
      <trkpt lat="44.64162" lon="5.85205">
        <ele>1251.732179</ele>
        <time>2025-07-10T07:19:43.000Z</time>
      </trkpt>
      <trkpt lat="44.64163" lon="5.85206">
        <ele>1251.846453</ele>
        <time>2025-07-10T07:19:44.000Z</time>
      </trkpt>
      <trkpt lat="44.64164" lon="5.85207">
        <ele>1251.956353</ele>
        <time>2025-07-10T07:19:45.000Z</time>
      </trkpt>
      <trkpt lat="44.64165" lon="5.85208">
        <ele>1252.083134</ele>
        <time>2025-07-10T07:19:46.000Z</time>
      </trkpt>
      <trkpt lat="44.64167" lon="5.85209">
        <ele>1252.219955</ele>
        <time>2025-07-10T07:19:47.000Z</time>
      </trkpt>
      <trkpt lat="44.64168" lon="5.85209">
        <ele>1252.349279</ele>
        <time>2025-07-10T07:19:48.000Z</time>
      </trkpt>
      <trkpt lat="44.6417" lon="5.8521">
        <ele>1252.48011</ele>
        <time>2025-07-10T07:19:49.000Z</time>
      </trkpt>
      <trkpt lat="44.64171" lon="5.8521">
        <ele>1252.612699</ele>
        <time>2025-07-10T07:19:50.000Z</time>
      </trkpt>
      <trkpt lat="44.64172" lon="5.85212">
        <ele>1252.753463</ele>
        <time>2025-07-10T07:19:51.000Z</time>
      </trkpt>
      <trkpt lat="44.64174" lon="5.85213">
        <ele>1252.880758</ele>
        <time>2025-07-10T07:19:52.000Z</time>
      </trkpt>
      <trkpt lat="44.64175" lon="5.85214">
        <ele>1253.021334</ele>
        <time>2025-07-10T07:19:53.000Z</time>
      </trkpt>
      <trkpt lat="44.64177" lon="5.85214">
        <ele>1253.173392</ele>
        <time>2025-07-10T07:19:54.000Z</time>
      </trkpt>
      <trkpt lat="44.64179" lon="5.85214">
        <ele>1253.291442</ele>
        <time>2025-07-10T07:19:55.000Z</time>
      </trkpt>
      <trkpt lat="44.6418" lon="5.85214">
        <ele>1253.419521</ele>
        <time>2025-07-10T07:19:56.000Z</time>
      </trkpt>
      <trkpt lat="44.64181" lon="5.85215">
        <ele>1253.538323</ele>
        <time>2025-07-10T07:19:57.000Z</time>
      </trkpt>
      <trkpt lat="44.64183" lon="5.85215">
        <ele>1253.689795</ele>
        <time>2025-07-10T07:19:58.000Z</time>
      </trkpt>
      <trkpt lat="44.64185" lon="5.85215">
        <ele>1253.81912</ele>
        <time>2025-07-10T07:19:59.000Z</time>
      </trkpt>
      <trkpt lat="44.64186" lon="5.85216">
        <ele>1253.912838</ele>
        <time>2025-07-10T07:20:00.000Z</time>
      </trkpt>
      <trkpt lat="44.64187" lon="5.85217">
        <ele>1254.037494</ele>
        <time>2025-07-10T07:20:01.000Z</time>
      </trkpt>
      <trkpt lat="44.64189" lon="5.85217">
        <ele>1254.166818</ele>
        <time>2025-07-10T07:20:02.000Z</time>
      </trkpt>
      <trkpt lat="44.6419" lon="5.85218">
        <ele>1254.299407</ele>
        <time>2025-07-10T07:20:03.000Z</time>
      </trkpt>
      <trkpt lat="44.64191" lon="5.85219">
        <ele>1254.403308</ele>
        <time>2025-07-10T07:20:04.000Z</time>
      </trkpt>
      <trkpt lat="44.64193" lon="5.8522">
        <ele>1254.52236</ele>
        <time>2025-07-10T07:20:05.000Z</time>
      </trkpt>
      <trkpt lat="44.64194" lon="5.8522">
        <ele>1254.666091</ele>
        <time>2025-07-10T07:20:06.000Z</time>
      </trkpt>
      <trkpt lat="44.64196" lon="5.8522">
        <ele>1254.811792</ele>
        <time>2025-07-10T07:20:07.000Z</time>
      </trkpt>
      <trkpt lat="44.64198" lon="5.85221">
        <ele>1254.950711</ele>
        <time>2025-07-10T07:20:08.000Z</time>
      </trkpt>
      <trkpt lat="44.64199" lon="5.85222">
        <ele>1255.099317</ele>
        <time>2025-07-10T07:20:09.000Z</time>
      </trkpt>
      <trkpt lat="44.64201" lon="5.85222">
        <ele>1255.259153</ele>
        <time>2025-07-10T07:20:10.000Z</time>
      </trkpt>
      <trkpt lat="44.64203" lon="5.85222">
        <ele>1255.402885</ele>
        <time>2025-07-10T07:20:11.000Z</time>
      </trkpt>
      <trkpt lat="44.64205" lon="5.85223">
        <ele>1255.555761</ele>
        <time>2025-07-10T07:20:12.000Z</time>
      </trkpt>
      <trkpt lat="44.64206" lon="5.85223">
        <ele>1255.704367</ele>
        <time>2025-07-10T07:20:13.000Z</time>
      </trkpt>
      <trkpt lat="44.64208" lon="5.85224">
        <ele>1255.866527</ele>
        <time>2025-07-10T07:20:14.000Z</time>
      </trkpt>
      <trkpt lat="44.6421" lon="5.85224">
        <ele>1255.995851</ele>
        <time>2025-07-10T07:20:15.000Z</time>
      </trkpt>
      <trkpt lat="44.64211" lon="5.85225">
        <ele>1256.140448</ele>
        <time>2025-07-10T07:20:16.000Z</time>
      </trkpt>
      <trkpt lat="44.64213" lon="5.85225">
        <ele>1256.30865</ele>
        <time>2025-07-10T07:20:17.000Z</time>
      </trkpt>
      <trkpt lat="44.64215" lon="5.85225">
        <ele>1256.47081</ele>
        <time>2025-07-10T07:20:18.000Z</time>
      </trkpt>
      <trkpt lat="44.64217" lon="5.85226">
        <ele>1256.60831</ele>
        <time>2025-07-10T07:20:19.000Z</time>
      </trkpt>
      <trkpt lat="44.64219" lon="5.85226">
        <ele>1256.74464</ele>
        <time>2025-07-10T07:20:20.000Z</time>
      </trkpt>
      <trkpt lat="44.6422" lon="5.85227">
        <ele>1256.895034</ele>
        <time>2025-07-10T07:20:21.000Z</time>
      </trkpt>
      <trkpt lat="44.64222" lon="5.85228">
        <ele>1257.026776</ele>
        <time>2025-07-10T07:20:22.000Z</time>
      </trkpt>
      <trkpt lat="44.64223" lon="5.85229">
        <ele>1257.155923</ele>
        <time>2025-07-10T07:20:23.000Z</time>
      </trkpt>
      <trkpt lat="44.64225" lon="5.85229">
        <ele>1257.292253</ele>
        <time>2025-07-10T07:20:24.000Z</time>
      </trkpt>
      <trkpt lat="44.64227" lon="5.8523">
        <ele>1257.453421</ele>
        <time>2025-07-10T07:20:25.000Z</time>
      </trkpt>
      <trkpt lat="44.64228" lon="5.8523">
        <ele>1257.579083</ele>
        <time>2025-07-10T07:20:26.000Z</time>
      </trkpt>
      <trkpt lat="44.6423" lon="5.85231">
        <ele>1257.719943</ele>
        <time>2025-07-10T07:20:27.000Z</time>
      </trkpt>
      <trkpt lat="44.64232" lon="5.85231">
        <ele>1257.83429</ele>
        <time>2025-07-10T07:20:28.000Z</time>
      </trkpt>
      <trkpt lat="44.64233" lon="5.85232">
        <ele>1257.950173</ele>
        <time>2025-07-10T07:20:29.000Z</time>
      </trkpt>
      <trkpt lat="44.64235" lon="5.85232">
        <ele>1258.085808</ele>
        <time>2025-07-10T07:20:30.000Z</time>
      </trkpt>
      <trkpt lat="44.64237" lon="5.85233">
        <ele>1258.20496</ele>
        <time>2025-07-10T07:20:31.000Z</time>
      </trkpt>
      <trkpt lat="44.64238" lon="5.85233">
        <ele>1258.319307</ele>
        <time>2025-07-10T07:20:32.000Z</time>
      </trkpt>
      <trkpt lat="44.6424" lon="5.85234">
        <ele>1258.438459</ele>
        <time>2025-07-10T07:20:33.000Z</time>
      </trkpt>
      <trkpt lat="44.64241" lon="5.85234">
        <ele>1258.552805</ele>
        <time>2025-07-10T07:20:34.000Z</time>
      </trkpt>
      <trkpt lat="44.64243" lon="5.85235">
        <ele>1258.679182</ele>
        <time>2025-07-10T07:20:35.000Z</time>
      </trkpt>
      <trkpt lat="44.64244" lon="5.85235">
        <ele>1258.779505</ele>
        <time>2025-07-10T07:20:36.000Z</time>
      </trkpt>
      <trkpt lat="44.64246" lon="5.85236">
        <ele>1258.899681</ele>
        <time>2025-07-10T07:20:37.000Z</time>
      </trkpt>
      <trkpt lat="44.64247" lon="5.85236">
        <ele>1259.01271</ele>
        <time>2025-07-10T07:20:38.000Z</time>
      </trkpt>
      <trkpt lat="44.64249" lon="5.85237">
        <ele>1259.139088</ele>
        <time>2025-07-10T07:20:39.000Z</time>
      </trkpt>
      <trkpt lat="44.64251" lon="5.85237">
        <ele>1259.26643</ele>
        <time>2025-07-10T07:20:40.000Z</time>
      </trkpt>
      <trkpt lat="44.64252" lon="5.85238">
        <ele>1259.384061</ele>
        <time>2025-07-10T07:20:41.000Z</time>
      </trkpt>
      <trkpt lat="44.64254" lon="5.85239">
        <ele>1259.496002</ele>
        <time>2025-07-10T07:20:42.000Z</time>
      </trkpt>
      <trkpt lat="44.64255" lon="5.85239">
        <ele>1259.628389</ele>
        <time>2025-07-10T07:20:43.000Z</time>
      </trkpt>
      <trkpt lat="44.64257" lon="5.85239">
        <ele>1259.738491</ele>
        <time>2025-07-10T07:20:44.000Z</time>
      </trkpt>
      <trkpt lat="44.64258" lon="5.85239">
        <ele>1259.8444</ele>
        <time>2025-07-10T07:20:45.000Z</time>
      </trkpt>
      <trkpt lat="44.6426" lon="5.8524">
        <ele>1259.971743</ele>
        <time>2025-07-10T07:20:46.000Z</time>
      </trkpt>
      <trkpt lat="44.64262" lon="5.8524">
        <ele>1260.083684</ele>
        <time>2025-07-10T07:20:47.000Z</time>
      </trkpt>
      <trkpt lat="44.64264" lon="5.8524">
        <ele>1260.230693</ele>
        <time>2025-07-10T07:20:48.000Z</time>
      </trkpt>
      <trkpt lat="44.64265" lon="5.85241">
        <ele>1260.364307</ele>
        <time>2025-07-10T07:20:49.000Z</time>
      </trkpt>
      <trkpt lat="44.64267" lon="5.85241">
        <ele>1260.482657</ele>
        <time>2025-07-10T07:20:50.000Z</time>
      </trkpt>
      <trkpt lat="44.64269" lon="5.85241">
        <ele>1260.600084</ele>
        <time>2025-07-10T07:20:51.000Z</time>
      </trkpt>
      <trkpt lat="44.6427" lon="5.85241">
        <ele>1260.739488</ele>
        <time>2025-07-10T07:20:52.000Z</time>
      </trkpt>
      <trkpt lat="44.64272" lon="5.85241">
        <ele>1260.878892</ele>
        <time>2025-07-10T07:20:53.000Z</time>
      </trkpt>
      <trkpt lat="44.64274" lon="5.85241">
        <ele>1261.033216</ele>
        <time>2025-07-10T07:20:54.000Z</time>
      </trkpt>
      <trkpt lat="44.64276" lon="5.85241">
        <ele>1261.16519</ele>
        <time>2025-07-10T07:20:55.000Z</time>
      </trkpt>
      <trkpt lat="44.64278" lon="5.85241">
        <ele>1261.297165</ele>
        <time>2025-07-10T07:20:56.000Z</time>
      </trkpt>
      <trkpt lat="44.6428" lon="5.8524">
        <ele>1261.432801</ele>
        <time>2025-07-10T07:20:57.000Z</time>
      </trkpt>
      <trkpt lat="44.64282" lon="5.85239">
        <ele>1261.564244</ele>
        <time>2025-07-10T07:20:58.000Z</time>
      </trkpt>
      <trkpt lat="44.64283" lon="5.85238">
        <ele>1261.690791</ele>
        <time>2025-07-10T07:20:59.000Z</time>
      </trkpt>
      <trkpt lat="44.64284" lon="5.85237">
        <ele>1261.819863</ele>
        <time>2025-07-10T07:21:00.000Z</time>
      </trkpt>
      <trkpt lat="44.64286" lon="5.85235">
        <ele>1261.94907</ele>
        <time>2025-07-10T07:21:01.000Z</time>
      </trkpt>
      <trkpt lat="44.64288" lon="5.85234">
        <ele>1262.084572</ele>
        <time>2025-07-10T07:21:02.000Z</time>
      </trkpt>
      <trkpt lat="44.64289" lon="5.85233">
        <ele>1262.216872</ele>
        <time>2025-07-10T07:21:03.000Z</time>
      </trkpt>
      <trkpt lat="44.6429" lon="5.85231">
        <ele>1262.338147</ele>
        <time>2025-07-10T07:21:04.000Z</time>
      </trkpt>
      <trkpt lat="44.64291" lon="5.85229">
        <ele>1262.47068</ele>
        <time>2025-07-10T07:21:05.000Z</time>
      </trkpt>
      <trkpt lat="44.64292" lon="5.85227">
        <ele>1262.598464</ele>
        <time>2025-07-10T07:21:06.000Z</time>
      </trkpt>
      <trkpt lat="44.64294" lon="5.85225">
        <ele>1262.722246</ele>
        <time>2025-07-10T07:21:07.000Z</time>
      </trkpt>
      <trkpt lat="44.64295" lon="5.85223">
        <ele>1262.859756</ele>
        <time>2025-07-10T07:21:08.000Z</time>
      </trkpt>
      <trkpt lat="44.64296" lon="5.85221">
        <ele>1263.000263</ele>
        <time>2025-07-10T07:21:09.000Z</time>
      </trkpt>
      <trkpt lat="44.64297" lon="5.85219">
        <ele>1263.149048</ele>
        <time>2025-07-10T07:21:10.000Z</time>
      </trkpt>
      <trkpt lat="44.64298" lon="5.85217">
        <ele>1263.285979</ele>
        <time>2025-07-10T07:21:11.000Z</time>
      </trkpt>
      <trkpt lat="44.64299" lon="5.85215">
        <ele>1263.406459</ele>
        <time>2025-07-10T07:21:12.000Z</time>
      </trkpt>
      <trkpt lat="44.64299" lon="5.85212">
        <ele>1263.538717</ele>
        <time>2025-07-10T07:21:13.000Z</time>
      </trkpt>
      <trkpt lat="44.64299" lon="5.85209">
        <ele>1263.674548</ele>
        <time>2025-07-10T07:21:14.000Z</time>
      </trkpt>
      <trkpt lat="44.64299" lon="5.85207">
        <ele>1263.794755</ele>
        <time>2025-07-10T07:21:15.000Z</time>
      </trkpt>
      <trkpt lat="44.64299" lon="5.85205">
        <ele>1263.920811</ele>
        <time>2025-07-10T07:21:16.000Z</time>
      </trkpt>
      <trkpt lat="44.64299" lon="5.85202">
        <ele>1264.046225</ele>
        <time>2025-07-10T07:21:17.000Z</time>
      </trkpt>
      <trkpt lat="44.64299" lon="5.852">
        <ele>1264.176847</ele>
        <time>2025-07-10T07:21:18.000Z</time>
      </trkpt>
      <trkpt lat="44.64299" lon="5.85197">
        <ele>1264.315615</ele>
        <time>2025-07-10T07:21:19.000Z</time>
      </trkpt>
      <trkpt lat="44.64298" lon="5.85195">
        <ele>1264.461157</ele>
        <time>2025-07-10T07:21:20.000Z</time>
      </trkpt>
      <trkpt lat="44.64298" lon="5.85192">
        <ele>1264.618561</ele>
        <time>2025-07-10T07:21:21.000Z</time>
      </trkpt>
      <trkpt lat="44.64297" lon="5.85189">
        <ele>1264.76847</ele>
        <time>2025-07-10T07:21:22.000Z</time>
      </trkpt>
      <trkpt lat="44.64296" lon="5.85186">
        <ele>1264.919303</ele>
        <time>2025-07-10T07:21:23.000Z</time>
      </trkpt>
      <trkpt lat="44.64295" lon="5.85184">
        <ele>1265.064322</ele>
        <time>2025-07-10T07:21:24.000Z</time>
      </trkpt>
      <trkpt lat="44.64295" lon="5.85181">
        <ele>1265.207322</ele>
        <time>2025-07-10T07:21:25.000Z</time>
      </trkpt>
      <trkpt lat="44.64293" lon="5.85179">
        <ele>1265.356107</ele>
        <time>2025-07-10T07:21:26.000Z</time>
      </trkpt>
      <trkpt lat="44.64292" lon="5.85177">
        <ele>1265.523909</ele>
        <time>2025-07-10T07:21:27.000Z</time>
      </trkpt>
      <trkpt lat="44.6429" lon="5.85175">
        <ele>1265.677883</ele>
        <time>2025-07-10T07:21:28.000Z</time>
      </trkpt>
      <trkpt lat="44.64289" lon="5.85172">
        <ele>1265.81839</ele>
        <time>2025-07-10T07:21:29.000Z</time>
      </trkpt>
      <trkpt lat="44.64288" lon="5.8517">
        <ele>1265.981151</ele>
        <time>2025-07-10T07:21:30.000Z</time>
      </trkpt>
      <trkpt lat="44.64286" lon="5.85168">
        <ele>1266.129204</ele>
        <time>2025-07-10T07:21:31.000Z</time>
      </trkpt>
      <trkpt lat="44.64285" lon="5.85167">
        <ele>1266.267269</ele>
        <time>2025-07-10T07:21:32.000Z</time>
      </trkpt>
      <trkpt lat="44.64283" lon="5.85165">
        <ele>1266.420241</ele>
        <time>2025-07-10T07:21:33.000Z</time>
      </trkpt>
      <trkpt lat="44.64281" lon="5.85163">
        <ele>1266.579245</ele>
        <time>2025-07-10T07:21:34.000Z</time>
      </trkpt>
      <trkpt lat="44.6428" lon="5.85162">
        <ele>1266.708316</ele>
        <time>2025-07-10T07:21:35.000Z</time>
      </trkpt>
      <trkpt lat="44.64278" lon="5.8516">
        <ele>1266.840336</ele>
        <time>2025-07-10T07:21:36.000Z</time>
      </trkpt>
      <trkpt lat="44.64277" lon="5.85159">
        <ele>1266.972356</ele>
        <time>2025-07-10T07:21:37.000Z</time>
      </trkpt>
      <trkpt lat="44.64275" lon="5.85158">
        <ele>1267.116819</ele>
        <time>2025-07-10T07:21:38.000Z</time>
      </trkpt>
      <trkpt lat="44.64273" lon="5.85156">
        <ele>1267.252322</ele>
        <time>2025-07-10T07:21:39.000Z</time>
      </trkpt>
      <trkpt lat="44.64272" lon="5.85155">
        <ele>1267.400701</ele>
        <time>2025-07-10T07:21:40.000Z</time>
      </trkpt>
      <trkpt lat="44.6427" lon="5.85154">
        <ele>1267.545165</ele>
        <time>2025-07-10T07:21:41.000Z</time>
      </trkpt>
      <trkpt lat="44.64268" lon="5.85152">
        <ele>1267.680667</ele>
        <time>2025-07-10T07:21:42.000Z</time>
      </trkpt>
      <trkpt lat="44.64267" lon="5.85151">
        <ele>1267.824642</ele>
        <time>2025-07-10T07:21:43.000Z</time>
      </trkpt>
      <trkpt lat="44.64265" lon="5.85149">
        <ele>1267.950619</ele>
        <time>2025-07-10T07:21:44.000Z</time>
      </trkpt>
      <trkpt lat="44.64264" lon="5.85148">
        <ele>1268.079826</ele>
        <time>2025-07-10T07:21:45.000Z</time>
      </trkpt>
      <trkpt lat="44.64262" lon="5.85147">
        <ele>1268.197424</ele>
        <time>2025-07-10T07:21:46.000Z</time>
      </trkpt>
      <trkpt lat="44.64261" lon="5.85146">
        <ele>1268.343493</ele>
        <time>2025-07-10T07:21:47.000Z</time>
      </trkpt>
      <trkpt lat="44.64259" lon="5.85144">
        <ele>1268.457527</ele>
        <time>2025-07-10T07:21:48.000Z</time>
      </trkpt>
      <trkpt lat="44.64258" lon="5.85143">
        <ele>1268.581576</ele>
        <time>2025-07-10T07:21:49.000Z</time>
      </trkpt>
      <trkpt lat="44.64256" lon="5.85142">
        <ele>1268.704603</ele>
        <time>2025-07-10T07:21:50.000Z</time>
      </trkpt>
      <trkpt lat="44.64255" lon="5.8514">
        <ele>1268.836902</ele>
        <time>2025-07-10T07:21:51.000Z</time>
      </trkpt>
      <trkpt lat="44.64253" lon="5.85139">
        <ele>1268.987737</ele>
        <time>2025-07-10T07:21:52.000Z</time>
      </trkpt>
      <trkpt lat="44.64252" lon="5.85138">
        <ele>1269.118331</ele>
        <time>2025-07-10T07:21:53.000Z</time>
      </trkpt>
      <trkpt lat="44.6425" lon="5.85137">
        <ele>1269.250351</ele>
        <time>2025-07-10T07:21:54.000Z</time>
      </trkpt>
      <trkpt lat="44.64249" lon="5.85135">
        <ele>1269.382371</ele>
        <time>2025-07-10T07:21:55.000Z</time>
      </trkpt>
      <trkpt lat="44.64247" lon="5.85134">
        <ele>1269.511578</ele>
        <time>2025-07-10T07:21:56.000Z</time>
      </trkpt>
      <trkpt lat="44.64246" lon="5.85133">
        <ele>1269.647081</ele>
        <time>2025-07-10T07:21:57.000Z</time>
      </trkpt>
      <trkpt lat="44.64244" lon="5.85131">
        <ele>1269.795461</ele>
        <time>2025-07-10T07:21:58.000Z</time>
      </trkpt>
      <trkpt lat="44.64242" lon="5.8513">
        <ele>1269.94384</ele>
        <time>2025-07-10T07:21:59.000Z</time>
      </trkpt>
      <trkpt lat="44.6424" lon="5.85129">
        <ele>1270.08332</ele>
        <time>2025-07-10T07:22:00.000Z</time>
      </trkpt>
      <trkpt lat="44.64239" lon="5.85128">
        <ele>1270.216288</ele>
        <time>2025-07-10T07:22:01.000Z</time>
      </trkpt>
      <trkpt lat="44.64237" lon="5.85126">
        <ele>1270.357303</ele>
        <time>2025-07-10T07:22:02.000Z</time>
      </trkpt>
      <trkpt lat="44.64235" lon="5.85125">
        <ele>1270.508138</ele>
        <time>2025-07-10T07:22:03.000Z</time>
      </trkpt>
      <trkpt lat="44.64234" lon="5.85123">
        <ele>1270.656804</ele>
        <time>2025-07-10T07:22:04.000Z</time>
      </trkpt>
      <trkpt lat="44.64232" lon="5.85122">
        <ele>1270.803201</ele>
        <time>2025-07-10T07:22:05.000Z</time>
      </trkpt>
      <trkpt lat="44.64231" lon="5.8512">
        <ele>1270.952558</ele>
        <time>2025-07-10T07:22:06.000Z</time>
      </trkpt>
      <trkpt lat="44.64229" lon="5.85119">
        <ele>1271.108597</ele>
        <time>2025-07-10T07:22:07.000Z</time>
      </trkpt>
      <trkpt lat="44.64228" lon="5.85117">
        <ele>1271.257955</ele>
        <time>2025-07-10T07:22:08.000Z</time>
      </trkpt>
      <trkpt lat="44.64226" lon="5.85115">
        <ele>1271.420684</ele>
        <time>2025-07-10T07:22:09.000Z</time>
      </trkpt>
      <trkpt lat="44.64224" lon="5.85114">
        <ele>1271.593476</ele>
        <time>2025-07-10T07:22:10.000Z</time>
      </trkpt>
      <trkpt lat="44.64223" lon="5.85112">
        <ele>1271.746387</ele>
        <time>2025-07-10T07:22:11.000Z</time>
      </trkpt>
      <trkpt lat="44.64221" lon="5.85111">
        <ele>1271.899164</ele>
        <time>2025-07-10T07:22:12.000Z</time>
      </trkpt>
      <trkpt lat="44.6422" lon="5.85109">
        <ele>1272.059185</ele>
        <time>2025-07-10T07:22:13.000Z</time>
      </trkpt>
      <trkpt lat="44.64218" lon="5.85107">
        <ele>1272.219868</ele>
        <time>2025-07-10T07:22:14.000Z</time>
      </trkpt>
      <trkpt lat="44.64217" lon="5.85105">
        <ele>1272.38599</ele>
        <time>2025-07-10T07:22:15.000Z</time>
      </trkpt>
      <trkpt lat="44.64216" lon="5.85103">
        <ele>1272.536522</ele>
        <time>2025-07-10T07:22:16.000Z</time>
      </trkpt>
      <trkpt lat="44.64215" lon="5.851">
        <ele>1272.69174</ele>
        <time>2025-07-10T07:22:17.000Z</time>
      </trkpt>
      <trkpt lat="44.64213" lon="5.85098">
        <ele>1272.848115</ele>
        <time>2025-07-10T07:22:18.000Z</time>
      </trkpt>
      <trkpt lat="44.64212" lon="5.85096">
        <ele>1272.999136</ele>
        <time>2025-07-10T07:22:19.000Z</time>
      </trkpt>
      <trkpt lat="44.64211" lon="5.85094">
        <ele>1273.149836</ele>
        <time>2025-07-10T07:22:20.000Z</time>
      </trkpt>
      <trkpt lat="44.6421" lon="5.85092">
        <ele>1273.311571</ele>
        <time>2025-07-10T07:22:21.000Z</time>
      </trkpt>
      <trkpt lat="44.64209" lon="5.85089">
        <ele>1273.478478</ele>
        <time>2025-07-10T07:22:22.000Z</time>
      </trkpt>
      <trkpt lat="44.64209" lon="5.85086">
        <ele>1273.645122</ele>
        <time>2025-07-10T07:22:23.000Z</time>
      </trkpt>
      <trkpt lat="44.64209" lon="5.85084">
        <ele>1273.79717</ele>
        <time>2025-07-10T07:22:24.000Z</time>
      </trkpt>
      <trkpt lat="44.64208" lon="5.85081">
        <ele>1273.935949</ele>
        <time>2025-07-10T07:22:25.000Z</time>
      </trkpt>
      <trkpt lat="44.64208" lon="5.85079">
        <ele>1274.080263</ele>
        <time>2025-07-10T07:22:26.000Z</time>
      </trkpt>
      <trkpt lat="44.64209" lon="5.85076">
        <ele>1274.245121</ele>
        <time>2025-07-10T07:22:27.000Z</time>
      </trkpt>
      <trkpt lat="44.6421" lon="5.85073">
        <ele>1274.43115</ele>
        <time>2025-07-10T07:22:28.000Z</time>
      </trkpt>
      <trkpt lat="44.64211" lon="5.8507">
        <ele>1274.603265</ele>
        <time>2025-07-10T07:22:29.000Z</time>
      </trkpt>
      <trkpt lat="44.64212" lon="5.85068">
        <ele>1274.772945</ele>
        <time>2025-07-10T07:22:30.000Z</time>
      </trkpt>
      <trkpt lat="44.64213" lon="5.85066">
        <ele>1274.943325</ele>
        <time>2025-07-10T07:22:31.000Z</time>
      </trkpt>
      <trkpt lat="44.64215" lon="5.85064">
        <ele>1275.107153</ele>
        <time>2025-07-10T07:22:32.000Z</time>
      </trkpt>
      <trkpt lat="44.64216" lon="5.85062">
        <ele>1275.25324</ele>
        <time>2025-07-10T07:22:33.000Z</time>
      </trkpt>
      <trkpt lat="44.64218" lon="5.85061">
        <ele>1275.397748</ele>
        <time>2025-07-10T07:22:34.000Z</time>
      </trkpt>
      <trkpt lat="44.6422" lon="5.85061">
        <ele>1275.550912</ele>
        <time>2025-07-10T07:22:35.000Z</time>
      </trkpt>
      <trkpt lat="44.64221" lon="5.8506">
        <ele>1275.690755</ele>
        <time>2025-07-10T07:22:36.000Z</time>
      </trkpt>
      <trkpt lat="44.64223" lon="5.8506">
        <ele>1275.845012</ele>
        <time>2025-07-10T07:22:37.000Z</time>
      </trkpt>
      <trkpt lat="44.64225" lon="5.8506">
        <ele>1275.991504</ele>
        <time>2025-07-10T07:22:38.000Z</time>
      </trkpt>
      <trkpt lat="44.64227" lon="5.85061">
        <ele>1276.129284</ele>
        <time>2025-07-10T07:22:39.000Z</time>
      </trkpt>
      <trkpt lat="44.64228" lon="5.85062">
        <ele>1276.276668</ele>
        <time>2025-07-10T07:22:40.000Z</time>
      </trkpt>
      <trkpt lat="44.6423" lon="5.85063">
        <ele>1276.435911</ele>
        <time>2025-07-10T07:22:41.000Z</time>
      </trkpt>
      <trkpt lat="44.64232" lon="5.85064">
        <ele>1276.588823</ele>
        <time>2025-07-10T07:22:42.000Z</time>
      </trkpt>
      <trkpt lat="44.64233" lon="5.85066">
        <ele>1276.738763</ele>
        <time>2025-07-10T07:22:43.000Z</time>
      </trkpt>
      <trkpt lat="44.64235" lon="5.85067">
        <ele>1276.878163</ele>
        <time>2025-07-10T07:22:44.000Z</time>
      </trkpt>
      <trkpt lat="44.64236" lon="5.85069">
        <ele>1277.016397</ele>
        <time>2025-07-10T07:22:45.000Z</time>
      </trkpt>
      <trkpt lat="44.64237" lon="5.85071">
        <ele>1277.162265</ele>
        <time>2025-07-10T07:22:46.000Z</time>
      </trkpt>
      <trkpt lat="44.64239" lon="5.85073">
        <ele>1277.335988</ele>
        <time>2025-07-10T07:22:47.000Z</time>
      </trkpt>
      <trkpt lat="44.6424" lon="5.85075">
        <ele>1277.50878</ele>
        <time>2025-07-10T07:22:48.000Z</time>
      </trkpt>
      <trkpt lat="44.64242" lon="5.85076">
        <ele>1277.641653</ele>
        <time>2025-07-10T07:22:49.000Z</time>
      </trkpt>
      <trkpt lat="44.64243" lon="5.85077">
        <ele>1277.765999</ele>
        <time>2025-07-10T07:22:50.000Z</time>
      </trkpt>
      <trkpt lat="44.64244" lon="5.85079">
        <ele>1277.888933</ele>
        <time>2025-07-10T07:22:51.000Z</time>
      </trkpt>
      <trkpt lat="44.64245" lon="5.85081">
        <ele>1278.020694</ele>
        <time>2025-07-10T07:22:52.000Z</time>
      </trkpt>
      <trkpt lat="44.64246" lon="5.85083">
        <ele>1278.161801</ele>
        <time>2025-07-10T07:22:53.000Z</time>
      </trkpt>
      <trkpt lat="44.64246" lon="5.85085">
        <ele>1278.280214</ele>
        <time>2025-07-10T07:22:54.000Z</time>
      </trkpt>
      <trkpt lat="44.64247" lon="5.85086">
        <ele>1278.402533</ele>
        <time>2025-07-10T07:22:55.000Z</time>
      </trkpt>
      <trkpt lat="44.64248" lon="5.85088">
        <ele>1278.530966</ele>
        <time>2025-07-10T07:22:56.000Z</time>
      </trkpt>
      <trkpt lat="44.64249" lon="5.8509">
        <ele>1278.6539</ele>
        <time>2025-07-10T07:22:57.000Z</time>
      </trkpt>
      <trkpt lat="44.6425" lon="5.85091">
        <ele>1278.771637</ele>
        <time>2025-07-10T07:22:58.000Z</time>
      </trkpt>
      <trkpt lat="44.64251" lon="5.85093">
        <ele>1278.880553</ele>
        <time>2025-07-10T07:22:59.000Z</time>
      </trkpt>
      <trkpt lat="44.64252" lon="5.85094">
        <ele>1279.003476</ele>
        <time>2025-07-10T07:23:00.000Z</time>
      </trkpt>
      <trkpt lat="44.64253" lon="5.85095">
        <ele>1279.127822</ele>
        <time>2025-07-10T07:23:01.000Z</time>
      </trkpt>
      <trkpt lat="44.64254" lon="5.85097">
        <ele>1279.240708</ele>
        <time>2025-07-10T07:23:02.000Z</time>
      </trkpt>
      <trkpt lat="44.64255" lon="5.85098">
        <ele>1279.361106</ele>
        <time>2025-07-10T07:23:03.000Z</time>
      </trkpt>
      <trkpt lat="44.64256" lon="5.851">
        <ele>1279.477708</ele>
        <time>2025-07-10T07:23:04.000Z</time>
      </trkpt>
      <trkpt lat="44.64258" lon="5.85102">
        <ele>1279.614678</ele>
        <time>2025-07-10T07:23:05.000Z</time>
      </trkpt>
      <trkpt lat="44.64259" lon="5.85103">
        <ele>1279.737612</ele>
        <time>2025-07-10T07:23:06.000Z</time>
      </trkpt>
      <trkpt lat="44.64259" lon="5.85105">
        <ele>1279.845825</ele>
        <time>2025-07-10T07:23:07.000Z</time>
      </trkpt>
      <trkpt lat="44.6426" lon="5.85106">
        <ele>1279.958711</ele>
        <time>2025-07-10T07:23:08.000Z</time>
      </trkpt>
      <trkpt lat="44.64261" lon="5.85108">
        <ele>1280.068254</ele>
        <time>2025-07-10T07:23:09.000Z</time>
      </trkpt>
      <trkpt lat="44.64262" lon="5.85109">
        <ele>1280.186912</ele>
        <time>2025-07-10T07:23:10.000Z</time>
      </trkpt>
      <trkpt lat="44.64263" lon="5.85111">
        <ele>1280.311258</ele>
        <time>2025-07-10T07:23:11.000Z</time>
      </trkpt>
      <trkpt lat="44.64264" lon="5.85112">
        <ele>1280.435604</ele>
        <time>2025-07-10T07:23:12.000Z</time>
      </trkpt>
      <trkpt lat="44.64265" lon="5.85114">
        <ele>1280.557922</ele>
        <time>2025-07-10T07:23:13.000Z</time>
      </trkpt>
      <trkpt lat="44.64266" lon="5.85116">
        <ele>1280.68024</ele>
        <time>2025-07-10T07:23:14.000Z</time>
      </trkpt>
      <trkpt lat="44.64267" lon="5.85117">
        <ele>1280.793213</ele>
        <time>2025-07-10T07:23:15.000Z</time>
      </trkpt>
      <trkpt lat="44.64268" lon="5.85118">
        <ele>1280.907727</ele>
        <time>2025-07-10T07:23:16.000Z</time>
      </trkpt>
      <trkpt lat="44.64269" lon="5.8512">
        <ele>1281.030045</ele>
        <time>2025-07-10T07:23:17.000Z</time>
      </trkpt>
      <trkpt lat="44.6427" lon="5.85122">
        <ele>1281.144559</ele>
        <time>2025-07-10T07:23:18.000Z</time>
      </trkpt>
      <trkpt lat="44.64271" lon="5.85123">
        <ele>1281.26116</ele>
        <time>2025-07-10T07:23:19.000Z</time>
      </trkpt>
      <trkpt lat="44.64272" lon="5.85124">
        <ele>1281.36784</ele>
        <time>2025-07-10T07:23:20.000Z</time>
      </trkpt>
      <trkpt lat="44.64273" lon="5.85126">
        <ele>1281.492187</ele>
        <time>2025-07-10T07:23:21.000Z</time>
      </trkpt>
      <trkpt lat="44.64274" lon="5.85127">
        <ele>1281.612585</ele>
        <time>2025-07-10T07:23:22.000Z</time>
      </trkpt>
      <trkpt lat="44.64275" lon="5.85128">
        <ele>1281.722113</ele>
        <time>2025-07-10T07:23:23.000Z</time>
      </trkpt>
      <trkpt lat="44.64276" lon="5.85129">
        <ele>1281.845035</ele>
        <time>2025-07-10T07:23:24.000Z</time>
      </trkpt>
      <trkpt lat="44.64278" lon="5.8513">
        <ele>1281.975163</ele>
        <time>2025-07-10T07:23:25.000Z</time>
      </trkpt>
      <trkpt lat="44.64279" lon="5.85131">
        <ele>1282.100064</ele>
        <time>2025-07-10T07:23:26.000Z</time>
      </trkpt>
      <trkpt lat="44.64281" lon="5.85132">
        <ele>1282.234758</ele>
        <time>2025-07-10T07:23:27.000Z</time>
      </trkpt>
      <trkpt lat="44.64282" lon="5.85134">
        <ele>1282.377732</ele>
        <time>2025-07-10T07:23:28.000Z</time>
      </trkpt>
      <trkpt lat="44.64283" lon="5.85135">
        <ele>1282.507174</ele>
        <time>2025-07-10T07:23:29.000Z</time>
      </trkpt>
      <trkpt lat="44.64285" lon="5.85136">
        <ele>1282.646574</ele>
        <time>2025-07-10T07:23:30.000Z</time>
      </trkpt>
      <trkpt lat="44.64286" lon="5.85138">
        <ele>1282.779614</ele>
        <time>2025-07-10T07:23:31.000Z</time>
      </trkpt>
      <trkpt lat="44.64288" lon="5.85139">
        <ele>1282.909742</ele>
        <time>2025-07-10T07:23:32.000Z</time>
      </trkpt>
      <trkpt lat="44.64289" lon="5.8514">
        <ele>1283.045877</ele>
        <time>2025-07-10T07:23:33.000Z</time>
      </trkpt>
      <trkpt lat="44.6429" lon="5.85141">
        <ele>1283.176004</ele>
        <time>2025-07-10T07:23:34.000Z</time>
      </trkpt>
      <trkpt lat="44.64292" lon="5.85142">
        <ele>1283.296561</ele>
        <time>2025-07-10T07:23:35.000Z</time>
      </trkpt>
      <trkpt lat="44.64293" lon="5.85142">
        <ele>1283.409507</ele>
        <time>2025-07-10T07:23:36.000Z</time>
      </trkpt>
      <trkpt lat="44.64295" lon="5.85143">
        <ele>1283.544201</ele>
        <time>2025-07-10T07:23:37.000Z</time>
      </trkpt>
      <trkpt lat="44.64296" lon="5.85144">
        <ele>1283.678894</ele>
        <time>2025-07-10T07:23:38.000Z</time>
      </trkpt>
      <trkpt lat="44.64298" lon="5.85145">
        <ele>1283.801507</ele>
        <time>2025-07-10T07:23:39.000Z</time>
      </trkpt>
      <trkpt lat="44.64299" lon="5.85146">
        <ele>1283.939286</ele>
        <time>2025-07-10T07:23:40.000Z</time>
      </trkpt>
      <trkpt lat="44.64301" lon="5.85147">
        <ele>1284.071609</ele>
        <time>2025-07-10T07:23:41.000Z</time>
      </trkpt>
      <trkpt lat="44.64302" lon="5.85148">
        <ele>1284.217058</ele>
        <time>2025-07-10T07:23:42.000Z</time>
      </trkpt>
      <trkpt lat="44.64304" lon="5.85149">
        <ele>1284.356878</ele>
        <time>2025-07-10T07:23:43.000Z</time>
      </trkpt>
      <trkpt lat="44.64306" lon="5.85149">
        <ele>1284.500598</ele>
        <time>2025-07-10T07:23:44.000Z</time>
      </trkpt>
      <trkpt lat="44.64307" lon="5.8515">
        <ele>1284.625671</ele>
        <time>2025-07-10T07:23:45.000Z</time>
      </trkpt>
      <trkpt lat="44.64309" lon="5.8515">
        <ele>1284.7522</ele>
        <time>2025-07-10T07:23:46.000Z</time>
      </trkpt>
      <trkpt lat="44.6431" lon="5.85151">
        <ele>1284.886552</ele>
        <time>2025-07-10T07:23:47.000Z</time>
      </trkpt>
      <trkpt lat="44.64312" lon="5.85152">
        <ele>1285.061653</ele>
        <time>2025-07-10T07:23:48.000Z</time>
      </trkpt>
      <trkpt lat="44.64314" lon="5.85152">
        <ele>1285.219646</ele>
        <time>2025-07-10T07:23:49.000Z</time>
      </trkpt>
      <trkpt lat="44.64316" lon="5.85153">
        <ele>1285.351199</ele>
        <time>2025-07-10T07:23:50.000Z</time>
      </trkpt>
      <trkpt lat="44.64318" lon="5.85154">
        <ele>1285.477509</ele>
        <time>2025-07-10T07:23:51.000Z</time>
      </trkpt>
      <trkpt lat="44.64319" lon="5.85155">
        <ele>1285.603819</ele>
        <time>2025-07-10T07:23:52.000Z</time>
      </trkpt>
      <trkpt lat="44.64321" lon="5.85155">
        <ele>1285.725729</ele>
        <time>2025-07-10T07:23:53.000Z</time>
      </trkpt>
      <trkpt lat="44.64322" lon="5.85156">
        <ele>1285.843285</ele>
        <time>2025-07-10T07:23:54.000Z</time>
      </trkpt>
      <trkpt lat="44.64324" lon="5.85156">
        <ele>1285.959281</ele>
        <time>2025-07-10T07:23:55.000Z</time>
      </trkpt>
      <trkpt lat="44.64325" lon="5.85157">
        <ele>1286.073942</ele>
        <time>2025-07-10T07:23:56.000Z</time>
      </trkpt>
      <trkpt lat="44.64327" lon="5.85157">
        <ele>1286.171928</ele>
        <time>2025-07-10T07:23:57.000Z</time>
      </trkpt>
      <trkpt lat="44.64328" lon="5.85157">
        <ele>1286.305808</ele>
        <time>2025-07-10T07:23:58.000Z</time>
      </trkpt>
      <trkpt lat="44.6433" lon="5.85158">
        <ele>1286.428975</ele>
        <time>2025-07-10T07:23:59.000Z</time>
      </trkpt>
      <trkpt lat="44.64332" lon="5.85159">
        <ele>1286.572934</ele>
        <time>2025-07-10T07:24:00.000Z</time>
      </trkpt>
      <trkpt lat="44.64333" lon="5.85159">
        <ele>1286.656026</ele>
        <time>2025-07-10T07:24:01.000Z</time>
      </trkpt>
      <trkpt lat="44.64334" lon="5.8516">
        <ele>1286.776898</ele>
        <time>2025-07-10T07:24:02.000Z</time>
      </trkpt>
      <trkpt lat="44.64336" lon="5.8516">
        <ele>1286.900065</ele>
        <time>2025-07-10T07:24:03.000Z</time>
      </trkpt>
      <trkpt lat="44.64338" lon="5.85161">
        <ele>1287.034883</ele>
        <time>2025-07-10T07:24:04.000Z</time>
      </trkpt>
      <trkpt lat="44.64339" lon="5.85161">
        <ele>1287.162317</ele>
        <time>2025-07-10T07:24:05.000Z</time>
      </trkpt>
      <trkpt lat="44.64341" lon="5.85161">
        <ele>1287.274384</ele>
        <time>2025-07-10T07:24:06.000Z</time>
      </trkpt>
      <trkpt lat="44.64342" lon="5.85162">
        <ele>1287.390381</ele>
        <time>2025-07-10T07:24:07.000Z</time>
      </trkpt>
      <trkpt lat="44.64344" lon="5.85162">
        <ele>1287.518583</ele>
        <time>2025-07-10T07:24:08.000Z</time>
      </trkpt>
      <trkpt lat="44.64346" lon="5.85163">
        <ele>1287.62602</ele>
        <time>2025-07-10T07:24:09.000Z</time>
      </trkpt>
      <trkpt lat="44.64347" lon="5.85163">
        <ele>1287.733458</ele>
        <time>2025-07-10T07:24:10.000Z</time>
      </trkpt>
      <trkpt lat="44.64348" lon="5.85164">
        <ele>1287.837002</ele>
        <time>2025-07-10T07:24:11.000Z</time>
      </trkpt>
      <trkpt lat="44.6435" lon="5.85164">
        <ele>1287.957874</ele>
        <time>2025-07-10T07:24:12.000Z</time>
      </trkpt>
      <trkpt lat="44.64351" lon="5.85165">
        <ele>1288.054509</ele>
        <time>2025-07-10T07:24:13.000Z</time>
      </trkpt>
      <trkpt lat="44.64352" lon="5.85166">
        <ele>1288.160062</ele>
        <time>2025-07-10T07:24:14.000Z</time>
      </trkpt>
      <trkpt lat="44.64354" lon="5.85166">
        <ele>1288.283229</ele>
        <time>2025-07-10T07:24:15.000Z</time>
      </trkpt>
      <trkpt lat="44.64356" lon="5.85167">
        <ele>1288.427002</ele>
        <time>2025-07-10T07:24:16.000Z</time>
      </trkpt>
      <trkpt lat="44.64358" lon="5.85167">
        <ele>1288.569896</ele>
        <time>2025-07-10T07:24:17.000Z</time>
      </trkpt>
      <trkpt lat="44.64359" lon="5.85168">
        <ele>1288.691806</ele>
        <time>2025-07-10T07:24:18.000Z</time>
      </trkpt>
      <trkpt lat="44.64361" lon="5.85168">
        <ele>1288.805363</ele>
        <time>2025-07-10T07:24:19.000Z</time>
      </trkpt>
      <trkpt lat="44.64362" lon="5.85169">
        <ele>1288.920024</ele>
        <time>2025-07-10T07:24:20.000Z</time>
      </trkpt>
      <trkpt lat="44.64364" lon="5.85169">
        <ele>1289.028886</ele>
        <time>2025-07-10T07:24:21.000Z</time>
      </trkpt>
      <trkpt lat="44.64365" lon="5.8517">
        <ele>1289.156321</ele>
        <time>2025-07-10T07:24:22.000Z</time>
      </trkpt>
      <trkpt lat="44.64367" lon="5.8517">
        <ele>1289.270982</ele>
        <time>2025-07-10T07:24:23.000Z</time>
      </trkpt>
      <trkpt lat="44.64369" lon="5.8517">
        <ele>1289.398416</ele>
        <time>2025-07-10T07:24:24.000Z</time>
      </trkpt>
      <trkpt lat="44.6437" lon="5.85171">
        <ele>1289.537326</ele>
        <time>2025-07-10T07:24:25.000Z</time>
      </trkpt>
      <trkpt lat="44.64372" lon="5.85172">
        <ele>1289.672441</ele>
        <time>2025-07-10T07:24:26.000Z</time>
      </trkpt>
      <trkpt lat="44.64374" lon="5.85173">
        <ele>1289.805782</ele>
        <time>2025-07-10T07:24:27.000Z</time>
      </trkpt>
      <trkpt lat="44.64376" lon="5.85174">
        <ele>1289.960444</ele>
        <time>2025-07-10T07:24:28.000Z</time>
      </trkpt>
      <trkpt lat="44.64378" lon="5.85175">
        <ele>1290.095558</ele>
        <time>2025-07-10T07:24:29.000Z</time>
      </trkpt>
      <trkpt lat="44.64379" lon="5.85176">
        <ele>1290.232627</ele>
        <time>2025-07-10T07:24:30.000Z</time>
      </trkpt>
      <trkpt lat="44.64381" lon="5.85176">
        <ele>1290.365968</ele>
        <time>2025-07-10T07:24:31.000Z</time>
      </trkpt>
      <trkpt lat="44.64383" lon="5.85177">
        <ele>1290.504878</ele>
        <time>2025-07-10T07:24:32.000Z</time>
      </trkpt>
      <trkpt lat="44.64385" lon="5.85178">
        <ele>1290.664266</ele>
        <time>2025-07-10T07:24:33.000Z</time>
      </trkpt>
      <trkpt lat="44.64387" lon="5.85179">
        <ele>1290.806365</ele>
        <time>2025-07-10T07:24:34.000Z</time>
      </trkpt>
      <trkpt lat="44.64388" lon="5.8518">
        <ele>1290.941252</ele>
        <time>2025-07-10T07:24:35.000Z</time>
      </trkpt>
      <trkpt lat="44.6439" lon="5.85181">
        <ele>1291.071491</ele>
        <time>2025-07-10T07:24:36.000Z</time>
      </trkpt>
      <trkpt lat="44.64391" lon="5.85181">
        <ele>1291.17775</ele>
        <time>2025-07-10T07:24:37.000Z</time>
      </trkpt>
      <trkpt lat="44.64392" lon="5.85182">
        <ele>1291.275188</ele>
        <time>2025-07-10T07:24:38.000Z</time>
      </trkpt>
      <trkpt lat="44.64394" lon="5.85183">
        <ele>1291.415601</ele>
        <time>2025-07-10T07:24:39.000Z</time>
      </trkpt>
      <trkpt lat="44.64396" lon="5.85184">
        <ele>1291.550716</ele>
        <time>2025-07-10T07:24:40.000Z</time>
      </trkpt>
      <trkpt lat="44.64397" lon="5.85185">
        <ele>1291.6585</ele>
        <time>2025-07-10T07:24:41.000Z</time>
      </trkpt>
      <trkpt lat="44.64399" lon="5.85186">
        <ele>1291.784339</ele>
        <time>2025-07-10T07:24:42.000Z</time>
      </trkpt>
      <trkpt lat="44.644" lon="5.85187">
        <ele>1291.910178</ele>
        <time>2025-07-10T07:24:43.000Z</time>
      </trkpt>
      <trkpt lat="44.64401" lon="5.85188">
        <ele>1292.016736</ele>
        <time>2025-07-10T07:24:44.000Z</time>
      </trkpt>
      <trkpt lat="44.64403" lon="5.85189">
        <ele>1292.146976</ele>
        <time>2025-07-10T07:24:45.000Z</time>
      </trkpt>
      <trkpt lat="44.64404" lon="5.8519">
        <ele>1292.26148</ele>
        <time>2025-07-10T07:24:46.000Z</time>
      </trkpt>
      <trkpt lat="44.64406" lon="5.85191">
        <ele>1292.400677</ele>
        <time>2025-07-10T07:24:47.000Z</time>
      </trkpt>
      <trkpt lat="44.64408" lon="5.85192">
        <ele>1292.539875</ele>
        <time>2025-07-10T07:24:48.000Z</time>
      </trkpt>
      <trkpt lat="44.64409" lon="5.85194">
        <ele>1292.647734</ele>
        <time>2025-07-10T07:24:49.000Z</time>
      </trkpt>
      <trkpt lat="44.6441" lon="5.85195">
        <ele>1292.769545</ele>
        <time>2025-07-10T07:24:50.000Z</time>
      </trkpt>
      <trkpt lat="44.64411" lon="5.85197">
        <ele>1292.888211</ele>
        <time>2025-07-10T07:24:51.000Z</time>
      </trkpt>
      <trkpt lat="44.64413" lon="5.85198">
        <ele>1293.010176</ele>
        <time>2025-07-10T07:24:52.000Z</time>
      </trkpt>
      <trkpt lat="44.64414" lon="5.85199">
        <ele>1293.125855</ele>
        <time>2025-07-10T07:24:53.000Z</time>
      </trkpt>
      <trkpt lat="44.64415" lon="5.852">
        <ele>1293.249335</ele>
        <time>2025-07-10T07:24:54.000Z</time>
      </trkpt>
      <trkpt lat="44.64417" lon="5.85201">
        <ele>1293.3713</ele>
        <time>2025-07-10T07:24:55.000Z</time>
      </trkpt>
      <trkpt lat="44.64419" lon="5.85202">
        <ele>1293.515259</ele>
        <time>2025-07-10T07:24:56.000Z</time>
      </trkpt>
      <trkpt lat="44.6442" lon="5.85203">
        <ele>1293.643631</ele>
        <time>2025-07-10T07:24:57.000Z</time>
      </trkpt>
      <trkpt lat="44.64422" lon="5.85204">
        <ele>1293.776109</ele>
        <time>2025-07-10T07:24:58.000Z</time>
      </trkpt>
      <trkpt lat="44.64423" lon="5.85206">
        <ele>1293.888798</ele>
        <time>2025-07-10T07:24:59.000Z</time>
      </trkpt>
      <trkpt lat="44.64424" lon="5.85207">
        <ele>1294.004793</ele>
        <time>2025-07-10T07:25:00.000Z</time>
      </trkpt>
      <trkpt lat="44.64425" lon="5.85208">
        <ele>1294.123459</ele>
        <time>2025-07-10T07:25:01.000Z</time>
      </trkpt>
      <trkpt lat="44.64427" lon="5.8521">
        <ele>1294.254531</ele>
        <time>2025-07-10T07:25:02.000Z</time>
      </trkpt>
      <trkpt lat="44.64428" lon="5.85211">
        <ele>1294.37963</ele>
        <time>2025-07-10T07:25:03.000Z</time>
      </trkpt>
      <trkpt lat="44.64429" lon="5.85213">
        <ele>1294.493624</ele>
        <time>2025-07-10T07:25:04.000Z</time>
      </trkpt>
      <trkpt lat="44.64431" lon="5.85214">
        <ele>1294.624557</ele>
        <time>2025-07-10T07:25:05.000Z</time>
      </trkpt>
      <trkpt lat="44.64432" lon="5.85216">
        <ele>1294.746368</ele>
        <time>2025-07-10T07:25:06.000Z</time>
      </trkpt>
      <trkpt lat="44.64433" lon="5.85217">
        <ele>1294.853262</ele>
        <time>2025-07-10T07:25:07.000Z</time>
      </trkpt>
      <trkpt lat="44.64434" lon="5.85218">
        <ele>1294.972557</ele>
        <time>2025-07-10T07:25:08.000Z</time>
      </trkpt>
      <trkpt lat="44.64436" lon="5.85219">
        <ele>1295.088552</ele>
        <time>2025-07-10T07:25:09.000Z</time>
      </trkpt>
      <trkpt lat="44.64437" lon="5.85221">
        <ele>1295.207218</ele>
        <time>2025-07-10T07:25:10.000Z</time>
      </trkpt>
      <trkpt lat="44.64438" lon="5.85222">
        <ele>1295.329182</ele>
        <time>2025-07-10T07:25:11.000Z</time>
      </trkpt>
      <trkpt lat="44.6444" lon="5.85223">
        <ele>1295.450489</ele>
        <time>2025-07-10T07:25:12.000Z</time>
      </trkpt>
      <trkpt lat="44.64441" lon="5.85224">
        <ele>1295.55425</ele>
        <time>2025-07-10T07:25:13.000Z</time>
      </trkpt>
      <trkpt lat="44.64442" lon="5.85225">
        <ele>1295.669929</ele>
        <time>2025-07-10T07:25:14.000Z</time>
      </trkpt>
      <trkpt lat="44.64444" lon="5.85226">
        <ele>1295.780154</ele>
        <time>2025-07-10T07:25:15.000Z</time>
      </trkpt>
      <trkpt lat="44.64445" lon="5.85227">
        <ele>1295.899449</ele>
        <time>2025-07-10T07:25:16.000Z</time>
      </trkpt>
      <trkpt lat="44.64447" lon="5.85228">
        <ele>1296.025288</ele>
        <time>2025-07-10T07:25:17.000Z</time>
      </trkpt>
      <trkpt lat="44.64448" lon="5.85229">
        <ele>1296.135512</ele>
        <time>2025-07-10T07:25:18.000Z</time>
      </trkpt>
      <trkpt lat="44.64449" lon="5.8523">
        <ele>1296.234296</ele>
        <time>2025-07-10T07:25:19.000Z</time>
      </trkpt>
      <trkpt lat="44.64451" lon="5.85231">
        <ele>1296.355603</ele>
        <time>2025-07-10T07:25:20.000Z</time>
      </trkpt>
      <trkpt lat="44.64452" lon="5.85232">
        <ele>1296.463387</ele>
        <time>2025-07-10T07:25:21.000Z</time>
      </trkpt>
      <trkpt lat="44.64453" lon="5.85233">
        <ele>1296.560022</ele>
        <time>2025-07-10T07:25:22.000Z</time>
      </trkpt>
      <trkpt lat="44.64454" lon="5.85233">
        <ele>1296.670543</ele>
        <time>2025-07-10T07:25:23.000Z</time>
      </trkpt>
      <trkpt lat="44.64456" lon="5.85234">
        <ele>1296.798724</ele>
        <time>2025-07-10T07:25:24.000Z</time>
      </trkpt>
      <trkpt lat="44.64458" lon="5.85235">
        <ele>1296.932065</ele>
        <time>2025-07-10T07:25:25.000Z</time>
      </trkpt>
      <trkpt lat="44.64459" lon="5.85236">
        <ele>1297.063821</ele>
        <time>2025-07-10T07:25:26.000Z</time>
      </trkpt>
      <trkpt lat="44.64461" lon="5.85237">
        <ele>1297.185128</ele>
        <time>2025-07-10T07:25:27.000Z</time>
      </trkpt>
      <trkpt lat="44.64462" lon="5.85237">
        <ele>1297.301124</ele>
        <time>2025-07-10T07:25:28.000Z</time>
      </trkpt>
      <trkpt lat="44.64464" lon="5.85238">
        <ele>1297.413529</ele>
        <time>2025-07-10T07:25:29.000Z</time>
      </trkpt>
      <trkpt lat="44.64465" lon="5.85239">
        <ele>1297.53701</ele>
        <time>2025-07-10T07:25:30.000Z</time>
      </trkpt>
      <trkpt lat="44.64467" lon="5.8524">
        <ele>1297.661646</ele>
        <time>2025-07-10T07:25:31.000Z</time>
      </trkpt>
      <trkpt lat="44.64469" lon="5.8524">
        <ele>1297.807737</ele>
        <time>2025-07-10T07:25:32.000Z</time>
      </trkpt>
      <trkpt lat="44.64471" lon="5.85241">
        <ele>1297.953724</ele>
        <time>2025-07-10T07:25:33.000Z</time>
      </trkpt>
      <trkpt lat="44.64472" lon="5.85242">
        <ele>1298.094138</ele>
        <time>2025-07-10T07:25:34.000Z</time>
      </trkpt>
      <trkpt lat="44.64474" lon="5.85243">
        <ele>1298.233047</ele>
        <time>2025-07-10T07:25:35.000Z</time>
      </trkpt>
      <trkpt lat="44.64476" lon="5.85244">
        <ele>1298.364804</ele>
        <time>2025-07-10T07:25:36.000Z</time>
      </trkpt>
      <trkpt lat="44.64478" lon="5.85245">
        <ele>1298.499918</ele>
        <time>2025-07-10T07:25:37.000Z</time>
      </trkpt>
      <trkpt lat="44.6448" lon="5.85245">
        <ele>1298.650561</ele>
        <time>2025-07-10T07:25:38.000Z</time>
      </trkpt>
      <trkpt lat="44.64482" lon="5.85246">
        <ele>1298.793632</ele>
        <time>2025-07-10T07:25:39.000Z</time>
      </trkpt>
      <trkpt lat="44.64484" lon="5.85247">
        <ele>1298.932544</ele>
        <time>2025-07-10T07:25:40.000Z</time>
      </trkpt>
      <trkpt lat="44.64486" lon="5.85248">
        <ele>1299.090206</ele>
        <time>2025-07-10T07:25:41.000Z</time>
      </trkpt>
      <trkpt lat="44.64488" lon="5.85249">
        <ele>1299.251117</ele>
        <time>2025-07-10T07:25:42.000Z</time>
      </trkpt>
      <trkpt lat="44.6449" lon="5.85249">
        <ele>1299.402157</ele>
        <time>2025-07-10T07:25:43.000Z</time>
      </trkpt>
      <trkpt lat="44.64493" lon="5.8525">
        <ele>1299.547619</ele>
        <time>2025-07-10T07:25:44.000Z</time>
      </trkpt>
      <trkpt lat="44.64494" lon="5.85251">
        <ele>1299.681297</ele>
        <time>2025-07-10T07:25:45.000Z</time>
      </trkpt>
      <trkpt lat="44.64496" lon="5.85251">
        <ele>1299.821445</ele>
        <time>2025-07-10T07:25:46.000Z</time>
      </trkpt>
      <trkpt lat="44.64499" lon="5.85252">
        <ele>1299.970883</ele>
        <time>2025-07-10T07:25:47.000Z</time>
      </trkpt>
      <trkpt lat="44.64501" lon="5.85253">
        <ele>1300.112419</ele>
        <time>2025-07-10T07:25:48.000Z</time>
      </trkpt>
      <trkpt lat="44.64502" lon="5.85254">
        <ele>1300.246097</ele>
        <time>2025-07-10T07:25:49.000Z</time>
      </trkpt>
      <trkpt lat="44.64505" lon="5.85255">
        <ele>1300.391558</ele>
        <time>2025-07-10T07:25:50.000Z</time>
      </trkpt>
      <trkpt lat="44.64507" lon="5.85256">
        <ele>1300.537019</ele>
        <time>2025-07-10T07:25:51.000Z</time>
      </trkpt>
      <trkpt lat="44.64508" lon="5.85256">
        <ele>1300.6617</ele>
        <time>2025-07-10T07:25:52.000Z</time>
      </trkpt>
      <trkpt lat="44.64511" lon="5.85256">
        <ele>1300.810286</ele>
        <time>2025-07-10T07:25:53.000Z</time>
      </trkpt>
      <trkpt lat="44.64513" lon="5.85257">
        <ele>1300.945847</ele>
        <time>2025-07-10T07:25:54.000Z</time>
      </trkpt>
      <trkpt lat="44.64515" lon="5.85257">
        <ele>1301.074261</ele>
        <time>2025-07-10T07:25:55.000Z</time>
      </trkpt>
      <trkpt lat="44.64516" lon="5.85258">
        <ele>1301.200135</ele>
        <time>2025-07-10T07:25:56.000Z</time>
      </trkpt>
      <trkpt lat="44.64518" lon="5.85258">
        <ele>1301.328899</ele>
        <time>2025-07-10T07:25:57.000Z</time>
      </trkpt>
      <trkpt lat="44.6452" lon="5.85259">
        <ele>1301.461281</ele>
        <time>2025-07-10T07:25:58.000Z</time>
      </trkpt>
      <trkpt lat="44.64522" lon="5.8526">
        <ele>1301.593663</ele>
        <time>2025-07-10T07:25:59.000Z</time>
      </trkpt>
      <trkpt lat="44.64524" lon="5.8526">
        <ele>1301.718344</ele>
        <time>2025-07-10T07:26:00.000Z</time>
      </trkpt>
      <trkpt lat="44.64525" lon="5.85261">
        <ele>1301.835402</ele>
        <time>2025-07-10T07:26:01.000Z</time>
      </trkpt>
      <trkpt lat="44.64527" lon="5.85261">
        <ele>1301.945871</ele>
        <time>2025-07-10T07:26:02.000Z</time>
      </trkpt>
      <trkpt lat="44.64529" lon="5.85262">
        <ele>1302.048772</ele>
        <time>2025-07-10T07:26:03.000Z</time>
      </trkpt>
      <trkpt lat="44.6453" lon="5.85262">
        <ele>1302.164247</ele>
        <time>2025-07-10T07:26:04.000Z</time>
      </trkpt>
      <trkpt lat="44.64532" lon="5.85263">
        <ele>1302.270771</ele>
        <time>2025-07-10T07:26:05.000Z</time>
      </trkpt>
      <trkpt lat="44.64534" lon="5.85264">
        <ele>1302.404449</ele>
        <time>2025-07-10T07:26:06.000Z</time>
      </trkpt>
      <trkpt lat="44.64535" lon="5.85265">
        <ele>1302.533213</ele>
        <time>2025-07-10T07:26:07.000Z</time>
      </trkpt>
      <trkpt lat="44.64537" lon="5.85266">
        <ele>1302.641312</ele>
        <time>2025-07-10T07:26:08.000Z</time>
      </trkpt>
      <trkpt lat="44.64538" lon="5.85266">
        <ele>1302.754252</ele>
        <time>2025-07-10T07:26:09.000Z</time>
      </trkpt>
      <trkpt lat="44.6454" lon="5.85267">
        <ele>1302.8855</ele>
        <time>2025-07-10T07:26:10.000Z</time>
      </trkpt>
      <trkpt lat="44.64542" lon="5.85268">
        <ele>1303.010181</ele>
        <time>2025-07-10T07:26:11.000Z</time>
      </trkpt>
      <trkpt lat="44.64544" lon="5.85268">
        <ele>1303.129573</ele>
        <time>2025-07-10T07:26:12.000Z</time>
      </trkpt>
      <trkpt lat="44.64546" lon="5.85269">
        <ele>1303.260821</ele>
        <time>2025-07-10T07:26:13.000Z</time>
      </trkpt>
      <trkpt lat="44.64547" lon="5.8527">
        <ele>1303.367344</ele>
        <time>2025-07-10T07:26:14.000Z</time>
      </trkpt>
      <trkpt lat="44.64549" lon="5.8527">
        <ele>1303.485478</ele>
        <time>2025-07-10T07:26:15.000Z</time>
      </trkpt>
      <trkpt lat="44.64551" lon="5.85271">
        <ele>1303.617859</ele>
        <time>2025-07-10T07:26:16.000Z</time>
      </trkpt>
      <trkpt lat="44.64553" lon="5.85272">
        <ele>1303.764501</ele>
        <time>2025-07-10T07:26:17.000Z</time>
      </trkpt>
      <trkpt lat="44.64555" lon="5.85272">
        <ele>1303.903413</ele>
        <time>2025-07-10T07:26:18.000Z</time>
      </trkpt>
      <trkpt lat="44.64557" lon="5.85273">
        <ele>1304.029287</ele>
        <time>2025-07-10T07:26:19.000Z</time>
      </trkpt>
      <trkpt lat="44.64559" lon="5.85274">
        <ele>1304.168199</ele>
        <time>2025-07-10T07:26:20.000Z</time>
      </trkpt>
      <trkpt lat="44.6456" lon="5.85275">
        <ele>1304.286216</ele>
        <time>2025-07-10T07:26:21.000Z</time>
      </trkpt>
      <trkpt lat="44.64562" lon="5.85275">
        <ele>1304.41209</ele>
        <time>2025-07-10T07:26:22.000Z</time>
      </trkpt>
      <trkpt lat="44.64564" lon="5.85276">
        <ele>1304.540854</ele>
        <time>2025-07-10T07:26:23.000Z</time>
      </trkpt>
      <trkpt lat="44.64566" lon="5.85277">
        <ele>1304.674532</ele>
        <time>2025-07-10T07:26:24.000Z</time>
      </trkpt>
      <trkpt lat="44.64568" lon="5.85278">
        <ele>1304.810686</ele>
        <time>2025-07-10T07:26:25.000Z</time>
      </trkpt>
      <trkpt lat="44.6457" lon="5.85278">
        <ele>1304.928819</ele>
        <time>2025-07-10T07:26:26.000Z</time>
      </trkpt>
      <trkpt lat="44.64571" lon="5.85279">
        <ele>1305.056056</ele>
        <time>2025-07-10T07:26:27.000Z</time>
      </trkpt>
      <trkpt lat="44.64573" lon="5.8528">
        <ele>1305.196446</ele>
        <time>2025-07-10T07:26:28.000Z</time>
      </trkpt>
      <trkpt lat="44.64575" lon="5.85281">
        <ele>1305.334939</ele>
        <time>2025-07-10T07:26:29.000Z</time>
      </trkpt>
      <trkpt lat="44.64577" lon="5.85282">
        <ele>1305.451091</ele>
        <time>2025-07-10T07:26:30.000Z</time>
      </trkpt>
      <trkpt lat="44.64579" lon="5.85283">
        <ele>1305.574753</ele>
        <time>2025-07-10T07:26:31.000Z</time>
      </trkpt>
      <trkpt lat="44.6458" lon="5.85283">
        <ele>1305.691811</ele>
        <time>2025-07-10T07:26:32.000Z</time>
      </trkpt>
      <trkpt lat="44.64582" lon="5.85284">
        <ele>1305.815474</ele>
        <time>2025-07-10T07:26:33.000Z</time>
      </trkpt>
      <trkpt lat="44.64584" lon="5.85284">
        <ele>1305.936301</ele>
        <time>2025-07-10T07:26:34.000Z</time>
      </trkpt>
      <trkpt lat="44.64585" lon="5.85285">
        <ele>1306.049241</ele>
        <time>2025-07-10T07:26:35.000Z</time>
      </trkpt>
      <trkpt lat="44.64587" lon="5.85286">
        <ele>1306.176477</ele>
        <time>2025-07-10T07:26:36.000Z</time>
      </trkpt>
      <trkpt lat="44.64589" lon="5.85287">
        <ele>1306.316625</ele>
        <time>2025-07-10T07:26:37.000Z</time>
      </trkpt>
      <trkpt lat="44.64591" lon="5.85288">
        <ele>1306.464594</ele>
        <time>2025-07-10T07:26:38.000Z</time>
      </trkpt>
      <trkpt lat="44.64593" lon="5.85289">
        <ele>1306.601333</ele>
        <time>2025-07-10T07:26:39.000Z</time>
      </trkpt>
      <trkpt lat="44.64595" lon="5.85289">
        <ele>1306.722161</ele>
        <time>2025-07-10T07:26:40.000Z</time>
      </trkpt>
      <trkpt lat="44.64597" lon="5.8529">
        <ele>1306.848034</ele>
        <time>2025-07-10T07:26:41.000Z</time>
      </trkpt>
      <trkpt lat="44.64599" lon="5.85291">
        <ele>1306.993496</ele>
        <time>2025-07-10T07:26:42.000Z</time>
      </trkpt>
      <trkpt lat="44.64601" lon="5.85292">
        <ele>1307.125877</ele>
        <time>2025-07-10T07:26:43.000Z</time>
      </trkpt>
      <trkpt lat="44.64603" lon="5.85292">
        <ele>1307.258259</ele>
        <time>2025-07-10T07:26:44.000Z</time>
      </trkpt>
      <trkpt lat="44.64605" lon="5.85293">
        <ele>1307.40372</ele>
        <time>2025-07-10T07:26:45.000Z</time>
      </trkpt>
      <trkpt lat="44.64607" lon="5.85293">
        <ele>1307.540632</ele>
        <time>2025-07-10T07:26:46.000Z</time>
      </trkpt>
      <trkpt lat="44.64608" lon="5.85294">
        <ele>1307.665313</ele>
        <time>2025-07-10T07:26:47.000Z</time>
      </trkpt>
      <trkpt lat="44.6461" lon="5.85295">
        <ele>1307.795594</ele>
        <time>2025-07-10T07:26:48.000Z</time>
      </trkpt>
      <trkpt lat="44.64612" lon="5.85295">
        <ele>1307.926842</ele>
        <time>2025-07-10T07:26:49.000Z</time>
      </trkpt>
      <trkpt lat="44.64614" lon="5.85296">
        <ele>1308.047669</ele>
        <time>2025-07-10T07:26:50.000Z</time>
      </trkpt>
      <trkpt lat="44.64616" lon="5.85296">
        <ele>1308.18458</ele>
        <time>2025-07-10T07:26:51.000Z</time>
      </trkpt>
      <trkpt lat="44.64618" lon="5.85297">
        <ele>1308.308243</ele>
        <time>2025-07-10T07:26:52.000Z</time>
      </trkpt>
      <trkpt lat="44.64619" lon="5.85298">
        <ele>1308.426376</ele>
        <time>2025-07-10T07:26:53.000Z</time>
      </trkpt>
      <trkpt lat="44.64621" lon="5.85298">
        <ele>1308.539316</ele>
        <time>2025-07-10T07:26:54.000Z</time>
      </trkpt>
      <trkpt lat="44.64623" lon="5.85299">
        <ele>1308.647446</ele>
        <time>2025-07-10T07:26:55.000Z</time>
      </trkpt>
      <trkpt lat="44.64624" lon="5.853">
        <ele>1308.766837</ele>
        <time>2025-07-10T07:26:56.000Z</time>
      </trkpt>
      <trkpt lat="44.64626" lon="5.853">
        <ele>1308.905749</ele>
        <time>2025-07-10T07:26:57.000Z</time>
      </trkpt>
      <trkpt lat="44.64628" lon="5.85301">
        <ele>1309.047285</ele>
        <time>2025-07-10T07:26:58.000Z</time>
      </trkpt>
      <trkpt lat="44.6463" lon="5.85302">
        <ele>1309.187432</ele>
        <time>2025-07-10T07:26:59.000Z</time>
      </trkpt>
      <trkpt lat="44.64632" lon="5.85303">
        <ele>1309.30826</ele>
        <time>2025-07-10T07:27:00.000Z</time>
      </trkpt>
      <trkpt lat="44.64634" lon="5.85304">
        <ele>1309.434134</ele>
        <time>2025-07-10T07:27:01.000Z</time>
      </trkpt>
      <trkpt lat="44.64636" lon="5.85304">
        <ele>1309.571965</ele>
        <time>2025-07-10T07:27:02.000Z</time>
      </trkpt>
      <trkpt lat="44.64638" lon="5.85305">
        <ele>1309.696646</ele>
        <time>2025-07-10T07:27:03.000Z</time>
      </trkpt>
      <trkpt lat="44.64639" lon="5.85305">
        <ele>1309.808255</ele>
        <time>2025-07-10T07:27:04.000Z</time>
      </trkpt>
      <trkpt lat="44.6464" lon="5.85306">
        <ele>1309.892611</ele>
        <time>2025-07-10T07:27:05.000Z</time>
      </trkpt>
      <trkpt lat="44.64642" lon="5.85306">
        <ele>1310.009669</ele>
        <time>2025-07-10T07:27:06.000Z</time>
      </trkpt>
      <trkpt lat="44.64644" lon="5.85307">
        <ele>1310.132492</ele>
        <time>2025-07-10T07:27:07.000Z</time>
      </trkpt>
      <trkpt lat="44.64646" lon="5.85307">
        <ele>1310.247469</ele>
        <time>2025-07-10T07:27:08.000Z</time>
      </trkpt>
      <trkpt lat="44.64647" lon="5.85308">
        <ele>1310.360408</ele>
        <time>2025-07-10T07:27:09.000Z</time>
      </trkpt>
      <trkpt lat="44.64649" lon="5.85309">
        <ele>1310.474865</ele>
        <time>2025-07-10T07:27:10.000Z</time>
      </trkpt>
      <trkpt lat="44.64651" lon="5.85309">
        <ele>1310.598527</ele>
        <time>2025-07-10T07:27:11.000Z</time>
      </trkpt>
      <trkpt lat="44.64653" lon="5.85309">
        <ele>1310.734743</ele>
        <time>2025-07-10T07:27:12.000Z</time>
      </trkpt>
      <trkpt lat="44.64654" lon="5.8531">
        <ele>1310.876441</ele>
        <time>2025-07-10T07:27:13.000Z</time>
      </trkpt>
      <trkpt lat="44.64656" lon="5.85311">
        <ele>1311.001988</ele>
        <time>2025-07-10T07:27:14.000Z</time>
      </trkpt>
      <trkpt lat="44.64658" lon="5.85311">
        <ele>1311.130341</ele>
        <time>2025-07-10T07:27:15.000Z</time>
      </trkpt>
      <trkpt lat="44.64659" lon="5.85312">
        <ele>1311.266028</ele>
        <time>2025-07-10T07:27:16.000Z</time>
      </trkpt>
      <trkpt lat="44.64661" lon="5.85313">
        <ele>1311.407725</ele>
        <time>2025-07-10T07:27:17.000Z</time>
      </trkpt>
      <trkpt lat="44.64663" lon="5.85313">
        <ele>1311.554882</ele>
        <time>2025-07-10T07:27:18.000Z</time>
      </trkpt>
      <trkpt lat="44.64665" lon="5.85313">
        <ele>1311.702944</ele>
        <time>2025-07-10T07:27:19.000Z</time>
      </trkpt>
      <trkpt lat="44.64667" lon="5.85314">
        <ele>1311.8372</ele>
        <time>2025-07-10T07:27:20.000Z</time>
      </trkpt>
      <trkpt lat="44.64668" lon="5.85315">
        <ele>1311.960088</ele>
        <time>2025-07-10T07:27:21.000Z</time>
      </trkpt>
      <trkpt lat="44.64669" lon="5.85315">
        <ele>1312.072197</ele>
        <time>2025-07-10T07:27:22.000Z</time>
      </trkpt>
      <trkpt lat="44.64671" lon="5.85316">
        <ele>1312.182839</ele>
        <time>2025-07-10T07:27:23.000Z</time>
      </trkpt>
      <trkpt lat="44.64672" lon="5.85317">
        <ele>1312.296657</ele>
        <time>2025-07-10T07:27:24.000Z</time>
      </trkpt>
      <trkpt lat="44.64674" lon="5.85317">
        <ele>1312.417719</ele>
        <time>2025-07-10T07:27:25.000Z</time>
      </trkpt>
      <trkpt lat="44.64675" lon="5.85318">
        <ele>1312.549723</ele>
        <time>2025-07-10T07:27:26.000Z</time>
      </trkpt>
      <trkpt lat="44.64677" lon="5.85319">
        <ele>1312.685409</ele>
        <time>2025-07-10T07:27:27.000Z</time>
      </trkpt>
      <trkpt lat="44.64679" lon="5.8532">
        <ele>1312.83457</ele>
        <time>2025-07-10T07:27:28.000Z</time>
      </trkpt>
      <trkpt lat="44.64681" lon="5.8532">
        <ele>1313.006225</ele>
        <time>2025-07-10T07:27:29.000Z</time>
      </trkpt>
      <trkpt lat="44.64683" lon="5.85321">
        <ele>1313.158147</ele>
        <time>2025-07-10T07:27:30.000Z</time>
      </trkpt>
      <trkpt lat="44.64685" lon="5.85322">
        <ele>1313.292404</ele>
        <time>2025-07-10T07:27:31.000Z</time>
      </trkpt>
      <trkpt lat="44.64686" lon="5.85322">
        <ele>1313.42364</ele>
        <time>2025-07-10T07:27:32.000Z</time>
      </trkpt>
      <trkpt lat="44.64688" lon="5.85323">
        <ele>1313.559326</ele>
        <time>2025-07-10T07:27:33.000Z</time>
      </trkpt>
      <trkpt lat="44.6469" lon="5.85324">
        <ele>1313.700483</ele>
        <time>2025-07-10T07:27:34.000Z</time>
      </trkpt>
      <trkpt lat="44.64692" lon="5.85324">
        <ele>1313.843537</ele>
        <time>2025-07-10T07:27:35.000Z</time>
      </trkpt>
      <trkpt lat="44.64693" lon="5.85325">
        <ele>1313.983123</ele>
        <time>2025-07-10T07:27:36.000Z</time>
      </trkpt>
      <trkpt lat="44.64695" lon="5.85325">
        <ele>1314.118809</ele>
        <time>2025-07-10T07:27:37.000Z</time>
      </trkpt>
      <trkpt lat="44.64697" lon="5.85326">
        <ele>1314.259349</ele>
        <time>2025-07-10T07:27:38.000Z</time>
      </trkpt>
      <trkpt lat="44.64699" lon="5.85326">
        <ele>1314.399889</ele>
        <time>2025-07-10T07:27:39.000Z</time>
      </trkpt>
      <trkpt lat="44.64701" lon="5.85327">
        <ele>1314.54583</ele>
        <time>2025-07-10T07:27:40.000Z</time>
      </trkpt>
      <trkpt lat="44.64702" lon="5.85327">
        <ele>1314.671377</ele>
        <time>2025-07-10T07:27:41.000Z</time>
      </trkpt>
      <trkpt lat="44.64704" lon="5.85328">
        <ele>1314.79973</ele>
        <time>2025-07-10T07:27:42.000Z</time>
      </trkpt>
      <trkpt lat="44.64706" lon="5.85328">
        <ele>1314.932765</ele>
        <time>2025-07-10T07:27:43.000Z</time>
      </trkpt>
      <trkpt lat="44.64707" lon="5.85328">
        <ele>1315.071068</ele>
        <time>2025-07-10T07:27:44.000Z</time>
      </trkpt>
      <trkpt lat="44.64709" lon="5.85329">
        <ele>1315.196615</ele>
        <time>2025-07-10T07:27:45.000Z</time>
      </trkpt>
      <trkpt lat="44.64711" lon="5.85329">
        <ele>1315.337155</ele>
        <time>2025-07-10T07:27:46.000Z</time>
      </trkpt>
      <trkpt lat="44.64713" lon="5.8533">
        <ele>1315.475994</ele>
        <time>2025-07-10T07:27:47.000Z</time>
      </trkpt>
      <trkpt lat="44.64714" lon="5.8533">
        <ele>1315.616535</ele>
        <time>2025-07-10T07:27:48.000Z</time>
      </trkpt>
      <trkpt lat="44.64716" lon="5.85331">
        <ele>1315.725009</ele>
        <time>2025-07-10T07:27:49.000Z</time>
      </trkpt>
      <trkpt lat="44.64717" lon="5.85331">
        <ele>1315.848648</ele>
        <time>2025-07-10T07:27:50.000Z</time>
      </trkpt>
      <trkpt lat="44.64719" lon="5.85331">
        <ele>1315.987488</ele>
        <time>2025-07-10T07:27:51.000Z</time>
      </trkpt>
      <trkpt lat="44.64721" lon="5.85331">
        <ele>1316.125469</ele>
        <time>2025-07-10T07:27:52.000Z</time>
      </trkpt>
      <trkpt lat="44.64723" lon="5.85331">
        <ele>1316.255683</ele>
        <time>2025-07-10T07:27:53.000Z</time>
      </trkpt>
      <trkpt lat="44.64724" lon="5.85332">
        <ele>1316.394522</ele>
        <time>2025-07-10T07:27:54.000Z</time>
      </trkpt>
      <trkpt lat="44.64726" lon="5.85332">
        <ele>1316.506631</ele>
        <time>2025-07-10T07:27:55.000Z</time>
      </trkpt>
      <trkpt lat="44.64727" lon="5.85333">
        <ele>1316.61874</ele>
        <time>2025-07-10T07:27:56.000Z</time>
      </trkpt>
      <trkpt lat="44.64729" lon="5.85333">
        <ele>1316.743218</ele>
        <time>2025-07-10T07:27:57.000Z</time>
      </trkpt>
      <trkpt lat="44.64731" lon="5.85334">
        <ele>1316.875244</ele>
        <time>2025-07-10T07:27:58.000Z</time>
      </trkpt>
      <trkpt lat="44.64732" lon="5.85334">
        <ele>1317.008278</ele>
        <time>2025-07-10T07:27:59.000Z</time>
      </trkpt>
      <trkpt lat="44.64734" lon="5.85335">
        <ele>1317.135119</ele>
        <time>2025-07-10T07:28:00.000Z</time>
      </trkpt>
      <trkpt lat="44.64736" lon="5.85335">
        <ele>1317.266355</ele>
        <time>2025-07-10T07:28:01.000Z</time>
      </trkpt>
      <trkpt lat="44.64737" lon="5.85335">
        <ele>1317.383299</ele>
        <time>2025-07-10T07:28:02.000Z</time>
      </trkpt>
      <trkpt lat="44.64739" lon="5.85336">
        <ele>1317.529747</ele>
        <time>2025-07-10T07:28:03.000Z</time>
      </trkpt>
      <trkpt lat="44.64741" lon="5.85336">
        <ele>1317.669333</ele>
        <time>2025-07-10T07:28:04.000Z</time>
      </trkpt>
      <trkpt lat="44.64742" lon="5.85336">
        <ele>1317.793811</ele>
        <time>2025-07-10T07:28:05.000Z</time>
      </trkpt>
      <trkpt lat="44.64744" lon="5.85336">
        <ele>1317.931684</ele>
        <time>2025-07-10T07:28:06.000Z</time>
      </trkpt>
      <trkpt lat="44.64746" lon="5.85337">
        <ele>1318.070524</ele>
        <time>2025-07-10T07:28:07.000Z</time>
      </trkpt>
      <trkpt lat="44.64748" lon="5.85337">
        <ele>1318.193078</ele>
        <time>2025-07-10T07:28:08.000Z</time>
      </trkpt>
      <trkpt lat="44.64749" lon="5.85337">
        <ele>1318.308102</ele>
        <time>2025-07-10T07:28:09.000Z</time>
      </trkpt>
      <trkpt lat="44.64751" lon="5.85336">
        <ele>1318.43114</ele>
        <time>2025-07-10T07:28:10.000Z</time>
      </trkpt>
      <trkpt lat="44.64752" lon="5.85337">
        <ele>1318.55478</ele>
        <time>2025-07-10T07:28:11.000Z</time>
      </trkpt>
      <trkpt lat="44.64754" lon="5.85337">
        <ele>1318.671724</ele>
        <time>2025-07-10T07:28:12.000Z</time>
      </trkpt>
      <trkpt lat="44.64755" lon="5.85338">
        <ele>1318.789805</ele>
        <time>2025-07-10T07:28:13.000Z</time>
      </trkpt>
      <trkpt lat="44.64757" lon="5.85338">
        <ele>1318.900447</ele>
        <time>2025-07-10T07:28:14.000Z</time>
      </trkpt>
      <trkpt lat="44.64758" lon="5.85339">
        <ele>1319.009875</ele>
        <time>2025-07-10T07:28:15.000Z</time>
      </trkpt>
      <trkpt lat="44.6476" lon="5.85339">
        <ele>1319.133515</ele>
        <time>2025-07-10T07:28:16.000Z</time>
      </trkpt>
      <trkpt lat="44.64761" lon="5.8534">
        <ele>1319.263592</ele>
        <time>2025-07-10T07:28:17.000Z</time>
      </trkpt>
      <trkpt lat="44.64763" lon="5.8534">
        <ele>1319.396626</ele>
        <time>2025-07-10T07:28:18.000Z</time>
      </trkpt>
      <trkpt lat="44.64765" lon="5.85341">
        <ele>1319.523467</ele>
        <time>2025-07-10T07:28:19.000Z</time>
      </trkpt>
      <trkpt lat="44.64766" lon="5.85341">
        <ele>1319.646505</ele>
        <time>2025-07-10T07:28:20.000Z</time>
      </trkpt>
      <trkpt lat="44.64768" lon="5.85341">
        <ele>1319.754293</ele>
        <time>2025-07-10T07:28:21.000Z</time>
      </trkpt>
      <trkpt lat="44.64769" lon="5.85341">
        <ele>1319.869703</ele>
        <time>2025-07-10T07:28:22.000Z</time>
      </trkpt>
      <trkpt lat="44.64771" lon="5.85342">
        <ele>1319.994181</ele>
        <time>2025-07-10T07:28:23.000Z</time>
      </trkpt>
      <trkpt lat="44.64772" lon="5.85342">
        <ele>1320.117821</ele>
        <time>2025-07-10T07:28:24.000Z</time>
      </trkpt>
      <trkpt lat="44.64774" lon="5.85342">
        <ele>1320.227248</ele>
        <time>2025-07-10T07:28:25.000Z</time>
      </trkpt>
      <trkpt lat="44.64775" lon="5.85343">
        <ele>1320.335722</ele>
        <time>2025-07-10T07:28:26.000Z</time>
      </trkpt>
      <trkpt lat="44.64776" lon="5.85343">
        <ele>1320.444196</ele>
        <time>2025-07-10T07:28:27.000Z</time>
      </trkpt>
      <trkpt lat="44.64778" lon="5.85343">
        <ele>1320.553624</ele>
        <time>2025-07-10T07:28:28.000Z</time>
      </trkpt>
      <trkpt lat="44.6478" lon="5.85344">
        <ele>1320.686658</ele>
        <time>2025-07-10T07:28:29.000Z</time>
      </trkpt>
      <trkpt lat="44.64781" lon="5.85345">
        <ele>1320.820914</ele>
        <time>2025-07-10T07:28:30.000Z</time>
      </trkpt>
      <trkpt lat="44.64783" lon="5.85345">
        <ele>1320.955171</ele>
        <time>2025-07-10T07:28:31.000Z</time>
      </trkpt>
      <trkpt lat="44.64784" lon="5.85345">
        <ele>1321.071222</ele>
        <time>2025-07-10T07:28:32.000Z</time>
      </trkpt>
      <trkpt lat="44.64786" lon="5.85345">
        <ele>1321.201436</ele>
        <time>2025-07-10T07:28:33.000Z</time>
      </trkpt>
      <trkpt lat="44.64788" lon="5.85346">
        <ele>1321.31646</ele>
        <time>2025-07-10T07:28:34.000Z</time>
      </trkpt>
      <trkpt lat="44.64789" lon="5.85345">
        <ele>1321.439498</ele>
        <time>2025-07-10T07:28:35.000Z</time>
      </trkpt>
      <trkpt lat="44.64791" lon="5.85345">
        <ele>1321.577372</ele>
        <time>2025-07-10T07:28:36.000Z</time>
      </trkpt>
      <trkpt lat="44.64793" lon="5.85346">
        <ele>1321.694316</ele>
        <time>2025-07-10T07:28:37.000Z</time>
      </trkpt>
      <trkpt lat="44.64794" lon="5.85346">
        <ele>1321.80279</ele>
        <time>2025-07-10T07:28:38.000Z</time>
      </trkpt>
      <trkpt lat="44.64795" lon="5.85346">
        <ele>1321.918841</ele>
        <time>2025-07-10T07:28:39.000Z</time>
      </trkpt>
      <trkpt lat="44.64797" lon="5.85346">
        <ele>1322.041517</ele>
        <time>2025-07-10T07:28:40.000Z</time>
      </trkpt>
      <trkpt lat="44.64799" lon="5.85347">
        <ele>1322.156927</ele>
        <time>2025-07-10T07:28:41.000Z</time>
      </trkpt>
      <trkpt lat="44.648" lon="5.85347">
        <ele>1322.26757</ele>
        <time>2025-07-10T07:28:42.000Z</time>
      </trkpt>
      <trkpt lat="44.64801" lon="5.85348">
        <ele>1322.376998</ele>
        <time>2025-07-10T07:28:43.000Z</time>
      </trkpt>
      <trkpt lat="44.64803" lon="5.85348">
        <ele>1322.495079</ele>
        <time>2025-07-10T07:28:44.000Z</time>
      </trkpt>
      <trkpt lat="44.64804" lon="5.85349">
        <ele>1322.614535</ele>
        <time>2025-07-10T07:28:45.000Z</time>
      </trkpt>
      <trkpt lat="44.64806" lon="5.85349">
        <ele>1322.728352</ele>
        <time>2025-07-10T07:28:46.000Z</time>
      </trkpt>
      <trkpt lat="44.64807" lon="5.8535">
        <ele>1322.85124</ele>
        <time>2025-07-10T07:28:47.000Z</time>
      </trkpt>
      <trkpt lat="44.64809" lon="5.85351">
        <ele>1322.978081</ele>
        <time>2025-07-10T07:28:48.000Z</time>
      </trkpt>
      <trkpt lat="44.6481" lon="5.85351">
        <ele>1323.097537</ele>
        <time>2025-07-10T07:28:49.000Z</time>
      </trkpt>
      <trkpt lat="44.64812" lon="5.85352">
        <ele>1323.208179</ele>
        <time>2025-07-10T07:28:50.000Z</time>
      </trkpt>
      <trkpt lat="44.64813" lon="5.85352">
        <ele>1323.332657</ele>
        <time>2025-07-10T07:28:51.000Z</time>
      </trkpt>
      <trkpt lat="44.64815" lon="5.85353">
        <ele>1323.463893</ele>
        <time>2025-07-10T07:28:52.000Z</time>
      </trkpt>
      <trkpt lat="44.64817" lon="5.85353">
        <ele>1323.587533</ele>
        <time>2025-07-10T07:28:53.000Z</time>
      </trkpt>
      <trkpt lat="44.64818" lon="5.85353">
        <ele>1323.711173</ele>
        <time>2025-07-10T07:28:54.000Z</time>
      </trkpt>
      <trkpt lat="44.6482" lon="5.85353">
        <ele>1323.818546</ele>
        <time>2025-07-10T07:28:55.000Z</time>
      </trkpt>
      <trkpt lat="44.64821" lon="5.85353">
        <ele>1323.910462</ele>
        <time>2025-07-10T07:28:56.000Z</time>
      </trkpt>
      <trkpt lat="44.64822" lon="5.85353">
        <ele>1324.017835</ele>
        <time>2025-07-10T07:28:57.000Z</time>
      </trkpt>
      <trkpt lat="44.64824" lon="5.85353">
        <ele>1324.125208</ele>
        <time>2025-07-10T07:28:58.000Z</time>
      </trkpt>
      <trkpt lat="44.64825" lon="5.85353">
        <ele>1324.232996</ele>
        <time>2025-07-10T07:28:59.000Z</time>
      </trkpt>
      <trkpt lat="44.64826" lon="5.85354">
        <ele>1324.342424</ele>
        <time>2025-07-10T07:29:00.000Z</time>
      </trkpt>
      <trkpt lat="44.64828" lon="5.85354">
        <ele>1324.444357</ele>
        <time>2025-07-10T07:29:01.000Z</time>
      </trkpt>
      <trkpt lat="44.64829" lon="5.85355">
        <ele>1324.565399</ele>
        <time>2025-07-10T07:29:02.000Z</time>
      </trkpt>
      <trkpt lat="44.64831" lon="5.85355">
        <ele>1324.680885</ele>
        <time>2025-07-10T07:29:03.000Z</time>
      </trkpt>
      <trkpt lat="44.64832" lon="5.85356">
        <ele>1324.78723</ele>
        <time>2025-07-10T07:29:04.000Z</time>
      </trkpt>
      <trkpt lat="44.64833" lon="5.85356">
        <ele>1324.892234</ele>
        <time>2025-07-10T07:29:05.000Z</time>
      </trkpt>
      <trkpt lat="44.64835" lon="5.85357">
        <ele>1325.002078</ele>
        <time>2025-07-10T07:29:06.000Z</time>
      </trkpt>
      <trkpt lat="44.64836" lon="5.85357">
        <ele>1325.114803</ele>
        <time>2025-07-10T07:29:07.000Z</time>
      </trkpt>
      <trkpt lat="44.64837" lon="5.85358">
        <ele>1325.226545</ele>
        <time>2025-07-10T07:29:08.000Z</time>
      </trkpt>
      <trkpt lat="44.64839" lon="5.85358">
        <ele>1325.338286</ele>
        <time>2025-07-10T07:29:09.000Z</time>
      </trkpt>
      <trkpt lat="44.6484" lon="5.85358">
        <ele>1325.456775</ele>
        <time>2025-07-10T07:29:10.000Z</time>
      </trkpt>
      <trkpt lat="44.64842" lon="5.85358">
        <ele>1325.591381</ele>
        <time>2025-07-10T07:29:11.000Z</time>
      </trkpt>
      <trkpt lat="44.64843" lon="5.85359">
        <ele>1325.710929</ele>
        <time>2025-07-10T07:29:12.000Z</time>
      </trkpt>
      <trkpt lat="44.64845" lon="5.85359">
        <ele>1325.832567</ele>
        <time>2025-07-10T07:29:13.000Z</time>
      </trkpt>
      <trkpt lat="44.64846" lon="5.8536">
        <ele>1325.938913</ele>
        <time>2025-07-10T07:29:14.000Z</time>
      </trkpt>
      <trkpt lat="44.64848" lon="5.8536">
        <ele>1326.05938</ele>
        <time>2025-07-10T07:29:15.000Z</time>
      </trkpt>
      <trkpt lat="44.64849" lon="5.8536">
        <ele>1326.186745</ele>
        <time>2025-07-10T07:29:16.000Z</time>
      </trkpt>
      <trkpt lat="44.64851" lon="5.85361">
        <ele>1326.313489</ele>
        <time>2025-07-10T07:29:17.000Z</time>
      </trkpt>
      <trkpt lat="44.64853" lon="5.85361">
        <ele>1326.43986</ele>
        <time>2025-07-10T07:29:18.000Z</time>
      </trkpt>
      <trkpt lat="44.64854" lon="5.85361">
        <ele>1326.551602</ele>
        <time>2025-07-10T07:29:19.000Z</time>
      </trkpt>
      <trkpt lat="44.64856" lon="5.85361">
        <ele>1326.678967</ele>
        <time>2025-07-10T07:29:20.000Z</time>
      </trkpt>
      <trkpt lat="44.64857" lon="5.85362">
        <ele>1326.808295</ele>
        <time>2025-07-10T07:29:21.000Z</time>
      </trkpt>
      <trkpt lat="44.64859" lon="5.85363">
        <ele>1326.934884</ele>
        <time>2025-07-10T07:29:22.000Z</time>
      </trkpt>
      <trkpt lat="44.6486" lon="5.85363">
        <ele>1327.055351</ele>
        <time>2025-07-10T07:29:23.000Z</time>
      </trkpt>
      <trkpt lat="44.64862" lon="5.85363">
        <ele>1327.17384</ele>
        <time>2025-07-10T07:29:24.000Z</time>
      </trkpt>
      <trkpt lat="44.64863" lon="5.85363">
        <ele>1327.300211</ele>
        <time>2025-07-10T07:29:25.000Z</time>
      </trkpt>
      <trkpt lat="44.64865" lon="5.85363">
        <ele>1327.435401</ele>
        <time>2025-07-10T07:29:26.000Z</time>
      </trkpt>
      <trkpt lat="44.64866" lon="5.85364">
        <ele>1327.557039</ele>
        <time>2025-07-10T07:29:27.000Z</time>
      </trkpt>
      <trkpt lat="44.64868" lon="5.85364">
        <ele>1327.685267</ele>
        <time>2025-07-10T07:29:28.000Z</time>
      </trkpt>
      <trkpt lat="44.64869" lon="5.85365">
        <ele>1327.797991</ele>
        <time>2025-07-10T07:29:29.000Z</time>
      </trkpt>
      <trkpt lat="44.64871" lon="5.85365">
        <ele>1327.91648</ele>
        <time>2025-07-10T07:29:30.000Z</time>
      </trkpt>
      <trkpt lat="44.64872" lon="5.85365">
        <ele>1328.038119</ele>
        <time>2025-07-10T07:29:31.000Z</time>
      </trkpt>
      <trkpt lat="44.64874" lon="5.85366">
        <ele>1328.159757</ele>
        <time>2025-07-10T07:29:32.000Z</time>
      </trkpt>
      <trkpt lat="44.64875" lon="5.85366">
        <ele>1328.272482</ele>
        <time>2025-07-10T07:29:33.000Z</time>
      </trkpt>
      <trkpt lat="44.64877" lon="5.85367">
        <ele>1328.386457</ele>
        <time>2025-07-10T07:29:34.000Z</time>
      </trkpt>
      <trkpt lat="44.64878" lon="5.85367">
        <ele>1328.506924</ele>
        <time>2025-07-10T07:29:35.000Z</time>
      </trkpt>
      <trkpt lat="44.6488" lon="5.85367">
        <ele>1328.609652</ele>
        <time>2025-07-10T07:29:36.000Z</time>
      </trkpt>
      <trkpt lat="44.64881" lon="5.85368">
        <ele>1328.721394</ele>
        <time>2025-07-10T07:29:37.000Z</time>
      </trkpt>
      <trkpt lat="44.64882" lon="5.85368">
        <ele>1328.843033</ele>
        <time>2025-07-10T07:29:38.000Z</time>
      </trkpt>
      <trkpt lat="44.64884" lon="5.85369">
        <ele>1328.966087</ele>
        <time>2025-07-10T07:29:39.000Z</time>
      </trkpt>
      <trkpt lat="44.64885" lon="5.85369">
        <ele>1329.086554</ele>
        <time>2025-07-10T07:29:40.000Z</time>
      </trkpt>
      <trkpt lat="44.64887" lon="5.85369">
        <ele>1329.206102</ele>
        <time>2025-07-10T07:29:41.000Z</time>
      </trkpt>
      <trkpt lat="44.64889" lon="5.8537">
        <ele>1329.333467</ele>
        <time>2025-07-10T07:29:42.000Z</time>
      </trkpt>
      <trkpt lat="44.6489" lon="5.8537">
        <ele>1329.468657</ele>
        <time>2025-07-10T07:29:43.000Z</time>
      </trkpt>
      <trkpt lat="44.64892" lon="5.8537">
        <ele>1329.60466</ele>
        <time>2025-07-10T07:29:44.000Z</time>
      </trkpt>
      <trkpt lat="44.64893" lon="5.85371">
        <ele>1329.717384</ele>
        <time>2025-07-10T07:29:45.000Z</time>
      </trkpt>
      <trkpt lat="44.64895" lon="5.85371">
        <ele>1329.837851</ele>
        <time>2025-07-10T07:29:46.000Z</time>
      </trkpt>
      <trkpt lat="44.64896" lon="5.85372">
        <ele>1329.96718</ele>
        <time>2025-07-10T07:29:47.000Z</time>
      </trkpt>
      <trkpt lat="44.64898" lon="5.85372">
        <ele>1330.091888</ele>
        <time>2025-07-10T07:29:48.000Z</time>
      </trkpt>
      <trkpt lat="44.64899" lon="5.85373">
        <ele>1330.205863</ele>
        <time>2025-07-10T07:29:49.000Z</time>
      </trkpt>
      <trkpt lat="44.64901" lon="5.85373">
        <ele>1330.319839</ele>
        <time>2025-07-10T07:29:50.000Z</time>
      </trkpt>
      <trkpt lat="44.64902" lon="5.85374">
        <ele>1330.43158</ele>
        <time>2025-07-10T07:29:51.000Z</time>
      </trkpt>
      <trkpt lat="44.64904" lon="5.85374">
        <ele>1330.552047</ele>
        <time>2025-07-10T07:29:52.000Z</time>
      </trkpt>
      <trkpt lat="44.64905" lon="5.85375">
        <ele>1330.681376</ele>
        <time>2025-07-10T07:29:53.000Z</time>
      </trkpt>
      <trkpt lat="44.64907" lon="5.85375">
        <ele>1330.804431</ele>
        <time>2025-07-10T07:29:54.000Z</time>
      </trkpt>
      <trkpt lat="44.64908" lon="5.85376">
        <ele>1330.936651</ele>
        <time>2025-07-10T07:29:55.000Z</time>
      </trkpt>
      <trkpt lat="44.6491" lon="5.85377">
        <ele>1331.068871</ele>
        <time>2025-07-10T07:29:56.000Z</time>
      </trkpt>
      <trkpt lat="44.64911" lon="5.85377">
        <ele>1331.191926</ele>
        <time>2025-07-10T07:29:57.000Z</time>
      </trkpt>
      <trkpt lat="44.64913" lon="5.85378">
        <ele>1331.324146</ele>
        <time>2025-07-10T07:29:58.000Z</time>
      </trkpt>
      <trkpt lat="44.64914" lon="5.85379">
        <ele>1331.43612</ele>
        <time>2025-07-10T07:29:59.000Z</time>
      </trkpt>
      <trkpt lat="44.64916" lon="5.85379">
        <ele>1331.559175</ele>
        <time>2025-07-10T07:30:00.000Z</time>
      </trkpt>
      <trkpt lat="44.64917" lon="5.8538">
        <ele>1331.68223</ele>
        <time>2025-07-10T07:30:01.000Z</time>
      </trkpt>
      <trkpt lat="44.64919" lon="5.85381">
        <ele>1331.816225</ele>
        <time>2025-07-10T07:30:02.000Z</time>
      </trkpt>
      <trkpt lat="44.6492" lon="5.85382">
        <ele>1331.944913</ele>
        <time>2025-07-10T07:30:03.000Z</time>
      </trkpt>
      <trkpt lat="44.64922" lon="5.85382">
        <ele>1332.077133</ele>
        <time>2025-07-10T07:30:04.000Z</time>
      </trkpt>
      <trkpt lat="44.64924" lon="5.85383">
        <ele>1332.211128</ele>
        <time>2025-07-10T07:30:05.000Z</time>
      </trkpt>
      <trkpt lat="44.64925" lon="5.85384">
        <ele>1332.350902</ele>
        <time>2025-07-10T07:30:06.000Z</time>
      </trkpt>
      <trkpt lat="44.64927" lon="5.85385">
        <ele>1332.492356</ele>
        <time>2025-07-10T07:30:07.000Z</time>
      </trkpt>
      <trkpt lat="44.64928" lon="5.85386">
        <ele>1332.616266</ele>
        <time>2025-07-10T07:30:08.000Z</time>
      </trkpt>
      <trkpt lat="44.6493" lon="5.85386">
        <ele>1332.750261</ele>
        <time>2025-07-10T07:30:09.000Z</time>
      </trkpt>
      <trkpt lat="44.64931" lon="5.85387">
        <ele>1332.862236</ele>
        <time>2025-07-10T07:30:10.000Z</time>
      </trkpt>
      <trkpt lat="44.64933" lon="5.85388">
        <ele>1332.988825</ele>
        <time>2025-07-10T07:30:11.000Z</time>
      </trkpt>
      <trkpt lat="44.64934" lon="5.85389">
        <ele>1333.10807</ele>
        <time>2025-07-10T07:30:12.000Z</time>
      </trkpt>
      <trkpt lat="44.64936" lon="5.8539">
        <ele>1333.222411</ele>
        <time>2025-07-10T07:30:13.000Z</time>
      </trkpt>
      <trkpt lat="44.64937" lon="5.85391">
        <ele>1333.358391</ele>
        <time>2025-07-10T07:30:14.000Z</time>
      </trkpt>
      <trkpt lat="44.64939" lon="5.85392">
        <ele>1333.4823</ele>
        <time>2025-07-10T07:30:15.000Z</time>
      </trkpt>
      <trkpt lat="44.6494" lon="5.85393">
        <ele>1333.60621</ele>
        <time>2025-07-10T07:30:16.000Z</time>
      </trkpt>
      <trkpt lat="44.64941" lon="5.85393">
        <ele>1333.734898</ele>
        <time>2025-07-10T07:30:17.000Z</time>
      </trkpt>
      <trkpt lat="44.64943" lon="5.85394">
        <ele>1333.867118</ele>
        <time>2025-07-10T07:30:18.000Z</time>
      </trkpt>
      <trkpt lat="44.64945" lon="5.85395">
        <ele>1334.003097</ele>
        <time>2025-07-10T07:30:19.000Z</time>
      </trkpt>
      <trkpt lat="44.64946" lon="5.85396">
        <ele>1334.143635</ele>
        <time>2025-07-10T07:30:20.000Z</time>
      </trkpt>
      <trkpt lat="44.64948" lon="5.85397">
        <ele>1334.267545</ele>
        <time>2025-07-10T07:30:21.000Z</time>
      </trkpt>
      <trkpt lat="44.64949" lon="5.85398">
        <ele>1334.405708</ele>
        <time>2025-07-10T07:30:22.000Z</time>
      </trkpt>
      <trkpt lat="44.64951" lon="5.85399">
        <ele>1334.536701</ele>
        <time>2025-07-10T07:30:23.000Z</time>
      </trkpt>
      <trkpt lat="44.64952" lon="5.854">
        <ele>1334.665388</ele>
        <time>2025-07-10T07:30:24.000Z</time>
      </trkpt>
      <trkpt lat="44.64954" lon="5.85401">
        <ele>1334.79194</ele>
        <time>2025-07-10T07:30:25.000Z</time>
      </trkpt>
      <trkpt lat="44.64955" lon="5.85402">
        <ele>1334.91341</ele>
        <time>2025-07-10T07:30:26.000Z</time>
      </trkpt>
      <trkpt lat="44.64956" lon="5.85403">
        <ele>1335.037319</ele>
        <time>2025-07-10T07:30:27.000Z</time>
      </trkpt>
      <trkpt lat="44.64958" lon="5.85404">
        <ele>1335.163871</ele>
        <time>2025-07-10T07:30:28.000Z</time>
      </trkpt>
      <trkpt lat="44.64959" lon="5.85405">
        <ele>1335.273945</ele>
        <time>2025-07-10T07:30:29.000Z</time>
      </trkpt>
      <trkpt lat="44.64961" lon="5.85406">
        <ele>1335.407439</ele>
        <time>2025-07-10T07:30:30.000Z</time>
      </trkpt>
      <trkpt lat="44.64962" lon="5.85407">
        <ele>1335.545603</ele>
        <time>2025-07-10T07:30:31.000Z</time>
      </trkpt>
      <trkpt lat="44.64964" lon="5.85408">
        <ele>1335.669512</ele>
        <time>2025-07-10T07:30:32.000Z</time>
      </trkpt>
      <trkpt lat="44.64965" lon="5.85409">
        <ele>1335.790982</ele>
        <time>2025-07-10T07:30:33.000Z</time>
      </trkpt>
      <trkpt lat="44.64966" lon="5.8541">
        <ele>1335.917571</ele>
        <time>2025-07-10T07:30:34.000Z</time>
      </trkpt>
      <trkpt lat="44.64968" lon="5.85411">
        <ele>1336.029546</ele>
        <time>2025-07-10T07:30:35.000Z</time>
      </trkpt>
      <trkpt lat="44.64969" lon="5.85412">
        <ele>1336.153455</ele>
        <time>2025-07-10T07:30:36.000Z</time>
      </trkpt>
      <trkpt lat="44.64971" lon="5.85413">
        <ele>1336.282839</ele>
        <time>2025-07-10T07:30:37.000Z</time>
      </trkpt>
      <trkpt lat="44.64972" lon="5.85414">
        <ele>1336.395878</ele>
        <time>2025-07-10T07:30:38.000Z</time>
      </trkpt>
      <trkpt lat="44.64973" lon="5.85415">
        <ele>1336.512078</ele>
        <time>2025-07-10T07:30:39.000Z</time>
      </trkpt>
      <trkpt lat="44.64974" lon="5.85416">
        <ele>1336.640766</ele>
        <time>2025-07-10T07:30:40.000Z</time>
      </trkpt>
      <trkpt lat="44.64976" lon="5.85417">
        <ele>1336.762236</ele>
        <time>2025-07-10T07:30:41.000Z</time>
      </trkpt>
      <trkpt lat="44.64977" lon="5.85418">
        <ele>1336.888787</ele>
        <time>2025-07-10T07:30:42.000Z</time>
      </trkpt>
      <trkpt lat="44.64978" lon="5.85419">
        <ele>1337.001826</ele>
        <time>2025-07-10T07:30:43.000Z</time>
      </trkpt>
      <trkpt lat="44.6498" lon="5.8542">
        <ele>1337.114866</ele>
        <time>2025-07-10T07:30:44.000Z</time>
      </trkpt>
      <trkpt lat="44.64981" lon="5.85421">
        <ele>1337.238775</ele>
        <time>2025-07-10T07:30:45.000Z</time>
      </trkpt>
      <trkpt lat="44.64982" lon="5.85422">
        <ele>1337.34214</ele>
        <time>2025-07-10T07:30:46.000Z</time>
      </trkpt>
      <trkpt lat="44.64984" lon="5.85423">
        <ele>1337.463609</ele>
        <time>2025-07-10T07:30:47.000Z</time>
      </trkpt>
      <trkpt lat="44.64985" lon="5.85424">
        <ele>1337.590161</ele>
        <time>2025-07-10T07:30:48.000Z</time>
      </trkpt>
      <trkpt lat="44.64986" lon="5.85426">
        <ele>1337.719544</ele>
        <time>2025-07-10T07:30:49.000Z</time>
      </trkpt>
      <trkpt lat="44.64988" lon="5.85427">
        <ele>1337.848927</ele>
        <time>2025-07-10T07:30:50.000Z</time>
      </trkpt>
      <trkpt lat="44.64989" lon="5.85428">
        <ele>1337.972837</ele>
        <time>2025-07-10T07:30:51.000Z</time>
      </trkpt>
      <trkpt lat="44.64991" lon="5.85429">
        <ele>1338.10383</ele>
        <time>2025-07-10T07:30:52.000Z</time>
      </trkpt>
      <trkpt lat="44.64992" lon="5.8543">
        <ele>1338.240011</ele>
        <time>2025-07-10T07:30:53.000Z</time>
      </trkpt>
      <trkpt lat="44.64993" lon="5.85431">
        <ele>1338.365895</ele>
        <time>2025-07-10T07:30:54.000Z</time>
      </trkpt>
      <trkpt lat="44.64995" lon="5.85432">
        <ele>1338.488611</ele>
        <time>2025-07-10T07:30:55.000Z</time>
      </trkpt>
      <trkpt lat="44.64996" lon="5.85434">
        <ele>1338.617994</ele>
        <time>2025-07-10T07:30:56.000Z</time>
      </trkpt>
      <trkpt lat="44.64997" lon="5.85435">
        <ele>1338.733129</ele>
        <time>2025-07-10T07:30:57.000Z</time>
      </trkpt>
      <trkpt lat="44.64999" lon="5.85436">
        <ele>1338.831141</ele>
        <time>2025-07-10T07:30:58.000Z</time>
      </trkpt>
      <trkpt lat="44.65" lon="5.85437">
        <ele>1338.932527</ele>
        <time>2025-07-10T07:30:59.000Z</time>
      </trkpt>
      <trkpt lat="44.65001" lon="5.85438">
        <ele>1339.048275</ele>
        <time>2025-07-10T07:31:00.000Z</time>
      </trkpt>
      <trkpt lat="44.65003" lon="5.85439">
        <ele>1339.17013</ele>
        <time>2025-07-10T07:31:01.000Z</time>
      </trkpt>
      <trkpt lat="44.65004" lon="5.8544">
        <ele>1339.279858</ele>
        <time>2025-07-10T07:31:02.000Z</time>
      </trkpt>
      <trkpt lat="44.65006" lon="5.85441">
        <ele>1339.389586</ele>
        <time>2025-07-10T07:31:03.000Z</time>
      </trkpt>
      <trkpt lat="44.65007" lon="5.85442">
        <ele>1339.499314</ele>
        <time>2025-07-10T07:31:04.000Z</time>
      </trkpt>
      <trkpt lat="44.65009" lon="5.85444">
        <ele>1339.614107</ele>
        <time>2025-07-10T07:31:05.000Z</time>
      </trkpt>
      <trkpt lat="44.6501" lon="5.85445">
        <ele>1339.71486</ele>
        <time>2025-07-10T07:31:06.000Z</time>
      </trkpt>
      <trkpt lat="44.65011" lon="5.85446">
        <ele>1339.821262</ele>
        <time>2025-07-10T07:31:07.000Z</time>
      </trkpt>
      <trkpt lat="44.65012" lon="5.85447">
        <ele>1339.924913</ele>
        <time>2025-07-10T07:31:08.000Z</time>
      </trkpt>
      <trkpt lat="44.65014" lon="5.85448">
        <ele>1340.026298</ele>
        <time>2025-07-10T07:31:09.000Z</time>
      </trkpt>
      <trkpt lat="44.65015" lon="5.85449">
        <ele>1340.137878</ele>
        <time>2025-07-10T07:31:10.000Z</time>
      </trkpt>
      <trkpt lat="44.65017" lon="5.8545">
        <ele>1340.260528</ele>
        <time>2025-07-10T07:31:11.000Z</time>
      </trkpt>
      <trkpt lat="44.65018" lon="5.85451">
        <ele>1340.374107</ele>
        <time>2025-07-10T07:31:12.000Z</time>
      </trkpt>
      <trkpt lat="44.6502" lon="5.85452">
        <ele>1340.475492</ele>
        <time>2025-07-10T07:31:13.000Z</time>
      </trkpt>
      <trkpt lat="44.65021" lon="5.85453">
        <ele>1340.580814</ele>
        <time>2025-07-10T07:31:14.000Z</time>
      </trkpt>
      <trkpt lat="44.65022" lon="5.85454">
        <ele>1340.684624</ele>
        <time>2025-07-10T07:31:15.000Z</time>
      </trkpt>
      <trkpt lat="44.65024" lon="5.85455">
        <ele>1340.80217</ele>
        <time>2025-07-10T07:31:16.000Z</time>
      </trkpt>
      <trkpt lat="44.65025" lon="5.85457">
        <ele>1340.902923</ele>
        <time>2025-07-10T07:31:17.000Z</time>
      </trkpt>
      <trkpt lat="44.65026" lon="5.85458">
        <ele>1341.012651</ele>
        <time>2025-07-10T07:31:18.000Z</time>
      </trkpt>
      <trkpt lat="44.65028" lon="5.85459">
        <ele>1341.117973</ele>
        <time>2025-07-10T07:31:19.000Z</time>
      </trkpt>
      <trkpt lat="44.65029" lon="5.8546">
        <ele>1341.230156</ele>
        <time>2025-07-10T07:31:20.000Z</time>
      </trkpt>
      <trkpt lat="44.6503" lon="5.85461">
        <ele>1341.345222</ele>
        <time>2025-07-10T07:31:21.000Z</time>
      </trkpt>
      <trkpt lat="44.65032" lon="5.85463">
        <ele>1341.455085</ele>
        <time>2025-07-10T07:31:22.000Z</time>
      </trkpt>
      <trkpt lat="44.65033" lon="5.85464">
        <ele>1341.567268</ele>
        <time>2025-07-10T07:31:23.000Z</time>
      </trkpt>
      <trkpt lat="44.65034" lon="5.85465">
        <ele>1341.676418</ele>
        <time>2025-07-10T07:31:24.000Z</time>
      </trkpt>
      <trkpt lat="44.65036" lon="5.85466">
        <ele>1341.786146</ele>
        <time>2025-07-10T07:31:25.000Z</time>
      </trkpt>
      <trkpt lat="44.65037" lon="5.85468">
        <ele>1341.901894</ele>
        <time>2025-07-10T07:31:26.000Z</time>
      </trkpt>
      <trkpt lat="44.65039" lon="5.85468">
        <ele>1342.007216</ele>
        <time>2025-07-10T07:31:27.000Z</time>
      </trkpt>
      <trkpt lat="44.6504" lon="5.85469">
        <ele>1342.114653</ele>
        <time>2025-07-10T07:31:28.000Z</time>
      </trkpt>
      <trkpt lat="44.65041" lon="5.8547">
        <ele>1342.213794</ele>
        <time>2025-07-10T07:31:29.000Z</time>
      </trkpt>
      <trkpt lat="44.65043" lon="5.85471">
        <ele>1342.319116</ele>
        <time>2025-07-10T07:31:30.000Z</time>
      </trkpt>
      <trkpt lat="44.65044" lon="5.85473">
        <ele>1342.431157</ele>
        <time>2025-07-10T07:31:31.000Z</time>
      </trkpt>
      <trkpt lat="44.65045" lon="5.85474">
        <ele>1342.545949</ele>
        <time>2025-07-10T07:31:32.000Z</time>
      </trkpt>
      <trkpt lat="44.65047" lon="5.85475">
        <ele>1342.651271</ele>
        <time>2025-07-10T07:31:33.000Z</time>
      </trkpt>
      <trkpt lat="44.65048" lon="5.85476">
        <ele>1342.756593</ele>
        <time>2025-07-10T07:31:34.000Z</time>
      </trkpt>
      <trkpt lat="44.6505" lon="5.85477">
        <ele>1342.861915</ele>
        <time>2025-07-10T07:31:35.000Z</time>
      </trkpt>
      <trkpt lat="44.65051" lon="5.85478">
        <ele>1342.974098</ele>
        <time>2025-07-10T07:31:36.000Z</time>
      </trkpt>
      <trkpt lat="44.65052" lon="5.85479">
        <ele>1343.083826</ele>
        <time>2025-07-10T07:31:37.000Z</time>
      </trkpt>
      <trkpt lat="44.65054" lon="5.8548">
        <ele>1343.199574</ele>
        <time>2025-07-10T07:31:38.000Z</time>
      </trkpt>
      <trkpt lat="44.65055" lon="5.85481">
        <ele>1343.317652</ele>
        <time>2025-07-10T07:31:39.000Z</time>
      </trkpt>
      <trkpt lat="44.65057" lon="5.85482">
        <ele>1343.4334</ele>
        <time>2025-07-10T07:31:40.000Z</time>
      </trkpt>
      <trkpt lat="44.65058" lon="5.85484">
        <ele>1343.545583</ele>
        <time>2025-07-10T07:31:41.000Z</time>
      </trkpt>
      <trkpt lat="44.6506" lon="5.85485">
        <ele>1343.65302</ele>
        <time>2025-07-10T07:31:42.000Z</time>
      </trkpt>
      <trkpt lat="44.65061" lon="5.85486">
        <ele>1343.762748</ele>
        <time>2025-07-10T07:31:43.000Z</time>
      </trkpt>
      <trkpt lat="44.65063" lon="5.85487">
        <ele>1343.878496</ele>
        <time>2025-07-10T07:31:44.000Z</time>
      </trkpt>
      <trkpt lat="44.65064" lon="5.85488">
        <ele>1343.983818</ele>
        <time>2025-07-10T07:31:45.000Z</time>
      </trkpt>
      <trkpt lat="44.65065" lon="5.85489">
        <ele>1344.09861</ele>
        <time>2025-07-10T07:31:46.000Z</time>
      </trkpt>
      <trkpt lat="44.65067" lon="5.8549">
        <ele>1344.227549</ele>
        <time>2025-07-10T07:31:47.000Z</time>
      </trkpt>
      <trkpt lat="44.65069" lon="5.85492">
        <ele>1344.353983</ele>
        <time>2025-07-10T07:31:48.000Z</time>
      </trkpt>
      <trkpt lat="44.6507" lon="5.85493">
        <ele>1344.474543</ele>
        <time>2025-07-10T07:31:49.000Z</time>
      </trkpt>
      <trkpt lat="44.65072" lon="5.85494">
        <ele>1344.598613</ele>
        <time>2025-07-10T07:31:50.000Z</time>
      </trkpt>
      <trkpt lat="44.65073" lon="5.85495">
        <ele>1344.716691</ele>
        <time>2025-07-10T07:31:51.000Z</time>
      </trkpt>
      <trkpt lat="44.65075" lon="5.85496">
        <ele>1344.822013</ele>
        <time>2025-07-10T07:31:52.000Z</time>
      </trkpt>
      <trkpt lat="44.65076" lon="5.85497">
        <ele>1344.935591</ele>
        <time>2025-07-10T07:31:53.000Z</time>
      </trkpt>
      <trkpt lat="44.65078" lon="5.85498">
        <ele>1345.059661</ele>
        <time>2025-07-10T07:31:54.000Z</time>
      </trkpt>
      <trkpt lat="44.65079" lon="5.855">
        <ele>1345.177739</ele>
        <time>2025-07-10T07:31:55.000Z</time>
      </trkpt>
      <trkpt lat="44.65081" lon="5.85501">
        <ele>1345.299594</ele>
        <time>2025-07-10T07:31:56.000Z</time>
      </trkpt>
      <trkpt lat="44.65082" lon="5.85502">
        <ele>1345.423664</ele>
        <time>2025-07-10T07:31:57.000Z</time>
      </trkpt>
      <trkpt lat="44.65084" lon="5.85503">
        <ele>1345.541209</ele>
        <time>2025-07-10T07:31:58.000Z</time>
      </trkpt>
      <trkpt lat="44.65085" lon="5.85504">
        <ele>1345.661005</ele>
        <time>2025-07-10T07:31:59.000Z</time>
      </trkpt>
      <trkpt lat="44.65087" lon="5.85506">
        <ele>1345.773188</ele>
        <time>2025-07-10T07:32:00.000Z</time>
      </trkpt>
      <trkpt lat="44.65088" lon="5.85507">
        <ele>1345.891266</ele>
        <time>2025-07-10T07:32:01.000Z</time>
      </trkpt>
      <trkpt lat="44.6509" lon="5.85508">
        <ele>1346.007014</ele>
        <time>2025-07-10T07:32:02.000Z</time>
      </trkpt>
      <trkpt lat="44.65091" lon="5.85509">
        <ele>1346.125092</ele>
        <time>2025-07-10T07:32:03.000Z</time>
      </trkpt>
      <trkpt lat="44.65093" lon="5.8551">
        <ele>1346.249162</ele>
        <time>2025-07-10T07:32:04.000Z</time>
      </trkpt>
      <trkpt lat="44.65095" lon="5.85511">
        <ele>1346.373232</ele>
        <time>2025-07-10T07:32:05.000Z</time>
      </trkpt>
      <trkpt lat="44.65096" lon="5.85513">
        <ele>1346.495086</ele>
        <time>2025-07-10T07:32:06.000Z</time>
      </trkpt>
      <trkpt lat="44.65098" lon="5.85514">
        <ele>1346.613164</ele>
        <time>2025-07-10T07:32:07.000Z</time>
      </trkpt>
      <trkpt lat="44.65099" lon="5.85515">
        <ele>1346.725347</ele>
        <time>2025-07-10T07:32:08.000Z</time>
      </trkpt>
      <trkpt lat="44.65101" lon="5.85516">
        <ele>1346.845906</ele>
        <time>2025-07-10T07:32:09.000Z</time>
      </trkpt>
      <trkpt lat="44.65102" lon="5.85517">
        <ele>1346.969976</ele>
        <time>2025-07-10T07:32:10.000Z</time>
      </trkpt>
      <trkpt lat="44.65104" lon="5.85519">
        <ele>1347.098012</ele>
        <time>2025-07-10T07:32:11.000Z</time>
      </trkpt>
      <trkpt lat="44.65105" lon="5.8552">
        <ele>1347.224446</ele>
        <time>2025-07-10T07:32:12.000Z</time>
      </trkpt>
      <trkpt lat="44.65107" lon="5.85521">
        <ele>1347.362896</ele>
        <time>2025-07-10T07:32:13.000Z</time>
      </trkpt>
      <trkpt lat="44.65109" lon="5.85522">
        <ele>1347.49919</ele>
        <time>2025-07-10T07:32:14.000Z</time>
      </trkpt>
      <trkpt lat="44.65111" lon="5.85524">
        <ele>1347.629336</ele>
        <time>2025-07-10T07:32:15.000Z</time>
      </trkpt>
      <trkpt lat="44.65113" lon="5.85525">
        <ele>1347.767786</ele>
        <time>2025-07-10T07:32:16.000Z</time>
      </trkpt>
      <trkpt lat="44.65114" lon="5.85526">
        <ele>1347.900187</ele>
        <time>2025-07-10T07:32:17.000Z</time>
      </trkpt>
      <trkpt lat="44.65116" lon="5.85528">
        <ele>1348.034982</ele>
        <time>2025-07-10T07:32:18.000Z</time>
      </trkpt>
      <trkpt lat="44.65117" lon="5.85529">
        <ele>1348.160923</ele>
        <time>2025-07-10T07:32:19.000Z</time>
      </trkpt>
      <trkpt lat="44.65119" lon="5.85531">
        <ele>1348.29526</ele>
        <time>2025-07-10T07:32:20.000Z</time>
      </trkpt>
      <trkpt lat="44.65121" lon="5.85532">
        <ele>1348.436</ele>
        <time>2025-07-10T07:32:21.000Z</time>
      </trkpt>
      <trkpt lat="44.65123" lon="5.85533">
        <ele>1348.568401</ele>
        <time>2025-07-10T07:32:22.000Z</time>
      </trkpt>
      <trkpt lat="44.65124" lon="5.85535">
        <ele>1348.705721</ele>
        <time>2025-07-10T07:32:23.000Z</time>
      </trkpt>
      <trkpt lat="44.65126" lon="5.85536">
        <ele>1348.844171</ele>
        <time>2025-07-10T07:32:24.000Z</time>
      </trkpt>
      <trkpt lat="44.65128" lon="5.85538">
        <ele>1348.993257</ele>
        <time>2025-07-10T07:32:25.000Z</time>
      </trkpt>
      <trkpt lat="44.6513" lon="5.85539">
        <ele>1349.148344</ele>
        <time>2025-07-10T07:32:26.000Z</time>
      </trkpt>
      <trkpt lat="44.65132" lon="5.85541">
        <ele>1349.317808</ele>
        <time>2025-07-10T07:32:27.000Z</time>
      </trkpt>
      <trkpt lat="44.65134" lon="5.85542">
        <ele>1349.462377</ele>
        <time>2025-07-10T07:32:28.000Z</time>
      </trkpt>
      <trkpt lat="44.65136" lon="5.85543">
        <ele>1349.61115</ele>
        <time>2025-07-10T07:32:29.000Z</time>
      </trkpt>
      <trkpt lat="44.65138" lon="5.85545">
        <ele>1349.776942</ele>
        <time>2025-07-10T07:32:30.000Z</time>
      </trkpt>
      <trkpt lat="44.6514" lon="5.85547">
        <ele>1349.939414</ele>
        <time>2025-07-10T07:32:31.000Z</time>
      </trkpt>
      <trkpt lat="44.65142" lon="5.85549">
        <ele>1350.090543</ele>
        <time>2025-07-10T07:32:32.000Z</time>
      </trkpt>
      <trkpt lat="44.65144" lon="5.8555">
        <ele>1350.242071</ele>
        <time>2025-07-10T07:32:33.000Z</time>
      </trkpt>
      <trkpt lat="44.65146" lon="5.85552">
        <ele>1350.410345</ele>
        <time>2025-07-10T07:32:34.000Z</time>
      </trkpt>
      <trkpt lat="44.65148" lon="5.85554">
        <ele>1350.576137</ele>
        <time>2025-07-10T07:32:35.000Z</time>
      </trkpt>
      <trkpt lat="44.6515" lon="5.85555">
        <ele>1350.731225</ele>
        <time>2025-07-10T07:32:36.000Z</time>
      </trkpt>
      <trkpt lat="44.65152" lon="5.85557">
        <ele>1350.898508</ele>
        <time>2025-07-10T07:32:37.000Z</time>
      </trkpt>
      <trkpt lat="44.65154" lon="5.85558">
        <ele>1351.022262</ele>
        <time>2025-07-10T07:32:38.000Z</time>
      </trkpt>
      <trkpt lat="44.65156" lon="5.8556">
        <ele>1351.061282</ele>
        <time>2025-07-10T07:32:39.000Z</time>
      </trkpt>
      <trkpt lat="44.65159" lon="5.85562">
        <ele>1351.100166</ele>
        <time>2025-07-10T07:32:40.000Z</time>
      </trkpt>
      <trkpt lat="44.65161" lon="5.85563">
        <ele>1351.140049</ele>
        <time>2025-07-10T07:32:41.000Z</time>
      </trkpt>
      <trkpt lat="44.65163" lon="5.85565">
        <ele>1351.180472</ele>
        <time>2025-07-10T07:32:42.000Z</time>
      </trkpt>
      <trkpt lat="44.65165" lon="5.85567">
        <ele>1351.224272</ele>
        <time>2025-07-10T07:32:43.000Z</time>
      </trkpt>
      <trkpt lat="44.65168" lon="5.85568">
        <ele>1351.265592</ele>
        <time>2025-07-10T07:32:44.000Z</time>
      </trkpt>
      <trkpt lat="44.6517" lon="5.8557">
        <ele>1351.304018</ele>
        <time>2025-07-10T07:32:45.000Z</time>
      </trkpt>
      <trkpt lat="44.65172" lon="5.85571">
        <ele>1351.341946</ele>
        <time>2025-07-10T07:32:46.000Z</time>
      </trkpt>
      <trkpt lat="44.65174" lon="5.85573">
        <ele>1351.380407</ele>
        <time>2025-07-10T07:32:47.000Z</time>
      </trkpt>
      <trkpt lat="44.65176" lon="5.85574">
        <ele>1351.420291</ele>
        <time>2025-07-10T07:32:48.000Z</time>
      </trkpt>
      <trkpt lat="44.65179" lon="5.85576">
        <ele>1351.461277</ele>
        <time>2025-07-10T07:32:49.000Z</time>
      </trkpt>
      <trkpt lat="44.65181" lon="5.85578">
        <ele>1351.502852</ele>
        <time>2025-07-10T07:32:50.000Z</time>
      </trkpt>
      <trkpt lat="44.65183" lon="5.8558">
        <ele>1351.544427</ele>
        <time>2025-07-10T07:32:51.000Z</time>
      </trkpt>
      <trkpt lat="44.65185" lon="5.85582">
        <ele>1351.584639</ele>
        <time>2025-07-10T07:32:52.000Z</time>
      </trkpt>
      <trkpt lat="44.65187" lon="5.85584">
        <ele>1351.627025</ele>
        <time>2025-07-10T07:32:53.000Z</time>
      </trkpt>
      <trkpt lat="44.6519" lon="5.85586">
        <ele>1351.670571</ele>
        <time>2025-07-10T07:32:54.000Z</time>
      </trkpt>
      <trkpt lat="44.65192" lon="5.85587">
        <ele>1351.710994</ele>
        <time>2025-07-10T07:32:55.000Z</time>
      </trkpt>
      <trkpt lat="44.65194" lon="5.85589">
        <ele>1351.751417</ele>
        <time>2025-07-10T07:32:56.000Z</time>
      </trkpt>
      <trkpt lat="44.65196" lon="5.85591">
        <ele>1351.794186</ele>
        <time>2025-07-10T07:32:57.000Z</time>
      </trkpt>
      <trkpt lat="44.65199" lon="5.85592">
        <ele>1351.843296</ele>
        <time>2025-07-10T07:32:58.000Z</time>
      </trkpt>
      <trkpt lat="44.65202" lon="5.85594">
        <ele>1351.888012</ele>
        <time>2025-07-10T07:32:59.000Z</time>
      </trkpt>
      <trkpt lat="44.65204" lon="5.85596">
        <ele>1351.933772</ele>
        <time>2025-07-10T07:33:00.000Z</time>
      </trkpt>
      <trkpt lat="44.65207" lon="5.85598">
        <ele>1351.979533</ele>
        <time>2025-07-10T07:33:01.000Z</time>
      </trkpt>
      <trkpt lat="44.65209" lon="5.856">
        <ele>1352.025051</ele>
        <time>2025-07-10T07:33:02.000Z</time>
      </trkpt>
      <trkpt lat="44.65212" lon="5.85602">
        <ele>1352.075622</ele>
        <time>2025-07-10T07:33:03.000Z</time>
      </trkpt>
      <trkpt lat="44.65214" lon="5.85604">
        <ele>1352.121938</ele>
        <time>2025-07-10T07:33:04.000Z</time>
      </trkpt>
      <trkpt lat="44.65217" lon="5.85606">
        <ele>1352.165738</ele>
        <time>2025-07-10T07:33:05.000Z</time>
      </trkpt>
      <trkpt lat="44.65219" lon="5.85607">
        <ele>1352.211909</ele>
        <time>2025-07-10T07:33:06.000Z</time>
      </trkpt>
      <trkpt lat="44.65222" lon="5.85609">
        <ele>1352.261484</ele>
        <time>2025-07-10T07:33:07.000Z</time>
      </trkpt>
      <trkpt lat="44.65225" lon="5.85611">
        <ele>1352.308667</ele>
        <time>2025-07-10T07:33:08.000Z</time>
      </trkpt>
      <trkpt lat="44.65228" lon="5.85613">
        <ele>1352.358352</ele>
        <time>2025-07-10T07:33:09.000Z</time>
      </trkpt>
      <trkpt lat="44.6523" lon="5.85615">
        <ele>1352.404113</ele>
        <time>2025-07-10T07:33:10.000Z</time>
      </trkpt>
      <trkpt lat="44.65233" lon="5.85617">
        <ele>1352.453253</ele>
        <time>2025-07-10T07:33:11.000Z</time>
      </trkpt>
      <trkpt lat="44.65235" lon="5.85619">
        <ele>1352.501369</ele>
        <time>2025-07-10T07:33:12.000Z</time>
      </trkpt>
      <trkpt lat="44.65238" lon="5.85621">
        <ele>1352.552413</ele>
        <time>2025-07-10T07:33:13.000Z</time>
      </trkpt>
      <trkpt lat="44.65241" lon="5.85622">
        <ele>1352.601522</ele>
        <time>2025-07-10T07:33:14.000Z</time>
      </trkpt>
      <trkpt lat="44.65244" lon="5.85624">
        <ele>1352.650632</ele>
        <time>2025-07-10T07:33:15.000Z</time>
      </trkpt>
      <trkpt lat="44.65247" lon="5.85626">
        <ele>1352.702714</ele>
        <time>2025-07-10T07:33:16.000Z</time>
      </trkpt>
      <trkpt lat="44.6525" lon="5.85627">
        <ele>1352.754796</ele>
        <time>2025-07-10T07:33:17.000Z</time>
      </trkpt>
      <trkpt lat="44.65253" lon="5.85629">
        <ele>1352.803462</ele>
        <time>2025-07-10T07:33:18.000Z</time>
      </trkpt>
      <trkpt lat="44.65256" lon="5.8563">
        <ele>1352.854359</ele>
        <time>2025-07-10T07:33:19.000Z</time>
      </trkpt>
      <trkpt lat="44.65259" lon="5.85632">
        <ele>1352.904907</ele>
        <time>2025-07-10T07:33:20.000Z</time>
      </trkpt>
      <trkpt lat="44.65262" lon="5.85633">
        <ele>1352.956571</ele>
        <time>2025-07-10T07:33:21.000Z</time>
      </trkpt>
      <trkpt lat="44.65265" lon="5.85635">
        <ele>1353.005942</ele>
        <time>2025-07-10T07:33:22.000Z</time>
      </trkpt>
      <trkpt lat="44.65268" lon="5.85636">
        <ele>1353.054618</ele>
        <time>2025-07-10T07:33:23.000Z</time>
      </trkpt>
      <trkpt lat="44.65271" lon="5.85637">
        <ele>1353.105165</ele>
        <time>2025-07-10T07:33:24.000Z</time>
      </trkpt>
      <trkpt lat="44.65274" lon="5.85639">
        <ele>1353.157254</ele>
        <time>2025-07-10T07:33:25.000Z</time>
      </trkpt>
      <trkpt lat="44.65277" lon="5.8564">
        <ele>1353.206898</ele>
        <time>2025-07-10T07:33:26.000Z</time>
      </trkpt>
      <trkpt lat="44.6528" lon="5.85641">
        <ele>1353.254977</ele>
        <time>2025-07-10T07:33:27.000Z</time>
      </trkpt>
      <trkpt lat="44.65283" lon="5.85641">
        <ele>1353.305945</ele>
        <time>2025-07-10T07:33:28.000Z</time>
      </trkpt>
      <trkpt lat="44.65286" lon="5.85642">
        <ele>1353.355111</ele>
        <time>2025-07-10T07:33:29.000Z</time>
      </trkpt>
      <trkpt lat="44.65289" lon="5.85643">
        <ele>1353.404277</ele>
        <time>2025-07-10T07:33:30.000Z</time>
      </trkpt>
      <trkpt lat="44.65292" lon="5.85644">
        <ele>1353.455489</ele>
        <time>2025-07-10T07:33:31.000Z</time>
      </trkpt>
      <trkpt lat="44.65295" lon="5.85645">
        <ele>1353.504455</ele>
        <time>2025-07-10T07:33:32.000Z</time>
      </trkpt>
      <trkpt lat="44.65298" lon="5.85645">
        <ele>1353.551652</ele>
        <time>2025-07-10T07:33:33.000Z</time>
      </trkpt>
      <trkpt lat="44.65301" lon="5.85646">
        <ele>1353.602207</ele>
        <time>2025-07-10T07:33:34.000Z</time>
      </trkpt>
      <trkpt lat="44.65304" lon="5.85647">
        <ele>1353.649404</ele>
        <time>2025-07-10T07:33:35.000Z</time>
      </trkpt>
      <trkpt lat="44.65307" lon="5.85647">
        <ele>1353.69979</ele>
        <time>2025-07-10T07:33:36.000Z</time>
      </trkpt>
      <trkpt lat="44.6531" lon="5.85648">
        <ele>1353.746834</ele>
        <time>2025-07-10T07:33:37.000Z</time>
      </trkpt>
      <trkpt lat="44.65312" lon="5.85648">
        <ele>1353.792281</ele>
        <time>2025-07-10T07:33:38.000Z</time>
      </trkpt>
      <trkpt lat="44.65315" lon="5.85649">
        <ele>1353.839478</ele>
        <time>2025-07-10T07:33:39.000Z</time>
      </trkpt>
      <trkpt lat="44.65318" lon="5.85649">
        <ele>1353.883088</ele>
        <time>2025-07-10T07:33:40.000Z</time>
      </trkpt>
      <trkpt lat="44.65321" lon="5.85649">
        <ele>1353.97707</ele>
        <time>2025-07-10T07:33:41.000Z</time>
      </trkpt>
      <trkpt lat="44.65324" lon="5.8565">
        <ele>1354.112282</ele>
        <time>2025-07-10T07:33:42.000Z</time>
      </trkpt>
      <trkpt lat="44.65327" lon="5.8565">
        <ele>1354.243154</ele>
        <time>2025-07-10T07:33:43.000Z</time>
      </trkpt>
      <trkpt lat="44.6533" lon="5.8565">
        <ele>1354.382536</ele>
        <time>2025-07-10T07:33:44.000Z</time>
      </trkpt>
      <trkpt lat="44.65334" lon="5.8565">
        <ele>1354.521815</ele>
        <time>2025-07-10T07:33:45.000Z</time>
      </trkpt>
      <trkpt lat="44.65337" lon="5.8565">
        <ele>1354.670053</ele>
        <time>2025-07-10T07:33:46.000Z</time>
      </trkpt>
      <trkpt lat="44.6534" lon="5.85649">
        <ele>1354.818518</ele>
        <time>2025-07-10T07:33:47.000Z</time>
      </trkpt>
      <trkpt lat="44.65344" lon="5.85649">
        <ele>1354.958072</ele>
        <time>2025-07-10T07:33:48.000Z</time>
      </trkpt>
      <trkpt lat="44.65347" lon="5.85649">
        <ele>1355.1022</ele>
        <time>2025-07-10T07:33:49.000Z</time>
      </trkpt>
      <trkpt lat="44.6535" lon="5.85648">
        <ele>1355.242678</ele>
        <time>2025-07-10T07:33:50.000Z</time>
      </trkpt>
      <trkpt lat="44.65353" lon="5.85648">
        <ele>1355.387106</ele>
        <time>2025-07-10T07:33:51.000Z</time>
      </trkpt>
      <trkpt lat="44.65357" lon="5.85647">
        <ele>1355.52666</ele>
        <time>2025-07-10T07:33:52.000Z</time>
      </trkpt>
      <trkpt lat="44.6536" lon="5.85647">
        <ele>1355.661872</ele>
        <time>2025-07-10T07:33:53.000Z</time>
      </trkpt>
      <trkpt lat="44.65363" lon="5.85647">
        <ele>1355.801426</ele>
        <time>2025-07-10T07:33:54.000Z</time>
      </trkpt>
      <trkpt lat="44.65366" lon="5.85646">
        <ele>1355.938048</ele>
        <time>2025-07-10T07:33:55.000Z</time>
      </trkpt>
      <trkpt lat="44.65369" lon="5.85645">
        <ele>1356.084322</ele>
        <time>2025-07-10T07:33:56.000Z</time>
      </trkpt>
      <trkpt lat="44.65372" lon="5.85644">
        <ele>1356.221469</ele>
        <time>2025-07-10T07:33:57.000Z</time>
      </trkpt>
      <trkpt lat="44.65375" lon="5.85644">
        <ele>1356.358091</ele>
        <time>2025-07-10T07:33:58.000Z</time>
      </trkpt>
      <trkpt lat="44.65379" lon="5.85643">
        <ele>1356.494714</ele>
        <time>2025-07-10T07:33:59.000Z</time>
      </trkpt>
      <trkpt lat="44.65382" lon="5.85642">
        <ele>1356.635634</ele>
        <time>2025-07-10T07:34:00.000Z</time>
      </trkpt>
      <trkpt lat="44.65385" lon="5.85641">
        <ele>1356.776554</ele>
        <time>2025-07-10T07:34:01.000Z</time>
      </trkpt>
      <trkpt lat="44.65388" lon="5.85641">
        <ele>1356.905151</ele>
        <time>2025-07-10T07:34:02.000Z</time>
      </trkpt>
      <trkpt lat="44.65391" lon="5.8564">
        <ele>1357.037479</ele>
        <time>2025-07-10T07:34:03.000Z</time>
      </trkpt>
      <trkpt lat="44.65394" lon="5.85639">
        <ele>1357.166708</ele>
        <time>2025-07-10T07:34:04.000Z</time>
      </trkpt>
      <trkpt lat="44.65397" lon="5.85638">
        <ele>1357.29664</ele>
        <time>2025-07-10T07:34:05.000Z</time>
      </trkpt>
      <trkpt lat="44.654" lon="5.85637">
        <ele>1357.425237</ele>
        <time>2025-07-10T07:34:06.000Z</time>
      </trkpt>
      <trkpt lat="44.65402" lon="5.85637">
        <ele>1357.548987</ele>
        <time>2025-07-10T07:34:07.000Z</time>
      </trkpt>
      <trkpt lat="44.65405" lon="5.85636">
        <ele>1357.66418</ele>
        <time>2025-07-10T07:34:08.000Z</time>
      </trkpt>
      <trkpt lat="44.65408" lon="5.85635">
        <ele>1357.783649</ele>
        <time>2025-07-10T07:34:09.000Z</time>
      </trkpt>
      <trkpt lat="44.6541" lon="5.85635">
        <ele>1357.902595</ele>
        <time>2025-07-10T07:34:10.000Z</time>
      </trkpt>
      <trkpt lat="44.65413" lon="5.85634">
        <ele>1358.017788</ele>
        <time>2025-07-10T07:34:11.000Z</time>
      </trkpt>
      <trkpt lat="44.65416" lon="5.85633">
        <ele>1358.131978</ele>
        <time>2025-07-10T07:34:12.000Z</time>
      </trkpt>
      <trkpt lat="44.65418" lon="5.85633">
        <ele>1358.245494</ele>
        <time>2025-07-10T07:34:13.000Z</time>
      </trkpt>
      <trkpt lat="44.65421" lon="5.85633">
        <ele>1358.351068</ele>
        <time>2025-07-10T07:34:14.000Z</time>
      </trkpt>
      <trkpt lat="44.65423" lon="5.85632">
        <ele>1358.465719</ele>
        <time>2025-07-10T07:34:15.000Z</time>
      </trkpt>
      <trkpt lat="44.65426" lon="5.85631">
        <ele>1358.581533</ele>
        <time>2025-07-10T07:34:16.000Z</time>
      </trkpt>
      <trkpt lat="44.65428" lon="5.85631">
        <ele>1358.691892</ele>
        <time>2025-07-10T07:34:17.000Z</time>
      </trkpt>
      <trkpt lat="44.65431" lon="5.8563">
        <ele>1358.797057</ele>
        <time>2025-07-10T07:34:18.000Z</time>
      </trkpt>
      <trkpt lat="44.65433" lon="5.8563">
        <ele>1358.906937</ele>
        <time>2025-07-10T07:34:19.000Z</time>
      </trkpt>
      <trkpt lat="44.65436" lon="5.85629">
        <ele>1359.012102</ele>
        <time>2025-07-10T07:34:20.000Z</time>
      </trkpt>
      <trkpt lat="44.65438" lon="5.85629">
        <ele>1359.104783</ele>
        <time>2025-07-10T07:34:21.000Z</time>
      </trkpt>
      <trkpt lat="44.6544" lon="5.85628">
        <ele>1359.198696</ele>
        <time>2025-07-10T07:34:22.000Z</time>
      </trkpt>
      <trkpt lat="44.65442" lon="5.85628">
        <ele>1359.29091</ele>
        <time>2025-07-10T07:34:23.000Z</time>
      </trkpt>
      <trkpt lat="44.65444" lon="5.85628">
        <ele>1359.382342</ele>
        <time>2025-07-10T07:34:24.000Z</time>
      </trkpt>
      <trkpt lat="44.65446" lon="5.85627">
        <ele>1359.47393</ele>
        <time>2025-07-10T07:34:25.000Z</time>
      </trkpt>
      <trkpt lat="44.65448" lon="5.85627">
        <ele>1359.562324</ele>
        <time>2025-07-10T07:34:26.000Z</time>
      </trkpt>
      <trkpt lat="44.6545" lon="5.85627">
        <ele>1359.653912</ele>
        <time>2025-07-10T07:34:27.000Z</time>
      </trkpt>
      <trkpt lat="44.65452" lon="5.85626">
        <ele>1359.749843</ele>
        <time>2025-07-10T07:34:28.000Z</time>
      </trkpt>
      <trkpt lat="44.65454" lon="5.85626">
        <ele>1359.841693</ele>
        <time>2025-07-10T07:34:29.000Z</time>
      </trkpt>
      <trkpt lat="44.65456" lon="5.85626">
        <ele>1359.920079</ele>
        <time>2025-07-10T07:34:30.000Z</time>
      </trkpt>
      <trkpt lat="44.65458" lon="5.85626">
        <ele>1360.007983</ele>
        <time>2025-07-10T07:34:31.000Z</time>
      </trkpt>
      <trkpt lat="44.6546" lon="5.85625">
        <ele>1360.095887</ele>
        <time>2025-07-10T07:34:32.000Z</time>
      </trkpt>
      <trkpt lat="44.65462" lon="5.85625">
        <ele>1360.191818</ele>
        <time>2025-07-10T07:34:33.000Z</time>
      </trkpt>
      <trkpt lat="44.65464" lon="5.85625">
        <ele>1360.274494</ele>
        <time>2025-07-10T07:34:34.000Z</time>
      </trkpt>
      <trkpt lat="44.65466" lon="5.85625">
        <ele>1360.357229</ele>
        <time>2025-07-10T07:34:35.000Z</time>
      </trkpt>
      <trkpt lat="44.65468" lon="5.85625">
        <ele>1360.435798</ele>
        <time>2025-07-10T07:34:36.000Z</time>
      </trkpt>
      <trkpt lat="44.6547" lon="5.85624">
        <ele>1360.519397</ele>
        <time>2025-07-10T07:34:37.000Z</time>
      </trkpt>
      <trkpt lat="44.65472" lon="5.85624">
        <ele>1360.597783</ele>
        <time>2025-07-10T07:34:38.000Z</time>
      </trkpt>
      <trkpt lat="44.65474" lon="5.85624">
        <ele>1360.681381</ele>
        <time>2025-07-10T07:34:39.000Z</time>
      </trkpt>
      <trkpt lat="44.65476" lon="5.85623">
        <ele>1360.769774</ele>
        <time>2025-07-10T07:34:40.000Z</time>
      </trkpt>
      <trkpt lat="44.65478" lon="5.85623">
        <ele>1360.852451</ele>
        <time>2025-07-10T07:34:41.000Z</time>
      </trkpt>
      <trkpt lat="44.65479" lon="5.85623">
        <ele>1360.935127</ele>
        <time>2025-07-10T07:34:42.000Z</time>
      </trkpt>
      <trkpt lat="44.65481" lon="5.85623">
        <ele>1361.017862</ele>
        <time>2025-07-10T07:34:43.000Z</time>
      </trkpt>
      <trkpt lat="44.65483" lon="5.85623">
        <ele>1361.096248</ele>
        <time>2025-07-10T07:34:44.000Z</time>
      </trkpt>
      <trkpt lat="44.65485" lon="5.85623">
        <ele>1361.175122</ele>
        <time>2025-07-10T07:34:45.000Z</time>
      </trkpt>
      <trkpt lat="44.65486" lon="5.85623">
        <ele>1361.240466</ele>
        <time>2025-07-10T07:34:46.000Z</time>
      </trkpt>
      <trkpt lat="44.65488" lon="5.85623">
        <ele>1361.30603</ele>
        <time>2025-07-10T07:34:47.000Z</time>
      </trkpt>
      <trkpt lat="44.6549" lon="5.85623">
        <ele>1361.375652</ele>
        <time>2025-07-10T07:34:48.000Z</time>
      </trkpt>
      <trkpt lat="44.65491" lon="5.85623">
        <ele>1361.449625</ele>
        <time>2025-07-10T07:34:49.000Z</time>
      </trkpt>
      <trkpt lat="44.65493" lon="5.85623">
        <ele>1361.519317</ele>
        <time>2025-07-10T07:34:50.000Z</time>
      </trkpt>
      <trkpt lat="44.65494" lon="5.85622">
        <ele>1361.589555</ele>
        <time>2025-07-10T07:34:51.000Z</time>
      </trkpt>
      <trkpt lat="44.65496" lon="5.85622">
        <ele>1361.659246</ele>
        <time>2025-07-10T07:34:52.000Z</time>
      </trkpt>
      <trkpt lat="44.65498" lon="5.85622">
        <ele>1361.735243</ele>
        <time>2025-07-10T07:34:53.000Z</time>
      </trkpt>
      <trkpt lat="44.65499" lon="5.85622">
        <ele>1361.871861</ele>
        <time>2025-07-10T07:34:54.000Z</time>
      </trkpt>
      <trkpt lat="44.65501" lon="5.85622">
        <ele>1362.008614</ele>
        <time>2025-07-10T07:34:55.000Z</time>
      </trkpt>
      <trkpt lat="44.65503" lon="5.85623">
        <ele>1362.145366</ele>
        <time>2025-07-10T07:34:56.000Z</time>
      </trkpt>
      <trkpt lat="44.65504" lon="5.85622">
        <ele>1362.29065</ele>
        <time>2025-07-10T07:34:57.000Z</time>
      </trkpt>
      <trkpt lat="44.65506" lon="5.85622">
        <ele>1362.427806</ele>
        <time>2025-07-10T07:34:58.000Z</time>
      </trkpt>
      <trkpt lat="44.65508" lon="5.85622">
        <ele>1362.57309</ele>
        <time>2025-07-10T07:34:59.000Z</time>
      </trkpt>
      <trkpt lat="44.65509" lon="5.85622">
        <ele>1362.718373</ele>
        <time>2025-07-10T07:35:00.000Z</time>
      </trkpt>
      <trkpt lat="44.65511" lon="5.85622">
        <ele>1362.863657</ele>
        <time>2025-07-10T07:35:01.000Z</time>
      </trkpt>
      <trkpt lat="44.65513" lon="5.85622">
        <ele>1363.000813</ele>
        <time>2025-07-10T07:35:02.000Z</time>
      </trkpt>
      <trkpt lat="44.65514" lon="5.85622">
        <ele>1363.13797</ele>
        <time>2025-07-10T07:35:03.000Z</time>
      </trkpt>
      <trkpt lat="44.65516" lon="5.85621">
        <ele>1363.258891</ele>
        <time>2025-07-10T07:35:04.000Z</time>
      </trkpt>
      <trkpt lat="44.65517" lon="5.85621">
        <ele>1363.406067</ele>
        <time>2025-07-10T07:35:05.000Z</time>
      </trkpt>
      <trkpt lat="44.65519" lon="5.85621">
        <ele>1363.544828</ele>
        <time>2025-07-10T07:35:06.000Z</time>
      </trkpt>
      <trkpt lat="44.6552" lon="5.8562">
        <ele>1363.675191</ele>
        <time>2025-07-10T07:35:07.000Z</time>
      </trkpt>
      <trkpt lat="44.65522" lon="5.8562">
        <ele>1363.797176</ele>
        <time>2025-07-10T07:35:08.000Z</time>
      </trkpt>
      <trkpt lat="44.65523" lon="5.85619">
        <ele>1363.946837</ele>
        <time>2025-07-10T07:35:09.000Z</time>
      </trkpt>
      <trkpt lat="44.65525" lon="5.85619">
        <ele>1364.095136</ele>
        <time>2025-07-10T07:35:10.000Z</time>
      </trkpt>
      <trkpt lat="44.65527" lon="5.85618">
        <ele>1364.225499</ele>
        <time>2025-07-10T07:35:11.000Z</time>
      </trkpt>
      <trkpt lat="44.65528" lon="5.85618">
        <ele>1364.36858</ele>
        <time>2025-07-10T07:35:12.000Z</time>
      </trkpt>
      <trkpt lat="44.6553" lon="5.85617">
        <ele>1364.518241</ele>
        <time>2025-07-10T07:35:13.000Z</time>
      </trkpt>
      <trkpt lat="44.65532" lon="5.85617">
        <ele>1364.666541</ele>
        <time>2025-07-10T07:35:14.000Z</time>
      </trkpt>
      <trkpt lat="44.65533" lon="5.85616">
        <ele>1364.799704</ele>
        <time>2025-07-10T07:35:15.000Z</time>
      </trkpt>
      <trkpt lat="44.65535" lon="5.85615">
        <ele>1364.941099</ele>
        <time>2025-07-10T07:35:16.000Z</time>
      </trkpt>
      <trkpt lat="44.65536" lon="5.85615">
        <ele>1365.07605</ele>
        <time>2025-07-10T07:35:17.000Z</time>
      </trkpt>
      <trkpt lat="44.65538" lon="5.85614">
        <ele>1365.215308</ele>
        <time>2025-07-10T07:35:18.000Z</time>
      </trkpt>
      <trkpt lat="44.65539" lon="5.85613">
        <ele>1365.354565</ele>
        <time>2025-07-10T07:35:19.000Z</time>
      </trkpt>
      <trkpt lat="44.65541" lon="5.85612">
        <ele>1365.499566</ele>
        <time>2025-07-10T07:35:20.000Z</time>
      </trkpt>
      <trkpt lat="44.65543" lon="5.85611">
        <ele>1365.65264</ele>
        <time>2025-07-10T07:35:21.000Z</time>
      </trkpt>
      <trkpt lat="44.65544" lon="5.85611">
        <ele>1365.794035</ele>
        <time>2025-07-10T07:35:22.000Z</time>
      </trkpt>
      <trkpt lat="44.65546" lon="5.8561">
        <ele>1365.933987</ele>
        <time>2025-07-10T07:35:23.000Z</time>
      </trkpt>
      <trkpt lat="44.65547" lon="5.85609">
        <ele>1366.068939</ele>
        <time>2025-07-10T07:35:24.000Z</time>
      </trkpt>
      <trkpt lat="44.65549" lon="5.85609">
        <ele>1366.21202</ele>
        <time>2025-07-10T07:35:25.000Z</time>
      </trkpt>
      <trkpt lat="44.6555" lon="5.85608">
        <ele>1366.355101</ele>
        <time>2025-07-10T07:35:26.000Z</time>
      </trkpt>
      <trkpt lat="44.65552" lon="5.85607">
        <ele>1366.488264</ele>
        <time>2025-07-10T07:35:27.000Z</time>
      </trkpt>
      <trkpt lat="44.65553" lon="5.85607">
        <ele>1366.617303</ele>
        <time>2025-07-10T07:35:28.000Z</time>
      </trkpt>
      <trkpt lat="44.65555" lon="5.85606">
        <ele>1366.759054</ele>
        <time>2025-07-10T07:35:29.000Z</time>
      </trkpt>
      <trkpt lat="44.65556" lon="5.85605">
        <ele>1366.903512</ele>
        <time>2025-07-10T07:35:30.000Z</time>
      </trkpt>
      <trkpt lat="44.65558" lon="5.85604">
        <ele>1367.050661</ele>
        <time>2025-07-10T07:35:31.000Z</time>
      </trkpt>
      <trkpt lat="44.65559" lon="5.85603">
        <ele>1367.195119</ele>
        <time>2025-07-10T07:35:32.000Z</time>
      </trkpt>
      <trkpt lat="44.65561" lon="5.85601">
        <ele>1367.33134</ele>
        <time>2025-07-10T07:35:33.000Z</time>
      </trkpt>
      <trkpt lat="44.65562" lon="5.856">
        <ele>1367.481803</ele>
        <time>2025-07-10T07:35:34.000Z</time>
      </trkpt>
      <trkpt lat="44.65564" lon="5.85599">
        <ele>1367.618748</ele>
        <time>2025-07-10T07:35:35.000Z</time>
      </trkpt>
      <trkpt lat="44.65565" lon="5.85598">
        <ele>1367.758756</ele>
        <time>2025-07-10T07:35:36.000Z</time>
      </trkpt>
      <trkpt lat="44.65567" lon="5.85596">
        <ele>1367.906122</ele>
        <time>2025-07-10T07:35:37.000Z</time>
      </trkpt>
      <trkpt lat="44.65568" lon="5.85595">
        <ele>1368.074352</ele>
        <time>2025-07-10T07:35:38.000Z</time>
      </trkpt>
      <trkpt lat="44.6557" lon="5.85594">
        <ele>1368.224814</ele>
        <time>2025-07-10T07:35:39.000Z</time>
      </trkpt>
      <trkpt lat="44.65571" lon="5.85592">
        <ele>1368.368418</ele>
        <time>2025-07-10T07:35:40.000Z</time>
      </trkpt>
      <trkpt lat="44.65572" lon="5.8559">
        <ele>1368.530415</ele>
        <time>2025-07-10T07:35:41.000Z</time>
      </trkpt>
      <trkpt lat="44.65574" lon="5.85589">
        <ele>1368.69119</ele>
        <time>2025-07-10T07:35:42.000Z</time>
      </trkpt>
      <trkpt lat="44.65575" lon="5.85587">
        <ele>1368.83789</ele>
        <time>2025-07-10T07:35:43.000Z</time>
      </trkpt>
      <trkpt lat="44.65577" lon="5.85586">
        <ele>1368.995068</ele>
        <time>2025-07-10T07:35:44.000Z</time>
      </trkpt>
      <trkpt lat="44.65578" lon="5.85585">
        <ele>1369.141767</ele>
        <time>2025-07-10T07:35:45.000Z</time>
      </trkpt>
      <trkpt lat="44.6558" lon="5.85583">
        <ele>1369.289299</ele>
        <time>2025-07-10T07:35:46.000Z</time>
      </trkpt>
      <trkpt lat="44.65581" lon="5.85581">
        <ele>1369.445102</ele>
        <time>2025-07-10T07:35:47.000Z</time>
      </trkpt>
      <trkpt lat="44.65582" lon="5.85579">
        <ele>1369.596704</ele>
        <time>2025-07-10T07:35:48.000Z</time>
      </trkpt>
      <trkpt lat="44.65583" lon="5.85578">
        <ele>1369.74217</ele>
        <time>2025-07-10T07:35:49.000Z</time>
      </trkpt>
      <trkpt lat="44.65584" lon="5.85576">
        <ele>1369.877323</ele>
        <time>2025-07-10T07:35:50.000Z</time>
      </trkpt>
      <trkpt lat="44.65586" lon="5.85575">
        <ele>1370.024855</ele>
        <time>2025-07-10T07:35:51.000Z</time>
      </trkpt>
      <trkpt lat="44.65587" lon="5.85573">
        <ele>1370.161966</ele>
        <time>2025-07-10T07:35:52.000Z</time>
      </trkpt>
      <trkpt lat="44.65588" lon="5.85572">
        <ele>1370.301795</ele>
        <time>2025-07-10T07:35:53.000Z</time>
      </trkpt>
      <trkpt lat="44.6559" lon="5.8557">
        <ele>1370.445399</ele>
        <time>2025-07-10T07:35:54.000Z</time>
      </trkpt>
      <trkpt lat="44.65591" lon="5.85568">
        <ele>1370.589533</ele>
        <time>2025-07-10T07:35:55.000Z</time>
      </trkpt>
      <trkpt lat="44.65592" lon="5.85567">
        <ele>1370.718897</ele>
        <time>2025-07-10T07:35:56.000Z</time>
      </trkpt>
      <trkpt lat="44.65593" lon="5.85565">
        <ele>1370.845596</ele>
        <time>2025-07-10T07:35:57.000Z</time>
      </trkpt>
      <trkpt lat="44.65594" lon="5.85564">
        <ele>1370.961895</ele>
        <time>2025-07-10T07:35:58.000Z</time>
      </trkpt>
      <trkpt lat="44.65595" lon="5.85563">
        <ele>1371.0846</ele>
        <time>2025-07-10T07:35:59.000Z</time>
      </trkpt>
      <trkpt lat="44.65596" lon="5.85561">
        <ele>1371.22582</ele>
        <time>2025-07-10T07:36:00.000Z</time>
      </trkpt>
      <trkpt lat="44.65597" lon="5.85559">
        <ele>1371.375659</ele>
        <time>2025-07-10T07:36:01.000Z</time>
      </trkpt>
      <trkpt lat="44.65598" lon="5.85558">
        <ele>1371.516878</ele>
        <time>2025-07-10T07:36:02.000Z</time>
      </trkpt>
      <trkpt lat="44.65599" lon="5.85556">
        <ele>1371.641744</ele>
        <time>2025-07-10T07:36:03.000Z</time>
      </trkpt>
      <trkpt lat="44.65601" lon="5.85555">
        <ele>1371.776896</ele>
        <time>2025-07-10T07:36:04.000Z</time>
      </trkpt>
      <trkpt lat="44.65602" lon="5.85553">
        <ele>1371.922362</ele>
        <time>2025-07-10T07:36:05.000Z</time>
      </trkpt>
      <trkpt lat="44.65603" lon="5.85551">
        <ele>1372.059473</ele>
        <time>2025-07-10T07:36:06.000Z</time>
      </trkpt>
      <trkpt lat="44.65604" lon="5.8555">
        <ele>1372.188837</ele>
        <time>2025-07-10T07:36:07.000Z</time>
      </trkpt>
      <trkpt lat="44.65605" lon="5.85548">
        <ele>1372.323989</ele>
        <time>2025-07-10T07:36:08.000Z</time>
      </trkpt>
      <trkpt lat="44.65606" lon="5.85547">
        <ele>1372.469455</ele>
        <time>2025-07-10T07:36:09.000Z</time>
      </trkpt>
      <trkpt lat="44.65608" lon="5.85545">
        <ele>1372.609284</ele>
        <time>2025-07-10T07:36:10.000Z</time>
      </trkpt>
      <trkpt lat="44.65609" lon="5.85544">
        <ele>1372.750504</ele>
        <time>2025-07-10T07:36:11.000Z</time>
      </trkpt>
      <trkpt lat="44.6561" lon="5.85542">
        <ele>1372.875369</ele>
        <time>2025-07-10T07:36:12.000Z</time>
      </trkpt>
      <trkpt lat="44.65611" lon="5.8554">
        <ele>1373.009356</ele>
        <time>2025-07-10T07:36:13.000Z</time>
      </trkpt>
      <trkpt lat="44.65612" lon="5.85538">
        <ele>1373.162908</ele>
        <time>2025-07-10T07:36:14.000Z</time>
      </trkpt>
      <trkpt lat="44.65613" lon="5.85537">
        <ele>1373.312747</ele>
        <time>2025-07-10T07:36:15.000Z</time>
      </trkpt>
      <trkpt lat="44.65614" lon="5.85535">
        <ele>1373.447899</ele>
        <time>2025-07-10T07:36:16.000Z</time>
      </trkpt>
      <trkpt lat="44.65615" lon="5.85534">
        <ele>1373.587728</ele>
        <time>2025-07-10T07:36:17.000Z</time>
      </trkpt>
      <trkpt lat="44.65617" lon="5.85532">
        <ele>1373.723948</ele>
        <time>2025-07-10T07:36:18.000Z</time>
      </trkpt>
      <trkpt lat="44.65618" lon="5.85531">
        <ele>1373.87148</ele>
        <time>2025-07-10T07:36:19.000Z</time>
      </trkpt>
      <trkpt lat="44.65619" lon="5.85529">
        <ele>1374.018179</ele>
        <time>2025-07-10T07:36:20.000Z</time>
      </trkpt>
      <trkpt lat="44.65621" lon="5.85528">
        <ele>1374.147537</ele>
        <time>2025-07-10T07:36:21.000Z</time>
      </trkpt>
      <trkpt lat="44.65622" lon="5.85526">
        <ele>1374.288756</ele>
        <time>2025-07-10T07:36:22.000Z</time>
      </trkpt>
      <trkpt lat="44.65623" lon="5.85524">
        <ele>1374.432313</ele>
        <time>2025-07-10T07:36:23.000Z</time>
      </trkpt>
      <trkpt lat="44.65624" lon="5.85523">
        <ele>1374.565948</ele>
        <time>2025-07-10T07:36:24.000Z</time>
      </trkpt>
      <trkpt lat="44.65625" lon="5.85521">
        <ele>1374.702169</ele>
        <time>2025-07-10T07:36:25.000Z</time>
      </trkpt>
      <trkpt lat="44.65626" lon="5.8552">
        <ele>1374.842177</ele>
        <time>2025-07-10T07:36:26.000Z</time>
      </trkpt>
      <trkpt lat="44.65628" lon="5.85519">
        <ele>1374.992478</ele>
        <time>2025-07-10T07:36:27.000Z</time>
      </trkpt>
      <trkpt lat="44.65629" lon="5.85517">
        <ele>1375.136082</ele>
        <time>2025-07-10T07:36:28.000Z</time>
      </trkpt>
      <trkpt lat="44.6563" lon="5.85516">
        <ele>1375.269233</ele>
        <time>2025-07-10T07:36:29.000Z</time>
      </trkpt>
      <trkpt lat="44.65632" lon="5.85515">
        <ele>1375.394975</ele>
        <time>2025-07-10T07:36:30.000Z</time>
      </trkpt>
      <trkpt lat="44.65633" lon="5.85513">
        <ele>1375.528127</ele>
        <time>2025-07-10T07:36:31.000Z</time>
      </trkpt>
      <trkpt lat="44.65634" lon="5.85512">
        <ele>1375.657485</ele>
        <time>2025-07-10T07:36:32.000Z</time>
      </trkpt>
      <trkpt lat="44.65635" lon="5.8551">
        <ele>1375.797313</ele>
        <time>2025-07-10T07:36:33.000Z</time>
      </trkpt>
      <trkpt lat="44.65637" lon="5.85509">
        <ele>1375.947776</ele>
        <time>2025-07-10T07:36:34.000Z</time>
      </trkpt>
      <trkpt lat="44.65638" lon="5.85508">
        <ele>1376.083996</ele>
        <time>2025-07-10T07:36:35.000Z</time>
      </trkpt>
      <trkpt lat="44.65639" lon="5.85506">
        <ele>1376.217148</ele>
        <time>2025-07-10T07:36:36.000Z</time>
      </trkpt>
      <trkpt lat="44.65641" lon="5.85505">
        <ele>1376.353368</ele>
        <time>2025-07-10T07:36:37.000Z</time>
      </trkpt>
      <trkpt lat="44.65642" lon="5.85504">
        <ele>1376.490313</ele>
        <time>2025-07-10T07:36:38.000Z</time>
      </trkpt>
      <trkpt lat="44.65643" lon="5.85503">
        <ele>1376.630321</ele>
        <time>2025-07-10T07:36:39.000Z</time>
      </trkpt>
      <trkpt lat="44.65645" lon="5.85501">
        <ele>1376.770149</ele>
        <time>2025-07-10T07:36:40.000Z</time>
      </trkpt>
      <trkpt lat="44.65646" lon="5.855">
        <ele>1376.899507</ele>
        <time>2025-07-10T07:36:41.000Z</time>
      </trkpt>
      <trkpt lat="44.65647" lon="5.85499">
        <ele>1377.028864</ele>
        <time>2025-07-10T07:36:42.000Z</time>
      </trkpt>
      <trkpt lat="44.65648" lon="5.85498">
        <ele>1377.148337</ele>
        <time>2025-07-10T07:36:43.000Z</time>
      </trkpt>
      <trkpt lat="44.6565" lon="5.85497">
        <ele>1377.267318</ele>
        <time>2025-07-10T07:36:44.000Z</time>
      </trkpt>
      <trkpt lat="44.65651" lon="5.85496">
        <ele>1377.375428</ele>
        <time>2025-07-10T07:36:45.000Z</time>
      </trkpt>
      <trkpt lat="44.65653" lon="5.85495">
        <ele>1377.495051</ele>
        <time>2025-07-10T07:36:46.000Z</time>
      </trkpt>
      <trkpt lat="44.65654" lon="5.85494">
        <ele>1377.618476</ele>
        <time>2025-07-10T07:36:47.000Z</time>
      </trkpt>
      <trkpt lat="44.65656" lon="5.85492">
        <ele>1377.744385</ele>
        <time>2025-07-10T07:36:48.000Z</time>
      </trkpt>
      <trkpt lat="44.65657" lon="5.85491">
        <ele>1377.858948</ele>
        <time>2025-07-10T07:36:49.000Z</time>
      </trkpt>
      <trkpt lat="44.65658" lon="5.8549">
        <ele>1377.973511</ele>
        <time>2025-07-10T07:36:50.000Z</time>
      </trkpt>
      <trkpt lat="44.6566" lon="5.85489">
        <ele>1378.094623</ele>
        <time>2025-07-10T07:36:51.000Z</time>
      </trkpt>
      <trkpt lat="44.65661" lon="5.85489">
        <ele>1378.209926</ele>
        <time>2025-07-10T07:36:52.000Z</time>
      </trkpt>
      <trkpt lat="44.65663" lon="5.85488">
        <ele>1378.332174</ele>
        <time>2025-07-10T07:36:53.000Z</time>
      </trkpt>
      <trkpt lat="44.65664" lon="5.85487">
        <ele>1378.440577</ele>
        <time>2025-07-10T07:36:54.000Z</time>
      </trkpt>
      <trkpt lat="44.65666" lon="5.85487">
        <ele>1378.561385</ele>
        <time>2025-07-10T07:36:55.000Z</time>
      </trkpt>
      <trkpt lat="44.65668" lon="5.85486">
        <ele>1378.682193</ele>
        <time>2025-07-10T07:36:56.000Z</time>
      </trkpt>
      <trkpt lat="44.65669" lon="5.85486">
        <ele>1378.80075</ele>
        <time>2025-07-10T07:36:57.000Z</time>
      </trkpt>
      <trkpt lat="44.65671" lon="5.85485">
        <ele>1378.920326</ele>
        <time>2025-07-10T07:36:58.000Z</time>
      </trkpt>
      <trkpt lat="44.65672" lon="5.85484">
        <ele>1379.042574</ele>
        <time>2025-07-10T07:36:59.000Z</time>
      </trkpt>
      <trkpt lat="44.65674" lon="5.85484">
        <ele>1379.164822</ele>
        <time>2025-07-10T07:37:00.000Z</time>
      </trkpt>
      <trkpt lat="44.65675" lon="5.85483">
        <ele>1379.280125</ele>
        <time>2025-07-10T07:37:01.000Z</time>
      </trkpt>
      <trkpt lat="44.65677" lon="5.85483">
        <ele>1379.3997</ele>
        <time>2025-07-10T07:37:02.000Z</time>
      </trkpt>
      <trkpt lat="44.65679" lon="5.85482">
        <ele>1379.524695</ele>
        <time>2025-07-10T07:37:03.000Z</time>
      </trkpt>
      <trkpt lat="44.6568" lon="5.85482">
        <ele>1379.650442</ele>
        <time>2025-07-10T07:37:04.000Z</time>
      </trkpt>
      <trkpt lat="44.65682" lon="5.85482">
        <ele>1379.774572</ele>
        <time>2025-07-10T07:37:05.000Z</time>
      </trkpt>
      <trkpt lat="44.65684" lon="5.85482">
        <ele>1379.891759</ele>
        <time>2025-07-10T07:37:06.000Z</time>
      </trkpt>
      <trkpt lat="44.65685" lon="5.85481">
        <ele>1379.998535</ele>
        <time>2025-07-10T07:37:07.000Z</time>
      </trkpt>
      <trkpt lat="44.65687" lon="5.8548">
        <ele>1380.125242</ele>
        <time>2025-07-10T07:37:08.000Z</time>
      </trkpt>
      <trkpt lat="44.65688" lon="5.8548">
        <ele>1380.2438</ele>
        <time>2025-07-10T07:37:09.000Z</time>
      </trkpt>
      <trkpt lat="44.6569" lon="5.8548">
        <ele>1380.36793</ele>
        <time>2025-07-10T07:37:10.000Z</time>
      </trkpt>
      <trkpt lat="44.65692" lon="5.8548">
        <ele>1380.477361</ele>
        <time>2025-07-10T07:37:11.000Z</time>
      </trkpt>
      <trkpt lat="44.65693" lon="5.8548">
        <ele>1380.601816</ele>
        <time>2025-07-10T07:37:12.000Z</time>
      </trkpt>
      <trkpt lat="44.65695" lon="5.85479">
        <ele>1380.712349</ele>
        <time>2025-07-10T07:37:13.000Z</time>
      </trkpt>
      <trkpt lat="44.65697" lon="5.85479">
        <ele>1380.845297</ele>
        <time>2025-07-10T07:37:14.000Z</time>
      </trkpt>
      <trkpt lat="44.65698" lon="5.85479">
        <ele>1380.963057</ele>
        <time>2025-07-10T07:37:15.000Z</time>
      </trkpt>
      <trkpt lat="44.657" lon="5.85478">
        <ele>1381.088052</ele>
        <time>2025-07-10T07:37:16.000Z</time>
      </trkpt>
      <trkpt lat="44.65702" lon="5.85479">
        <ele>1381.219471</ele>
        <time>2025-07-10T07:37:17.000Z</time>
      </trkpt>
      <trkpt lat="44.65703" lon="5.85479">
        <ele>1381.343601</ele>
        <time>2025-07-10T07:37:18.000Z</time>
      </trkpt>
      <trkpt lat="44.65705" lon="5.85479">
        <ele>1381.460328</ele>
        <time>2025-07-10T07:37:19.000Z</time>
      </trkpt>
      <trkpt lat="44.65707" lon="5.85479">
        <ele>1381.591645</ele>
        <time>2025-07-10T07:37:20.000Z</time>
      </trkpt>
      <trkpt lat="44.65709" lon="5.85479">
        <ele>1381.730354</ele>
        <time>2025-07-10T07:37:21.000Z</time>
      </trkpt>
      <trkpt lat="44.6571" lon="5.85478">
        <ele>1381.848114</ele>
        <time>2025-07-10T07:37:22.000Z</time>
      </trkpt>
      <trkpt lat="44.65712" lon="5.85478">
        <ele>1381.986727</ele>
        <time>2025-07-10T07:37:23.000Z</time>
      </trkpt>
      <trkpt lat="44.65714" lon="5.85478">
        <ele>1382.133003</ele>
        <time>2025-07-10T07:37:24.000Z</time>
      </trkpt>
      <trkpt lat="44.65716" lon="5.85478">
        <ele>1382.25875</ele>
        <time>2025-07-10T07:37:25.000Z</time>
      </trkpt>
      <trkpt lat="44.65718" lon="5.85478">
        <ele>1382.39017</ele>
        <time>2025-07-10T07:37:26.000Z</time>
      </trkpt>
      <trkpt lat="44.6572" lon="5.85478">
        <ele>1382.522407</ele>
        <time>2025-07-10T07:37:27.000Z</time>
      </trkpt>
      <trkpt lat="44.65721" lon="5.85478">
        <ele>1382.646428</ele>
        <time>2025-07-10T07:37:28.000Z</time>
      </trkpt>
      <trkpt lat="44.65723" lon="5.85478">
        <ele>1382.777848</ele>
        <time>2025-07-10T07:37:29.000Z</time>
      </trkpt>
      <trkpt lat="44.65725" lon="5.85478">
        <ele>1382.909165</ele>
        <time>2025-07-10T07:37:30.000Z</time>
      </trkpt>
      <trkpt lat="44.65727" lon="5.85478">
        <ele>1383.047875</ele>
        <time>2025-07-10T07:37:31.000Z</time>
      </trkpt>
      <trkpt lat="44.65729" lon="5.85478">
        <ele>1383.187359</ele>
        <time>2025-07-10T07:37:32.000Z</time>
      </trkpt>
      <trkpt lat="44.6573" lon="5.85478">
        <ele>1383.318778</ele>
        <time>2025-07-10T07:37:33.000Z</time>
      </trkpt>
      <trkpt lat="44.65732" lon="5.85478">
        <ele>1383.43562</ele>
        <time>2025-07-10T07:37:34.000Z</time>
      </trkpt>
      <trkpt lat="44.65734" lon="5.85478">
        <ele>1383.58162</ele>
        <time>2025-07-10T07:37:35.000Z</time>
      </trkpt>
      <trkpt lat="44.65736" lon="5.85478">
        <ele>1383.72762</ele>
        <time>2025-07-10T07:37:36.000Z</time>
      </trkpt>
      <trkpt lat="44.65738" lon="5.85478">
        <ele>1383.852615</ele>
        <time>2025-07-10T07:37:37.000Z</time>
      </trkpt>
      <trkpt lat="44.65739" lon="5.85478">
        <ele>1383.976637</ele>
        <time>2025-07-10T07:37:38.000Z</time>
      </trkpt>
      <trkpt lat="44.65741" lon="5.85479">
        <ele>1384.115346</ele>
        <time>2025-07-10T07:37:39.000Z</time>
      </trkpt>
      <trkpt lat="44.65743" lon="5.85479">
        <ele>1384.25483</ele>
        <time>2025-07-10T07:37:40.000Z</time>
      </trkpt>
      <trkpt lat="44.65745" lon="5.85479">
        <ele>1384.401107</ele>
        <time>2025-07-10T07:37:41.000Z</time>
      </trkpt>
      <trkpt lat="44.65747" lon="5.85479">
        <ele>1384.541265</ele>
        <time>2025-07-10T07:37:42.000Z</time>
      </trkpt>
      <trkpt lat="44.65749" lon="5.8548">
        <ele>1384.679975</ele>
        <time>2025-07-10T07:37:43.000Z</time>
      </trkpt>
      <trkpt lat="44.65751" lon="5.8548">
        <ele>1384.826251</ele>
        <time>2025-07-10T07:37:44.000Z</time>
      </trkpt>
      <trkpt lat="44.65753" lon="5.8548">
        <ele>1384.979454</ele>
        <time>2025-07-10T07:37:45.000Z</time>
      </trkpt>
      <trkpt lat="44.65755" lon="5.8548">
        <ele>1385.125362</ele>
        <time>2025-07-10T07:37:46.000Z</time>
      </trkpt>
      <trkpt lat="44.65757" lon="5.8548">
        <ele>1385.263975</ele>
        <time>2025-07-10T07:37:47.000Z</time>
      </trkpt>
      <trkpt lat="44.65759" lon="5.8548">
        <ele>1385.404133</ele>
        <time>2025-07-10T07:37:48.000Z</time>
      </trkpt>
      <trkpt lat="44.65761" lon="5.85481">
        <ele>1385.545153</ele>
        <time>2025-07-10T07:37:49.000Z</time>
      </trkpt>
      <trkpt lat="44.65763" lon="5.85481">
        <ele>1385.684154</ele>
        <time>2025-07-10T07:37:50.000Z</time>
      </trkpt>
      <trkpt lat="44.65765" lon="5.85481">
        <ele>1385.81639</ele>
        <time>2025-07-10T07:37:51.000Z</time>
      </trkpt>
      <trkpt lat="44.65766" lon="5.85481">
        <ele>1385.933232</ele>
        <time>2025-07-10T07:37:52.000Z</time>
      </trkpt>
      <trkpt lat="44.65768" lon="5.85482">
        <ele>1386.065469</ele>
        <time>2025-07-10T07:37:53.000Z</time>
      </trkpt>
      <trkpt lat="44.6577" lon="5.85482">
        <ele>1386.189599</ele>
        <time>2025-07-10T07:37:54.000Z</time>
      </trkpt>
      <trkpt lat="44.65772" lon="5.85482">
        <ele>1386.328308</ele>
        <time>2025-07-10T07:37:55.000Z</time>
      </trkpt>
      <trkpt lat="44.65773" lon="5.85482">
        <ele>1386.467018</ele>
        <time>2025-07-10T07:37:56.000Z</time>
      </trkpt>
      <trkpt lat="44.65775" lon="5.85482">
        <ele>1386.606502</ele>
        <time>2025-07-10T07:37:57.000Z</time>
      </trkpt>
      <trkpt lat="44.65777" lon="5.85482">
        <ele>1386.745502</ele>
        <time>2025-07-10T07:37:58.000Z</time>
      </trkpt>
      <trkpt lat="44.65779" lon="5.85483">
        <ele>1386.877739</ele>
        <time>2025-07-10T07:37:59.000Z</time>
      </trkpt>
      <trkpt lat="44.65781" lon="5.85483">
        <ele>1387.017897</ele>
        <time>2025-07-10T07:38:00.000Z</time>
      </trkpt>
      <trkpt lat="44.65783" lon="5.85483">
        <ele>1387.158055</ele>
        <time>2025-07-10T07:38:01.000Z</time>
      </trkpt>
      <trkpt lat="44.65785" lon="5.85484">
        <ele>1387.293013</ele>
        <time>2025-07-10T07:38:02.000Z</time>
      </trkpt>
      <trkpt lat="44.65786" lon="5.85485">
        <ele>1387.429262</ele>
        <time>2025-07-10T07:38:03.000Z</time>
      </trkpt>
      <trkpt lat="44.65788" lon="5.85485">
        <ele>1387.56221</ele>
        <time>2025-07-10T07:38:04.000Z</time>
      </trkpt>
      <trkpt lat="44.6579" lon="5.85485">
        <ele>1387.694446</ele>
        <time>2025-07-10T07:38:05.000Z</time>
      </trkpt>
      <trkpt lat="44.65792" lon="5.85486">
        <ele>1387.826683</ele>
        <time>2025-07-10T07:38:06.000Z</time>
      </trkpt>
      <trkpt lat="44.65794" lon="5.85486">
        <ele>1387.966167</ele>
        <time>2025-07-10T07:38:07.000Z</time>
      </trkpt>
      <trkpt lat="44.65795" lon="5.85486">
        <ele>1388.091162</ele>
        <time>2025-07-10T07:38:08.000Z</time>
      </trkpt>
      <trkpt lat="44.65797" lon="5.85487">
        <ele>1388.224109</ele>
        <time>2025-07-10T07:38:09.000Z</time>
      </trkpt>
      <trkpt lat="44.65799" lon="5.85487">
        <ele>1388.356346</ele>
        <time>2025-07-10T07:38:10.000Z</time>
      </trkpt>
      <trkpt lat="44.65801" lon="5.85487">
        <ele>1388.489294</ele>
        <time>2025-07-10T07:38:11.000Z</time>
      </trkpt>
      <trkpt lat="44.65803" lon="5.85488">
        <ele>1388.630314</ele>
        <time>2025-07-10T07:38:12.000Z</time>
      </trkpt>
      <trkpt lat="44.65805" lon="5.85488">
        <ele>1388.770472</ele>
        <time>2025-07-10T07:38:13.000Z</time>
      </trkpt>
      <trkpt lat="44.65807" lon="5.85489">
        <ele>1388.918669</ele>
        <time>2025-07-10T07:38:14.000Z</time>
      </trkpt>
      <trkpt lat="44.65809" lon="5.85489">
        <ele>1389.075004</ele>
        <time>2025-07-10T07:38:15.000Z</time>
      </trkpt>
      <trkpt lat="44.65811" lon="5.8549">
        <ele>1389.20886</ele>
        <time>2025-07-10T07:38:16.000Z</time>
      </trkpt>
      <trkpt lat="44.65812" lon="5.8549">
        <ele>1389.349018</ele>
        <time>2025-07-10T07:38:17.000Z</time>
      </trkpt>
      <trkpt lat="44.65814" lon="5.85491">
        <ele>1389.490038</ele>
        <time>2025-07-10T07:38:18.000Z</time>
      </trkpt>
      <trkpt lat="44.65816" lon="5.85491">
        <ele>1389.622985</ele>
        <time>2025-07-10T07:38:19.000Z</time>
      </trkpt>
      <trkpt lat="44.65818" lon="5.85492">
        <ele>1389.756841</ele>
        <time>2025-07-10T07:38:20.000Z</time>
      </trkpt>
      <trkpt lat="44.6582" lon="5.85492">
        <ele>1389.891799</ele>
        <time>2025-07-10T07:38:21.000Z</time>
      </trkpt>
      <trkpt lat="44.65821" lon="5.85493">
        <ele>1390.017546</ele>
        <time>2025-07-10T07:38:22.000Z</time>
      </trkpt>
      <trkpt lat="44.65824" lon="5.85493">
        <ele>1390.172149</ele>
        <time>2025-07-10T07:38:23.000Z</time>
      </trkpt>
      <trkpt lat="44.65826" lon="5.85494">
        <ele>1390.307462</ele>
        <time>2025-07-10T07:38:24.000Z</time>
      </trkpt>
      <trkpt lat="44.65827" lon="5.85494">
        <ele>1390.425635</ele>
        <time>2025-07-10T07:38:25.000Z</time>
      </trkpt>
      <trkpt lat="44.65829" lon="5.85494">
        <ele>1390.550983</ele>
        <time>2025-07-10T07:38:26.000Z</time>
      </trkpt>
      <trkpt lat="44.65831" lon="5.85495">
        <ele>1390.682711</ele>
        <time>2025-07-10T07:38:27.000Z</time>
      </trkpt>
      <trkpt lat="44.65833" lon="5.85495">
        <ele>1390.80806</ele>
        <time>2025-07-10T07:38:28.000Z</time>
      </trkpt>
      <trkpt lat="44.65835" lon="5.85496">
        <ele>1390.92293</ele>
        <time>2025-07-10T07:38:29.000Z</time>
      </trkpt>
      <trkpt lat="44.65837" lon="5.85497">
        <ele>1391.041103</ele>
        <time>2025-07-10T07:38:30.000Z</time>
      </trkpt>
      <trkpt lat="44.65838" lon="5.85497">
        <ele>1391.153729</ele>
        <time>2025-07-10T07:38:31.000Z</time>
      </trkpt>
      <trkpt lat="44.6584" lon="5.85498">
        <ele>1391.287381</ele>
        <time>2025-07-10T07:38:32.000Z</time>
      </trkpt>
      <trkpt lat="44.65842" lon="5.85499">
        <ele>1391.409798</ele>
        <time>2025-07-10T07:38:33.000Z</time>
      </trkpt>
      <trkpt lat="44.65844" lon="5.85499">
        <ele>1391.535147</ele>
        <time>2025-07-10T07:38:34.000Z</time>
      </trkpt>
      <trkpt lat="44.65846" lon="5.85499">
        <ele>1391.658442</ele>
        <time>2025-07-10T07:38:35.000Z</time>
      </trkpt>
      <trkpt lat="44.65848" lon="5.85499">
        <ele>1391.782425</ele>
        <time>2025-07-10T07:38:36.000Z</time>
      </trkpt>
      <trkpt lat="44.6585" lon="5.855">
        <ele>1391.899966</ele>
        <time>2025-07-10T07:38:37.000Z</time>
      </trkpt>
      <trkpt lat="44.65851" lon="5.855">
        <ele>1392.017507</ele>
        <time>2025-07-10T07:38:38.000Z</time>
      </trkpt>
      <trkpt lat="44.65853" lon="5.855">
        <ele>1392.121671</ele>
        <time>2025-07-10T07:38:39.000Z</time>
      </trkpt>
      <trkpt lat="44.65855" lon="5.855">
        <ele>1392.232295</ele>
        <time>2025-07-10T07:38:40.000Z</time>
      </trkpt>
      <trkpt lat="44.65856" lon="5.85501">
        <ele>1392.339678</ele>
        <time>2025-07-10T07:38:41.000Z</time>
      </trkpt>
      <trkpt lat="44.65858" lon="5.85502">
        <ele>1392.449799</ele>
        <time>2025-07-10T07:38:42.000Z</time>
      </trkpt>
      <trkpt lat="44.6586" lon="5.85502">
        <ele>1392.569759</ele>
        <time>2025-07-10T07:38:43.000Z</time>
      </trkpt>
      <trkpt lat="44.65861" lon="5.85503">
        <ele>1392.681531</ele>
        <time>2025-07-10T07:38:44.000Z</time>
      </trkpt>
      <trkpt lat="44.65863" lon="5.85503">
        <ele>1392.793303</ele>
        <time>2025-07-10T07:38:45.000Z</time>
      </trkpt>
      <trkpt lat="44.65865" lon="5.85504">
        <ele>1392.918652</ele>
        <time>2025-07-10T07:38:46.000Z</time>
      </trkpt>
      <trkpt lat="44.65867" lon="5.85504">
        <ele>1393.024939</ele>
        <time>2025-07-10T07:38:47.000Z</time>
      </trkpt>
      <trkpt lat="44.65868" lon="5.85505">
        <ele>1393.143112</ele>
        <time>2025-07-10T07:38:48.000Z</time>
      </trkpt>
      <trkpt lat="44.6587" lon="5.85505">
        <ele>1393.254216</ele>
        <time>2025-07-10T07:38:49.000Z</time>
      </trkpt>
      <trkpt lat="44.65872" lon="5.85505">
        <ele>1393.372389</ele>
        <time>2025-07-10T07:38:50.000Z</time>
      </trkpt>
      <trkpt lat="44.65874" lon="5.85506">
        <ele>1393.491369</ele>
        <time>2025-07-10T07:38:51.000Z</time>
      </trkpt>
      <trkpt lat="44.65876" lon="5.85506">
        <ele>1393.629486</ele>
        <time>2025-07-10T07:38:52.000Z</time>
      </trkpt>
      <trkpt lat="44.65878" lon="5.85507">
        <ele>1393.740111</ele>
        <time>2025-07-10T07:38:53.000Z</time>
      </trkpt>
      <trkpt lat="44.65879" lon="5.85507">
        <ele>1393.864094</ele>
        <time>2025-07-10T07:38:54.000Z</time>
      </trkpt>
      <trkpt lat="44.65881" lon="5.85507">
        <ele>1393.982267</ele>
        <time>2025-07-10T07:38:55.000Z</time>
      </trkpt>
      <trkpt lat="44.65883" lon="5.85507">
        <ele>1394.099355</ele>
        <time>2025-07-10T07:38:56.000Z</time>
      </trkpt>
      <trkpt lat="44.65885" lon="5.85508">
        <ele>1394.216169</ele>
        <time>2025-07-10T07:38:57.000Z</time>
      </trkpt>
      <trkpt lat="44.65887" lon="5.85508">
        <ele>1394.352659</ele>
        <time>2025-07-10T07:38:58.000Z</time>
      </trkpt>
      <trkpt lat="44.65889" lon="5.85508">
        <ele>1394.476213</ele>
        <time>2025-07-10T07:38:59.000Z</time>
      </trkpt>
      <trkpt lat="44.65891" lon="5.85508">
        <ele>1394.593028</ele>
        <time>2025-07-10T07:39:00.000Z</time>
      </trkpt>
      <trkpt lat="44.65893" lon="5.85508">
        <ele>1394.716322</ele>
        <time>2025-07-10T07:39:01.000Z</time>
      </trkpt>
      <trkpt lat="44.65895" lon="5.85508">
        <ele>1394.852578</ele>
        <time>2025-07-10T07:39:02.000Z</time>
      </trkpt>
      <trkpt lat="44.65897" lon="5.85508">
        <ele>1394.983007</ele>
        <time>2025-07-10T07:39:03.000Z</time>
      </trkpt>
      <trkpt lat="44.65899" lon="5.85509">
        <ele>1395.114006</ele>
        <time>2025-07-10T07:39:04.000Z</time>
      </trkpt>
      <trkpt lat="44.65901" lon="5.85509">
        <ele>1395.23756</ele>
        <time>2025-07-10T07:39:05.000Z</time>
      </trkpt>
      <trkpt lat="44.65902" lon="5.85509">
        <ele>1395.362908</ele>
        <time>2025-07-10T07:39:06.000Z</time>
      </trkpt>
      <trkpt lat="44.65904" lon="5.8551">
        <ele>1395.475534</ele>
        <time>2025-07-10T07:39:07.000Z</time>
      </trkpt>
      <trkpt lat="44.65906" lon="5.8551">
        <ele>1395.585869</ele>
        <time>2025-07-10T07:39:08.000Z</time>
      </trkpt>
      <trkpt lat="44.65908" lon="5.8551">
        <ele>1395.715562</ele>
        <time>2025-07-10T07:39:09.000Z</time>
      </trkpt>
      <trkpt lat="44.6591" lon="5.8551">
        <ele>1395.845338</ele>
        <time>2025-07-10T07:39:10.000Z</time>
      </trkpt>
      <trkpt lat="44.65912" lon="5.8551">
        <ele>1395.975358</ele>
        <time>2025-07-10T07:39:11.000Z</time>
      </trkpt>
      <trkpt lat="44.65914" lon="5.8551">
        <ele>1396.111614</ele>
        <time>2025-07-10T07:39:12.000Z</time>
      </trkpt>
      <trkpt lat="44.65916" lon="5.8551">
        <ele>1396.228429</ele>
        <time>2025-07-10T07:39:13.000Z</time>
      </trkpt>
      <trkpt lat="44.65918" lon="5.8551">
        <ele>1396.351982</ele>
        <time>2025-07-10T07:39:14.000Z</time>
      </trkpt>
      <trkpt lat="44.6592" lon="5.8551">
        <ele>1396.481758</ele>
        <time>2025-07-10T07:39:15.000Z</time>
      </trkpt>
      <trkpt lat="44.65922" lon="5.8551">
        <ele>1396.605311</ele>
        <time>2025-07-10T07:39:16.000Z</time>
      </trkpt>
      <trkpt lat="44.65923" lon="5.85509">
        <ele>1396.729294</ele>
        <time>2025-07-10T07:39:17.000Z</time>
      </trkpt>
      <trkpt lat="44.65925" lon="5.85509">
        <ele>1396.859315</ele>
        <time>2025-07-10T07:39:18.000Z</time>
      </trkpt>
      <trkpt lat="44.65928" lon="5.85509">
        <ele>1396.996194</ele>
        <time>2025-07-10T07:39:19.000Z</time>
      </trkpt>
      <trkpt lat="44.65929" lon="5.85508">
        <ele>1397.120776</ele>
        <time>2025-07-10T07:39:20.000Z</time>
      </trkpt>
      <trkpt lat="44.65931" lon="5.85508">
        <ele>1397.244329</ele>
        <time>2025-07-10T07:39:21.000Z</time>
      </trkpt>
      <trkpt lat="44.65933" lon="5.85508">
        <ele>1397.36331</ele>
        <time>2025-07-10T07:39:22.000Z</time>
      </trkpt>
      <trkpt lat="44.65935" lon="5.85507">
        <ele>1397.494309</ele>
        <time>2025-07-10T07:39:23.000Z</time>
      </trkpt>
      <trkpt lat="44.65937" lon="5.85507">
        <ele>1397.619657</ele>
        <time>2025-07-10T07:39:24.000Z</time>
      </trkpt>
      <trkpt lat="44.65939" lon="5.85506">
        <ele>1397.748272</ele>
        <time>2025-07-10T07:39:25.000Z</time>
      </trkpt>
      <trkpt lat="44.65941" lon="5.85505">
        <ele>1397.865868</ele>
        <time>2025-07-10T07:39:26.000Z</time>
      </trkpt>
      <trkpt lat="44.65943" lon="5.85504">
        <ele>1398.000708</ele>
        <time>2025-07-10T07:39:27.000Z</time>
      </trkpt>
      <trkpt lat="44.65944" lon="5.85503">
        <ele>1398.128077</ele>
        <time>2025-07-10T07:39:28.000Z</time>
      </trkpt>
      <trkpt lat="44.65946" lon="5.85503">
        <ele>1398.255446</ele>
        <time>2025-07-10T07:39:29.000Z</time>
      </trkpt>
      <trkpt lat="44.65948" lon="5.85502">
        <ele>1398.382814</ele>
        <time>2025-07-10T07:39:30.000Z</time>
      </trkpt>
      <trkpt lat="44.6595" lon="5.85501">
        <ele>1398.509093</ele>
        <time>2025-07-10T07:39:31.000Z</time>
      </trkpt>
      <trkpt lat="44.65952" lon="5.85501">
        <ele>1398.629053</ele>
        <time>2025-07-10T07:39:32.000Z</time>
      </trkpt>
      <trkpt lat="44.65954" lon="5.855">
        <ele>1398.76078</ele>
        <time>2025-07-10T07:39:33.000Z</time>
      </trkpt>
      <trkpt lat="44.65956" lon="5.855">
        <ele>1398.892508</ele>
        <time>2025-07-10T07:39:34.000Z</time>
      </trkpt>
      <trkpt lat="44.65958" lon="5.85499">
        <ele>1399.018786</ele>
        <time>2025-07-10T07:39:35.000Z</time>
      </trkpt>
      <trkpt lat="44.6596" lon="5.85498">
        <ele>1399.153627</ele>
        <time>2025-07-10T07:39:36.000Z</time>
      </trkpt>
      <trkpt lat="44.65962" lon="5.85497">
        <ele>1399.279134</ele>
        <time>2025-07-10T07:39:37.000Z</time>
      </trkpt>
      <trkpt lat="44.65963" lon="5.85496">
        <ele>1399.406408</ele>
        <time>2025-07-10T07:39:38.000Z</time>
      </trkpt>
      <trkpt lat="44.65965" lon="5.85495">
        <ele>1399.545672</ele>
        <time>2025-07-10T07:39:39.000Z</time>
      </trkpt>
      <trkpt lat="44.65967" lon="5.85494">
        <ele>1399.673041</ele>
        <time>2025-07-10T07:39:40.000Z</time>
      </trkpt>
      <trkpt lat="44.65969" lon="5.85494">
        <ele>1399.801657</ele>
        <time>2025-07-10T07:39:41.000Z</time>
      </trkpt>
      <trkpt lat="44.65971" lon="5.85493">
        <ele>1399.93167</ele>
        <time>2025-07-10T07:39:42.000Z</time>
      </trkpt>
      <trkpt lat="44.65973" lon="5.85492">
        <ele>1400.06323</ele>
        <time>2025-07-10T07:39:43.000Z</time>
      </trkpt>
      <trkpt lat="44.65975" lon="5.85491">
        <ele>1400.194789</ele>
        <time>2025-07-10T07:39:44.000Z</time>
      </trkpt>
      <trkpt lat="44.65977" lon="5.8549">
        <ele>1400.329859</ele>
        <time>2025-07-10T07:39:45.000Z</time>
      </trkpt>
      <trkpt lat="44.65978" lon="5.85488">
        <ele>1400.447454</ele>
        <time>2025-07-10T07:39:46.000Z</time>
      </trkpt>
      <trkpt lat="44.6598" lon="5.85487">
        <ele>1400.570808</ele>
        <time>2025-07-10T07:39:47.000Z</time>
      </trkpt>
      <trkpt lat="44.65982" lon="5.85486">
        <ele>1400.688403</ele>
        <time>2025-07-10T07:39:48.000Z</time>
      </trkpt>
      <trkpt lat="44.65984" lon="5.85485">
        <ele>1400.817586</ele>
        <time>2025-07-10T07:39:49.000Z</time>
      </trkpt>
      <trkpt lat="44.65985" lon="5.85484">
        <ele>1400.93894</ele>
        <time>2025-07-10T07:39:50.000Z</time>
      </trkpt>
      <trkpt lat="44.65987" lon="5.85483">
        <ele>1401.060295</ele>
        <time>2025-07-10T07:39:51.000Z</time>
      </trkpt>
      <trkpt lat="44.65989" lon="5.85482">
        <ele>1401.191854</ele>
        <time>2025-07-10T07:39:52.000Z</time>
      </trkpt>
      <trkpt lat="44.65991" lon="5.85481">
        <ele>1401.314272</ele>
        <time>2025-07-10T07:39:53.000Z</time>
      </trkpt>
      <trkpt lat="44.65993" lon="5.8548">
        <ele>1401.446885</ele>
        <time>2025-07-10T07:39:54.000Z</time>
      </trkpt>
      <trkpt lat="44.65994" lon="5.85479">
        <ele>1401.574159</ele>
        <time>2025-07-10T07:39:55.000Z</time>
      </trkpt>
      <trkpt lat="44.65996" lon="5.85478">
        <ele>1401.703341</ele>
        <time>2025-07-10T07:39:56.000Z</time>
      </trkpt>
      <trkpt lat="44.65998" lon="5.85477">
        <ele>1401.8349</ele>
        <time>2025-07-10T07:39:57.000Z</time>
      </trkpt>
      <trkpt lat="44.66" lon="5.85476">
        <ele>1401.96521</ele>
        <time>2025-07-10T07:39:58.000Z</time>
      </trkpt>
      <trkpt lat="44.66002" lon="5.85475">
        <ele>1402.085563</ele>
        <time>2025-07-10T07:39:59.000Z</time>
      </trkpt>
      <trkpt lat="44.66004" lon="5.85475">
        <ele>1402.2146</ele>
        <time>2025-07-10T07:40:00.000Z</time>
      </trkpt>
      <trkpt lat="44.66005" lon="5.85474">
        <ele>1402.326718</ele>
        <time>2025-07-10T07:40:01.000Z</time>
      </trkpt>
      <trkpt lat="44.66007" lon="5.85473">
        <ele>1402.454409</ele>
        <time>2025-07-10T07:40:02.000Z</time>
      </trkpt>
      <trkpt lat="44.66009" lon="5.85471">
        <ele>1402.576162</ele>
        <time>2025-07-10T07:40:03.000Z</time>
      </trkpt>
      <trkpt lat="44.66011" lon="5.85471">
        <ele>1402.706602</ele>
        <time>2025-07-10T07:40:04.000Z</time>
      </trkpt>
      <trkpt lat="44.66013" lon="5.8547">
        <ele>1402.83252</ele>
        <time>2025-07-10T07:40:05.000Z</time>
      </trkpt>
      <trkpt lat="44.66014" lon="5.85468">
        <ele>1402.966203</ele>
        <time>2025-07-10T07:40:06.000Z</time>
      </trkpt>
      <trkpt lat="44.66016" lon="5.85467">
        <ele>1403.095809</ele>
        <time>2025-07-10T07:40:07.000Z</time>
      </trkpt>
      <trkpt lat="44.66018" lon="5.85466">
        <ele>1403.216037</ele>
        <time>2025-07-10T07:40:08.000Z</time>
      </trkpt>
      <trkpt lat="44.66019" lon="5.85465">
        <ele>1403.334017</ele>
        <time>2025-07-10T07:40:09.000Z</time>
      </trkpt>
      <trkpt lat="44.66021" lon="5.85463">
        <ele>1403.462196</ele>
        <time>2025-07-10T07:40:10.000Z</time>
      </trkpt>
      <trkpt lat="44.66023" lon="5.85462">
        <ele>1403.576837</ele>
        <time>2025-07-10T07:40:11.000Z</time>
      </trkpt>
      <trkpt lat="44.66024" lon="5.85461">
        <ele>1403.69859</ele>
        <time>2025-07-10T07:40:12.000Z</time>
      </trkpt>
      <trkpt lat="44.66026" lon="5.8546">
        <ele>1403.822348</ele>
        <time>2025-07-10T07:40:13.000Z</time>
      </trkpt>
      <trkpt lat="44.66028" lon="5.85459">
        <ele>1403.952788</ele>
        <time>2025-07-10T07:40:14.000Z</time>
      </trkpt>
      <trkpt lat="44.6603" lon="5.85458">
        <ele>1404.081825</ele>
        <time>2025-07-10T07:40:15.000Z</time>
      </trkpt>
      <trkpt lat="44.66032" lon="5.85457">
        <ele>1404.204644</ele>
        <time>2025-07-10T07:40:16.000Z</time>
      </trkpt>
      <trkpt lat="44.66034" lon="5.85456">
        <ele>1404.341265</ele>
        <time>2025-07-10T07:40:17.000Z</time>
      </trkpt>
      <trkpt lat="44.66035" lon="5.85455">
        <ele>1404.47292</ele>
        <time>2025-07-10T07:40:18.000Z</time>
      </trkpt>
      <trkpt lat="44.66037" lon="5.85454">
        <ele>1404.592812</ele>
        <time>2025-07-10T07:40:19.000Z</time>
      </trkpt>
      <trkpt lat="44.66039" lon="5.85453">
        <ele>1404.726901</ele>
        <time>2025-07-10T07:40:20.000Z</time>
      </trkpt>
      <trkpt lat="44.66041" lon="5.85453">
        <ele>1404.852661</ele>
        <time>2025-07-10T07:40:21.000Z</time>
      </trkpt>
      <trkpt lat="44.66043" lon="5.85452">
        <ele>1404.971221</ele>
        <time>2025-07-10T07:40:22.000Z</time>
      </trkpt>
      <trkpt lat="44.66045" lon="5.85452">
        <ele>1405.102078</ele>
        <time>2025-07-10T07:40:23.000Z</time>
      </trkpt>
      <trkpt lat="44.66047" lon="5.85452">
        <ele>1405.239406</ele>
        <time>2025-07-10T07:40:24.000Z</time>
      </trkpt>
      <trkpt lat="44.66049" lon="5.85452">
        <ele>1405.376734</ele>
        <time>2025-07-10T07:40:25.000Z</time>
      </trkpt>
      <trkpt lat="44.66051" lon="5.85451">
        <ele>1405.526656</ele>
        <time>2025-07-10T07:40:26.000Z</time>
      </trkpt>
      <trkpt lat="44.66054" lon="5.85451">
        <ele>1405.670085</ele>
        <time>2025-07-10T07:40:27.000Z</time>
      </trkpt>
      <trkpt lat="44.66056" lon="5.85451">
        <ele>1405.800203</ele>
        <time>2025-07-10T07:40:28.000Z</time>
      </trkpt>
      <trkpt lat="44.66058" lon="5.85451">
        <ele>1405.943333</ele>
        <time>2025-07-10T07:40:29.000Z</time>
      </trkpt>
      <trkpt lat="44.6606" lon="5.85452">
        <ele>1406.114751</ele>
        <time>2025-07-10T07:40:30.000Z</time>
      </trkpt>
      <trkpt lat="44.66063" lon="5.85453">
        <ele>1406.285178</ele>
        <time>2025-07-10T07:40:31.000Z</time>
      </trkpt>
      <trkpt lat="44.66065" lon="5.85453">
        <ele>1406.395876</ele>
        <time>2025-07-10T07:40:32.000Z</time>
      </trkpt>
      <trkpt lat="44.66067" lon="5.85453">
        <ele>1406.526076</ele>
        <time>2025-07-10T07:40:33.000Z</time>
      </trkpt>
      <trkpt lat="44.66069" lon="5.85453">
        <ele>1406.663404</ele>
        <time>2025-07-10T07:40:34.000Z</time>
      </trkpt>
      <trkpt lat="44.66071" lon="5.85452">
        <ele>1406.807726</ele>
        <time>2025-07-10T07:40:35.000Z</time>
      </trkpt>
      <trkpt lat="44.66073" lon="5.85452">
        <ele>1406.952715</ele>
        <time>2025-07-10T07:40:36.000Z</time>
      </trkpt>
      <trkpt lat="44.66075" lon="5.85452">
        <ele>1407.096144</ele>
        <time>2025-07-10T07:40:37.000Z</time>
      </trkpt>
      <trkpt lat="44.66077" lon="5.85452">
        <ele>1407.232846</ele>
        <time>2025-07-10T07:40:38.000Z</time>
      </trkpt>
      <trkpt lat="44.66079" lon="5.85451">
        <ele>1407.363047</ele>
        <time>2025-07-10T07:40:39.000Z</time>
      </trkpt>
      <trkpt lat="44.66081" lon="5.85451">
        <ele>1407.499984</ele>
        <time>2025-07-10T07:40:40.000Z</time>
      </trkpt>
      <trkpt lat="44.66084" lon="5.85451">
        <ele>1407.643189</ele>
        <time>2025-07-10T07:40:41.000Z</time>
      </trkpt>
      <trkpt lat="44.66086" lon="5.85451">
        <ele>1407.767148</ele>
        <time>2025-07-10T07:40:42.000Z</time>
      </trkpt>
      <trkpt lat="44.66088" lon="5.85451">
        <ele>1407.897595</ele>
        <time>2025-07-10T07:40:43.000Z</time>
      </trkpt>
      <trkpt lat="44.6609" lon="5.85451">
        <ele>1408.034532</ele>
        <time>2025-07-10T07:40:44.000Z</time>
      </trkpt>
      <trkpt lat="44.66092" lon="5.8545">
        <ele>1408.16498</ele>
        <time>2025-07-10T07:40:45.000Z</time>
      </trkpt>
      <trkpt lat="44.66094" lon="5.8545">
        <ele>1408.301604</ele>
        <time>2025-07-10T07:40:46.000Z</time>
      </trkpt>
      <trkpt lat="44.66096" lon="5.8545">
        <ele>1408.444734</ele>
        <time>2025-07-10T07:40:47.000Z</time>
      </trkpt>
      <trkpt lat="44.66098" lon="5.8545">
        <ele>1408.594442</ele>
        <time>2025-07-10T07:40:48.000Z</time>
      </trkpt>
      <trkpt lat="44.661" lon="5.85451">
        <ele>1408.724642</ele>
        <time>2025-07-10T07:40:49.000Z</time>
      </trkpt>
      <trkpt lat="44.66102" lon="5.8545">
        <ele>1408.86158</ele>
        <time>2025-07-10T07:40:50.000Z</time>
      </trkpt>
      <trkpt lat="44.66104" lon="5.8545">
        <ele>1408.985279</ele>
        <time>2025-07-10T07:40:51.000Z</time>
      </trkpt>
      <trkpt lat="44.66106" lon="5.8545">
        <ele>1409.122216</ele>
        <time>2025-07-10T07:40:52.000Z</time>
      </trkpt>
      <trkpt lat="44.66108" lon="5.85451">
        <ele>1409.258919</ele>
        <time>2025-07-10T07:40:53.000Z</time>
      </trkpt>
      <trkpt lat="44.66111" lon="5.85451">
        <ele>1409.395622</ele>
        <time>2025-07-10T07:40:54.000Z</time>
      </trkpt>
      <trkpt lat="44.66113" lon="5.8545">
        <ele>1409.526069</ele>
        <time>2025-07-10T07:40:55.000Z</time>
      </trkpt>
      <trkpt lat="44.66115" lon="5.8545">
        <ele>1409.656926</ele>
        <time>2025-07-10T07:40:56.000Z</time>
      </trkpt>
      <trkpt lat="44.66117" lon="5.8545">
        <ele>1409.793628</ele>
        <time>2025-07-10T07:40:57.000Z</time>
      </trkpt>
      <trkpt lat="44.66119" lon="5.8545">
        <ele>1409.936833</ele>
        <time>2025-07-10T07:40:58.000Z</time>
      </trkpt>
      <trkpt lat="44.66121" lon="5.8545">
        <ele>1410.073771</ele>
        <time>2025-07-10T07:40:59.000Z</time>
      </trkpt>
      <trkpt lat="44.66123" lon="5.8545">
        <ele>1410.210473</ele>
        <time>2025-07-10T07:41:00.000Z</time>
      </trkpt>
      <trkpt lat="44.66125" lon="5.8545">
        <ele>1410.340592</ele>
        <time>2025-07-10T07:41:01.000Z</time>
      </trkpt>
      <trkpt lat="44.66127" lon="5.8545">
        <ele>1410.477529</ele>
        <time>2025-07-10T07:41:02.000Z</time>
      </trkpt>
      <trkpt lat="44.66129" lon="5.8545">
        <ele>1410.620659</ele>
        <time>2025-07-10T07:41:03.000Z</time>
      </trkpt>
      <trkpt lat="44.66131" lon="5.8545">
        <ele>1410.75086</ele>
        <time>2025-07-10T07:41:04.000Z</time>
      </trkpt>
      <trkpt lat="44.66133" lon="5.8545">
        <ele>1410.880978</ele>
        <time>2025-07-10T07:41:05.000Z</time>
      </trkpt>
      <trkpt lat="44.66135" lon="5.8545">
        <ele>1411.017681</ele>
        <time>2025-07-10T07:41:06.000Z</time>
      </trkpt>
      <trkpt lat="44.66137" lon="5.8545">
        <ele>1411.148128</ele>
        <time>2025-07-10T07:41:07.000Z</time>
      </trkpt>
      <trkpt lat="44.6614" lon="5.8545">
        <ele>1411.291333</ele>
        <time>2025-07-10T07:41:08.000Z</time>
      </trkpt>
      <trkpt lat="44.66142" lon="5.8545">
        <ele>1411.454047</ele>
        <time>2025-07-10T07:41:09.000Z</time>
      </trkpt>
      <trkpt lat="44.66145" lon="5.8545">
        <ele>1411.610257</ele>
        <time>2025-07-10T07:41:10.000Z</time>
      </trkpt>
      <trkpt lat="44.66147" lon="5.8545">
        <ele>1411.753687</ele>
        <time>2025-07-10T07:41:11.000Z</time>
      </trkpt>
      <trkpt lat="44.66149" lon="5.85451">
        <ele>1411.897116</ele>
        <time>2025-07-10T07:41:12.000Z</time>
      </trkpt>
      <trkpt lat="44.66151" lon="5.8545">
        <ele>1412.027316</ele>
        <time>2025-07-10T07:41:13.000Z</time>
      </trkpt>
      <trkpt lat="44.66153" lon="5.8545">
        <ele>1412.171118</ele>
        <time>2025-07-10T07:41:14.000Z</time>
      </trkpt>
      <trkpt lat="44.66155" lon="5.8545">
        <ele>1412.320754</ele>
        <time>2025-07-10T07:41:15.000Z</time>
      </trkpt>
      <trkpt lat="44.66158" lon="5.8545">
        <ele>1412.464184</ele>
        <time>2025-07-10T07:41:16.000Z</time>
      </trkpt>
      <trkpt lat="44.6616" lon="5.8545">
        <ele>1412.594302</ele>
        <time>2025-07-10T07:41:17.000Z</time>
      </trkpt>
      <trkpt lat="44.66162" lon="5.8545">
        <ele>1412.74401</ele>
        <time>2025-07-10T07:41:18.000Z</time>
      </trkpt>
      <trkpt lat="44.66164" lon="5.8545">
        <ele>1412.893717</ele>
        <time>2025-07-10T07:41:19.000Z</time>
      </trkpt>
      <trkpt lat="44.66167" lon="5.8545">
        <ele>1413.043639</ele>
        <time>2025-07-10T07:41:20.000Z</time>
      </trkpt>
      <trkpt lat="44.66169" lon="5.8545">
        <ele>1413.18677</ele>
        <time>2025-07-10T07:41:21.000Z</time>
      </trkpt>
      <trkpt lat="44.66171" lon="5.8545">
        <ele>1413.336406</ele>
        <time>2025-07-10T07:41:22.000Z</time>
      </trkpt>
      <trkpt lat="44.66174" lon="5.8545">
        <ele>1413.499054</ele>
        <time>2025-07-10T07:41:23.000Z</time>
      </trkpt>
      <trkpt lat="44.66176" lon="5.8545">
        <ele>1413.65351</ele>
        <time>2025-07-10T07:41:24.000Z</time>
      </trkpt>
      <trkpt lat="44.66178" lon="5.8545">
        <ele>1413.794554</ele>
        <time>2025-07-10T07:41:25.000Z</time>
      </trkpt>
      <trkpt lat="44.66181" lon="5.8545">
        <ele>1413.935597</ele>
        <time>2025-07-10T07:41:26.000Z</time>
      </trkpt>
      <trkpt lat="44.66183" lon="5.8545">
        <ele>1414.088451</ele>
        <time>2025-07-10T07:41:27.000Z</time>
      </trkpt>
      <trkpt lat="44.66186" lon="5.8545">
        <ele>1414.223876</ele>
        <time>2025-07-10T07:41:28.000Z</time>
      </trkpt>
      <trkpt lat="44.66188" lon="5.85451">
        <ele>1414.353772</ele>
        <time>2025-07-10T07:41:29.000Z</time>
      </trkpt>
      <trkpt lat="44.6619" lon="5.85451">
        <ele>1414.465431</ele>
        <time>2025-07-10T07:41:30.000Z</time>
      </trkpt>
      <trkpt lat="44.66192" lon="5.85451">
        <ele>1414.583042</ele>
        <time>2025-07-10T07:41:31.000Z</time>
      </trkpt>
      <trkpt lat="44.66194" lon="5.8545">
        <ele>1414.706525</ele>
        <time>2025-07-10T07:41:32.000Z</time>
      </trkpt>
      <trkpt lat="44.66196" lon="5.8545">
        <ele>1414.824061</ele>
        <time>2025-07-10T07:41:33.000Z</time>
      </trkpt>
      <trkpt lat="44.66198" lon="5.8545">
        <ele>1414.941597</ele>
        <time>2025-07-10T07:41:34.000Z</time>
      </trkpt>
      <trkpt lat="44.662" lon="5.8545">
        <ele>1415.059133</ele>
        <time>2025-07-10T07:41:35.000Z</time>
      </trkpt>
      <trkpt lat="44.66202" lon="5.8545">
        <ele>1415.182617</ele>
        <time>2025-07-10T07:41:36.000Z</time>
      </trkpt>
      <trkpt lat="44.66204" lon="5.8545">
        <ele>1415.312177</ele>
        <time>2025-07-10T07:41:37.000Z</time>
      </trkpt>
      <trkpt lat="44.66206" lon="5.8545">
        <ele>1415.429787</ele>
        <time>2025-07-10T07:41:38.000Z</time>
      </trkpt>
      <trkpt lat="44.66208" lon="5.8545">
        <ele>1415.541525</ele>
        <time>2025-07-10T07:41:39.000Z</time>
      </trkpt>
      <trkpt lat="44.6621" lon="5.85451">
        <ele>1415.64862</ele>
        <time>2025-07-10T07:41:40.000Z</time>
      </trkpt>
      <trkpt lat="44.66212" lon="5.85451">
        <ele>1415.76028</ele>
        <time>2025-07-10T07:41:41.000Z</time>
      </trkpt>
      <trkpt lat="44.66214" lon="5.8545">
        <ele>1415.866392</ele>
        <time>2025-07-10T07:41:42.000Z</time>
      </trkpt>
      <trkpt lat="44.66216" lon="5.8545">
        <ele>1415.978753</ele>
        <time>2025-07-10T07:41:43.000Z</time>
      </trkpt>
      <trkpt lat="44.66217" lon="5.8545">
        <ele>1416.091114</ele>
        <time>2025-07-10T07:41:44.000Z</time>
      </trkpt>
      <trkpt lat="44.66219" lon="5.8545">
        <ele>1416.196897</ele>
        <time>2025-07-10T07:41:45.000Z</time>
      </trkpt>
      <trkpt lat="44.66221" lon="5.8545">
        <ele>1416.32038</ele>
        <time>2025-07-10T07:41:46.000Z</time>
      </trkpt>
      <trkpt lat="44.66223" lon="5.8545">
        <ele>1416.437991</ele>
        <time>2025-07-10T07:41:47.000Z</time>
      </trkpt>
      <trkpt lat="44.66225" lon="5.85449">
        <ele>1416.549728</ele>
        <time>2025-07-10T07:41:48.000Z</time>
      </trkpt>
      <trkpt lat="44.66227" lon="5.85449">
        <ele>1416.661466</ele>
        <time>2025-07-10T07:41:49.000Z</time>
      </trkpt>
      <trkpt lat="44.66229" lon="5.85449">
        <ele>1416.773437</ele>
        <time>2025-07-10T07:41:50.000Z</time>
      </trkpt>
      <trkpt lat="44.66231" lon="5.85449">
        <ele>1416.885097</ele>
        <time>2025-07-10T07:41:51.000Z</time>
      </trkpt>
      <trkpt lat="44.66233" lon="5.85449">
        <ele>1417.002707</ele>
        <time>2025-07-10T07:41:52.000Z</time>
      </trkpt>
      <trkpt lat="44.66235" lon="5.85449">
        <ele>1417.12054</ele>
        <time>2025-07-10T07:41:53.000Z</time>
      </trkpt>
      <trkpt lat="44.66237" lon="5.85449">
        <ele>1417.232512</ele>
        <time>2025-07-10T07:41:54.000Z</time>
      </trkpt>
      <trkpt lat="44.66239" lon="5.85449">
        <ele>1417.355925</ele>
        <time>2025-07-10T07:41:55.000Z</time>
      </trkpt>
      <trkpt lat="44.66241" lon="5.85449">
        <ele>1417.473758</ele>
        <time>2025-07-10T07:41:56.000Z</time>
      </trkpt>
      <trkpt lat="44.66243" lon="5.85449">
        <ele>1417.585729</ele>
        <time>2025-07-10T07:41:57.000Z</time>
      </trkpt>
      <trkpt lat="44.66245" lon="5.85449">
        <ele>1417.698091</ele>
        <time>2025-07-10T07:41:58.000Z</time>
      </trkpt>
      <trkpt lat="44.66247" lon="5.85448">
        <ele>1417.804614</ele>
        <time>2025-07-10T07:41:59.000Z</time>
      </trkpt>
      <trkpt lat="44.66248" lon="5.85448">
        <ele>1417.911709</ele>
        <time>2025-07-10T07:42:00.000Z</time>
      </trkpt>
      <trkpt lat="44.6625" lon="5.85448">
        <ele>1418.017574</ele>
        <time>2025-07-10T07:42:01.000Z</time>
      </trkpt>
      <trkpt lat="44.66252" lon="5.85448">
        <ele>1418.135111</ele>
        <time>2025-07-10T07:42:02.000Z</time>
      </trkpt>
      <trkpt lat="44.66254" lon="5.85448">
        <ele>1418.258806</ele>
        <time>2025-07-10T07:42:03.000Z</time>
      </trkpt>
      <trkpt lat="44.66256" lon="5.85448">
        <ele>1418.376639</ele>
        <time>2025-07-10T07:42:04.000Z</time>
      </trkpt>
      <trkpt lat="44.66258" lon="5.85448">
        <ele>1418.500123</ele>
        <time>2025-07-10T07:42:05.000Z</time>
      </trkpt>
      <trkpt lat="44.6626" lon="5.85448">
        <ele>1418.623819</ele>
        <time>2025-07-10T07:42:06.000Z</time>
      </trkpt>
      <trkpt lat="44.66263" lon="5.85448">
        <ele>1418.753715</ele>
        <time>2025-07-10T07:42:07.000Z</time>
      </trkpt>
      <trkpt lat="44.66265" lon="5.85448">
        <ele>1418.877128</ele>
        <time>2025-07-10T07:42:08.000Z</time>
      </trkpt>
      <trkpt lat="44.66267" lon="5.85448">
        <ele>1418.994664</ele>
        <time>2025-07-10T07:42:09.000Z</time>
      </trkpt>
      <trkpt lat="44.66269" lon="5.85448">
        <ele>1419.118359</ele>
        <time>2025-07-10T07:42:10.000Z</time>
      </trkpt>
      <trkpt lat="44.66271" lon="5.85447">
        <ele>1419.23597</ele>
        <time>2025-07-10T07:42:11.000Z</time>
      </trkpt>
      <trkpt lat="44.66273" lon="5.85447">
        <ele>1419.353803</ele>
        <time>2025-07-10T07:42:12.000Z</time>
      </trkpt>
      <trkpt lat="44.66275" lon="5.85447">
        <ele>1419.472006</ele>
        <time>2025-07-10T07:42:13.000Z</time>
      </trkpt>
      <trkpt lat="44.66277" lon="5.85447">
        <ele>1419.589839</ele>
        <time>2025-07-10T07:42:14.000Z</time>
      </trkpt>
      <trkpt lat="44.66279" lon="5.85447">
        <ele>1419.707375</ele>
        <time>2025-07-10T07:42:15.000Z</time>
      </trkpt>
      <trkpt lat="44.66281" lon="5.85447">
        <ele>1419.825208</ele>
        <time>2025-07-10T07:42:16.000Z</time>
      </trkpt>
      <trkpt lat="44.66283" lon="5.85447">
        <ele>1419.942818</ele>
        <time>2025-07-10T07:42:17.000Z</time>
      </trkpt>
      <trkpt lat="44.66285" lon="5.85447">
        <ele>1420.066867</ele>
        <time>2025-07-10T07:42:18.000Z</time>
      </trkpt>
      <trkpt lat="44.66287" lon="5.85446">
        <ele>1420.185586</ele>
        <time>2025-07-10T07:42:19.000Z</time>
      </trkpt>
      <trkpt lat="44.66289" lon="5.85446">
        <ele>1420.308999</ele>
        <time>2025-07-10T07:42:20.000Z</time>
      </trkpt>
      <trkpt lat="44.66291" lon="5.85446">
        <ele>1420.432412</ele>
        <time>2025-07-10T07:42:21.000Z</time>
      </trkpt>
      <trkpt lat="44.66293" lon="5.85446">
        <ele>1420.544383</ele>
        <time>2025-07-10T07:42:22.000Z</time>
      </trkpt>
      <trkpt lat="44.66295" lon="5.85446">
        <ele>1420.667867</ele>
        <time>2025-07-10T07:42:23.000Z</time>
      </trkpt>
      <trkpt lat="44.66297" lon="5.85446">
        <ele>1420.7857</ele>
        <time>2025-07-10T07:42:24.000Z</time>
      </trkpt>
      <trkpt lat="44.66299" lon="5.85446">
        <ele>1420.909748</ele>
        <time>2025-07-10T07:42:25.000Z</time>
      </trkpt>
      <trkpt lat="44.66301" lon="5.85445">
        <ele>1421.033232</ele>
        <time>2025-07-10T07:42:26.000Z</time>
      </trkpt>
      <trkpt lat="44.66303" lon="5.85445">
        <ele>1421.144969</ele>
        <time>2025-07-10T07:42:27.000Z</time>
      </trkpt>
      <trkpt lat="44.66305" lon="5.85445">
        <ele>1421.256629</ele>
        <time>2025-07-10T07:42:28.000Z</time>
      </trkpt>
      <trkpt lat="44.66307" lon="5.85445">
        <ele>1421.380042</ele>
        <time>2025-07-10T07:42:29.000Z</time>
      </trkpt>
      <trkpt lat="44.66309" lon="5.85445">
        <ele>1421.503525</ele>
        <time>2025-07-10T07:42:30.000Z</time>
      </trkpt>
      <trkpt lat="44.66311" lon="5.85445">
        <ele>1421.627221</ele>
        <time>2025-07-10T07:42:31.000Z</time>
      </trkpt>
      <trkpt lat="44.66314" lon="5.85445">
        <ele>1421.756781</ele>
        <time>2025-07-10T07:42:32.000Z</time>
      </trkpt>
      <trkpt lat="44.66315" lon="5.85445">
        <ele>1421.862563</ele>
        <time>2025-07-10T07:42:33.000Z</time>
      </trkpt>
      <trkpt lat="44.66317" lon="5.85445">
        <ele>1421.974535</ele>
        <time>2025-07-10T07:42:34.000Z</time>
      </trkpt>
      <trkpt lat="44.66319" lon="5.85444">
        <ele>1422.092368</ele>
        <time>2025-07-10T07:42:35.000Z</time>
      </trkpt>
      <trkpt lat="44.66321" lon="5.85444">
        <ele>1422.20434</ele>
        <time>2025-07-10T07:42:36.000Z</time>
      </trkpt>
      <trkpt lat="44.66323" lon="5.85444">
        <ele>1422.323059</ele>
        <time>2025-07-10T07:42:37.000Z</time>
      </trkpt>
      <trkpt lat="44.66325" lon="5.85443">
        <ele>1422.435963</ele>
        <time>2025-07-10T07:42:38.000Z</time>
      </trkpt>
      <trkpt lat="44.66327" lon="5.85443">
        <ele>1422.554166</ele>
        <time>2025-07-10T07:42:39.000Z</time>
      </trkpt>
      <trkpt lat="44.66329" lon="5.85443">
        <ele>1422.671999</ele>
        <time>2025-07-10T07:42:40.000Z</time>
      </trkpt>
      <trkpt lat="44.66331" lon="5.85443">
        <ele>1422.789535</ele>
        <time>2025-07-10T07:42:41.000Z</time>
      </trkpt>
      <trkpt lat="44.66333" lon="5.85443">
        <ele>1422.907145</ele>
        <time>2025-07-10T07:42:42.000Z</time>
      </trkpt>
      <trkpt lat="44.66335" lon="5.85442">
        <ele>1423.025865</ele>
        <time>2025-07-10T07:42:43.000Z</time>
      </trkpt>
      <trkpt lat="44.66337" lon="5.85442">
        <ele>1423.150405</ele>
        <time>2025-07-10T07:42:44.000Z</time>
      </trkpt>
      <trkpt lat="44.66339" lon="5.85442">
        <ele>1423.274101</ele>
        <time>2025-07-10T07:42:45.000Z</time>
      </trkpt>
      <trkpt lat="44.66341" lon="5.85442">
        <ele>1423.397584</ele>
        <time>2025-07-10T07:42:46.000Z</time>
      </trkpt>
      <trkpt lat="44.66344" lon="5.85442">
        <ele>1423.526941</ele>
        <time>2025-07-10T07:42:47.000Z</time>
      </trkpt>
      <trkpt lat="44.66346" lon="5.85441">
        <ele>1423.650637</ele>
        <time>2025-07-10T07:42:48.000Z</time>
      </trkpt>
      <trkpt lat="44.66348" lon="5.85441">
        <ele>1423.779994</ele>
        <time>2025-07-10T07:42:49.000Z</time>
      </trkpt>
      <trkpt lat="44.6635" lon="5.85441">
        <ele>1423.909352</ele>
        <time>2025-07-10T07:42:50.000Z</time>
      </trkpt>
      <trkpt lat="44.66352" lon="5.85441">
        <ele>1424.038911</ele>
        <time>2025-07-10T07:42:51.000Z</time>
      </trkpt>
      <trkpt lat="44.66355" lon="5.85441">
        <ele>1424.160465</ele>
        <time>2025-07-10T07:42:52.000Z</time>
      </trkpt>
      <trkpt lat="44.66357" lon="5.85441">
        <ele>1424.241246</ele>
        <time>2025-07-10T07:42:53.000Z</time>
      </trkpt>
      <trkpt lat="44.66359" lon="5.8544">
        <ele>1424.336552</ele>
        <time>2025-07-10T07:42:54.000Z</time>
      </trkpt>
      <trkpt lat="44.66362" lon="5.8544">
        <ele>1424.428194</ele>
        <time>2025-07-10T07:42:55.000Z</time>
      </trkpt>
      <trkpt lat="44.66364" lon="5.8544">
        <ele>1424.516174</ele>
        <time>2025-07-10T07:42:56.000Z</time>
      </trkpt>
      <trkpt lat="44.66367" lon="5.85441">
        <ele>1424.60427</ele>
        <time>2025-07-10T07:42:57.000Z</time>
      </trkpt>
      <trkpt lat="44.66369" lon="5.85441">
        <ele>1424.69986</ele>
        <time>2025-07-10T07:42:58.000Z</time>
      </trkpt>
      <trkpt lat="44.66372" lon="5.85441">
        <ele>1424.788417</ele>
        <time>2025-07-10T07:42:59.000Z</time>
      </trkpt>
      <trkpt lat="44.66374" lon="5.85442">
        <ele>1424.877319</ele>
        <time>2025-07-10T07:43:00.000Z</time>
      </trkpt>
      <trkpt lat="44.66376" lon="5.85442">
        <ele>1424.966639</ele>
        <time>2025-07-10T07:43:01.000Z</time>
      </trkpt>
      <trkpt lat="44.66379" lon="5.85443">
        <ele>1425.05596</ele>
        <time>2025-07-10T07:43:02.000Z</time>
      </trkpt>
      <trkpt lat="44.66381" lon="5.85444">
        <ele>1425.149908</ele>
        <time>2025-07-10T07:43:03.000Z</time>
      </trkpt>
      <trkpt lat="44.66384" lon="5.85445">
        <ele>1425.244469</ele>
        <time>2025-07-10T07:43:04.000Z</time>
      </trkpt>
      <trkpt lat="44.66386" lon="5.85446">
        <ele>1425.335485</ele>
        <time>2025-07-10T07:43:05.000Z</time>
      </trkpt>
      <trkpt lat="44.66389" lon="5.85447">
        <ele>1425.4265</ele>
        <time>2025-07-10T07:43:06.000Z</time>
      </trkpt>
      <trkpt lat="44.66391" lon="5.85448">
        <ele>1425.517332</ele>
        <time>2025-07-10T07:43:07.000Z</time>
      </trkpt>
      <trkpt lat="44.66393" lon="5.85449">
        <ele>1425.611361</ele>
        <time>2025-07-10T07:43:08.000Z</time>
      </trkpt>
      <trkpt lat="44.66396" lon="5.85451">
        <ele>1425.703197</ele>
        <time>2025-07-10T07:43:09.000Z</time>
      </trkpt>
      <trkpt lat="44.66398" lon="5.85452">
        <ele>1425.800523</ele>
        <time>2025-07-10T07:43:10.000Z</time>
      </trkpt>
      <trkpt lat="44.664" lon="5.85454">
        <ele>1425.901173</ele>
        <time>2025-07-10T07:43:11.000Z</time>
      </trkpt>
      <trkpt lat="44.66403" lon="5.85456">
        <ele>1426.00293</ele>
        <time>2025-07-10T07:43:12.000Z</time>
      </trkpt>
      <trkpt lat="44.66405" lon="5.85457">
        <ele>1426.103579</ele>
        <time>2025-07-10T07:43:13.000Z</time>
      </trkpt>
      <trkpt lat="44.66408" lon="5.85459">
        <ele>1426.205336</ele>
        <time>2025-07-10T07:43:14.000Z</time>
      </trkpt>
      <trkpt lat="44.66411" lon="5.85461">
        <ele>1426.310404</ele>
        <time>2025-07-10T07:43:15.000Z</time>
      </trkpt>
      <trkpt lat="44.66413" lon="5.85462">
        <ele>1426.414399</ele>
        <time>2025-07-10T07:43:16.000Z</time>
      </trkpt>
      <trkpt lat="44.66416" lon="5.85464">
        <ele>1426.519467</ele>
        <time>2025-07-10T07:43:17.000Z</time>
      </trkpt>
      <trkpt lat="44.66418" lon="5.85466">
        <ele>1426.623462</ele>
        <time>2025-07-10T07:43:18.000Z</time>
      </trkpt>
      <trkpt lat="44.66421" lon="5.85467">
        <ele>1426.729655</ele>
        <time>2025-07-10T07:43:19.000Z</time>
      </trkpt>
      <trkpt lat="44.66424" lon="5.85469">
        <ele>1426.838056</ele>
        <time>2025-07-10T07:43:20.000Z</time>
      </trkpt>
      <trkpt lat="44.66426" lon="5.85471">
        <ele>1426.939813</ele>
        <time>2025-07-10T07:43:21.000Z</time>
      </trkpt>
      <trkpt lat="44.66429" lon="5.85473">
        <ele>1427.044881</ele>
        <time>2025-07-10T07:43:22.000Z</time>
      </trkpt>
      <trkpt lat="44.66431" lon="5.85474">
        <ele>1427.153282</ele>
        <time>2025-07-10T07:43:23.000Z</time>
      </trkpt>
      <trkpt lat="44.66434" lon="5.85476">
        <ele>1427.262774</ele>
        <time>2025-07-10T07:43:24.000Z</time>
      </trkpt>
      <trkpt lat="44.66437" lon="5.85478">
        <ele>1427.365692</ele>
        <time>2025-07-10T07:43:25.000Z</time>
      </trkpt>
      <trkpt lat="44.66439" lon="5.8548">
        <ele>1427.471885</ele>
        <time>2025-07-10T07:43:26.000Z</time>
      </trkpt>
      <trkpt lat="44.66442" lon="5.85481">
        <ele>1427.578078</ele>
        <time>2025-07-10T07:43:27.000Z</time>
      </trkpt>
      <trkpt lat="44.66444" lon="5.85483">
        <ele>1427.680996</ele>
        <time>2025-07-10T07:43:28.000Z</time>
      </trkpt>
      <trkpt lat="44.66447" lon="5.85485">
        <ele>1427.790488</ele>
        <time>2025-07-10T07:43:29.000Z</time>
      </trkpt>
      <trkpt lat="44.6645" lon="5.85487">
        <ele>1427.89998</ele>
        <time>2025-07-10T07:43:30.000Z</time>
      </trkpt>
      <trkpt lat="44.66452" lon="5.85489">
        <ele>1428.008381</ele>
        <time>2025-07-10T07:43:31.000Z</time>
      </trkpt>
      <trkpt lat="44.66455" lon="5.8549">
        <ele>1428.111299</ele>
        <time>2025-07-10T07:43:32.000Z</time>
      </trkpt>
      <trkpt lat="44.66458" lon="5.85492">
        <ele>1428.216367</ele>
        <time>2025-07-10T07:43:33.000Z</time>
      </trkpt>
      <trkpt lat="44.6646" lon="5.85494">
        <ele>1428.313693</ele>
        <time>2025-07-10T07:43:34.000Z</time>
      </trkpt>
      <trkpt lat="44.66462" lon="5.85495">
        <ele>1428.413363</ele>
        <time>2025-07-10T07:43:35.000Z</time>
      </trkpt>
      <trkpt lat="44.66465" lon="5.85497">
        <ele>1428.51069</ele>
        <time>2025-07-10T07:43:36.000Z</time>
      </trkpt>
      <trkpt lat="44.66467" lon="5.85499">
        <ele>1428.604718</ele>
        <time>2025-07-10T07:43:37.000Z</time>
      </trkpt>
      <trkpt lat="44.66469" lon="5.855">
        <ele>1428.69762</ele>
        <time>2025-07-10T07:43:38.000Z</time>
      </trkpt>
      <trkpt lat="44.66472" lon="5.85501">
        <ele>1428.786639</ele>
        <time>2025-07-10T07:43:39.000Z</time>
      </trkpt>
      <trkpt lat="44.66474" lon="5.85502">
        <ele>1428.879976</ele>
        <time>2025-07-10T07:43:40.000Z</time>
      </trkpt>
      <trkpt lat="44.66476" lon="5.85504">
        <ele>1428.964053</ele>
        <time>2025-07-10T07:43:41.000Z</time>
      </trkpt>
      <trkpt lat="44.66478" lon="5.85505">
        <ele>1429.052844</ele>
        <time>2025-07-10T07:43:42.000Z</time>
      </trkpt>
      <trkpt lat="44.66481" lon="5.85507">
        <ele>1429.143676</ele>
        <time>2025-07-10T07:43:43.000Z</time>
      </trkpt>
      <trkpt lat="44.66483" lon="5.85508">
        <ele>1429.233267</ele>
        <time>2025-07-10T07:43:44.000Z</time>
      </trkpt>
      <trkpt lat="44.66485" lon="5.8551">
        <ele>1429.334191</ele>
        <time>2025-07-10T07:43:45.000Z</time>
      </trkpt>
      <trkpt lat="44.66487" lon="5.85512">
        <ele>1429.431938</ele>
        <time>2025-07-10T07:43:46.000Z</time>
      </trkpt>
      <trkpt lat="44.6649" lon="5.85514">
        <ele>1429.52715</ele>
        <time>2025-07-10T07:43:47.000Z</time>
      </trkpt>
      <trkpt lat="44.66492" lon="5.85515">
        <ele>1429.628907</ele>
        <time>2025-07-10T07:43:48.000Z</time>
      </trkpt>
      <trkpt lat="44.66495" lon="5.85517">
        <ele>1429.728577</ele>
        <time>2025-07-10T07:43:49.000Z</time>
      </trkpt>
      <trkpt lat="44.66497" lon="5.85519">
        <ele>1429.819336</ele>
        <time>2025-07-10T07:43:50.000Z</time>
      </trkpt>
      <trkpt lat="44.66499" lon="5.85521">
        <ele>1429.908128</ele>
        <time>2025-07-10T07:43:51.000Z</time>
      </trkpt>
      <trkpt lat="44.66501" lon="5.85522">
        <ele>1429.992444</ele>
        <time>2025-07-10T07:43:52.000Z</time>
      </trkpt>
      <trkpt lat="44.66503" lon="5.85524">
        <ele>1430.077605</ele>
        <time>2025-07-10T07:43:53.000Z</time>
      </trkpt>
      <trkpt lat="44.66505" lon="5.85524">
        <ele>1430.158048</ele>
        <time>2025-07-10T07:43:54.000Z</time>
      </trkpt>
      <trkpt lat="44.66507" lon="5.85525">
        <ele>1430.238492</ele>
        <time>2025-07-10T07:43:55.000Z</time>
      </trkpt>
      <trkpt lat="44.66509" lon="5.85526">
        <ele>1430.316273</ele>
        <time>2025-07-10T07:43:56.000Z</time>
      </trkpt>
      <trkpt lat="44.66511" lon="5.85527">
        <ele>1430.379418</ele>
        <time>2025-07-10T07:43:57.000Z</time>
      </trkpt>
      <trkpt lat="44.66512" lon="5.85528">
        <ele>1430.432514</ele>
        <time>2025-07-10T07:43:58.000Z</time>
      </trkpt>
      <trkpt lat="44.66513" lon="5.85529">
        <ele>1430.452126</ele>
        <time>2025-07-10T07:43:59.000Z</time>
      </trkpt>
      <trkpt lat="44.66514" lon="5.8553">
        <ele>1430.524386</ele>
        <time>2025-07-10T07:44:05.000Z</time>
      </trkpt>
      <trkpt lat="44.66515" lon="5.85532">
        <ele>1430.571524</ele>
        <time>2025-07-10T07:44:06.000Z</time>
      </trkpt>
      <trkpt lat="44.66514" lon="5.85533">
        <ele>1430.601113</ele>
        <time>2025-07-10T07:44:07.000Z</time>
      </trkpt>
      <trkpt lat="44.66514" lon="5.85534">
        <ele>1430.61675</ele>
        <time>2025-07-10T07:44:08.000Z</time>
      </trkpt>
      <trkpt lat="44.66515" lon="5.85533">
        <ele>1430.657751</ele>
        <time>2025-07-10T07:45:54.000Z</time>
      </trkpt>
      <trkpt lat="44.66516" lon="5.85533">
        <ele>1430.701722</ele>
        <time>2025-07-10T07:45:55.000Z</time>
      </trkpt>
      <trkpt lat="44.66518" lon="5.85533">
        <ele>1430.736439</ele>
        <time>2025-07-10T07:45:56.000Z</time>
      </trkpt>
      <trkpt lat="44.66519" lon="5.85533">
        <ele>1430.728999</ele>
        <time>2025-07-10T07:45:57.000Z</time>
      </trkpt>
      <trkpt lat="44.6652" lon="5.85534">
        <ele>1430.722276</ele>
        <time>2025-07-10T07:45:58.000Z</time>
      </trkpt>
      <trkpt lat="44.6652" lon="5.85534">
        <ele>1430.716414</ele>
        <time>2025-07-10T07:45:59.000Z</time>
      </trkpt>
      <trkpt lat="44.66522" lon="5.85535">
        <ele>1430.707044</ele>
        <time>2025-07-10T07:46:04.000Z</time>
      </trkpt>
      <trkpt lat="44.66523" lon="5.85536">
        <ele>1430.700159</ele>
        <time>2025-07-10T07:46:05.000Z</time>
      </trkpt>
      <trkpt lat="44.66524" lon="5.85537">
        <ele>1430.690577</ele>
        <time>2025-07-10T07:46:06.000Z</time>
      </trkpt>
      <trkpt lat="44.66526" lon="5.85538">
        <ele>1430.678224</ele>
        <time>2025-07-10T07:46:07.000Z</time>
      </trkpt>
      <trkpt lat="44.66528" lon="5.85539">
        <ele>1430.663388</ele>
        <time>2025-07-10T07:46:08.000Z</time>
      </trkpt>
      <trkpt lat="44.6653" lon="5.85541">
        <ele>1430.649141</ele>
        <time>2025-07-10T07:46:09.000Z</time>
      </trkpt>
      <trkpt lat="44.66532" lon="5.85542">
        <ele>1430.634304</ele>
        <time>2025-07-10T07:46:10.000Z</time>
      </trkpt>
      <trkpt lat="44.66534" lon="5.85543">
        <ele>1430.618873</ele>
        <time>2025-07-10T07:46:11.000Z</time>
      </trkpt>
      <trkpt lat="44.66536" lon="5.85545">
        <ele>1430.602857</ele>
        <time>2025-07-10T07:46:12.000Z</time>
      </trkpt>
      <trkpt lat="44.66539" lon="5.85547">
        <ele>1430.584482</ele>
        <time>2025-07-10T07:46:13.000Z</time>
      </trkpt>
      <trkpt lat="44.66541" lon="5.85548">
        <ele>1430.567105</ele>
        <time>2025-07-10T07:46:14.000Z</time>
      </trkpt>
      <trkpt lat="44.66543" lon="5.8555">
        <ele>1430.550711</ele>
        <time>2025-07-10T07:46:15.000Z</time>
      </trkpt>
      <trkpt lat="44.66546" lon="5.85552">
        <ele>1430.534016</ele>
        <time>2025-07-10T07:46:16.000Z</time>
      </trkpt>
      <trkpt lat="44.66548" lon="5.85554">
        <ele>1430.515641</ele>
        <time>2025-07-10T07:46:17.000Z</time>
      </trkpt>
      <trkpt lat="44.6655" lon="5.85556">
        <ele>1430.498392</ele>
        <time>2025-07-10T07:46:18.000Z</time>
      </trkpt>
      <trkpt lat="44.66553" lon="5.85557">
        <ele>1430.48023</ele>
        <time>2025-07-10T07:46:19.000Z</time>
      </trkpt>
      <trkpt lat="44.66555" lon="5.85559">
        <ele>1430.463056</ele>
        <time>2025-07-10T07:46:20.000Z</time>
      </trkpt>
      <trkpt lat="44.66558" lon="5.85561">
        <ele>1430.445295</ele>
        <time>2025-07-10T07:46:21.000Z</time>
      </trkpt>
      <trkpt lat="44.6656" lon="5.85562">
        <ele>1430.427719</ele>
        <time>2025-07-10T07:46:22.000Z</time>
      </trkpt>
      <trkpt lat="44.66563" lon="5.85564">
        <ele>1430.409717</ele>
        <time>2025-07-10T07:46:23.000Z</time>
      </trkpt>
      <trkpt lat="44.66566" lon="5.85565">
        <ele>1430.391365</ele>
        <time>2025-07-10T07:46:24.000Z</time>
      </trkpt>
      <trkpt lat="44.66568" lon="5.85567">
        <ele>1430.372236</ele>
        <time>2025-07-10T07:46:25.000Z</time>
      </trkpt>
      <trkpt lat="44.66571" lon="5.85569">
        <ele>1430.352915</ele>
        <time>2025-07-10T07:46:26.000Z</time>
      </trkpt>
      <trkpt lat="44.66574" lon="5.85571">
        <ele>1430.332963</ele>
        <time>2025-07-10T07:46:27.000Z</time>
      </trkpt>
      <trkpt lat="44.66576" lon="5.85573">
        <ele>1430.312223</ele>
        <time>2025-07-10T07:46:28.000Z</time>
      </trkpt>
      <trkpt lat="44.66579" lon="5.85575">
        <ele>1430.290694</ele>
        <time>2025-07-10T07:46:29.000Z</time>
      </trkpt>
      <trkpt lat="44.66582" lon="5.85578">
        <ele>1430.267586</ele>
        <time>2025-07-10T07:46:30.000Z</time>
      </trkpt>
      <trkpt lat="44.66586" lon="5.8558">
        <ele>1430.242898</ele>
        <time>2025-07-10T07:46:31.000Z</time>
      </trkpt>
      <trkpt lat="44.66589" lon="5.85584">
        <ele>1430.218031</ele>
        <time>2025-07-10T07:46:32.000Z</time>
      </trkpt>
      <trkpt lat="44.66592" lon="5.85587">
        <ele>1430.191242</ele>
        <time>2025-07-10T07:46:33.000Z</time>
      </trkpt>
      <trkpt lat="44.66595" lon="5.85592">
        <ele>1430.16132</ele>
        <time>2025-07-10T07:46:34.000Z</time>
      </trkpt>
      <trkpt lat="44.66598" lon="5.85598">
        <ele>1430.129444</ele>
        <time>2025-07-10T07:46:35.000Z</time>
      </trkpt>
      <trkpt lat="44.66601" lon="5.85604">
        <ele>1430.096668</ele>
        <time>2025-07-10T07:46:36.000Z</time>
      </trkpt>
      <trkpt lat="44.66603" lon="5.85611">
        <ele>1430.063069</ele>
        <time>2025-07-10T07:46:37.000Z</time>
      </trkpt>
      <trkpt lat="44.66604" lon="5.85618">
        <ele>1430.028567</ele>
        <time>2025-07-10T07:46:38.000Z</time>
      </trkpt>
      <trkpt lat="44.66605" lon="5.85625">
        <ele>1429.99425</ele>
        <time>2025-07-10T07:46:39.000Z</time>
      </trkpt>
      <trkpt lat="44.66606" lon="5.85632">
        <ele>1429.959725</ele>
        <time>2025-07-10T07:46:40.000Z</time>
      </trkpt>
      <trkpt lat="44.66607" lon="5.8564">
        <ele>1429.92585</ele>
        <time>2025-07-10T07:46:41.000Z</time>
      </trkpt>
      <trkpt lat="44.66607" lon="5.85647">
        <ele>1429.891263</ele>
        <time>2025-07-10T07:46:42.000Z</time>
      </trkpt>
      <trkpt lat="44.66608" lon="5.85655">
        <ele>1429.856554</ele>
        <time>2025-07-10T07:46:43.000Z</time>
      </trkpt>
      <trkpt lat="44.66609" lon="5.85662">
        <ele>1429.821678</ele>
        <time>2025-07-10T07:46:44.000Z</time>
      </trkpt>
      <trkpt lat="44.6661" lon="5.85669">
        <ele>1429.788512</ele>
        <time>2025-07-10T07:46:45.000Z</time>
      </trkpt>
      <trkpt lat="44.6661" lon="5.85676">
        <ele>1429.756361</ele>
        <time>2025-07-10T07:46:46.000Z</time>
      </trkpt>
      <trkpt lat="44.66611" lon="5.85683">
        <ele>1429.725674</ele>
        <time>2025-07-10T07:46:47.000Z</time>
      </trkpt>
      <trkpt lat="44.66612" lon="5.85689">
        <ele>1429.695441</ele>
        <time>2025-07-10T07:46:48.000Z</time>
      </trkpt>
      <trkpt lat="44.66613" lon="5.85696">
        <ele>1429.665439</ele>
        <time>2025-07-10T07:46:49.000Z</time>
      </trkpt>
      <trkpt lat="44.66614" lon="5.85702">
        <ele>1429.635305</ele>
        <time>2025-07-10T07:46:50.000Z</time>
      </trkpt>
      <trkpt lat="44.66615" lon="5.85708">
        <ele>1429.605918</ele>
        <time>2025-07-10T07:46:51.000Z</time>
      </trkpt>
      <trkpt lat="44.66616" lon="5.85714">
        <ele>1429.577255</ele>
        <time>2025-07-10T07:46:52.000Z</time>
      </trkpt>
      <trkpt lat="44.66617" lon="5.8572">
        <ele>1429.577088</ele>
        <time>2025-07-10T07:46:53.000Z</time>
      </trkpt>
      <trkpt lat="44.66618" lon="5.85726">
        <ele>1429.580119</ele>
        <time>2025-07-10T07:46:54.000Z</time>
      </trkpt>
      <trkpt lat="44.6662" lon="5.85731">
        <ele>1429.583153</ele>
        <time>2025-07-10T07:46:55.000Z</time>
      </trkpt>
      <trkpt lat="44.66622" lon="5.85737">
        <ele>1429.586113</ele>
        <time>2025-07-10T07:46:56.000Z</time>
      </trkpt>
      <trkpt lat="44.66623" lon="5.85742">
        <ele>1429.589121</ele>
        <time>2025-07-10T07:46:57.000Z</time>
      </trkpt>
      <trkpt lat="44.66625" lon="5.85748">
        <ele>1429.592043</ele>
        <time>2025-07-10T07:46:58.000Z</time>
      </trkpt>
      <trkpt lat="44.66627" lon="5.85752">
        <ele>1429.595041</ele>
        <time>2025-07-10T07:46:59.000Z</time>
      </trkpt>
      <trkpt lat="44.6663" lon="5.85757">
        <ele>1429.597956</ele>
        <time>2025-07-10T07:47:00.000Z</time>
      </trkpt>
      <trkpt lat="44.66632" lon="5.85761">
        <ele>1429.600623</ele>
        <time>2025-07-10T07:47:01.000Z</time>
      </trkpt>
      <trkpt lat="44.66633" lon="5.85765">
        <ele>1429.602627</ele>
        <time>2025-07-10T07:47:02.000Z</time>
      </trkpt>
      <trkpt lat="44.66631" lon="5.85767">
        <ele>1429.604183</ele>
        <time>2025-07-10T07:47:03.000Z</time>
      </trkpt>
      <trkpt lat="44.66629" lon="5.85767">
        <ele>1429.605551</ele>
        <time>2025-07-10T07:47:04.000Z</time>
      </trkpt>
      <trkpt lat="44.66628" lon="5.85765">
        <ele>1429.606897</ele>
        <time>2025-07-10T07:47:05.000Z</time>
      </trkpt>
      <trkpt lat="44.66627" lon="5.85762">
        <ele>1429.608543</ele>
        <time>2025-07-10T07:47:06.000Z</time>
      </trkpt>
      <trkpt lat="44.66626" lon="5.85759">
        <ele>1429.610275</ele>
        <time>2025-07-10T07:47:07.000Z</time>
      </trkpt>
      <trkpt lat="44.66625" lon="5.85756">
        <ele>1429.611958</ele>
        <time>2025-07-10T07:47:08.000Z</time>
      </trkpt>
      <trkpt lat="44.66624" lon="5.85753">
        <ele>1429.613621</ele>
        <time>2025-07-10T07:47:09.000Z</time>
      </trkpt>
      <trkpt lat="44.66623" lon="5.8575">
        <ele>1429.61521</ele>
        <time>2025-07-10T07:47:10.000Z</time>
      </trkpt>
      <trkpt lat="44.66622" lon="5.85748">
        <ele>1429.616595</ele>
        <time>2025-07-10T07:47:11.000Z</time>
      </trkpt>
      <trkpt lat="44.66622" lon="5.85745">
        <ele>1429.617754</ele>
        <time>2025-07-10T07:47:12.000Z</time>
      </trkpt>
      <trkpt lat="44.66623" lon="5.85743">
        <ele>1429.61891</ele>
        <time>2025-07-10T07:47:13.000Z</time>
      </trkpt>
      <trkpt lat="44.66624" lon="5.85743">
        <ele>1429.620062</ele>
        <time>2025-07-10T07:47:14.000Z</time>
      </trkpt>
      <trkpt lat="44.66626" lon="5.85744">
        <ele>1429.621476</ele>
        <time>2025-07-10T07:47:15.000Z</time>
      </trkpt>
      <trkpt lat="44.66627" lon="5.85746">
        <ele>1429.623146</ele>
        <time>2025-07-10T07:47:16.000Z</time>
      </trkpt>
      <trkpt lat="44.66629" lon="5.85749">
        <ele>1429.625111</ele>
        <time>2025-07-10T07:47:17.000Z</time>
      </trkpt>
      <trkpt lat="44.66631" lon="5.85753">
        <ele>1429.627151</ele>
        <time>2025-07-10T07:47:18.000Z</time>
      </trkpt>
      <trkpt lat="44.66632" lon="5.85756">
        <ele>1429.629318</ele>
        <time>2025-07-10T07:47:19.000Z</time>
      </trkpt>
      <trkpt lat="44.66634" lon="5.8576">
        <ele>1429.631696</ele>
        <time>2025-07-10T07:47:20.000Z</time>
      </trkpt>
      <trkpt lat="44.66637" lon="5.85763">
        <ele>1429.634367</ele>
        <time>2025-07-10T07:47:21.000Z</time>
      </trkpt>
      <trkpt lat="44.6664" lon="5.85767">
        <ele>1429.63704</ele>
        <time>2025-07-10T07:47:22.000Z</time>
      </trkpt>
      <trkpt lat="44.66643" lon="5.85769">
        <ele>1429.639794</ele>
        <time>2025-07-10T07:47:23.000Z</time>
      </trkpt>
      <trkpt lat="44.66647" lon="5.85772">
        <ele>1429.64251</ele>
        <time>2025-07-10T07:47:24.000Z</time>
      </trkpt>
      <trkpt lat="44.6665" lon="5.85774">
        <ele>1429.645177</ele>
        <time>2025-07-10T07:47:25.000Z</time>
      </trkpt>
      <trkpt lat="44.66653" lon="5.85777">
        <ele>1429.647857</ele>
        <time>2025-07-10T07:47:26.000Z</time>
      </trkpt>
      <trkpt lat="44.66656" lon="5.85779">
        <ele>1429.650475</ele>
        <time>2025-07-10T07:47:27.000Z</time>
      </trkpt>
      <trkpt lat="44.6666" lon="5.85782">
        <ele>1429.653206</ele>
        <time>2025-07-10T07:47:28.000Z</time>
      </trkpt>
      <trkpt lat="44.66663" lon="5.85784">
        <ele>1429.655622</ele>
        <time>2025-07-10T07:47:29.000Z</time>
      </trkpt>
      <trkpt lat="44.66664" lon="5.85787">
        <ele>1429.657626</ele>
        <time>2025-07-10T07:47:30.000Z</time>
      </trkpt>
      <trkpt lat="44.66666" lon="5.8579">
        <ele>1429.659442</ele>
        <time>2025-07-10T07:47:31.000Z</time>
      </trkpt>
      <trkpt lat="44.66669" lon="5.85791">
        <ele>1429.661289</ele>
        <time>2025-07-10T07:47:32.000Z</time>
      </trkpt>
      <trkpt lat="44.66671" lon="5.85791">
        <ele>1429.663015</ele>
        <time>2025-07-10T07:47:33.000Z</time>
      </trkpt>
      <trkpt lat="44.66674" lon="5.85791">
        <ele>1429.665102</ele>
        <time>2025-07-10T07:47:34.000Z</time>
      </trkpt>
      <trkpt lat="44.66677" lon="5.85791">
        <ele>1429.667261</ele>
        <time>2025-07-10T07:47:35.000Z</time>
      </trkpt>
      <trkpt lat="44.6668" lon="5.85791">
        <ele>1429.669559</ele>
        <time>2025-07-10T07:47:36.000Z</time>
      </trkpt>
      <trkpt lat="44.66683" lon="5.85791">
        <ele>1429.671806</ele>
        <time>2025-07-10T07:47:37.000Z</time>
      </trkpt>
      <trkpt lat="44.66687" lon="5.85792">
        <ele>1429.674229</ele>
        <time>2025-07-10T07:47:38.000Z</time>
      </trkpt>
      <trkpt lat="44.6669" lon="5.85793">
        <ele>1429.676767</ele>
        <time>2025-07-10T07:47:39.000Z</time>
      </trkpt>
      <trkpt lat="44.66694" lon="5.85793">
        <ele>1429.679432</ele>
        <time>2025-07-10T07:47:40.000Z</time>
      </trkpt>
      <trkpt lat="44.66697" lon="5.85793">
        <ele>1429.682088</ele>
        <time>2025-07-10T07:47:41.000Z</time>
      </trkpt>
      <trkpt lat="44.66701" lon="5.85793">
        <ele>1429.684747</ele>
        <time>2025-07-10T07:47:42.000Z</time>
      </trkpt>
      <trkpt lat="44.66705" lon="5.85793">
        <ele>1429.687618</ele>
        <time>2025-07-10T07:47:43.000Z</time>
      </trkpt>
      <trkpt lat="44.66709" lon="5.85793">
        <ele>1429.690494</ele>
        <time>2025-07-10T07:47:44.000Z</time>
      </trkpt>
      <trkpt lat="44.66713" lon="5.85794">
        <ele>1429.693445</ele>
        <time>2025-07-10T07:47:45.000Z</time>
      </trkpt>
      <trkpt lat="44.66717" lon="5.85794">
        <ele>1429.696487</ele>
        <time>2025-07-10T07:47:46.000Z</time>
      </trkpt>
      <trkpt lat="44.66722" lon="5.85795">
        <ele>1429.699475</ele>
        <time>2025-07-10T07:47:47.000Z</time>
      </trkpt>
      <trkpt lat="44.66726" lon="5.85796">
        <ele>1429.702454</ele>
        <time>2025-07-10T07:47:48.000Z</time>
      </trkpt>
      <trkpt lat="44.6673" lon="5.85798">
        <ele>1429.699761</ele>
        <time>2025-07-10T07:47:49.000Z</time>
      </trkpt>
      <trkpt lat="44.66734" lon="5.858">
        <ele>1429.694698</ele>
        <time>2025-07-10T07:47:50.000Z</time>
      </trkpt>
      <trkpt lat="44.66738" lon="5.85802">
        <ele>1429.689462</ele>
        <time>2025-07-10T07:47:51.000Z</time>
      </trkpt>
      <trkpt lat="44.66742" lon="5.85804">
        <ele>1429.684246</ele>
        <time>2025-07-10T07:47:52.000Z</time>
      </trkpt>
      <trkpt lat="44.66745" lon="5.85807">
        <ele>1429.679064</ele>
        <time>2025-07-10T07:47:53.000Z</time>
      </trkpt>
      <trkpt lat="44.66749" lon="5.8581">
        <ele>1429.673839</ele>
        <time>2025-07-10T07:47:54.000Z</time>
      </trkpt>
      <trkpt lat="44.66752" lon="5.85812">
        <ele>1429.669065</ele>
        <time>2025-07-10T07:47:55.000Z</time>
      </trkpt>
      <trkpt lat="44.66755" lon="5.85815">
        <ele>1429.665483</ele>
        <time>2025-07-10T07:47:56.000Z</time>
      </trkpt>
      <trkpt lat="44.66756" lon="5.85816">
        <ele>1429.663202</ele>
        <time>2025-07-10T07:47:57.000Z</time>
      </trkpt>
      <trkpt lat="44.66757" lon="5.85817">
        <ele>1429.662391</ele>
        <time>2025-07-10T07:47:58.000Z</time>
      </trkpt>
      <trkpt lat="44.66757" lon="5.85816">
        <ele>1429.661647</ele>
        <time>2025-07-10T07:50:30.000Z</time>
      </trkpt>
      <trkpt lat="44.66757" lon="5.85816">
        <ele>1429.661286</ele>
        <time>2025-07-10T07:50:31.000Z</time>
      </trkpt>
      <trkpt lat="44.66756" lon="5.85815">
        <ele>1429.660004</ele>
        <time>2025-07-10T07:50:34.000Z</time>
      </trkpt>
      <trkpt lat="44.66755" lon="5.85815">
        <ele>1429.65884</ele>
        <time>2025-07-10T07:50:35.000Z</time>
      </trkpt>
      <trkpt lat="44.66753" lon="5.85814">
        <ele>1429.656862</ele>
        <time>2025-07-10T07:50:36.000Z</time>
      </trkpt>
      <trkpt lat="44.66752" lon="5.85812">
        <ele>1429.654485</ele>
        <time>2025-07-10T07:50:37.000Z</time>
      </trkpt>
      <trkpt lat="44.66751" lon="5.8581">
        <ele>1429.652295</ele>
        <time>2025-07-10T07:50:38.000Z</time>
      </trkpt>
      <trkpt lat="44.66749" lon="5.85808">
        <ele>1429.649621</ele>
        <time>2025-07-10T07:50:39.000Z</time>
      </trkpt>
      <trkpt lat="44.66747" lon="5.85806">
        <ele>1429.646391</ele>
        <time>2025-07-10T07:50:40.000Z</time>
      </trkpt>
      <trkpt lat="44.66745" lon="5.85804">
        <ele>1429.64296</ele>
        <time>2025-07-10T07:50:41.000Z</time>
      </trkpt>
      <trkpt lat="44.66742" lon="5.85802">
        <ele>1429.639262</ele>
        <time>2025-07-10T07:50:42.000Z</time>
      </trkpt>
      <trkpt lat="44.66739" lon="5.858">
        <ele>1429.635239</ele>
        <time>2025-07-10T07:50:43.000Z</time>
      </trkpt>
      <trkpt lat="44.66736" lon="5.85798">
        <ele>1429.630788</ele>
        <time>2025-07-10T07:50:44.000Z</time>
      </trkpt>
      <trkpt lat="44.66732" lon="5.85797">
        <ele>1429.626249</ele>
        <time>2025-07-10T07:50:45.000Z</time>
      </trkpt>
      <trkpt lat="44.66728" lon="5.85795">
        <ele>1429.621618</ele>
        <time>2025-07-10T07:50:46.000Z</time>
      </trkpt>
      <trkpt lat="44.66725" lon="5.85794">
        <ele>1429.616674</ele>
        <time>2025-07-10T07:50:47.000Z</time>
      </trkpt>
      <trkpt lat="44.66721" lon="5.85793">
        <ele>1429.611768</ele>
        <time>2025-07-10T07:50:48.000Z</time>
      </trkpt>
      <trkpt lat="44.66717" lon="5.85792">
        <ele>1429.606907</ele>
        <time>2025-07-10T07:50:49.000Z</time>
      </trkpt>
      <trkpt lat="44.66713" lon="5.85792">
        <ele>1429.6022</ele>
        <time>2025-07-10T07:50:50.000Z</time>
      </trkpt>
      <trkpt lat="44.66709" lon="5.85791">
        <ele>1429.597339</ele>
        <time>2025-07-10T07:50:51.000Z</time>
      </trkpt>
      <trkpt lat="44.66705" lon="5.8579">
        <ele>1429.592433</ele>
        <time>2025-07-10T07:50:52.000Z</time>
      </trkpt>
      <trkpt lat="44.66701" lon="5.85789">
        <ele>1429.587406</ele>
        <time>2025-07-10T07:50:53.000Z</time>
      </trkpt>
      <trkpt lat="44.66697" lon="5.85787">
        <ele>1429.582441</ele>
        <time>2025-07-10T07:50:54.000Z</time>
      </trkpt>
      <trkpt lat="44.66693" lon="5.85786">
        <ele>1429.577431</ele>
        <time>2025-07-10T07:50:55.000Z</time>
      </trkpt>
      <trkpt lat="44.66689" lon="5.85784">
        <ele>1429.572133</ele>
        <time>2025-07-10T07:50:56.000Z</time>
      </trkpt>
      <trkpt lat="44.66685" lon="5.85783">
        <ele>1429.567189</ele>
        <time>2025-07-10T07:50:57.000Z</time>
      </trkpt>
      <trkpt lat="44.66681" lon="5.85782">
        <ele>1429.562179</ele>
        <time>2025-07-10T07:50:58.000Z</time>
      </trkpt>
      <trkpt lat="44.66677" lon="5.85781">
        <ele>1429.557289</ele>
        <time>2025-07-10T07:50:59.000Z</time>
      </trkpt>
      <trkpt lat="44.66674" lon="5.85779">
        <ele>1429.552444</ele>
        <time>2025-07-10T07:51:00.000Z</time>
      </trkpt>
      <trkpt lat="44.6667" lon="5.85778">
        <ele>1429.547551</ele>
        <time>2025-07-10T07:51:01.000Z</time>
      </trkpt>
      <trkpt lat="44.66666" lon="5.85776">
        <ele>1429.542777</ele>
        <time>2025-07-10T07:51:02.000Z</time>
      </trkpt>
      <trkpt lat="44.66662" lon="5.85774">
        <ele>1429.537831</ele>
        <time>2025-07-10T07:51:03.000Z</time>
      </trkpt>
      <trkpt lat="44.66659" lon="5.85772">
        <ele>1429.532657</ele>
        <time>2025-07-10T07:51:04.000Z</time>
      </trkpt>
      <trkpt lat="44.66655" lon="5.85769">
        <ele>1429.527365</ele>
        <time>2025-07-10T07:51:05.000Z</time>
      </trkpt>
      <trkpt lat="44.66651" lon="5.85766">
        <ele>1429.521815</ele>
        <time>2025-07-10T07:51:06.000Z</time>
      </trkpt>
      <trkpt lat="44.66647" lon="5.85763">
        <ele>1429.516351</ele>
        <time>2025-07-10T07:51:07.000Z</time>
      </trkpt>
      <trkpt lat="44.66643" lon="5.85759">
        <ele>1429.5107</ele>
        <time>2025-07-10T07:51:08.000Z</time>
      </trkpt>
      <trkpt lat="44.6664" lon="5.85755">
        <ele>1429.505137</ele>
        <time>2025-07-10T07:51:09.000Z</time>
      </trkpt>
      <trkpt lat="44.66637" lon="5.85751">
        <ele>1429.499853</ele>
        <time>2025-07-10T07:51:10.000Z</time>
      </trkpt>
      <trkpt lat="44.66634" lon="5.85747">
        <ele>1429.495049</ele>
        <time>2025-07-10T07:51:11.000Z</time>
      </trkpt>
      <trkpt lat="44.66632" lon="5.85743">
        <ele>1429.490902</ele>
        <time>2025-07-10T07:51:12.000Z</time>
      </trkpt>
      <trkpt lat="44.6663" lon="5.8574">
        <ele>1429.486911</ele>
        <time>2025-07-10T07:51:13.000Z</time>
      </trkpt>
      <trkpt lat="44.66627" lon="5.85738">
        <ele>1429.483364</ele>
        <time>2025-07-10T07:51:14.000Z</time>
      </trkpt>
      <trkpt lat="44.66625" lon="5.85737">
        <ele>1429.470692</ele>
        <time>2025-07-10T07:51:15.000Z</time>
      </trkpt>
      <trkpt lat="44.66622" lon="5.85737">
        <ele>1429.447185</ele>
        <time>2025-07-10T07:51:16.000Z</time>
      </trkpt>
      <trkpt lat="44.66619" lon="5.85738">
        <ele>1429.42523</ele>
        <time>2025-07-10T07:51:17.000Z</time>
      </trkpt>
      <trkpt lat="44.66617" lon="5.85738">
        <ele>1429.405746</ele>
        <time>2025-07-10T07:51:18.000Z</time>
      </trkpt>
      <trkpt lat="44.66616" lon="5.85739">
        <ele>1429.390344</ele>
        <time>2025-07-10T07:51:19.000Z</time>
      </trkpt>
      <trkpt lat="44.66614" lon="5.8574">
        <ele>1429.374758</ele>
        <time>2025-07-10T07:51:20.000Z</time>
      </trkpt>
      <trkpt lat="44.66612" lon="5.85741">
        <ele>1429.358373</ele>
        <time>2025-07-10T07:51:21.000Z</time>
      </trkpt>
      <trkpt lat="44.66612" lon="5.85743">
        <ele>1429.344378</ele>
        <time>2025-07-10T07:51:22.000Z</time>
      </trkpt>
      <trkpt lat="44.66612" lon="5.85745">
        <ele>1429.334447</ele>
        <time>2025-07-10T07:51:23.000Z</time>
      </trkpt>
      <trkpt lat="44.66612" lon="5.85747">
        <ele>1429.324401</ele>
        <time>2025-07-10T07:51:24.000Z</time>
      </trkpt>
      <trkpt lat="44.66612" lon="5.85748">
        <ele>1429.317116</ele>
        <time>2025-07-10T07:51:25.000Z</time>
      </trkpt>
      <trkpt lat="44.66612" lon="5.85748">
        <ele>1429.313305</ele>
        <time>2025-07-10T07:51:26.000Z</time>
      </trkpt>
      <trkpt lat="44.66618" lon="5.85747">
        <ele>1429.267489</ele>
        <time>2025-07-10T08:10:24.000Z</time>
      </trkpt>
      <trkpt lat="44.66619" lon="5.85747">
        <ele>1429.258795</ele>
        <time>2025-07-10T08:10:25.000Z</time>
      </trkpt>
      <trkpt lat="44.6662" lon="5.85747">
        <ele>1429.244829</ele>
        <time>2025-07-10T08:10:26.000Z</time>
      </trkpt>
      <trkpt lat="44.66622" lon="5.85748">
        <ele>1429.224072</ele>
        <time>2025-07-10T08:10:27.000Z</time>
      </trkpt>
      <trkpt lat="44.66625" lon="5.8575">
        <ele>1429.199651</ele>
        <time>2025-07-10T08:10:28.000Z</time>
      </trkpt>
      <trkpt lat="44.66627" lon="5.85752">
        <ele>1429.171862</ele>
        <time>2025-07-10T08:10:29.000Z</time>
      </trkpt>
      <trkpt lat="44.66629" lon="5.85756">
        <ele>1429.146652</ele>
        <time>2025-07-10T08:10:30.000Z</time>
      </trkpt>
      <trkpt lat="44.6663" lon="5.85759">
        <ele>1429.12417</ele>
        <time>2025-07-10T08:10:31.000Z</time>
      </trkpt>
      <trkpt lat="44.66628" lon="5.85762">
        <ele>1429.105515</ele>
        <time>2025-07-10T08:10:32.000Z</time>
      </trkpt>
      <trkpt lat="44.66627" lon="5.85764">
        <ele>1429.087542</ele>
        <time>2025-07-10T08:10:33.000Z</time>
      </trkpt>
      <trkpt lat="44.66626" lon="5.85766">
        <ele>1429.073758</ele>
        <time>2025-07-10T08:10:34.000Z</time>
      </trkpt>
      <trkpt lat="44.66626" lon="5.85767">
        <ele>1429.065058</ele>
        <time>2025-07-10T08:10:35.000Z</time>
      </trkpt>
      <trkpt lat="44.66629" lon="5.85769">
        <ele>1429.039738</ele>
        <time>2025-07-10T08:11:26.000Z</time>
      </trkpt>
      <trkpt lat="44.66631" lon="5.8577">
        <ele>1429.016597</ele>
        <time>2025-07-10T08:11:27.000Z</time>
      </trkpt>
      <trkpt lat="44.66634" lon="5.85772">
        <ele>1428.988914</ele>
        <time>2025-07-10T08:11:28.000Z</time>
      </trkpt>
      <trkpt lat="44.66637" lon="5.85774">
        <ele>1428.959965</ele>
        <time>2025-07-10T08:11:29.000Z</time>
      </trkpt>
      <trkpt lat="44.6664" lon="5.85776">
        <ele>1428.931604</ele>
        <time>2025-07-10T08:11:30.000Z</time>
      </trkpt>
      <trkpt lat="44.66643" lon="5.85778">
        <ele>1428.903245</ele>
        <time>2025-07-10T08:11:31.000Z</time>
      </trkpt>
      <trkpt lat="44.66646" lon="5.85779">
        <ele>1428.874107</ele>
        <time>2025-07-10T08:11:32.000Z</time>
      </trkpt>
      <trkpt lat="44.6665" lon="5.8578">
        <ele>1428.844471</ele>
        <time>2025-07-10T08:11:33.000Z</time>
      </trkpt>
      <trkpt lat="44.66653" lon="5.85782">
        <ele>1428.814317</ele>
        <time>2025-07-10T08:11:34.000Z</time>
      </trkpt>
      <trkpt lat="44.66656" lon="5.85783">
        <ele>1428.783145</ele>
        <time>2025-07-10T08:11:35.000Z</time>
      </trkpt>
      <trkpt lat="44.6666" lon="5.85785">
        <ele>1428.752162</ele>
        <time>2025-07-10T08:11:36.000Z</time>
      </trkpt>
      <trkpt lat="44.66663" lon="5.85786">
        <ele>1428.720524</ele>
        <time>2025-07-10T08:11:37.000Z</time>
      </trkpt>
      <trkpt lat="44.66667" lon="5.85787">
        <ele>1428.689343</ele>
        <time>2025-07-10T08:11:38.000Z</time>
      </trkpt>
      <trkpt lat="44.6667" lon="5.85788">
        <ele>1428.65829</ele>
        <time>2025-07-10T08:11:39.000Z</time>
      </trkpt>
      <trkpt lat="44.66674" lon="5.8579">
        <ele>1428.627308</ele>
        <time>2025-07-10T08:11:40.000Z</time>
      </trkpt>
      <trkpt lat="44.66677" lon="5.85791">
        <ele>1428.59567</ele>
        <time>2025-07-10T08:11:41.000Z</time>
      </trkpt>
      <trkpt lat="44.66681" lon="5.85792">
        <ele>1428.561308</ele>
        <time>2025-07-10T08:11:42.000Z</time>
      </trkpt>
      <trkpt lat="44.66685" lon="5.85793">
        <ele>1428.527124</ele>
        <time>2025-07-10T08:11:43.000Z</time>
      </trkpt>
      <trkpt lat="44.66689" lon="5.85794">
        <ele>1428.491215</ele>
        <time>2025-07-10T08:11:44.000Z</time>
      </trkpt>
      <trkpt lat="44.66693" lon="5.85795">
        <ele>1428.456747</ele>
        <time>2025-07-10T08:11:45.000Z</time>
      </trkpt>
      <trkpt lat="44.66697" lon="5.85796">
        <ele>1428.422164</ele>
        <time>2025-07-10T08:11:46.000Z</time>
      </trkpt>
      <trkpt lat="44.66701" lon="5.85797">
        <ele>1428.38684</ele>
        <time>2025-07-10T08:11:47.000Z</time>
      </trkpt>
      <trkpt lat="44.66705" lon="5.85798">
        <ele>1428.352129</ele>
        <time>2025-07-10T08:11:48.000Z</time>
      </trkpt>
      <trkpt lat="44.66708" lon="5.85799">
        <ele>1428.318397</ele>
        <time>2025-07-10T08:11:49.000Z</time>
      </trkpt>
      <trkpt lat="44.66712" lon="5.858">
        <ele>1428.28393</ele>
        <time>2025-07-10T08:11:50.000Z</time>
      </trkpt>
      <trkpt lat="44.66716" lon="5.85801">
        <ele>1428.249462</ele>
        <time>2025-07-10T08:11:51.000Z</time>
      </trkpt>
      <trkpt lat="44.6672" lon="5.85802">
        <ele>1428.214751</ele>
        <time>2025-07-10T08:11:52.000Z</time>
      </trkpt>
      <trkpt lat="44.66724" lon="5.85804">
        <ele>1428.177917</ele>
        <time>2025-07-10T08:11:53.000Z</time>
      </trkpt>
      <trkpt lat="44.66728" lon="5.85805">
        <ele>1428.139917</ele>
        <time>2025-07-10T08:11:54.000Z</time>
      </trkpt>
      <trkpt lat="44.66733" lon="5.85807">
        <ele>1428.100729</ele>
        <time>2025-07-10T08:11:55.000Z</time>
      </trkpt>
      <trkpt lat="44.66737" lon="5.8581">
        <ele>1428.060729</ele>
        <time>2025-07-10T08:11:56.000Z</time>
      </trkpt>
      <trkpt lat="44.66741" lon="5.85813">
        <ele>1428.019264</ele>
        <time>2025-07-10T08:11:57.000Z</time>
      </trkpt>
      <trkpt lat="44.66746" lon="5.85816">
        <ele>1427.974689</ele>
        <time>2025-07-10T08:11:58.000Z</time>
      </trkpt>
      <trkpt lat="44.6675" lon="5.85821">
        <ele>1427.929468</ele>
        <time>2025-07-10T08:11:59.000Z</time>
      </trkpt>
      <trkpt lat="44.66754" lon="5.85826">
        <ele>1427.720743</ele>
        <time>2025-07-10T08:12:00.000Z</time>
      </trkpt>
      <trkpt lat="44.66758" lon="5.85833">
        <ele>1427.449445</ele>
        <time>2025-07-10T08:12:01.000Z</time>
      </trkpt>
      <trkpt lat="44.66761" lon="5.85839">
        <ele>1427.171115</ele>
        <time>2025-07-10T08:12:02.000Z</time>
      </trkpt>
      <trkpt lat="44.66765" lon="5.85846">
        <ele>1426.88525</ele>
        <time>2025-07-10T08:12:03.000Z</time>
      </trkpt>
      <trkpt lat="44.66769" lon="5.85854">
        <ele>1426.588675</ele>
        <time>2025-07-10T08:12:04.000Z</time>
      </trkpt>
      <trkpt lat="44.66772" lon="5.85861">
        <ele>1426.286798</ele>
        <time>2025-07-10T08:12:05.000Z</time>
      </trkpt>
      <trkpt lat="44.66776" lon="5.85869">
        <ele>1425.984969</ele>
        <time>2025-07-10T08:12:06.000Z</time>
      </trkpt>
      <trkpt lat="44.6678" lon="5.85876">
        <ele>1425.680466</ele>
        <time>2025-07-10T08:12:07.000Z</time>
      </trkpt>
      <trkpt lat="44.66784" lon="5.85884">
        <ele>1425.375941</ele>
        <time>2025-07-10T08:12:08.000Z</time>
      </trkpt>
      <trkpt lat="44.66788" lon="5.85891">
        <ele>1425.076763</ele>
        <time>2025-07-10T08:12:09.000Z</time>
      </trkpt>
      <trkpt lat="44.66791" lon="5.85899">
        <ele>1424.782476</ele>
        <time>2025-07-10T08:12:10.000Z</time>
      </trkpt>
      <trkpt lat="44.66795" lon="5.85906">
        <ele>1424.49119</ele>
        <time>2025-07-10T08:12:11.000Z</time>
      </trkpt>
      <trkpt lat="44.66798" lon="5.85913">
        <ele>1424.205326</ele>
        <time>2025-07-10T08:12:12.000Z</time>
      </trkpt>
      <trkpt lat="44.66802" lon="5.85921">
        <ele>1423.924775</ele>
        <time>2025-07-10T08:12:13.000Z</time>
      </trkpt>
      <trkpt lat="44.66805" lon="5.85928">
        <ele>1423.64559</ele>
        <time>2025-07-10T08:12:14.000Z</time>
      </trkpt>
      <trkpt lat="44.66808" lon="5.85935">
        <ele>1423.366913</ele>
        <time>2025-07-10T08:12:15.000Z</time>
      </trkpt>
      <trkpt lat="44.66811" lon="5.85942">
        <ele>1423.081062</ele>
        <time>2025-07-10T08:12:16.000Z</time>
      </trkpt>
      <trkpt lat="44.66815" lon="5.8595">
        <ele>1422.797787</ele>
        <time>2025-07-10T08:12:17.000Z</time>
      </trkpt>
      <trkpt lat="44.66818" lon="5.85957">
        <ele>1422.511776</ele>
        <time>2025-07-10T08:12:18.000Z</time>
      </trkpt>
      <trkpt lat="44.66822" lon="5.85964">
        <ele>1422.220613</ele>
        <time>2025-07-10T08:12:19.000Z</time>
      </trkpt>
      <trkpt lat="44.66825" lon="5.85972">
        <ele>1421.92945</ele>
        <time>2025-07-10T08:12:20.000Z</time>
      </trkpt>
      <trkpt lat="44.66829" lon="5.85979">
        <ele>1421.635588</ele>
        <time>2025-07-10T08:12:21.000Z</time>
      </trkpt>
      <trkpt lat="44.66833" lon="5.85986">
        <ele>1421.339099</ele>
        <time>2025-07-10T08:12:22.000Z</time>
      </trkpt>
      <trkpt lat="44.66836" lon="5.85994">
        <ele>1421.039924</ele>
        <time>2025-07-10T08:12:23.000Z</time>
      </trkpt>
      <trkpt lat="44.66839" lon="5.86002">
        <ele>1420.738435</ele>
        <time>2025-07-10T08:12:24.000Z</time>
      </trkpt>
      <trkpt lat="44.66842" lon="5.86011">
        <ele>1420.429608</ele>
        <time>2025-07-10T08:12:25.000Z</time>
      </trkpt>
      <trkpt lat="44.66842" lon="5.8602">
        <ele>1420.117008</ele>
        <time>2025-07-10T08:12:26.000Z</time>
      </trkpt>
      <trkpt lat="44.66841" lon="5.8603">
        <ele>1419.794303</ele>
        <time>2025-07-10T08:12:27.000Z</time>
      </trkpt>
      <trkpt lat="44.66838" lon="5.8604">
        <ele>1419.40214</ele>
        <time>2025-07-10T08:12:28.000Z</time>
      </trkpt>
      <trkpt lat="44.66834" lon="5.86048">
        <ele>1418.952123</ele>
        <time>2025-07-10T08:12:29.000Z</time>
      </trkpt>
      <trkpt lat="44.66829" lon="5.86057">
        <ele>1418.494656</ele>
        <time>2025-07-10T08:12:30.000Z</time>
      </trkpt>
      <trkpt lat="44.66824" lon="5.86066">
        <ele>1418.034338</ele>
        <time>2025-07-10T08:12:31.000Z</time>
      </trkpt>
      <trkpt lat="44.66821" lon="5.86076">
        <ele>1417.573508</ele>
        <time>2025-07-10T08:12:32.000Z</time>
      </trkpt>
      <trkpt lat="44.66819" lon="5.86087">
        <ele>1417.104405</ele>
        <time>2025-07-10T08:12:33.000Z</time>
      </trkpt>
      <trkpt lat="44.66819" lon="5.86098">
        <ele>1416.627205</ele>
        <time>2025-07-10T08:12:34.000Z</time>
      </trkpt>
      <trkpt lat="44.66819" lon="5.8611">
        <ele>1416.12971</ele>
        <time>2025-07-10T08:12:35.000Z</time>
      </trkpt>
      <trkpt lat="44.66819" lon="5.86122">
        <ele>1415.626883</ele>
        <time>2025-07-10T08:12:36.000Z</time>
      </trkpt>
      <trkpt lat="44.66816" lon="5.86133">
        <ele>1415.122367</ele>
        <time>2025-07-10T08:12:37.000Z</time>
      </trkpt>
      <trkpt lat="44.66812" lon="5.86143">
        <ele>1414.61645</ele>
        <time>2025-07-10T08:12:38.000Z</time>
      </trkpt>
      <trkpt lat="44.66806" lon="5.86152">
        <ele>1414.085294</ele>
        <time>2025-07-10T08:12:39.000Z</time>
      </trkpt>
      <trkpt lat="44.66799" lon="5.86161">
        <ele>1413.542626</ele>
        <time>2025-07-10T08:12:40.000Z</time>
      </trkpt>
      <trkpt lat="44.66792" lon="5.86169">
        <ele>1412.997232</ele>
        <time>2025-07-10T08:12:41.000Z</time>
      </trkpt>
      <trkpt lat="44.66786" lon="5.86179">
        <ele>1412.448314</ele>
        <time>2025-07-10T08:12:42.000Z</time>
      </trkpt>
      <trkpt lat="44.66781" lon="5.8619">
        <ele>1411.905319</ele>
        <time>2025-07-10T08:12:43.000Z</time>
      </trkpt>
      <trkpt lat="44.66779" lon="5.86203">
        <ele>1411.36519</ele>
        <time>2025-07-10T08:12:44.000Z</time>
      </trkpt>
      <trkpt lat="44.66779" lon="5.86216">
        <ele>1410.820953</ele>
        <time>2025-07-10T08:12:45.000Z</time>
      </trkpt>
      <trkpt lat="44.6678" lon="5.86228">
        <ele>1410.266866</ele>
        <time>2025-07-10T08:12:46.000Z</time>
      </trkpt>
      <trkpt lat="44.66784" lon="5.86241">
        <ele>1409.702944</ele>
        <time>2025-07-10T08:12:47.000Z</time>
      </trkpt>
      <trkpt lat="44.66788" lon="5.86253">
        <ele>1409.14436</ele>
        <time>2025-07-10T08:12:48.000Z</time>
      </trkpt>
      <trkpt lat="44.66792" lon="5.86265">
        <ele>1408.557074</ele>
        <time>2025-07-10T08:12:49.000Z</time>
      </trkpt>
      <trkpt lat="44.66797" lon="5.86277">
        <ele>1407.965086</ele>
        <time>2025-07-10T08:12:50.000Z</time>
      </trkpt>
      <trkpt lat="44.66801" lon="5.86289">
        <ele>1407.373099</ele>
        <time>2025-07-10T08:12:51.000Z</time>
      </trkpt>
      <trkpt lat="44.66806" lon="5.86301">
        <ele>1406.773304</ele>
        <time>2025-07-10T08:12:52.000Z</time>
      </trkpt>
      <trkpt lat="44.6681" lon="5.86313">
        <ele>1406.168511</ele>
        <time>2025-07-10T08:12:53.000Z</time>
      </trkpt>
      <trkpt lat="44.66815" lon="5.86325">
        <ele>1405.554085</ele>
        <time>2025-07-10T08:12:54.000Z</time>
      </trkpt>
      <trkpt lat="44.6682" lon="5.86337">
        <ele>1404.936012</ele>
        <time>2025-07-10T08:12:55.000Z</time>
      </trkpt>
      <trkpt lat="44.66825" lon="5.86349">
        <ele>1404.309076</ele>
        <time>2025-07-10T08:12:56.000Z</time>
      </trkpt>
      <trkpt lat="44.66832" lon="5.8636">
        <ele>1403.672775</ele>
        <time>2025-07-10T08:12:57.000Z</time>
      </trkpt>
      <trkpt lat="44.66839" lon="5.8637">
        <ele>1403.033232</ele>
        <time>2025-07-10T08:12:58.000Z</time>
      </trkpt>
      <trkpt lat="44.66846" lon="5.86381">
        <ele>1402.390319</ele>
        <time>2025-07-10T08:12:59.000Z</time>
      </trkpt>
      <trkpt lat="44.66854" lon="5.8639">
        <ele>1401.745769</ele>
        <time>2025-07-10T08:13:00.000Z</time>
      </trkpt>
      <trkpt lat="44.66863" lon="5.86397">
        <ele>1401.09907</ele>
        <time>2025-07-10T08:13:01.000Z</time>
      </trkpt>
      <trkpt lat="44.66872" lon="5.86404">
        <ele>1400.452923</ele>
        <time>2025-07-10T08:13:02.000Z</time>
      </trkpt>
      <trkpt lat="44.66882" lon="5.8641">
        <ele>1399.801597</ele>
        <time>2025-07-10T08:13:03.000Z</time>
      </trkpt>
      <trkpt lat="44.66892" lon="5.86415">
        <ele>1399.146111</ele>
        <time>2025-07-10T08:13:04.000Z</time>
      </trkpt>
      <trkpt lat="44.66902" lon="5.86418">
        <ele>1398.488376</ele>
        <time>2025-07-10T08:13:05.000Z</time>
      </trkpt>
      <trkpt lat="44.66913" lon="5.8642">
        <ele>1397.829046</ele>
        <time>2025-07-10T08:13:06.000Z</time>
      </trkpt>
      <trkpt lat="44.66923" lon="5.86422">
        <ele>1396.880492</ele>
        <time>2025-07-10T08:13:07.000Z</time>
      </trkpt>
      <trkpt lat="44.66934" lon="5.86423">
        <ele>1395.922195</ele>
        <time>2025-07-10T08:13:08.000Z</time>
      </trkpt>
      <trkpt lat="44.66944" lon="5.86425">
        <ele>1394.961875</ele>
        <time>2025-07-10T08:13:09.000Z</time>
      </trkpt>
      <trkpt lat="44.66955" lon="5.86427">
        <ele>1394.004302</ele>
        <time>2025-07-10T08:13:10.000Z</time>
      </trkpt>
      <trkpt lat="44.66965" lon="5.86431">
        <ele>1393.063121</ele>
        <time>2025-07-10T08:13:11.000Z</time>
      </trkpt>
      <trkpt lat="44.66975" lon="5.86436">
        <ele>1392.117592</ele>
        <time>2025-07-10T08:13:12.000Z</time>
      </trkpt>
      <trkpt lat="44.66984" lon="5.86443">
        <ele>1391.178227</ele>
        <time>2025-07-10T08:13:13.000Z</time>
      </trkpt>
      <trkpt lat="44.66992" lon="5.86452">
        <ele>1390.249122</ele>
        <time>2025-07-10T08:13:14.000Z</time>
      </trkpt>
      <trkpt lat="44.67" lon="5.86461">
        <ele>1389.317132</ele>
        <time>2025-07-10T08:13:15.000Z</time>
      </trkpt>
      <trkpt lat="44.67007" lon="5.86471">
        <ele>1388.399493</ele>
        <time>2025-07-10T08:13:16.000Z</time>
      </trkpt>
      <trkpt lat="44.67014" lon="5.86482">
        <ele>1387.484277</ele>
        <time>2025-07-10T08:13:17.000Z</time>
      </trkpt>
      <trkpt lat="44.6702" lon="5.86492">
        <ele>1386.580865</ele>
        <time>2025-07-10T08:13:18.000Z</time>
      </trkpt>
      <trkpt lat="44.67027" lon="5.86502">
        <ele>1385.665898</ele>
        <time>2025-07-10T08:13:19.000Z</time>
      </trkpt>
      <trkpt lat="44.67035" lon="5.86511">
        <ele>1384.758148</ele>
        <time>2025-07-10T08:13:20.000Z</time>
      </trkpt>
      <trkpt lat="44.67044" lon="5.86518">
        <ele>1383.846393</ele>
        <time>2025-07-10T08:13:21.000Z</time>
      </trkpt>
      <trkpt lat="44.67053" lon="5.86525">
        <ele>1382.921927</ele>
        <time>2025-07-10T08:13:22.000Z</time>
      </trkpt>
      <trkpt lat="44.67062" lon="5.8653">
        <ele>1381.991772</ele>
        <time>2025-07-10T08:13:23.000Z</time>
      </trkpt>
      <trkpt lat="44.67072" lon="5.86534">
        <ele>1381.153363</ele>
        <time>2025-07-10T08:13:24.000Z</time>
      </trkpt>
      <trkpt lat="44.67082" lon="5.86538">
        <ele>1380.454259</ele>
        <time>2025-07-10T08:13:25.000Z</time>
      </trkpt>
      <trkpt lat="44.67092" lon="5.86544">
        <ele>1379.754758</ele>
        <time>2025-07-10T08:13:26.000Z</time>
      </trkpt>
      <trkpt lat="44.67101" lon="5.86552">
        <ele>1379.04581</ele>
        <time>2025-07-10T08:13:27.000Z</time>
      </trkpt>
      <trkpt lat="44.67109" lon="5.86562">
        <ele>1378.347904</ele>
        <time>2025-07-10T08:13:28.000Z</time>
      </trkpt>
      <trkpt lat="44.67115" lon="5.86574">
        <ele>1377.640287</ele>
        <time>2025-07-10T08:13:29.000Z</time>
      </trkpt>
      <trkpt lat="44.67121" lon="5.86587">
        <ele>1376.917614</ele>
        <time>2025-07-10T08:13:30.000Z</time>
      </trkpt>
      <trkpt lat="44.67126" lon="5.866">
        <ele>1376.193773</ele>
        <time>2025-07-10T08:13:31.000Z</time>
      </trkpt>
      <trkpt lat="44.67132" lon="5.86614">
        <ele>1375.467733</ele>
        <time>2025-07-10T08:13:32.000Z</time>
      </trkpt>
      <trkpt lat="44.67138" lon="5.86626">
        <ele>1374.749888</ele>
        <time>2025-07-10T08:13:33.000Z</time>
      </trkpt>
      <trkpt lat="44.67145" lon="5.86637">
        <ele>1374.02599</ele>
        <time>2025-07-10T08:13:34.000Z</time>
      </trkpt>
      <trkpt lat="44.67154" lon="5.86647">
        <ele>1373.30597</ele>
        <time>2025-07-10T08:13:35.000Z</time>
      </trkpt>
      <trkpt lat="44.67163" lon="5.86654">
        <ele>1372.575866</ele>
        <time>2025-07-10T08:13:36.000Z</time>
      </trkpt>
      <trkpt lat="44.67173" lon="5.86661">
        <ele>1371.852366</ele>
        <time>2025-07-10T08:13:37.000Z</time>
      </trkpt>
      <trkpt lat="44.67183" lon="5.86667">
        <ele>1371.126862</ele>
        <time>2025-07-10T08:13:38.000Z</time>
      </trkpt>
      <trkpt lat="44.67193" lon="5.86673">
        <ele>1370.407175</ele>
        <time>2025-07-10T08:13:39.000Z</time>
      </trkpt>
      <trkpt lat="44.67202" lon="5.86679">
        <ele>1369.699214</ele>
        <time>2025-07-10T08:13:40.000Z</time>
      </trkpt>
      <trkpt lat="44.67212" lon="5.86685">
        <ele>1368.98705</ele>
        <time>2025-07-10T08:13:41.000Z</time>
      </trkpt>
      <trkpt lat="44.67222" lon="5.86689">
        <ele>1368.285067</ele>
        <time>2025-07-10T08:13:42.000Z</time>
      </trkpt>
      <trkpt lat="44.67232" lon="5.86694">
        <ele>1367.590355</ele>
        <time>2025-07-10T08:13:43.000Z</time>
      </trkpt>
      <trkpt lat="44.67243" lon="5.86697">
        <ele>1366.898147</ele>
        <time>2025-07-10T08:13:44.000Z</time>
      </trkpt>
      <trkpt lat="44.67253" lon="5.867">
        <ele>1366.204869</ele>
        <time>2025-07-10T08:13:45.000Z</time>
      </trkpt>
      <trkpt lat="44.67263" lon="5.86703">
        <ele>1365.520965</ele>
        <time>2025-07-10T08:13:46.000Z</time>
      </trkpt>
      <trkpt lat="44.67273" lon="5.86706">
        <ele>1364.834676</ele>
        <time>2025-07-10T08:13:47.000Z</time>
      </trkpt>
      <trkpt lat="44.67283" lon="5.86708">
        <ele>1364.157067</ele>
        <time>2025-07-10T08:13:48.000Z</time>
      </trkpt>
      <trkpt lat="44.67293" lon="5.86709">
        <ele>1363.481289</ele>
        <time>2025-07-10T08:13:49.000Z</time>
      </trkpt>
      <trkpt lat="44.67303" lon="5.86711">
        <ele>1362.813175</ele>
        <time>2025-07-10T08:13:50.000Z</time>
      </trkpt>
      <trkpt lat="44.67313" lon="5.86712">
        <ele>1362.143993</ele>
        <time>2025-07-10T08:13:51.000Z</time>
      </trkpt>
      <trkpt lat="44.67323" lon="5.86715">
        <ele>1361.468388</ele>
        <time>2025-07-10T08:13:52.000Z</time>
      </trkpt>
      <trkpt lat="44.67333" lon="5.86719">
        <ele>1360.787854</ele>
        <time>2025-07-10T08:13:53.000Z</time>
      </trkpt>
      <trkpt lat="44.67343" lon="5.86723">
        <ele>1360.112498</ele>
        <time>2025-07-10T08:13:54.000Z</time>
      </trkpt>
      <trkpt lat="44.67353" lon="5.86727">
        <ele>1359.447319</ele>
        <time>2025-07-10T08:13:55.000Z</time>
      </trkpt>
      <trkpt lat="44.67362" lon="5.86731">
        <ele>1358.785735</ele>
        <time>2025-07-10T08:13:56.000Z</time>
      </trkpt>
      <trkpt lat="44.67371" lon="5.86735">
        <ele>1358.129206</ele>
        <time>2025-07-10T08:13:57.000Z</time>
      </trkpt>
      <trkpt lat="44.67381" lon="5.8674">
        <ele>1357.468596</ele>
        <time>2025-07-10T08:13:58.000Z</time>
      </trkpt>
      <trkpt lat="44.6739" lon="5.86745">
        <ele>1356.798037</ele>
        <time>2025-07-10T08:13:59.000Z</time>
      </trkpt>
      <trkpt lat="44.674" lon="5.86749">
        <ele>1356.121888</ele>
        <time>2025-07-10T08:14:00.000Z</time>
      </trkpt>
      <trkpt lat="44.67409" lon="5.86752">
        <ele>1355.444415</ele>
        <time>2025-07-10T08:14:01.000Z</time>
      </trkpt>
      <trkpt lat="44.67419" lon="5.86756">
        <ele>1354.768153</ele>
        <time>2025-07-10T08:14:02.000Z</time>
      </trkpt>
      <trkpt lat="44.67429" lon="5.86759">
        <ele>1354.10299</ele>
        <time>2025-07-10T08:14:03.000Z</time>
      </trkpt>
      <trkpt lat="44.67438" lon="5.86761">
        <ele>1353.451183</ele>
        <time>2025-07-10T08:14:04.000Z</time>
      </trkpt>
      <trkpt lat="44.67448" lon="5.86763">
        <ele>1352.798903</ele>
        <time>2025-07-10T08:14:05.000Z</time>
      </trkpt>
      <trkpt lat="44.67457" lon="5.86764">
        <ele>1352.149476</ele>
        <time>2025-07-10T08:14:06.000Z</time>
      </trkpt>
      <trkpt lat="44.67467" lon="5.86764">
        <ele>1351.500902</ele>
        <time>2025-07-10T08:14:07.000Z</time>
      </trkpt>
      <trkpt lat="44.67476" lon="5.86764">
        <ele>1350.859347</ele>
        <time>2025-07-10T08:14:08.000Z</time>
      </trkpt>
      <trkpt lat="44.67486" lon="5.86764">
        <ele>1350.217738</ele>
        <time>2025-07-10T08:14:09.000Z</time>
      </trkpt>
      <trkpt lat="44.67495" lon="5.86763">
        <ele>1349.582064</ele>
        <time>2025-07-10T08:14:10.000Z</time>
      </trkpt>
      <trkpt lat="44.67505" lon="5.86763">
        <ele>1348.946119</ele>
        <time>2025-07-10T08:14:11.000Z</time>
      </trkpt>
      <trkpt lat="44.67514" lon="5.86762">
        <ele>1348.303128</ele>
        <time>2025-07-10T08:14:12.000Z</time>
      </trkpt>
      <trkpt lat="44.67524" lon="5.8676">
        <ele>1347.65756</ele>
        <time>2025-07-10T08:14:13.000Z</time>
      </trkpt>
      <trkpt lat="44.67533" lon="5.86758">
        <ele>1346.997356</ele>
        <time>2025-07-10T08:14:14.000Z</time>
      </trkpt>
      <trkpt lat="44.67543" lon="5.86754">
        <ele>1346.340699</ele>
        <time>2025-07-10T08:14:15.000Z</time>
      </trkpt>
      <trkpt lat="44.67552" lon="5.8675">
        <ele>1345.681518</ele>
        <time>2025-07-10T08:14:16.000Z</time>
      </trkpt>
      <trkpt lat="44.67562" lon="5.86747">
        <ele>1345.068241</ele>
        <time>2025-07-10T08:14:17.000Z</time>
      </trkpt>
      <trkpt lat="44.67571" lon="5.86742">
        <ele>1344.487145</ele>
        <time>2025-07-10T08:14:18.000Z</time>
      </trkpt>
      <trkpt lat="44.67581" lon="5.86738">
        <ele>1343.894859</ele>
        <time>2025-07-10T08:14:19.000Z</time>
      </trkpt>
      <trkpt lat="44.67591" lon="5.86734">
        <ele>1343.298143</ele>
        <time>2025-07-10T08:14:20.000Z</time>
      </trkpt>
      <trkpt lat="44.676" lon="5.86731">
        <ele>1342.704783</ele>
        <time>2025-07-10T08:14:21.000Z</time>
      </trkpt>
      <trkpt lat="44.6761" lon="5.86728">
        <ele>1342.118296</ele>
        <time>2025-07-10T08:14:22.000Z</time>
      </trkpt>
      <trkpt lat="44.6762" lon="5.86727">
        <ele>1341.527161</ele>
        <time>2025-07-10T08:14:23.000Z</time>
      </trkpt>
      <trkpt lat="44.6763" lon="5.8673">
        <ele>1340.933151</ele>
        <time>2025-07-10T08:14:24.000Z</time>
      </trkpt>
      <trkpt lat="44.67639" lon="5.86737">
        <ele>1340.338866</ele>
        <time>2025-07-10T08:14:25.000Z</time>
      </trkpt>
      <trkpt lat="44.67647" lon="5.86747">
        <ele>1339.741491</ele>
        <time>2025-07-10T08:14:26.000Z</time>
      </trkpt>
      <trkpt lat="44.67653" lon="5.86758">
        <ele>1339.135414</ele>
        <time>2025-07-10T08:14:27.000Z</time>
      </trkpt>
      <trkpt lat="44.6766" lon="5.86769">
        <ele>1338.538839</ele>
        <time>2025-07-10T08:14:28.000Z</time>
      </trkpt>
      <trkpt lat="44.67665" lon="5.86781">
        <ele>1337.952531</ele>
        <time>2025-07-10T08:14:29.000Z</time>
      </trkpt>
      <trkpt lat="44.67671" lon="5.86793">
        <ele>1337.372184</ele>
        <time>2025-07-10T08:14:30.000Z</time>
      </trkpt>
      <trkpt lat="44.67676" lon="5.86804">
        <ele>1336.79847</ele>
        <time>2025-07-10T08:14:31.000Z</time>
      </trkpt>
      <trkpt lat="44.67681" lon="5.86816">
        <ele>1336.224285</ele>
        <time>2025-07-10T08:14:32.000Z</time>
      </trkpt>
      <trkpt lat="44.67686" lon="5.86828">
        <ele>1335.653649</ele>
        <time>2025-07-10T08:14:33.000Z</time>
      </trkpt>
      <trkpt lat="44.67691" lon="5.8684">
        <ele>1335.079936</ele>
        <time>2025-07-10T08:14:34.000Z</time>
      </trkpt>
      <trkpt lat="44.67696" lon="5.86851">
        <ele>1334.471065</ele>
        <time>2025-07-10T08:14:35.000Z</time>
      </trkpt>
      <trkpt lat="44.67701" lon="5.86863">
        <ele>1333.844827</ele>
        <time>2025-07-10T08:14:36.000Z</time>
      </trkpt>
      <trkpt lat="44.67707" lon="5.86875">
        <ele>1333.215951</ele>
        <time>2025-07-10T08:14:37.000Z</time>
      </trkpt>
      <trkpt lat="44.67712" lon="5.86886">
        <ele>1332.597902</ele>
        <time>2025-07-10T08:14:38.000Z</time>
      </trkpt>
      <trkpt lat="44.67717" lon="5.86897">
        <ele>1331.98018</ele>
        <time>2025-07-10T08:14:39.000Z</time>
      </trkpt>
      <trkpt lat="44.67723" lon="5.86908">
        <ele>1331.355275</ele>
        <time>2025-07-10T08:14:40.000Z</time>
      </trkpt>
      <trkpt lat="44.67729" lon="5.86919">
        <ele>1330.725887</ele>
        <time>2025-07-10T08:14:41.000Z</time>
      </trkpt>
      <trkpt lat="44.67736" lon="5.86929">
        <ele>1330.093186</ele>
        <time>2025-07-10T08:14:42.000Z</time>
      </trkpt>
      <trkpt lat="44.67743" lon="5.86939">
        <ele>1329.46253</ele>
        <time>2025-07-10T08:14:43.000Z</time>
      </trkpt>
      <trkpt lat="44.6775" lon="5.86948">
        <ele>1328.831691</ele>
        <time>2025-07-10T08:14:44.000Z</time>
      </trkpt>
      <trkpt lat="44.67758" lon="5.86957">
        <ele>1328.2035</ele>
        <time>2025-07-10T08:14:45.000Z</time>
      </trkpt>
      <trkpt lat="44.67765" lon="5.86965">
        <ele>1327.572481</ele>
        <time>2025-07-10T08:14:46.000Z</time>
      </trkpt>
      <trkpt lat="44.67773" lon="5.86974">
        <ele>1326.942014</ele>
        <time>2025-07-10T08:14:47.000Z</time>
      </trkpt>
      <trkpt lat="44.67782" lon="5.86982">
        <ele>1326.298843</ele>
        <time>2025-07-10T08:14:48.000Z</time>
      </trkpt>
      <trkpt lat="44.6779" lon="5.86989">
        <ele>1325.657301</ele>
        <time>2025-07-10T08:14:49.000Z</time>
      </trkpt>
      <trkpt lat="44.67799" lon="5.86996">
        <ele>1325.012664</ele>
        <time>2025-07-10T08:14:50.000Z</time>
      </trkpt>
      <trkpt lat="44.67807" lon="5.87004">
        <ele>1324.370373</ele>
        <time>2025-07-10T08:14:51.000Z</time>
      </trkpt>
      <trkpt lat="44.67816" lon="5.87011">
        <ele>1323.725736</ele>
        <time>2025-07-10T08:14:52.000Z</time>
      </trkpt>
      <trkpt lat="44.67824" lon="5.87018">
        <ele>1323.092611</ele>
        <time>2025-07-10T08:14:53.000Z</time>
      </trkpt>
      <trkpt lat="44.67833" lon="5.87025">
        <ele>1322.455391</ele>
        <time>2025-07-10T08:14:54.000Z</time>
      </trkpt>
      <trkpt lat="44.67842" lon="5.87032">
        <ele>1321.833604</ele>
        <time>2025-07-10T08:14:55.000Z</time>
      </trkpt>
      <trkpt lat="44.6785" lon="5.8704">
        <ele>1321.218575</ele>
        <time>2025-07-10T08:14:56.000Z</time>
      </trkpt>
      <trkpt lat="44.67857" lon="5.87047">
        <ele>1320.642555</ele>
        <time>2025-07-10T08:14:57.000Z</time>
      </trkpt>
      <trkpt lat="44.67864" lon="5.87055">
        <ele>1320.108958</ele>
        <time>2025-07-10T08:14:58.000Z</time>
      </trkpt>
      <trkpt lat="44.67869" lon="5.87062">
        <ele>1319.637127</ele>
        <time>2025-07-10T08:14:59.000Z</time>
      </trkpt>
      <trkpt lat="44.67874" lon="5.87067">
        <ele>1319.229088</ele>
        <time>2025-07-10T08:15:00.000Z</time>
      </trkpt>
      <trkpt lat="44.67879" lon="5.8707">
        <ele>1318.889362</ele>
        <time>2025-07-10T08:15:01.000Z</time>
      </trkpt>
      <trkpt lat="44.67884" lon="5.87071">
        <ele>1318.621817</ele>
        <time>2025-07-10T08:15:02.000Z</time>
      </trkpt>
      <trkpt lat="44.67887" lon="5.87071">
        <ele>1318.406023</ele>
        <time>2025-07-10T08:15:03.000Z</time>
      </trkpt>
      <trkpt lat="44.6789" lon="5.87072">
        <ele>1318.234643</ele>
        <time>2025-07-10T08:15:04.000Z</time>
      </trkpt>
      <trkpt lat="44.67891" lon="5.87072">
        <ele>1318.132749</ele>
        <time>2025-07-10T08:15:05.000Z</time>
      </trkpt>
      <trkpt lat="44.67893" lon="5.87072">
        <ele>1318.05647</ele>
        <time>2025-07-10T08:15:06.000Z</time>
      </trkpt>
      <trkpt lat="44.67894" lon="5.87072">
        <ele>1317.98784</ele>
        <time>2025-07-10T08:15:46.000Z</time>
      </trkpt>
      <trkpt lat="44.67894" lon="5.8707">
        <ele>1317.9068</ele>
        <time>2025-07-10T08:15:47.000Z</time>
      </trkpt>
      <trkpt lat="44.67894" lon="5.87068">
        <ele>1317.82576</ele>
        <time>2025-07-10T08:15:48.000Z</time>
      </trkpt>
      <trkpt lat="44.67894" lon="5.87065">
        <ele>1317.71196</ele>
        <time>2025-07-10T08:15:49.000Z</time>
      </trkpt>
      <trkpt lat="44.67894" lon="5.87063">
        <ele>1317.584989</ele>
        <time>2025-07-10T08:15:50.000Z</time>
      </trkpt>
      <trkpt lat="44.67895" lon="5.87059">
        <ele>1317.42424</ele>
        <time>2025-07-10T08:15:51.000Z</time>
      </trkpt>
      <trkpt lat="44.67896" lon="5.87056">
        <ele>1317.246572</ele>
        <time>2025-07-10T08:15:52.000Z</time>
      </trkpt>
      <trkpt lat="44.67898" lon="5.87052">
        <ele>1317.050476</ele>
        <time>2025-07-10T08:15:53.000Z</time>
      </trkpt>
      <trkpt lat="44.679" lon="5.87048">
        <ele>1316.823673</ele>
        <time>2025-07-10T08:15:54.000Z</time>
      </trkpt>
      <trkpt lat="44.67903" lon="5.87044">
        <ele>1316.57173</ele>
        <time>2025-07-10T08:15:55.000Z</time>
      </trkpt>
      <trkpt lat="44.67906" lon="5.8704">
        <ele>1316.30321</ele>
        <time>2025-07-10T08:15:56.000Z</time>
      </trkpt>
      <trkpt lat="44.6791" lon="5.87038">
        <ele>1316.015317</ele>
        <time>2025-07-10T08:15:57.000Z</time>
      </trkpt>
      <trkpt lat="44.67915" lon="5.87036">
        <ele>1315.718221</ele>
        <time>2025-07-10T08:15:58.000Z</time>
      </trkpt>
      <trkpt lat="44.67919" lon="5.87036">
        <ele>1315.475675</ele>
        <time>2025-07-10T08:15:59.000Z</time>
      </trkpt>
      <trkpt lat="44.67921" lon="5.87035">
        <ele>1315.298697</ele>
        <time>2025-07-10T08:16:00.000Z</time>
      </trkpt>
      <trkpt lat="44.67923" lon="5.87036">
        <ele>1315.178425</ele>
        <time>2025-07-10T08:16:01.000Z</time>
      </trkpt>
      <trkpt lat="44.67924" lon="5.87036">
        <ele>1315.112796</ele>
        <time>2025-07-10T08:16:02.000Z</time>
      </trkpt>
      <trkpt lat="44.67925" lon="5.87036">
        <ele>1315.091839</ele>
        <time>2025-07-10T08:16:03.000Z</time>
      </trkpt>
      <trkpt lat="44.67925" lon="5.87037">
        <ele>1315.033148</ele>
        <time>2025-07-10T08:17:22.000Z</time>
      </trkpt>
      <trkpt lat="44.67925" lon="5.87041">
        <ele>1314.88289</ele>
        <time>2025-07-10T08:17:23.000Z</time>
      </trkpt>
      <trkpt lat="44.67926" lon="5.87045">
        <ele>1314.699398</ele>
        <time>2025-07-10T08:17:24.000Z</time>
      </trkpt>
      <trkpt lat="44.67927" lon="5.87049">
        <ele>1314.491194</ele>
        <time>2025-07-10T08:17:25.000Z</time>
      </trkpt>
      <trkpt lat="44.67929" lon="5.87053">
        <ele>1314.253249</ele>
        <time>2025-07-10T08:17:26.000Z</time>
      </trkpt>
      <trkpt lat="44.67932" lon="5.87058">
        <ele>1313.992379</ele>
        <time>2025-07-10T08:17:27.000Z</time>
      </trkpt>
      <trkpt lat="44.67935" lon="5.87062">
        <ele>1313.709877</ele>
        <time>2025-07-10T08:17:28.000Z</time>
      </trkpt>
      <trkpt lat="44.67939" lon="5.87066">
        <ele>1313.404009</ele>
        <time>2025-07-10T08:17:29.000Z</time>
      </trkpt>
      <trkpt lat="44.67943" lon="5.87072">
        <ele>1313.079348</ele>
        <time>2025-07-10T08:17:30.000Z</time>
      </trkpt>
      <trkpt lat="44.67946" lon="5.87078">
        <ele>1312.735314</ele>
        <time>2025-07-10T08:17:31.000Z</time>
      </trkpt>
      <trkpt lat="44.67949" lon="5.87084">
        <ele>1312.372915</ele>
        <time>2025-07-10T08:17:32.000Z</time>
      </trkpt>
      <trkpt lat="44.67954" lon="5.8709">
        <ele>1311.98529</ele>
        <time>2025-07-10T08:17:33.000Z</time>
      </trkpt>
      <trkpt lat="44.67958" lon="5.87097">
        <ele>1311.606476</ele>
        <time>2025-07-10T08:17:34.000Z</time>
      </trkpt>
      <trkpt lat="44.67963" lon="5.87103">
        <ele>1311.209021</ele>
        <time>2025-07-10T08:17:35.000Z</time>
      </trkpt>
      <trkpt lat="44.67969" lon="5.87109">
        <ele>1310.791403</ele>
        <time>2025-07-10T08:17:36.000Z</time>
      </trkpt>
      <trkpt lat="44.67975" lon="5.87115">
        <ele>1310.352525</ele>
        <time>2025-07-10T08:17:37.000Z</time>
      </trkpt>
      <trkpt lat="44.67982" lon="5.87121">
        <ele>1309.891444</ele>
        <time>2025-07-10T08:17:38.000Z</time>
      </trkpt>
      <trkpt lat="44.67989" lon="5.87126">
        <ele>1309.419644</ele>
        <time>2025-07-10T08:17:39.000Z</time>
      </trkpt>
      <trkpt lat="44.67996" lon="5.87132">
        <ele>1308.942442</ele>
        <time>2025-07-10T08:17:40.000Z</time>
      </trkpt>
      <trkpt lat="44.68003" lon="5.87137">
        <ele>1308.456142</ele>
        <time>2025-07-10T08:17:41.000Z</time>
      </trkpt>
      <trkpt lat="44.6801" lon="5.87143">
        <ele>1307.972045</ele>
        <time>2025-07-10T08:17:42.000Z</time>
      </trkpt>
      <trkpt lat="44.68017" lon="5.87149">
        <ele>1307.471411</ele>
        <time>2025-07-10T08:17:43.000Z</time>
      </trkpt>
      <trkpt lat="44.68025" lon="5.87155">
        <ele>1306.975837</ele>
        <time>2025-07-10T08:17:44.000Z</time>
      </trkpt>
      <trkpt lat="44.68032" lon="5.87161">
        <ele>1306.470125</ele>
        <time>2025-07-10T08:17:45.000Z</time>
      </trkpt>
      <trkpt lat="44.68039" lon="5.87167">
        <ele>1305.962281</ele>
        <time>2025-07-10T08:17:46.000Z</time>
      </trkpt>
      <trkpt lat="44.68047" lon="5.87174">
        <ele>1305.439163</ele>
        <time>2025-07-10T08:17:47.000Z</time>
      </trkpt>
      <trkpt lat="44.68055" lon="5.8718">
        <ele>1304.918116</ele>
        <time>2025-07-10T08:17:48.000Z</time>
      </trkpt>
      <trkpt lat="44.68063" lon="5.87186">
        <ele>1304.391924</ele>
        <time>2025-07-10T08:17:49.000Z</time>
      </trkpt>
      <trkpt lat="44.6807" lon="5.87192">
        <ele>1303.863682</ele>
        <time>2025-07-10T08:17:50.000Z</time>
      </trkpt>
      <trkpt lat="44.68078" lon="5.87198">
        <ele>1303.331265</ele>
        <time>2025-07-10T08:17:51.000Z</time>
      </trkpt>
      <trkpt lat="44.68086" lon="5.87205">
        <ele>1302.796723</ele>
        <time>2025-07-10T08:17:52.000Z</time>
      </trkpt>
      <trkpt lat="44.68094" lon="5.87211">
        <ele>1302.252004</ele>
        <time>2025-07-10T08:17:53.000Z</time>
      </trkpt>
      <trkpt lat="44.68102" lon="5.87218">
        <ele>1301.704238</ele>
        <time>2025-07-10T08:17:54.000Z</time>
      </trkpt>
      <trkpt lat="44.6811" lon="5.87224">
        <ele>1301.216479</ele>
        <time>2025-07-10T08:17:55.000Z</time>
      </trkpt>
      <trkpt lat="44.68119" lon="5.8723">
        <ele>1300.842349</ele>
        <time>2025-07-10T08:17:56.000Z</time>
      </trkpt>
      <trkpt lat="44.68127" lon="5.87237">
        <ele>1300.4647</ele>
        <time>2025-07-10T08:17:57.000Z</time>
      </trkpt>
      <trkpt lat="44.68135" lon="5.87243">
        <ele>1300.083893</ele>
        <time>2025-07-10T08:17:58.000Z</time>
      </trkpt>
      <trkpt lat="44.68144" lon="5.87249">
        <ele>1299.703086</ele>
        <time>2025-07-10T08:17:59.000Z</time>
      </trkpt>
      <trkpt lat="44.68152" lon="5.87254">
        <ele>1299.332082</ele>
        <time>2025-07-10T08:18:00.000Z</time>
      </trkpt>
      <trkpt lat="44.68161" lon="5.8726">
        <ele>1298.963445</ele>
        <time>2025-07-10T08:18:01.000Z</time>
      </trkpt>
      <trkpt lat="44.68169" lon="5.87265">
        <ele>1298.597271</ele>
        <time>2025-07-10T08:18:02.000Z</time>
      </trkpt>
      <trkpt lat="44.68177" lon="5.8727">
        <ele>1298.234728</ele>
        <time>2025-07-10T08:18:03.000Z</time>
      </trkpt>
      <trkpt lat="44.68185" lon="5.87276">
        <ele>1297.878209</ele>
        <time>2025-07-10T08:18:04.000Z</time>
      </trkpt>
      <trkpt lat="44.68193" lon="5.8728">
        <ele>1297.533632</ele>
        <time>2025-07-10T08:18:05.000Z</time>
      </trkpt>
      <trkpt lat="44.68201" lon="5.87285">
        <ele>1297.190405</ele>
        <time>2025-07-10T08:18:06.000Z</time>
      </trkpt>
      <trkpt lat="44.68209" lon="5.87291">
        <ele>1296.839749</ele>
        <time>2025-07-10T08:18:07.000Z</time>
      </trkpt>
      <trkpt lat="44.68216" lon="5.87297">
        <ele>1296.495661</ele>
        <time>2025-07-10T08:18:08.000Z</time>
      </trkpt>
      <trkpt lat="44.68223" lon="5.87303">
        <ele>1296.157994</ele>
        <time>2025-07-10T08:18:09.000Z</time>
      </trkpt>
      <trkpt lat="44.6823" lon="5.8731">
        <ele>1295.823801</ele>
        <time>2025-07-10T08:18:10.000Z</time>
      </trkpt>
      <trkpt lat="44.68237" lon="5.87318">
        <ele>1295.479822</ele>
        <time>2025-07-10T08:18:11.000Z</time>
      </trkpt>
      <trkpt lat="44.68243" lon="5.87327">
        <ele>1295.135122</ele>
        <time>2025-07-10T08:18:12.000Z</time>
      </trkpt>
      <trkpt lat="44.68249" lon="5.87335">
        <ele>1294.794895</ele>
        <time>2025-07-10T08:18:13.000Z</time>
      </trkpt>
      <trkpt lat="44.68254" lon="5.87344">
        <ele>1294.471968</ele>
        <time>2025-07-10T08:18:14.000Z</time>
      </trkpt>
      <trkpt lat="44.68258" lon="5.87353">
        <ele>1294.15631</ele>
        <time>2025-07-10T08:18:15.000Z</time>
      </trkpt>
      <trkpt lat="44.68263" lon="5.87362">
        <ele>1293.857876</ele>
        <time>2025-07-10T08:18:16.000Z</time>
      </trkpt>
      <trkpt lat="44.68268" lon="5.8737">
        <ele>1293.563169</ele>
        <time>2025-07-10T08:18:17.000Z</time>
      </trkpt>
      <trkpt lat="44.68273" lon="5.87377">
        <ele>1293.276717</ele>
        <time>2025-07-10T08:18:18.000Z</time>
      </trkpt>
      <trkpt lat="44.6828" lon="5.87382">
        <ele>1292.984402</ele>
        <time>2025-07-10T08:18:19.000Z</time>
      </trkpt>
      <trkpt lat="44.68287" lon="5.87386">
        <ele>1292.687366</ele>
        <time>2025-07-10T08:18:20.000Z</time>
      </trkpt>
      <trkpt lat="44.68295" lon="5.87389">
        <ele>1292.386595</ele>
        <time>2025-07-10T08:18:21.000Z</time>
      </trkpt>
      <trkpt lat="44.68303" lon="5.87391">
        <ele>1292.08135</ele>
        <time>2025-07-10T08:18:22.000Z</time>
      </trkpt>
      <trkpt lat="44.6831" lon="5.87393">
        <ele>1291.776105</ele>
        <time>2025-07-10T08:18:23.000Z</time>
      </trkpt>
      <trkpt lat="44.68318" lon="5.87396">
        <ele>1291.470312</ele>
        <time>2025-07-10T08:18:24.000Z</time>
      </trkpt>
      <trkpt lat="44.68326" lon="5.87398">
        <ele>1291.161432</ele>
        <time>2025-07-10T08:18:25.000Z</time>
      </trkpt>
      <trkpt lat="44.68334" lon="5.87402">
        <ele>1290.848323</ele>
        <time>2025-07-10T08:18:26.000Z</time>
      </trkpt>
      <trkpt lat="44.68342" lon="5.87407">
        <ele>1290.520539</ele>
        <time>2025-07-10T08:18:27.000Z</time>
      </trkpt>
      <trkpt lat="44.68349" lon="5.87413">
        <ele>1290.181446</ele>
        <time>2025-07-10T08:18:28.000Z</time>
      </trkpt>
      <trkpt lat="44.68357" lon="5.8742">
        <ele>1289.844847</ele>
        <time>2025-07-10T08:18:29.000Z</time>
      </trkpt>
      <trkpt lat="44.68364" lon="5.87426">
        <ele>1289.506354</ele>
        <time>2025-07-10T08:18:30.000Z</time>
      </trkpt>
      <trkpt lat="44.68372" lon="5.87432">
        <ele>1289.17327</ele>
        <time>2025-07-10T08:18:31.000Z</time>
      </trkpt>
      <trkpt lat="44.6838" lon="5.87437">
        <ele>1288.844338</ele>
        <time>2025-07-10T08:18:32.000Z</time>
      </trkpt>
      <trkpt lat="44.68387" lon="5.87442">
        <ele>1288.52117</ele>
        <time>2025-07-10T08:18:33.000Z</time>
      </trkpt>
      <trkpt lat="44.68395" lon="5.87446">
        <ele>1288.201666</ele>
        <time>2025-07-10T08:18:34.000Z</time>
      </trkpt>
      <trkpt lat="44.68403" lon="5.8745">
        <ele>1287.879377</ele>
        <time>2025-07-10T08:18:35.000Z</time>
      </trkpt>
      <trkpt lat="44.68411" lon="5.87453">
        <ele>1287.559488</ele>
        <time>2025-07-10T08:18:36.000Z</time>
      </trkpt>
      <trkpt lat="44.68419" lon="5.87456">
        <ele>1287.230397</ele>
        <time>2025-07-10T08:18:37.000Z</time>
      </trkpt>
      <trkpt lat="44.68427" lon="5.8746">
        <ele>1286.902727</ele>
        <time>2025-07-10T08:18:38.000Z</time>
      </trkpt>
      <trkpt lat="44.68435" lon="5.87464">
        <ele>1286.573287</ele>
        <time>2025-07-10T08:18:39.000Z</time>
      </trkpt>
      <trkpt lat="44.68443" lon="5.87468">
        <ele>1286.244742</ele>
        <time>2025-07-10T08:18:40.000Z</time>
      </trkpt>
      <trkpt lat="44.68451" lon="5.87472">
        <ele>1285.918976</ele>
        <time>2025-07-10T08:18:41.000Z</time>
      </trkpt>
      <trkpt lat="44.68459" lon="5.87476">
        <ele>1285.584024</ele>
        <time>2025-07-10T08:18:42.000Z</time>
      </trkpt>
      <trkpt lat="44.68467" lon="5.8748">
        <ele>1285.256384</ele>
        <time>2025-07-10T08:18:43.000Z</time>
      </trkpt>
      <trkpt lat="44.68475" lon="5.87484">
        <ele>1284.932391</ele>
        <time>2025-07-10T08:18:44.000Z</time>
      </trkpt>
      <trkpt lat="44.68483" lon="5.87488">
        <ele>1284.609356</ele>
        <time>2025-07-10T08:18:45.000Z</time>
      </trkpt>
      <trkpt lat="44.68491" lon="5.87492">
        <ele>1284.288175</ele>
        <time>2025-07-10T08:18:46.000Z</time>
      </trkpt>
      <trkpt lat="44.68499" lon="5.87495">
        <ele>1283.965062</ele>
        <time>2025-07-10T08:18:47.000Z</time>
      </trkpt>
      <trkpt lat="44.68506" lon="5.87499">
        <ele>1283.644776</ele>
        <time>2025-07-10T08:18:48.000Z</time>
      </trkpt>
      <trkpt lat="44.68514" lon="5.87503">
        <ele>1283.328174</ele>
        <time>2025-07-10T08:18:49.000Z</time>
      </trkpt>
      <trkpt lat="44.68522" lon="5.87506">
        <ele>1283.016145</ele>
        <time>2025-07-10T08:18:50.000Z</time>
      </trkpt>
      <trkpt lat="44.68529" lon="5.8751">
        <ele>1282.704989</ele>
        <time>2025-07-10T08:18:51.000Z</time>
      </trkpt>
      <trkpt lat="44.68537" lon="5.87514">
        <ele>1282.39296</ele>
        <time>2025-07-10T08:18:52.000Z</time>
      </trkpt>
      <trkpt lat="44.68544" lon="5.87517">
        <ele>1282.083712</ele>
        <time>2025-07-10T08:18:53.000Z</time>
      </trkpt>
      <trkpt lat="44.68552" lon="5.87521">
        <ele>1281.769874</ele>
        <time>2025-07-10T08:18:54.000Z</time>
      </trkpt>
      <trkpt lat="44.68559" lon="5.87525">
        <ele>1281.455776</ele>
        <time>2025-07-10T08:18:55.000Z</time>
      </trkpt>
      <trkpt lat="44.68567" lon="5.8753">
        <ele>1281.137537</ele>
        <time>2025-07-10T08:18:56.000Z</time>
      </trkpt>
      <trkpt lat="44.68574" lon="5.87536">
        <ele>1280.816064</ele>
        <time>2025-07-10T08:18:57.000Z</time>
      </trkpt>
      <trkpt lat="44.68581" lon="5.87542">
        <ele>1280.500754</ele>
        <time>2025-07-10T08:18:58.000Z</time>
      </trkpt>
      <trkpt lat="44.68587" lon="5.87549">
        <ele>1280.213717</ele>
        <time>2025-07-10T08:18:59.000Z</time>
      </trkpt>
      <trkpt lat="44.68594" lon="5.87556">
        <ele>1280.037647</ele>
        <time>2025-07-10T08:19:00.000Z</time>
      </trkpt>
      <trkpt lat="44.686" lon="5.87564">
        <ele>1279.859119</ele>
        <time>2025-07-10T08:19:01.000Z</time>
      </trkpt>
      <trkpt lat="44.68605" lon="5.87571">
        <ele>1279.686413</ele>
        <time>2025-07-10T08:19:02.000Z</time>
      </trkpt>
      <trkpt lat="44.68612" lon="5.87577">
        <ele>1279.515438</ele>
        <time>2025-07-10T08:19:03.000Z</time>
      </trkpt>
      <trkpt lat="44.68618" lon="5.87583">
        <ele>1279.347216</ele>
        <time>2025-07-10T08:19:04.000Z</time>
      </trkpt>
      <trkpt lat="44.68624" lon="5.87589">
        <ele>1279.178682</ele>
        <time>2025-07-10T08:19:05.000Z</time>
      </trkpt>
      <trkpt lat="44.68631" lon="5.87594">
        <ele>1279.012434</ele>
        <time>2025-07-10T08:19:06.000Z</time>
      </trkpt>
      <trkpt lat="44.68638" lon="5.87598">
        <ele>1278.848227</ele>
        <time>2025-07-10T08:19:07.000Z</time>
      </trkpt>
      <trkpt lat="44.68645" lon="5.87602">
        <ele>1278.68402</ele>
        <time>2025-07-10T08:19:08.000Z</time>
      </trkpt>
      <trkpt lat="44.68651" lon="5.87606">
        <ele>1278.525201</ele>
        <time>2025-07-10T08:19:09.000Z</time>
      </trkpt>
      <trkpt lat="44.68658" lon="5.8761">
        <ele>1278.371719</ele>
        <time>2025-07-10T08:19:10.000Z</time>
      </trkpt>
      <trkpt lat="44.68664" lon="5.87615">
        <ele>1278.22024</ele>
        <time>2025-07-10T08:19:11.000Z</time>
      </trkpt>
      <trkpt lat="44.6867" lon="5.87618">
        <ele>1278.066644</ele>
        <time>2025-07-10T08:19:12.000Z</time>
      </trkpt>
      <trkpt lat="44.68677" lon="5.87622">
        <ele>1277.913311</ele>
        <time>2025-07-10T08:19:13.000Z</time>
      </trkpt>
      <trkpt lat="44.68683" lon="5.87625">
        <ele>1277.759978</ele>
        <time>2025-07-10T08:19:14.000Z</time>
      </trkpt>
      <trkpt lat="44.6869" lon="5.87629">
        <ele>1277.606645</ele>
        <time>2025-07-10T08:19:15.000Z</time>
      </trkpt>
      <trkpt lat="44.68696" lon="5.87632">
        <ele>1277.452189</ele>
        <time>2025-07-10T08:19:16.000Z</time>
      </trkpt>
      <trkpt lat="44.68702" lon="5.87636">
        <ele>1277.301239</ele>
        <time>2025-07-10T08:19:17.000Z</time>
      </trkpt>
      <trkpt lat="44.68709" lon="5.8764">
        <ele>1277.151759</ele>
        <time>2025-07-10T08:19:18.000Z</time>
      </trkpt>
      <trkpt lat="44.68715" lon="5.87644">
        <ele>1277.00295</ele>
        <time>2025-07-10T08:19:19.000Z</time>
      </trkpt>
      <trkpt lat="44.68721" lon="5.87648">
        <ele>1276.854061</ele>
        <time>2025-07-10T08:19:20.000Z</time>
      </trkpt>
      <trkpt lat="44.68726" lon="5.87653">
        <ele>1276.709538</ele>
        <time>2025-07-10T08:19:21.000Z</time>
      </trkpt>
      <trkpt lat="44.68732" lon="5.87657">
        <ele>1276.565353</ele>
        <time>2025-07-10T08:19:22.000Z</time>
      </trkpt>
      <trkpt lat="44.68737" lon="5.87662">
        <ele>1276.424948</ele>
        <time>2025-07-10T08:19:23.000Z</time>
      </trkpt>
      <trkpt lat="44.68743" lon="5.87667">
        <ele>1276.285574</ele>
        <time>2025-07-10T08:19:24.000Z</time>
      </trkpt>
      <trkpt lat="44.68748" lon="5.87672">
        <ele>1276.084792</ele>
        <time>2025-07-10T08:19:25.000Z</time>
      </trkpt>
      <trkpt lat="44.68753" lon="5.87676">
        <ele>1275.884509</ele>
        <time>2025-07-10T08:19:26.000Z</time>
      </trkpt>
      <trkpt lat="44.68758" lon="5.87681">
        <ele>1275.682874</ele>
        <time>2025-07-10T08:19:27.000Z</time>
      </trkpt>
      <trkpt lat="44.68762" lon="5.87685">
        <ele>1275.483923</ele>
        <time>2025-07-10T08:19:28.000Z</time>
      </trkpt>
      <trkpt lat="44.68767" lon="5.8769">
        <ele>1275.290629</ele>
        <time>2025-07-10T08:19:29.000Z</time>
      </trkpt>
      <trkpt lat="44.68772" lon="5.87694">
        <ele>1275.099708</ele>
        <time>2025-07-10T08:19:30.000Z</time>
      </trkpt>
      <trkpt lat="44.68777" lon="5.87698">
        <ele>1274.909093</ele>
        <time>2025-07-10T08:19:31.000Z</time>
      </trkpt>
      <trkpt lat="44.68781" lon="5.87702">
        <ele>1274.716907</ele>
        <time>2025-07-10T08:19:32.000Z</time>
      </trkpt>
      <trkpt lat="44.68786" lon="5.87707">
        <ele>1274.517956</ele>
        <time>2025-07-10T08:19:33.000Z</time>
      </trkpt>
      <trkpt lat="44.68791" lon="5.87712">
        <ele>1274.320491</ele>
        <time>2025-07-10T08:19:34.000Z</time>
      </trkpt>
      <trkpt lat="44.68796" lon="5.87717">
        <ele>1274.116094</ele>
        <time>2025-07-10T08:19:35.000Z</time>
      </trkpt>
      <trkpt lat="44.68801" lon="5.87721">
        <ele>1273.896041</ele>
        <time>2025-07-10T08:19:36.000Z</time>
      </trkpt>
      <trkpt lat="44.68807" lon="5.87726">
        <ele>1273.675568</ele>
        <time>2025-07-10T08:19:37.000Z</time>
      </trkpt>
      <trkpt lat="44.68813" lon="5.8773">
        <ele>1273.446632</ele>
        <time>2025-07-10T08:19:38.000Z</time>
      </trkpt>
      <trkpt lat="44.6882" lon="5.87735">
        <ele>1273.203447</ele>
        <time>2025-07-10T08:19:39.000Z</time>
      </trkpt>
      <trkpt lat="44.68826" lon="5.87738">
        <ele>1272.95693</ele>
        <time>2025-07-10T08:19:40.000Z</time>
      </trkpt>
      <trkpt lat="44.68833" lon="5.87742">
        <ele>1272.698723</ele>
        <time>2025-07-10T08:19:41.000Z</time>
      </trkpt>
      <trkpt lat="44.68841" lon="5.87744">
        <ele>1272.43281</ele>
        <time>2025-07-10T08:19:42.000Z</time>
      </trkpt>
      <trkpt lat="44.68849" lon="5.87746">
        <ele>1272.149872</ele>
        <time>2025-07-10T08:19:43.000Z</time>
      </trkpt>
      <trkpt lat="44.68858" lon="5.87749">
        <ele>1271.862727</ele>
        <time>2025-07-10T08:19:44.000Z</time>
      </trkpt>
      <trkpt lat="44.68866" lon="5.87751">
        <ele>1271.57348</ele>
        <time>2025-07-10T08:19:45.000Z</time>
      </trkpt>
      <trkpt lat="44.68875" lon="5.87752">
        <ele>1271.275185</ele>
        <time>2025-07-10T08:19:46.000Z</time>
      </trkpt>
      <trkpt lat="44.68883" lon="5.87754">
        <ele>1270.97132</ele>
        <time>2025-07-10T08:19:47.000Z</time>
      </trkpt>
      <trkpt lat="44.68892" lon="5.87758">
        <ele>1270.661693</ele>
        <time>2025-07-10T08:19:48.000Z</time>
      </trkpt>
      <trkpt lat="44.68901" lon="5.87762">
        <ele>1270.353746</ele>
        <time>2025-07-10T08:19:49.000Z</time>
      </trkpt>
      <trkpt lat="44.68909" lon="5.87766">
        <ele>1270.0009</ele>
        <time>2025-07-10T08:19:50.000Z</time>
      </trkpt>
      <trkpt lat="44.68917" lon="5.8777">
        <ele>1269.550323</ele>
        <time>2025-07-10T08:19:51.000Z</time>
      </trkpt>
      <trkpt lat="44.68925" lon="5.87775">
        <ele>1269.100703</ele>
        <time>2025-07-10T08:19:52.000Z</time>
      </trkpt>
      <trkpt lat="44.68933" lon="5.87781">
        <ele>1268.663461</ele>
        <time>2025-07-10T08:19:53.000Z</time>
      </trkpt>
      <trkpt lat="44.68941" lon="5.87786">
        <ele>1268.227596</ele>
        <time>2025-07-10T08:19:54.000Z</time>
      </trkpt>
      <trkpt lat="44.68948" lon="5.87792">
        <ele>1267.777641</ele>
        <time>2025-07-10T08:19:55.000Z</time>
      </trkpt>
      <trkpt lat="44.68956" lon="5.87797">
        <ele>1267.327685</ele>
        <time>2025-07-10T08:19:56.000Z</time>
      </trkpt>
      <trkpt lat="44.68964" lon="5.87803">
        <ele>1266.877078</ele>
        <time>2025-07-10T08:19:57.000Z</time>
      </trkpt>
      <trkpt lat="44.68971" lon="5.8781">
        <ele>1266.429901</ele>
        <time>2025-07-10T08:19:58.000Z</time>
      </trkpt>
      <trkpt lat="44.68979" lon="5.87816">
        <ele>1265.978322</ele>
        <time>2025-07-10T08:19:59.000Z</time>
      </trkpt>
      <trkpt lat="44.68987" lon="5.87822">
        <ele>1265.529268</ele>
        <time>2025-07-10T08:20:00.000Z</time>
      </trkpt>
      <trkpt lat="44.68994" lon="5.87829">
        <ele>1265.076397</ele>
        <time>2025-07-10T08:20:01.000Z</time>
      </trkpt>
      <trkpt lat="44.69002" lon="5.87835">
        <ele>1264.62922</ele>
        <time>2025-07-10T08:20:02.000Z</time>
      </trkpt>
      <trkpt lat="44.69009" lon="5.87841">
        <ele>1264.185731</ele>
        <time>2025-07-10T08:20:03.000Z</time>
      </trkpt>
      <trkpt lat="44.69017" lon="5.87847">
        <ele>1263.742243</ele>
        <time>2025-07-10T08:20:04.000Z</time>
      </trkpt>
      <trkpt lat="44.69024" lon="5.87854">
        <ele>1263.303179</ele>
        <time>2025-07-10T08:20:05.000Z</time>
      </trkpt>
      <trkpt lat="44.69031" lon="5.8786">
        <ele>1262.864761</ele>
        <time>2025-07-10T08:20:06.000Z</time>
      </trkpt>
      <trkpt lat="44.69039" lon="5.87866">
        <ele>1262.428236</ele>
        <time>2025-07-10T08:20:07.000Z</time>
      </trkpt>
      <trkpt lat="44.69046" lon="5.87872">
        <ele>1261.993581</ele>
        <time>2025-07-10T08:20:08.000Z</time>
      </trkpt>
      <trkpt lat="44.69053" lon="5.87878">
        <ele>1261.550093</ele>
        <time>2025-07-10T08:20:09.000Z</time>
      </trkpt>
      <trkpt lat="44.69061" lon="5.87884">
        <ele>1261.106606</ele>
        <time>2025-07-10T08:20:10.000Z</time>
      </trkpt>
      <trkpt lat="44.69068" lon="5.8789">
        <ele>1260.80967</ele>
        <time>2025-07-10T08:20:11.000Z</time>
      </trkpt>
      <trkpt lat="44.69076" lon="5.87896">
        <ele>1260.59174</ele>
        <time>2025-07-10T08:20:12.000Z</time>
      </trkpt>
      <trkpt lat="44.69084" lon="5.87902">
        <ele>1260.369333</ele>
        <time>2025-07-10T08:20:13.000Z</time>
      </trkpt>
      <trkpt lat="44.69092" lon="5.87907">
        <ele>1260.149974</ele>
        <time>2025-07-10T08:20:14.000Z</time>
      </trkpt>
      <trkpt lat="44.691" lon="5.87913">
        <ele>1259.932045</ele>
        <time>2025-07-10T08:20:15.000Z</time>
      </trkpt>
      <trkpt lat="44.69107" lon="5.87918">
        <ele>1259.713289</ele>
        <time>2025-07-10T08:20:16.000Z</time>
      </trkpt>
      <trkpt lat="44.69115" lon="5.87924">
        <ele>1259.492846</ele>
        <time>2025-07-10T08:20:17.000Z</time>
      </trkpt>
      <trkpt lat="44.69122" lon="5.8793">
        <ele>1259.275038</ele>
        <time>2025-07-10T08:20:18.000Z</time>
      </trkpt>
      <trkpt lat="44.6913" lon="5.87937">
        <ele>1259.056869</ele>
        <time>2025-07-10T08:20:19.000Z</time>
      </trkpt>
      <trkpt lat="44.69137" lon="5.87944">
        <ele>1258.842913</ele>
        <time>2025-07-10T08:20:20.000Z</time>
      </trkpt>
      <trkpt lat="44.69144" lon="5.8795">
        <ele>1258.634187</ele>
        <time>2025-07-10T08:20:21.000Z</time>
      </trkpt>
      <trkpt lat="44.6915" lon="5.87957">
        <ele>1258.433615</ele>
        <time>2025-07-10T08:20:22.000Z</time>
      </trkpt>
      <trkpt lat="44.69156" lon="5.87964">
        <ele>1258.236127</ele>
        <time>2025-07-10T08:20:23.000Z</time>
      </trkpt>
      <trkpt lat="44.69163" lon="5.8797">
        <ele>1258.03974</ele>
        <time>2025-07-10T08:20:24.000Z</time>
      </trkpt>
      <trkpt lat="44.69169" lon="5.87976">
        <ele>1257.850535</ele>
        <time>2025-07-10T08:20:25.000Z</time>
      </trkpt>
      <trkpt lat="44.69175" lon="5.87982">
        <ele>1257.669531</ele>
        <time>2025-07-10T08:20:26.000Z</time>
      </trkpt>
      <trkpt lat="44.6918" lon="5.87988">
        <ele>1257.49363</ele>
        <time>2025-07-10T08:20:27.000Z</time>
      </trkpt>
      <trkpt lat="44.69186" lon="5.87994">
        <ele>1257.320813</ele>
        <time>2025-07-10T08:20:28.000Z</time>
      </trkpt>
      <trkpt lat="44.69191" lon="5.87999">
        <ele>1257.154163</ele>
        <time>2025-07-10T08:20:29.000Z</time>
      </trkpt>
      <trkpt lat="44.69196" lon="5.88005">
        <ele>1256.987513</ele>
        <time>2025-07-10T08:20:30.000Z</time>
      </trkpt>
      <trkpt lat="44.69201" lon="5.8801">
        <ele>1256.82703</ele>
        <time>2025-07-10T08:20:31.000Z</time>
      </trkpt>
      <trkpt lat="44.69206" lon="5.88016">
        <ele>1256.671631</ele>
        <time>2025-07-10T08:20:32.000Z</time>
      </trkpt>
      <trkpt lat="44.69211" lon="5.88021">
        <ele>1256.524553</ele>
        <time>2025-07-10T08:20:33.000Z</time>
      </trkpt>
      <trkpt lat="44.69215" lon="5.88026">
        <ele>1256.432478</ele>
        <time>2025-07-10T08:20:34.000Z</time>
      </trkpt>
      <trkpt lat="44.6922" lon="5.88031">
        <ele>1256.43469</ele>
        <time>2025-07-10T08:20:35.000Z</time>
      </trkpt>
      <trkpt lat="44.69224" lon="5.88035">
        <ele>1256.436883</ele>
        <time>2025-07-10T08:20:36.000Z</time>
      </trkpt>
      <trkpt lat="44.69228" lon="5.8804">
        <ele>1256.43898</ele>
        <time>2025-07-10T08:20:37.000Z</time>
      </trkpt>
      <trkpt lat="44.69232" lon="5.88045">
        <ele>1256.441072</ele>
        <time>2025-07-10T08:20:38.000Z</time>
      </trkpt>
      <trkpt lat="44.69236" lon="5.8805">
        <ele>1256.443205</ele>
        <time>2025-07-10T08:20:39.000Z</time>
      </trkpt>
      <trkpt lat="44.6924" lon="5.88055">
        <ele>1256.445289</ele>
        <time>2025-07-10T08:20:40.000Z</time>
      </trkpt>
      <trkpt lat="44.69244" lon="5.88059">
        <ele>1256.447337</ele>
        <time>2025-07-10T08:20:41.000Z</time>
      </trkpt>
      <trkpt lat="44.69248" lon="5.88064">
        <ele>1256.449367</ele>
        <time>2025-07-10T08:20:42.000Z</time>
      </trkpt>
      <trkpt lat="44.69252" lon="5.88069">
        <ele>1256.451385</ele>
        <time>2025-07-10T08:20:43.000Z</time>
      </trkpt>
      <trkpt lat="44.69256" lon="5.88073">
        <ele>1256.453385</ele>
        <time>2025-07-10T08:20:44.000Z</time>
      </trkpt>
      <trkpt lat="44.6926" lon="5.88077">
        <ele>1256.455398</ele>
        <time>2025-07-10T08:20:45.000Z</time>
      </trkpt>
      <trkpt lat="44.69264" lon="5.88082">
        <ele>1256.457459</ele>
        <time>2025-07-10T08:20:46.000Z</time>
      </trkpt>
      <trkpt lat="44.69268" lon="5.88086">
        <ele>1256.459487</ele>
        <time>2025-07-10T08:20:47.000Z</time>
      </trkpt>
      <trkpt lat="44.69272" lon="5.8809">
        <ele>1256.461482</ele>
        <time>2025-07-10T08:20:48.000Z</time>
      </trkpt>
      <trkpt lat="44.69277" lon="5.88094">
        <ele>1256.463528</ele>
        <time>2025-07-10T08:20:49.000Z</time>
      </trkpt>
      <trkpt lat="44.69281" lon="5.88098">
        <ele>1256.465546</ele>
        <time>2025-07-10T08:20:50.000Z</time>
      </trkpt>
      <trkpt lat="44.69285" lon="5.88101">
        <ele>1256.467526</ele>
        <time>2025-07-10T08:20:51.000Z</time>
      </trkpt>
      <trkpt lat="44.6929" lon="5.88105">
        <ele>1256.46953</ele>
        <time>2025-07-10T08:20:52.000Z</time>
      </trkpt>
      <trkpt lat="44.69294" lon="5.88108">
        <ele>1256.471582</ele>
        <time>2025-07-10T08:20:53.000Z</time>
      </trkpt>
      <trkpt lat="44.69299" lon="5.88112">
        <ele>1256.473634</ele>
        <time>2025-07-10T08:20:54.000Z</time>
      </trkpt>
      <trkpt lat="44.69303" lon="5.88115">
        <ele>1256.475659</ele>
        <time>2025-07-10T08:20:55.000Z</time>
      </trkpt>
      <trkpt lat="44.69308" lon="5.88119">
        <ele>1256.477601</ele>
        <time>2025-07-10T08:20:56.000Z</time>
      </trkpt>
      <trkpt lat="44.69312" lon="5.88122">
        <ele>1256.479481</ele>
        <time>2025-07-10T08:20:57.000Z</time>
      </trkpt>
      <trkpt lat="44.69316" lon="5.88125">
        <ele>1256.481326</ele>
        <time>2025-07-10T08:20:58.000Z</time>
      </trkpt>
      <trkpt lat="44.6932" lon="5.88128">
        <ele>1256.48322</ele>
        <time>2025-07-10T08:20:59.000Z</time>
      </trkpt>
      <trkpt lat="44.69324" lon="5.88132">
        <ele>1256.485072</ele>
        <time>2025-07-10T08:21:00.000Z</time>
      </trkpt>
      <trkpt lat="44.69328" lon="5.88135">
        <ele>1256.486959</ele>
        <time>2025-07-10T08:21:01.000Z</time>
      </trkpt>
      <trkpt lat="44.69332" lon="5.88138">
        <ele>1256.488862</ele>
        <time>2025-07-10T08:21:02.000Z</time>
      </trkpt>
      <trkpt lat="44.69337" lon="5.88141">
        <ele>1256.490849</ele>
        <time>2025-07-10T08:21:03.000Z</time>
      </trkpt>
      <trkpt lat="44.69341" lon="5.88145">
        <ele>1256.492795</ele>
        <time>2025-07-10T08:21:04.000Z</time>
      </trkpt>
      <trkpt lat="44.69345" lon="5.88149">
        <ele>1256.494694</ele>
        <time>2025-07-10T08:21:05.000Z</time>
      </trkpt>
      <trkpt lat="44.69349" lon="5.88152">
        <ele>1256.496658</ele>
        <time>2025-07-10T08:21:06.000Z</time>
      </trkpt>
      <trkpt lat="44.69353" lon="5.88156">
        <ele>1256.498614</ele>
        <time>2025-07-10T08:21:07.000Z</time>
      </trkpt>
      <trkpt lat="44.69358" lon="5.88159">
        <ele>1256.500433</ele>
        <time>2025-07-10T08:21:08.000Z</time>
      </trkpt>
      <trkpt lat="44.69362" lon="5.88161">
        <ele>1256.502325</ele>
        <time>2025-07-10T08:21:09.000Z</time>
      </trkpt>
      <trkpt lat="44.69366" lon="5.88163">
        <ele>1256.391479</ele>
        <time>2025-07-10T08:21:10.000Z</time>
      </trkpt>
      <trkpt lat="44.69371" lon="5.88165">
        <ele>1256.22317</ele>
        <time>2025-07-10T08:21:11.000Z</time>
      </trkpt>
      <trkpt lat="44.69375" lon="5.88168">
        <ele>1256.05246</ele>
        <time>2025-07-10T08:21:12.000Z</time>
      </trkpt>
      <trkpt lat="44.69379" lon="5.88171">
        <ele>1255.870247</ele>
        <time>2025-07-10T08:21:13.000Z</time>
      </trkpt>
      <trkpt lat="44.69384" lon="5.88173">
        <ele>1255.681359</ele>
        <time>2025-07-10T08:21:14.000Z</time>
      </trkpt>
      <trkpt lat="44.69389" lon="5.88174">
        <ele>1255.491013</ele>
        <time>2025-07-10T08:21:15.000Z</time>
      </trkpt>
      <trkpt lat="44.69394" lon="5.88176">
        <ele>1255.302667</ele>
        <time>2025-07-10T08:21:16.000Z</time>
      </trkpt>
      <trkpt lat="44.69399" lon="5.88177">
        <ele>1255.108029</ele>
        <time>2025-07-10T08:21:17.000Z</time>
      </trkpt>
      <trkpt lat="44.69403" lon="5.8818">
        <ele>1254.918834</ele>
        <time>2025-07-10T08:21:18.000Z</time>
      </trkpt>
      <trkpt lat="44.69408" lon="5.88184">
        <ele>1254.709766</ele>
        <time>2025-07-10T08:21:19.000Z</time>
      </trkpt>
      <trkpt lat="44.69412" lon="5.88188">
        <ele>1254.510911</ele>
        <time>2025-07-10T08:21:20.000Z</time>
      </trkpt>
      <trkpt lat="44.69416" lon="5.88192">
        <ele>1254.310155</ele>
        <time>2025-07-10T08:21:21.000Z</time>
      </trkpt>
      <trkpt lat="44.69421" lon="5.88197">
        <ele>1254.105102</ele>
        <time>2025-07-10T08:21:22.000Z</time>
      </trkpt>
      <trkpt lat="44.69425" lon="5.88202">
        <ele>1253.901389</ele>
        <time>2025-07-10T08:21:23.000Z</time>
      </trkpt>
      <trkpt lat="44.69429" lon="5.88206">
        <ele>1253.691682</ele>
        <time>2025-07-10T08:21:24.000Z</time>
      </trkpt>
      <trkpt lat="44.69434" lon="5.88211">
        <ele>1253.466374</ele>
        <time>2025-07-10T08:21:25.000Z</time>
      </trkpt>
      <trkpt lat="44.6944" lon="5.88215">
        <ele>1253.227531</ele>
        <time>2025-07-10T08:21:26.000Z</time>
      </trkpt>
      <trkpt lat="44.69445" lon="5.88219">
        <ele>1252.994942</ele>
        <time>2025-07-10T08:21:27.000Z</time>
      </trkpt>
      <trkpt lat="44.69452" lon="5.88222">
        <ele>1252.740697</ele>
        <time>2025-07-10T08:21:28.000Z</time>
      </trkpt>
      <trkpt lat="44.69458" lon="5.88225">
        <ele>1252.472977</ele>
        <time>2025-07-10T08:21:29.000Z</time>
      </trkpt>
      <trkpt lat="44.69465" lon="5.88228">
        <ele>1252.206088</ele>
        <time>2025-07-10T08:21:30.000Z</time>
      </trkpt>
      <trkpt lat="44.69473" lon="5.88231">
        <ele>1251.912888</ele>
        <time>2025-07-10T08:21:31.000Z</time>
      </trkpt>
      <trkpt lat="44.6948" lon="5.88233">
        <ele>1251.607202</ele>
        <time>2025-07-10T08:21:32.000Z</time>
      </trkpt>
      <trkpt lat="44.69489" lon="5.88234">
        <ele>1251.278587</ele>
        <time>2025-07-10T08:21:33.000Z</time>
      </trkpt>
      <trkpt lat="44.69498" lon="5.88235">
        <ele>1250.951871</ele>
        <time>2025-07-10T08:21:34.000Z</time>
      </trkpt>
      <trkpt lat="44.69507" lon="5.88234">
        <ele>1250.61366</ele>
        <time>2025-07-10T08:21:35.000Z</time>
      </trkpt>
      <trkpt lat="44.69516" lon="5.88234">
        <ele>1250.267981</ele>
        <time>2025-07-10T08:21:36.000Z</time>
      </trkpt>
      <trkpt lat="44.69525" lon="5.88234">
        <ele>1249.92635</ele>
        <time>2025-07-10T08:21:37.000Z</time>
      </trkpt>
      <trkpt lat="44.69534" lon="5.88236">
        <ele>1249.565449</ele>
        <time>2025-07-10T08:21:38.000Z</time>
      </trkpt>
      <trkpt lat="44.69542" lon="5.88239">
        <ele>1249.160105</ele>
        <time>2025-07-10T08:21:39.000Z</time>
      </trkpt>
      <trkpt lat="44.69549" lon="5.88241">
        <ele>1248.822248</ele>
        <time>2025-07-10T08:21:40.000Z</time>
      </trkpt>
      <trkpt lat="44.69555" lon="5.8824">
        <ele>1248.530249</ele>
        <time>2025-07-10T08:21:41.000Z</time>
      </trkpt>
      <trkpt lat="44.6956" lon="5.88236">
        <ele>1248.273222</ele>
        <time>2025-07-10T08:21:42.000Z</time>
      </trkpt>
      <trkpt lat="44.69561" lon="5.88228">
        <ele>1248.004929</ele>
        <time>2025-07-10T08:21:43.000Z</time>
      </trkpt>
      <trkpt lat="44.69559" lon="5.8822">
        <ele>1247.730136</ele>
        <time>2025-07-10T08:21:44.000Z</time>
      </trkpt>
      <trkpt lat="44.69553" lon="5.88215">
        <ele>1247.429897</ele>
        <time>2025-07-10T08:21:45.000Z</time>
      </trkpt>
      <trkpt lat="44.69547" lon="5.88212">
        <ele>1247.110906</ele>
        <time>2025-07-10T08:21:46.000Z</time>
      </trkpt>
      <trkpt lat="44.6954" lon="5.88208">
        <ele>1246.778855</ele>
        <time>2025-07-10T08:21:47.000Z</time>
      </trkpt>
      <trkpt lat="44.69533" lon="5.88203">
        <ele>1246.434363</ele>
        <time>2025-07-10T08:21:48.000Z</time>
      </trkpt>
      <trkpt lat="44.69528" lon="5.88196">
        <ele>1246.085087</ele>
        <time>2025-07-10T08:21:49.000Z</time>
      </trkpt>
      <trkpt lat="44.69523" lon="5.88188">
        <ele>1245.731431</ele>
        <time>2025-07-10T08:21:50.000Z</time>
      </trkpt>
      <trkpt lat="44.69519" lon="5.88179">
        <ele>1245.372645</ele>
        <time>2025-07-10T08:21:51.000Z</time>
      </trkpt>
      <trkpt lat="44.69514" lon="5.88169">
        <ele>1245.00832</ele>
        <time>2025-07-10T08:21:52.000Z</time>
      </trkpt>
      <trkpt lat="44.6951" lon="5.8816">
        <ele>1244.646769</ele>
        <time>2025-07-10T08:21:53.000Z</time>
      </trkpt>
      <trkpt lat="44.69506" lon="5.88151">
        <ele>1244.293652</ele>
        <time>2025-07-10T08:21:54.000Z</time>
      </trkpt>
      <trkpt lat="44.69501" lon="5.88142">
        <ele>1243.932512</ele>
        <time>2025-07-10T08:21:55.000Z</time>
      </trkpt>
      <trkpt lat="44.69497" lon="5.88133">
        <ele>1243.57121</ele>
        <time>2025-07-10T08:21:56.000Z</time>
      </trkpt>
      <trkpt lat="44.69494" lon="5.88123">
        <ele>1243.209229</ele>
        <time>2025-07-10T08:21:57.000Z</time>
      </trkpt>
      <trkpt lat="44.69492" lon="5.88113">
        <ele>1242.857989</ele>
        <time>2025-07-10T08:21:58.000Z</time>
      </trkpt>
      <trkpt lat="44.69493" lon="5.88103">
        <ele>1242.540529</ele>
        <time>2025-07-10T08:21:59.000Z</time>
      </trkpt>
      <trkpt lat="44.69497" lon="5.88097">
        <ele>1242.245999</ele>
        <time>2025-07-10T08:22:00.000Z</time>
      </trkpt>
      <trkpt lat="44.69503" lon="5.88094">
        <ele>1241.964997</ele>
        <time>2025-07-10T08:22:01.000Z</time>
      </trkpt>
      <trkpt lat="44.6951" lon="5.88094">
        <ele>1241.67418</ele>
        <time>2025-07-10T08:22:02.000Z</time>
      </trkpt>
      <trkpt lat="44.69516" lon="5.88095">
        <ele>1241.387302</ele>
        <time>2025-07-10T08:22:03.000Z</time>
      </trkpt>
      <trkpt lat="44.69522" lon="5.88095">
        <ele>1241.259118</ele>
        <time>2025-07-10T08:22:04.000Z</time>
      </trkpt>
      <trkpt lat="44.69528" lon="5.88096">
        <ele>1241.139044</ele>
        <time>2025-07-10T08:22:05.000Z</time>
      </trkpt>
      <trkpt lat="44.69534" lon="5.88097">
        <ele>1241.02306</ele>
        <time>2025-07-10T08:22:06.000Z</time>
      </trkpt>
      <trkpt lat="44.6954" lon="5.88097">
        <ele>1240.90744</ele>
        <time>2025-07-10T08:22:07.000Z</time>
      </trkpt>
      <trkpt lat="44.69546" lon="5.88098">
        <ele>1240.787875</ele>
        <time>2025-07-10T08:22:08.000Z</time>
      </trkpt>
      <trkpt lat="44.69553" lon="5.88098">
        <ele>1240.668364</ele>
        <time>2025-07-10T08:22:09.000Z</time>
      </trkpt>
      <trkpt lat="44.69559" lon="5.88098">
        <ele>1240.543144</ele>
        <time>2025-07-10T08:22:10.000Z</time>
      </trkpt>
      <trkpt lat="44.69566" lon="5.88098">
        <ele>1240.415991</ele>
        <time>2025-07-10T08:22:11.000Z</time>
      </trkpt>
      <trkpt lat="44.69573" lon="5.88097">
        <ele>1240.282953</ele>
        <time>2025-07-10T08:22:12.000Z</time>
      </trkpt>
      <trkpt lat="44.69579" lon="5.88097">
        <ele>1240.149774</ele>
        <time>2025-07-10T08:22:13.000Z</time>
      </trkpt>
      <trkpt lat="44.69586" lon="5.88096">
        <ele>1240.016736</ele>
        <time>2025-07-10T08:22:14.000Z</time>
      </trkpt>
      <trkpt lat="44.69593" lon="5.88096">
        <ele>1239.883804</ele>
        <time>2025-07-10T08:22:15.000Z</time>
      </trkpt>
      <trkpt lat="44.696" lon="5.88097">
        <ele>1239.746964</ele>
        <time>2025-07-10T08:22:16.000Z</time>
      </trkpt>
      <trkpt lat="44.69607" lon="5.88097">
        <ele>1239.612001</ele>
        <time>2025-07-10T08:22:17.000Z</time>
      </trkpt>
      <trkpt lat="44.69614" lon="5.88097">
        <ele>1239.477087</ele>
        <time>2025-07-10T08:22:18.000Z</time>
      </trkpt>
      <trkpt lat="44.69621" lon="5.88097">
        <ele>1239.340308</ele>
        <time>2025-07-10T08:22:19.000Z</time>
      </trkpt>
      <trkpt lat="44.69629" lon="5.88097">
        <ele>1239.201577</ele>
        <time>2025-07-10T08:22:20.000Z</time>
      </trkpt>
      <trkpt lat="44.69636" lon="5.88097">
        <ele>1239.064792</ele>
        <time>2025-07-10T08:22:21.000Z</time>
      </trkpt>
      <trkpt lat="44.69643" lon="5.88097">
        <ele>1238.929877</ele>
        <time>2025-07-10T08:22:22.000Z</time>
      </trkpt>
      <trkpt lat="44.6965" lon="5.88098">
        <ele>1238.794914</ele>
        <time>2025-07-10T08:22:23.000Z</time>
      </trkpt>
      <trkpt lat="44.69656" lon="5.88098">
        <ele>1238.667503</ele>
        <time>2025-07-10T08:22:24.000Z</time>
      </trkpt>
      <trkpt lat="44.69663" lon="5.88099">
        <ele>1238.539761</ele>
        <time>2025-07-10T08:22:25.000Z</time>
      </trkpt>
      <trkpt lat="44.69669" lon="5.88101">
        <ele>1238.413468</ele>
        <time>2025-07-10T08:22:26.000Z</time>
      </trkpt>
      <trkpt lat="44.69676" lon="5.88102">
        <ele>1238.289085</ele>
        <time>2025-07-10T08:22:27.000Z</time>
      </trkpt>
      <trkpt lat="44.69682" lon="5.88103">
        <ele>1238.167094</ele>
        <time>2025-07-10T08:22:28.000Z</time>
      </trkpt>
      <trkpt lat="44.69689" lon="5.88104">
        <ele>1238.04187</ele>
        <time>2025-07-10T08:22:29.000Z</time>
      </trkpt>
      <trkpt lat="44.69695" lon="5.88106">
        <ele>1237.914976</ele>
        <time>2025-07-10T08:22:30.000Z</time>
      </trkpt>
      <trkpt lat="44.69701" lon="5.88107">
        <ele>1237.808377</ele>
        <time>2025-07-10T08:22:31.000Z</time>
      </trkpt>
      <trkpt lat="44.69708" lon="5.88109">
        <ele>1237.700869</ele>
        <time>2025-07-10T08:22:32.000Z</time>
      </trkpt>
      <trkpt lat="44.69714" lon="5.88111">
        <ele>1237.59496</ele>
        <time>2025-07-10T08:22:33.000Z</time>
      </trkpt>
      <trkpt lat="44.69721" lon="5.88112">
        <ele>1237.487453</ele>
        <time>2025-07-10T08:22:34.000Z</time>
      </trkpt>
      <trkpt lat="44.69727" lon="5.88114">
        <ele>1237.379728</ele>
        <time>2025-07-10T08:22:35.000Z</time>
      </trkpt>
      <trkpt lat="44.69734" lon="5.88116">
        <ele>1237.275628</ele>
        <time>2025-07-10T08:22:36.000Z</time>
      </trkpt>
      <trkpt lat="44.6974" lon="5.88117">
        <ele>1237.172088</ele>
        <time>2025-07-10T08:22:37.000Z</time>
      </trkpt>
      <trkpt lat="44.69746" lon="5.88119">
        <ele>1237.069789</ele>
        <time>2025-07-10T08:22:38.000Z</time>
      </trkpt>
      <trkpt lat="44.69752" lon="5.8812">
        <ele>1236.968195</ele>
        <time>2025-07-10T08:22:39.000Z</time>
      </trkpt>
      <trkpt lat="44.69759" lon="5.88123">
        <ele>1236.861332</ele>
        <time>2025-07-10T08:22:40.000Z</time>
      </trkpt>
      <trkpt lat="44.69765" lon="5.88125">
        <ele>1236.755779</ele>
        <time>2025-07-10T08:22:41.000Z</time>
      </trkpt>
      <trkpt lat="44.69771" lon="5.88127">
        <ele>1236.651803</ele>
        <time>2025-07-10T08:22:42.000Z</time>
      </trkpt>
      <trkpt lat="44.69778" lon="5.88129">
        <ele>1236.544391</ele>
        <time>2025-07-10T08:22:43.000Z</time>
      </trkpt>
      <trkpt lat="44.69784" lon="5.88132">
        <ele>1236.43763</ele>
        <time>2025-07-10T08:22:44.000Z</time>
      </trkpt>
      <trkpt lat="44.6979" lon="5.88135">
        <ele>1236.331744</ele>
        <time>2025-07-10T08:22:45.000Z</time>
      </trkpt>
      <trkpt lat="44.69796" lon="5.88138">
        <ele>1236.231258</ele>
        <time>2025-07-10T08:22:46.000Z</time>
      </trkpt>
      <trkpt lat="44.69802" lon="5.88141">
        <ele>1236.129658</ele>
        <time>2025-07-10T08:22:47.000Z</time>
      </trkpt>
      <trkpt lat="44.69807" lon="5.88145">
        <ele>1236.028979</ele>
        <time>2025-07-10T08:22:48.000Z</time>
      </trkpt>
      <trkpt lat="44.69813" lon="5.8815">
        <ele>1235.92666</ele>
        <time>2025-07-10T08:22:49.000Z</time>
      </trkpt>
      <trkpt lat="44.69818" lon="5.88154">
        <ele>1235.827423</ele>
        <time>2025-07-10T08:22:50.000Z</time>
      </trkpt>
      <trkpt lat="44.69823" lon="5.88158">
        <ele>1235.727087</ele>
        <time>2025-07-10T08:22:51.000Z</time>
      </trkpt>
      <trkpt lat="44.69829" lon="5.88162">
        <ele>1235.627017</ele>
        <time>2025-07-10T08:22:52.000Z</time>
      </trkpt>
      <trkpt lat="44.69834" lon="5.88166">
        <ele>1235.528664</ele>
        <time>2025-07-10T08:22:53.000Z</time>
      </trkpt>
      <trkpt lat="44.69839" lon="5.8817">
        <ele>1235.430862</ele>
        <time>2025-07-10T08:22:54.000Z</time>
      </trkpt>
      <trkpt lat="44.69845" lon="5.88174">
        <ele>1235.331946</ele>
        <time>2025-07-10T08:22:55.000Z</time>
      </trkpt>
      <trkpt lat="44.6985" lon="5.88179">
        <ele>1235.234444</ele>
        <time>2025-07-10T08:22:56.000Z</time>
      </trkpt>
      <trkpt lat="44.69855" lon="5.88183">
        <ele>1235.137513</ele>
        <time>2025-07-10T08:22:57.000Z</time>
      </trkpt>
      <trkpt lat="44.6986" lon="5.88187">
        <ele>1235.042817</ele>
        <time>2025-07-10T08:22:58.000Z</time>
      </trkpt>
      <trkpt lat="44.69865" lon="5.88191">
        <ele>1234.953218</ele>
        <time>2025-07-10T08:22:59.000Z</time>
      </trkpt>
      <trkpt lat="44.6987" lon="5.88195">
        <ele>1234.874014</ele>
        <time>2025-07-10T08:23:00.000Z</time>
      </trkpt>
      <trkpt lat="44.69875" lon="5.88199">
        <ele>1234.79435</ele>
        <time>2025-07-10T08:23:01.000Z</time>
      </trkpt>
      <trkpt lat="44.69881" lon="5.88203">
        <ele>1234.71585</ele>
        <time>2025-07-10T08:23:02.000Z</time>
      </trkpt>
      <trkpt lat="44.69886" lon="5.88207">
        <ele>1234.635018</ele>
        <time>2025-07-10T08:23:03.000Z</time>
      </trkpt>
      <trkpt lat="44.69891" lon="5.88211">
        <ele>1234.554747</ele>
        <time>2025-07-10T08:23:04.000Z</time>
      </trkpt>
      <trkpt lat="44.69897" lon="5.88215">
        <ele>1234.475675</ele>
        <time>2025-07-10T08:23:05.000Z</time>
      </trkpt>
      <trkpt lat="44.69902" lon="5.88218">
        <ele>1234.394607</ele>
        <time>2025-07-10T08:23:06.000Z</time>
      </trkpt>
      <trkpt lat="44.69908" lon="5.88222">
        <ele>1234.31432</ele>
        <time>2025-07-10T08:23:07.000Z</time>
      </trkpt>
      <trkpt lat="44.69913" lon="5.88225">
        <ele>1234.233181</ele>
        <time>2025-07-10T08:23:08.000Z</time>
      </trkpt>
      <trkpt lat="44.69919" lon="5.88229">
        <ele>1234.15167</ele>
        <time>2025-07-10T08:23:09.000Z</time>
      </trkpt>
      <trkpt lat="44.69924" lon="5.88232">
        <ele>1234.07053</ele>
        <time>2025-07-10T08:23:10.000Z</time>
      </trkpt>
      <trkpt lat="44.6993" lon="5.88235">
        <ele>1233.991849</ele>
        <time>2025-07-10T08:23:11.000Z</time>
      </trkpt>
      <trkpt lat="44.69935" lon="5.88238">
        <ele>1233.913542</ele>
        <time>2025-07-10T08:23:12.000Z</time>
      </trkpt>
      <trkpt lat="44.69941" lon="5.88242">
        <ele>1233.834861</ele>
        <time>2025-07-10T08:23:13.000Z</time>
      </trkpt>
      <trkpt lat="44.69946" lon="5.88245">
        <ele>1233.755404</ele>
        <time>2025-07-10T08:23:14.000Z</time>
      </trkpt>
      <trkpt lat="44.69951" lon="5.88249">
        <ele>1233.677557</ele>
        <time>2025-07-10T08:23:15.000Z</time>
      </trkpt>
      <trkpt lat="44.69956" lon="5.88252">
        <ele>1233.60132</ele>
        <time>2025-07-10T08:23:16.000Z</time>
      </trkpt>
      <trkpt lat="44.69962" lon="5.88255">
        <ele>1233.524613</ele>
        <time>2025-07-10T08:23:17.000Z</time>
      </trkpt>
      <trkpt lat="44.69967" lon="5.88258">
        <ele>1233.446305</ele>
        <time>2025-07-10T08:23:18.000Z</time>
      </trkpt>
      <trkpt lat="44.69973" lon="5.88261">
        <ele>1233.367998</ele>
        <time>2025-07-10T08:23:19.000Z</time>
      </trkpt>
      <trkpt lat="44.69978" lon="5.88265">
        <ele>1233.290921</ele>
        <time>2025-07-10T08:23:20.000Z</time>
      </trkpt>
      <trkpt lat="44.69983" lon="5.88268">
        <ele>1233.213464</ele>
        <time>2025-07-10T08:23:21.000Z</time>
      </trkpt>
      <trkpt lat="44.69988" lon="5.88271">
        <ele>1233.135617</ele>
        <time>2025-07-10T08:23:22.000Z</time>
      </trkpt>
      <trkpt lat="44.69994" lon="5.88275">
        <ele>1233.057771</ele>
        <time>2025-07-10T08:23:23.000Z</time>
      </trkpt>
      <trkpt lat="44.69999" lon="5.88278">
        <ele>1232.979462</ele>
        <time>2025-07-10T08:23:24.000Z</time>
      </trkpt>
      <trkpt lat="44.70004" lon="5.88282">
        <ele>1232.900258</ele>
        <time>2025-07-10T08:23:25.000Z</time>
      </trkpt>
      <trkpt lat="44.70009" lon="5.88286">
        <ele>1232.821055</ele>
        <time>2025-07-10T08:23:26.000Z</time>
      </trkpt>
      <trkpt lat="44.70014" lon="5.8829">
        <ele>1232.743022</ele>
        <time>2025-07-10T08:23:27.000Z</time>
      </trkpt>
      <trkpt lat="44.7002" lon="5.88294">
        <ele>1232.663819</ele>
        <time>2025-07-10T08:23:28.000Z</time>
      </trkpt>
      <trkpt lat="44.70025" lon="5.88298">
        <ele>1232.588109</ele>
        <time>2025-07-10T08:23:29.000Z</time>
      </trkpt>
      <trkpt lat="44.70029" lon="5.88303">
        <ele>1232.487171</ele>
        <time>2025-07-10T08:23:30.000Z</time>
      </trkpt>
      <trkpt lat="44.70034" lon="5.88307">
        <ele>1232.382737</ele>
        <time>2025-07-10T08:23:31.000Z</time>
      </trkpt>
      <trkpt lat="44.70039" lon="5.88311">
        <ele>1232.280079</ele>
        <time>2025-07-10T08:23:32.000Z</time>
      </trkpt>
      <trkpt lat="44.70044" lon="5.88313">
        <ele>1232.180372</ele>
        <time>2025-07-10T08:23:33.000Z</time>
      </trkpt>
      <trkpt lat="44.70049" lon="5.88316">
        <ele>1232.081705</ele>
        <time>2025-07-10T08:23:34.000Z</time>
      </trkpt>
      <trkpt lat="44.70054" lon="5.88318">
        <ele>1231.983834</ele>
        <time>2025-07-10T08:23:35.000Z</time>
      </trkpt>
      <trkpt lat="44.70059" lon="5.8832">
        <ele>1231.882363</ele>
        <time>2025-07-10T08:23:36.000Z</time>
      </trkpt>
      <trkpt lat="44.70064" lon="5.88322">
        <ele>1231.77796</ele>
        <time>2025-07-10T08:23:37.000Z</time>
      </trkpt>
      <trkpt lat="44.7007" lon="5.88324">
        <ele>1231.673556</ele>
        <time>2025-07-10T08:23:38.000Z</time>
      </trkpt>
      <trkpt lat="44.70075" lon="5.88326">
        <ele>1231.56551</ele>
        <time>2025-07-10T08:23:39.000Z</time>
      </trkpt>
      <trkpt lat="44.70081" lon="5.88328">
        <ele>1231.458619</ele>
        <time>2025-07-10T08:23:40.000Z</time>
      </trkpt>
      <trkpt lat="44.70086" lon="5.8833">
        <ele>1231.349917</ele>
        <time>2025-07-10T08:23:41.000Z</time>
      </trkpt>
      <trkpt lat="44.70092" lon="5.88332">
        <ele>1231.238696</ele>
        <time>2025-07-10T08:23:42.000Z</time>
      </trkpt>
      <trkpt lat="44.70098" lon="5.88335">
        <ele>1231.130689</ele>
        <time>2025-07-10T08:23:43.000Z</time>
      </trkpt>
      <trkpt lat="44.70103" lon="5.88337">
        <ele>1231.019093</ele>
        <time>2025-07-10T08:23:44.000Z</time>
      </trkpt>
      <trkpt lat="44.70109" lon="5.88339">
        <ele>1230.909292</ele>
        <time>2025-07-10T08:23:45.000Z</time>
      </trkpt>
      <trkpt lat="44.70114" lon="5.88342">
        <ele>1230.800883</ele>
        <time>2025-07-10T08:23:46.000Z</time>
      </trkpt>
      <trkpt lat="44.7012" lon="5.88344">
        <ele>1230.690022</ele>
        <time>2025-07-10T08:23:47.000Z</time>
      </trkpt>
      <trkpt lat="44.70126" lon="5.88346">
        <ele>1230.58132</ele>
        <time>2025-07-10T08:23:48.000Z</time>
      </trkpt>
      <trkpt lat="44.70131" lon="5.88348">
        <ele>1230.471449</ele>
        <time>2025-07-10T08:23:49.000Z</time>
      </trkpt>
      <trkpt lat="44.70137" lon="5.88349">
        <ele>1230.357374</ele>
        <time>2025-07-10T08:23:50.000Z</time>
      </trkpt>
      <trkpt lat="44.70143" lon="5.88351">
        <ele>1230.245562</ele>
        <time>2025-07-10T08:23:51.000Z</time>
      </trkpt>
      <trkpt lat="44.70149" lon="5.88352">
        <ele>1230.133933</ele>
        <time>2025-07-10T08:23:52.000Z</time>
      </trkpt>
      <trkpt lat="44.70155" lon="5.88353">
        <ele>1230.020444</ele>
        <time>2025-07-10T08:23:53.000Z</time>
      </trkpt>
      <trkpt lat="44.70161" lon="5.88354">
        <ele>1229.904725</ele>
        <time>2025-07-10T08:23:54.000Z</time>
      </trkpt>
      <trkpt lat="44.70167" lon="5.88356">
        <ele>1229.790651</ele>
        <time>2025-07-10T08:23:55.000Z</time>
      </trkpt>
      <trkpt lat="44.70174" lon="5.88357">
        <ele>1229.669549</ele>
        <time>2025-07-10T08:23:56.000Z</time>
      </trkpt>
      <trkpt lat="44.7018" lon="5.88358">
        <ele>1229.543934</ele>
        <time>2025-07-10T08:23:57.000Z</time>
      </trkpt>
      <trkpt lat="44.70187" lon="5.8836">
        <ele>1229.421773</ele>
        <time>2025-07-10T08:23:58.000Z</time>
      </trkpt>
      <trkpt lat="44.70193" lon="5.88362">
        <ele>1229.299358</ele>
        <time>2025-07-10T08:23:59.000Z</time>
      </trkpt>
      <trkpt lat="44.70199" lon="5.88364">
        <ele>1229.187532</ele>
        <time>2025-07-10T08:24:00.000Z</time>
      </trkpt>
      <trkpt lat="44.70205" lon="5.88365">
        <ele>1229.095604</ele>
        <time>2025-07-10T08:24:01.000Z</time>
      </trkpt>
      <trkpt lat="44.70211" lon="5.88366">
        <ele>1229.006433</ele>
        <time>2025-07-10T08:24:02.000Z</time>
      </trkpt>
      <trkpt lat="44.70217" lon="5.88368">
        <ele>1228.916732</ele>
        <time>2025-07-10T08:24:03.000Z</time>
      </trkpt>
      <trkpt lat="44.70223" lon="5.8837">
        <ele>1228.827589</ele>
        <time>2025-07-10T08:24:04.000Z</time>
      </trkpt>
      <trkpt lat="44.70229" lon="5.88372">
        <ele>1228.736513</ele>
        <time>2025-07-10T08:24:05.000Z</time>
      </trkpt>
      <trkpt lat="44.70235" lon="5.88375">
        <ele>1228.646777</ele>
        <time>2025-07-10T08:24:06.000Z</time>
      </trkpt>
      <trkpt lat="44.70241" lon="5.88378">
        <ele>1228.553897</ele>
        <time>2025-07-10T08:24:07.000Z</time>
      </trkpt>
      <trkpt lat="44.70247" lon="5.88381">
        <ele>1228.460637</ele>
        <time>2025-07-10T08:24:08.000Z</time>
      </trkpt>
      <trkpt lat="44.70253" lon="5.88384">
        <ele>1228.36501</ele>
        <time>2025-07-10T08:24:09.000Z</time>
      </trkpt>
      <trkpt lat="44.70259" lon="5.88387">
        <ele>1228.272501</ele>
        <time>2025-07-10T08:24:10.000Z</time>
      </trkpt>
      <trkpt lat="44.70265" lon="5.88391">
        <ele>1228.178249</ele>
        <time>2025-07-10T08:24:11.000Z</time>
      </trkpt>
      <trkpt lat="44.70271" lon="5.88394">
        <ele>1228.082982</ele>
        <time>2025-07-10T08:24:12.000Z</time>
      </trkpt>
      <trkpt lat="44.70277" lon="5.88397">
        <ele>1227.991521</ele>
        <time>2025-07-10T08:24:13.000Z</time>
      </trkpt>
      <trkpt lat="44.70283" lon="5.88399">
        <ele>1227.898991</ele>
        <time>2025-07-10T08:24:14.000Z</time>
      </trkpt>
      <trkpt lat="44.70289" lon="5.88402">
        <ele>1227.807192</ele>
        <time>2025-07-10T08:24:15.000Z</time>
      </trkpt>
      <trkpt lat="44.70295" lon="5.88405">
        <ele>1227.717455</ele>
        <time>2025-07-10T08:24:16.000Z</time>
      </trkpt>
      <trkpt lat="44.703" lon="5.88408">
        <ele>1227.627719</ele>
        <time>2025-07-10T08:24:17.000Z</time>
      </trkpt>
      <trkpt lat="44.70306" lon="5.8841">
        <ele>1227.536258</ele>
        <time>2025-07-10T08:24:18.000Z</time>
      </trkpt>
      <trkpt lat="44.70312" lon="5.88413">
        <ele>1227.447576</ele>
        <time>2025-07-10T08:24:19.000Z</time>
      </trkpt>
      <trkpt lat="44.70318" lon="5.88416">
        <ele>1227.35784</ele>
        <time>2025-07-10T08:24:20.000Z</time>
      </trkpt>
      <trkpt lat="44.70324" lon="5.88419">
        <ele>1227.263591</ele>
        <time>2025-07-10T08:24:21.000Z</time>
      </trkpt>
      <trkpt lat="44.7033" lon="5.88422">
        <ele>1227.166941</ele>
        <time>2025-07-10T08:24:22.000Z</time>
      </trkpt>
      <trkpt lat="44.70336" lon="5.88425">
        <ele>1227.069576</ele>
        <time>2025-07-10T08:24:23.000Z</time>
      </trkpt>
      <trkpt lat="44.70343" lon="5.88427">
        <ele>1226.974243</ele>
        <time>2025-07-10T08:24:24.000Z</time>
      </trkpt>
      <trkpt lat="44.70349" lon="5.8843">
        <ele>1226.879214</ele>
        <time>2025-07-10T08:24:25.000Z</time>
      </trkpt>
      <trkpt lat="44.70355" lon="5.88433">
        <ele>1226.783568</ele>
        <time>2025-07-10T08:24:26.000Z</time>
      </trkpt>
      <trkpt lat="44.70361" lon="5.88436">
        <ele>1226.688651</ele>
        <time>2025-07-10T08:24:27.000Z</time>
      </trkpt>
      <trkpt lat="44.70367" lon="5.88439">
        <ele>1226.595464</ele>
        <time>2025-07-10T08:24:28.000Z</time>
      </trkpt>
      <trkpt lat="44.70373" lon="5.88441">
        <ele>1226.536463</ele>
        <time>2025-07-10T08:24:29.000Z</time>
      </trkpt>
      <trkpt lat="44.70379" lon="5.88444">
        <ele>1226.494064</ele>
        <time>2025-07-10T08:24:30.000Z</time>
      </trkpt>
      <trkpt lat="44.70384" lon="5.88448">
        <ele>1226.450618</ele>
        <time>2025-07-10T08:24:31.000Z</time>
      </trkpt>
      <trkpt lat="44.7039" lon="5.88453">
        <ele>1226.40823</ele>
        <time>2025-07-10T08:24:32.000Z</time>
      </trkpt>
      <trkpt lat="44.70395" lon="5.88457">
        <ele>1226.365336</ele>
        <time>2025-07-10T08:24:33.000Z</time>
      </trkpt>
      <trkpt lat="44.704" lon="5.88462">
        <ele>1226.322764</ele>
        <time>2025-07-10T08:24:34.000Z</time>
      </trkpt>
      <trkpt lat="44.70405" lon="5.88467">
        <ele>1226.279103</ele>
        <time>2025-07-10T08:24:35.000Z</time>
      </trkpt>
      <trkpt lat="44.7041" lon="5.88472">
        <ele>1226.236827</ele>
        <time>2025-07-10T08:24:36.000Z</time>
      </trkpt>
      <trkpt lat="44.70415" lon="5.88477">
        <ele>1226.193707</ele>
        <time>2025-07-10T08:24:37.000Z</time>
      </trkpt>
      <trkpt lat="44.7042" lon="5.88483">
        <ele>1226.152276</ele>
        <time>2025-07-10T08:24:38.000Z</time>
      </trkpt>
      <trkpt lat="44.70425" lon="5.88488">
        <ele>1226.111689</ele>
        <time>2025-07-10T08:24:39.000Z</time>
      </trkpt>
      <trkpt lat="44.70429" lon="5.88493">
        <ele>1226.070505</ele>
        <time>2025-07-10T08:24:40.000Z</time>
      </trkpt>
      <trkpt lat="44.70434" lon="5.88498">
        <ele>1226.030984</ele>
        <time>2025-07-10T08:24:41.000Z</time>
      </trkpt>
      <trkpt lat="44.70438" lon="5.88504">
        <ele>1225.991769</ele>
        <time>2025-07-10T08:24:42.000Z</time>
      </trkpt>
      <trkpt lat="44.70442" lon="5.8851">
        <ele>1225.952681</ele>
        <time>2025-07-10T08:24:43.000Z</time>
      </trkpt>
      <trkpt lat="44.70445" lon="5.88516">
        <ele>1225.913147</ele>
        <time>2025-07-10T08:24:44.000Z</time>
      </trkpt>
      <trkpt lat="44.70448" lon="5.88523">
        <ele>1225.874438</ele>
        <time>2025-07-10T08:24:45.000Z</time>
      </trkpt>
      <trkpt lat="44.70451" lon="5.88529">
        <ele>1225.835709</ele>
        <time>2025-07-10T08:24:46.000Z</time>
      </trkpt>
      <trkpt lat="44.70454" lon="5.88536">
        <ele>1225.798338</ele>
        <time>2025-07-10T08:24:47.000Z</time>
      </trkpt>
      <trkpt lat="44.70456" lon="5.88543">
        <ele>1225.760689</ele>
        <time>2025-07-10T08:24:48.000Z</time>
      </trkpt>
      <trkpt lat="44.70458" lon="5.8855">
        <ele>1225.723492</ele>
        <time>2025-07-10T08:24:49.000Z</time>
      </trkpt>
      <trkpt lat="44.7046" lon="5.88557">
        <ele>1225.687266</ele>
        <time>2025-07-10T08:24:50.000Z</time>
      </trkpt>
      <trkpt lat="44.70462" lon="5.88564">
        <ele>1225.650785</ele>
        <time>2025-07-10T08:24:51.000Z</time>
      </trkpt>
      <trkpt lat="44.70464" lon="5.88571">
        <ele>1225.615014</ele>
        <time>2025-07-10T08:24:52.000Z</time>
      </trkpt>
      <trkpt lat="44.70466" lon="5.88577">
        <ele>1225.580863</ele>
        <time>2025-07-10T08:24:53.000Z</time>
      </trkpt>
      <trkpt lat="44.70468" lon="5.88584">
        <ele>1225.545908</ele>
        <time>2025-07-10T08:24:54.000Z</time>
      </trkpt>
      <trkpt lat="44.7047" lon="5.8859">
        <ele>1225.511436</ele>
        <time>2025-07-10T08:24:55.000Z</time>
      </trkpt>
      <trkpt lat="44.70473" lon="5.88595">
        <ele>1225.477909</ele>
        <time>2025-07-10T08:24:56.000Z</time>
      </trkpt>
      <trkpt lat="44.70477" lon="5.886">
        <ele>1225.443318</ele>
        <time>2025-07-10T08:24:57.000Z</time>
      </trkpt>
      <trkpt lat="44.7048" lon="5.88605">
        <ele>1225.410836</ele>
        <time>2025-07-10T08:24:58.000Z</time>
      </trkpt>
      <trkpt lat="44.70483" lon="5.8861">
        <ele>1225.377659</ele>
        <time>2025-07-10T08:24:59.000Z</time>
      </trkpt>
      <trkpt lat="44.70487" lon="5.88615">
        <ele>1225.343303</ele>
        <time>2025-07-10T08:25:00.000Z</time>
      </trkpt>
      <trkpt lat="44.7049" lon="5.8862">
        <ele>1225.313057</ele>
        <time>2025-07-10T08:25:01.000Z</time>
      </trkpt>
      <trkpt lat="44.70494" lon="5.88626">
        <ele>1225.287565</ele>
        <time>2025-07-10T08:25:02.000Z</time>
      </trkpt>
      <trkpt lat="44.70497" lon="5.88632">
        <ele>1225.262456</ele>
        <time>2025-07-10T08:25:03.000Z</time>
      </trkpt>
      <trkpt lat="44.705" lon="5.88638">
        <ele>1225.237054</ele>
        <time>2025-07-10T08:25:04.000Z</time>
      </trkpt>
      <trkpt lat="44.70502" lon="5.88644">
        <ele>1225.211294</ele>
        <time>2025-07-10T08:25:05.000Z</time>
      </trkpt>
      <trkpt lat="44.70505" lon="5.88651">
        <ele>1225.186375</ele>
        <time>2025-07-10T08:25:06.000Z</time>
      </trkpt>
      <trkpt lat="44.70507" lon="5.88657">
        <ele>1225.162079</ele>
        <time>2025-07-10T08:25:07.000Z</time>
      </trkpt>
      <trkpt lat="44.70509" lon="5.88663">
        <ele>1225.138249</ele>
        <time>2025-07-10T08:25:08.000Z</time>
      </trkpt>
      <trkpt lat="44.70512" lon="5.88669">
        <ele>1225.114514</ele>
        <time>2025-07-10T08:25:09.000Z</time>
      </trkpt>
      <trkpt lat="44.70515" lon="5.88674">
        <ele>1225.090218</ele>
        <time>2025-07-10T08:25:10.000Z</time>
      </trkpt>
      <trkpt lat="44.70518" lon="5.88679">
        <ele>1225.066601</ele>
        <time>2025-07-10T08:25:11.000Z</time>
      </trkpt>
      <trkpt lat="44.70522" lon="5.88684">
        <ele>1225.042189</ele>
        <time>2025-07-10T08:25:12.000Z</time>
      </trkpt>
      <trkpt lat="44.70526" lon="5.88688">
        <ele>1225.017693</ele>
        <time>2025-07-10T08:25:13.000Z</time>
      </trkpt>
      <trkpt lat="44.7053" lon="5.88692">
        <ele>1224.992798</ele>
        <time>2025-07-10T08:25:14.000Z</time>
      </trkpt>
      <trkpt lat="44.70534" lon="5.88696">
        <ele>1224.967904</ele>
        <time>2025-07-10T08:25:15.000Z</time>
      </trkpt>
      <trkpt lat="44.70539" lon="5.887">
        <ele>1224.943206</ele>
        <time>2025-07-10T08:25:16.000Z</time>
      </trkpt>
      <trkpt lat="44.70543" lon="5.88704">
        <ele>1224.918909</ele>
        <time>2025-07-10T08:25:17.000Z</time>
      </trkpt>
      <trkpt lat="44.70547" lon="5.88709">
        <ele>1224.894125</ele>
        <time>2025-07-10T08:25:18.000Z</time>
      </trkpt>
      <trkpt lat="44.7055" lon="5.88714">
        <ele>1224.87008</ele>
        <time>2025-07-10T08:25:19.000Z</time>
      </trkpt>
      <trkpt lat="44.70553" lon="5.88719">
        <ele>1224.845369</ele>
        <time>2025-07-10T08:25:20.000Z</time>
      </trkpt>
      <trkpt lat="44.70556" lon="5.88725">
        <ele>1224.820813</ele>
        <time>2025-07-10T08:25:21.000Z</time>
      </trkpt>
      <trkpt lat="44.70559" lon="5.88732">
        <ele>1224.795461</ele>
        <time>2025-07-10T08:25:22.000Z</time>
      </trkpt>
      <trkpt lat="44.7056" lon="5.88738">
        <ele>1224.770345</ele>
        <time>2025-07-10T08:25:23.000Z</time>
      </trkpt>
      <trkpt lat="44.70562" lon="5.88745">
        <ele>1224.745553</ele>
        <time>2025-07-10T08:25:24.000Z</time>
      </trkpt>
      <trkpt lat="44.70564" lon="5.88752">
        <ele>1224.721085</ele>
        <time>2025-07-10T08:25:25.000Z</time>
      </trkpt>
      <trkpt lat="44.70566" lon="5.88758">
        <ele>1224.696789</ele>
        <time>2025-07-10T08:25:26.000Z</time>
      </trkpt>
      <trkpt lat="44.70569" lon="5.88764">
        <ele>1224.671675</ele>
        <time>2025-07-10T08:25:27.000Z</time>
      </trkpt>
      <trkpt lat="44.70572" lon="5.88769">
        <ele>1224.647287</ele>
        <time>2025-07-10T08:25:28.000Z</time>
      </trkpt>
      <trkpt lat="44.70576" lon="5.88774">
        <ele>1224.622561</ele>
        <time>2025-07-10T08:25:29.000Z</time>
      </trkpt>
      <trkpt lat="44.70581" lon="5.88777">
        <ele>1224.598193</ele>
        <time>2025-07-10T08:25:30.000Z</time>
      </trkpt>
      <trkpt lat="44.70585" lon="5.88781">
        <ele>1224.574664</ele>
        <time>2025-07-10T08:25:31.000Z</time>
      </trkpt>
      <trkpt lat="44.7059" lon="5.88783">
        <ele>1224.549941</ele>
        <time>2025-07-10T08:25:32.000Z</time>
      </trkpt>
      <trkpt lat="44.70594" lon="5.88786">
        <ele>1224.524893</ele>
        <time>2025-07-10T08:25:33.000Z</time>
      </trkpt>
      <trkpt lat="44.70599" lon="5.88789">
        <ele>1224.499588</ele>
        <time>2025-07-10T08:25:34.000Z</time>
      </trkpt>
      <trkpt lat="44.70604" lon="5.88792">
        <ele>1224.474897</ele>
        <time>2025-07-10T08:25:35.000Z</time>
      </trkpt>
      <trkpt lat="44.70608" lon="5.88795">
        <ele>1224.449752</ele>
        <time>2025-07-10T08:25:36.000Z</time>
      </trkpt>
      <trkpt lat="44.70613" lon="5.88798">
        <ele>1224.30457</ele>
        <time>2025-07-10T08:25:37.000Z</time>
      </trkpt>
      <trkpt lat="44.70617" lon="5.88802">
        <ele>1224.155607</ele>
        <time>2025-07-10T08:25:38.000Z</time>
      </trkpt>
      <trkpt lat="44.70621" lon="5.88807">
        <ele>1224.005871</ele>
        <time>2025-07-10T08:25:39.000Z</time>
      </trkpt>
      <trkpt lat="44.70625" lon="5.88812">
        <ele>1223.856777</ele>
        <time>2025-07-10T08:25:40.000Z</time>
      </trkpt>
      <trkpt lat="44.70628" lon="5.88818">
        <ele>1223.712605</ele>
        <time>2025-07-10T08:25:41.000Z</time>
      </trkpt>
      <trkpt lat="44.7063" lon="5.88824">
        <ele>1223.568276</ele>
        <time>2025-07-10T08:25:42.000Z</time>
      </trkpt>
      <trkpt lat="44.70632" lon="5.8883">
        <ele>1223.426563</ele>
        <time>2025-07-10T08:25:43.000Z</time>
      </trkpt>
      <trkpt lat="44.70634" lon="5.88837">
        <ele>1223.287067</ele>
        <time>2025-07-10T08:25:44.000Z</time>
      </trkpt>
      <trkpt lat="44.70635" lon="5.88844">
        <ele>1223.139826</ele>
        <time>2025-07-10T08:25:45.000Z</time>
      </trkpt>
      <trkpt lat="44.70636" lon="5.88851">
        <ele>1222.988572</ele>
        <time>2025-07-10T08:25:46.000Z</time>
      </trkpt>
      <trkpt lat="44.70637" lon="5.88858">
        <ele>1222.835308</ele>
        <time>2025-07-10T08:25:47.000Z</time>
      </trkpt>
      <trkpt lat="44.70638" lon="5.88865">
        <ele>1222.686061</ele>
        <time>2025-07-10T08:25:48.000Z</time>
      </trkpt>
      <trkpt lat="44.70639" lon="5.88873">
        <ele>1222.533488</ele>
        <time>2025-07-10T08:25:49.000Z</time>
      </trkpt>
      <trkpt lat="44.70641" lon="5.8888">
        <ele>1222.375443</ele>
        <time>2025-07-10T08:25:50.000Z</time>
      </trkpt>
      <trkpt lat="44.70643" lon="5.88887">
        <ele>1222.220621</ele>
        <time>2025-07-10T08:25:51.000Z</time>
      </trkpt>
      <trkpt lat="44.70645" lon="5.88894">
        <ele>1222.067803</ele>
        <time>2025-07-10T08:25:52.000Z</time>
      </trkpt>
      <trkpt lat="44.70648" lon="5.889">
        <ele>1221.913755</ele>
        <time>2025-07-10T08:25:53.000Z</time>
      </trkpt>
      <trkpt lat="44.70652" lon="5.88906">
        <ele>1221.757486</ele>
        <time>2025-07-10T08:25:54.000Z</time>
      </trkpt>
      <trkpt lat="44.70656" lon="5.88911">
        <ele>1221.595195</ele>
        <time>2025-07-10T08:25:55.000Z</time>
      </trkpt>
      <trkpt lat="44.7066" lon="5.88916">
        <ele>1221.422414</ele>
        <time>2025-07-10T08:25:56.000Z</time>
      </trkpt>
      <trkpt lat="44.70665" lon="5.88922">
        <ele>1221.241277</ele>
        <time>2025-07-10T08:25:57.000Z</time>
      </trkpt>
      <trkpt lat="44.7067" lon="5.88928">
        <ele>1221.05755</ele>
        <time>2025-07-10T08:25:58.000Z</time>
      </trkpt>
      <trkpt lat="44.70675" lon="5.88933">
        <ele>1220.871179</ele>
        <time>2025-07-10T08:25:59.000Z</time>
      </trkpt>
      <trkpt lat="44.7068" lon="5.8894">
        <ele>1220.677233</ele>
        <time>2025-07-10T08:26:00.000Z</time>
      </trkpt>
      <trkpt lat="44.70685" lon="5.88947">
        <ele>1220.475976</ele>
        <time>2025-07-10T08:26:01.000Z</time>
      </trkpt>
      <trkpt lat="44.7069" lon="5.88954">
        <ele>1220.268009</ele>
        <time>2025-07-10T08:26:02.000Z</time>
      </trkpt>
      <trkpt lat="44.70696" lon="5.8896">
        <ele>1220.057641</ele>
        <time>2025-07-10T08:26:03.000Z</time>
      </trkpt>
      <trkpt lat="44.70702" lon="5.88965">
        <ele>1219.844797</ele>
        <time>2025-07-10T08:26:04.000Z</time>
      </trkpt>
      <trkpt lat="44.7071" lon="5.88968">
        <ele>1219.624664</ele>
        <time>2025-07-10T08:26:05.000Z</time>
      </trkpt>
      <trkpt lat="44.70717" lon="5.88971">
        <ele>1219.395344</ele>
        <time>2025-07-10T08:26:06.000Z</time>
      </trkpt>
      <trkpt lat="44.70725" lon="5.88973">
        <ele>1219.072026</ele>
        <time>2025-07-10T08:26:07.000Z</time>
      </trkpt>
      <trkpt lat="44.70734" lon="5.88975">
        <ele>1218.579501</ele>
        <time>2025-07-10T08:26:08.000Z</time>
      </trkpt>
      <trkpt lat="44.70743" lon="5.88976">
        <ele>1218.079113</ele>
        <time>2025-07-10T08:26:09.000Z</time>
      </trkpt>
      <trkpt lat="44.70751" lon="5.8898">
        <ele>1217.584507</ele>
        <time>2025-07-10T08:26:10.000Z</time>
      </trkpt>
      <trkpt lat="44.70759" lon="5.88985">
        <ele>1217.076797</ele>
        <time>2025-07-10T08:26:11.000Z</time>
      </trkpt>
      <trkpt lat="44.70767" lon="5.88991">
        <ele>1216.568469</ele>
        <time>2025-07-10T08:26:12.000Z</time>
      </trkpt>
      <trkpt lat="44.70775" lon="5.88997">
        <ele>1216.050366</ele>
        <time>2025-07-10T08:26:13.000Z</time>
      </trkpt>
      <trkpt lat="44.70783" lon="5.89004">
        <ele>1215.519158</ele>
        <time>2025-07-10T08:26:14.000Z</time>
      </trkpt>
      <trkpt lat="44.70791" lon="5.89011">
        <ele>1214.986383</ele>
        <time>2025-07-10T08:26:15.000Z</time>
      </trkpt>
      <trkpt lat="44.70798" lon="5.89019">
        <ele>1214.454124</ele>
        <time>2025-07-10T08:26:16.000Z</time>
      </trkpt>
      <trkpt lat="44.70806" lon="5.89027">
        <ele>1213.923737</ele>
        <time>2025-07-10T08:26:17.000Z</time>
      </trkpt>
      <trkpt lat="44.70813" lon="5.89035">
        <ele>1213.377394</ele>
        <time>2025-07-10T08:26:18.000Z</time>
      </trkpt>
      <trkpt lat="44.7082" lon="5.89045">
        <ele>1212.829104</ele>
        <time>2025-07-10T08:26:19.000Z</time>
      </trkpt>
      <trkpt lat="44.70826" lon="5.89056">
        <ele>1212.273422</ele>
        <time>2025-07-10T08:26:20.000Z</time>
      </trkpt>
      <trkpt lat="44.70833" lon="5.89066">
        <ele>1211.720787</ele>
        <time>2025-07-10T08:26:21.000Z</time>
      </trkpt>
      <trkpt lat="44.70839" lon="5.89076">
        <ele>1211.178362</ele>
        <time>2025-07-10T08:26:22.000Z</time>
      </trkpt>
      <trkpt lat="44.70846" lon="5.89085">
        <ele>1210.629384</ele>
        <time>2025-07-10T08:26:23.000Z</time>
      </trkpt>
      <trkpt lat="44.70855" lon="5.89092">
        <ele>1210.078283</ele>
        <time>2025-07-10T08:26:24.000Z</time>
      </trkpt>
      <trkpt lat="44.70863" lon="5.89098">
        <ele>1209.525826</ele>
        <time>2025-07-10T08:26:25.000Z</time>
      </trkpt>
      <trkpt lat="44.70872" lon="5.89103">
        <ele>1208.96523</ele>
        <time>2025-07-10T08:26:26.000Z</time>
      </trkpt>
      <trkpt lat="44.70882" lon="5.89106">
        <ele>1208.235532</ele>
        <time>2025-07-10T08:26:27.000Z</time>
      </trkpt>
      <trkpt lat="44.70891" lon="5.89109">
        <ele>1207.506771</ele>
        <time>2025-07-10T08:26:28.000Z</time>
      </trkpt>
      <trkpt lat="44.70901" lon="5.89111">
        <ele>1206.779028</ele>
        <time>2025-07-10T08:26:29.000Z</time>
      </trkpt>
      <trkpt lat="44.70911" lon="5.89114">
        <ele>1206.041922</ele>
        <time>2025-07-10T08:26:30.000Z</time>
      </trkpt>
      <trkpt lat="44.70921" lon="5.89117">
        <ele>1205.290224</ele>
        <time>2025-07-10T08:26:31.000Z</time>
      </trkpt>
      <trkpt lat="44.70931" lon="5.8912">
        <ele>1204.527972</ele>
        <time>2025-07-10T08:26:32.000Z</time>
      </trkpt>
      <trkpt lat="44.70941" lon="5.89123">
        <ele>1203.767925</ele>
        <time>2025-07-10T08:26:33.000Z</time>
      </trkpt>
      <trkpt lat="44.70951" lon="5.89125">
        <ele>1203.005434</ele>
        <time>2025-07-10T08:26:34.000Z</time>
      </trkpt>
      <trkpt lat="44.70961" lon="5.89128">
        <ele>1202.236457</ele>
        <time>2025-07-10T08:26:35.000Z</time>
      </trkpt>
      <trkpt lat="44.70971" lon="5.8913">
        <ele>1201.473967</ele>
        <time>2025-07-10T08:26:36.000Z</time>
      </trkpt>
      <trkpt lat="44.70981" lon="5.89132">
        <ele>1200.735228</ele>
        <time>2025-07-10T08:26:37.000Z</time>
      </trkpt>
      <trkpt lat="44.70991" lon="5.89133">
        <ele>1200.011223</ele>
        <time>2025-07-10T08:26:38.000Z</time>
      </trkpt>
      <trkpt lat="44.71" lon="5.89133">
        <ele>1199.333797</ele>
        <time>2025-07-10T08:26:39.000Z</time>
      </trkpt>
      <trkpt lat="44.71009" lon="5.89133">
        <ele>1198.6263</ele>
        <time>2025-07-10T08:26:40.000Z</time>
      </trkpt>
      <trkpt lat="44.71019" lon="5.89133">
        <ele>1197.89556</ele>
        <time>2025-07-10T08:26:41.000Z</time>
      </trkpt>
      <trkpt lat="44.71029" lon="5.89135">
        <ele>1197.143677</ele>
        <time>2025-07-10T08:26:42.000Z</time>
      </trkpt>
      <trkpt lat="44.71039" lon="5.89139">
        <ele>1196.358478</ele>
        <time>2025-07-10T08:26:43.000Z</time>
      </trkpt>
      <trkpt lat="44.7105" lon="5.89143">
        <ele>1195.544089</ele>
        <time>2025-07-10T08:26:44.000Z</time>
      </trkpt>
      <trkpt lat="44.7106" lon="5.89148">
        <ele>1194.687211</ele>
        <time>2025-07-10T08:26:45.000Z</time>
      </trkpt>
      <trkpt lat="44.71071" lon="5.8915">
        <ele>1193.800123</ele>
        <time>2025-07-10T08:26:46.000Z</time>
      </trkpt>
      <trkpt lat="44.71083" lon="5.89151">
        <ele>1192.923648</ele>
        <time>2025-07-10T08:26:47.000Z</time>
      </trkpt>
      <trkpt lat="44.71094" lon="5.89151">
        <ele>1192.057088</ele>
        <time>2025-07-10T08:26:48.000Z</time>
      </trkpt>
      <trkpt lat="44.71105" lon="5.89149">
        <ele>1191.169047</ele>
        <time>2025-07-10T08:26:49.000Z</time>
      </trkpt>
      <trkpt lat="44.71116" lon="5.89144">
        <ele>1190.271724</ele>
        <time>2025-07-10T08:26:50.000Z</time>
      </trkpt>
      <trkpt lat="44.71127" lon="5.89139">
        <ele>1189.382392</ele>
        <time>2025-07-10T08:26:51.000Z</time>
      </trkpt>
      <trkpt lat="44.71137" lon="5.89134">
        <ele>1188.498483</ele>
        <time>2025-07-10T08:26:52.000Z</time>
      </trkpt>
      <trkpt lat="44.71148" lon="5.89128">
        <ele>1187.619898</ele>
        <time>2025-07-10T08:26:53.000Z</time>
      </trkpt>
      <trkpt lat="44.71158" lon="5.89124">
        <ele>1186.784256</ele>
        <time>2025-07-10T08:26:54.000Z</time>
      </trkpt>
      <trkpt lat="44.71169" lon="5.89122">
        <ele>1185.931533</ele>
        <time>2025-07-10T08:26:55.000Z</time>
      </trkpt>
      <trkpt lat="44.7118" lon="5.89119">
        <ele>1185.072666</ele>
        <time>2025-07-10T08:26:56.000Z</time>
      </trkpt>
      <trkpt lat="44.71191" lon="5.89116">
        <ele>1184.205613</ele>
        <time>2025-07-10T08:26:57.000Z</time>
      </trkpt>
      <trkpt lat="44.71202" lon="5.89113">
        <ele>1183.32217</ele>
        <time>2025-07-10T08:26:58.000Z</time>
      </trkpt>
      <trkpt lat="44.71213" lon="5.89112">
        <ele>1182.438272</ele>
        <time>2025-07-10T08:26:59.000Z</time>
      </trkpt>
      <trkpt lat="44.71225" lon="5.89113">
        <ele>1181.542891</ele>
        <time>2025-07-10T08:27:00.000Z</time>
      </trkpt>
      <trkpt lat="44.71236" lon="5.8911">
        <ele>1180.543028</ele>
        <time>2025-07-10T08:27:01.000Z</time>
      </trkpt>
      <trkpt lat="44.71246" lon="5.89104">
        <ele>1179.586604</ele>
        <time>2025-07-10T08:27:02.000Z</time>
      </trkpt>
      <trkpt lat="44.71256" lon="5.89096">
        <ele>1178.603695</ele>
        <time>2025-07-10T08:27:03.000Z</time>
      </trkpt>
      <trkpt lat="44.71266" lon="5.89086">
        <ele>1177.600175</ele>
        <time>2025-07-10T08:27:04.000Z</time>
      </trkpt>
      <trkpt lat="44.71276" lon="5.89079">
        <ele>1176.621857</ele>
        <time>2025-07-10T08:27:05.000Z</time>
      </trkpt>
      <trkpt lat="44.71286" lon="5.89074">
        <ele>1175.681595</ele>
        <time>2025-07-10T08:27:06.000Z</time>
      </trkpt>
      <trkpt lat="44.71297" lon="5.8907">
        <ele>1174.705129</ele>
        <time>2025-07-10T08:27:07.000Z</time>
      </trkpt>
      <trkpt lat="44.71307" lon="5.89066">
        <ele>1173.770339</ele>
        <time>2025-07-10T08:27:08.000Z</time>
      </trkpt>
      <trkpt lat="44.71318" lon="5.89064">
        <ele>1172.833497</ele>
        <time>2025-07-10T08:27:09.000Z</time>
      </trkpt>
      <trkpt lat="44.71329" lon="5.89061">
        <ele>1171.885629</ele>
        <time>2025-07-10T08:27:10.000Z</time>
      </trkpt>
      <trkpt lat="44.71341" lon="5.89061">
        <ele>1170.87848</ele>
        <time>2025-07-10T08:27:11.000Z</time>
      </trkpt>
      <trkpt lat="44.71352" lon="5.89063">
        <ele>1169.868678</ele>
        <time>2025-07-10T08:27:12.000Z</time>
      </trkpt>
      <trkpt lat="44.71363" lon="5.89062">
        <ele>1168.936587</ele>
        <time>2025-07-10T08:27:13.000Z</time>
      </trkpt>
      <trkpt lat="44.71374" lon="5.89057">
        <ele>1167.982001</ele>
        <time>2025-07-10T08:27:14.000Z</time>
      </trkpt>
      <trkpt lat="44.71384" lon="5.8905">
        <ele>1166.986984</ele>
        <time>2025-07-10T08:27:15.000Z</time>
      </trkpt>
      <trkpt lat="44.71393" lon="5.89039">
        <ele>1166.03386</ele>
        <time>2025-07-10T08:27:16.000Z</time>
      </trkpt>
      <trkpt lat="44.71399" lon="5.89026">
        <ele>1165.211444</ele>
        <time>2025-07-10T08:27:17.000Z</time>
      </trkpt>
      <trkpt lat="44.71406" lon="5.89012">
        <ele>1164.363963</ele>
        <time>2025-07-10T08:27:18.000Z</time>
      </trkpt>
      <trkpt lat="44.71413" lon="5.88998">
        <ele>1163.512578</ele>
        <time>2025-07-10T08:27:19.000Z</time>
      </trkpt>
      <trkpt lat="44.7142" lon="5.88984">
        <ele>1162.665619</ele>
        <time>2025-07-10T08:27:20.000Z</time>
      </trkpt>
      <trkpt lat="44.71427" lon="5.88971">
        <ele>1161.822092</ele>
        <time>2025-07-10T08:27:21.000Z</time>
      </trkpt>
      <trkpt lat="44.71434" lon="5.88958">
        <ele>1160.986035</ele>
        <time>2025-07-10T08:27:22.000Z</time>
      </trkpt>
      <trkpt lat="44.71442" lon="5.88945">
        <ele>1160.157789</ele>
        <time>2025-07-10T08:27:23.000Z</time>
      </trkpt>
      <trkpt lat="44.71448" lon="5.88932">
        <ele>1159.351701</ele>
        <time>2025-07-10T08:27:24.000Z</time>
      </trkpt>
      <trkpt lat="44.71453" lon="5.88919">
        <ele>1158.596459</ele>
        <time>2025-07-10T08:27:25.000Z</time>
      </trkpt>
      <trkpt lat="44.71456" lon="5.88904">
        <ele>1157.826805</ele>
        <time>2025-07-10T08:27:26.000Z</time>
      </trkpt>
      <trkpt lat="44.71458" lon="5.88888">
        <ele>1157.00679</ele>
        <time>2025-07-10T08:27:27.000Z</time>
      </trkpt>
      <trkpt lat="44.71459" lon="5.88871">
        <ele>1156.180586</ele>
        <time>2025-07-10T08:27:28.000Z</time>
      </trkpt>
      <trkpt lat="44.7146" lon="5.88855">
        <ele>1155.369969</ele>
        <time>2025-07-10T08:27:29.000Z</time>
      </trkpt>
      <trkpt lat="44.71459" lon="5.8884">
        <ele>1154.616763</ele>
        <time>2025-07-10T08:27:30.000Z</time>
      </trkpt>
      <trkpt lat="44.71457" lon="5.88825">
        <ele>1153.848018</ele>
        <time>2025-07-10T08:27:31.000Z</time>
      </trkpt>
      <trkpt lat="44.71451" lon="5.88811">
        <ele>1153.013074</ele>
        <time>2025-07-10T08:27:32.000Z</time>
      </trkpt>
      <trkpt lat="44.71445" lon="5.88798">
        <ele>1152.136436</ele>
        <time>2025-07-10T08:27:33.000Z</time>
      </trkpt>
      <trkpt lat="44.71438" lon="5.88784">
        <ele>1151.215518</ele>
        <time>2025-07-10T08:27:34.000Z</time>
      </trkpt>
      <trkpt lat="44.71433" lon="5.8877">
        <ele>1150.327448</ele>
        <time>2025-07-10T08:27:35.000Z</time>
      </trkpt>
      <trkpt lat="44.71427" lon="5.88756">
        <ele>1149.465551</ele>
        <time>2025-07-10T08:27:36.000Z</time>
      </trkpt>
      <trkpt lat="44.71422" lon="5.88741">
        <ele>1148.571045</ele>
        <time>2025-07-10T08:27:37.000Z</time>
      </trkpt>
      <trkpt lat="44.71417" lon="5.88727">
        <ele>1147.704658</ele>
        <time>2025-07-10T08:27:38.000Z</time>
      </trkpt>
      <trkpt lat="44.71414" lon="5.88712">
        <ele>1146.851195</ele>
        <time>2025-07-10T08:27:39.000Z</time>
      </trkpt>
      <trkpt lat="44.71409" lon="5.88697">
        <ele>1145.991811</ele>
        <time>2025-07-10T08:27:40.000Z</time>
      </trkpt>
      <trkpt lat="44.71404" lon="5.88683">
        <ele>1145.121509</ele>
        <time>2025-07-10T08:27:41.000Z</time>
      </trkpt>
      <trkpt lat="44.71397" lon="5.88669">
        <ele>1144.196276</ele>
        <time>2025-07-10T08:27:42.000Z</time>
      </trkpt>
      <trkpt lat="44.7139" lon="5.88656">
        <ele>1143.275529</ele>
        <time>2025-07-10T08:27:43.000Z</time>
      </trkpt>
      <trkpt lat="44.71383" lon="5.88641">
        <ele>1142.332445</ele>
        <time>2025-07-10T08:27:44.000Z</time>
      </trkpt>
      <trkpt lat="44.71376" lon="5.88628">
        <ele>1141.433976</ele>
        <time>2025-07-10T08:27:45.000Z</time>
      </trkpt>
      <trkpt lat="44.7137" lon="5.88617">
        <ele>1140.653418</ele>
        <time>2025-07-10T08:27:46.000Z</time>
      </trkpt>
      <trkpt lat="44.71365" lon="5.88607">
        <ele>1140.008521</ele>
        <time>2025-07-10T08:27:47.000Z</time>
      </trkpt>
      <trkpt lat="44.71364" lon="5.88599">
        <ele>1139.568896</ele>
        <time>2025-07-10T08:27:48.000Z</time>
      </trkpt>
      <trkpt lat="44.71366" lon="5.88594">
        <ele>1139.26868</ele>
        <time>2025-07-10T08:27:49.000Z</time>
      </trkpt>
      <trkpt lat="44.71369" lon="5.88592">
        <ele>1139.01869</ele>
        <time>2025-07-10T08:27:50.000Z</time>
      </trkpt>
      <trkpt lat="44.71373" lon="5.88596">
        <ele>1138.700957</ele>
        <time>2025-07-10T08:27:51.000Z</time>
      </trkpt>
      <trkpt lat="44.71377" lon="5.88601">
        <ele>1138.298313</ele>
        <time>2025-07-10T08:27:52.000Z</time>
      </trkpt>
      <trkpt lat="44.71382" lon="5.88607">
        <ele>1137.877308</ele>
        <time>2025-07-10T08:27:53.000Z</time>
      </trkpt>
      <trkpt lat="44.71387" lon="5.88612">
        <ele>1137.414805</ele>
        <time>2025-07-10T08:27:54.000Z</time>
      </trkpt>
      <trkpt lat="44.71393" lon="5.88617">
        <ele>1136.928329</ele>
        <time>2025-07-10T08:27:55.000Z</time>
      </trkpt>
      <trkpt lat="44.71399" lon="5.88622">
        <ele>1136.434316</ele>
        <time>2025-07-10T08:27:56.000Z</time>
      </trkpt>
      <trkpt lat="44.71405" lon="5.88628">
        <ele>1135.93748</ele>
        <time>2025-07-10T08:27:57.000Z</time>
      </trkpt>
      <trkpt lat="44.71411" lon="5.88634">
        <ele>1135.417566</ele>
        <time>2025-07-10T08:27:58.000Z</time>
      </trkpt>
      <trkpt lat="44.71417" lon="5.8864">
        <ele>1134.854327</ele>
        <time>2025-07-10T08:27:59.000Z</time>
      </trkpt>
      <trkpt lat="44.71423" lon="5.88647">
        <ele>1134.331192</ele>
        <time>2025-07-10T08:28:00.000Z</time>
      </trkpt>
      <trkpt lat="44.71428" lon="5.88652">
        <ele>1133.879818</ele>
        <time>2025-07-10T08:28:01.000Z</time>
      </trkpt>
      <trkpt lat="44.71434" lon="5.88657">
        <ele>1133.382088</ele>
        <time>2025-07-10T08:28:02.000Z</time>
      </trkpt>
      <trkpt lat="44.71441" lon="5.88661">
        <ele>1132.878393</ele>
        <time>2025-07-10T08:28:03.000Z</time>
      </trkpt>
      <trkpt lat="44.71448" lon="5.88663">
        <ele>1132.357979</ele>
        <time>2025-07-10T08:28:04.000Z</time>
      </trkpt>
      <trkpt lat="44.71456" lon="5.88665">
        <ele>1131.81721</ele>
        <time>2025-07-10T08:28:05.000Z</time>
      </trkpt>
      <trkpt lat="44.71463" lon="5.88666">
        <ele>1131.262983</ele>
        <time>2025-07-10T08:28:06.000Z</time>
      </trkpt>
      <trkpt lat="44.71471" lon="5.88667">
        <ele>1130.696109</ele>
        <time>2025-07-10T08:28:07.000Z</time>
      </trkpt>
      <trkpt lat="44.7148" lon="5.88668">
        <ele>1130.079118</ele>
        <time>2025-07-10T08:28:08.000Z</time>
      </trkpt>
      <trkpt lat="44.71488" lon="5.88671">
        <ele>1129.484865</ele>
        <time>2025-07-10T08:28:09.000Z</time>
      </trkpt>
      <trkpt lat="44.71496" lon="5.88676">
        <ele>1128.882877</ele>
        <time>2025-07-10T08:28:10.000Z</time>
      </trkpt>
      <trkpt lat="44.71503" lon="5.88682">
        <ele>1128.264047</ele>
        <time>2025-07-10T08:28:11.000Z</time>
      </trkpt>
      <trkpt lat="44.7151" lon="5.8869">
        <ele>1127.631511</ele>
        <time>2025-07-10T08:28:12.000Z</time>
      </trkpt>
      <trkpt lat="44.71517" lon="5.88699">
        <ele>1126.993595</ele>
        <time>2025-07-10T08:28:13.000Z</time>
      </trkpt>
      <trkpt lat="44.71524" lon="5.88707">
        <ele>1126.497465</ele>
        <time>2025-07-10T08:28:14.000Z</time>
      </trkpt>
      <trkpt lat="44.71532" lon="5.88714">
        <ele>1126.043726</ele>
        <time>2025-07-10T08:28:15.000Z</time>
      </trkpt>
      <trkpt lat="44.71539" lon="5.88721">
        <ele>1125.585522</ele>
        <time>2025-07-10T08:28:16.000Z</time>
      </trkpt>
      <trkpt lat="44.71547" lon="5.88727">
        <ele>1125.120081</ele>
        <time>2025-07-10T08:28:17.000Z</time>
      </trkpt>
      <trkpt lat="44.71556" lon="5.88732">
        <ele>1124.666825</ele>
        <time>2025-07-10T08:28:18.000Z</time>
      </trkpt>
      <trkpt lat="44.71564" lon="5.88735">
        <ele>1124.223728</ele>
        <time>2025-07-10T08:28:19.000Z</time>
      </trkpt>
      <trkpt lat="44.71573" lon="5.88736">
        <ele>1123.768706</ele>
        <time>2025-07-10T08:28:20.000Z</time>
      </trkpt>
      <trkpt lat="44.71582" lon="5.88737">
        <ele>1123.2975</ele>
        <time>2025-07-10T08:28:21.000Z</time>
      </trkpt>
      <trkpt lat="44.71591" lon="5.88736">
        <ele>1122.84545</ele>
        <time>2025-07-10T08:28:22.000Z</time>
      </trkpt>
      <trkpt lat="44.716" lon="5.88735">
        <ele>1122.398701</ele>
        <time>2025-07-10T08:28:23.000Z</time>
      </trkpt>
      <trkpt lat="44.71609" lon="5.88734">
        <ele>1121.951125</ele>
        <time>2025-07-10T08:28:24.000Z</time>
      </trkpt>
      <trkpt lat="44.71618" lon="5.88732">
        <ele>1121.494525</ele>
        <time>2025-07-10T08:28:25.000Z</time>
      </trkpt>
      <trkpt lat="44.71626" lon="5.8873">
        <ele>1121.047929</ele>
        <time>2025-07-10T08:28:26.000Z</time>
      </trkpt>
      <trkpt lat="44.71635" lon="5.88728">
        <ele>1120.592907</ele>
        <time>2025-07-10T08:28:27.000Z</time>
      </trkpt>
      <trkpt lat="44.71644" lon="5.88728">
        <ele>1120.136898</ele>
        <time>2025-07-10T08:28:28.000Z</time>
      </trkpt>
      <trkpt lat="44.71653" lon="5.88728">
        <ele>1119.685652</ele>
        <time>2025-07-10T08:28:29.000Z</time>
      </trkpt>
      <trkpt lat="44.71662" lon="5.8873">
        <ele>1119.222263</ele>
        <time>2025-07-10T08:28:30.000Z</time>
      </trkpt>
      <trkpt lat="44.71671" lon="5.88731">
        <ele>1118.7572</ele>
        <time>2025-07-10T08:28:31.000Z</time>
      </trkpt>
      <trkpt lat="44.7168" lon="5.88734">
        <ele>1118.305855</ele>
        <time>2025-07-10T08:28:32.000Z</time>
      </trkpt>
      <trkpt lat="44.71688" lon="5.88738">
        <ele>1117.874524</ele>
        <time>2025-07-10T08:28:33.000Z</time>
      </trkpt>
      <trkpt lat="44.71696" lon="5.88744">
        <ele>1117.417545</ele>
        <time>2025-07-10T08:28:34.000Z</time>
      </trkpt>
      <trkpt lat="44.71703" lon="5.88751">
        <ele>1116.964735</ele>
        <time>2025-07-10T08:28:35.000Z</time>
      </trkpt>
      <trkpt lat="44.7171" lon="5.88758">
        <ele>1116.507334</ele>
        <time>2025-07-10T08:28:36.000Z</time>
      </trkpt>
      <trkpt lat="44.71718" lon="5.88764">
        <ele>1116.032589</ele>
        <time>2025-07-10T08:28:37.000Z</time>
      </trkpt>
      <trkpt lat="44.71727" lon="5.88769">
        <ele>1115.569794</ele>
        <time>2025-07-10T08:28:38.000Z</time>
      </trkpt>
      <trkpt lat="44.71735" lon="5.88774">
        <ele>1115.115749</ele>
        <time>2025-07-10T08:28:39.000Z</time>
      </trkpt>
      <trkpt lat="44.71743" lon="5.88779">
        <ele>1114.630635</ele>
        <time>2025-07-10T08:28:40.000Z</time>
      </trkpt>
      <trkpt lat="44.71751" lon="5.88786">
        <ele>1114.140354</ele>
        <time>2025-07-10T08:28:41.000Z</time>
      </trkpt>
      <trkpt lat="44.71758" lon="5.88795">
        <ele>1113.642474</ele>
        <time>2025-07-10T08:28:42.000Z</time>
      </trkpt>
      <trkpt lat="44.71765" lon="5.88805">
        <ele>1113.157805</ele>
        <time>2025-07-10T08:28:43.000Z</time>
      </trkpt>
      <trkpt lat="44.71771" lon="5.88814">
        <ele>1112.668004</ele>
        <time>2025-07-10T08:28:44.000Z</time>
      </trkpt>
      <trkpt lat="44.71778" lon="5.88823">
        <ele>1112.191324</ele>
        <time>2025-07-10T08:28:45.000Z</time>
      </trkpt>
      <trkpt lat="44.71786" lon="5.8883">
        <ele>1111.702072</ele>
        <time>2025-07-10T08:28:46.000Z</time>
      </trkpt>
      <trkpt lat="44.71795" lon="5.88835">
        <ele>1111.210479</ele>
        <time>2025-07-10T08:28:47.000Z</time>
      </trkpt>
      <trkpt lat="44.71804" lon="5.88835">
        <ele>1110.710579</ele>
        <time>2025-07-10T08:28:48.000Z</time>
      </trkpt>
      <trkpt lat="44.71814" lon="5.88833">
        <ele>1110.197969</ele>
        <time>2025-07-10T08:28:49.000Z</time>
      </trkpt>
      <trkpt lat="44.71824" lon="5.88829">
        <ele>1109.680346</ele>
        <time>2025-07-10T08:28:50.000Z</time>
      </trkpt>
      <trkpt lat="44.71833" lon="5.88825">
        <ele>1109.189733</ele>
        <time>2025-07-10T08:28:51.000Z</time>
      </trkpt>
      <trkpt lat="44.71841" lon="5.88823">
        <ele>1108.766706</ele>
        <time>2025-07-10T08:28:52.000Z</time>
      </trkpt>
      <trkpt lat="44.71847" lon="5.88829">
        <ele>1108.362885</ele>
        <time>2025-07-10T08:28:53.000Z</time>
      </trkpt>
      <trkpt lat="44.71853" lon="5.88839">
        <ele>1108.015437</ele>
        <time>2025-07-10T08:28:54.000Z</time>
      </trkpt>
      <trkpt lat="44.71857" lon="5.88849">
        <ele>1107.667544</ele>
        <time>2025-07-10T08:28:55.000Z</time>
      </trkpt>
      <trkpt lat="44.71861" lon="5.8886">
        <ele>1107.317883</ele>
        <time>2025-07-10T08:28:56.000Z</time>
      </trkpt>
      <trkpt lat="44.71865" lon="5.88871">
        <ele>1106.971962</ele>
        <time>2025-07-10T08:28:57.000Z</time>
      </trkpt>
      <trkpt lat="44.7187" lon="5.88881">
        <ele>1106.618257</ele>
        <time>2025-07-10T08:28:58.000Z</time>
      </trkpt>
      <trkpt lat="44.71875" lon="5.88892">
        <ele>1106.259368</ele>
        <time>2025-07-10T08:28:59.000Z</time>
      </trkpt>
      <trkpt lat="44.71879" lon="5.88903">
        <ele>1105.892644</ele>
        <time>2025-07-10T08:29:00.000Z</time>
      </trkpt>
      <trkpt lat="44.71883" lon="5.88914">
        <ele>1105.53421</ele>
        <time>2025-07-10T08:29:01.000Z</time>
      </trkpt>
      <trkpt lat="44.71888" lon="5.88925">
        <ele>1105.173873</ele>
        <time>2025-07-10T08:29:02.000Z</time>
      </trkpt>
      <trkpt lat="44.71892" lon="5.88936">
        <ele>1104.824979</ele>
        <time>2025-07-10T08:29:03.000Z</time>
      </trkpt>
      <trkpt lat="44.71897" lon="5.88946">
        <ele>1104.478655</ele>
        <time>2025-07-10T08:29:04.000Z</time>
      </trkpt>
      <trkpt lat="44.71902" lon="5.88955">
        <ele>1104.137015</ele>
        <time>2025-07-10T08:29:05.000Z</time>
      </trkpt>
      <trkpt lat="44.71907" lon="5.88965">
        <ele>1103.80243</ele>
        <time>2025-07-10T08:29:06.000Z</time>
      </trkpt>
      <trkpt lat="44.71912" lon="5.88974">
        <ele>1103.464858</ele>
        <time>2025-07-10T08:29:07.000Z</time>
      </trkpt>
      <trkpt lat="44.71918" lon="5.88983">
        <ele>1103.137749</ele>
        <time>2025-07-10T08:29:08.000Z</time>
      </trkpt>
      <trkpt lat="44.71923" lon="5.88991">
        <ele>1102.815431</ele>
        <time>2025-07-10T08:29:09.000Z</time>
      </trkpt>
      <trkpt lat="44.71928" lon="5.89">
        <ele>1102.498346</ele>
        <time>2025-07-10T08:29:10.000Z</time>
      </trkpt>
      <trkpt lat="44.71933" lon="5.89008">
        <ele>1102.186025</ele>
        <time>2025-07-10T08:29:11.000Z</time>
      </trkpt>
      <trkpt lat="44.71938" lon="5.89017">
        <ele>1101.867371</ele>
        <time>2025-07-10T08:29:12.000Z</time>
      </trkpt>
      <trkpt lat="44.71943" lon="5.89025">
        <ele>1101.562964</ele>
        <time>2025-07-10T08:29:13.000Z</time>
      </trkpt>
      <trkpt lat="44.71948" lon="5.89034">
        <ele>1101.250996</ele>
        <time>2025-07-10T08:29:14.000Z</time>
      </trkpt>
      <trkpt lat="44.71952" lon="5.89043">
        <ele>1100.970729</ele>
        <time>2025-07-10T08:29:15.000Z</time>
      </trkpt>
      <trkpt lat="44.71957" lon="5.89051">
        <ele>1100.696106</ele>
        <time>2025-07-10T08:29:16.000Z</time>
      </trkpt>
      <trkpt lat="44.71963" lon="5.8906">
        <ele>1100.412372</ele>
        <time>2025-07-10T08:29:17.000Z</time>
      </trkpt>
      <trkpt lat="44.71968" lon="5.89068">
        <ele>1100.132851</ele>
        <time>2025-07-10T08:29:18.000Z</time>
      </trkpt>
      <trkpt lat="44.71973" lon="5.89077">
        <ele>1099.848187</ele>
        <time>2025-07-10T08:29:19.000Z</time>
      </trkpt>
      <trkpt lat="44.71978" lon="5.89086">
        <ele>1099.555423</ele>
        <time>2025-07-10T08:29:20.000Z</time>
      </trkpt>
      <trkpt lat="44.71983" lon="5.89096">
        <ele>1099.262826</ele>
        <time>2025-07-10T08:29:21.000Z</time>
      </trkpt>
      <trkpt lat="44.71987" lon="5.89105">
        <ele>1098.974443</ele>
        <time>2025-07-10T08:29:22.000Z</time>
      </trkpt>
      <trkpt lat="44.71992" lon="5.89115">
        <ele>1098.677878</ele>
        <time>2025-07-10T08:29:23.000Z</time>
      </trkpt>
      <trkpt lat="44.71997" lon="5.89124">
        <ele>1098.380961</ele>
        <time>2025-07-10T08:29:24.000Z</time>
      </trkpt>
      <trkpt lat="44.72003" lon="5.89133">
        <ele>1098.089923</ele>
        <time>2025-07-10T08:29:25.000Z</time>
      </trkpt>
      <trkpt lat="44.72009" lon="5.89142">
        <ele>1097.787527</ele>
        <time>2025-07-10T08:29:26.000Z</time>
      </trkpt>
      <trkpt lat="44.72015" lon="5.8915">
        <ele>1097.482648</ele>
        <time>2025-07-10T08:29:27.000Z</time>
      </trkpt>
      <trkpt lat="44.72021" lon="5.89158">
        <ele>1097.189653</ele>
        <time>2025-07-10T08:29:28.000Z</time>
      </trkpt>
      <trkpt lat="44.72027" lon="5.89166">
        <ele>1096.890031</ele>
        <time>2025-07-10T08:29:29.000Z</time>
      </trkpt>
      <trkpt lat="44.72033" lon="5.89173">
        <ele>1096.60135</ele>
        <time>2025-07-10T08:29:30.000Z</time>
      </trkpt>
      <trkpt lat="44.7204" lon="5.89181">
        <ele>1096.306717</ele>
        <time>2025-07-10T08:29:31.000Z</time>
      </trkpt>
      <trkpt lat="44.72046" lon="5.89189">
        <ele>1096.019048</ele>
        <time>2025-07-10T08:29:32.000Z</time>
      </trkpt>
      <trkpt lat="44.72052" lon="5.89197">
        <ele>1095.729758</ele>
        <time>2025-07-10T08:29:33.000Z</time>
      </trkpt>
      <trkpt lat="44.72058" lon="5.89204">
        <ele>1095.441606</ele>
        <time>2025-07-10T08:29:34.000Z</time>
      </trkpt>
      <trkpt lat="44.72064" lon="5.89211">
        <ele>1095.163186</ele>
        <time>2025-07-10T08:29:35.000Z</time>
      </trkpt>
      <trkpt lat="44.7207" lon="5.89218">
        <ele>1094.887995</ele>
        <time>2025-07-10T08:29:36.000Z</time>
      </trkpt>
      <trkpt lat="44.72076" lon="5.89225">
        <ele>1094.722538</ele>
        <time>2025-07-10T08:29:37.000Z</time>
      </trkpt>
      <trkpt lat="44.72082" lon="5.89232">
        <ele>1094.564047</ele>
        <time>2025-07-10T08:29:38.000Z</time>
      </trkpt>
      <trkpt lat="44.72088" lon="5.89238">
        <ele>1094.40827</ele>
        <time>2025-07-10T08:29:39.000Z</time>
      </trkpt>
      <trkpt lat="44.72094" lon="5.89245">
        <ele>1094.255014</ele>
        <time>2025-07-10T08:29:40.000Z</time>
      </trkpt>
      <trkpt lat="44.721" lon="5.89251">
        <ele>1094.102647</ele>
        <time>2025-07-10T08:29:41.000Z</time>
      </trkpt>
      <trkpt lat="44.72106" lon="5.89257">
        <ele>1093.953682</ele>
        <time>2025-07-10T08:29:42.000Z</time>
      </trkpt>
      <trkpt lat="44.72111" lon="5.89263">
        <ele>1093.80724</ele>
        <time>2025-07-10T08:29:43.000Z</time>
      </trkpt>
      <trkpt lat="44.72117" lon="5.89269">
        <ele>1093.659145</ele>
        <time>2025-07-10T08:29:44.000Z</time>
      </trkpt>
      <trkpt lat="44.72123" lon="5.89275">
        <ele>1093.512704</ele>
        <time>2025-07-10T08:29:45.000Z</time>
      </trkpt>
      <trkpt lat="44.72128" lon="5.89281">
        <ele>1093.374703</ele>
        <time>2025-07-10T08:29:46.000Z</time>
      </trkpt>
      <trkpt lat="44.72134" lon="5.89286">
        <ele>1093.235042</ele>
        <time>2025-07-10T08:29:47.000Z</time>
      </trkpt>
      <trkpt lat="44.72139" lon="5.89291">
        <ele>1093.096202</ele>
        <time>2025-07-10T08:29:48.000Z</time>
      </trkpt>
      <trkpt lat="44.72145" lon="5.89297">
        <ele>1092.964111</ele>
        <time>2025-07-10T08:29:49.000Z</time>
      </trkpt>
      <trkpt lat="44.7215" lon="5.89302">
        <ele>1092.83284</ele>
        <time>2025-07-10T08:29:50.000Z</time>
      </trkpt>
      <trkpt lat="44.72156" lon="5.89307">
        <ele>1092.696399</ele>
        <time>2025-07-10T08:29:51.000Z</time>
      </trkpt>
      <trkpt lat="44.72161" lon="5.89312">
        <ele>1092.558216</ele>
        <time>2025-07-10T08:29:52.000Z</time>
      </trkpt>
      <trkpt lat="44.72167" lon="5.89317">
        <ele>1092.421079</ele>
        <time>2025-07-10T08:29:53.000Z</time>
      </trkpt>
      <trkpt lat="44.72172" lon="5.89322">
        <ele>1092.285415</ele>
        <time>2025-07-10T08:29:54.000Z</time>
      </trkpt>
      <trkpt lat="44.72178" lon="5.89327">
        <ele>1092.145482</ele>
        <time>2025-07-10T08:29:55.000Z</time>
      </trkpt>
      <trkpt lat="44.72184" lon="5.89332">
        <ele>1092.008345</ele>
        <time>2025-07-10T08:29:56.000Z</time>
      </trkpt>
      <trkpt lat="44.72189" lon="5.89337">
        <ele>1091.873731</ele>
        <time>2025-07-10T08:29:57.000Z</time>
      </trkpt>
      <trkpt lat="44.72194" lon="5.89343">
        <ele>1091.741061</ele>
        <time>2025-07-10T08:29:58.000Z</time>
      </trkpt>
      <trkpt lat="44.72198" lon="5.8935">
        <ele>1091.60908</ele>
        <time>2025-07-10T08:29:59.000Z</time>
      </trkpt>
      <trkpt lat="44.72202" lon="5.89357">
        <ele>1091.482616</ele>
        <time>2025-07-10T08:30:00.000Z</time>
      </trkpt>
      <trkpt lat="44.72206" lon="5.89364">
        <ele>1091.351429</ele>
        <time>2025-07-10T08:30:01.000Z</time>
      </trkpt>
      <trkpt lat="44.7221" lon="5.89371">
        <ele>1091.21667</ele>
        <time>2025-07-10T08:30:02.000Z</time>
      </trkpt>
      <trkpt lat="44.72214" lon="5.89379">
        <ele>1091.061732</ele>
        <time>2025-07-10T08:30:03.000Z</time>
      </trkpt>
      <trkpt lat="44.72218" lon="5.89385">
        <ele>1090.898736</ele>
        <time>2025-07-10T08:30:04.000Z</time>
      </trkpt>
      <trkpt lat="44.72223" lon="5.89392">
        <ele>1090.739298</ele>
        <time>2025-07-10T08:30:05.000Z</time>
      </trkpt>
      <trkpt lat="44.72227" lon="5.89399">
        <ele>1090.578569</ele>
        <time>2025-07-10T08:30:06.000Z</time>
      </trkpt>
      <trkpt lat="44.72231" lon="5.89406">
        <ele>1090.422122</ele>
        <time>2025-07-10T08:30:07.000Z</time>
      </trkpt>
      <trkpt lat="44.72234" lon="5.89413">
        <ele>1090.263401</ele>
        <time>2025-07-10T08:30:08.000Z</time>
      </trkpt>
      <trkpt lat="44.72237" lon="5.89421">
        <ele>1090.105551</ele>
        <time>2025-07-10T08:30:09.000Z</time>
      </trkpt>
      <trkpt lat="44.72239" lon="5.8943">
        <ele>1089.947702</ele>
        <time>2025-07-10T08:30:10.000Z</time>
      </trkpt>
      <trkpt lat="44.72242" lon="5.89438">
        <ele>1089.789325</ele>
        <time>2025-07-10T08:30:11.000Z</time>
      </trkpt>
      <trkpt lat="44.72245" lon="5.89445">
        <ele>1089.632151</ele>
        <time>2025-07-10T08:30:12.000Z</time>
      </trkpt>
      <trkpt lat="44.72249" lon="5.89452">
        <ele>1089.474345</ele>
        <time>2025-07-10T08:30:13.000Z</time>
      </trkpt>
      <trkpt lat="44.72253" lon="5.89459">
        <ele>1089.319305</ele>
        <time>2025-07-10T08:30:14.000Z</time>
      </trkpt>
      <trkpt lat="44.72256" lon="5.89466">
        <ele>1089.162722</ele>
        <time>2025-07-10T08:30:15.000Z</time>
      </trkpt>
      <trkpt lat="44.72261" lon="5.89473">
        <ele>1089.008361</ele>
        <time>2025-07-10T08:30:16.000Z</time>
      </trkpt>
      <trkpt lat="44.72265" lon="5.89479">
        <ele>1088.855649</ele>
        <time>2025-07-10T08:30:17.000Z</time>
      </trkpt>
      <trkpt lat="44.72268" lon="5.89487">
        <ele>1088.694951</ele>
        <time>2025-07-10T08:30:18.000Z</time>
      </trkpt>
      <trkpt lat="44.72272" lon="5.89494">
        <ele>1088.532749</ele>
        <time>2025-07-10T08:30:19.000Z</time>
      </trkpt>
      <trkpt lat="44.72276" lon="5.89501">
        <ele>1088.373465</ele>
        <time>2025-07-10T08:30:20.000Z</time>
      </trkpt>
      <trkpt lat="44.7228" lon="5.89509">
        <ele>1088.205531</ele>
        <time>2025-07-10T08:30:21.000Z</time>
      </trkpt>
      <trkpt lat="44.72284" lon="5.89517">
        <ele>1088.030349</ele>
        <time>2025-07-10T08:30:22.000Z</time>
      </trkpt>
      <trkpt lat="44.72288" lon="5.89525">
        <ele>1087.859465</ele>
        <time>2025-07-10T08:30:23.000Z</time>
      </trkpt>
      <trkpt lat="44.72292" lon="5.89532">
        <ele>1087.685537</ele>
        <time>2025-07-10T08:30:24.000Z</time>
      </trkpt>
      <trkpt lat="44.72297" lon="5.8954">
        <ele>1087.510198</ele>
        <time>2025-07-10T08:30:25.000Z</time>
      </trkpt>
      <trkpt lat="44.72302" lon="5.89546">
        <ele>1087.340069</ele>
        <time>2025-07-10T08:30:26.000Z</time>
      </trkpt>
      <trkpt lat="44.72307" lon="5.89552">
        <ele>1087.171355</ele>
        <time>2025-07-10T08:30:27.000Z</time>
      </trkpt>
      <trkpt lat="44.72313" lon="5.89557">
        <ele>1087.000673</ele>
        <time>2025-07-10T08:30:28.000Z</time>
      </trkpt>
      <trkpt lat="44.72319" lon="5.89562">
        <ele>1086.831851</ele>
        <time>2025-07-10T08:30:29.000Z</time>
      </trkpt>
      <trkpt lat="44.72325" lon="5.89567">
        <ele>1086.662195</ele>
        <time>2025-07-10T08:30:30.000Z</time>
      </trkpt>
      <trkpt lat="44.72331" lon="5.89571">
        <ele>1086.492093</ele>
        <time>2025-07-10T08:30:31.000Z</time>
      </trkpt>
      <trkpt lat="44.72337" lon="5.89575">
        <ele>1086.32141</ele>
        <time>2025-07-10T08:30:32.000Z</time>
      </trkpt>
      <trkpt lat="44.72343" lon="5.89579">
        <ele>1086.148191</ele>
        <time>2025-07-10T08:30:33.000Z</time>
      </trkpt>
      <trkpt lat="44.72349" lon="5.89582">
        <ele>1085.973352</ele>
        <time>2025-07-10T08:30:34.000Z</time>
      </trkpt>
      <trkpt lat="44.72356" lon="5.89585">
        <ele>1085.799085</ele>
        <time>2025-07-10T08:30:35.000Z</time>
      </trkpt>
      <trkpt lat="44.72362" lon="5.89588">
        <ele>1085.623657</ele>
        <time>2025-07-10T08:30:36.000Z</time>
      </trkpt>
      <trkpt lat="44.72369" lon="5.89592">
        <ele>1085.447</ele>
        <time>2025-07-10T08:30:37.000Z</time>
      </trkpt>
      <trkpt lat="44.72375" lon="5.89595">
        <ele>1085.273781</ele>
        <time>2025-07-10T08:30:38.000Z</time>
      </trkpt>
      <trkpt lat="44.72381" lon="5.896">
        <ele>1085.102253</ele>
        <time>2025-07-10T08:30:39.000Z</time>
      </trkpt>
      <trkpt lat="44.72387" lon="5.89604">
        <ele>1084.933816</ele>
        <time>2025-07-10T08:30:40.000Z</time>
      </trkpt>
      <trkpt lat="44.72394" lon="5.89608">
        <ele>1084.750743</ele>
        <time>2025-07-10T08:30:41.000Z</time>
      </trkpt>
      <trkpt lat="44.724" lon="5.89613">
        <ele>1084.572371</ele>
        <time>2025-07-10T08:30:42.000Z</time>
      </trkpt>
      <trkpt lat="44.72406" lon="5.89617">
        <ele>1084.391644</ele>
        <time>2025-07-10T08:30:43.000Z</time>
      </trkpt>
      <trkpt lat="44.72413" lon="5.8962">
        <ele>1084.217031</ele>
        <time>2025-07-10T08:30:44.000Z</time>
      </trkpt>
      <trkpt lat="44.72419" lon="5.89625">
        <ele>1084.038659</ele>
        <time>2025-07-10T08:30:45.000Z</time>
      </trkpt>
      <trkpt lat="44.72425" lon="5.89629">
        <ele>1083.854912</ele>
        <time>2025-07-10T08:30:46.000Z</time>
      </trkpt>
      <trkpt lat="44.72432" lon="5.89633">
        <ele>1083.673927</ele>
        <time>2025-07-10T08:30:47.000Z</time>
      </trkpt>
      <trkpt lat="44.72439" lon="5.89637">
        <ele>1083.490863</ele>
        <time>2025-07-10T08:30:48.000Z</time>
      </trkpt>
      <trkpt lat="44.72445" lon="5.8964">
        <ele>1083.315945</ele>
        <time>2025-07-10T08:30:49.000Z</time>
      </trkpt>
      <trkpt lat="44.72452" lon="5.89644">
        <ele>1083.137513</ele>
        <time>2025-07-10T08:30:50.000Z</time>
      </trkpt>
      <trkpt lat="44.72458" lon="5.89647">
        <ele>1082.966263</ele>
        <time>2025-07-10T08:30:51.000Z</time>
      </trkpt>
      <trkpt lat="44.72465" lon="5.8965">
        <ele>1082.783603</ele>
        <time>2025-07-10T08:30:52.000Z</time>
      </trkpt>
      <trkpt lat="44.72472" lon="5.89653">
        <ele>1082.602059</ele>
        <time>2025-07-10T08:30:53.000Z</time>
      </trkpt>
      <trkpt lat="44.72478" lon="5.89656">
        <ele>1082.425477</ele>
        <time>2025-07-10T08:30:54.000Z</time>
      </trkpt>
      <trkpt lat="44.72485" lon="5.89658">
        <ele>1082.242536</ele>
        <time>2025-07-10T08:30:55.000Z</time>
      </trkpt>
      <trkpt lat="44.72492" lon="5.89661">
        <ele>1082.053318</ele>
        <time>2025-07-10T08:30:56.000Z</time>
      </trkpt>
      <trkpt lat="44.72499" lon="5.89663">
        <ele>1081.798438</ele>
        <time>2025-07-10T08:30:57.000Z</time>
      </trkpt>
      <trkpt lat="44.72506" lon="5.89665">
        <ele>1081.551675</ele>
        <time>2025-07-10T08:30:58.000Z</time>
      </trkpt>
      <trkpt lat="44.72513" lon="5.89666">
        <ele>1081.268893</ele>
        <time>2025-07-10T08:30:59.000Z</time>
      </trkpt>
      <trkpt lat="44.72521" lon="5.89667">
        <ele>1080.981413</ele>
        <time>2025-07-10T08:31:00.000Z</time>
      </trkpt>
      <trkpt lat="44.72529" lon="5.89668">
        <ele>1080.699505</ele>
        <time>2025-07-10T08:31:01.000Z</time>
      </trkpt>
      <trkpt lat="44.72537" lon="5.89669">
        <ele>1080.412026</ele>
        <time>2025-07-10T08:31:02.000Z</time>
      </trkpt>
      <trkpt lat="44.72545" lon="5.89671">
        <ele>1080.128849</ele>
        <time>2025-07-10T08:31:03.000Z</time>
      </trkpt>
      <trkpt lat="44.72553" lon="5.89673">
        <ele>1079.826968</ele>
        <time>2025-07-10T08:31:04.000Z</time>
      </trkpt>
      <trkpt lat="44.72561" lon="5.89678">
        <ele>1079.520221</ele>
        <time>2025-07-10T08:31:05.000Z</time>
      </trkpt>
      <trkpt lat="44.72569" lon="5.89682">
        <ele>1079.220495</ele>
        <time>2025-07-10T08:31:06.000Z</time>
      </trkpt>
      <trkpt lat="44.72576" lon="5.89687">
        <ele>1078.919739</ele>
        <time>2025-07-10T08:31:07.000Z</time>
      </trkpt>
      <trkpt lat="44.72584" lon="5.89691">
        <ele>1078.612382</ele>
        <time>2025-07-10T08:31:08.000Z</time>
      </trkpt>
      <trkpt lat="44.72592" lon="5.89695">
        <ele>1078.302255</ele>
        <time>2025-07-10T08:31:09.000Z</time>
      </trkpt>
      <trkpt lat="44.72599" lon="5.89699">
        <ele>1078.028513</ele>
        <time>2025-07-10T08:31:10.000Z</time>
      </trkpt>
      <trkpt lat="44.72605" lon="5.89704">
        <ele>1077.77459</ele>
        <time>2025-07-10T08:31:11.000Z</time>
      </trkpt>
      <trkpt lat="44.72612" lon="5.89709">
        <ele>1077.493948</ele>
        <time>2025-07-10T08:31:12.000Z</time>
      </trkpt>
      <trkpt lat="44.7262" lon="5.89712">
        <ele>1077.188029</ele>
        <time>2025-07-10T08:31:13.000Z</time>
      </trkpt>
      <trkpt lat="44.72628" lon="5.89716">
        <ele>1076.89002</ele>
        <time>2025-07-10T08:31:14.000Z</time>
      </trkpt>
      <trkpt lat="44.72637" lon="5.89718">
        <ele>1076.566867</ele>
        <time>2025-07-10T08:31:15.000Z</time>
      </trkpt>
      <trkpt lat="44.72646" lon="5.8972">
        <ele>1076.252565</ele>
        <time>2025-07-10T08:31:16.000Z</time>
      </trkpt>
      <trkpt lat="44.72655" lon="5.89722">
        <ele>1075.913972</ele>
        <time>2025-07-10T08:31:17.000Z</time>
      </trkpt>
      <trkpt lat="44.72664" lon="5.89724">
        <ele>1075.575191</ele>
        <time>2025-07-10T08:31:18.000Z</time>
      </trkpt>
      <trkpt lat="44.72674" lon="5.89725">
        <ele>1075.1421</ele>
        <time>2025-07-10T08:31:19.000Z</time>
      </trkpt>
      <trkpt lat="44.72683" lon="5.89727">
        <ele>1074.71177</ele>
        <time>2025-07-10T08:31:20.000Z</time>
      </trkpt>
      <trkpt lat="44.72693" lon="5.89728">
        <ele>1074.271941</ele>
        <time>2025-07-10T08:31:21.000Z</time>
      </trkpt>
      <trkpt lat="44.72702" lon="5.89729">
        <ele>1073.84019</ele>
        <time>2025-07-10T08:31:22.000Z</time>
      </trkpt>
      <trkpt lat="44.72711" lon="5.8973">
        <ele>1073.427821</ele>
        <time>2025-07-10T08:31:23.000Z</time>
      </trkpt>
      <trkpt lat="44.7272" lon="5.8973">
        <ele>1073.024753</ele>
        <time>2025-07-10T08:31:24.000Z</time>
      </trkpt>
      <trkpt lat="44.72729" lon="5.89731">
        <ele>1072.612635</ele>
        <time>2025-07-10T08:31:25.000Z</time>
      </trkpt>
      <trkpt lat="44.72738" lon="5.8973">
        <ele>1072.195398</ele>
        <time>2025-07-10T08:31:26.000Z</time>
      </trkpt>
      <trkpt lat="44.72748" lon="5.89729">
        <ele>1071.756133</ele>
        <time>2025-07-10T08:31:27.000Z</time>
      </trkpt>
      <trkpt lat="44.72758" lon="5.8973">
        <ele>1071.330333</ele>
        <time>2025-07-10T08:31:28.000Z</time>
      </trkpt>
      <trkpt lat="44.72767" lon="5.89731">
        <ele>1070.894821</ele>
        <time>2025-07-10T08:31:29.000Z</time>
      </trkpt>
      <trkpt lat="44.72776" lon="5.89733">
        <ele>1070.488451</ele>
        <time>2025-07-10T08:31:30.000Z</time>
      </trkpt>
      <trkpt lat="44.72785" lon="5.89734">
        <ele>1070.094169</ele>
        <time>2025-07-10T08:31:31.000Z</time>
      </trkpt>
      <trkpt lat="44.72794" lon="5.89733">
        <ele>1069.672597</ele>
        <time>2025-07-10T08:31:32.000Z</time>
      </trkpt>
      <trkpt lat="44.72803" lon="5.89732">
        <ele>1069.251026</ele>
        <time>2025-07-10T08:31:33.000Z</time>
      </trkpt>
      <trkpt lat="44.72812" lon="5.89731">
        <ele>1068.851393</ele>
        <time>2025-07-10T08:31:34.000Z</time>
      </trkpt>
      <trkpt lat="44.72821" lon="5.89729">
        <ele>1068.424635</ele>
        <time>2025-07-10T08:31:35.000Z</time>
      </trkpt>
      <trkpt lat="44.7283" lon="5.89726">
        <ele>1068.01252</ele>
        <time>2025-07-10T08:31:36.000Z</time>
      </trkpt>
      <trkpt lat="44.7284" lon="5.89725">
        <ele>1067.577673</ele>
        <time>2025-07-10T08:31:37.000Z</time>
      </trkpt>
      <trkpt lat="44.7285" lon="5.89727">
        <ele>1067.095115</ele>
        <time>2025-07-10T08:31:38.000Z</time>
      </trkpt>
      <trkpt lat="44.7286" lon="5.8973">
        <ele>1066.627639</ele>
        <time>2025-07-10T08:31:39.000Z</time>
      </trkpt>
      <trkpt lat="44.7287" lon="5.89734">
        <ele>1066.155387</ele>
        <time>2025-07-10T08:31:40.000Z</time>
      </trkpt>
      <trkpt lat="44.72879" lon="5.89737">
        <ele>1065.679117</ele>
        <time>2025-07-10T08:31:41.000Z</time>
      </trkpt>
      <trkpt lat="44.7289" lon="5.89739">
        <ele>1065.199667</ele>
        <time>2025-07-10T08:31:42.000Z</time>
      </trkpt>
      <trkpt lat="44.72899" lon="5.89738">
        <ele>1064.754928</ele>
        <time>2025-07-10T08:31:43.000Z</time>
      </trkpt>
      <trkpt lat="44.72908" lon="5.89739">
        <ele>1064.333595</ele>
        <time>2025-07-10T08:31:44.000Z</time>
      </trkpt>
      <trkpt lat="44.72917" lon="5.89735">
        <ele>1063.9064</ele>
        <time>2025-07-10T08:31:45.000Z</time>
      </trkpt>
      <trkpt lat="44.72926" lon="5.8973">
        <ele>1063.45466</ele>
        <time>2025-07-10T08:31:46.000Z</time>
      </trkpt>
      <trkpt lat="44.72934" lon="5.89725">
        <ele>1063.025206</ele>
        <time>2025-07-10T08:31:47.000Z</time>
      </trkpt>
      <trkpt lat="44.72942" lon="5.89719">
        <ele>1062.59928</ele>
        <time>2025-07-10T08:31:48.000Z</time>
      </trkpt>
      <trkpt lat="44.7295" lon="5.89712">
        <ele>1062.184688</ele>
        <time>2025-07-10T08:31:49.000Z</time>
      </trkpt>
      <trkpt lat="44.72958" lon="5.89706">
        <ele>1061.753921</ele>
        <time>2025-07-10T08:31:50.000Z</time>
      </trkpt>
      <trkpt lat="44.72966" lon="5.897">
        <ele>1061.317124</ele>
        <time>2025-07-10T08:31:51.000Z</time>
      </trkpt>
      <trkpt lat="44.72974" lon="5.89695">
        <ele>1060.900361</ele>
        <time>2025-07-10T08:31:52.000Z</time>
      </trkpt>
      <trkpt lat="44.72983" lon="5.8969">
        <ele>1060.472846</ele>
        <time>2025-07-10T08:31:53.000Z</time>
      </trkpt>
      <trkpt lat="44.72991" lon="5.89686">
        <ele>1060.067234</ele>
        <time>2025-07-10T08:31:54.000Z</time>
      </trkpt>
      <trkpt lat="44.73" lon="5.89684">
        <ele>1059.649448</ele>
        <time>2025-07-10T08:31:55.000Z</time>
      </trkpt>
      <trkpt lat="44.73008" lon="5.8968">
        <ele>1059.255243</ele>
        <time>2025-07-10T08:31:56.000Z</time>
      </trkpt>
      <trkpt lat="44.73014" lon="5.89676">
        <ele>1058.922749</ele>
        <time>2025-07-10T08:31:57.000Z</time>
      </trkpt>
      <trkpt lat="44.73022" lon="5.89672">
        <ele>1058.545958</ele>
        <time>2025-07-10T08:31:58.000Z</time>
      </trkpt>
      <trkpt lat="44.7303" lon="5.89668">
        <ele>1058.138069</ele>
        <time>2025-07-10T08:31:59.000Z</time>
      </trkpt>
      <trkpt lat="44.73038" lon="5.89663">
        <ele>1057.718244</ele>
        <time>2025-07-10T08:32:00.000Z</time>
      </trkpt>
      <trkpt lat="44.73045" lon="5.89658">
        <ele>1057.362372</ele>
        <time>2025-07-10T08:32:01.000Z</time>
      </trkpt>
      <trkpt lat="44.73053" lon="5.89655">
        <ele>1056.950683</ele>
        <time>2025-07-10T08:32:02.000Z</time>
      </trkpt>
      <trkpt lat="44.73063" lon="5.89652">
        <ele>1056.496343</ele>
        <time>2025-07-10T08:32:03.000Z</time>
      </trkpt>
      <trkpt lat="44.73073" lon="5.89649">
        <ele>1056.02128</ele>
        <time>2025-07-10T08:32:04.000Z</time>
      </trkpt>
      <trkpt lat="44.73082" lon="5.89646">
        <ele>1055.571226</ele>
        <time>2025-07-10T08:32:05.000Z</time>
      </trkpt>
      <trkpt lat="44.73091" lon="5.89644">
        <ele>1055.127623</ele>
        <time>2025-07-10T08:32:06.000Z</time>
      </trkpt>
      <trkpt lat="44.73101" lon="5.89642">
        <ele>1054.676352</ele>
        <time>2025-07-10T08:32:07.000Z</time>
      </trkpt>
      <trkpt lat="44.7311" lon="5.89641">
        <ele>1054.256624</ele>
        <time>2025-07-10T08:32:08.000Z</time>
      </trkpt>
      <trkpt lat="44.73118" lon="5.8964">
        <ele>1053.869645</ele>
        <time>2025-07-10T08:32:09.000Z</time>
      </trkpt>
      <trkpt lat="44.73126" lon="5.89639">
        <ele>1053.484051</ele>
        <time>2025-07-10T08:32:10.000Z</time>
      </trkpt>
      <trkpt lat="44.73134" lon="5.89639">
        <ele>1053.107266</ele>
        <time>2025-07-10T08:32:11.000Z</time>
      </trkpt>
      <trkpt lat="44.73142" lon="5.89638">
        <ele>1052.754145</ele>
        <time>2025-07-10T08:32:12.000Z</time>
      </trkpt>
      <trkpt lat="44.73149" lon="5.89637">
        <ele>1052.403369</ele>
        <time>2025-07-10T08:32:13.000Z</time>
      </trkpt>
      <trkpt lat="44.73156" lon="5.89635">
        <ele>1052.082924</ele>
        <time>2025-07-10T08:32:14.000Z</time>
      </trkpt>
      <trkpt lat="44.73162" lon="5.89633">
        <ele>1051.781563</ele>
        <time>2025-07-10T08:32:15.000Z</time>
      </trkpt>
      <trkpt lat="44.73168" lon="5.89632">
        <ele>1051.506153</ele>
        <time>2025-07-10T08:32:16.000Z</time>
      </trkpt>
      <trkpt lat="44.73173" lon="5.89631">
        <ele>1051.24742</ele>
        <time>2025-07-10T08:32:17.000Z</time>
      </trkpt>
      <trkpt lat="44.73179" lon="5.89631">
        <ele>1051.007731</ele>
        <time>2025-07-10T08:32:18.000Z</time>
      </trkpt>
      <trkpt lat="44.73183" lon="5.89632">
        <ele>1050.810163</ele>
        <time>2025-07-10T08:32:19.000Z</time>
      </trkpt>
      <trkpt lat="44.73186" lon="5.89634">
        <ele>1050.65786</ele>
        <time>2025-07-10T08:32:20.000Z</time>
      </trkpt>
      <trkpt lat="44.73186" lon="5.89638">
        <ele>1050.524163</ele>
        <time>2025-07-10T08:32:21.000Z</time>
      </trkpt>
      <trkpt lat="44.73186" lon="5.89641">
        <ele>1050.408867</ele>
        <time>2025-07-10T08:32:22.000Z</time>
      </trkpt>
      <trkpt lat="44.73185" lon="5.89643">
        <ele>1050.326679</ele>
        <time>2025-07-10T08:32:23.000Z</time>
      </trkpt>
      <trkpt lat="44.73185" lon="5.89645">
        <ele>1050.281228</ele>
        <time>2025-07-10T08:32:24.000Z</time>
      </trkpt>
      <trkpt lat="44.73185" lon="5.89643">
        <ele>1050.230715</ele>
        <time>2025-07-10T08:33:05.000Z</time>
      </trkpt>
      <trkpt lat="44.73185" lon="5.89642">
        <ele>1050.17086</ele>
        <time>2025-07-10T08:33:06.000Z</time>
      </trkpt>
      <trkpt lat="44.73186" lon="5.89641">
        <ele>1050.11571</ele>
        <time>2025-07-10T08:33:07.000Z</time>
      </trkpt>
      <trkpt lat="44.73187" lon="5.89641">
        <ele>1050.057589</ele>
        <time>2025-07-10T08:33:08.000Z</time>
      </trkpt>
      <trkpt lat="44.73188" lon="5.89642">
        <ele>1049.982077</ele>
        <time>2025-07-10T08:33:09.000Z</time>
      </trkpt>
      <trkpt lat="44.7319" lon="5.89642">
        <ele>1049.900308</ele>
        <time>2025-07-10T08:33:10.000Z</time>
      </trkpt>
      <trkpt lat="44.73192" lon="5.89641">
        <ele>1049.812061</ele>
        <time>2025-07-10T08:33:11.000Z</time>
      </trkpt>
      <trkpt lat="44.73194" lon="5.8964">
        <ele>1049.730392</ele>
        <time>2025-07-10T08:33:12.000Z</time>
      </trkpt>
      <trkpt lat="44.73195" lon="5.89639">
        <ele>1049.644745</ele>
        <time>2025-07-10T08:33:13.000Z</time>
      </trkpt>
      <trkpt lat="44.73197" lon="5.89638">
        <ele>1049.557385</ele>
        <time>2025-07-10T08:33:14.000Z</time>
      </trkpt>
      <trkpt lat="44.73199" lon="5.89637">
        <ele>1049.455299</ele>
        <time>2025-07-10T08:33:15.000Z</time>
      </trkpt>
      <trkpt lat="44.73201" lon="5.89636">
        <ele>1049.341814</ele>
        <time>2025-07-10T08:33:16.000Z</time>
      </trkpt>
      <trkpt lat="44.73203" lon="5.89635">
        <ele>1049.219311</ele>
        <time>2025-07-10T08:33:17.000Z</time>
      </trkpt>
      <trkpt lat="44.73206" lon="5.89634">
        <ele>1049.077497</ele>
        <time>2025-07-10T08:33:18.000Z</time>
      </trkpt>
      <trkpt lat="44.73209" lon="5.89633">
        <ele>1048.927487</ele>
        <time>2025-07-10T08:33:19.000Z</time>
      </trkpt>
      <trkpt lat="44.73212" lon="5.89631">
        <ele>1048.765261</ele>
        <time>2025-07-10T08:33:20.000Z</time>
      </trkpt>
      <trkpt lat="44.73216" lon="5.89629">
        <ele>1048.595035</ele>
        <time>2025-07-10T08:33:21.000Z</time>
      </trkpt>
      <trkpt lat="44.73219" lon="5.89627">
        <ele>1048.416448</ele>
        <time>2025-07-10T08:33:22.000Z</time>
      </trkpt>
      <trkpt lat="44.73223" lon="5.89625">
        <ele>1048.227668</ele>
        <time>2025-07-10T08:33:23.000Z</time>
      </trkpt>
      <trkpt lat="44.73226" lon="5.89622">
        <ele>1048.033051</ele>
        <time>2025-07-10T08:33:24.000Z</time>
      </trkpt>
      <trkpt lat="44.7323" lon="5.89619">
        <ele>1047.829828</ele>
        <time>2025-07-10T08:33:25.000Z</time>
      </trkpt>
      <trkpt lat="44.73233" lon="5.89616">
        <ele>1047.640878</ele>
        <time>2025-07-10T08:33:26.000Z</time>
      </trkpt>
      <trkpt lat="44.73237" lon="5.89613">
        <ele>1047.447869</ele>
        <time>2025-07-10T08:33:27.000Z</time>
      </trkpt>
      <trkpt lat="44.73241" lon="5.8961">
        <ele>1047.236617</ele>
        <time>2025-07-10T08:33:28.000Z</time>
      </trkpt>
      <trkpt lat="44.73244" lon="5.89607">
        <ele>1047.047004</ele>
        <time>2025-07-10T08:33:29.000Z</time>
      </trkpt>
      <trkpt lat="44.73247" lon="5.89603">
        <ele>1046.850304</ele>
        <time>2025-07-10T08:33:30.000Z</time>
      </trkpt>
      <trkpt lat="44.7325" lon="5.896">
        <ele>1046.639862</ele>
        <time>2025-07-10T08:33:31.000Z</time>
      </trkpt>
      <trkpt lat="44.73254" lon="5.89596">
        <ele>1046.438492</ele>
        <time>2025-07-10T08:33:32.000Z</time>
      </trkpt>
      <trkpt lat="44.73257" lon="5.89592">
        <ele>1046.231242</ele>
        <time>2025-07-10T08:33:33.000Z</time>
      </trkpt>
      <trkpt lat="44.7326" lon="5.89588">
        <ele>1046.0208</ele>
        <time>2025-07-10T08:33:34.000Z</time>
      </trkpt>
      <trkpt lat="44.73263" lon="5.89584">
        <ele>1045.802173</ele>
        <time>2025-07-10T08:33:35.000Z</time>
      </trkpt>
      <trkpt lat="44.73266" lon="5.89578">
        <ele>1045.557022</ele>
        <time>2025-07-10T08:33:36.000Z</time>
      </trkpt>
      <trkpt lat="44.7327" lon="5.89572">
        <ele>1045.310466</ele>
        <time>2025-07-10T08:33:37.000Z</time>
      </trkpt>
      <trkpt lat="44.73274" lon="5.89568">
        <ele>1045.067159</ele>
        <time>2025-07-10T08:33:38.000Z</time>
      </trkpt>
      <trkpt lat="44.73278" lon="5.89563">
        <ele>1044.809439</ele>
        <time>2025-07-10T08:33:39.000Z</time>
      </trkpt>
      <trkpt lat="44.73282" lon="5.89558">
        <ele>1044.531974</ele>
        <time>2025-07-10T08:33:40.000Z</time>
      </trkpt>
      <trkpt lat="44.73287" lon="5.89553">
        <ele>1044.25451</ele>
        <time>2025-07-10T08:33:41.000Z</time>
      </trkpt>
      <trkpt lat="44.73292" lon="5.89548">
        <ele>1043.979094</ele>
        <time>2025-07-10T08:33:42.000Z</time>
      </trkpt>
      <trkpt lat="44.73297" lon="5.89545">
        <ele>1043.704147</ele>
        <time>2025-07-10T08:33:43.000Z</time>
      </trkpt>
      <trkpt lat="44.73302" lon="5.89541">
        <ele>1043.40574</ele>
        <time>2025-07-10T08:33:44.000Z</time>
      </trkpt>
      <trkpt lat="44.73308" lon="5.8954">
        <ele>1043.116072</ele>
        <time>2025-07-10T08:33:45.000Z</time>
      </trkpt>
      <trkpt lat="44.73315" lon="5.8954">
        <ele>1042.813049</ele>
        <time>2025-07-10T08:33:46.000Z</time>
      </trkpt>
      <trkpt lat="44.73321" lon="5.8954">
        <ele>1042.528526</ele>
        <time>2025-07-10T08:33:47.000Z</time>
      </trkpt>
      <trkpt lat="44.73327" lon="5.89542">
        <ele>1042.216998</ele>
        <time>2025-07-10T08:33:48.000Z</time>
      </trkpt>
      <trkpt lat="44.73333" lon="5.89544">
        <ele>1041.914536</ele>
        <time>2025-07-10T08:33:49.000Z</time>
      </trkpt>
      <trkpt lat="44.73339" lon="5.89547">
        <ele>1041.66636</ele>
        <time>2025-07-10T08:33:50.000Z</time>
      </trkpt>
      <trkpt lat="44.73345" lon="5.89551">
        <ele>1041.424459</ele>
        <time>2025-07-10T08:33:51.000Z</time>
      </trkpt>
      <trkpt lat="44.73351" lon="5.89557">
        <ele>1041.165512</ele>
        <time>2025-07-10T08:33:52.000Z</time>
      </trkpt>
      <trkpt lat="44.73356" lon="5.89561">
        <ele>1040.904356</ele>
        <time>2025-07-10T08:33:53.000Z</time>
      </trkpt>
      <trkpt lat="44.73362" lon="5.89566">
        <ele>1040.65107</ele>
        <time>2025-07-10T08:33:54.000Z</time>
      </trkpt>
      <trkpt lat="44.73367" lon="5.89569">
        <ele>1040.435939</ele>
        <time>2025-07-10T08:33:55.000Z</time>
      </trkpt>
      <trkpt lat="44.73372" lon="5.89571">
        <ele>1040.248752</ele>
        <time>2025-07-10T08:33:56.000Z</time>
      </trkpt>
      <trkpt lat="44.73377" lon="5.89572">
        <ele>1040.069885</ele>
        <time>2025-07-10T08:33:57.000Z</time>
      </trkpt>
      <trkpt lat="44.73382" lon="5.89574">
        <ele>1039.880275</ele>
        <time>2025-07-10T08:33:58.000Z</time>
      </trkpt>
      <trkpt lat="44.73387" lon="5.89575">
        <ele>1039.687744</ele>
        <time>2025-07-10T08:33:59.000Z</time>
      </trkpt>
      <trkpt lat="44.73392" lon="5.89575">
        <ele>1039.485401</ele>
        <time>2025-07-10T08:34:00.000Z</time>
      </trkpt>
      <trkpt lat="44.73397" lon="5.89575">
        <ele>1039.28716</ele>
        <time>2025-07-10T08:34:01.000Z</time>
      </trkpt>
      <trkpt lat="44.73402" lon="5.89574">
        <ele>1039.095316</ele>
        <time>2025-07-10T08:34:02.000Z</time>
      </trkpt>
      <trkpt lat="44.73407" lon="5.89573">
        <ele>1038.914831</ele>
        <time>2025-07-10T08:34:03.000Z</time>
      </trkpt>
      <trkpt lat="44.73411" lon="5.89573">
        <ele>1038.771684</ele>
        <time>2025-07-10T08:34:04.000Z</time>
      </trkpt>
      <trkpt lat="44.73413" lon="5.89571">
        <ele>1038.668184</ele>
        <time>2025-07-10T08:34:05.000Z</time>
      </trkpt>
      <trkpt lat="44.73415" lon="5.8957">
        <ele>1038.578408</ele>
        <time>2025-07-10T08:34:06.000Z</time>
      </trkpt>
      <trkpt lat="44.73417" lon="5.89569">
        <ele>1038.501282</ele>
        <time>2025-07-10T08:34:07.000Z</time>
      </trkpt>
      <trkpt lat="44.73419" lon="5.89568">
        <ele>1038.43933</ele>
        <time>2025-07-10T08:34:08.000Z</time>
      </trkpt>
      <trkpt lat="44.7342" lon="5.89568">
        <ele>1038.404912</ele>
        <time>2025-07-10T08:34:09.000Z</time>
      </trkpt>
      <trkpt lat="44.7342" lon="5.89569">
        <ele>1038.38873</ele>
        <time>2025-07-10T08:34:10.000Z</time>
      </trkpt>
      <trkpt lat="44.7342" lon="5.89567">
        <ele>1038.350362</ele>
        <time>2025-07-10T08:35:22.000Z</time>
      </trkpt>
      <trkpt lat="44.73421" lon="5.89565">
        <ele>1038.290547</ele>
        <time>2025-07-10T08:35:23.000Z</time>
      </trkpt>
      <trkpt lat="44.73422" lon="5.89563">
        <ele>1038.217688</ele>
        <time>2025-07-10T08:35:24.000Z</time>
      </trkpt>
      <trkpt lat="44.73424" lon="5.8956">
        <ele>1038.116093</ele>
        <time>2025-07-10T08:35:25.000Z</time>
      </trkpt>
      <trkpt lat="44.73425" lon="5.89556">
        <ele>1037.998361</ele>
        <time>2025-07-10T08:35:26.000Z</time>
      </trkpt>
      <trkpt lat="44.73427" lon="5.89552">
        <ele>1037.861286</ele>
        <time>2025-07-10T08:35:27.000Z</time>
      </trkpt>
      <trkpt lat="44.73428" lon="5.89546">
        <ele>1037.710637</ele>
        <time>2025-07-10T08:35:28.000Z</time>
      </trkpt>
      <trkpt lat="44.73429" lon="5.89541">
        <ele>1037.54986</ele>
        <time>2025-07-10T08:35:29.000Z</time>
      </trkpt>
      <trkpt lat="44.73431" lon="5.89535">
        <ele>1037.37845</ele>
        <time>2025-07-10T08:35:30.000Z</time>
      </trkpt>
      <trkpt lat="44.73433" lon="5.89529">
        <ele>1037.192035</ele>
        <time>2025-07-10T08:35:31.000Z</time>
      </trkpt>
      <trkpt lat="44.73435" lon="5.89522">
        <ele>1036.996806</ele>
        <time>2025-07-10T08:35:32.000Z</time>
      </trkpt>
      <trkpt lat="44.73436" lon="5.89515">
        <ele>1036.793896</ele>
        <time>2025-07-10T08:35:33.000Z</time>
      </trkpt>
      <trkpt lat="44.73438" lon="5.89507">
        <ele>1036.579475</ele>
        <time>2025-07-10T08:35:34.000Z</time>
      </trkpt>
      <trkpt lat="44.73441" lon="5.895">
        <ele>1036.365553</ele>
        <time>2025-07-10T08:35:35.000Z</time>
      </trkpt>
      <trkpt lat="44.73445" lon="5.89494">
        <ele>1036.141278</ele>
        <time>2025-07-10T08:35:36.000Z</time>
      </trkpt>
      <trkpt lat="44.7345" lon="5.89488">
        <ele>1035.901872</ele>
        <time>2025-07-10T08:35:37.000Z</time>
      </trkpt>
      <trkpt lat="44.73455" lon="5.89484">
        <ele>1035.665911</ele>
        <time>2025-07-10T08:35:38.000Z</time>
      </trkpt>
      <trkpt lat="44.73461" lon="5.8948">
        <ele>1035.42064</ele>
        <time>2025-07-10T08:35:39.000Z</time>
      </trkpt>
      <trkpt lat="44.73466" lon="5.89476">
        <ele>1035.18364</ele>
        <time>2025-07-10T08:35:40.000Z</time>
      </trkpt>
      <trkpt lat="44.73472" lon="5.89473">
        <ele>1034.890483</ele>
        <time>2025-07-10T08:35:41.000Z</time>
      </trkpt>
      <trkpt lat="44.73478" lon="5.89469">
        <ele>1034.530372</ele>
        <time>2025-07-10T08:35:42.000Z</time>
      </trkpt>
      <trkpt lat="44.73484" lon="5.89465">
        <ele>1034.168676</ele>
        <time>2025-07-10T08:35:43.000Z</time>
      </trkpt>
      <trkpt lat="44.7349" lon="5.89461">
        <ele>1033.800363</ele>
        <time>2025-07-10T08:35:44.000Z</time>
      </trkpt>
      <trkpt lat="44.73497" lon="5.89457">
        <ele>1033.411921</ele>
        <time>2025-07-10T08:35:45.000Z</time>
      </trkpt>
      <trkpt lat="44.73504" lon="5.89453">
        <ele>1033.000185</ele>
        <time>2025-07-10T08:35:46.000Z</time>
      </trkpt>
      <trkpt lat="44.73511" lon="5.8945">
        <ele>1032.57225</ele>
        <time>2025-07-10T08:35:47.000Z</time>
      </trkpt>
      <trkpt lat="44.73519" lon="5.89447">
        <ele>1032.135048</ele>
        <time>2025-07-10T08:35:48.000Z</time>
      </trkpt>
      <trkpt lat="44.73526" lon="5.89445">
        <ele>1031.696119</ele>
        <time>2025-07-10T08:35:49.000Z</time>
      </trkpt>
      <trkpt lat="44.73534" lon="5.89442">
        <ele>1031.258792</ele>
        <time>2025-07-10T08:35:50.000Z</time>
      </trkpt>
      <trkpt lat="44.73542" lon="5.89441">
        <ele>1030.831451</ele>
        <time>2025-07-10T08:35:51.000Z</time>
      </trkpt>
      <trkpt lat="44.7355" lon="5.89441">
        <ele>1030.39671</ele>
        <time>2025-07-10T08:35:52.000Z</time>
      </trkpt>
      <trkpt lat="44.73558" lon="5.89444">
        <ele>1029.950696</ele>
        <time>2025-07-10T08:35:53.000Z</time>
      </trkpt>
      <trkpt lat="44.73565" lon="5.89449">
        <ele>1029.489349</ele>
        <time>2025-07-10T08:35:54.000Z</time>
      </trkpt>
      <trkpt lat="44.73572" lon="5.89456">
        <ele>1029.03305</ele>
        <time>2025-07-10T08:35:55.000Z</time>
      </trkpt>
      <trkpt lat="44.73579" lon="5.89462">
        <ele>1028.569565</ele>
        <time>2025-07-10T08:35:56.000Z</time>
      </trkpt>
      <trkpt lat="44.73586" lon="5.89469">
        <ele>1028.108175</ele>
        <time>2025-07-10T08:35:57.000Z</time>
      </trkpt>
      <trkpt lat="44.73593" lon="5.89475">
        <ele>1027.662314</ele>
        <time>2025-07-10T08:35:58.000Z</time>
      </trkpt>
      <trkpt lat="44.736" lon="5.89479">
        <ele>1027.224352</ele>
        <time>2025-07-10T08:35:59.000Z</time>
      </trkpt>
      <trkpt lat="44.73608" lon="5.89483">
        <ele>1026.784074</ele>
        <time>2025-07-10T08:36:00.000Z</time>
      </trkpt>
      <trkpt lat="44.73616" lon="5.89483">
        <ele>1026.371466</ele>
        <time>2025-07-10T08:36:01.000Z</time>
      </trkpt>
      <trkpt lat="44.73623" lon="5.8948">
        <ele>1025.935224</ele>
        <time>2025-07-10T08:36:02.000Z</time>
      </trkpt>
      <trkpt lat="44.7363" lon="5.89476">
        <ele>1025.532073</ele>
        <time>2025-07-10T08:36:03.000Z</time>
      </trkpt>
      <trkpt lat="44.73635" lon="5.89469">
        <ele>1025.136812</ele>
        <time>2025-07-10T08:36:04.000Z</time>
      </trkpt>
      <trkpt lat="44.73639" lon="5.8946">
        <ele>1024.768365</ele>
        <time>2025-07-10T08:36:05.000Z</time>
      </trkpt>
      <trkpt lat="44.73641" lon="5.89449">
        <ele>1024.395988</ele>
        <time>2025-07-10T08:36:06.000Z</time>
      </trkpt>
      <trkpt lat="44.73642" lon="5.89439">
        <ele>1024.014342</ele>
        <time>2025-07-10T08:36:07.000Z</time>
      </trkpt>
      <trkpt lat="44.73641" lon="5.89428">
        <ele>1023.62711</ele>
        <time>2025-07-10T08:36:08.000Z</time>
      </trkpt>
      <trkpt lat="44.73641" lon="5.89417">
        <ele>1023.238454</ele>
        <time>2025-07-10T08:36:09.000Z</time>
      </trkpt>
      <trkpt lat="44.7364" lon="5.89406">
        <ele>1022.850842</ele>
        <time>2025-07-10T08:36:10.000Z</time>
      </trkpt>
      <trkpt lat="44.73641" lon="5.89394">
        <ele>1022.458681</ele>
        <time>2025-07-10T08:36:11.000Z</time>
      </trkpt>
      <trkpt lat="44.73643" lon="5.89384">
        <ele>1022.072717</ele>
        <time>2025-07-10T08:36:12.000Z</time>
      </trkpt>
      <trkpt lat="44.73646" lon="5.89374">
        <ele>1021.682291</ele>
        <time>2025-07-10T08:36:13.000Z</time>
      </trkpt>
      <trkpt lat="44.7365" lon="5.89364">
        <ele>1021.296159</ele>
        <time>2025-07-10T08:36:14.000Z</time>
      </trkpt>
      <trkpt lat="44.73654" lon="5.89355">
        <ele>1020.905363</ele>
        <time>2025-07-10T08:36:15.000Z</time>
      </trkpt>
      <trkpt lat="44.73658" lon="5.89345">
        <ele>1020.511584</ele>
        <time>2025-07-10T08:36:16.000Z</time>
      </trkpt>
      <trkpt lat="44.73663" lon="5.89336">
        <ele>1020.129887</ele>
        <time>2025-07-10T08:36:17.000Z</time>
      </trkpt>
      <trkpt lat="44.73667" lon="5.89328">
        <ele>1019.751158</ele>
        <time>2025-07-10T08:36:18.000Z</time>
      </trkpt>
      <trkpt lat="44.73672" lon="5.89319">
        <ele>1019.372452</ele>
        <time>2025-07-10T08:36:19.000Z</time>
      </trkpt>
      <trkpt lat="44.73676" lon="5.8931">
        <ele>1018.996618</ele>
        <time>2025-07-10T08:36:20.000Z</time>
      </trkpt>
      <trkpt lat="44.7368" lon="5.89301">
        <ele>1018.620784</ele>
        <time>2025-07-10T08:36:21.000Z</time>
      </trkpt>
      <trkpt lat="44.73685" lon="5.89293">
        <ele>1018.244895</ele>
        <time>2025-07-10T08:36:22.000Z</time>
      </trkpt>
      <trkpt lat="44.73689" lon="5.89284">
        <ele>1017.871913</ele>
        <time>2025-07-10T08:36:23.000Z</time>
      </trkpt>
      <trkpt lat="44.73693" lon="5.89275">
        <ele>1017.504643</ele>
        <time>2025-07-10T08:36:24.000Z</time>
      </trkpt>
      <trkpt lat="44.73697" lon="5.89267">
        <ele>1017.139946</ele>
        <time>2025-07-10T08:36:25.000Z</time>
      </trkpt>
      <trkpt lat="44.73701" lon="5.89258">
        <ele>1016.778198</ele>
        <time>2025-07-10T08:36:26.000Z</time>
      </trkpt>
      <trkpt lat="44.73705" lon="5.8925">
        <ele>1016.413713</ele>
        <time>2025-07-10T08:36:27.000Z</time>
      </trkpt>
      <trkpt lat="44.73709" lon="5.89241">
        <ele>1016.176622</ele>
        <time>2025-07-10T08:36:28.000Z</time>
      </trkpt>
      <trkpt lat="44.73714" lon="5.89232">
        <ele>1016.013357</ele>
        <time>2025-07-10T08:36:29.000Z</time>
      </trkpt>
      <trkpt lat="44.73718" lon="5.89223">
        <ele>1015.850092</ele>
        <time>2025-07-10T08:36:30.000Z</time>
      </trkpt>
      <trkpt lat="44.73722" lon="5.89214">
        <ele>1015.685499</ele>
        <time>2025-07-10T08:36:31.000Z</time>
      </trkpt>
      <trkpt lat="44.73726" lon="5.89205">
        <ele>1015.519621</ele>
        <time>2025-07-10T08:36:32.000Z</time>
      </trkpt>
      <trkpt lat="44.73731" lon="5.89197">
        <ele>1015.356356</ele>
        <time>2025-07-10T08:36:33.000Z</time>
      </trkpt>
      <trkpt lat="44.73735" lon="5.89188">
        <ele>1015.194343</ele>
        <time>2025-07-10T08:36:34.000Z</time>
      </trkpt>
      <trkpt lat="44.73739" lon="5.8918">
        <ele>1015.033517</ele>
        <time>2025-07-10T08:36:35.000Z</time>
      </trkpt>
      <trkpt lat="44.73744" lon="5.89171">
        <ele>1014.872772</ele>
        <time>2025-07-10T08:36:36.000Z</time>
      </trkpt>
      <trkpt lat="44.73748" lon="5.89163">
        <ele>1014.707708</ele>
        <time>2025-07-10T08:36:37.000Z</time>
      </trkpt>
      <trkpt lat="44.73754" lon="5.89156">
        <ele>1014.542202</ele>
        <time>2025-07-10T08:36:38.000Z</time>
      </trkpt>
      <trkpt lat="44.7376" lon="5.89149">
        <ele>1014.374195</ele>
        <time>2025-07-10T08:36:39.000Z</time>
      </trkpt>
      <trkpt lat="44.73767" lon="5.89143">
        <ele>1014.203823</ele>
        <time>2025-07-10T08:36:40.000Z</time>
      </trkpt>
      <trkpt lat="44.73774" lon="5.89138">
        <ele>1014.031065</ele>
        <time>2025-07-10T08:36:41.000Z</time>
      </trkpt>
      <trkpt lat="44.73782" lon="5.89134">
        <ele>1013.853534</ele>
        <time>2025-07-10T08:36:42.000Z</time>
      </trkpt>
      <trkpt lat="44.73789" lon="5.89132">
        <ele>1013.681026</ele>
        <time>2025-07-10T08:36:43.000Z</time>
      </trkpt>
      <trkpt lat="44.73798" lon="5.89131">
        <ele>1013.504942</ele>
        <time>2025-07-10T08:36:44.000Z</time>
      </trkpt>
      <trkpt lat="44.73806" lon="5.89132">
        <ele>1013.326881</ele>
        <time>2025-07-10T08:36:45.000Z</time>
      </trkpt>
      <trkpt lat="44.73814" lon="5.89135">
        <ele>1013.146372</ele>
        <time>2025-07-10T08:36:46.000Z</time>
      </trkpt>
      <trkpt lat="44.73822" lon="5.89139">
        <ele>1012.958387</ele>
        <time>2025-07-10T08:36:47.000Z</time>
      </trkpt>
      <trkpt lat="44.73829" lon="5.89145">
        <ele>1012.782249</ele>
        <time>2025-07-10T08:36:48.000Z</time>
      </trkpt>
      <trkpt lat="44.73836" lon="5.89151">
        <ele>1012.60572</ele>
        <time>2025-07-10T08:36:49.000Z</time>
      </trkpt>
      <trkpt lat="44.73842" lon="5.89159">
        <ele>1012.430718</ele>
        <time>2025-07-10T08:36:50.000Z</time>
      </trkpt>
      <trkpt lat="44.73848" lon="5.89166">
        <ele>1012.098969</ele>
        <time>2025-07-10T08:36:51.000Z</time>
      </trkpt>
      <trkpt lat="44.73854" lon="5.89174">
        <ele>1011.708292</ele>
        <time>2025-07-10T08:36:52.000Z</time>
      </trkpt>
      <trkpt lat="44.7386" lon="5.89182">
        <ele>1011.331278</ele>
        <time>2025-07-10T08:36:53.000Z</time>
      </trkpt>
      <trkpt lat="44.73867" lon="5.89189">
        <ele>1010.945277</ele>
        <time>2025-07-10T08:36:54.000Z</time>
      </trkpt>
      <trkpt lat="44.73874" lon="5.89196">
        <ele>1010.553748</ele>
        <time>2025-07-10T08:36:55.000Z</time>
      </trkpt>
      <trkpt lat="44.73881" lon="5.892">
        <ele>1010.178986</ele>
        <time>2025-07-10T08:36:56.000Z</time>
      </trkpt>
      <trkpt lat="44.73888" lon="5.89204">
        <ele>1009.812687</ele>
        <time>2025-07-10T08:36:57.000Z</time>
      </trkpt>
      <trkpt lat="44.73897" lon="5.89205">
        <ele>1009.428911</ele>
        <time>2025-07-10T08:36:58.000Z</time>
      </trkpt>
      <trkpt lat="44.73905" lon="5.89206">
        <ele>1009.029904</ele>
        <time>2025-07-10T08:36:59.000Z</time>
      </trkpt>
      <trkpt lat="44.73914" lon="5.89206">
        <ele>1008.61752</ele>
        <time>2025-07-10T08:37:00.000Z</time>
      </trkpt>
      <trkpt lat="44.73923" lon="5.89206">
        <ele>1008.191077</ele>
        <time>2025-07-10T08:37:01.000Z</time>
      </trkpt>
      <trkpt lat="44.73932" lon="5.89206">
        <ele>1007.750525</ele>
        <time>2025-07-10T08:37:02.000Z</time>
      </trkpt>
      <trkpt lat="44.73942" lon="5.89205">
        <ele>1007.300208</ele>
        <time>2025-07-10T08:37:03.000Z</time>
      </trkpt>
      <trkpt lat="44.73952" lon="5.89204">
        <ele>1006.837884</ele>
        <time>2025-07-10T08:37:04.000Z</time>
      </trkpt>
      <trkpt lat="44.73962" lon="5.892">
        <ele>1006.361881</ele>
        <time>2025-07-10T08:37:05.000Z</time>
      </trkpt>
      <trkpt lat="44.73971" lon="5.89196">
        <ele>1005.882224</ele>
        <time>2025-07-10T08:37:06.000Z</time>
      </trkpt>
      <trkpt lat="44.73981" lon="5.89191">
        <ele>1005.412496</ele>
        <time>2025-07-10T08:37:07.000Z</time>
      </trkpt>
      <trkpt lat="44.7399" lon="5.89187">
        <ele>1004.944865</ele>
        <time>2025-07-10T08:37:08.000Z</time>
      </trkpt>
      <trkpt lat="44.74" lon="5.89183">
        <ele>1004.47874</ele>
        <time>2025-07-10T08:37:09.000Z</time>
      </trkpt>
      <trkpt lat="44.74009" lon="5.89181">
        <ele>1004.046606</ele>
        <time>2025-07-10T08:37:10.000Z</time>
      </trkpt>
      <trkpt lat="44.74018" lon="5.8918">
        <ele>1003.558678</ele>
        <time>2025-07-10T08:37:11.000Z</time>
      </trkpt>
      <trkpt lat="44.74027" lon="5.89178">
        <ele>1003.077553</ele>
        <time>2025-07-10T08:37:12.000Z</time>
      </trkpt>
      <trkpt lat="44.74036" lon="5.89177">
        <ele>1002.615863</ele>
        <time>2025-07-10T08:37:13.000Z</time>
      </trkpt>
      <trkpt lat="44.74044" lon="5.89177">
        <ele>1002.18671</ele>
        <time>2025-07-10T08:37:14.000Z</time>
      </trkpt>
      <trkpt lat="44.74052" lon="5.89176">
        <ele>1001.761814</ele>
        <time>2025-07-10T08:37:15.000Z</time>
      </trkpt>
      <trkpt lat="44.74059" lon="5.89174">
        <ele>1001.34682</ele>
        <time>2025-07-10T08:37:16.000Z</time>
      </trkpt>
      <trkpt lat="44.74067" lon="5.89172">
        <ele>1000.914678</ele>
        <time>2025-07-10T08:37:17.000Z</time>
      </trkpt>
      <trkpt lat="44.74075" lon="5.89169">
        <ele>1000.492602</ele>
        <time>2025-07-10T08:37:18.000Z</time>
      </trkpt>
      <trkpt lat="44.74082" lon="5.89165">
        <ele>1000.080711</ele>
        <time>2025-07-10T08:37:19.000Z</time>
      </trkpt>
      <trkpt lat="44.7409" lon="5.89162">
        <ele>999.659785</ele>
        <time>2025-07-10T08:37:20.000Z</time>
      </trkpt>
      <trkpt lat="44.74097" lon="5.89159">
        <ele>999.235925</ele>
        <time>2025-07-10T08:37:21.000Z</time>
      </trkpt>
      <trkpt lat="44.74105" lon="5.89156">
        <ele>998.803769</ele>
        <time>2025-07-10T08:37:22.000Z</time>
      </trkpt>
      <trkpt lat="44.74113" lon="5.89154">
        <ele>998.37084</ele>
        <time>2025-07-10T08:37:23.000Z</time>
      </trkpt>
      <trkpt lat="44.74121" lon="5.89151">
        <ele>997.925803</ele>
        <time>2025-07-10T08:37:24.000Z</time>
      </trkpt>
      <trkpt lat="44.74129" lon="5.89149">
        <ele>997.466658</ele>
        <time>2025-07-10T08:37:25.000Z</time>
      </trkpt>
      <trkpt lat="44.74138" lon="5.89147">
        <ele>997.020856</ele>
        <time>2025-07-10T08:37:26.000Z</time>
      </trkpt>
      <trkpt lat="44.74146" lon="5.89145">
        <ele>996.569118</ele>
        <time>2025-07-10T08:37:27.000Z</time>
      </trkpt>
      <trkpt lat="44.74155" lon="5.89141">
        <ele>996.074112</ele>
        <time>2025-07-10T08:37:28.000Z</time>
      </trkpt>
      <trkpt lat="44.74163" lon="5.89137">
        <ele>995.610465</ele>
        <time>2025-07-10T08:37:29.000Z</time>
      </trkpt>
      <trkpt lat="44.74171" lon="5.89133">
        <ele>995.15175</ele>
        <time>2025-07-10T08:37:30.000Z</time>
      </trkpt>
      <trkpt lat="44.74179" lon="5.89128">
        <ele>994.693796</ele>
        <time>2025-07-10T08:37:31.000Z</time>
      </trkpt>
      <trkpt lat="44.74187" lon="5.89123">
        <ele>994.190617</ele>
        <time>2025-07-10T08:37:32.000Z</time>
      </trkpt>
      <trkpt lat="44.74195" lon="5.89116">
        <ele>993.593583</ele>
        <time>2025-07-10T08:37:33.000Z</time>
      </trkpt>
      <trkpt lat="44.74203" lon="5.8911">
        <ele>992.980499</ele>
        <time>2025-07-10T08:37:34.000Z</time>
      </trkpt>
      <trkpt lat="44.74211" lon="5.89103">
        <ele>992.390124</ele>
        <time>2025-07-10T08:37:35.000Z</time>
      </trkpt>
      <trkpt lat="44.74218" lon="5.89097">
        <ele>991.830657</ele>
        <time>2025-07-10T08:37:36.000Z</time>
      </trkpt>
      <trkpt lat="44.74225" lon="5.8909">
        <ele>991.238946</ele>
        <time>2025-07-10T08:37:37.000Z</time>
      </trkpt>
      <trkpt lat="44.74233" lon="5.89082">
        <ele>990.631313</ele>
        <time>2025-07-10T08:37:38.000Z</time>
      </trkpt>
      <trkpt lat="44.7424" lon="5.89075">
        <ele>990.03411</ele>
        <time>2025-07-10T08:37:39.000Z</time>
      </trkpt>
      <trkpt lat="44.74248" lon="5.89068">
        <ele>989.447613</ele>
        <time>2025-07-10T08:37:40.000Z</time>
      </trkpt>
      <trkpt lat="44.74255" lon="5.89061">
        <ele>988.882947</ele>
        <time>2025-07-10T08:37:41.000Z</time>
      </trkpt>
      <trkpt lat="44.74262" lon="5.89057">
        <ele>988.346407</ele>
        <time>2025-07-10T08:37:42.000Z</time>
      </trkpt>
      <trkpt lat="44.74271" lon="5.89058">
        <ele>987.799002</ele>
        <time>2025-07-10T08:37:43.000Z</time>
      </trkpt>
      <trkpt lat="44.74278" lon="5.89063">
        <ele>987.28436</ele>
        <time>2025-07-10T08:37:44.000Z</time>
      </trkpt>
      <trkpt lat="44.74284" lon="5.8907">
        <ele>986.75371</ele>
        <time>2025-07-10T08:37:45.000Z</time>
      </trkpt>
      <trkpt lat="44.74291" lon="5.89076">
        <ele>986.223505</ele>
        <time>2025-07-10T08:37:46.000Z</time>
      </trkpt>
      <trkpt lat="44.74298" lon="5.8908">
        <ele>985.689263</ele>
        <time>2025-07-10T08:37:47.000Z</time>
      </trkpt>
      <trkpt lat="44.74306" lon="5.89079">
        <ele>985.188959</ele>
        <time>2025-07-10T08:37:48.000Z</time>
      </trkpt>
      <trkpt lat="44.74314" lon="5.89076">
        <ele>984.663595</ele>
        <time>2025-07-10T08:37:49.000Z</time>
      </trkpt>
      <trkpt lat="44.74321" lon="5.89072">
        <ele>984.126716</ele>
        <time>2025-07-10T08:37:50.000Z</time>
      </trkpt>
      <trkpt lat="44.74329" lon="5.89067">
        <ele>983.568805</ele>
        <time>2025-07-10T08:37:51.000Z</time>
      </trkpt>
      <trkpt lat="44.74337" lon="5.89062">
        <ele>983.034976</ele>
        <time>2025-07-10T08:37:52.000Z</time>
      </trkpt>
      <trkpt lat="44.74344" lon="5.89058">
        <ele>982.488527</ele>
        <time>2025-07-10T08:37:53.000Z</time>
      </trkpt>
      <trkpt lat="44.74352" lon="5.89054">
        <ele>981.949718</ele>
        <time>2025-07-10T08:37:54.000Z</time>
      </trkpt>
      <trkpt lat="44.7436" lon="5.8905">
        <ele>981.39394</ele>
        <time>2025-07-10T08:37:55.000Z</time>
      </trkpt>
      <trkpt lat="44.74368" lon="5.89045">
        <ele>980.813963</ele>
        <time>2025-07-10T08:37:56.000Z</time>
      </trkpt>
      <trkpt lat="44.74376" lon="5.89038">
        <ele>980.222404</ele>
        <time>2025-07-10T08:37:57.000Z</time>
      </trkpt>
      <trkpt lat="44.74384" lon="5.89031">
        <ele>979.620037</ele>
        <time>2025-07-10T08:37:58.000Z</time>
      </trkpt>
      <trkpt lat="44.74391" lon="5.89022">
        <ele>979.000191</ele>
        <time>2025-07-10T08:37:59.000Z</time>
      </trkpt>
      <trkpt lat="44.74397" lon="5.89013">
        <ele>978.402954</ele>
        <time>2025-07-10T08:38:00.000Z</time>
      </trkpt>
      <trkpt lat="44.74403" lon="5.89001">
        <ele>977.752766</ele>
        <time>2025-07-10T08:38:01.000Z</time>
      </trkpt>
      <trkpt lat="44.74409" lon="5.8899">
        <ele>977.143895</ele>
        <time>2025-07-10T08:38:02.000Z</time>
      </trkpt>
      <trkpt lat="44.74414" lon="5.88979">
        <ele>976.511074</ele>
        <time>2025-07-10T08:38:03.000Z</time>
      </trkpt>
      <trkpt lat="44.74419" lon="5.88966">
        <ele>975.84573</ele>
        <time>2025-07-10T08:38:04.000Z</time>
      </trkpt>
      <trkpt lat="44.74423" lon="5.88953">
        <ele>975.185815</ele>
        <time>2025-07-10T08:38:05.000Z</time>
      </trkpt>
      <trkpt lat="44.74427" lon="5.88941">
        <ele>974.555294</ele>
        <time>2025-07-10T08:38:06.000Z</time>
      </trkpt>
      <trkpt lat="44.7443" lon="5.88928">
        <ele>973.920662</ele>
        <time>2025-07-10T08:38:07.000Z</time>
      </trkpt>
      <trkpt lat="44.74434" lon="5.88915">
        <ele>973.292882</ele>
        <time>2025-07-10T08:38:08.000Z</time>
      </trkpt>
      <trkpt lat="44.74436" lon="5.88902">
        <ele>972.669311</ele>
        <time>2025-07-10T08:38:09.000Z</time>
      </trkpt>
      <trkpt lat="44.74438" lon="5.88889">
        <ele>972.045662</ele>
        <time>2025-07-10T08:38:10.000Z</time>
      </trkpt>
      <trkpt lat="44.74441" lon="5.88876">
        <ele>971.428688</ele>
        <time>2025-07-10T08:38:11.000Z</time>
      </trkpt>
      <trkpt lat="44.74444" lon="5.88863">
        <ele>970.807459</ele>
        <time>2025-07-10T08:38:12.000Z</time>
      </trkpt>
      <trkpt lat="44.74448" lon="5.8885">
        <ele>970.173096</ele>
        <time>2025-07-10T08:38:13.000Z</time>
      </trkpt>
      <trkpt lat="44.74453" lon="5.8884">
        <ele>969.574292</ele>
        <time>2025-07-10T08:38:14.000Z</time>
      </trkpt>
      <trkpt lat="44.74459" lon="5.88829">
        <ele>968.947559</ele>
        <time>2025-07-10T08:38:15.000Z</time>
      </trkpt>
      <trkpt lat="44.74467" lon="5.8882">
        <ele>968.284055</ele>
        <time>2025-07-10T08:38:16.000Z</time>
      </trkpt>
      <trkpt lat="44.74474" lon="5.88814">
        <ele>967.700463</ele>
        <time>2025-07-10T08:38:17.000Z</time>
      </trkpt>
      <trkpt lat="44.74483" lon="5.88808">
        <ele>967.096916</ele>
        <time>2025-07-10T08:38:18.000Z</time>
      </trkpt>
      <trkpt lat="44.74491" lon="5.88803">
        <ele>966.493048</ele>
        <time>2025-07-10T08:38:19.000Z</time>
      </trkpt>
      <trkpt lat="44.745" lon="5.88799">
        <ele>965.890093</ele>
        <time>2025-07-10T08:38:20.000Z</time>
      </trkpt>
      <trkpt lat="44.74509" lon="5.88796">
        <ele>965.296084</ele>
        <time>2025-07-10T08:38:21.000Z</time>
      </trkpt>
      <trkpt lat="44.74519" lon="5.88794">
        <ele>964.631285</ele>
        <time>2025-07-10T08:38:22.000Z</time>
      </trkpt>
      <trkpt lat="44.74528" lon="5.88793">
        <ele>964.020007</ele>
        <time>2025-07-10T08:38:23.000Z</time>
      </trkpt>
      <trkpt lat="44.74539" lon="5.88791">
        <ele>963.330695</ele>
        <time>2025-07-10T08:38:24.000Z</time>
      </trkpt>
      <trkpt lat="44.74549" lon="5.88791">
        <ele>962.670188</ele>
        <time>2025-07-10T08:38:25.000Z</time>
      </trkpt>
      <trkpt lat="44.74558" lon="5.88789">
        <ele>962.062476</ele>
        <time>2025-07-10T08:38:26.000Z</time>
      </trkpt>
      <trkpt lat="44.74565" lon="5.88787">
        <ele>961.572541</ele>
        <time>2025-07-10T08:38:27.000Z</time>
      </trkpt>
      <trkpt lat="44.74573" lon="5.88782">
        <ele>961.005999</ele>
        <time>2025-07-10T08:38:28.000Z</time>
      </trkpt>
      <trkpt lat="44.74582" lon="5.88775">
        <ele>960.353396</ele>
        <time>2025-07-10T08:38:29.000Z</time>
      </trkpt>
      <trkpt lat="44.74589" lon="5.88767">
        <ele>959.738442</ele>
        <time>2025-07-10T08:38:30.000Z</time>
      </trkpt>
      <trkpt lat="44.74597" lon="5.88758">
        <ele>959.084392</ele>
        <time>2025-07-10T08:38:31.000Z</time>
      </trkpt>
      <trkpt lat="44.74605" lon="5.88749">
        <ele>958.304145</ele>
        <time>2025-07-10T08:38:32.000Z</time>
      </trkpt>
      <trkpt lat="44.74612" lon="5.8874">
        <ele>957.521819</ele>
        <time>2025-07-10T08:38:33.000Z</time>
      </trkpt>
      <trkpt lat="44.74618" lon="5.88731">
        <ele>956.816803</ele>
        <time>2025-07-10T08:38:34.000Z</time>
      </trkpt>
      <trkpt lat="44.74625" lon="5.88721">
        <ele>956.014331</ele>
        <time>2025-07-10T08:38:35.000Z</time>
      </trkpt>
      <trkpt lat="44.74632" lon="5.8871">
        <ele>955.184369</ele>
        <time>2025-07-10T08:38:36.000Z</time>
      </trkpt>
      <trkpt lat="44.74639" lon="5.887">
        <ele>954.428774</ele>
        <time>2025-07-10T08:38:37.000Z</time>
      </trkpt>
      <trkpt lat="44.74646" lon="5.88692">
        <ele>953.674494</ele>
        <time>2025-07-10T08:38:38.000Z</time>
      </trkpt>
      <trkpt lat="44.74655" lon="5.88685">
        <ele>952.857406</ele>
        <time>2025-07-10T08:38:39.000Z</time>
      </trkpt>
      <trkpt lat="44.74665" lon="5.88679">
        <ele>952.016424</ele>
        <time>2025-07-10T08:38:40.000Z</time>
      </trkpt>
      <trkpt lat="44.74674" lon="5.88672">
        <ele>951.203135</ele>
        <time>2025-07-10T08:38:41.000Z</time>
      </trkpt>
      <trkpt lat="44.74682" lon="5.88664">
        <ele>950.434747</ele>
        <time>2025-07-10T08:38:42.000Z</time>
      </trkpt>
      <trkpt lat="44.74689" lon="5.88656">
        <ele>949.664572</ele>
        <time>2025-07-10T08:38:43.000Z</time>
      </trkpt>
      <trkpt lat="44.74696" lon="5.88647">
        <ele>948.907648</ele>
        <time>2025-07-10T08:38:44.000Z</time>
      </trkpt>
      <trkpt lat="44.74704" lon="5.88638">
        <ele>948.108236</ele>
        <time>2025-07-10T08:38:45.000Z</time>
      </trkpt>
      <trkpt lat="44.74712" lon="5.88629">
        <ele>947.309639</ele>
        <time>2025-07-10T08:38:46.000Z</time>
      </trkpt>
      <trkpt lat="44.7472" lon="5.88617">
        <ele>946.392581</ele>
        <time>2025-07-10T08:38:47.000Z</time>
      </trkpt>
      <trkpt lat="44.74728" lon="5.88606">
        <ele>945.465369</ele>
        <time>2025-07-10T08:38:48.000Z</time>
      </trkpt>
      <trkpt lat="44.74729" lon="5.88594">
        <ele>944.79008</ele>
        <time>2025-07-10T08:38:49.000Z</time>
      </trkpt>
      <trkpt lat="44.74732" lon="5.8859">
        <ele>944.461349</ele>
        <time>2025-07-10T08:38:50.000Z</time>
      </trkpt>
      <trkpt lat="44.74737" lon="5.88582">
        <ele>943.862461</ele>
        <time>2025-07-10T08:38:51.000Z</time>
      </trkpt>
      <trkpt lat="44.74743" lon="5.88576">
        <ele>943.251221</ele>
        <time>2025-07-10T08:38:52.000Z</time>
      </trkpt>
      <trkpt lat="44.74749" lon="5.88565">
        <ele>942.497389</ele>
        <time>2025-07-10T08:38:53.000Z</time>
      </trkpt>
      <trkpt lat="44.74754" lon="5.88558">
        <ele>941.883918</ele>
        <time>2025-07-10T08:38:54.000Z</time>
      </trkpt>
      <trkpt lat="44.7476" lon="5.88549">
        <ele>941.204522</ele>
        <time>2025-07-10T08:38:55.000Z</time>
      </trkpt>
      <trkpt lat="44.74768" lon="5.88543">
        <ele>940.512747</ele>
        <time>2025-07-10T08:38:56.000Z</time>
      </trkpt>
      <trkpt lat="44.74776" lon="5.8854">
        <ele>939.800388</ele>
        <time>2025-07-10T08:38:57.000Z</time>
      </trkpt>
      <trkpt lat="44.74785" lon="5.88538">
        <ele>939.142962</ele>
        <time>2025-07-10T08:38:58.000Z</time>
      </trkpt>
      <trkpt lat="44.74793" lon="5.88536">
        <ele>938.45311</ele>
        <time>2025-07-10T08:38:59.000Z</time>
      </trkpt>
      <trkpt lat="44.74801" lon="5.88531">
        <ele>937.759397</ele>
        <time>2025-07-10T08:39:00.000Z</time>
      </trkpt>
      <trkpt lat="44.74809" lon="5.88525">
        <ele>937.012699</ele>
        <time>2025-07-10T08:39:01.000Z</time>
      </trkpt>
      <trkpt lat="44.74819" lon="5.88523">
        <ele>936.225563</ele>
        <time>2025-07-10T08:39:02.000Z</time>
      </trkpt>
      <trkpt lat="44.74829" lon="5.88523">
        <ele>935.443228</ele>
        <time>2025-07-10T08:39:03.000Z</time>
      </trkpt>
      <trkpt lat="44.74838" lon="5.88523">
        <ele>934.708517</ele>
        <time>2025-07-10T08:39:04.000Z</time>
      </trkpt>
      <trkpt lat="44.74848" lon="5.88524">
        <ele>933.948856</ele>
        <time>2025-07-10T08:39:05.000Z</time>
      </trkpt>
      <trkpt lat="44.74858" lon="5.88526">
        <ele>933.110216</ele>
        <time>2025-07-10T08:39:06.000Z</time>
      </trkpt>
      <trkpt lat="44.74867" lon="5.88526">
        <ele>932.359356</ele>
        <time>2025-07-10T08:39:07.000Z</time>
      </trkpt>
      <trkpt lat="44.74878" lon="5.88525">
        <ele>931.552838</ele>
        <time>2025-07-10T08:39:08.000Z</time>
      </trkpt>
      <trkpt lat="44.74888" lon="5.88523">
        <ele>930.730799</ele>
        <time>2025-07-10T08:39:09.000Z</time>
      </trkpt>
      <trkpt lat="44.74897" lon="5.8852">
        <ele>930.009554</ele>
        <time>2025-07-10T08:39:10.000Z</time>
      </trkpt>
      <trkpt lat="44.74908" lon="5.88515">
        <ele>929.275222</ele>
        <time>2025-07-10T08:39:11.000Z</time>
      </trkpt>
      <trkpt lat="44.74917" lon="5.8851">
        <ele>928.573931</ele>
        <time>2025-07-10T08:39:12.000Z</time>
      </trkpt>
      <trkpt lat="44.74928" lon="5.88505">
        <ele>927.831453</ele>
        <time>2025-07-10T08:39:13.000Z</time>
      </trkpt>
      <trkpt lat="44.74938" lon="5.88499">
        <ele>927.068366</ele>
        <time>2025-07-10T08:39:14.000Z</time>
      </trkpt>
      <trkpt lat="44.74949" lon="5.88493">
        <ele>926.320676</ele>
        <time>2025-07-10T08:39:15.000Z</time>
      </trkpt>
      <trkpt lat="44.74959" lon="5.88488">
        <ele>925.594186</ele>
        <time>2025-07-10T08:39:16.000Z</time>
      </trkpt>
      <trkpt lat="44.74969" lon="5.88485">
        <ele>924.875612</ele>
        <time>2025-07-10T08:39:17.000Z</time>
      </trkpt>
      <trkpt lat="44.7498" lon="5.88486">
        <ele>924.160133</ele>
        <time>2025-07-10T08:39:18.000Z</time>
      </trkpt>
      <trkpt lat="44.74989" lon="5.8849">
        <ele>923.503296</ele>
        <time>2025-07-10T08:39:19.000Z</time>
      </trkpt>
      <trkpt lat="44.74999" lon="5.88493">
        <ele>922.816086</ele>
        <time>2025-07-10T08:39:20.000Z</time>
      </trkpt>
      <trkpt lat="44.7501" lon="5.88494">
        <ele>922.10779</ele>
        <time>2025-07-10T08:39:21.000Z</time>
      </trkpt>
      <trkpt lat="44.7502" lon="5.88493">
        <ele>921.413292</ele>
        <time>2025-07-10T08:39:22.000Z</time>
      </trkpt>
      <trkpt lat="44.7503" lon="5.88492">
        <ele>920.700916</ele>
        <time>2025-07-10T08:39:23.000Z</time>
      </trkpt>
      <trkpt lat="44.75041" lon="5.8849">
        <ele>920.009169</ele>
        <time>2025-07-10T08:39:24.000Z</time>
      </trkpt>
      <trkpt lat="44.75051" lon="5.88489">
        <ele>919.333459</ele>
        <time>2025-07-10T08:39:25.000Z</time>
      </trkpt>
      <trkpt lat="44.75061" lon="5.88489">
        <ele>918.645699</ele>
        <time>2025-07-10T08:39:26.000Z</time>
      </trkpt>
      <trkpt lat="44.7507" lon="5.88487">
        <ele>918.279415</ele>
        <time>2025-07-10T08:39:27.000Z</time>
      </trkpt>
      <trkpt lat="44.75079" lon="5.88488">
        <ele>918.338267</ele>
        <time>2025-07-10T08:39:28.000Z</time>
      </trkpt>
      <trkpt lat="44.75086" lon="5.88485">
        <ele>918.389768</ele>
        <time>2025-07-10T08:39:29.000Z</time>
      </trkpt>
      <trkpt lat="44.75091" lon="5.88478">
        <ele>918.436953</ele>
        <time>2025-07-10T08:39:30.000Z</time>
      </trkpt>
      <trkpt lat="44.75093" lon="5.88468">
        <ele>918.487846</ele>
        <time>2025-07-10T08:39:31.000Z</time>
      </trkpt>
      <trkpt lat="44.75095" lon="5.88459">
        <ele>918.535938</ele>
        <time>2025-07-10T08:39:32.000Z</time>
      </trkpt>
      <trkpt lat="44.75097" lon="5.8845">
        <ele>918.580803</ele>
        <time>2025-07-10T08:39:33.000Z</time>
      </trkpt>
      <trkpt lat="44.75099" lon="5.88441">
        <ele>918.626203</ele>
        <time>2025-07-10T08:39:34.000Z</time>
      </trkpt>
      <trkpt lat="44.751" lon="5.88434">
        <ele>918.665094</ele>
        <time>2025-07-10T08:39:35.000Z</time>
      </trkpt>
      <trkpt lat="44.75102" lon="5.88425">
        <ele>918.708575</ele>
        <time>2025-07-10T08:39:36.000Z</time>
      </trkpt>
      <trkpt lat="44.75103" lon="5.88417">
        <ele>918.747731</ele>
        <time>2025-07-10T08:39:37.000Z</time>
      </trkpt>
      <trkpt lat="44.75104" lon="5.8841">
        <ele>918.782754</ele>
        <time>2025-07-10T08:39:38.000Z</time>
      </trkpt>
      <trkpt lat="44.75106" lon="5.88404">
        <ele>918.815819</ele>
        <time>2025-07-10T08:39:39.000Z</time>
      </trkpt>
      <trkpt lat="44.75107" lon="5.88398">
        <ele>918.844625</ele>
        <time>2025-07-10T08:39:40.000Z</time>
      </trkpt>
      <trkpt lat="44.75108" lon="5.88392">
        <ele>918.874576</ele>
        <time>2025-07-10T08:39:41.000Z</time>
      </trkpt>
      <trkpt lat="44.75109" lon="5.88387">
        <ele>918.901955</ele>
        <time>2025-07-10T08:39:42.000Z</time>
      </trkpt>
      <trkpt lat="44.7511" lon="5.88381">
        <ele>918.931594</ele>
        <time>2025-07-10T08:39:43.000Z</time>
      </trkpt>
      <trkpt lat="44.75111" lon="5.88375">
        <ele>918.961648</ele>
        <time>2025-07-10T08:39:44.000Z</time>
      </trkpt>
      <trkpt lat="44.75111" lon="5.88371">
        <ele>918.9848</ele>
        <time>2025-07-10T08:39:45.000Z</time>
      </trkpt>
      <trkpt lat="44.75113" lon="5.88367">
        <ele>919.007601</ele>
        <time>2025-07-10T08:39:46.000Z</time>
      </trkpt>
      <trkpt lat="44.75116" lon="5.88362">
        <ele>919.03641</ele>
        <time>2025-07-10T08:39:47.000Z</time>
      </trkpt>
      <trkpt lat="44.75119" lon="5.88358">
        <ele>919.064114</ele>
        <time>2025-07-10T08:39:48.000Z</time>
      </trkpt>
      <trkpt lat="44.75122" lon="5.88355">
        <ele>919.091833</ele>
        <time>2025-07-10T08:39:49.000Z</time>
      </trkpt>
      <trkpt lat="44.75125" lon="5.88352">
        <ele>919.11786</ele>
        <time>2025-07-10T08:39:50.000Z</time>
      </trkpt>
      <trkpt lat="44.75128" lon="5.88349">
        <ele>919.141927</ele>
        <time>2025-07-10T08:39:51.000Z</time>
      </trkpt>
      <trkpt lat="44.75132" lon="5.88347">
        <ele>919.167841</ele>
        <time>2025-07-10T08:39:52.000Z</time>
      </trkpt>
      <trkpt lat="44.75134" lon="5.88346">
        <ele>919.18602</ele>
        <time>2025-07-10T08:39:53.000Z</time>
      </trkpt>
      <trkpt lat="44.75137" lon="5.88345">
        <ele>919.209241</ele>
        <time>2025-07-10T08:39:54.000Z</time>
      </trkpt>
      <trkpt lat="44.75139" lon="5.88344">
        <ele>919.225369</ele>
        <time>2025-07-10T08:39:55.000Z</time>
      </trkpt>
      <trkpt lat="44.75142" lon="5.88343">
        <ele>919.243866</ele>
        <time>2025-07-10T08:39:56.000Z</time>
      </trkpt>
      <trkpt lat="44.75145" lon="5.88343">
        <ele>919.265978</ele>
        <time>2025-07-10T08:39:57.000Z</time>
      </trkpt>
      <trkpt lat="44.75149" lon="5.88343">
        <ele>919.290202</ele>
        <time>2025-07-10T08:39:58.000Z</time>
      </trkpt>
      <trkpt lat="44.75152" lon="5.88342">
        <ele>919.313711</ele>
        <time>2025-07-10T08:39:59.000Z</time>
      </trkpt>
      <trkpt lat="44.75155" lon="5.88342">
        <ele>919.334436</ele>
        <time>2025-07-10T08:40:00.000Z</time>
      </trkpt>
      <trkpt lat="44.75158" lon="5.88342">
        <ele>919.354686</ele>
        <time>2025-07-10T08:40:01.000Z</time>
      </trkpt>
      <trkpt lat="44.75161" lon="5.88343">
        <ele>919.376771</ele>
        <time>2025-07-10T08:40:02.000Z</time>
      </trkpt>
      <trkpt lat="44.75164" lon="5.88344">
        <ele>919.398638</ele>
        <time>2025-07-10T08:40:03.000Z</time>
      </trkpt>
      <trkpt lat="44.75167" lon="5.88345">
        <ele>919.419731</ele>
        <time>2025-07-10T08:40:04.000Z</time>
      </trkpt>
      <trkpt lat="44.7517" lon="5.88346">
        <ele>919.438142</ele>
        <time>2025-07-10T08:40:05.000Z</time>
      </trkpt>
      <trkpt lat="44.75172" lon="5.88347">
        <ele>919.455248</ele>
        <time>2025-07-10T08:40:06.000Z</time>
      </trkpt>
      <trkpt lat="44.75175" lon="5.88349">
        <ele>919.478398</ele>
        <time>2025-07-10T08:40:07.000Z</time>
      </trkpt>
      <trkpt lat="44.75178" lon="5.8835">
        <ele>919.506776</ele>
        <time>2025-07-10T08:40:08.000Z</time>
      </trkpt>
      <trkpt lat="44.75181" lon="5.88351">
        <ele>919.585567</ele>
        <time>2025-07-10T08:40:09.000Z</time>
      </trkpt>
      <trkpt lat="44.75183" lon="5.88353">
        <ele>919.670375</ele>
        <time>2025-07-10T08:40:10.000Z</time>
      </trkpt>
      <trkpt lat="44.75186" lon="5.88354">
        <ele>919.748472</ele>
        <time>2025-07-10T08:40:11.000Z</time>
      </trkpt>
      <trkpt lat="44.75189" lon="5.88354">
        <ele>919.838297</ele>
        <time>2025-07-10T08:40:12.000Z</time>
      </trkpt>
      <trkpt lat="44.75191" lon="5.88355">
        <ele>919.91524</ele>
        <time>2025-07-10T08:40:13.000Z</time>
      </trkpt>
      <trkpt lat="44.75194" lon="5.88357">
        <ele>919.987053</ele>
        <time>2025-07-10T08:40:14.000Z</time>
      </trkpt>
      <trkpt lat="44.75197" lon="5.88357">
        <ele>920.080345</ele>
        <time>2025-07-10T08:40:15.000Z</time>
      </trkpt>
      <trkpt lat="44.752" lon="5.88358">
        <ele>920.157926</ele>
        <time>2025-07-10T08:40:16.000Z</time>
      </trkpt>
      <trkpt lat="44.75202" lon="5.88359">
        <ele>920.238822</ele>
        <time>2025-07-10T08:40:17.000Z</time>
      </trkpt>
      <trkpt lat="44.75205" lon="5.8836">
        <ele>920.327701</ele>
        <time>2025-07-10T08:40:18.000Z</time>
      </trkpt>
      <trkpt lat="44.75208" lon="5.8836">
        <ele>920.406368</ele>
        <time>2025-07-10T08:40:19.000Z</time>
      </trkpt>
      <trkpt lat="44.75211" lon="5.88361">
        <ele>920.491301</ele>
        <time>2025-07-10T08:40:20.000Z</time>
      </trkpt>
      <trkpt lat="44.75214" lon="5.88361">
        <ele>920.575733</ele>
        <time>2025-07-10T08:40:21.000Z</time>
      </trkpt>
      <trkpt lat="44.75217" lon="5.88361">
        <ele>920.674251</ele>
        <time>2025-07-10T08:40:22.000Z</time>
      </trkpt>
      <trkpt lat="44.7522" lon="5.88361">
        <ele>920.758383</ele>
        <time>2025-07-10T08:40:23.000Z</time>
      </trkpt>
      <trkpt lat="44.75223" lon="5.88362">
        <ele>920.848302</ele>
        <time>2025-07-10T08:40:24.000Z</time>
      </trkpt>
      <trkpt lat="44.75226" lon="5.88363">
        <ele>920.937134</ele>
        <time>2025-07-10T08:40:25.000Z</time>
      </trkpt>
      <trkpt lat="44.7523" lon="5.88364">
        <ele>921.045352</ele>
        <time>2025-07-10T08:40:26.000Z</time>
      </trkpt>
      <trkpt lat="44.75233" lon="5.88366">
        <ele>921.141857</ele>
        <time>2025-07-10T08:40:27.000Z</time>
      </trkpt>
      <trkpt lat="44.75236" lon="5.88367">
        <ele>921.233179</ele>
        <time>2025-07-10T08:40:28.000Z</time>
      </trkpt>
      <trkpt lat="44.75239" lon="5.88368">
        <ele>921.32413</ele>
        <time>2025-07-10T08:40:29.000Z</time>
      </trkpt>
      <trkpt lat="44.75242" lon="5.88369">
        <ele>921.418684</ele>
        <time>2025-07-10T08:40:30.000Z</time>
      </trkpt>
      <trkpt lat="44.75246" lon="5.88369">
        <ele>921.517739</ele>
        <time>2025-07-10T08:40:31.000Z</time>
      </trkpt>
      <trkpt lat="44.75249" lon="5.8837">
        <ele>921.615548</ele>
        <time>2025-07-10T08:40:32.000Z</time>
      </trkpt>
      <trkpt lat="44.75252" lon="5.88371">
        <ele>921.717713</ele>
        <time>2025-07-10T08:40:33.000Z</time>
      </trkpt>
      <trkpt lat="44.75256" lon="5.88371">
        <ele>921.813533</ele>
        <time>2025-07-10T08:40:34.000Z</time>
      </trkpt>
      <trkpt lat="44.75258" lon="5.88372">
        <ele>921.893083</ele>
        <time>2025-07-10T08:40:35.000Z</time>
      </trkpt>
      <trkpt lat="44.75261" lon="5.88373">
        <ele>921.984798</ele>
        <time>2025-07-10T08:40:36.000Z</time>
      </trkpt>
      <trkpt lat="44.75264" lon="5.88374">
        <ele>922.074128</ele>
        <time>2025-07-10T08:40:37.000Z</time>
      </trkpt>
      <trkpt lat="44.75268" lon="5.88374">
        <ele>922.170543</ele>
        <time>2025-07-10T08:40:38.000Z</time>
      </trkpt>
      <trkpt lat="44.7527" lon="5.88375">
        <ele>922.244027</ele>
        <time>2025-07-10T08:40:39.000Z</time>
      </trkpt>
      <trkpt lat="44.75273" lon="5.88375">
        <ele>922.316584</ele>
        <time>2025-07-10T08:40:40.000Z</time>
      </trkpt>
      <trkpt lat="44.75276" lon="5.88375">
        <ele>922.403537</ele>
        <time>2025-07-10T08:40:41.000Z</time>
      </trkpt>
      <trkpt lat="44.75278" lon="5.88376">
        <ele>922.483087</ele>
        <time>2025-07-10T08:40:42.000Z</time>
      </trkpt>
      <trkpt lat="44.75281" lon="5.88377">
        <ele>922.565488</ele>
        <time>2025-07-10T08:40:43.000Z</time>
      </trkpt>
      <trkpt lat="44.75284" lon="5.88377">
        <ele>922.644155</ele>
        <time>2025-07-10T08:40:44.000Z</time>
      </trkpt>
      <trkpt lat="44.75287" lon="5.88378">
        <ele>922.725938</ele>
        <time>2025-07-10T08:40:45.000Z</time>
      </trkpt>
      <trkpt lat="44.7529" lon="5.88378">
        <ele>922.810195</ele>
        <time>2025-07-10T08:40:46.000Z</time>
      </trkpt>
      <trkpt lat="44.75293" lon="5.88378">
        <ele>922.900114</ele>
        <time>2025-07-10T08:40:47.000Z</time>
      </trkpt>
      <trkpt lat="44.75296" lon="5.88378">
        <ele>922.987067</ele>
        <time>2025-07-10T08:40:48.000Z</time>
      </trkpt>
      <trkpt lat="44.75298" lon="5.88378">
        <ele>923.059507</ele>
        <time>2025-07-10T08:40:49.000Z</time>
      </trkpt>
      <trkpt lat="44.75301" lon="5.88378">
        <ele>923.146823</ele>
        <time>2025-07-10T08:40:50.000Z</time>
      </trkpt>
      <trkpt lat="44.75304" lon="5.88378">
        <ele>923.230854</ele>
        <time>2025-07-10T08:40:51.000Z</time>
      </trkpt>
      <trkpt lat="44.75307" lon="5.88377">
        <ele>923.318001</ele>
        <time>2025-07-10T08:40:52.000Z</time>
      </trkpt>
      <trkpt lat="44.7531" lon="5.88377">
        <ele>923.39955</ele>
        <time>2025-07-10T08:40:53.000Z</time>
      </trkpt>
      <trkpt lat="44.75312" lon="5.88376">
        <ele>923.474856</ele>
        <time>2025-07-10T08:40:54.000Z</time>
      </trkpt>
      <trkpt lat="44.75314" lon="5.88375">
        <ele>923.532942</ele>
        <time>2025-07-10T08:40:55.000Z</time>
      </trkpt>
      <trkpt lat="44.75317" lon="5.88374">
        <ele>923.614385</ele>
        <time>2025-07-10T08:40:56.000Z</time>
      </trkpt>
      <trkpt lat="44.7532" lon="5.88373">
        <ele>923.700013</ele>
        <time>2025-07-10T08:40:57.000Z</time>
      </trkpt>
      <trkpt lat="44.75322" lon="5.88373">
        <ele>923.770041</ele>
        <time>2025-07-10T08:40:58.000Z</time>
      </trkpt>
      <trkpt lat="44.75325" lon="5.88372">
        <ele>923.854699</ele>
        <time>2025-07-10T08:40:59.000Z</time>
      </trkpt>
      <trkpt lat="44.75328" lon="5.88372">
        <ele>923.931401</ele>
        <time>2025-07-10T08:41:00.000Z</time>
      </trkpt>
      <trkpt lat="44.75331" lon="5.88371">
        <ele>924.013802</ele>
        <time>2025-07-10T08:41:01.000Z</time>
      </trkpt>
      <trkpt lat="44.75334" lon="5.88371">
        <ele>924.097933</ele>
        <time>2025-07-10T08:41:02.000Z</time>
      </trkpt>
      <trkpt lat="44.75337" lon="5.88371">
        <ele>924.190862</ele>
        <time>2025-07-10T08:41:03.000Z</time>
      </trkpt>
      <trkpt lat="44.7534" lon="5.88372">
        <ele>924.277887</ele>
        <time>2025-07-10T08:41:04.000Z</time>
      </trkpt>
      <trkpt lat="44.75343" lon="5.88372">
        <ele>924.37061</ele>
        <time>2025-07-10T08:41:05.000Z</time>
      </trkpt>
      <trkpt lat="44.75346" lon="5.88372">
        <ele>924.472047</ele>
        <time>2025-07-10T08:41:06.000Z</time>
      </trkpt>
      <trkpt lat="44.75349" lon="5.88372">
        <ele>924.553206</ele>
        <time>2025-07-10T08:41:07.000Z</time>
      </trkpt>
      <trkpt lat="44.75352" lon="5.88373">
        <ele>924.644921</ele>
        <time>2025-07-10T08:41:08.000Z</time>
      </trkpt>
      <trkpt lat="44.75355" lon="5.88373">
        <ele>924.729724</ele>
        <time>2025-07-10T08:41:09.000Z</time>
      </trkpt>
      <trkpt lat="44.75358" lon="5.88373">
        <ele>924.823567</ele>
        <time>2025-07-10T08:41:10.000Z</time>
      </trkpt>
      <trkpt lat="44.7536" lon="5.88373">
        <ele>924.913687</ele>
        <time>2025-07-10T08:41:11.000Z</time>
      </trkpt>
      <trkpt lat="44.75363" lon="5.88373">
        <ele>925.014199</ele>
        <time>2025-07-10T08:41:12.000Z</time>
      </trkpt>
      <trkpt lat="44.75366" lon="5.88374">
        <ele>925.122621</ele>
        <time>2025-07-10T08:41:13.000Z</time>
      </trkpt>
      <trkpt lat="44.7537" lon="5.88375">
        <ele>925.234827</ele>
        <time>2025-07-10T08:41:14.000Z</time>
      </trkpt>
      <trkpt lat="44.75373" lon="5.88375">
        <ele>925.34573</ele>
        <time>2025-07-10T08:41:15.000Z</time>
      </trkpt>
      <trkpt lat="44.75376" lon="5.88375">
        <ele>925.456607</ele>
        <time>2025-07-10T08:41:16.000Z</time>
      </trkpt>
      <trkpt lat="44.75379" lon="5.88375">
        <ele>925.554122</ele>
        <time>2025-07-10T08:41:17.000Z</time>
      </trkpt>
      <trkpt lat="44.75382" lon="5.88376">
        <ele>925.661787</ele>
        <time>2025-07-10T08:41:18.000Z</time>
      </trkpt>
      <trkpt lat="44.75385" lon="5.88376">
        <ele>925.75992</ele>
        <time>2025-07-10T08:41:19.000Z</time>
      </trkpt>
      <trkpt lat="44.75388" lon="5.88376">
        <ele>925.860402</ele>
        <time>2025-07-10T08:41:20.000Z</time>
      </trkpt>
      <trkpt lat="44.75391" lon="5.88377">
        <ele>925.968823</ele>
        <time>2025-07-10T08:41:21.000Z</time>
      </trkpt>
      <trkpt lat="44.75394" lon="5.88378">
        <ele>926.072274</ele>
        <time>2025-07-10T08:41:22.000Z</time>
      </trkpt>
      <trkpt lat="44.75397" lon="5.88379">
        <ele>926.18534</ele>
        <time>2025-07-10T08:41:23.000Z</time>
      </trkpt>
      <trkpt lat="44.75399" lon="5.88381">
        <ele>926.293025</ele>
        <time>2025-07-10T08:41:24.000Z</time>
      </trkpt>
      <trkpt lat="44.75402" lon="5.88383">
        <ele>926.385418</ele>
        <time>2025-07-10T08:41:25.000Z</time>
      </trkpt>
      <trkpt lat="44.75405" lon="5.88383">
        <ele>926.49283</ele>
        <time>2025-07-10T08:41:26.000Z</time>
      </trkpt>
      <trkpt lat="44.75408" lon="5.88383">
        <ele>926.596805</ele>
        <time>2025-07-10T08:41:27.000Z</time>
      </trkpt>
      <trkpt lat="44.75411" lon="5.88383">
        <ele>926.694103</ele>
        <time>2025-07-10T08:41:28.000Z</time>
      </trkpt>
      <trkpt lat="44.75413" lon="5.88383">
        <ele>926.794615</ele>
        <time>2025-07-10T08:41:29.000Z</time>
      </trkpt>
      <trkpt lat="44.75416" lon="5.88383">
        <ele>926.895367</ele>
        <time>2025-07-10T08:41:30.000Z</time>
      </trkpt>
      <trkpt lat="44.75419" lon="5.88383">
        <ele>927.003788</ele>
        <time>2025-07-10T08:41:31.000Z</time>
      </trkpt>
      <trkpt lat="44.75423" lon="5.88384">
        <ele>927.115345</ele>
        <time>2025-07-10T08:41:32.000Z</time>
      </trkpt>
      <trkpt lat="44.75425" lon="5.88384">
        <ele>927.208929</ele>
        <time>2025-07-10T08:41:33.000Z</time>
      </trkpt>
      <trkpt lat="44.75428" lon="5.88384">
        <ele>927.303639</ele>
        <time>2025-07-10T08:41:34.000Z</time>
      </trkpt>
      <trkpt lat="44.75431" lon="5.88384">
        <ele>927.411501</ele>
        <time>2025-07-10T08:41:35.000Z</time>
      </trkpt>
      <trkpt lat="44.75434" lon="5.88384">
        <ele>927.525948</ele>
        <time>2025-07-10T08:41:36.000Z</time>
      </trkpt>
      <trkpt lat="44.75438" lon="5.88384">
        <ele>927.647244</ele>
        <time>2025-07-10T08:41:37.000Z</time>
      </trkpt>
      <trkpt lat="44.7544" lon="5.88384">
        <ele>927.727542</ele>
        <time>2025-07-10T08:41:38.000Z</time>
      </trkpt>
      <trkpt lat="44.75442" lon="5.88384">
        <ele>927.800967</ele>
        <time>2025-07-10T08:41:39.000Z</time>
      </trkpt>
      <trkpt lat="44.75445" lon="5.88384">
        <ele>927.877353</ele>
        <time>2025-07-10T08:41:40.000Z</time>
      </trkpt>
      <trkpt lat="44.75447" lon="5.88384">
        <ele>927.950157</ele>
        <time>2025-07-10T08:41:41.000Z</time>
      </trkpt>
      <trkpt lat="44.75449" lon="5.88385">
        <ele>928.030455</ele>
        <time>2025-07-10T08:41:42.000Z</time>
      </trkpt>
      <trkpt lat="44.75451" lon="5.88386">
        <ele>928.119552</ele>
        <time>2025-07-10T08:41:43.000Z</time>
      </trkpt>
      <trkpt lat="44.75453" lon="5.88387">
        <ele>928.181657</ele>
        <time>2025-07-10T08:41:44.000Z</time>
      </trkpt>
      <trkpt lat="44.75455" lon="5.88387">
        <ele>928.265395</ele>
        <time>2025-07-10T08:41:45.000Z</time>
      </trkpt>
      <trkpt lat="44.75458" lon="5.88388">
        <ele>928.340168</ele>
        <time>2025-07-10T08:41:46.000Z</time>
      </trkpt>
      <trkpt lat="44.7546" lon="5.88387">
        <ele>928.420805</ele>
        <time>2025-07-10T08:41:47.000Z</time>
      </trkpt>
      <trkpt lat="44.75464" lon="5.88387">
        <ele>928.5491</ele>
        <time>2025-07-10T08:41:48.000Z</time>
      </trkpt>
      <trkpt lat="44.75466" lon="5.88388">
        <ele>928.629398</ele>
        <time>2025-07-10T08:41:49.000Z</time>
      </trkpt>
      <trkpt lat="44.75468" lon="5.88389">
        <ele>928.715191</ele>
        <time>2025-07-10T08:41:50.000Z</time>
      </trkpt>
      <trkpt lat="44.7547" lon="5.88389">
        <ele>928.795035</ele>
        <time>2025-07-10T08:41:51.000Z</time>
      </trkpt>
      <trkpt lat="44.75472" lon="5.88391">
        <ele>928.861635</ele>
        <time>2025-07-10T08:41:52.000Z</time>
      </trkpt>
      <trkpt lat="44.75474" lon="5.88392">
        <ele>928.937693</ele>
        <time>2025-07-10T08:41:53.000Z</time>
      </trkpt>
      <trkpt lat="44.75476" lon="5.88393">
        <ele>929.009732</ele>
        <time>2025-07-10T08:41:54.000Z</time>
      </trkpt>
      <trkpt lat="44.75478" lon="5.88394">
        <ele>929.094719</ele>
        <time>2025-07-10T08:41:55.000Z</time>
      </trkpt>
      <trkpt lat="44.75482" lon="5.88396">
        <ele>929.217338</ele>
        <time>2025-07-10T08:41:56.000Z</time>
      </trkpt>
      <trkpt lat="44.75485" lon="5.88396">
        <ele>929.319285</ele>
        <time>2025-07-10T08:41:57.000Z</time>
      </trkpt>
      <trkpt lat="44.75487" lon="5.88398">
        <ele>929.404278</ele>
        <time>2025-07-10T08:41:58.000Z</time>
      </trkpt>
      <trkpt lat="44.7549" lon="5.88399">
        <ele>929.51214</ele>
        <time>2025-07-10T08:41:59.000Z</time>
      </trkpt>
      <trkpt lat="44.75492" lon="5.884">
        <ele>929.597595</ele>
        <time>2025-07-10T08:42:00.000Z</time>
      </trkpt>
      <trkpt lat="44.75495" lon="5.88402">
        <ele>929.701448</ele>
        <time>2025-07-10T08:42:01.000Z</time>
      </trkpt>
      <trkpt lat="44.75497" lon="5.88402">
        <ele>929.799242</ele>
        <time>2025-07-10T08:42:02.000Z</time>
      </trkpt>
      <trkpt lat="44.755" lon="5.88403">
        <ele>929.897343</ele>
        <time>2025-07-10T08:42:03.000Z</time>
      </trkpt>
      <trkpt lat="44.75502" lon="5.88405">
        <ele>929.986229</ele>
        <time>2025-07-10T08:42:04.000Z</time>
      </trkpt>
      <trkpt lat="44.75505" lon="5.88407">
        <ele>930.087726</ele>
        <time>2025-07-10T08:42:05.000Z</time>
      </trkpt>
      <trkpt lat="44.75507" lon="5.88408">
        <ele>930.172908</ele>
        <time>2025-07-10T08:42:06.000Z</time>
      </trkpt>
      <trkpt lat="44.75509" lon="5.8841">
        <ele>930.237827</ele>
        <time>2025-07-10T08:42:07.000Z</time>
      </trkpt>
      <trkpt lat="44.7551" lon="5.88412">
        <ele>930.317271</ele>
        <time>2025-07-10T08:42:08.000Z</time>
      </trkpt>
      <trkpt lat="44.75512" lon="5.88415">
        <ele>930.400678</ele>
        <time>2025-07-10T08:42:09.000Z</time>
      </trkpt>
      <trkpt lat="44.75514" lon="5.88418">
        <ele>930.492977</ele>
        <time>2025-07-10T08:42:10.000Z</time>
      </trkpt>
      <trkpt lat="44.75515" lon="5.88421">
        <ele>930.583336</ele>
        <time>2025-07-10T08:42:11.000Z</time>
      </trkpt>
      <trkpt lat="44.75517" lon="5.88424">
        <ele>930.682803</ele>
        <time>2025-07-10T08:42:12.000Z</time>
      </trkpt>
      <trkpt lat="44.75519" lon="5.88426">
        <ele>930.771589</ele>
        <time>2025-07-10T08:42:13.000Z</time>
      </trkpt>
      <trkpt lat="44.7552" lon="5.88429">
        <ele>930.854663</ele>
        <time>2025-07-10T08:42:14.000Z</time>
      </trkpt>
      <trkpt lat="44.75521" lon="5.88433">
        <ele>930.947476</ele>
        <time>2025-07-10T08:42:15.000Z</time>
      </trkpt>
      <trkpt lat="44.75522" lon="5.88436">
        <ele>931.038737</ele>
        <time>2025-07-10T08:42:16.000Z</time>
      </trkpt>
      <trkpt lat="44.75524" lon="5.88438">
        <ele>931.12818</ele>
        <time>2025-07-10T08:42:17.000Z</time>
      </trkpt>
      <trkpt lat="44.75526" lon="5.88442">
        <ele>931.227894</ele>
        <time>2025-07-10T08:42:18.000Z</time>
      </trkpt>
      <trkpt lat="44.75528" lon="5.88444">
        <ele>931.314222</ele>
        <time>2025-07-10T08:42:19.000Z</time>
      </trkpt>
      <trkpt lat="44.75529" lon="5.88447">
        <ele>931.394104</ele>
        <time>2025-07-10T08:42:20.000Z</time>
      </trkpt>
      <trkpt lat="44.75531" lon="5.88449">
        <ele>931.474507</ele>
        <time>2025-07-10T08:42:21.000Z</time>
      </trkpt>
      <trkpt lat="44.75532" lon="5.88452">
        <ele>931.545157</ele>
        <time>2025-07-10T08:42:22.000Z</time>
      </trkpt>
      <trkpt lat="44.75533" lon="5.88454">
        <ele>931.620844</ele>
        <time>2025-07-10T08:42:23.000Z</time>
      </trkpt>
      <trkpt lat="44.75534" lon="5.88456">
        <ele>931.693598</ele>
        <time>2025-07-10T08:42:24.000Z</time>
      </trkpt>
      <trkpt lat="44.75536" lon="5.88459">
        <ele>931.775423</ele>
        <time>2025-07-10T08:42:25.000Z</time>
      </trkpt>
      <trkpt lat="44.75537" lon="5.88462">
        <ele>931.865982</ele>
        <time>2025-07-10T08:42:26.000Z</time>
      </trkpt>
      <trkpt lat="44.75538" lon="5.88466">
        <ele>931.955581</ele>
        <time>2025-07-10T08:42:27.000Z</time>
      </trkpt>
      <trkpt lat="44.75538" lon="5.8847">
        <ele>932.06311</ele>
        <time>2025-07-10T08:42:28.000Z</time>
      </trkpt>
      <trkpt lat="44.75538" lon="5.88475">
        <ele>932.170866</ele>
        <time>2025-07-10T08:42:29.000Z</time>
      </trkpt>
      <trkpt lat="44.7554" lon="5.88478">
        <ele>932.270719</ele>
        <time>2025-07-10T08:42:30.000Z</time>
      </trkpt>
      <trkpt lat="44.75541" lon="5.88482">
        <ele>932.375953</ele>
        <time>2025-07-10T08:42:31.000Z</time>
      </trkpt>
      <trkpt lat="44.75542" lon="5.88486">
        <ele>932.482168</ele>
        <time>2025-07-10T08:42:32.000Z</time>
      </trkpt>
      <trkpt lat="44.75544" lon="5.8849">
        <ele>932.584121</ele>
        <time>2025-07-10T08:42:33.000Z</time>
      </trkpt>
      <trkpt lat="44.75545" lon="5.88493">
        <ele>932.685689</ele>
        <time>2025-07-10T08:42:34.000Z</time>
      </trkpt>
      <trkpt lat="44.75547" lon="5.88496">
        <ele>932.774383</ele>
        <time>2025-07-10T08:42:35.000Z</time>
      </trkpt>
      <trkpt lat="44.75549" lon="5.88499">
        <ele>932.86898</ele>
        <time>2025-07-10T08:42:36.000Z</time>
      </trkpt>
      <trkpt lat="44.75551" lon="5.88502">
        <ele>932.972716</ele>
        <time>2025-07-10T08:42:37.000Z</time>
      </trkpt>
      <trkpt lat="44.75552" lon="5.88505">
        <ele>933.072739</ele>
        <time>2025-07-10T08:42:38.000Z</time>
      </trkpt>
      <trkpt lat="44.75554" lon="5.88508">
        <ele>933.168039</ele>
        <time>2025-07-10T08:42:39.000Z</time>
      </trkpt>
      <trkpt lat="44.75556" lon="5.88509">
        <ele>933.237621</ele>
        <time>2025-07-10T08:42:40.000Z</time>
      </trkpt>
      <trkpt lat="44.75558" lon="5.88511">
        <ele>933.314998</ele>
        <time>2025-07-10T08:42:41.000Z</time>
      </trkpt>
      <trkpt lat="44.75561" lon="5.88513">
        <ele>933.40754</ele>
        <time>2025-07-10T08:42:42.000Z</time>
      </trkpt>
      <trkpt lat="44.75563" lon="5.88515">
        <ele>933.520844</ele>
        <time>2025-07-10T08:42:43.000Z</time>
      </trkpt>
      <trkpt lat="44.75566" lon="5.88517">
        <ele>933.623527</ele>
        <time>2025-07-10T08:42:44.000Z</time>
      </trkpt>
      <trkpt lat="44.75568" lon="5.88519">
        <ele>933.711045</ele>
        <time>2025-07-10T08:42:45.000Z</time>
      </trkpt>
      <trkpt lat="44.7557" lon="5.88521">
        <ele>933.808076</ele>
        <time>2025-07-10T08:42:46.000Z</time>
      </trkpt>
      <trkpt lat="44.75573" lon="5.88522">
        <ele>933.90017</ele>
        <time>2025-07-10T08:42:47.000Z</time>
      </trkpt>
      <trkpt lat="44.75575" lon="5.88524">
        <ele>933.97929</ele>
        <time>2025-07-10T08:42:48.000Z</time>
      </trkpt>
      <trkpt lat="44.75577" lon="5.88525">
        <ele>934.060284</ele>
        <time>2025-07-10T08:42:49.000Z</time>
      </trkpt>
      <trkpt lat="44.7558" lon="5.88527">
        <ele>934.152826</ele>
        <time>2025-07-10T08:42:50.000Z</time>
      </trkpt>
      <trkpt lat="44.75582" lon="5.88528">
        <ele>934.254558</ele>
        <time>2025-07-10T08:42:51.000Z</time>
      </trkpt>
      <trkpt lat="44.75585" lon="5.88529">
        <ele>934.361885</ele>
        <time>2025-07-10T08:42:52.000Z</time>
      </trkpt>
      <trkpt lat="44.75588" lon="5.8853">
        <ele>934.460159</ele>
        <time>2025-07-10T08:42:53.000Z</time>
      </trkpt>
      <trkpt lat="44.75591" lon="5.88531">
        <ele>934.555596</ele>
        <time>2025-07-10T08:42:54.000Z</time>
      </trkpt>
      <trkpt lat="44.75594" lon="5.88532">
        <ele>934.655585</ele>
        <time>2025-07-10T08:42:55.000Z</time>
      </trkpt>
      <trkpt lat="44.75596" lon="5.88533">
        <ele>934.748127</ele>
        <time>2025-07-10T08:42:56.000Z</time>
      </trkpt>
      <trkpt lat="44.75599" lon="5.88534">
        <ele>934.836576</ele>
        <time>2025-07-10T08:42:57.000Z</time>
      </trkpt>
      <trkpt lat="44.75601" lon="5.88536">
        <ele>934.932323</ele>
        <time>2025-07-10T08:42:58.000Z</time>
      </trkpt>
      <trkpt lat="44.75604" lon="5.88537">
        <ele>935.035629</ele>
        <time>2025-07-10T08:42:59.000Z</time>
      </trkpt>
      <trkpt lat="44.75607" lon="5.88538">
        <ele>935.137039</ele>
        <time>2025-07-10T08:43:00.000Z</time>
      </trkpt>
      <trkpt lat="44.75609" lon="5.8854">
        <ele>935.230511</ele>
        <time>2025-07-10T08:43:01.000Z</time>
      </trkpt>
      <trkpt lat="44.75612" lon="5.88541">
        <ele>935.327157</ele>
        <time>2025-07-10T08:43:02.000Z</time>
      </trkpt>
      <trkpt lat="44.75614" lon="5.88543">
        <ele>935.417475</ele>
        <time>2025-07-10T08:43:03.000Z</time>
      </trkpt>
      <trkpt lat="44.75617" lon="5.88544">
        <ele>935.513222</ele>
        <time>2025-07-10T08:43:04.000Z</time>
      </trkpt>
      <trkpt lat="44.75619" lon="5.88546">
        <ele>935.603539</ele>
        <time>2025-07-10T08:43:05.000Z</time>
      </trkpt>
      <trkpt lat="44.75622" lon="5.88547">
        <ele>935.694389</ele>
        <time>2025-07-10T08:43:06.000Z</time>
      </trkpt>
      <trkpt lat="44.75624" lon="5.88548">
        <ele>935.790136</ele>
        <time>2025-07-10T08:43:07.000Z</time>
      </trkpt>
      <trkpt lat="44.75627" lon="5.88549">
        <ele>935.891783</ele>
        <time>2025-07-10T08:43:08.000Z</time>
      </trkpt>
      <trkpt lat="44.7563" lon="5.8855">
        <ele>935.9896</ele>
        <time>2025-07-10T08:43:09.000Z</time>
      </trkpt>
      <trkpt lat="44.75633" lon="5.8855">
        <ele>936.076145</ele>
        <time>2025-07-10T08:43:10.000Z</time>
      </trkpt>
      <trkpt lat="44.75635" lon="5.88551">
        <ele>936.166407</ele>
        <time>2025-07-10T08:43:11.000Z</time>
      </trkpt>
      <trkpt lat="44.75638" lon="5.88551">
        <ele>936.261312</ele>
        <time>2025-07-10T08:43:12.000Z</time>
      </trkpt>
      <trkpt lat="44.75641" lon="5.88553">
        <ele>936.361301</ele>
        <time>2025-07-10T08:43:13.000Z</time>
      </trkpt>
      <trkpt lat="44.75643" lon="5.88554">
        <ele>936.451619</ele>
        <time>2025-07-10T08:43:14.000Z</time>
      </trkpt>
      <trkpt lat="44.75646" lon="5.88554">
        <ele>936.548424</ele>
        <time>2025-07-10T08:43:15.000Z</time>
      </trkpt>
      <trkpt lat="44.75649" lon="5.88554">
        <ele>936.648175</ele>
        <time>2025-07-10T08:43:16.000Z</time>
      </trkpt>
      <trkpt lat="44.75651" lon="5.88553">
        <ele>936.734306</ele>
        <time>2025-07-10T08:43:17.000Z</time>
      </trkpt>
      <trkpt lat="44.75654" lon="5.88553">
        <ele>936.830648</ele>
        <time>2025-07-10T08:43:18.000Z</time>
      </trkpt>
      <trkpt lat="44.75657" lon="5.88553">
        <ele>936.917194</ele>
        <time>2025-07-10T08:43:19.000Z</time>
      </trkpt>
      <trkpt lat="44.75659" lon="5.88553">
        <ele>937.006659</ele>
        <time>2025-07-10T08:43:20.000Z</time>
      </trkpt>
      <trkpt lat="44.75663" lon="5.88552">
        <ele>937.127666</ele>
        <time>2025-07-10T08:43:21.000Z</time>
      </trkpt>
      <trkpt lat="44.75667" lon="5.88551">
        <ele>937.254764</ele>
        <time>2025-07-10T08:43:22.000Z</time>
      </trkpt>
      <trkpt lat="44.7567" lon="5.8855">
        <ele>937.364851</ele>
        <time>2025-07-10T08:43:23.000Z</time>
      </trkpt>
      <trkpt lat="44.75673" lon="5.88549">
        <ele>937.466947</ele>
        <time>2025-07-10T08:43:24.000Z</time>
      </trkpt>
      <trkpt lat="44.75676" lon="5.88549">
        <ele>937.570044</ele>
        <time>2025-07-10T08:43:25.000Z</time>
      </trkpt>
      <trkpt lat="44.7568" lon="5.88548">
        <ele>937.67314</ele>
        <time>2025-07-10T08:43:26.000Z</time>
      </trkpt>
      <trkpt lat="44.75683" lon="5.88547">
        <ele>937.784065</ele>
        <time>2025-07-10T08:43:27.000Z</time>
      </trkpt>
      <trkpt lat="44.75686" lon="5.88546">
        <ele>937.895476</ele>
        <time>2025-07-10T08:43:28.000Z</time>
      </trkpt>
      <trkpt lat="44.75689" lon="5.88545">
        <ele>937.994477</ele>
        <time>2025-07-10T08:43:29.000Z</time>
      </trkpt>
      <trkpt lat="44.75692" lon="5.88544">
        <ele>938.076598</ele>
        <time>2025-07-10T08:43:30.000Z</time>
      </trkpt>
      <trkpt lat="44.75694" lon="5.88543">
        <ele>938.137598</ele>
        <time>2025-07-10T08:43:31.000Z</time>
      </trkpt>
      <trkpt lat="44.75696" lon="5.88542">
        <ele>938.2123</ele>
        <time>2025-07-10T08:43:32.000Z</time>
      </trkpt>
      <trkpt lat="44.75699" lon="5.88541">
        <ele>938.316268</ele>
        <time>2025-07-10T08:43:33.000Z</time>
      </trkpt>
      <trkpt lat="44.75701" lon="5.8854">
        <ele>938.398675</ele>
        <time>2025-07-10T08:43:34.000Z</time>
      </trkpt>
      <trkpt lat="44.75704" lon="5.88539">
        <ele>938.473231</ele>
        <time>2025-07-10T08:43:35.000Z</time>
      </trkpt>
      <trkpt lat="44.75706" lon="5.88537">
        <ele>938.555351</ele>
        <time>2025-07-10T08:43:36.000Z</time>
      </trkpt>
      <trkpt lat="44.75708" lon="5.88536">
        <ele>938.635371</ele>
        <time>2025-07-10T08:43:37.000Z</time>
      </trkpt>
      <trkpt lat="44.75711" lon="5.88535">
        <ele>938.716318</ele>
        <time>2025-07-10T08:43:38.000Z</time>
      </trkpt>
      <trkpt lat="44.75714" lon="5.88533">
        <ele>938.818464</ele>
        <time>2025-07-10T08:43:39.000Z</time>
      </trkpt>
      <trkpt lat="44.75716" lon="5.8853">
        <ele>938.903425</ele>
        <time>2025-07-10T08:43:40.000Z</time>
      </trkpt>
      <trkpt lat="44.75718" lon="5.88528">
        <ele>939.00369</ele>
        <time>2025-07-10T08:43:41.000Z</time>
      </trkpt>
      <trkpt lat="44.7572" lon="5.88526">
        <ele>939.088297</ele>
        <time>2025-07-10T08:43:42.000Z</time>
      </trkpt>
      <trkpt lat="44.75722" lon="5.88523">
        <ele>939.16782</ele>
        <time>2025-07-10T08:43:43.000Z</time>
      </trkpt>
      <trkpt lat="44.75723" lon="5.8852">
        <ele>939.251103</ele>
        <time>2025-07-10T08:43:44.000Z</time>
      </trkpt>
      <trkpt lat="44.75725" lon="5.88517">
        <ele>939.332747</ele>
        <time>2025-07-10T08:43:45.000Z</time>
      </trkpt>
      <trkpt lat="44.75726" lon="5.88514">
        <ele>939.416352</ele>
        <time>2025-07-10T08:43:46.000Z</time>
      </trkpt>
      <trkpt lat="44.75728" lon="5.88511">
        <ele>939.496101</ele>
        <time>2025-07-10T08:43:47.000Z</time>
      </trkpt>
      <trkpt lat="44.7573" lon="5.88509">
        <ele>939.582472</ele>
        <time>2025-07-10T08:43:48.000Z</time>
      </trkpt>
      <trkpt lat="44.75732" lon="5.88506">
        <ele>939.665515</ele>
        <time>2025-07-10T08:43:49.000Z</time>
      </trkpt>
      <trkpt lat="44.75734" lon="5.88504">
        <ele>939.750475</ele>
        <time>2025-07-10T08:43:50.000Z</time>
      </trkpt>
      <trkpt lat="44.75735" lon="5.88501">
        <ele>939.825128</ele>
        <time>2025-07-10T08:43:51.000Z</time>
      </trkpt>
      <trkpt lat="44.75737" lon="5.88498">
        <ele>939.910407</ele>
        <time>2025-07-10T08:43:52.000Z</time>
      </trkpt>
      <trkpt lat="44.75739" lon="5.88496">
        <ele>939.991918</ele>
        <time>2025-07-10T08:43:53.000Z</time>
      </trkpt>
      <trkpt lat="44.7574" lon="5.88494">
        <ele>940.058911</ele>
        <time>2025-07-10T08:43:54.000Z</time>
      </trkpt>
      <trkpt lat="44.75742" lon="5.88491">
        <ele>940.136684</ele>
        <time>2025-07-10T08:43:55.000Z</time>
      </trkpt>
      <trkpt lat="44.75743" lon="5.88488">
        <ele>940.216834</ele>
        <time>2025-07-10T08:43:56.000Z</time>
      </trkpt>
      <trkpt lat="44.75745" lon="5.88486">
        <ele>940.303205</ele>
        <time>2025-07-10T08:43:57.000Z</time>
      </trkpt>
      <trkpt lat="44.75748" lon="5.88484">
        <ele>940.401708</ele>
        <time>2025-07-10T08:43:58.000Z</time>
      </trkpt>
      <trkpt lat="44.7575" lon="5.88482">
        <ele>940.478754</ele>
        <time>2025-07-10T08:43:59.000Z</time>
      </trkpt>
      <trkpt lat="44.75752" lon="5.8848">
        <ele>940.561709</ele>
        <time>2025-07-10T08:44:00.000Z</time>
      </trkpt>
      <trkpt lat="44.75755" lon="5.88478">
        <ele>940.66968</ele>
        <time>2025-07-10T08:44:01.000Z</time>
      </trkpt>
      <trkpt lat="44.75758" lon="5.88477">
        <ele>940.772128</ele>
        <time>2025-07-10T08:44:02.000Z</time>
      </trkpt>
      <trkpt lat="44.75761" lon="5.88475">
        <ele>940.863675</ele>
        <time>2025-07-10T08:44:03.000Z</time>
      </trkpt>
      <trkpt lat="44.75764" lon="5.88474">
        <ele>940.953406</ele>
        <time>2025-07-10T08:44:04.000Z</time>
      </trkpt>
      <trkpt lat="44.75767" lon="5.88473">
        <ele>941.054971</ele>
        <time>2025-07-10T08:44:05.000Z</time>
      </trkpt>
      <trkpt lat="44.75769" lon="5.88471">
        <ele>941.14539</ele>
        <time>2025-07-10T08:44:06.000Z</time>
      </trkpt>
      <trkpt lat="44.75772" lon="5.8847">
        <ele>941.22751</ele>
        <time>2025-07-10T08:44:07.000Z</time>
      </trkpt>
      <trkpt lat="44.75775" lon="5.88469">
        <ele>941.326173</ele>
        <time>2025-07-10T08:44:08.000Z</time>
      </trkpt>
      <trkpt lat="44.75778" lon="5.88467">
        <ele>941.425771</ele>
        <time>2025-07-10T08:44:09.000Z</time>
      </trkpt>
      <trkpt lat="44.7578" lon="5.88466">
        <ele>941.509416</ele>
        <time>2025-07-10T08:44:10.000Z</time>
      </trkpt>
      <trkpt lat="44.75782" lon="5.88466">
        <ele>941.557801</ele>
        <time>2025-07-10T08:44:11.000Z</time>
      </trkpt>
      <trkpt lat="44.75784" lon="5.88465">
        <ele>941.622671</ele>
        <time>2025-07-10T08:44:12.000Z</time>
      </trkpt>
      <trkpt lat="44.75785" lon="5.88465">
        <ele>941.671056</ele>
        <time>2025-07-10T08:44:13.000Z</time>
      </trkpt>
      <trkpt lat="44.75787" lon="5.88465">
        <ele>941.741461</ele>
        <time>2025-07-10T08:44:14.000Z</time>
      </trkpt>
      <trkpt lat="44.7579" lon="5.88464">
        <ele>941.83007</ele>
        <time>2025-07-10T08:44:15.000Z</time>
      </trkpt>
      <trkpt lat="44.75793" lon="5.88463">
        <ele>941.937009</ele>
        <time>2025-07-10T08:44:16.000Z</time>
      </trkpt>
      <trkpt lat="44.75797" lon="5.88462">
        <ele>942.041691</ele>
        <time>2025-07-10T08:44:17.000Z</time>
      </trkpt>
      <trkpt lat="44.75799" lon="5.88461">
        <ele>942.13085</ele>
        <time>2025-07-10T08:44:18.000Z</time>
      </trkpt>
      <trkpt lat="44.75802" lon="5.88459">
        <ele>942.225004</ele>
        <time>2025-07-10T08:44:19.000Z</time>
      </trkpt>
      <trkpt lat="44.75805" lon="5.88458">
        <ele>942.325935</ele>
        <time>2025-07-10T08:44:20.000Z</time>
      </trkpt>
      <trkpt lat="44.75808" lon="5.88458">
        <ele>942.434895</ele>
        <time>2025-07-10T08:44:21.000Z</time>
      </trkpt>
      <trkpt lat="44.75812" lon="5.88458">
        <ele>942.537316</ele>
        <time>2025-07-10T08:44:22.000Z</time>
      </trkpt>
      <trkpt lat="44.75815" lon="5.88459">
        <ele>942.637248</ele>
        <time>2025-07-10T08:44:23.000Z</time>
      </trkpt>
      <trkpt lat="44.75817" lon="5.88458">
        <ele>942.71712</ele>
        <time>2025-07-10T08:44:24.000Z</time>
      </trkpt>
      <trkpt lat="44.7582" lon="5.88458">
        <ele>942.803615</ele>
        <time>2025-07-10T08:44:25.000Z</time>
      </trkpt>
      <trkpt lat="44.75823" lon="5.88457">
        <ele>942.898663</ele>
        <time>2025-07-10T08:44:26.000Z</time>
      </trkpt>
      <trkpt lat="44.75826" lon="5.88457">
        <ele>943.002433</ele>
        <time>2025-07-10T08:44:27.000Z</time>
      </trkpt>
      <trkpt lat="44.75829" lon="5.88457">
        <ele>943.099219</ele>
        <time>2025-07-10T08:44:28.000Z</time>
      </trkpt>
      <trkpt lat="44.75831" lon="5.88457">
        <ele>943.169261</ele>
        <time>2025-07-10T08:44:29.000Z</time>
      </trkpt>
      <trkpt lat="44.75833" lon="5.88456">
        <ele>943.236599</ele>
        <time>2025-07-10T08:44:30.000Z</time>
      </trkpt>
      <trkpt lat="44.75836" lon="5.88456">
        <ele>943.323784</ele>
        <time>2025-07-10T08:44:31.000Z</time>
      </trkpt>
      <trkpt lat="44.75838" lon="5.88455">
        <ele>943.403358</ele>
        <time>2025-07-10T08:44:32.000Z</time>
      </trkpt>
      <trkpt lat="44.75841" lon="5.88455">
        <ele>943.496815</ele>
        <time>2025-07-10T08:44:33.000Z</time>
      </trkpt>
      <trkpt lat="44.75843" lon="5.88454">
        <ele>943.573876</ele>
        <time>2025-07-10T08:44:34.000Z</time>
      </trkpt>
      <trkpt lat="44.75846" lon="5.88454">
        <ele>943.670662</ele>
        <time>2025-07-10T08:44:35.000Z</time>
      </trkpt>
      <trkpt lat="44.75849" lon="5.88453">
        <ele>943.781907</ele>
        <time>2025-07-10T08:44:36.000Z</time>
      </trkpt>
      <trkpt lat="44.75852" lon="5.88453">
        <ele>943.892013</ele>
        <time>2025-07-10T08:44:37.000Z</time>
      </trkpt>
      <trkpt lat="44.75855" lon="5.88453">
        <ele>943.965501</ele>
        <time>2025-07-10T08:44:38.000Z</time>
      </trkpt>
      <trkpt lat="44.75857" lon="5.88453">
        <ele>944.045504</ele>
        <time>2025-07-10T08:44:39.000Z</time>
      </trkpt>
      <trkpt lat="44.7586" lon="5.88453">
        <ele>944.142203</ele>
        <time>2025-07-10T08:44:40.000Z</time>
      </trkpt>
      <trkpt lat="44.75863" lon="5.88454">
        <ele>944.249293</ele>
        <time>2025-07-10T08:44:41.000Z</time>
      </trkpt>
      <trkpt lat="44.75866" lon="5.88453">
        <ele>944.360538</ele>
        <time>2025-07-10T08:44:42.000Z</time>
      </trkpt>
      <trkpt lat="44.75869" lon="5.88453">
        <ele>944.434026</ele>
        <time>2025-07-10T08:44:43.000Z</time>
      </trkpt>
      <trkpt lat="44.7587" lon="5.88454">
        <ele>944.493377</ele>
        <time>2025-07-10T08:44:44.000Z</time>
      </trkpt>
      <trkpt lat="44.75873" lon="5.88455">
        <ele>944.583874</ele>
        <time>2025-07-10T08:44:45.000Z</time>
      </trkpt>
      <trkpt lat="44.75876" lon="5.88456">
        <ele>944.700928</ele>
        <time>2025-07-10T08:44:46.000Z</time>
      </trkpt>
      <trkpt lat="44.75879" lon="5.88456">
        <ele>944.799918</ele>
        <time>2025-07-10T08:44:47.000Z</time>
      </trkpt>
      <trkpt lat="44.75881" lon="5.88457">
        <ele>944.878357</ele>
        <time>2025-07-10T08:44:48.000Z</time>
      </trkpt>
      <trkpt lat="44.75884" lon="5.88458">
        <ele>944.963252</ele>
        <time>2025-07-10T08:44:49.000Z</time>
      </trkpt>
      <trkpt lat="44.75886" lon="5.8846">
        <ele>945.032665</ele>
        <time>2025-07-10T08:44:50.000Z</time>
      </trkpt>
      <trkpt lat="44.75888" lon="5.8846">
        <ele>945.104094</ele>
        <time>2025-07-10T08:44:51.000Z</time>
      </trkpt>
      <trkpt lat="44.7589" lon="5.88461">
        <ele>945.163843</ele>
        <time>2025-07-10T08:44:52.000Z</time>
      </trkpt>
      <trkpt lat="44.75892" lon="5.88462">
        <ele>945.243417</ele>
        <time>2025-07-10T08:44:53.000Z</time>
      </trkpt>
      <trkpt lat="44.75894" lon="5.88464">
        <ele>945.334789</ele>
        <time>2025-07-10T08:44:54.000Z</time>
      </trkpt>
      <trkpt lat="44.75897" lon="5.88466">
        <ele>945.435403</ele>
        <time>2025-07-10T08:44:55.000Z</time>
      </trkpt>
      <trkpt lat="44.75899" lon="5.88467">
        <ele>945.498792</ele>
        <time>2025-07-10T08:44:56.000Z</time>
      </trkpt>
      <trkpt lat="44.759" lon="5.88468">
        <ele>945.558541</ele>
        <time>2025-07-10T08:44:57.000Z</time>
      </trkpt>
      <trkpt lat="44.75902" lon="5.88469">
        <ele>945.630114</ele>
        <time>2025-07-10T08:44:58.000Z</time>
      </trkpt>
      <trkpt lat="44.75904" lon="5.8847">
        <ele>945.706581</ele>
        <time>2025-07-10T08:44:59.000Z</time>
      </trkpt>
      <trkpt lat="44.75906" lon="5.88471">
        <ele>945.778153</ele>
        <time>2025-07-10T08:45:00.000Z</time>
      </trkpt>
      <trkpt lat="44.75908" lon="5.88472">
        <ele>945.844976</ele>
        <time>2025-07-10T08:45:01.000Z</time>
      </trkpt>
      <trkpt lat="44.7591" lon="5.88474">
        <ele>945.90946</ele>
        <time>2025-07-10T08:45:02.000Z</time>
      </trkpt>
      <trkpt lat="44.75912" lon="5.88475">
        <ele>945.985792</ele>
        <time>2025-07-10T08:45:03.000Z</time>
      </trkpt>
      <trkpt lat="44.75914" lon="5.88478">
        <ele>946.075736</ele>
        <time>2025-07-10T08:45:04.000Z</time>
      </trkpt>
      <trkpt lat="44.75917" lon="5.88479">
        <ele>946.174014</ele>
        <time>2025-07-10T08:45:05.000Z</time>
      </trkpt>
      <trkpt lat="44.75919" lon="5.88481">
        <ele>946.269569</ele>
        <time>2025-07-10T08:45:06.000Z</time>
      </trkpt>
      <trkpt lat="44.75922" lon="5.88481">
        <ele>946.357395</ele>
        <time>2025-07-10T08:45:07.000Z</time>
      </trkpt>
      <trkpt lat="44.75925" lon="5.88482">
        <ele>946.467782</ele>
        <time>2025-07-10T08:45:08.000Z</time>
      </trkpt>
      <trkpt lat="44.75928" lon="5.88483">
        <ele>946.557031</ele>
        <time>2025-07-10T08:45:09.000Z</time>
      </trkpt>
      <trkpt lat="44.7593" lon="5.88483">
        <ele>946.640401</ele>
        <time>2025-07-10T08:45:10.000Z</time>
      </trkpt>
      <trkpt lat="44.75933" lon="5.88485">
        <ele>946.734061</ele>
        <time>2025-07-10T08:45:11.000Z</time>
      </trkpt>
      <trkpt lat="44.75935" lon="5.88486">
        <ele>946.819574</ele>
        <time>2025-07-10T08:45:12.000Z</time>
      </trkpt>
      <trkpt lat="44.75938" lon="5.88488">
        <ele>946.912117</ele>
        <time>2025-07-10T08:45:13.000Z</time>
      </trkpt>
      <trkpt lat="44.7594" lon="5.88489">
        <ele>947.000161</ele>
        <time>2025-07-10T08:45:14.000Z</time>
      </trkpt>
      <trkpt lat="44.75943" lon="5.8849">
        <ele>947.084294</ele>
        <time>2025-07-10T08:45:15.000Z</time>
      </trkpt>
      <trkpt lat="44.75945" lon="5.88492">
        <ele>947.17479</ele>
        <time>2025-07-10T08:45:16.000Z</time>
      </trkpt>
      <trkpt lat="44.75948" lon="5.88492">
        <ele>947.262264</ele>
        <time>2025-07-10T08:45:17.000Z</time>
      </trkpt>
      <trkpt lat="44.75951" lon="5.88493">
        <ele>947.361789</ele>
        <time>2025-07-10T08:45:18.000Z</time>
      </trkpt>
      <trkpt lat="44.75953" lon="5.88494">
        <ele>947.451039</ele>
        <time>2025-07-10T08:45:19.000Z</time>
      </trkpt>
      <trkpt lat="44.75956" lon="5.88495">
        <ele>947.543529</ele>
        <time>2025-07-10T08:45:20.000Z</time>
      </trkpt>
      <trkpt lat="44.75959" lon="5.88496">
        <ele>947.642036</ele>
        <time>2025-07-10T08:45:21.000Z</time>
      </trkpt>
      <trkpt lat="44.75962" lon="5.88496">
        <ele>947.736832</ele>
        <time>2025-07-10T08:45:22.000Z</time>
      </trkpt>
      <trkpt lat="44.75964" lon="5.88497">
        <ele>947.817705</ele>
        <time>2025-07-10T08:45:23.000Z</time>
      </trkpt>
      <trkpt lat="44.75966" lon="5.88498">
        <ele>947.894072</ele>
        <time>2025-07-10T08:45:24.000Z</time>
      </trkpt>
      <trkpt lat="44.75968" lon="5.88499">
        <ele>947.96876</ele>
        <time>2025-07-10T08:45:25.000Z</time>
      </trkpt>
      <trkpt lat="44.75971" lon="5.885">
        <ele>948.050522</ele>
        <time>2025-07-10T08:45:26.000Z</time>
      </trkpt>
      <trkpt lat="44.75973" lon="5.88501">
        <ele>948.129166</ele>
        <time>2025-07-10T08:45:27.000Z</time>
      </trkpt>
      <trkpt lat="44.75975" lon="5.88502">
        <ele>948.214061</ele>
        <time>2025-07-10T08:45:28.000Z</time>
      </trkpt>
      <trkpt lat="44.75978" lon="5.88504">
        <ele>948.306031</ele>
        <time>2025-07-10T08:45:29.000Z</time>
      </trkpt>
      <trkpt lat="44.7598" lon="5.88505">
        <ele>948.390164</ele>
        <time>2025-07-10T08:45:30.000Z</time>
      </trkpt>
      <trkpt lat="44.75983" lon="5.88506">
        <ele>948.487727</ele>
        <time>2025-07-10T08:45:31.000Z</time>
      </trkpt>
      <trkpt lat="44.75986" lon="5.88507">
        <ele>948.569428</ele>
        <time>2025-07-10T08:45:32.000Z</time>
      </trkpt>
      <trkpt lat="44.75988" lon="5.88507">
        <ele>948.6533</ele>
        <time>2025-07-10T08:45:33.000Z</time>
      </trkpt>
      <trkpt lat="44.75991" lon="5.88507">
        <ele>948.736771</ele>
        <time>2025-07-10T08:45:34.000Z</time>
      </trkpt>
      <trkpt lat="44.75994" lon="5.88507">
        <ele>948.836802</ele>
        <time>2025-07-10T08:45:35.000Z</time>
      </trkpt>
      <trkpt lat="44.75996" lon="5.88508">
        <ele>948.939038</ele>
        <time>2025-07-10T08:45:36.000Z</time>
      </trkpt>
      <trkpt lat="44.75999" lon="5.88508">
        <ele>949.029355</ele>
        <time>2025-07-10T08:45:37.000Z</time>
      </trkpt>
      <trkpt lat="44.76002" lon="5.88507">
        <ele>949.127436</ele>
        <time>2025-07-10T08:45:38.000Z</time>
      </trkpt>
      <trkpt lat="44.76005" lon="5.88507">
        <ele>949.232705</ele>
        <time>2025-07-10T08:45:39.000Z</time>
      </trkpt>
      <trkpt lat="44.76007" lon="5.88507">
        <ele>949.326669</ele>
        <time>2025-07-10T08:45:40.000Z</time>
      </trkpt>
      <trkpt lat="44.7601" lon="5.88508">
        <ele>949.428989</ele>
        <time>2025-07-10T08:45:41.000Z</time>
      </trkpt>
      <trkpt lat="44.76012" lon="5.88508">
        <ele>949.520608</ele>
        <time>2025-07-10T08:45:42.000Z</time>
      </trkpt>
      <trkpt lat="44.76015" lon="5.88509">
        <ele>949.609152</ele>
        <time>2025-07-10T08:45:43.000Z</time>
      </trkpt>
      <trkpt lat="44.76017" lon="5.8851">
        <ele>949.68672</ele>
        <time>2025-07-10T08:45:44.000Z</time>
      </trkpt>
      <trkpt lat="44.76019" lon="5.88511">
        <ele>949.766298</ele>
        <time>2025-07-10T08:45:45.000Z</time>
      </trkpt>
      <trkpt lat="44.7602" lon="5.88513">
        <ele>949.834349</ele>
        <time>2025-07-10T08:45:46.000Z</time>
      </trkpt>
      <trkpt lat="44.76022" lon="5.88514">
        <ele>949.904234</ele>
        <time>2025-07-10T08:45:47.000Z</time>
      </trkpt>
      <trkpt lat="44.76024" lon="5.88515">
        <ele>949.979462</ele>
        <time>2025-07-10T08:45:48.000Z</time>
      </trkpt>
      <trkpt lat="44.76026" lon="5.88516">
        <ele>950.064694</ele>
        <time>2025-07-10T08:45:49.000Z</time>
      </trkpt>
      <trkpt lat="44.76028" lon="5.88517">
        <ele>950.145638</ele>
        <time>2025-07-10T08:45:50.000Z</time>
      </trkpt>
      <trkpt lat="44.7603" lon="5.88519">
        <ele>950.223106</ele>
        <time>2025-07-10T08:45:51.000Z</time>
      </trkpt>
      <trkpt lat="44.76033" lon="5.8852">
        <ele>950.319383</ele>
        <time>2025-07-10T08:45:52.000Z</time>
      </trkpt>
      <trkpt lat="44.76035" lon="5.88521">
        <ele>950.41566</ele>
        <time>2025-07-10T08:45:53.000Z</time>
      </trkpt>
      <trkpt lat="44.76038" lon="5.88523">
        <ele>950.529055</ele>
        <time>2025-07-10T08:45:54.000Z</time>
      </trkpt>
      <trkpt lat="44.76041" lon="5.88524">
        <ele>950.629914</ele>
        <time>2025-07-10T08:45:55.000Z</time>
      </trkpt>
      <trkpt lat="44.76044" lon="5.88525">
        <ele>950.737776</ele>
        <time>2025-07-10T08:45:56.000Z</time>
      </trkpt>
      <trkpt lat="44.76047" lon="5.88526">
        <ele>950.837454</ele>
        <time>2025-07-10T08:45:57.000Z</time>
      </trkpt>
      <trkpt lat="44.76049" lon="5.88526">
        <ele>950.936203</ele>
        <time>2025-07-10T08:45:58.000Z</time>
      </trkpt>
      <trkpt lat="44.76052" lon="5.88527">
        <ele>951.031834</ele>
        <time>2025-07-10T08:45:59.000Z</time>
      </trkpt>
      <trkpt lat="44.76054" lon="5.88527">
        <ele>951.118576</ele>
        <time>2025-07-10T08:46:00.000Z</time>
      </trkpt>
      <trkpt lat="44.76057" lon="5.88527">
        <ele>951.205432</ele>
        <time>2025-07-10T08:46:01.000Z</time>
      </trkpt>
      <trkpt lat="44.76059" lon="5.88527">
        <ele>951.292742</ele>
        <time>2025-07-10T08:46:02.000Z</time>
      </trkpt>
      <trkpt lat="44.76061" lon="5.88528">
        <ele>951.374224</ele>
        <time>2025-07-10T08:46:03.000Z</time>
      </trkpt>
      <trkpt lat="44.76064" lon="5.88528">
        <ele>951.4718</ele>
        <time>2025-07-10T08:46:04.000Z</time>
      </trkpt>
      <trkpt lat="44.76067" lon="5.88528">
        <ele>951.573474</ele>
        <time>2025-07-10T08:46:05.000Z</time>
      </trkpt>
      <trkpt lat="44.76069" lon="5.88527">
        <ele>951.67105</ele>
        <time>2025-07-10T08:46:06.000Z</time>
      </trkpt>
      <trkpt lat="44.76072" lon="5.88528">
        <ele>951.779915</ele>
        <time>2025-07-10T08:46:07.000Z</time>
      </trkpt>
      <trkpt lat="44.76075" lon="5.88529">
        <ele>951.875334</ele>
        <time>2025-07-10T08:46:08.000Z</time>
      </trkpt>
      <trkpt lat="44.76078" lon="5.88531">
        <ele>951.980191</ele>
        <time>2025-07-10T08:46:09.000Z</time>
      </trkpt>
      <trkpt lat="44.7608" lon="5.88532">
        <ele>952.079397</ele>
        <time>2025-07-10T08:46:10.000Z</time>
      </trkpt>
      <trkpt lat="44.76082" lon="5.88534">
        <ele>952.15841</ele>
        <time>2025-07-10T08:46:11.000Z</time>
      </trkpt>
      <trkpt lat="44.76084" lon="5.88537">
        <ele>952.257749</ele>
        <time>2025-07-10T08:46:12.000Z</time>
      </trkpt>
      <trkpt lat="44.76086" lon="5.88539">
        <ele>952.360475</ele>
        <time>2025-07-10T08:46:13.000Z</time>
      </trkpt>
      <trkpt lat="44.76087" lon="5.88543">
        <ele>952.466372</ele>
        <time>2025-07-10T08:46:14.000Z</time>
      </trkpt>
      <trkpt lat="44.76089" lon="5.88547">
        <ele>952.58241</ele>
        <time>2025-07-10T08:46:15.000Z</time>
      </trkpt>
      <trkpt lat="44.7609" lon="5.88551">
        <ele>952.698448</ele>
        <time>2025-07-10T08:46:16.000Z</time>
      </trkpt>
      <trkpt lat="44.76092" lon="5.88554">
        <ele>952.794915</ele>
        <time>2025-07-10T08:46:17.000Z</time>
      </trkpt>
      <trkpt lat="44.76093" lon="5.88557">
        <ele>952.889318</ele>
        <time>2025-07-10T08:46:18.000Z</time>
      </trkpt>
      <trkpt lat="44.76094" lon="5.88561">
        <ele>952.98372</ele>
        <time>2025-07-10T08:46:19.000Z</time>
      </trkpt>
      <trkpt lat="44.76095" lon="5.88565">
        <ele>953.091103</ele>
        <time>2025-07-10T08:46:20.000Z</time>
      </trkpt>
      <trkpt lat="44.76095" lon="5.88569">
        <ele>953.19386</ele>
        <time>2025-07-10T08:46:21.000Z</time>
      </trkpt>
      <trkpt lat="44.76096" lon="5.88572">
        <ele>953.276064</ele>
        <time>2025-07-10T08:46:22.000Z</time>
      </trkpt>
      <trkpt lat="44.76097" lon="5.88575">
        <ele>953.367944</ele>
        <time>2025-07-10T08:46:23.000Z</time>
      </trkpt>
      <trkpt lat="44.76098" lon="5.88578">
        <ele>953.44606</ele>
        <time>2025-07-10T08:46:24.000Z</time>
      </trkpt>
      <trkpt lat="44.76099" lon="5.8858">
        <ele>953.523697</ele>
        <time>2025-07-10T08:46:25.000Z</time>
      </trkpt>
      <trkpt lat="44.76101" lon="5.88583">
        <ele>953.605371</ele>
        <time>2025-07-10T08:46:26.000Z</time>
      </trkpt>
      <trkpt lat="44.76102" lon="5.88586">
        <ele>953.700477</ele>
        <time>2025-07-10T08:46:27.000Z</time>
      </trkpt>
      <trkpt lat="44.76103" lon="5.88589">
        <ele>953.79498</ele>
        <time>2025-07-10T08:46:28.000Z</time>
      </trkpt>
      <trkpt lat="44.76104" lon="5.88593">
        <ele>953.901345</ele>
        <time>2025-07-10T08:46:29.000Z</time>
      </trkpt>
      <trkpt lat="44.76106" lon="5.88596">
        <ele>953.989191</ele>
        <time>2025-07-10T08:46:30.000Z</time>
      </trkpt>
      <trkpt lat="44.76107" lon="5.88599">
        <ele>954.085437</ele>
        <time>2025-07-10T08:46:31.000Z</time>
      </trkpt>
      <trkpt lat="44.76109" lon="5.88601">
        <ele>954.163148</ele>
        <time>2025-07-10T08:46:32.000Z</time>
      </trkpt>
      <trkpt lat="44.7611" lon="5.88603">
        <ele>954.240581</ele>
        <time>2025-07-10T08:46:33.000Z</time>
      </trkpt>
      <trkpt lat="44.76111" lon="5.88607">
        <ele>954.337345</ele>
        <time>2025-07-10T08:46:34.000Z</time>
      </trkpt>
      <trkpt lat="44.76111" lon="5.88612">
        <ele>954.454183</ele>
        <time>2025-07-10T08:46:35.000Z</time>
      </trkpt>
      <trkpt lat="44.76113" lon="5.88615">
        <ele>954.553883</ele>
        <time>2025-07-10T08:46:36.000Z</time>
      </trkpt>
      <trkpt lat="44.76115" lon="5.88617">
        <ele>954.644395</ele>
        <time>2025-07-10T08:46:37.000Z</time>
      </trkpt>
      <trkpt lat="44.76117" lon="5.8862">
        <ele>954.740502</ele>
        <time>2025-07-10T08:46:38.000Z</time>
      </trkpt>
      <trkpt lat="44.76118" lon="5.88624">
        <ele>954.860085</ele>
        <time>2025-07-10T08:46:39.000Z</time>
      </trkpt>
      <trkpt lat="44.76121" lon="5.88627">
        <ele>954.971612</ele>
        <time>2025-07-10T08:46:40.000Z</time>
      </trkpt>
      <trkpt lat="44.76122" lon="5.8863">
        <ele>955.080402</ele>
        <time>2025-07-10T08:46:41.000Z</time>
      </trkpt>
      <trkpt lat="44.76124" lon="5.88633">
        <ele>955.195646</ele>
        <time>2025-07-10T08:46:42.000Z</time>
      </trkpt>
      <trkpt lat="44.76127" lon="5.88637">
        <ele>955.307421</ele>
        <time>2025-07-10T08:46:43.000Z</time>
      </trkpt>
      <trkpt lat="44.76129" lon="5.88639">
        <ele>955.411624</ele>
        <time>2025-07-10T08:46:44.000Z</time>
      </trkpt>
      <trkpt lat="44.76131" lon="5.88642">
        <ele>955.520302</ele>
        <time>2025-07-10T08:46:45.000Z</time>
      </trkpt>
      <trkpt lat="44.76134" lon="5.88644">
        <ele>955.623278</ele>
        <time>2025-07-10T08:46:46.000Z</time>
      </trkpt>
      <trkpt lat="44.76136" lon="5.88647">
        <ele>955.726567</ele>
        <time>2025-07-10T08:46:47.000Z</time>
      </trkpt>
      <trkpt lat="44.76138" lon="5.88649">
        <ele>955.824081</ele>
        <time>2025-07-10T08:46:48.000Z</time>
      </trkpt>
      <trkpt lat="44.76141" lon="5.88652">
        <ele>955.924304</ele>
        <time>2025-07-10T08:46:49.000Z</time>
      </trkpt>
      <trkpt lat="44.76143" lon="5.88655">
        <ele>956.021585</ele>
        <time>2025-07-10T08:46:50.000Z</time>
      </trkpt>
      <trkpt lat="44.76145" lon="5.88657">
        <ele>956.108011</ele>
        <time>2025-07-10T08:46:51.000Z</time>
      </trkpt>
      <trkpt lat="44.76146" lon="5.88659">
        <ele>956.191851</ele>
        <time>2025-07-10T08:46:52.000Z</time>
      </trkpt>
      <trkpt lat="44.76148" lon="5.88662">
        <ele>956.281548</ele>
        <time>2025-07-10T08:46:53.000Z</time>
      </trkpt>
      <trkpt lat="44.7615" lon="5.88664">
        <ele>956.36812</ele>
        <time>2025-07-10T08:46:54.000Z</time>
      </trkpt>
      <trkpt lat="44.76152" lon="5.88667">
        <ele>956.448755</ele>
        <time>2025-07-10T08:46:55.000Z</time>
      </trkpt>
      <trkpt lat="44.76154" lon="5.8867">
        <ele>956.549548</ele>
        <time>2025-07-10T08:46:56.000Z</time>
      </trkpt>
      <trkpt lat="44.76155" lon="5.88673">
        <ele>956.655446</ele>
        <time>2025-07-10T08:46:57.000Z</time>
      </trkpt>
      <trkpt lat="44.76157" lon="5.88676">
        <ele>956.74439</ele>
        <time>2025-07-10T08:46:58.000Z</time>
      </trkpt>
      <trkpt lat="44.76159" lon="5.88678">
        <ele>956.828231</ele>
        <time>2025-07-10T08:46:59.000Z</time>
      </trkpt>
      <trkpt lat="44.76161" lon="5.88681">
        <ele>956.921307</ele>
        <time>2025-07-10T08:47:00.000Z</time>
      </trkpt>
      <trkpt lat="44.76163" lon="5.88683">
        <ele>957.008849</ele>
        <time>2025-07-10T08:47:01.000Z</time>
      </trkpt>
      <trkpt lat="44.76165" lon="5.88685">
        <ele>957.109512</ele>
        <time>2025-07-10T08:47:02.000Z</time>
      </trkpt>
      <trkpt lat="44.76168" lon="5.88688">
        <ele>957.20698</ele>
        <time>2025-07-10T08:47:03.000Z</time>
      </trkpt>
      <trkpt lat="44.7617" lon="5.8869">
        <ele>957.300226</ele>
        <time>2025-07-10T08:47:04.000Z</time>
      </trkpt>
      <trkpt lat="44.76172" lon="5.88692">
        <ele>957.389296</ele>
        <time>2025-07-10T08:47:05.000Z</time>
      </trkpt>
      <trkpt lat="44.76174" lon="5.88694">
        <ele>957.473911</ele>
        <time>2025-07-10T08:47:06.000Z</time>
      </trkpt>
      <trkpt lat="44.76176" lon="5.88695">
        <ele>957.563522</ele>
        <time>2025-07-10T08:47:07.000Z</time>
      </trkpt>
      <trkpt lat="44.76178" lon="5.88698">
        <ele>957.655769</ele>
        <time>2025-07-10T08:47:08.000Z</time>
      </trkpt>
      <trkpt lat="44.76181" lon="5.887">
        <ele>957.751967</ele>
        <time>2025-07-10T08:47:09.000Z</time>
      </trkpt>
      <trkpt lat="44.76183" lon="5.88701">
        <ele>957.83433</ele>
        <time>2025-07-10T08:47:10.000Z</time>
      </trkpt>
      <trkpt lat="44.76185" lon="5.88703">
        <ele>957.919133</ele>
        <time>2025-07-10T08:47:11.000Z</time>
      </trkpt>
      <trkpt lat="44.76187" lon="5.88705">
        <ele>958.001496</ele>
        <time>2025-07-10T08:47:12.000Z</time>
      </trkpt>
      <trkpt lat="44.76189" lon="5.88707">
        <ele>958.08371</ele>
        <time>2025-07-10T08:47:13.000Z</time>
      </trkpt>
      <trkpt lat="44.76191" lon="5.88709">
        <ele>958.162701</ele>
        <time>2025-07-10T08:47:14.000Z</time>
      </trkpt>
      <trkpt lat="44.76193" lon="5.8871">
        <ele>958.239066</ele>
        <time>2025-07-10T08:47:15.000Z</time>
      </trkpt>
      <trkpt lat="44.76195" lon="5.88712">
        <ele>958.317231</ele>
        <time>2025-07-10T08:47:16.000Z</time>
      </trkpt>
      <trkpt lat="44.76196" lon="5.88714">
        <ele>958.406176</ele>
        <time>2025-07-10T08:47:17.000Z</time>
      </trkpt>
      <trkpt lat="44.76199" lon="5.88716">
        <ele>958.493944</ele>
        <time>2025-07-10T08:47:18.000Z</time>
      </trkpt>
      <trkpt lat="44.76201" lon="5.88719">
        <ele>958.58533</ele>
        <time>2025-07-10T08:47:19.000Z</time>
      </trkpt>
      <trkpt lat="44.76202" lon="5.88722">
        <ele>958.680014</ele>
        <time>2025-07-10T08:47:20.000Z</time>
      </trkpt>
      <trkpt lat="44.76203" lon="5.88726">
        <ele>958.778408</ele>
        <time>2025-07-10T08:47:21.000Z</time>
      </trkpt>
      <trkpt lat="44.76204" lon="5.8873">
        <ele>958.887047</ele>
        <time>2025-07-10T08:47:22.000Z</time>
      </trkpt>
      <trkpt lat="44.76206" lon="5.88734">
        <ele>958.992113</ele>
        <time>2025-07-10T08:47:23.000Z</time>
      </trkpt>
      <trkpt lat="44.76206" lon="5.88738">
        <ele>959.092556</ele>
        <time>2025-07-10T08:47:24.000Z</time>
      </trkpt>
      <trkpt lat="44.76207" lon="5.88741">
        <ele>959.18729</ele>
        <time>2025-07-10T08:47:25.000Z</time>
      </trkpt>
      <trkpt lat="44.76208" lon="5.88745">
        <ele>959.273876</ele>
        <time>2025-07-10T08:47:26.000Z</time>
      </trkpt>
      <trkpt lat="44.76209" lon="5.88748">
        <ele>959.364688</ele>
        <time>2025-07-10T08:47:27.000Z</time>
      </trkpt>
      <trkpt lat="44.7621" lon="5.88751">
        <ele>959.456203</ele>
        <time>2025-07-10T08:47:28.000Z</time>
      </trkpt>
      <trkpt lat="44.76212" lon="5.88755">
        <ele>959.551402</ele>
        <time>2025-07-10T08:47:29.000Z</time>
      </trkpt>
      <trkpt lat="44.76213" lon="5.88758">
        <ele>959.642577</ele>
        <time>2025-07-10T08:47:30.000Z</time>
      </trkpt>
      <trkpt lat="44.76214" lon="5.88762">
        <ele>959.737162</ele>
        <time>2025-07-10T08:47:31.000Z</time>
      </trkpt>
      <trkpt lat="44.76215" lon="5.88765">
        <ele>959.833134</ele>
        <time>2025-07-10T08:47:32.000Z</time>
      </trkpt>
      <trkpt lat="44.76217" lon="5.88769">
        <ele>959.931529</ele>
        <time>2025-07-10T08:47:33.000Z</time>
      </trkpt>
      <trkpt lat="44.76218" lon="5.88772">
        <ele>960.035555</ele>
        <time>2025-07-10T08:47:34.000Z</time>
      </trkpt>
      <trkpt lat="44.7622" lon="5.88776">
        <ele>960.1434</ele>
        <time>2025-07-10T08:47:35.000Z</time>
      </trkpt>
      <trkpt lat="44.76222" lon="5.88779">
        <ele>960.245254</ele>
        <time>2025-07-10T08:47:36.000Z</time>
      </trkpt>
      <trkpt lat="44.76223" lon="5.88782">
        <ele>960.339172</ele>
        <time>2025-07-10T08:47:37.000Z</time>
      </trkpt>
      <trkpt lat="44.76224" lon="5.88786">
        <ele>960.421186</ele>
        <time>2025-07-10T08:47:38.000Z</time>
      </trkpt>
      <trkpt lat="44.76225" lon="5.88789">
        <ele>960.496664</ele>
        <time>2025-07-10T08:47:39.000Z</time>
      </trkpt>
      <trkpt lat="44.76226" lon="5.88792">
        <ele>960.584545</ele>
        <time>2025-07-10T08:47:40.000Z</time>
      </trkpt>
      <trkpt lat="44.76226" lon="5.88796">
        <ele>960.676939</ele>
        <time>2025-07-10T08:47:41.000Z</time>
      </trkpt>
      <trkpt lat="44.76227" lon="5.88799">
        <ele>960.768362</ele>
        <time>2025-07-10T08:47:42.000Z</time>
      </trkpt>
      <trkpt lat="44.76228" lon="5.88802">
        <ele>960.851798</ele>
        <time>2025-07-10T08:47:43.000Z</time>
      </trkpt>
      <trkpt lat="44.76228" lon="5.88805">
        <ele>960.91412</ele>
        <time>2025-07-10T08:47:44.000Z</time>
      </trkpt>
      <trkpt lat="44.76228" lon="5.88808">
        <ele>960.980611</ele>
        <time>2025-07-10T08:47:45.000Z</time>
      </trkpt>
      <trkpt lat="44.76229" lon="5.8881">
        <ele>961.052391</ele>
        <time>2025-07-10T08:47:46.000Z</time>
      </trkpt>
      <trkpt lat="44.76229" lon="5.88813">
        <ele>961.110115</ele>
        <time>2025-07-10T08:47:47.000Z</time>
      </trkpt>
      <trkpt lat="44.7623" lon="5.88816">
        <ele>961.184321</ele>
        <time>2025-07-10T08:47:48.000Z</time>
      </trkpt>
      <trkpt lat="44.7623" lon="5.88819">
        <ele>961.259798</ele>
        <time>2025-07-10T08:47:49.000Z</time>
      </trkpt>
      <trkpt lat="44.76231" lon="5.88821">
        <ele>961.333723</ele>
        <time>2025-07-10T08:47:50.000Z</time>
      </trkpt>
      <trkpt lat="44.76232" lon="5.88824">
        <ele>961.413493</ele>
        <time>2025-07-10T08:47:51.000Z</time>
      </trkpt>
      <trkpt lat="44.76233" lon="5.88827">
        <ele>961.488082</ele>
        <time>2025-07-10T08:47:52.000Z</time>
      </trkpt>
      <trkpt lat="44.76234" lon="5.88831">
        <ele>961.574549</ele>
        <time>2025-07-10T08:47:53.000Z</time>
      </trkpt>
      <trkpt lat="44.76234" lon="5.88835">
        <ele>961.677859</ele>
        <time>2025-07-10T08:47:54.000Z</time>
      </trkpt>
      <trkpt lat="44.76234" lon="5.88838">
        <ele>961.756362</ele>
        <time>2025-07-10T08:47:55.000Z</time>
      </trkpt>
      <trkpt lat="44.76235" lon="5.88842">
        <ele>961.844099</ele>
        <time>2025-07-10T08:47:56.000Z</time>
      </trkpt>
      <trkpt lat="44.76235" lon="5.88846">
        <ele>961.933692</ele>
        <time>2025-07-10T08:47:57.000Z</time>
      </trkpt>
      <trkpt lat="44.76235" lon="5.8885">
        <ele>962.016745</ele>
        <time>2025-07-10T08:47:58.000Z</time>
      </trkpt>
      <trkpt lat="44.76236" lon="5.88853">
        <ele>962.093452</ele>
        <time>2025-07-10T08:47:59.000Z</time>
      </trkpt>
      <trkpt lat="44.76237" lon="5.88856">
        <ele>962.170815</ele>
        <time>2025-07-10T08:48:00.000Z</time>
      </trkpt>
      <trkpt lat="44.76238" lon="5.88858">
        <ele>962.245811</ele>
        <time>2025-07-10T08:48:01.000Z</time>
      </trkpt>
      <trkpt lat="44.7624" lon="5.88861">
        <ele>962.329961</ele>
        <time>2025-07-10T08:48:02.000Z</time>
      </trkpt>
      <trkpt lat="44.7624" lon="5.88865">
        <ele>962.405037</ele>
        <time>2025-07-10T08:48:03.000Z</time>
      </trkpt>
      <trkpt lat="44.76241" lon="5.88867">
        <ele>962.473381</ele>
        <time>2025-07-10T08:48:04.000Z</time>
      </trkpt>
      <trkpt lat="44.76243" lon="5.8887">
        <ele>962.549986</ele>
        <time>2025-07-10T08:48:05.000Z</time>
      </trkpt>
      <trkpt lat="44.76244" lon="5.88873">
        <ele>962.632242</ele>
        <time>2025-07-10T08:48:06.000Z</time>
      </trkpt>
      <trkpt lat="44.76246" lon="5.88876">
        <ele>962.718198</ele>
        <time>2025-07-10T08:48:07.000Z</time>
      </trkpt>
      <trkpt lat="44.76247" lon="5.88879">
        <ele>962.802611</ele>
        <time>2025-07-10T08:48:08.000Z</time>
      </trkpt>
      <trkpt lat="44.7625" lon="5.88881">
        <ele>962.891066</ele>
        <time>2025-07-10T08:48:09.000Z</time>
      </trkpt>
      <trkpt lat="44.76252" lon="5.88883">
        <ele>962.975857</ele>
        <time>2025-07-10T08:48:10.000Z</time>
      </trkpt>
      <trkpt lat="44.76254" lon="5.88885">
        <ele>963.064702</ele>
        <time>2025-07-10T08:48:11.000Z</time>
      </trkpt>
      <trkpt lat="44.76256" lon="5.88886">
        <ele>963.140038</ele>
        <time>2025-07-10T08:48:12.000Z</time>
      </trkpt>
      <trkpt lat="44.76258" lon="5.88888">
        <ele>963.21994</ele>
        <time>2025-07-10T08:48:13.000Z</time>
      </trkpt>
      <trkpt lat="44.7626" lon="5.8889">
        <ele>963.287222</ele>
        <time>2025-07-10T08:48:14.000Z</time>
      </trkpt>
      <trkpt lat="44.76262" lon="5.88891">
        <ele>963.359862</ele>
        <time>2025-07-10T08:48:15.000Z</time>
      </trkpt>
      <trkpt lat="44.76264" lon="5.88893">
        <ele>963.441655</ele>
        <time>2025-07-10T08:48:16.000Z</time>
      </trkpt>
      <trkpt lat="44.76267" lon="5.88893">
        <ele>963.52314</ele>
        <time>2025-07-10T08:48:17.000Z</time>
      </trkpt>
      <trkpt lat="44.76269" lon="5.88894">
        <ele>963.60641</ele>
        <time>2025-07-10T08:48:18.000Z</time>
      </trkpt>
      <trkpt lat="44.76271" lon="5.88895">
        <ele>963.670675</ele>
        <time>2025-07-10T08:48:19.000Z</time>
      </trkpt>
      <trkpt lat="44.76273" lon="5.88897">
        <ele>963.735412</ele>
        <time>2025-07-10T08:48:20.000Z</time>
      </trkpt>
      <trkpt lat="44.76275" lon="5.88899">
        <ele>963.812005</ele>
        <time>2025-07-10T08:48:21.000Z</time>
      </trkpt>
      <trkpt lat="44.76276" lon="5.889">
        <ele>963.870075</ele>
        <time>2025-07-10T08:48:22.000Z</time>
      </trkpt>
      <trkpt lat="44.76278" lon="5.88902">
        <ele>963.930533</ele>
        <time>2025-07-10T08:48:23.000Z</time>
      </trkpt>
      <trkpt lat="44.7628" lon="5.88903">
        <ele>964.008438</ele>
        <time>2025-07-10T08:48:24.000Z</time>
      </trkpt>
      <trkpt lat="44.76282" lon="5.88905">
        <ele>964.087314</ele>
        <time>2025-07-10T08:48:25.000Z</time>
      </trkpt>
      <trkpt lat="44.76284" lon="5.88907">
        <ele>964.173362</ele>
        <time>2025-07-10T08:48:26.000Z</time>
      </trkpt>
      <trkpt lat="44.76287" lon="5.88909">
        <ele>964.259409</ele>
        <time>2025-07-10T08:48:27.000Z</time>
      </trkpt>
      <trkpt lat="44.76289" lon="5.88911">
        <ele>964.351081</ele>
        <time>2025-07-10T08:48:28.000Z</time>
      </trkpt>
      <trkpt lat="44.76291" lon="5.88912">
        <ele>964.435813</ele>
        <time>2025-07-10T08:48:29.000Z</time>
      </trkpt>
      <trkpt lat="44.76294" lon="5.88914">
        <ele>964.52186</ele>
        <time>2025-07-10T08:48:30.000Z</time>
      </trkpt>
      <trkpt lat="44.76296" lon="5.88916">
        <ele>964.609133</ele>
        <time>2025-07-10T08:48:31.000Z</time>
      </trkpt>
      <trkpt lat="44.76298" lon="5.88919">
        <ele>964.704041</ele>
        <time>2025-07-10T08:48:32.000Z</time>
      </trkpt>
      <trkpt lat="44.763" lon="5.88922">
        <ele>964.791112</ele>
        <time>2025-07-10T08:48:33.000Z</time>
      </trkpt>
      <trkpt lat="44.76302" lon="5.88924">
        <ele>964.879566</ele>
        <time>2025-07-10T08:48:34.000Z</time>
      </trkpt>
      <trkpt lat="44.76305" lon="5.88926">
        <ele>964.976966</ele>
        <time>2025-07-10T08:48:35.000Z</time>
      </trkpt>
      <trkpt lat="44.76307" lon="5.88927">
        <ele>965.059071</ele>
        <time>2025-07-10T08:48:36.000Z</time>
      </trkpt>
      <trkpt lat="44.76309" lon="5.88929">
        <ele>965.12936</ele>
        <time>2025-07-10T08:48:37.000Z</time>
      </trkpt>
      <trkpt lat="44.76311" lon="5.8893">
        <ele>965.198048</ele>
        <time>2025-07-10T08:48:38.000Z</time>
      </trkpt>
      <trkpt lat="44.76312" lon="5.88933">
        <ele>965.269049</ele>
        <time>2025-07-10T08:48:39.000Z</time>
      </trkpt>
      <trkpt lat="44.76314" lon="5.88934">
        <ele>965.344025</ele>
        <time>2025-07-10T08:48:40.000Z</time>
      </trkpt>
      <trkpt lat="44.76316" lon="5.88936">
        <ele>965.412713</ele>
        <time>2025-07-10T08:48:41.000Z</time>
      </trkpt>
      <trkpt lat="44.76319" lon="5.88938">
        <ele>965.500459</ele>
        <time>2025-07-10T08:48:42.000Z</time>
      </trkpt>
      <trkpt lat="44.76321" lon="5.88939">
        <ele>965.592021</ele>
        <time>2025-07-10T08:48:43.000Z</time>
      </trkpt>
      <trkpt lat="44.76324" lon="5.88941">
        <ele>965.67925</ele>
        <time>2025-07-10T08:48:44.000Z</time>
      </trkpt>
      <trkpt lat="44.76326" lon="5.88943">
        <ele>965.778783</ele>
        <time>2025-07-10T08:48:45.000Z</time>
      </trkpt>
      <trkpt lat="44.76328" lon="5.88945">
        <ele>965.849865</ele>
        <time>2025-07-10T08:48:46.000Z</time>
      </trkpt>
      <trkpt lat="44.7633" lon="5.88946">
        <ele>965.913184</ele>
        <time>2025-07-10T08:48:47.000Z</time>
      </trkpt>
      <trkpt lat="44.76332" lon="5.88947">
        <ele>965.983387</ele>
        <time>2025-07-10T08:48:48.000Z</time>
      </trkpt>
      <trkpt lat="44.76335" lon="5.88948">
        <ele>966.086551</ele>
        <time>2025-07-10T08:48:49.000Z</time>
      </trkpt>
      <trkpt lat="44.76338" lon="5.88949">
        <ele>966.165702</ele>
        <time>2025-07-10T08:48:50.000Z</time>
      </trkpt>
      <trkpt lat="44.7634" lon="5.8895">
        <ele>966.251124</ele>
        <time>2025-07-10T08:48:51.000Z</time>
      </trkpt>
      <trkpt lat="44.76342" lon="5.88951">
        <ele>966.329509</ele>
        <time>2025-07-10T08:48:52.000Z</time>
      </trkpt>
      <trkpt lat="44.76345" lon="5.88953">
        <ele>966.421882</ele>
        <time>2025-07-10T08:48:53.000Z</time>
      </trkpt>
      <trkpt lat="44.76347" lon="5.88956">
        <ele>966.513638</ele>
        <time>2025-07-10T08:48:54.000Z</time>
      </trkpt>
      <trkpt lat="44.76349" lon="5.88959">
        <ele>966.6148</ele>
        <time>2025-07-10T08:48:55.000Z</time>
      </trkpt>
      <trkpt lat="44.76352" lon="5.88962">
        <ele>966.720574</ele>
        <time>2025-07-10T08:48:56.000Z</time>
      </trkpt>
      <trkpt lat="44.76354" lon="5.88965">
        <ele>966.821736</ele>
        <time>2025-07-10T08:48:57.000Z</time>
      </trkpt>
      <trkpt lat="44.76356" lon="5.88967">
        <ele>966.916722</ele>
        <time>2025-07-10T08:48:58.000Z</time>
      </trkpt>
      <trkpt lat="44.76358" lon="5.8897">
        <ele>966.999406</ele>
        <time>2025-07-10T08:48:59.000Z</time>
      </trkpt>
      <trkpt lat="44.7636" lon="5.88973">
        <ele>967.093238</ele>
        <time>2025-07-10T08:49:00.000Z</time>
      </trkpt>
      <trkpt lat="44.76362" lon="5.88976">
        <ele>967.192649</ele>
        <time>2025-07-10T08:49:01.000Z</time>
      </trkpt>
      <trkpt lat="44.76365" lon="5.88979">
        <ele>967.294241</ele>
        <time>2025-07-10T08:49:02.000Z</time>
      </trkpt>
      <trkpt lat="44.76366" lon="5.88982">
        <ele>967.39075</ele>
        <time>2025-07-10T08:49:03.000Z</time>
      </trkpt>
      <trkpt lat="44.76368" lon="5.88985">
        <ele>967.472157</ele>
        <time>2025-07-10T08:49:04.000Z</time>
      </trkpt>
      <trkpt lat="44.7637" lon="5.88988">
        <ele>967.557289</ele>
        <time>2025-07-10T08:49:05.000Z</time>
      </trkpt>
      <trkpt lat="44.76372" lon="5.8899">
        <ele>967.64998</ele>
        <time>2025-07-10T08:49:06.000Z</time>
      </trkpt>
      <trkpt lat="44.76375" lon="5.88991">
        <ele>967.725175</ele>
        <time>2025-07-10T08:49:07.000Z</time>
      </trkpt>
      <trkpt lat="44.76376" lon="5.88994">
        <ele>967.810307</ele>
        <time>2025-07-10T08:49:08.000Z</time>
      </trkpt>
      <trkpt lat="44.76378" lon="5.88998">
        <ele>967.901775</ele>
        <time>2025-07-10T08:49:09.000Z</time>
      </trkpt>
      <trkpt lat="44.76379" lon="5.89002">
        <ele>967.99606</ele>
        <time>2025-07-10T08:49:10.000Z</time>
      </trkpt>
      <trkpt lat="44.7638" lon="5.89005">
        <ele>968.078985</ele>
        <time>2025-07-10T08:49:11.000Z</time>
      </trkpt>
      <trkpt lat="44.76382" lon="5.89008">
        <ele>968.156066</ele>
        <time>2025-07-10T08:49:12.000Z</time>
      </trkpt>
      <trkpt lat="44.76383" lon="5.89012">
        <ele>968.249716</ele>
        <time>2025-07-10T08:49:13.000Z</time>
      </trkpt>
      <trkpt lat="44.76385" lon="5.89015">
        <ele>968.338491</ele>
        <time>2025-07-10T08:49:14.000Z</time>
      </trkpt>
      <trkpt lat="44.76386" lon="5.89018">
        <ele>968.426337</ele>
        <time>2025-07-10T08:49:15.000Z</time>
      </trkpt>
      <trkpt lat="44.76388" lon="5.89021">
        <ele>968.499824</ele>
        <time>2025-07-10T08:49:16.000Z</time>
      </trkpt>
      <trkpt lat="44.76389" lon="5.89024">
        <ele>968.573803</ele>
        <time>2025-07-10T08:49:17.000Z</time>
      </trkpt>
      <trkpt lat="44.76391" lon="5.89027">
        <ele>968.666402</ele>
        <time>2025-07-10T08:49:18.000Z</time>
      </trkpt>
      <trkpt lat="44.76393" lon="5.89031">
        <ele>968.761849</ele>
        <time>2025-07-10T08:49:19.000Z</time>
      </trkpt>
      <trkpt lat="44.76393" lon="5.89034">
        <ele>968.836418</ele>
        <time>2025-07-10T08:49:20.000Z</time>
      </trkpt>
      <trkpt lat="44.76394" lon="5.89037">
        <ele>968.910032</ele>
        <time>2025-07-10T08:49:21.000Z</time>
      </trkpt>
      <trkpt lat="44.76395" lon="5.8904">
        <ele>968.977358</ele>
        <time>2025-07-10T08:49:22.000Z</time>
      </trkpt>
      <trkpt lat="44.76396" lon="5.89043">
        <ele>969.054439</ele>
        <time>2025-07-10T08:49:23.000Z</time>
      </trkpt>
      <trkpt lat="44.76397" lon="5.89046">
        <ele>969.12333</ele>
        <time>2025-07-10T08:49:24.000Z</time>
      </trkpt>
      <trkpt lat="44.76399" lon="5.89048">
        <ele>969.196966</ele>
        <time>2025-07-10T08:49:25.000Z</time>
      </trkpt>
      <trkpt lat="44.76401" lon="5.89051">
        <ele>969.274655</ele>
        <time>2025-07-10T08:49:26.000Z</time>
      </trkpt>
      <trkpt lat="44.76403" lon="5.89053">
        <ele>969.360419</ele>
        <time>2025-07-10T08:49:27.000Z</time>
      </trkpt>
      <trkpt lat="44.76405" lon="5.89056">
        <ele>969.447718</ele>
        <time>2025-07-10T08:49:28.000Z</time>
      </trkpt>
      <trkpt lat="44.76407" lon="5.89059">
        <ele>969.535742</ele>
        <time>2025-07-10T08:49:29.000Z</time>
      </trkpt>
      <trkpt lat="44.76409" lon="5.89061">
        <ele>969.623066</ele>
        <time>2025-07-10T08:49:30.000Z</time>
      </trkpt>
      <trkpt lat="44.76411" lon="5.89064">
        <ele>969.701326</ele>
        <time>2025-07-10T08:49:31.000Z</time>
      </trkpt>
      <trkpt lat="44.76413" lon="5.89066">
        <ele>969.790232</ele>
        <time>2025-07-10T08:49:32.000Z</time>
      </trkpt>
      <trkpt lat="44.76415" lon="5.89069">
        <ele>969.883966</ele>
        <time>2025-07-10T08:49:33.000Z</time>
      </trkpt>
      <trkpt lat="44.76417" lon="5.89072">
        <ele>969.970524</ele>
        <time>2025-07-10T08:49:34.000Z</time>
      </trkpt>
      <trkpt lat="44.76419" lon="5.89074">
        <ele>970.050456</ele>
        <time>2025-07-10T08:49:35.000Z</time>
      </trkpt>
      <trkpt lat="44.76421" lon="5.89075">
        <ele>970.117755</ele>
        <time>2025-07-10T08:49:36.000Z</time>
      </trkpt>
      <trkpt lat="44.76424" lon="5.89077">
        <ele>970.202985</ele>
        <time>2025-07-10T08:49:37.000Z</time>
      </trkpt>
      <trkpt lat="44.76426" lon="5.89079">
        <ele>970.297902</ele>
        <time>2025-07-10T08:49:38.000Z</time>
      </trkpt>
      <trkpt lat="44.76428" lon="5.89082">
        <ele>970.370877</ele>
        <time>2025-07-10T08:49:39.000Z</time>
      </trkpt>
      <trkpt lat="44.7643" lon="5.89085">
        <ele>970.459739</ele>
        <time>2025-07-10T08:49:40.000Z</time>
      </trkpt>
      <trkpt lat="44.76432" lon="5.89087">
        <ele>970.546297</ele>
        <time>2025-07-10T08:49:41.000Z</time>
      </trkpt>
      <trkpt lat="44.76434" lon="5.89089">
        <ele>970.632366</ele>
        <time>2025-07-10T08:49:42.000Z</time>
      </trkpt>
      <trkpt lat="44.76437" lon="5.89093">
        <ele>970.728145</ele>
        <time>2025-07-10T08:49:43.000Z</time>
      </trkpt>
      <trkpt lat="44.76439" lon="5.89095">
        <ele>970.802827</ele>
        <time>2025-07-10T08:49:44.000Z</time>
      </trkpt>
      <trkpt lat="44.7644" lon="5.89097">
        <ele>970.884234</ele>
        <time>2025-07-10T08:49:45.000Z</time>
      </trkpt>
      <trkpt lat="44.76442" lon="5.891">
        <ele>970.967954</ele>
        <time>2025-07-10T08:49:46.000Z</time>
      </trkpt>
      <trkpt lat="44.76445" lon="5.89102">
        <ele>971.066835</ele>
        <time>2025-07-10T08:49:47.000Z</time>
      </trkpt>
      <trkpt lat="44.76447" lon="5.89104">
        <ele>971.152065</ele>
        <time>2025-07-10T08:49:48.000Z</time>
      </trkpt>
      <trkpt lat="44.76449" lon="5.89107">
        <ele>971.231883</ele>
        <time>2025-07-10T08:49:49.000Z</time>
      </trkpt>
      <trkpt lat="44.76451" lon="5.89109">
        <ele>971.300455</ele>
        <time>2025-07-10T08:49:50.000Z</time>
      </trkpt>
      <trkpt lat="44.76453" lon="5.89111">
        <ele>971.371431</ele>
        <time>2025-07-10T08:49:51.000Z</time>
      </trkpt>
      <trkpt lat="44.76454" lon="5.89113">
        <ele>971.437323</ele>
        <time>2025-07-10T08:49:52.000Z</time>
      </trkpt>
      <trkpt lat="44.76456" lon="5.89115">
        <ele>971.508793</ele>
        <time>2025-07-10T08:49:53.000Z</time>
      </trkpt>
      <trkpt lat="44.76458" lon="5.89117">
        <ele>971.59232</ele>
        <time>2025-07-10T08:49:54.000Z</time>
      </trkpt>
      <trkpt lat="44.76461" lon="5.89119">
        <ele>971.689777</ele>
        <time>2025-07-10T08:49:55.000Z</time>
      </trkpt>
      <trkpt lat="44.76464" lon="5.89122">
        <ele>971.796268</ele>
        <time>2025-07-10T08:49:56.000Z</time>
      </trkpt>
      <trkpt lat="44.76467" lon="5.89123">
        <ele>971.901389</ele>
        <time>2025-07-10T08:49:57.000Z</time>
      </trkpt>
      <trkpt lat="44.7647" lon="5.89125">
        <ele>972.003597</ele>
        <time>2025-07-10T08:49:58.000Z</time>
      </trkpt>
      <trkpt lat="44.76473" lon="5.89126">
        <ele>972.084008</ele>
        <time>2025-07-10T08:49:59.000Z</time>
      </trkpt>
      <trkpt lat="44.76475" lon="5.89128">
        <ele>972.166553</ele>
        <time>2025-07-10T08:50:00.000Z</time>
      </trkpt>
      <trkpt lat="44.76477" lon="5.89131">
        <ele>972.256419</ele>
        <time>2025-07-10T08:50:01.000Z</time>
      </trkpt>
      <trkpt lat="44.7648" lon="5.89132">
        <ele>972.338619</ele>
        <time>2025-07-10T08:50:02.000Z</time>
      </trkpt>
      <trkpt lat="44.76482" lon="5.89134">
        <ele>972.42456</ele>
        <time>2025-07-10T08:50:03.000Z</time>
      </trkpt>
      <trkpt lat="44.76485" lon="5.89136">
        <ele>972.508239</ele>
        <time>2025-07-10T08:50:04.000Z</time>
      </trkpt>
      <trkpt lat="44.76487" lon="5.89138">
        <ele>972.596887</ele>
        <time>2025-07-10T08:50:05.000Z</time>
      </trkpt>
      <trkpt lat="44.7649" lon="5.8914">
        <ele>972.690784</ele>
        <time>2025-07-10T08:50:06.000Z</time>
      </trkpt>
      <trkpt lat="44.76491" lon="5.89143">
        <ele>972.767516</ele>
        <time>2025-07-10T08:50:07.000Z</time>
      </trkpt>
      <trkpt lat="44.76493" lon="5.89145">
        <ele>972.849525</ele>
        <time>2025-07-10T08:50:08.000Z</time>
      </trkpt>
      <trkpt lat="44.76495" lon="5.89148">
        <ele>972.934656</ele>
        <time>2025-07-10T08:50:09.000Z</time>
      </trkpt>
      <trkpt lat="44.76497" lon="5.8915">
        <ele>973.021891</ele>
        <time>2025-07-10T08:50:10.000Z</time>
      </trkpt>
      <trkpt lat="44.76499" lon="5.89153">
        <ele>973.106885</ele>
        <time>2025-07-10T08:50:11.000Z</time>
      </trkpt>
      <trkpt lat="44.76501" lon="5.89155">
        <ele>973.206037</ele>
        <time>2025-07-10T08:50:12.000Z</time>
      </trkpt>
      <trkpt lat="44.76503" lon="5.89158">
        <ele>973.305178</ele>
        <time>2025-07-10T08:50:13.000Z</time>
      </trkpt>
      <trkpt lat="44.76504" lon="5.89161">
        <ele>973.399492</ele>
        <time>2025-07-10T08:50:14.000Z</time>
      </trkpt>
      <trkpt lat="44.76507" lon="5.89163">
        <ele>973.498633</ele>
        <time>2025-07-10T08:50:15.000Z</time>
      </trkpt>
      <trkpt lat="44.76508" lon="5.89166">
        <ele>973.594907</ele>
        <time>2025-07-10T08:50:16.000Z</time>
      </trkpt>
      <trkpt lat="44.7651" lon="5.89169">
        <ele>973.681693</ele>
        <time>2025-07-10T08:50:17.000Z</time>
      </trkpt>
      <trkpt lat="44.76512" lon="5.89171">
        <ele>973.776007</ele>
        <time>2025-07-10T08:50:18.000Z</time>
      </trkpt>
      <trkpt lat="44.76513" lon="5.89174">
        <ele>973.87082</ele>
        <time>2025-07-10T08:50:19.000Z</time>
      </trkpt>
      <trkpt lat="44.76515" lon="5.89177">
        <ele>973.960851</ele>
        <time>2025-07-10T08:50:20.000Z</time>
      </trkpt>
      <trkpt lat="44.76517" lon="5.8918">
        <ele>974.055164</ele>
        <time>2025-07-10T08:50:21.000Z</time>
      </trkpt>
      <trkpt lat="44.76519" lon="5.89182">
        <ele>974.153772</ele>
        <time>2025-07-10T08:50:22.000Z</time>
      </trkpt>
      <trkpt lat="44.7652" lon="5.89185">
        <ele>974.247522</ele>
        <time>2025-07-10T08:50:23.000Z</time>
      </trkpt>
      <trkpt lat="44.76522" lon="5.89187">
        <ele>974.330763</ele>
        <time>2025-07-10T08:50:24.000Z</time>
      </trkpt>
      <trkpt lat="44.76524" lon="5.8919">
        <ele>974.43178</ele>
        <time>2025-07-10T08:50:25.000Z</time>
      </trkpt>
      <trkpt lat="44.76526" lon="5.89193">
        <ele>974.520397</ele>
        <time>2025-07-10T08:50:26.000Z</time>
      </trkpt>
      <trkpt lat="44.76528" lon="5.89195">
        <ele>974.619005</ele>
        <time>2025-07-10T08:50:27.000Z</time>
      </trkpt>
      <trkpt lat="44.7653" lon="5.89198">
        <ele>974.718893</ele>
        <time>2025-07-10T08:50:28.000Z</time>
      </trkpt>
      <trkpt lat="44.76531" lon="5.892">
        <ele>974.809225</ele>
        <time>2025-07-10T08:50:29.000Z</time>
      </trkpt>
      <trkpt lat="44.76533" lon="5.89202">
        <ele>974.89033</ele>
        <time>2025-07-10T08:50:30.000Z</time>
      </trkpt>
      <trkpt lat="44.76535" lon="5.89205">
        <ele>974.983426</ele>
        <time>2025-07-10T08:50:31.000Z</time>
      </trkpt>
      <trkpt lat="44.76537" lon="5.89207">
        <ele>975.077175</ele>
        <time>2025-07-10T08:50:32.000Z</time>
      </trkpt>
      <trkpt lat="44.76539" lon="5.89209">
        <ele>975.170271</ele>
        <time>2025-07-10T08:50:33.000Z</time>
      </trkpt>
      <trkpt lat="44.76541" lon="5.89212">
        <ele>975.258956</ele>
        <time>2025-07-10T08:50:34.000Z</time>
      </trkpt>
      <trkpt lat="44.76543" lon="5.89214">
        <ele>975.351817</ele>
        <time>2025-07-10T08:50:35.000Z</time>
      </trkpt>
      <trkpt lat="44.76545" lon="5.89216">
        <ele>975.449951</ele>
        <time>2025-07-10T08:50:36.000Z</time>
      </trkpt>
      <trkpt lat="44.76547" lon="5.89219">
        <ele>975.541972</ele>
        <time>2025-07-10T08:50:37.000Z</time>
      </trkpt>
      <trkpt lat="44.76549" lon="5.89222">
        <ele>975.648883</ele>
        <time>2025-07-10T08:50:38.000Z</time>
      </trkpt>
      <trkpt lat="44.76551" lon="5.89225">
        <ele>975.759954</ele>
        <time>2025-07-10T08:50:39.000Z</time>
      </trkpt>
      <trkpt lat="44.76553" lon="5.89228">
        <ele>975.853973</ele>
        <time>2025-07-10T08:50:40.000Z</time>
      </trkpt>
      <trkpt lat="44.76555" lon="5.89231">
        <ele>975.956491</ele>
        <time>2025-07-10T08:50:41.000Z</time>
      </trkpt>
      <trkpt lat="44.76556" lon="5.89234">
        <ele>976.054751</ele>
        <time>2025-07-10T08:50:42.000Z</time>
      </trkpt>
      <trkpt lat="44.76558" lon="5.89237">
        <ele>976.155025</ele>
        <time>2025-07-10T08:50:43.000Z</time>
      </trkpt>
      <trkpt lat="44.7656" lon="5.8924">
        <ele>976.254176</ele>
        <time>2025-07-10T08:50:44.000Z</time>
      </trkpt>
      <trkpt lat="44.76562" lon="5.89243">
        <ele>976.355193</ele>
        <time>2025-07-10T08:50:45.000Z</time>
      </trkpt>
      <trkpt lat="44.76564" lon="5.89245">
        <ele>976.451889</ele>
        <time>2025-07-10T08:50:46.000Z</time>
      </trkpt>
      <trkpt lat="44.76566" lon="5.89249">
        <ele>976.556726</ele>
        <time>2025-07-10T08:50:47.000Z</time>
      </trkpt>
      <trkpt lat="44.76567" lon="5.89251">
        <ele>976.64652</ele>
        <time>2025-07-10T08:50:48.000Z</time>
      </trkpt>
      <trkpt lat="44.76569" lon="5.89255">
        <ele>976.744681</ele>
        <time>2025-07-10T08:50:49.000Z</time>
      </trkpt>
      <trkpt lat="44.7657" lon="5.89258">
        <ele>976.836848</ele>
        <time>2025-07-10T08:50:50.000Z</time>
      </trkpt>
      <trkpt lat="44.76571" lon="5.89261">
        <ele>976.928698</ele>
        <time>2025-07-10T08:50:51.000Z</time>
      </trkpt>
      <trkpt lat="44.76573" lon="5.89263">
        <ele>977.022717</ele>
        <time>2025-07-10T08:50:52.000Z</time>
      </trkpt>
      <trkpt lat="44.76574" lon="5.89266">
        <ele>977.11048</ele>
        <time>2025-07-10T08:50:53.000Z</time>
      </trkpt>
      <trkpt lat="44.76576" lon="5.89268">
        <ele>977.190345</ele>
        <time>2025-07-10T08:50:54.000Z</time>
      </trkpt>
      <trkpt lat="44.76578" lon="5.8927">
        <ele>977.283393</ele>
        <time>2025-07-10T08:50:55.000Z</time>
      </trkpt>
      <trkpt lat="44.76581" lon="5.89272">
        <ele>977.382222</ele>
        <time>2025-07-10T08:50:56.000Z</time>
      </trkpt>
      <trkpt lat="44.76583" lon="5.89275">
        <ele>977.479731</ele>
        <time>2025-07-10T08:50:57.000Z</time>
      </trkpt>
      <trkpt lat="44.76585" lon="5.89277">
        <ele>977.572826</ele>
        <time>2025-07-10T08:50:58.000Z</time>
      </trkpt>
      <trkpt lat="44.76587" lon="5.89279">
        <ele>977.679642</ele>
        <time>2025-07-10T08:50:59.000Z</time>
      </trkpt>
      <trkpt lat="44.7659" lon="5.89281">
        <ele>977.788467</ele>
        <time>2025-07-10T08:51:00.000Z</time>
      </trkpt>
      <trkpt lat="44.76592" lon="5.89282">
        <ele>977.88213</ele>
        <time>2025-07-10T08:51:01.000Z</time>
      </trkpt>
      <trkpt lat="44.76595" lon="5.89284">
        <ele>977.978991</ele>
        <time>2025-07-10T08:51:02.000Z</time>
      </trkpt>
      <trkpt lat="44.76597" lon="5.89285">
        <ele>978.069333</ele>
        <time>2025-07-10T08:51:03.000Z</time>
      </trkpt>
      <trkpt lat="44.76599" lon="5.89286">
        <ele>978.156912</ele>
        <time>2025-07-10T08:51:04.000Z</time>
      </trkpt>
      <trkpt lat="44.76602" lon="5.89288">
        <ele>978.25489</ele>
        <time>2025-07-10T08:51:05.000Z</time>
      </trkpt>
      <trkpt lat="44.76604" lon="5.8929">
        <ele>978.349761</ele>
        <time>2025-07-10T08:51:06.000Z</time>
      </trkpt>
      <trkpt lat="44.76607" lon="5.89291">
        <ele>978.447644</ele>
        <time>2025-07-10T08:51:07.000Z</time>
      </trkpt>
      <trkpt lat="44.76609" lon="5.89292">
        <ele>978.537986</ele>
        <time>2025-07-10T08:51:08.000Z</time>
      </trkpt>
      <trkpt lat="44.76612" lon="5.89294">
        <ele>978.631648</ele>
        <time>2025-07-10T08:51:09.000Z</time>
      </trkpt>
      <trkpt lat="44.76614" lon="5.89295">
        <ele>978.718692</ele>
        <time>2025-07-10T08:51:10.000Z</time>
      </trkpt>
      <trkpt lat="44.76616" lon="5.89296">
        <ele>978.8014</ele>
        <time>2025-07-10T08:51:11.000Z</time>
      </trkpt>
      <trkpt lat="44.76618" lon="5.89297">
        <ele>978.878815</ele>
        <time>2025-07-10T08:51:12.000Z</time>
      </trkpt>
      <trkpt lat="44.7662" lon="5.89298">
        <ele>978.960739</ele>
        <time>2025-07-10T08:51:13.000Z</time>
      </trkpt>
      <trkpt lat="44.76622" lon="5.89299">
        <ele>979.049664</ele>
        <time>2025-07-10T08:51:14.000Z</time>
      </trkpt>
      <trkpt lat="44.76625" lon="5.893">
        <ele>979.137243</ele>
        <time>2025-07-10T08:51:15.000Z</time>
      </trkpt>
      <trkpt lat="44.76627" lon="5.89301">
        <ele>979.221014</ele>
        <time>2025-07-10T08:51:16.000Z</time>
      </trkpt>
      <trkpt lat="44.76629" lon="5.89303">
        <ele>979.317101</ele>
        <time>2025-07-10T08:51:17.000Z</time>
      </trkpt>
      <trkpt lat="44.76632" lon="5.89304">
        <ele>979.411772</ele>
        <time>2025-07-10T08:51:18.000Z</time>
      </trkpt>
      <trkpt lat="44.76634" lon="5.89306">
        <ele>979.463477</ele>
        <time>2025-07-10T08:51:19.000Z</time>
      </trkpt>
      <trkpt lat="44.76637" lon="5.89308">
        <ele>979.509381</ele>
        <time>2025-07-10T08:51:20.000Z</time>
      </trkpt>
      <trkpt lat="44.76639" lon="5.89309">
        <ele>979.549542</ele>
        <time>2025-07-10T08:51:21.000Z</time>
      </trkpt>
      <trkpt lat="44.76642" lon="5.89311">
        <ele>979.59406</ele>
        <time>2025-07-10T08:51:22.000Z</time>
      </trkpt>
      <trkpt lat="44.76644" lon="5.89313">
        <ele>979.640768</ele>
        <time>2025-07-10T08:51:23.000Z</time>
      </trkpt>
      <trkpt lat="44.76647" lon="5.89316">
        <ele>979.692591</ele>
        <time>2025-07-10T08:51:24.000Z</time>
      </trkpt>
      <trkpt lat="44.7665" lon="5.89318">
        <ele>979.743393</ele>
        <time>2025-07-10T08:51:25.000Z</time>
      </trkpt>
      <trkpt lat="44.76652" lon="5.89319">
        <ele>979.787928</ele>
        <time>2025-07-10T08:51:26.000Z</time>
      </trkpt>
      <trkpt lat="44.76655" lon="5.8932">
        <ele>979.828315</ele>
        <time>2025-07-10T08:51:27.000Z</time>
      </trkpt>
      <trkpt lat="44.76657" lon="5.89321">
        <ele>979.865623</ele>
        <time>2025-07-10T08:51:28.000Z</time>
      </trkpt>
      <trkpt lat="44.76659" lon="5.89323">
        <ele>979.899321</ele>
        <time>2025-07-10T08:51:29.000Z</time>
      </trkpt>
      <trkpt lat="44.7666" lon="5.89325">
        <ele>979.938293</ele>
        <time>2025-07-10T08:51:30.000Z</time>
      </trkpt>
      <trkpt lat="44.76662" lon="5.89327">
        <ele>979.975214</ele>
        <time>2025-07-10T08:51:31.000Z</time>
      </trkpt>
      <trkpt lat="44.76665" lon="5.89329">
        <ele>980.021209</ele>
        <time>2025-07-10T08:51:32.000Z</time>
      </trkpt>
      <trkpt lat="44.76667" lon="5.89332">
        <ele>980.06396</ele>
        <time>2025-07-10T08:51:33.000Z</time>
      </trkpt>
      <trkpt lat="44.76669" lon="5.89334">
        <ele>980.109013</ele>
        <time>2025-07-10T08:51:34.000Z</time>
      </trkpt>
      <trkpt lat="44.76671" lon="5.89337">
        <ele>980.152137</ele>
        <time>2025-07-10T08:51:35.000Z</time>
      </trkpt>
      <trkpt lat="44.76673" lon="5.8934">
        <ele>980.200306</ele>
        <time>2025-07-10T08:51:36.000Z</time>
      </trkpt>
      <trkpt lat="44.76675" lon="5.89342">
        <ele>980.239832</ele>
        <time>2025-07-10T08:51:37.000Z</time>
      </trkpt>
      <trkpt lat="44.76677" lon="5.89344">
        <ele>980.281982</ele>
        <time>2025-07-10T08:51:38.000Z</time>
      </trkpt>
      <trkpt lat="44.76679" lon="5.89346">
        <ele>980.319016</ele>
        <time>2025-07-10T08:51:39.000Z</time>
      </trkpt>
      <trkpt lat="44.76681" lon="5.89348">
        <ele>980.357283</ele>
        <time>2025-07-10T08:51:40.000Z</time>
      </trkpt>
      <trkpt lat="44.76684" lon="5.89351">
        <ele>980.402655</ele>
        <time>2025-07-10T08:51:41.000Z</time>
      </trkpt>
      <trkpt lat="44.76686" lon="5.89353">
        <ele>980.446707</ele>
        <time>2025-07-10T08:51:42.000Z</time>
      </trkpt>
      <trkpt lat="44.76688" lon="5.89356">
        <ele>980.492526</ele>
        <time>2025-07-10T08:51:43.000Z</time>
      </trkpt>
      <trkpt lat="44.7669" lon="5.89358">
        <ele>980.536093</ele>
        <time>2025-07-10T08:51:44.000Z</time>
      </trkpt>
      <trkpt lat="44.76693" lon="5.89361">
        <ele>980.586009</ele>
        <time>2025-07-10T08:51:45.000Z</time>
      </trkpt>
      <trkpt lat="44.76695" lon="5.89363">
        <ele>980.63345</ele>
        <time>2025-07-10T08:51:46.000Z</time>
      </trkpt>
      <trkpt lat="44.76697" lon="5.89367">
        <ele>980.685471</ele>
        <time>2025-07-10T08:51:47.000Z</time>
      </trkpt>
      <trkpt lat="44.767" lon="5.8937">
        <ele>980.737068</ele>
        <time>2025-07-10T08:51:48.000Z</time>
      </trkpt>
      <trkpt lat="44.76702" lon="5.89373">
        <ele>980.790835</ele>
        <time>2025-07-10T08:51:49.000Z</time>
      </trkpt>
      <trkpt lat="44.76705" lon="5.89375">
        <ele>980.840075</ele>
        <time>2025-07-10T08:51:50.000Z</time>
      </trkpt>
      <trkpt lat="44.76708" lon="5.89378">
        <ele>980.897727</ele>
        <time>2025-07-10T08:51:51.000Z</time>
      </trkpt>
      <trkpt lat="44.76711" lon="5.89381">
        <ele>980.957967</ele>
        <time>2025-07-10T08:51:52.000Z</time>
      </trkpt>
      <trkpt lat="44.76714" lon="5.89384">
        <ele>981.011221</ele>
        <time>2025-07-10T08:51:53.000Z</time>
      </trkpt>
      <trkpt lat="44.76716" lon="5.89387">
        <ele>981.066303</ele>
        <time>2025-07-10T08:51:54.000Z</time>
      </trkpt>
      <trkpt lat="44.76719" lon="5.89389">
        <ele>981.117661</ele>
        <time>2025-07-10T08:51:55.000Z</time>
      </trkpt>
      <trkpt lat="44.76722" lon="5.89392">
        <ele>981.173473</ele>
        <time>2025-07-10T08:51:56.000Z</time>
      </trkpt>
      <trkpt lat="44.76725" lon="5.89394">
        <ele>981.230397</ele>
        <time>2025-07-10T08:51:57.000Z</time>
      </trkpt>
      <trkpt lat="44.76729" lon="5.89396">
        <ele>981.285398</ele>
        <time>2025-07-10T08:51:58.000Z</time>
      </trkpt>
      <trkpt lat="44.76732" lon="5.89398">
        <ele>981.337517</ele>
        <time>2025-07-10T08:51:59.000Z</time>
      </trkpt>
      <trkpt lat="44.76735" lon="5.894">
        <ele>981.39246</ele>
        <time>2025-07-10T08:52:00.000Z</time>
      </trkpt>
      <trkpt lat="44.76738" lon="5.89401">
        <ele>981.446192</ele>
        <time>2025-07-10T08:52:01.000Z</time>
      </trkpt>
      <trkpt lat="44.76742" lon="5.89402">
        <ele>981.502778</ele>
        <time>2025-07-10T08:52:02.000Z</time>
      </trkpt>
      <trkpt lat="44.76745" lon="5.89402">
        <ele>981.555259</ele>
        <time>2025-07-10T08:52:03.000Z</time>
      </trkpt>
      <trkpt lat="44.76748" lon="5.89402">
        <ele>981.606012</ele>
        <time>2025-07-10T08:52:04.000Z</time>
      </trkpt>
      <trkpt lat="44.76752" lon="5.89403">
        <ele>981.661754</ele>
        <time>2025-07-10T08:52:05.000Z</time>
      </trkpt>
      <trkpt lat="44.76755" lon="5.89404">
        <ele>981.7195</ele>
        <time>2025-07-10T08:52:06.000Z</time>
      </trkpt>
      <trkpt lat="44.76758" lon="5.89404">
        <ele>981.770403</ele>
        <time>2025-07-10T08:52:07.000Z</time>
      </trkpt>
      <trkpt lat="44.76762" lon="5.89404">
        <ele>981.822691</ele>
        <time>2025-07-10T08:52:08.000Z</time>
      </trkpt>
      <trkpt lat="44.76765" lon="5.89404">
        <ele>981.876751</ele>
        <time>2025-07-10T08:52:09.000Z</time>
      </trkpt>
      <trkpt lat="44.76769" lon="5.89404">
        <ele>981.935387</ele>
        <time>2025-07-10T08:52:10.000Z</time>
      </trkpt>
      <trkpt lat="44.76773" lon="5.89404">
        <ele>981.994013</ele>
        <time>2025-07-10T08:52:11.000Z</time>
      </trkpt>
      <trkpt lat="44.76776" lon="5.89404">
        <ele>982.049481</ele>
        <time>2025-07-10T08:52:12.000Z</time>
      </trkpt>
      <trkpt lat="44.76779" lon="5.89405">
        <ele>982.103483</ele>
        <time>2025-07-10T08:52:13.000Z</time>
      </trkpt>
      <trkpt lat="44.76783" lon="5.89406">
        <ele>982.159349</ele>
        <time>2025-07-10T08:52:14.000Z</time>
      </trkpt>
      <trkpt lat="44.76786" lon="5.89406">
        <ele>982.214851</ele>
        <time>2025-07-10T08:52:15.000Z</time>
      </trkpt>
      <trkpt lat="44.7679" lon="5.89407">
        <ele>982.269296</ele>
        <time>2025-07-10T08:52:16.000Z</time>
      </trkpt>
      <trkpt lat="44.76793" lon="5.89408">
        <ele>982.301959</ele>
        <time>2025-07-10T08:52:17.000Z</time>
      </trkpt>
      <trkpt lat="44.76796" lon="5.89409">
        <ele>982.333321</ele>
        <time>2025-07-10T08:52:18.000Z</time>
      </trkpt>
      <trkpt lat="44.76798" lon="5.8941">
        <ele>982.362609</ele>
        <time>2025-07-10T08:52:19.000Z</time>
      </trkpt>
      <trkpt lat="44.76802" lon="5.89411">
        <ele>982.396194</ele>
        <time>2025-07-10T08:52:20.000Z</time>
      </trkpt>
      <trkpt lat="44.76805" lon="5.89412">
        <ele>982.431878</ele>
        <time>2025-07-10T08:52:21.000Z</time>
      </trkpt>
      <trkpt lat="44.76809" lon="5.89413">
        <ele>982.467478</ele>
        <time>2025-07-10T08:52:22.000Z</time>
      </trkpt>
      <trkpt lat="44.76812" lon="5.89415">
        <ele>982.507107</ele>
        <time>2025-07-10T08:52:23.000Z</time>
      </trkpt>
      <trkpt lat="44.76816" lon="5.89416">
        <ele>982.545994</ele>
        <time>2025-07-10T08:52:24.000Z</time>
      </trkpt>
      <trkpt lat="44.7682" lon="5.89417">
        <ele>982.588443</ele>
        <time>2025-07-10T08:52:25.000Z</time>
      </trkpt>
      <trkpt lat="44.76824" lon="5.89419">
        <ele>982.629626</ele>
        <time>2025-07-10T08:52:26.000Z</time>
      </trkpt>
      <trkpt lat="44.76828" lon="5.8942">
        <ele>982.668699</ele>
        <time>2025-07-10T08:52:27.000Z</time>
      </trkpt>
      <trkpt lat="44.76832" lon="5.89422">
        <ele>982.706418</ele>
        <time>2025-07-10T08:52:28.000Z</time>
      </trkpt>
      <trkpt lat="44.76836" lon="5.89422">
        <ele>982.746693</ele>
        <time>2025-07-10T08:52:29.000Z</time>
      </trkpt>
      <trkpt lat="44.76839" lon="5.89422">
        <ele>982.783663</ele>
        <time>2025-07-10T08:52:30.000Z</time>
      </trkpt>
      <trkpt lat="44.76842" lon="5.89423">
        <ele>982.81295</ele>
        <time>2025-07-10T08:52:31.000Z</time>
      </trkpt>
      <trkpt lat="44.76845" lon="5.89423">
        <ele>982.83797</ele>
        <time>2025-07-10T08:52:32.000Z</time>
      </trkpt>
      <trkpt lat="44.76848" lon="5.89424">
        <ele>982.869147</ele>
        <time>2025-07-10T08:52:33.000Z</time>
      </trkpt>
      <trkpt lat="44.76851" lon="5.89424">
        <ele>982.902605</ele>
        <time>2025-07-10T08:52:34.000Z</time>
      </trkpt>
      <trkpt lat="44.76855" lon="5.89425">
        <ele>982.935609</ele>
        <time>2025-07-10T08:52:35.000Z</time>
      </trkpt>
      <trkpt lat="44.76858" lon="5.89424">
        <ele>982.969336</ele>
        <time>2025-07-10T08:52:36.000Z</time>
      </trkpt>
      <trkpt lat="44.76862" lon="5.89423">
        <ele>983.011398</ele>
        <time>2025-07-10T08:52:37.000Z</time>
      </trkpt>
      <trkpt lat="44.76866" lon="5.89424">
        <ele>983.048477</ele>
        <time>2025-07-10T08:52:38.000Z</time>
      </trkpt>
      <trkpt lat="44.76869" lon="5.89422">
        <ele>983.082913</ele>
        <time>2025-07-10T08:52:39.000Z</time>
      </trkpt>
      <trkpt lat="44.76873" lon="5.89421">
        <ele>983.123308</ele>
        <time>2025-07-10T08:52:40.000Z</time>
      </trkpt>
      <trkpt lat="44.76876" lon="5.8942">
        <ele>983.158165</ele>
        <time>2025-07-10T08:52:41.000Z</time>
      </trkpt>
      <trkpt lat="44.7688" lon="5.89418">
        <ele>983.193274</ele>
        <time>2025-07-10T08:52:42.000Z</time>
      </trkpt>
      <trkpt lat="44.76883" lon="5.89416">
        <ele>983.227959</ele>
        <time>2025-07-10T08:52:43.000Z</time>
      </trkpt>
      <trkpt lat="44.76886" lon="5.89413">
        <ele>983.268088</ele>
        <time>2025-07-10T08:52:44.000Z</time>
      </trkpt>
      <trkpt lat="44.7689" lon="5.89411">
        <ele>983.307298</ele>
        <time>2025-07-10T08:52:45.000Z</time>
      </trkpt>
      <trkpt lat="44.76894" lon="5.89409">
        <ele>983.345965</ele>
        <time>2025-07-10T08:52:46.000Z</time>
      </trkpt>
      <trkpt lat="44.76897" lon="5.89408">
        <ele>983.385212</ele>
        <time>2025-07-10T08:52:47.000Z</time>
      </trkpt>
      <trkpt lat="44.76902" lon="5.89408">
        <ele>983.428177</ele>
        <time>2025-07-10T08:52:48.000Z</time>
      </trkpt>
      <trkpt lat="44.76906" lon="5.89409">
        <ele>983.46694</ele>
        <time>2025-07-10T08:52:49.000Z</time>
      </trkpt>
      <trkpt lat="44.76909" lon="5.89411">
        <ele>983.503707</ele>
        <time>2025-07-10T08:52:50.000Z</time>
      </trkpt>
      <trkpt lat="44.76912" lon="5.89413">
        <ele>983.5422</ele>
        <time>2025-07-10T08:52:51.000Z</time>
      </trkpt>
      <trkpt lat="44.76915" lon="5.89416">
        <ele>983.576237</ele>
        <time>2025-07-10T08:52:52.000Z</time>
      </trkpt>
      <trkpt lat="44.76917" lon="5.8942">
        <ele>983.610397</ele>
        <time>2025-07-10T08:52:53.000Z</time>
      </trkpt>
      <trkpt lat="44.76919" lon="5.89425">
        <ele>983.646098</ele>
        <time>2025-07-10T08:52:54.000Z</time>
      </trkpt>
      <trkpt lat="44.7692" lon="5.89429">
        <ele>983.6818</ele>
        <time>2025-07-10T08:52:55.000Z</time>
      </trkpt>
      <trkpt lat="44.76921" lon="5.89434">
        <ele>983.718569</ele>
        <time>2025-07-10T08:52:56.000Z</time>
      </trkpt>
      <trkpt lat="44.76923" lon="5.89439">
        <ele>983.757739</ele>
        <time>2025-07-10T08:52:57.000Z</time>
      </trkpt>
      <trkpt lat="44.76923" lon="5.89444">
        <ele>983.790903</ele>
        <time>2025-07-10T08:52:58.000Z</time>
      </trkpt>
      <trkpt lat="44.76924" lon="5.89449">
        <ele>983.826722</ele>
        <time>2025-07-10T08:52:59.000Z</time>
      </trkpt>
      <trkpt lat="44.76924" lon="5.89454">
        <ele>983.864372</ele>
        <time>2025-07-10T08:53:00.000Z</time>
      </trkpt>
      <trkpt lat="44.76924" lon="5.8946">
        <ele>983.90273</ele>
        <time>2025-07-10T08:53:01.000Z</time>
      </trkpt>
      <trkpt lat="44.76924" lon="5.89464">
        <ele>983.934668</ele>
        <time>2025-07-10T08:53:02.000Z</time>
      </trkpt>
      <trkpt lat="44.76925" lon="5.89469">
        <ele>983.971189</ele>
        <time>2025-07-10T08:53:03.000Z</time>
      </trkpt>
      <trkpt lat="44.76926" lon="5.89475">
        <ele>984.015011</ele>
        <time>2025-07-10T08:53:04.000Z</time>
      </trkpt>
      <trkpt lat="44.76928" lon="5.89482">
        <ele>984.064504</ele>
        <time>2025-07-10T08:53:05.000Z</time>
      </trkpt>
      <trkpt lat="44.76928" lon="5.89488">
        <ele>984.01685</ele>
        <time>2025-07-10T08:53:06.000Z</time>
      </trkpt>
      <trkpt lat="44.76929" lon="5.89494">
        <ele>983.93559</ele>
        <time>2025-07-10T08:53:07.000Z</time>
      </trkpt>
      <trkpt lat="44.76929" lon="5.895">
        <ele>983.861157</ele>
        <time>2025-07-10T08:53:08.000Z</time>
      </trkpt>
      <trkpt lat="44.76929" lon="5.89505">
        <ele>983.786904</ele>
        <time>2025-07-10T08:53:09.000Z</time>
      </trkpt>
      <trkpt lat="44.76929" lon="5.89511">
        <ele>983.715256</ele>
        <time>2025-07-10T08:53:10.000Z</time>
      </trkpt>
      <trkpt lat="44.76929" lon="5.89517">
        <ele>983.639702</ele>
        <time>2025-07-10T08:53:11.000Z</time>
      </trkpt>
      <trkpt lat="44.7693" lon="5.89522">
        <ele>983.570293</ele>
        <time>2025-07-10T08:53:12.000Z</time>
      </trkpt>
      <trkpt lat="44.7693" lon="5.89527">
        <ele>983.498574</ele>
        <time>2025-07-10T08:53:13.000Z</time>
      </trkpt>
      <trkpt lat="44.76931" lon="5.89533">
        <ele>983.428682</ele>
        <time>2025-07-10T08:53:14.000Z</time>
      </trkpt>
      <trkpt lat="44.76931" lon="5.89538">
        <ele>983.351738</ele>
        <time>2025-07-10T08:53:15.000Z</time>
      </trkpt>
      <trkpt lat="44.76933" lon="5.89544">
        <ele>983.276873</ele>
        <time>2025-07-10T08:53:16.000Z</time>
      </trkpt>
      <trkpt lat="44.76934" lon="5.89549">
        <ele>983.20257</ele>
        <time>2025-07-10T08:53:17.000Z</time>
      </trkpt>
      <trkpt lat="44.76936" lon="5.89555">
        <ele>983.122097</ele>
        <time>2025-07-10T08:53:18.000Z</time>
      </trkpt>
      <trkpt lat="44.76939" lon="5.8956">
        <ele>983.03927</ele>
        <time>2025-07-10T08:53:19.000Z</time>
      </trkpt>
      <trkpt lat="44.76942" lon="5.89565">
        <ele>982.954278</ele>
        <time>2025-07-10T08:53:20.000Z</time>
      </trkpt>
      <trkpt lat="44.76945" lon="5.8957">
        <ele>982.866895</ele>
        <time>2025-07-10T08:53:21.000Z</time>
      </trkpt>
      <trkpt lat="44.76949" lon="5.89574">
        <ele>982.777226</ele>
        <time>2025-07-10T08:53:22.000Z</time>
      </trkpt>
      <trkpt lat="44.76953" lon="5.89578">
        <ele>982.686482</ele>
        <time>2025-07-10T08:53:23.000Z</time>
      </trkpt>
      <trkpt lat="44.76957" lon="5.89582">
        <ele>982.591554</ele>
        <time>2025-07-10T08:53:24.000Z</time>
      </trkpt>
      <trkpt lat="44.76962" lon="5.89585">
        <ele>982.493579</ele>
        <time>2025-07-10T08:53:25.000Z</time>
      </trkpt>
      <trkpt lat="44.76967" lon="5.89588">
        <ele>982.391689</ele>
        <time>2025-07-10T08:53:26.000Z</time>
      </trkpt>
      <trkpt lat="44.76973" lon="5.89591">
        <ele>982.283502</ele>
        <time>2025-07-10T08:53:27.000Z</time>
      </trkpt>
      <trkpt lat="44.76978" lon="5.89595">
        <ele>982.173326</ele>
        <time>2025-07-10T08:53:28.000Z</time>
      </trkpt>
      <trkpt lat="44.76983" lon="5.89598">
        <ele>982.065953</ele>
        <time>2025-07-10T08:53:29.000Z</time>
      </trkpt>
      <trkpt lat="44.76989" lon="5.89602">
        <ele>981.956</ele>
        <time>2025-07-10T08:53:30.000Z</time>
      </trkpt>
      <trkpt lat="44.76994" lon="5.89607">
        <ele>981.847257</ele>
        <time>2025-07-10T08:53:31.000Z</time>
      </trkpt>
      <trkpt lat="44.76998" lon="5.89612">
        <ele>981.737629</ele>
        <time>2025-07-10T08:53:32.000Z</time>
      </trkpt>
      <trkpt lat="44.77003" lon="5.89618">
        <ele>981.630582</ele>
        <time>2025-07-10T08:53:33.000Z</time>
      </trkpt>
      <trkpt lat="44.77007" lon="5.89624">
        <ele>981.52119</ele>
        <time>2025-07-10T08:53:34.000Z</time>
      </trkpt>
      <trkpt lat="44.7701" lon="5.89631">
        <ele>981.412879</ele>
        <time>2025-07-10T08:53:35.000Z</time>
      </trkpt>
      <trkpt lat="44.77013" lon="5.89637">
        <ele>981.309823</ele>
        <time>2025-07-10T08:53:36.000Z</time>
      </trkpt>
      <trkpt lat="44.77016" lon="5.89644">
        <ele>981.206816</ele>
        <time>2025-07-10T08:53:37.000Z</time>
      </trkpt>
      <trkpt lat="44.77019" lon="5.8965">
        <ele>981.10476</ele>
        <time>2025-07-10T08:53:38.000Z</time>
      </trkpt>
      <trkpt lat="44.77022" lon="5.89657">
        <ele>981.003879</ele>
        <time>2025-07-10T08:53:39.000Z</time>
      </trkpt>
      <trkpt lat="44.77024" lon="5.89664">
        <ele>980.906564</ele>
        <time>2025-07-10T08:53:40.000Z</time>
      </trkpt>
      <trkpt lat="44.77027" lon="5.89671">
        <ele>980.809997</ele>
        <time>2025-07-10T08:53:41.000Z</time>
      </trkpt>
      <trkpt lat="44.77029" lon="5.89677">
        <ele>980.715804</ele>
        <time>2025-07-10T08:53:42.000Z</time>
      </trkpt>
      <trkpt lat="44.77031" lon="5.89683">
        <ele>980.624609</ele>
        <time>2025-07-10T08:53:43.000Z</time>
      </trkpt>
      <trkpt lat="44.77033" lon="5.8969">
        <ele>980.534186</ele>
        <time>2025-07-10T08:53:44.000Z</time>
      </trkpt>
      <trkpt lat="44.77036" lon="5.89696">
        <ele>980.442937</ele>
        <time>2025-07-10T08:53:45.000Z</time>
      </trkpt>
      <trkpt lat="44.77038" lon="5.89702">
        <ele>980.355916</ele>
        <time>2025-07-10T08:53:46.000Z</time>
      </trkpt>
      <trkpt lat="44.7704" lon="5.89708">
        <ele>980.269744</ele>
        <time>2025-07-10T08:53:47.000Z</time>
      </trkpt>
      <trkpt lat="44.77042" lon="5.89714">
        <ele>980.187525</ele>
        <time>2025-07-10T08:53:48.000Z</time>
      </trkpt>
      <trkpt lat="44.77043" lon="5.8972">
        <ele>980.107235</ele>
        <time>2025-07-10T08:53:49.000Z</time>
      </trkpt>
      <trkpt lat="44.77044" lon="5.89726">
        <ele>980.025454</ele>
        <time>2025-07-10T08:53:50.000Z</time>
      </trkpt>
      <trkpt lat="44.77044" lon="5.89732">
        <ele>979.946702</ele>
        <time>2025-07-10T08:53:51.000Z</time>
      </trkpt>
      <trkpt lat="44.77045" lon="5.89738">
        <ele>979.875885</ele>
        <time>2025-07-10T08:53:52.000Z</time>
      </trkpt>
      <trkpt lat="44.77047" lon="5.8974">
        <ele>979.83111</ele>
        <time>2025-07-10T08:53:53.000Z</time>
      </trkpt>
      <trkpt lat="44.77048" lon="5.89739">
        <ele>979.801261</ele>
        <time>2025-07-10T08:53:54.000Z</time>
      </trkpt>
      <trkpt lat="44.77048" lon="5.89736">
        <ele>979.77253</ele>
        <time>2025-07-10T08:53:55.000Z</time>
      </trkpt>
      <trkpt lat="44.77048" lon="5.89735">
        <ele>979.759705</ele>
        <time>2025-07-10T08:53:56.000Z</time>
      </trkpt>
      <trkpt lat="44.77048" lon="5.89734">
        <ele>979.737606</ele>
        <time>2025-07-10T08:55:11.000Z</time>
      </trkpt>
      <trkpt lat="44.77047" lon="5.89735">
        <ele>979.71102</ele>
        <time>2025-07-10T08:55:12.000Z</time>
      </trkpt>
      <trkpt lat="44.77046" lon="5.89737">
        <ele>979.675851</ele>
        <time>2025-07-10T08:55:13.000Z</time>
      </trkpt>
      <trkpt lat="44.77046" lon="5.89741">
        <ele>979.629365</ele>
        <time>2025-07-10T08:55:14.000Z</time>
      </trkpt>
      <trkpt lat="44.77046" lon="5.89745">
        <ele>979.576658</ele>
        <time>2025-07-10T08:55:15.000Z</time>
      </trkpt>
      <trkpt lat="44.77046" lon="5.89749">
        <ele>979.523798</ele>
        <time>2025-07-10T08:55:16.000Z</time>
      </trkpt>
      <trkpt lat="44.77047" lon="5.89753">
        <ele>979.471992</ele>
        <time>2025-07-10T08:55:17.000Z</time>
      </trkpt>
      <trkpt lat="44.77047" lon="5.89757">
        <ele>979.418639</ele>
        <time>2025-07-10T08:55:18.000Z</time>
      </trkpt>
      <trkpt lat="44.77048" lon="5.89761">
        <ele>979.367054</ele>
        <time>2025-07-10T08:55:19.000Z</time>
      </trkpt>
      <trkpt lat="44.77048" lon="5.89765">
        <ele>979.317946</ele>
        <time>2025-07-10T08:55:20.000Z</time>
      </trkpt>
      <trkpt lat="44.77049" lon="5.89768">
        <ele>979.276905</ele>
        <time>2025-07-10T08:55:21.000Z</time>
      </trkpt>
      <trkpt lat="44.77051" lon="5.8977">
        <ele>979.243435</ele>
        <time>2025-07-10T08:55:22.000Z</time>
      </trkpt>
      <trkpt lat="44.77052" lon="5.89772">
        <ele>979.212689</ele>
        <time>2025-07-10T08:55:23.000Z</time>
      </trkpt>
      <trkpt lat="44.77054" lon="5.89772">
        <ele>979.180147</ele>
        <time>2025-07-10T08:55:24.000Z</time>
      </trkpt>
      <trkpt lat="44.77055" lon="5.89772">
        <ele>979.156628</ele>
        <time>2025-07-10T08:55:25.000Z</time>
      </trkpt>
      <trkpt lat="44.77056" lon="5.89769">
        <ele>979.117773</ele>
        <time>2025-07-10T08:55:33.000Z</time>
      </trkpt>
      <trkpt lat="44.77056" lon="5.89769">
        <ele>979.113342</ele>
        <time>2025-07-10T08:55:34.000Z</time>
      </trkpt>
      <trkpt lat="44.77056" lon="5.89765">
        <ele>979.05746</ele>
        <time>2025-07-10T08:58:07.000Z</time>
      </trkpt>
      <trkpt lat="44.77054" lon="5.89765">
        <ele>979.017696</ele>
        <time>2025-07-10T08:58:10.000Z</time>
      </trkpt>
      <trkpt lat="44.7705" lon="5.89767">
        <ele>978.946553</ele>
        <time>2025-07-10T08:58:20.000Z</time>
      </trkpt>
      <trkpt lat="44.77047" lon="5.89769">
        <ele>978.89109</ele>
        <time>2025-07-10T08:58:21.000Z</time>
      </trkpt>
      <trkpt lat="44.77046" lon="5.89772">
        <ele>978.839728</ele>
        <time>2025-07-10T08:58:22.000Z</time>
      </trkpt>
      <trkpt lat="44.77044" lon="5.89776">
        <ele>978.780574</ele>
        <time>2025-07-10T08:58:23.000Z</time>
      </trkpt>
      <trkpt lat="44.77042" lon="5.8978">
        <ele>978.715715</ele>
        <time>2025-07-10T08:58:24.000Z</time>
      </trkpt>
      <trkpt lat="44.7704" lon="5.89784">
        <ele>978.656057</ele>
        <time>2025-07-10T08:58:25.000Z</time>
      </trkpt>
      <trkpt lat="44.77038" lon="5.89789">
        <ele>978.591101</ele>
        <time>2025-07-10T08:58:26.000Z</time>
      </trkpt>
      <trkpt lat="44.77036" lon="5.89793">
        <ele>978.519968</ele>
        <time>2025-07-10T08:58:27.000Z</time>
      </trkpt>
      <trkpt lat="44.77034" lon="5.89798">
        <ele>978.44748</ele>
        <time>2025-07-10T08:58:28.000Z</time>
      </trkpt>
      <trkpt lat="44.77032" lon="5.89804">
        <ele>978.369367</ele>
        <time>2025-07-10T08:58:29.000Z</time>
      </trkpt>
      <trkpt lat="44.7703" lon="5.89809">
        <ele>978.29322</ele>
        <time>2025-07-10T08:58:30.000Z</time>
      </trkpt>
      <trkpt lat="44.77028" lon="5.89814">
        <ele>978.213555</ele>
        <time>2025-07-10T08:58:31.000Z</time>
      </trkpt>
      <trkpt lat="44.77026" lon="5.89819">
        <ele>978.134981</ele>
        <time>2025-07-10T08:58:32.000Z</time>
      </trkpt>
      <trkpt lat="44.77024" lon="5.89825">
        <ele>978.056371</ele>
        <time>2025-07-10T08:58:33.000Z</time>
      </trkpt>
      <trkpt lat="44.77023" lon="5.89831">
        <ele>977.973955</ele>
        <time>2025-07-10T08:58:34.000Z</time>
      </trkpt>
      <trkpt lat="44.77022" lon="5.89837">
        <ele>977.898179</ele>
        <time>2025-07-10T08:58:35.000Z</time>
      </trkpt>
      <trkpt lat="44.77022" lon="5.89843">
        <ele>977.823444</ele>
        <time>2025-07-10T08:58:36.000Z</time>
      </trkpt>
      <trkpt lat="44.77022" lon="5.89849">
        <ele>977.749985</ele>
        <time>2025-07-10T08:58:37.000Z</time>
      </trkpt>
      <trkpt lat="44.77023" lon="5.89854">
        <ele>977.680493</ele>
        <time>2025-07-10T08:58:38.000Z</time>
      </trkpt>
      <trkpt lat="44.77024" lon="5.89859">
        <ele>977.6067</ele>
        <time>2025-07-10T08:58:39.000Z</time>
      </trkpt>
      <trkpt lat="44.77026" lon="5.89865">
        <ele>977.534715</ele>
        <time>2025-07-10T08:58:40.000Z</time>
      </trkpt>
      <trkpt lat="44.77028" lon="5.89869">
        <ele>977.447366</ele>
        <time>2025-07-10T08:58:41.000Z</time>
      </trkpt>
      <trkpt lat="44.7703" lon="5.89873">
        <ele>977.358779</ele>
        <time>2025-07-10T08:58:42.000Z</time>
      </trkpt>
      <trkpt lat="44.77032" lon="5.89877">
        <ele>977.272525</ele>
        <time>2025-07-10T08:58:43.000Z</time>
      </trkpt>
      <trkpt lat="44.77035" lon="5.8988">
        <ele>977.187684</ele>
        <time>2025-07-10T08:58:44.000Z</time>
      </trkpt>
      <trkpt lat="44.77038" lon="5.89883">
        <ele>977.101468</ele>
        <time>2025-07-10T08:58:45.000Z</time>
      </trkpt>
      <trkpt lat="44.77041" lon="5.89886">
        <ele>977.010146</ele>
        <time>2025-07-10T08:58:46.000Z</time>
      </trkpt>
      <trkpt lat="44.77044" lon="5.89889">
        <ele>976.913791</ele>
        <time>2025-07-10T08:58:47.000Z</time>
      </trkpt>
      <trkpt lat="44.77048" lon="5.89891">
        <ele>976.825436</ele>
        <time>2025-07-10T08:58:48.000Z</time>
      </trkpt>
      <trkpt lat="44.77051" lon="5.89894">
        <ele>976.73501</ele>
        <time>2025-07-10T08:58:49.000Z</time>
      </trkpt>
      <trkpt lat="44.77054" lon="5.89897">
        <ele>976.634916</ele>
        <time>2025-07-10T08:58:50.000Z</time>
      </trkpt>
      <trkpt lat="44.77058" lon="5.899">
        <ele>976.535789</ele>
        <time>2025-07-10T08:58:51.000Z</time>
      </trkpt>
      <trkpt lat="44.77061" lon="5.89903">
        <ele>976.436469</ele>
        <time>2025-07-10T08:58:52.000Z</time>
      </trkpt>
      <trkpt lat="44.77065" lon="5.89907">
        <ele>976.33043</ele>
        <time>2025-07-10T08:58:53.000Z</time>
      </trkpt>
      <trkpt lat="44.77068" lon="5.8991">
        <ele>976.22833</ele>
        <time>2025-07-10T08:58:54.000Z</time>
      </trkpt>
      <trkpt lat="44.77072" lon="5.89913">
        <ele>976.131976</ele>
        <time>2025-07-10T08:58:55.000Z</time>
      </trkpt>
      <trkpt lat="44.77076" lon="5.89916">
        <ele>976.022919</ele>
        <time>2025-07-10T08:58:56.000Z</time>
      </trkpt>
      <trkpt lat="44.77079" lon="5.89919">
        <ele>975.919744</ele>
        <time>2025-07-10T08:58:57.000Z</time>
      </trkpt>
      <trkpt lat="44.77083" lon="5.89922">
        <ele>975.818346</ele>
        <time>2025-07-10T08:58:58.000Z</time>
      </trkpt>
      <trkpt lat="44.77087" lon="5.89924">
        <ele>975.719476</ele>
        <time>2025-07-10T08:58:59.000Z</time>
      </trkpt>
      <trkpt lat="44.7709" lon="5.89927">
        <ele>975.614706</ele>
        <time>2025-07-10T08:59:00.000Z</time>
      </trkpt>
      <trkpt lat="44.77094" lon="5.89931">
        <ele>975.500554</ele>
        <time>2025-07-10T08:59:01.000Z</time>
      </trkpt>
      <trkpt lat="44.77098" lon="5.89934">
        <ele>975.392274</ele>
        <time>2025-07-10T08:59:02.000Z</time>
      </trkpt>
      <trkpt lat="44.77103" lon="5.89937">
        <ele>975.277328</ele>
        <time>2025-07-10T08:59:03.000Z</time>
      </trkpt>
      <trkpt lat="44.77107" lon="5.8994">
        <ele>975.159029</ele>
        <time>2025-07-10T08:59:04.000Z</time>
      </trkpt>
      <trkpt lat="44.77111" lon="5.89944">
        <ele>975.041598</ele>
        <time>2025-07-10T08:59:05.000Z</time>
      </trkpt>
      <trkpt lat="44.77115" lon="5.89947">
        <ele>974.918542</ele>
        <time>2025-07-10T08:59:06.000Z</time>
      </trkpt>
      <trkpt lat="44.7712" lon="5.89951">
        <ele>974.791594</ele>
        <time>2025-07-10T08:59:07.000Z</time>
      </trkpt>
      <trkpt lat="44.77124" lon="5.89955">
        <ele>974.663512</ele>
        <time>2025-07-10T08:59:08.000Z</time>
      </trkpt>
      <trkpt lat="44.77129" lon="5.89959">
        <ele>974.535101</ele>
        <time>2025-07-10T08:59:09.000Z</time>
      </trkpt>
      <trkpt lat="44.77133" lon="5.89962">
        <ele>974.409293</ele>
        <time>2025-07-10T08:59:10.000Z</time>
      </trkpt>
      <trkpt lat="44.77139" lon="5.89965">
        <ele>974.271498</ele>
        <time>2025-07-10T08:59:11.000Z</time>
      </trkpt>
      <trkpt lat="44.77145" lon="5.89966">
        <ele>974.130604</ele>
        <time>2025-07-10T08:59:12.000Z</time>
      </trkpt>
      <trkpt lat="44.7715" lon="5.89967">
        <ele>973.993288</ele>
        <time>2025-07-10T08:59:13.000Z</time>
      </trkpt>
      <trkpt lat="44.77156" lon="5.89968">
        <ele>973.854726</ele>
        <time>2025-07-10T08:59:14.000Z</time>
      </trkpt>
      <trkpt lat="44.77162" lon="5.89968">
        <ele>973.711689</ele>
        <time>2025-07-10T08:59:15.000Z</time>
      </trkpt>
      <trkpt lat="44.77168" lon="5.89967">
        <ele>973.567631</ele>
        <time>2025-07-10T08:59:16.000Z</time>
      </trkpt>
      <trkpt lat="44.77173" lon="5.89965">
        <ele>973.426737</ele>
        <time>2025-07-10T08:59:17.000Z</time>
      </trkpt>
      <trkpt lat="44.77179" lon="5.89963">
        <ele>973.290112</ele>
        <time>2025-07-10T08:59:18.000Z</time>
      </trkpt>
      <trkpt lat="44.77184" lon="5.89959">
        <ele>973.150221</ele>
        <time>2025-07-10T08:59:19.000Z</time>
      </trkpt>
      <trkpt lat="44.77189" lon="5.89955">
        <ele>973.033166</ele>
        <time>2025-07-10T08:59:20.000Z</time>
      </trkpt>
      <trkpt lat="44.77194" lon="5.89951">
        <ele>972.913237</ele>
        <time>2025-07-10T08:59:21.000Z</time>
      </trkpt>
      <trkpt lat="44.77199" lon="5.89946">
        <ele>972.78778</ele>
        <time>2025-07-10T08:59:22.000Z</time>
      </trkpt>
      <trkpt lat="44.77204" lon="5.89941">
        <ele>972.666447</ele>
        <time>2025-07-10T08:59:23.000Z</time>
      </trkpt>
      <trkpt lat="44.77209" lon="5.89935">
        <ele>972.544822</ele>
        <time>2025-07-10T08:59:24.000Z</time>
      </trkpt>
      <trkpt lat="44.77214" lon="5.8993">
        <ele>972.421378</ele>
        <time>2025-07-10T08:59:25.000Z</time>
      </trkpt>
      <trkpt lat="44.77218" lon="5.89924">
        <ele>972.294561</ele>
        <time>2025-07-10T08:59:26.000Z</time>
      </trkpt>
      <trkpt lat="44.77223" lon="5.89918">
        <ele>972.168666</ele>
        <time>2025-07-10T08:59:27.000Z</time>
      </trkpt>
      <trkpt lat="44.77228" lon="5.89913">
        <ele>972.047042</ele>
        <time>2025-07-10T08:59:28.000Z</time>
      </trkpt>
      <trkpt lat="44.77233" lon="5.89907">
        <ele>971.921401</ele>
        <time>2025-07-10T08:59:29.000Z</time>
      </trkpt>
      <trkpt lat="44.77238" lon="5.89902">
        <ele>971.795761</ele>
        <time>2025-07-10T08:59:30.000Z</time>
      </trkpt>
      <trkpt lat="44.77243" lon="5.89896">
        <ele>971.667051</ele>
        <time>2025-07-10T08:59:31.000Z</time>
      </trkpt>
      <trkpt lat="44.77248" lon="5.89892">
        <ele>971.538783</ele>
        <time>2025-07-10T08:59:32.000Z</time>
      </trkpt>
      <trkpt lat="44.77254" lon="5.89888">
        <ele>971.409787</ele>
        <time>2025-07-10T08:59:33.000Z</time>
      </trkpt>
      <trkpt lat="44.7726" lon="5.89884">
        <ele>971.282714</ele>
        <time>2025-07-10T08:59:34.000Z</time>
      </trkpt>
      <trkpt lat="44.77265" lon="5.8988">
        <ele>971.159275</ele>
        <time>2025-07-10T08:59:35.000Z</time>
      </trkpt>
      <trkpt lat="44.77271" lon="5.89877">
        <ele>971.032999</ele>
        <time>2025-07-10T08:59:36.000Z</time>
      </trkpt>
      <trkpt lat="44.77278" lon="5.89875">
        <ele>970.900893</ele>
        <time>2025-07-10T08:59:37.000Z</time>
      </trkpt>
      <trkpt lat="44.77284" lon="5.89873">
        <ele>970.774969</ele>
        <time>2025-07-10T08:59:38.000Z</time>
      </trkpt>
      <trkpt lat="44.7729" lon="5.89871">
        <ele>970.649376</ele>
        <time>2025-07-10T08:59:39.000Z</time>
      </trkpt>
      <trkpt lat="44.77296" lon="5.89869">
        <ele>970.525202</ele>
        <time>2025-07-10T08:59:40.000Z</time>
      </trkpt>
      <trkpt lat="44.77302" lon="5.89868">
        <ele>970.40188</ele>
        <time>2025-07-10T08:59:41.000Z</time>
      </trkpt>
      <trkpt lat="44.77308" lon="5.89867">
        <ele>970.278887</ele>
        <time>2025-07-10T08:59:42.000Z</time>
      </trkpt>
      <trkpt lat="44.77314" lon="5.89866">
        <ele>970.153899</ele>
        <time>2025-07-10T08:59:43.000Z</time>
      </trkpt>
      <trkpt lat="44.77321" lon="5.89866">
        <ele>970.029171</ele>
        <time>2025-07-10T08:59:44.000Z</time>
      </trkpt>
      <trkpt lat="44.77327" lon="5.89865">
        <ele>969.90481</ele>
        <time>2025-07-10T08:59:45.000Z</time>
      </trkpt>
      <trkpt lat="44.77333" lon="5.89866">
        <ele>969.778443</ele>
        <time>2025-07-10T08:59:46.000Z</time>
      </trkpt>
      <trkpt lat="44.77339" lon="5.89866">
        <ele>969.653984</ele>
        <time>2025-07-10T08:59:47.000Z</time>
      </trkpt>
      <trkpt lat="44.77346" lon="5.89867">
        <ele>969.5261</ele>
        <time>2025-07-10T08:59:48.000Z</time>
      </trkpt>
      <trkpt lat="44.77352" lon="5.89869">
        <ele>969.394575</ele>
        <time>2025-07-10T08:59:49.000Z</time>
      </trkpt>
      <trkpt lat="44.77358" lon="5.89871">
        <ele>969.261832</ele>
        <time>2025-07-10T08:59:50.000Z</time>
      </trkpt>
      <trkpt lat="44.77364" lon="5.89873">
        <ele>969.133075</ele>
        <time>2025-07-10T08:59:51.000Z</time>
      </trkpt>
      <trkpt lat="44.7737" lon="5.89875">
        <ele>969.008708</ele>
        <time>2025-07-10T08:59:52.000Z</time>
      </trkpt>
      <trkpt lat="44.77376" lon="5.89878">
        <ele>968.889754</ele>
        <time>2025-07-10T08:59:53.000Z</time>
      </trkpt>
      <trkpt lat="44.77381" lon="5.8988">
        <ele>968.766964</ele>
        <time>2025-07-10T08:59:54.000Z</time>
      </trkpt>
      <trkpt lat="44.77388" lon="5.89882">
        <ele>968.633934</ele>
        <time>2025-07-10T08:59:55.000Z</time>
      </trkpt>
      <trkpt lat="44.77394" lon="5.89882">
        <ele>968.500149</ele>
        <time>2025-07-10T08:59:56.000Z</time>
      </trkpt>
      <trkpt lat="44.77401" lon="5.89883">
        <ele>968.368914</ele>
        <time>2025-07-10T08:59:57.000Z</time>
      </trkpt>
      <trkpt lat="44.77407" lon="5.89882">
        <ele>968.231259</ele>
        <time>2025-07-10T08:59:58.000Z</time>
      </trkpt>
      <trkpt lat="44.77414" lon="5.8988">
        <ele>968.095142</ele>
        <time>2025-07-10T08:59:59.000Z</time>
      </trkpt>
      <trkpt lat="44.7742" lon="5.89877">
        <ele>967.959244</ele>
        <time>2025-07-10T09:00:00.000Z</time>
      </trkpt>
      <trkpt lat="44.77426" lon="5.89873">
        <ele>967.822484</ele>
        <time>2025-07-10T09:00:01.000Z</time>
      </trkpt>
      <trkpt lat="44.77432" lon="5.89868">
        <ele>967.686539</ele>
        <time>2025-07-10T09:00:02.000Z</time>
      </trkpt>
      <trkpt lat="44.77437" lon="5.89862">
        <ele>967.551489</ele>
        <time>2025-07-10T09:00:03.000Z</time>
      </trkpt>
      <trkpt lat="44.77442" lon="5.89855">
        <ele>967.407971</ele>
        <time>2025-07-10T09:00:04.000Z</time>
      </trkpt>
      <trkpt lat="44.77445" lon="5.89848">
        <ele>967.277393</ele>
        <time>2025-07-10T09:00:05.000Z</time>
      </trkpt>
      <trkpt lat="44.77449" lon="5.8984">
        <ele>967.146006</ele>
        <time>2025-07-10T09:00:06.000Z</time>
      </trkpt>
      <trkpt lat="44.77452" lon="5.89832">
        <ele>967.016134</ele>
        <time>2025-07-10T09:00:07.000Z</time>
      </trkpt>
      <trkpt lat="44.77455" lon="5.89825">
        <ele>966.885557</ele>
        <time>2025-07-10T09:00:08.000Z</time>
      </trkpt>
      <trkpt lat="44.77459" lon="5.89818">
        <ele>966.760897</ele>
        <time>2025-07-10T09:00:09.000Z</time>
      </trkpt>
      <trkpt lat="44.77461" lon="5.8981">
        <ele>966.630646</ele>
        <time>2025-07-10T09:00:10.000Z</time>
      </trkpt>
      <trkpt lat="44.77465" lon="5.89802">
        <ele>966.496332</ele>
        <time>2025-07-10T09:00:11.000Z</time>
      </trkpt>
      <trkpt lat="44.7747" lon="5.89796">
        <ele>966.362846</ele>
        <time>2025-07-10T09:00:12.000Z</time>
      </trkpt>
      <trkpt lat="44.77476" lon="5.89794">
        <ele>966.239067</ele>
        <time>2025-07-10T09:00:13.000Z</time>
      </trkpt>
      <trkpt lat="44.77482" lon="5.89795">
        <ele>966.113577</ele>
        <time>2025-07-10T09:00:14.000Z</time>
      </trkpt>
      <trkpt lat="44.77488" lon="5.89797">
        <ele>965.996346</ele>
        <time>2025-07-10T09:00:15.000Z</time>
      </trkpt>
      <trkpt lat="44.77493" lon="5.898">
        <ele>965.876921</ele>
        <time>2025-07-10T09:00:16.000Z</time>
      </trkpt>
      <trkpt lat="44.77499" lon="5.89802">
        <ele>965.719219</ele>
        <time>2025-07-10T09:00:17.000Z</time>
      </trkpt>
      <trkpt lat="44.77505" lon="5.89803">
        <ele>965.559781</ele>
        <time>2025-07-10T09:00:18.000Z</time>
      </trkpt>
      <trkpt lat="44.77512" lon="5.89802">
        <ele>965.391198</ele>
        <time>2025-07-10T09:00:19.000Z</time>
      </trkpt>
      <trkpt lat="44.77518" lon="5.898">
        <ele>965.225438</ele>
        <time>2025-07-10T09:00:20.000Z</time>
      </trkpt>
      <trkpt lat="44.77524" lon="5.89798">
        <ele>965.069963</ele>
        <time>2025-07-10T09:00:21.000Z</time>
      </trkpt>
      <trkpt lat="44.7753" lon="5.89796">
        <ele>964.903224</ele>
        <time>2025-07-10T09:00:22.000Z</time>
      </trkpt>
      <trkpt lat="44.77537" lon="5.89794">
        <ele>964.729605</ele>
        <time>2025-07-10T09:00:23.000Z</time>
      </trkpt>
      <trkpt lat="44.77544" lon="5.89792">
        <ele>964.549983</ele>
        <time>2025-07-10T09:00:24.000Z</time>
      </trkpt>
      <trkpt lat="44.77551" lon="5.89792">
        <ele>964.376166</ele>
        <time>2025-07-10T09:00:25.000Z</time>
      </trkpt>
      <trkpt lat="44.77558" lon="5.89793">
        <ele>964.198754</ele>
        <time>2025-07-10T09:00:26.000Z</time>
      </trkpt>
      <trkpt lat="44.77565" lon="5.89795">
        <ele>964.01947</ele>
        <time>2025-07-10T09:00:27.000Z</time>
      </trkpt>
      <trkpt lat="44.77571" lon="5.89798">
        <ele>963.833875</ele>
        <time>2025-07-10T09:00:28.000Z</time>
      </trkpt>
      <trkpt lat="44.77577" lon="5.89803">
        <ele>963.657963</ele>
        <time>2025-07-10T09:00:29.000Z</time>
      </trkpt>
      <trkpt lat="44.77583" lon="5.89809">
        <ele>963.485599</ele>
        <time>2025-07-10T09:00:30.000Z</time>
      </trkpt>
      <trkpt lat="44.77589" lon="5.89814">
        <ele>963.301248</ele>
        <time>2025-07-10T09:00:31.000Z</time>
      </trkpt>
      <trkpt lat="44.77595" lon="5.89819">
        <ele>963.126835</ele>
        <time>2025-07-10T09:00:32.000Z</time>
      </trkpt>
      <trkpt lat="44.77599" lon="5.89826">
        <ele>962.960453</ele>
        <time>2025-07-10T09:00:33.000Z</time>
      </trkpt>
      <trkpt lat="44.77604" lon="5.89833">
        <ele>962.785707</ele>
        <time>2025-07-10T09:00:34.000Z</time>
      </trkpt>
      <trkpt lat="44.77609" lon="5.8984">
        <ele>962.604325</ele>
        <time>2025-07-10T09:00:35.000Z</time>
      </trkpt>
      <trkpt lat="44.77614" lon="5.89847">
        <ele>962.419832</ele>
        <time>2025-07-10T09:00:36.000Z</time>
      </trkpt>
      <trkpt lat="44.77618" lon="5.89855">
        <ele>962.240822</ele>
        <time>2025-07-10T09:00:37.000Z</time>
      </trkpt>
      <trkpt lat="44.7762" lon="5.89864">
        <ele>962.074165</ele>
        <time>2025-07-10T09:00:38.000Z</time>
      </trkpt>
      <trkpt lat="44.77621" lon="5.89873">
        <ele>961.918659</ele>
        <time>2025-07-10T09:00:39.000Z</time>
      </trkpt>
      <trkpt lat="44.77618" lon="5.8988">
        <ele>961.762377</ele>
        <time>2025-07-10T09:00:40.000Z</time>
      </trkpt>
      <trkpt lat="44.77614" lon="5.89888">
        <ele>961.594974</ele>
        <time>2025-07-10T09:00:41.000Z</time>
      </trkpt>
      <trkpt lat="44.77608" lon="5.89893">
        <ele>961.409062</ele>
        <time>2025-07-10T09:00:42.000Z</time>
      </trkpt>
      <trkpt lat="44.77602" lon="5.89898">
        <ele>961.240371</ele>
        <time>2025-07-10T09:00:43.000Z</time>
      </trkpt>
      <trkpt lat="44.77595" lon="5.89902">
        <ele>961.113089</ele>
        <time>2025-07-10T09:00:44.000Z</time>
      </trkpt>
      <trkpt lat="44.77588" lon="5.89903">
        <ele>960.992668</ele>
        <time>2025-07-10T09:00:45.000Z</time>
      </trkpt>
      <trkpt lat="44.77581" lon="5.89904">
        <ele>960.87671</ele>
        <time>2025-07-10T09:00:46.000Z</time>
      </trkpt>
      <trkpt lat="44.77575" lon="5.89903">
        <ele>960.762303</ele>
        <time>2025-07-10T09:00:47.000Z</time>
      </trkpt>
      <trkpt lat="44.77568" lon="5.89902">
        <ele>960.651349</ele>
        <time>2025-07-10T09:00:48.000Z</time>
      </trkpt>
      <trkpt lat="44.77562" lon="5.89903">
        <ele>960.544036</ele>
        <time>2025-07-10T09:00:49.000Z</time>
      </trkpt>
      <trkpt lat="44.77555" lon="5.89904">
        <ele>960.428188</ele>
        <time>2025-07-10T09:00:50.000Z</time>
      </trkpt>
      <trkpt lat="44.7755" lon="5.89907">
        <ele>960.323619</ele>
        <time>2025-07-10T09:00:51.000Z</time>
      </trkpt>
      <trkpt lat="44.77544" lon="5.89911">
        <ele>960.219315</ele>
        <time>2025-07-10T09:00:52.000Z</time>
      </trkpt>
      <trkpt lat="44.77541" lon="5.89917">
        <ele>960.117005</ele>
        <time>2025-07-10T09:00:53.000Z</time>
      </trkpt>
      <trkpt lat="44.77537" lon="5.89925">
        <ele>960.009848</ele>
        <time>2025-07-10T09:00:54.000Z</time>
      </trkpt>
      <trkpt lat="44.77535" lon="5.89933">
        <ele>959.902513</ele>
        <time>2025-07-10T09:00:55.000Z</time>
      </trkpt>
      <trkpt lat="44.77532" lon="5.89941">
        <ele>959.788141</ele>
        <time>2025-07-10T09:00:56.000Z</time>
      </trkpt>
      <trkpt lat="44.77529" lon="5.89949">
        <ele>959.67581</ele>
        <time>2025-07-10T09:00:57.000Z</time>
      </trkpt>
      <trkpt lat="44.77527" lon="5.89958">
        <ele>959.565529</ele>
        <time>2025-07-10T09:00:58.000Z</time>
      </trkpt>
      <trkpt lat="44.77524" lon="5.89966">
        <ele>959.453032</ele>
        <time>2025-07-10T09:00:59.000Z</time>
      </trkpt>
      <trkpt lat="44.7752" lon="5.89974">
        <ele>959.339719</ele>
        <time>2025-07-10T09:01:00.000Z</time>
      </trkpt>
      <trkpt lat="44.77516" lon="5.89981">
        <ele>959.225115</ele>
        <time>2025-07-10T09:01:01.000Z</time>
      </trkpt>
      <trkpt lat="44.77512" lon="5.89988">
        <ele>959.112367</ele>
        <time>2025-07-10T09:01:02.000Z</time>
      </trkpt>
      <trkpt lat="44.77507" lon="5.89994">
        <ele>959.001184</ele>
        <time>2025-07-10T09:01:03.000Z</time>
      </trkpt>
      <trkpt lat="44.77503" lon="5.90001">
        <ele>958.890568</ele>
        <time>2025-07-10T09:01:04.000Z</time>
      </trkpt>
      <trkpt lat="44.77499" lon="5.90007">
        <ele>958.784707</ele>
        <time>2025-07-10T09:01:05.000Z</time>
      </trkpt>
      <trkpt lat="44.77495" lon="5.90014">
        <ele>958.681306</ele>
        <time>2025-07-10T09:01:06.000Z</time>
      </trkpt>
      <trkpt lat="44.77492" lon="5.90021">
        <ele>958.580718</ele>
        <time>2025-07-10T09:01:07.000Z</time>
      </trkpt>
      <trkpt lat="44.7749" lon="5.90028">
        <ele>958.485132</ele>
        <time>2025-07-10T09:01:08.000Z</time>
      </trkpt>
      <trkpt lat="44.77488" lon="5.90035">
        <ele>958.391332</ele>
        <time>2025-07-10T09:01:09.000Z</time>
      </trkpt>
      <trkpt lat="44.77486" lon="5.90042">
        <ele>958.30027</ele>
        <time>2025-07-10T09:01:10.000Z</time>
      </trkpt>
      <trkpt lat="44.77484" lon="5.90049">
        <ele>958.209208</ele>
        <time>2025-07-10T09:01:11.000Z</time>
      </trkpt>
      <trkpt lat="44.77482" lon="5.90055">
        <ele>958.17109</ele>
        <time>2025-07-10T09:01:12.000Z</time>
      </trkpt>
      <trkpt lat="44.7748" lon="5.90061">
        <ele>958.182141</ele>
        <time>2025-07-10T09:01:13.000Z</time>
      </trkpt>
      <trkpt lat="44.77478" lon="5.90068">
        <ele>958.192669</ele>
        <time>2025-07-10T09:01:14.000Z</time>
      </trkpt>
      <trkpt lat="44.77477" lon="5.90074">
        <ele>958.202673</ele>
        <time>2025-07-10T09:01:15.000Z</time>
      </trkpt>
      <trkpt lat="44.77475" lon="5.9008">
        <ele>958.212805</ele>
        <time>2025-07-10T09:01:16.000Z</time>
      </trkpt>
      <trkpt lat="44.77474" lon="5.90085">
        <ele>958.222492</ele>
        <time>2025-07-10T09:01:17.000Z</time>
      </trkpt>
      <trkpt lat="44.77472" lon="5.90091">
        <ele>958.232496</ele>
        <time>2025-07-10T09:01:18.000Z</time>
      </trkpt>
      <trkpt lat="44.7747" lon="5.90097">
        <ele>958.24233</ele>
        <time>2025-07-10T09:01:19.000Z</time>
      </trkpt>
      <trkpt lat="44.77469" lon="5.90103">
        <ele>958.25243</ele>
        <time>2025-07-10T09:01:20.000Z</time>
      </trkpt>
      <trkpt lat="44.77468" lon="5.9011">
        <ele>958.263014</ele>
        <time>2025-07-10T09:01:21.000Z</time>
      </trkpt>
      <trkpt lat="44.77466" lon="5.90116">
        <ele>958.273782</ele>
        <time>2025-07-10T09:01:22.000Z</time>
      </trkpt>
      <trkpt lat="44.77466" lon="5.90122">
        <ele>958.282856</ele>
        <time>2025-07-10T09:01:23.000Z</time>
      </trkpt>
      <trkpt lat="44.77465" lon="5.90126">
        <ele>958.290291</ele>
        <time>2025-07-10T09:01:24.000Z</time>
      </trkpt>
      <trkpt lat="44.77464" lon="5.9013">
        <ele>958.295894</ele>
        <time>2025-07-10T09:01:25.000Z</time>
      </trkpt>
      <trkpt lat="44.77464" lon="5.90132">
        <ele>958.29925</ele>
        <time>2025-07-10T09:01:26.000Z</time>
      </trkpt>
      <trkpt lat="44.77462" lon="5.90138">
        <ele>958.310137</ele>
        <time>2025-07-10T09:03:41.000Z</time>
      </trkpt>
      <trkpt lat="44.77462" lon="5.90141">
        <ele>958.315116</ele>
        <time>2025-07-10T09:03:42.000Z</time>
      </trkpt>
      <trkpt lat="44.77462" lon="5.90145">
        <ele>958.320531</ele>
        <time>2025-07-10T09:03:43.000Z</time>
      </trkpt>
      <trkpt lat="44.77461" lon="5.90149">
        <ele>958.327042</ele>
        <time>2025-07-10T09:03:44.000Z</time>
      </trkpt>
      <trkpt lat="44.7746" lon="5.90153">
        <ele>958.333914</ele>
        <time>2025-07-10T09:03:45.000Z</time>
      </trkpt>
      <trkpt lat="44.77459" lon="5.90158">
        <ele>958.341814</ele>
        <time>2025-07-10T09:03:46.000Z</time>
      </trkpt>
      <trkpt lat="44.77459" lon="5.90163">
        <ele>958.34976</ele>
        <time>2025-07-10T09:03:47.000Z</time>
      </trkpt>
      <trkpt lat="44.77458" lon="5.90167">
        <ele>958.357115</ele>
        <time>2025-07-10T09:03:48.000Z</time>
      </trkpt>
      <trkpt lat="44.77457" lon="5.90172">
        <ele>958.365324</ele>
        <time>2025-07-10T09:03:49.000Z</time>
      </trkpt>
      <trkpt lat="44.77456" lon="5.90178">
        <ele>958.373888</ele>
        <time>2025-07-10T09:03:50.000Z</time>
      </trkpt>
      <trkpt lat="44.77456" lon="5.90183">
        <ele>958.382563</ele>
        <time>2025-07-10T09:03:51.000Z</time>
      </trkpt>
      <trkpt lat="44.77455" lon="5.90188">
        <ele>958.390715</ele>
        <time>2025-07-10T09:03:52.000Z</time>
      </trkpt>
      <trkpt lat="44.77454" lon="5.90193">
        <ele>958.399077</ele>
        <time>2025-07-10T09:03:53.000Z</time>
      </trkpt>
      <trkpt lat="44.77453" lon="5.90198">
        <ele>958.407135</ele>
        <time>2025-07-10T09:03:54.000Z</time>
      </trkpt>
      <trkpt lat="44.77452" lon="5.90203">
        <ele>958.41571</ele>
        <time>2025-07-10T09:03:55.000Z</time>
      </trkpt>
      <trkpt lat="44.7745" lon="5.90208">
        <ele>958.423753</ele>
        <time>2025-07-10T09:03:56.000Z</time>
      </trkpt>
      <trkpt lat="44.77449" lon="5.90213">
        <ele>958.432332</ele>
        <time>2025-07-10T09:03:57.000Z</time>
      </trkpt>
      <trkpt lat="44.77447" lon="5.90218">
        <ele>958.441</ele>
        <time>2025-07-10T09:03:58.000Z</time>
      </trkpt>
      <trkpt lat="44.77446" lon="5.90223">
        <ele>958.449579</ele>
        <time>2025-07-10T09:03:59.000Z</time>
      </trkpt>
      <trkpt lat="44.77444" lon="5.90228">
        <ele>958.458542</ele>
        <time>2025-07-10T09:04:00.000Z</time>
      </trkpt>
      <trkpt lat="44.77442" lon="5.90233">
        <ele>958.467588</ele>
        <time>2025-07-10T09:04:01.000Z</time>
      </trkpt>
      <trkpt lat="44.7744" lon="5.90238">
        <ele>958.476167</ele>
        <time>2025-07-10T09:04:02.000Z</time>
      </trkpt>
      <trkpt lat="44.77438" lon="5.90243">
        <ele>958.485078</ele>
        <time>2025-07-10T09:04:03.000Z</time>
      </trkpt>
      <trkpt lat="44.77436" lon="5.90247">
        <ele>958.493335</ele>
        <time>2025-07-10T09:04:04.000Z</time>
      </trkpt>
      <trkpt lat="44.77434" lon="5.90252">
        <ele>958.50148</ele>
        <time>2025-07-10T09:04:05.000Z</time>
      </trkpt>
      <trkpt lat="44.77433" lon="5.90256">
        <ele>958.509083</ele>
        <time>2025-07-10T09:04:06.000Z</time>
      </trkpt>
      <trkpt lat="44.77432" lon="5.90261">
        <ele>958.517125</ele>
        <time>2025-07-10T09:04:07.000Z</time>
      </trkpt>
      <trkpt lat="44.77431" lon="5.90266">
        <ele>958.525467</ele>
        <time>2025-07-10T09:04:08.000Z</time>
      </trkpt>
      <trkpt lat="44.7743" lon="5.90271">
        <ele>958.53374</ele>
        <time>2025-07-10T09:04:09.000Z</time>
      </trkpt>
      <trkpt lat="44.77429" lon="5.90277">
        <ele>958.542771</ele>
        <time>2025-07-10T09:04:10.000Z</time>
      </trkpt>
      <trkpt lat="44.77428" lon="5.90282">
        <ele>958.551954</ele>
        <time>2025-07-10T09:04:11.000Z</time>
      </trkpt>
      <trkpt lat="44.77427" lon="5.90288">
        <ele>958.560984</ele>
        <time>2025-07-10T09:04:12.000Z</time>
      </trkpt>
      <trkpt lat="44.77426" lon="5.90293">
        <ele>958.546874</ele>
        <time>2025-07-10T09:04:13.000Z</time>
      </trkpt>
      <trkpt lat="44.77425" lon="5.90299">
        <ele>958.505666</ele>
        <time>2025-07-10T09:04:14.000Z</time>
      </trkpt>
      <trkpt lat="44.77424" lon="5.90304">
        <ele>958.463433</ele>
        <time>2025-07-10T09:04:15.000Z</time>
      </trkpt>
      <trkpt lat="44.77422" lon="5.9031">
        <ele>958.421413</ele>
        <time>2025-07-10T09:04:16.000Z</time>
      </trkpt>
      <trkpt lat="44.7742" lon="5.90315">
        <ele>958.376863</ele>
        <time>2025-07-10T09:04:17.000Z</time>
      </trkpt>
      <trkpt lat="44.77418" lon="5.9032">
        <ele>958.334302</ele>
        <time>2025-07-10T09:04:18.000Z</time>
      </trkpt>
      <trkpt lat="44.77417" lon="5.90326">
        <ele>958.29277</ele>
        <time>2025-07-10T09:04:19.000Z</time>
      </trkpt>
      <trkpt lat="44.77415" lon="5.90331">
        <ele>958.250083</ele>
        <time>2025-07-10T09:04:20.000Z</time>
      </trkpt>
      <trkpt lat="44.77414" lon="5.90336">
        <ele>958.206959</ele>
        <time>2025-07-10T09:04:21.000Z</time>
      </trkpt>
      <trkpt lat="44.77412" lon="5.90341">
        <ele>958.164194</ele>
        <time>2025-07-10T09:04:22.000Z</time>
      </trkpt>
      <trkpt lat="44.77409" lon="5.90346">
        <ele>958.121078</ele>
        <time>2025-07-10T09:04:23.000Z</time>
      </trkpt>
      <trkpt lat="44.77407" lon="5.90351">
        <ele>958.078572</ele>
        <time>2025-07-10T09:04:24.000Z</time>
      </trkpt>
      <trkpt lat="44.77405" lon="5.90356">
        <ele>958.03593</ele>
        <time>2025-07-10T09:04:25.000Z</time>
      </trkpt>
      <trkpt lat="44.77403" lon="5.90361">
        <ele>957.993004</ele>
        <time>2025-07-10T09:04:26.000Z</time>
      </trkpt>
      <trkpt lat="44.77401" lon="5.90366">
        <ele>957.9512</ele>
        <time>2025-07-10T09:04:27.000Z</time>
      </trkpt>
      <trkpt lat="44.774" lon="5.90371">
        <ele>957.911169</ele>
        <time>2025-07-10T09:04:28.000Z</time>
      </trkpt>
      <trkpt lat="44.77397" lon="5.90376">
        <ele>957.867258</ele>
        <time>2025-07-10T09:04:29.000Z</time>
      </trkpt>
      <trkpt lat="44.77395" lon="5.90381">
        <ele>957.827038</ele>
        <time>2025-07-10T09:04:30.000Z</time>
      </trkpt>
      <trkpt lat="44.77394" lon="5.90385">
        <ele>957.793183</ele>
        <time>2025-07-10T09:04:31.000Z</time>
      </trkpt>
      <trkpt lat="44.77393" lon="5.90388">
        <ele>957.76662</ele>
        <time>2025-07-10T09:04:32.000Z</time>
      </trkpt>
      <trkpt lat="44.77391" lon="5.9039">
        <ele>957.747509</ele>
        <time>2025-07-10T09:04:33.000Z</time>
      </trkpt>
      <trkpt lat="44.7739" lon="5.9039">
        <ele>957.736112</ele>
        <time>2025-07-10T09:04:34.000Z</time>
      </trkpt>
      <trkpt lat="44.7739" lon="5.9039">
        <ele>957.729909</ele>
        <time>2025-07-10T09:04:35.000Z</time>
      </trkpt>
      <trkpt lat="44.77387" lon="5.90393">
        <ele>957.694367</ele>
        <time>2025-07-10T09:05:37.000Z</time>
      </trkpt>
      <trkpt lat="44.77387" lon="5.90395">
        <ele>957.677338</ele>
        <time>2025-07-10T09:05:38.000Z</time>
      </trkpt>
      <trkpt lat="44.77388" lon="5.90398">
        <ele>957.652191</ele>
        <time>2025-07-10T09:05:39.000Z</time>
      </trkpt>
      <trkpt lat="44.77388" lon="5.90401">
        <ele>957.630147</ele>
        <time>2025-07-10T09:05:40.000Z</time>
      </trkpt>
      <trkpt lat="44.77388" lon="5.90405">
        <ele>957.603542</ele>
        <time>2025-07-10T09:05:41.000Z</time>
      </trkpt>
      <trkpt lat="44.77389" lon="5.90408">
        <ele>957.578057</ele>
        <time>2025-07-10T09:05:42.000Z</time>
      </trkpt>
      <trkpt lat="44.77389" lon="5.90412">
        <ele>957.548407</ele>
        <time>2025-07-10T09:05:43.000Z</time>
      </trkpt>
      <trkpt lat="44.7739" lon="5.90416">
        <ele>957.517456</ele>
        <time>2025-07-10T09:05:44.000Z</time>
      </trkpt>
      <trkpt lat="44.77391" lon="5.90421">
        <ele>957.485538</ele>
        <time>2025-07-10T09:05:45.000Z</time>
      </trkpt>
      <trkpt lat="44.77391" lon="5.90425">
        <ele>957.449808</ele>
        <time>2025-07-10T09:05:46.000Z</time>
      </trkpt>
      <trkpt lat="44.77393" lon="5.9043">
        <ele>957.412087</ele>
        <time>2025-07-10T09:05:47.000Z</time>
      </trkpt>
      <trkpt lat="44.77394" lon="5.90435">
        <ele>957.373347</ele>
        <time>2025-07-10T09:05:48.000Z</time>
      </trkpt>
      <trkpt lat="44.77395" lon="5.9044">
        <ele>957.335639</ele>
        <time>2025-07-10T09:05:49.000Z</time>
      </trkpt>
      <trkpt lat="44.77396" lon="5.90445">
        <ele>957.295506</ele>
        <time>2025-07-10T09:05:50.000Z</time>
      </trkpt>
      <trkpt lat="44.77397" lon="5.90451">
        <ele>957.253974</ele>
        <time>2025-07-10T09:05:51.000Z</time>
      </trkpt>
      <trkpt lat="44.77399" lon="5.90456">
        <ele>957.214807</ele>
        <time>2025-07-10T09:05:52.000Z</time>
      </trkpt>
      <trkpt lat="44.774" lon="5.90461">
        <ele>957.174966</ele>
        <time>2025-07-10T09:05:53.000Z</time>
      </trkpt>
      <trkpt lat="44.77402" lon="5.90465">
        <ele>957.134628</ele>
        <time>2025-07-10T09:05:54.000Z</time>
      </trkpt>
      <trkpt lat="44.77404" lon="5.90471">
        <ele>957.092608</ele>
        <time>2025-07-10T09:05:55.000Z</time>
      </trkpt>
      <trkpt lat="44.77406" lon="5.90476">
        <ele>957.05141</ele>
        <time>2025-07-10T09:05:56.000Z</time>
      </trkpt>
      <trkpt lat="44.77407" lon="5.90481">
        <ele>957.009469</ele>
        <time>2025-07-10T09:05:57.000Z</time>
      </trkpt>
      <trkpt lat="44.77408" lon="5.90487">
        <ele>956.967236</ele>
        <time>2025-07-10T09:05:58.000Z</time>
      </trkpt>
      <trkpt lat="44.77409" lon="5.90492">
        <ele>956.924589</ele>
        <time>2025-07-10T09:05:59.000Z</time>
      </trkpt>
      <trkpt lat="44.7741" lon="5.90498">
        <ele>956.881941</ele>
        <time>2025-07-10T09:06:00.000Z</time>
      </trkpt>
      <trkpt lat="44.77411" lon="5.90504">
        <ele>956.839007</ele>
        <time>2025-07-10T09:06:01.000Z</time>
      </trkpt>
      <trkpt lat="44.77413" lon="5.90509">
        <ele>956.796121</ele>
        <time>2025-07-10T09:06:02.000Z</time>
      </trkpt>
      <trkpt lat="44.77414" lon="5.90515">
        <ele>956.751478</ele>
        <time>2025-07-10T09:06:03.000Z</time>
      </trkpt>
      <trkpt lat="44.77415" lon="5.9052">
        <ele>956.708233</ele>
        <time>2025-07-10T09:06:04.000Z</time>
      </trkpt>
      <trkpt lat="44.77416" lon="5.90526">
        <ele>956.669808</ele>
        <time>2025-07-10T09:06:05.000Z</time>
      </trkpt>
      <trkpt lat="44.77417" lon="5.90532">
        <ele>956.632105</ele>
        <time>2025-07-10T09:06:06.000Z</time>
      </trkpt>
      <trkpt lat="44.77418" lon="5.90537">
        <ele>956.595646</ele>
        <time>2025-07-10T09:06:07.000Z</time>
      </trkpt>
      <trkpt lat="44.77419" lon="5.90543">
        <ele>956.559402</ele>
        <time>2025-07-10T09:06:08.000Z</time>
      </trkpt>
      <trkpt lat="44.7742" lon="5.90548">
        <ele>956.524607</ele>
        <time>2025-07-10T09:06:09.000Z</time>
      </trkpt>
      <trkpt lat="44.77421" lon="5.90554">
        <ele>956.488725</ele>
        <time>2025-07-10T09:06:10.000Z</time>
      </trkpt>
      <trkpt lat="44.77422" lon="5.90559">
        <ele>956.452481</ele>
        <time>2025-07-10T09:06:11.000Z</time>
      </trkpt>
      <trkpt lat="44.77423" lon="5.90564">
        <ele>956.417265</ele>
        <time>2025-07-10T09:06:12.000Z</time>
      </trkpt>
      <trkpt lat="44.77424" lon="5.9057">
        <ele>956.382895</ele>
        <time>2025-07-10T09:06:13.000Z</time>
      </trkpt>
      <trkpt lat="44.77425" lon="5.90575">
        <ele>956.347172</ele>
        <time>2025-07-10T09:06:14.000Z</time>
      </trkpt>
      <trkpt lat="44.77426" lon="5.9058">
        <ele>956.309936</ele>
        <time>2025-07-10T09:06:15.000Z</time>
      </trkpt>
      <trkpt lat="44.77428" lon="5.90586">
        <ele>956.2736</ele>
        <time>2025-07-10T09:06:16.000Z</time>
      </trkpt>
      <trkpt lat="44.77428" lon="5.90591">
        <ele>956.237548</ele>
        <time>2025-07-10T09:06:17.000Z</time>
      </trkpt>
      <trkpt lat="44.77429" lon="5.90597">
        <ele>956.203084</ele>
        <time>2025-07-10T09:06:18.000Z</time>
      </trkpt>
      <trkpt lat="44.7743" lon="5.90602">
        <ele>956.16862</ele>
        <time>2025-07-10T09:06:19.000Z</time>
      </trkpt>
      <trkpt lat="44.7743" lon="5.90607">
        <ele>956.132107</ele>
        <time>2025-07-10T09:06:20.000Z</time>
      </trkpt>
      <trkpt lat="44.77431" lon="5.90613">
        <ele>956.095326</ele>
        <time>2025-07-10T09:06:21.000Z</time>
      </trkpt>
      <trkpt lat="44.77431" lon="5.90619">
        <ele>956.05542</ele>
        <time>2025-07-10T09:06:22.000Z</time>
      </trkpt>
      <trkpt lat="44.77431" lon="5.90625">
        <ele>956.016249</ele>
        <time>2025-07-10T09:06:23.000Z</time>
      </trkpt>
      <trkpt lat="44.77431" lon="5.90631">
        <ele>955.979004</ele>
        <time>2025-07-10T09:06:24.000Z</time>
      </trkpt>
      <trkpt lat="44.77431" lon="5.90637">
        <ele>955.941117</ele>
        <time>2025-07-10T09:06:25.000Z</time>
      </trkpt>
      <trkpt lat="44.77431" lon="5.90643">
        <ele>955.901263</ele>
        <time>2025-07-10T09:06:26.000Z</time>
      </trkpt>
      <trkpt lat="44.77431" lon="5.9065">
        <ele>955.860797</ele>
        <time>2025-07-10T09:06:27.000Z</time>
      </trkpt>
      <trkpt lat="44.77431" lon="5.90656">
        <ele>955.81961</ele>
        <time>2025-07-10T09:06:28.000Z</time>
      </trkpt>
      <trkpt lat="44.77432" lon="5.90663">
        <ele>955.775348</ele>
        <time>2025-07-10T09:06:29.000Z</time>
      </trkpt>
      <trkpt lat="44.77433" lon="5.90669">
        <ele>955.732439</ele>
        <time>2025-07-10T09:06:30.000Z</time>
      </trkpt>
      <trkpt lat="44.77434" lon="5.90675">
        <ele>955.69068</ele>
        <time>2025-07-10T09:06:31.000Z</time>
      </trkpt>
      <trkpt lat="44.77437" lon="5.90682">
        <ele>955.646743</ele>
        <time>2025-07-10T09:06:32.000Z</time>
      </trkpt>
      <trkpt lat="44.7744" lon="5.90687">
        <ele>955.602203</ele>
        <time>2025-07-10T09:06:33.000Z</time>
      </trkpt>
      <trkpt lat="44.77443" lon="5.90692">
        <ele>955.558016</ele>
        <time>2025-07-10T09:06:34.000Z</time>
      </trkpt>
      <trkpt lat="44.77447" lon="5.90695">
        <ele>955.515756</ele>
        <time>2025-07-10T09:06:35.000Z</time>
      </trkpt>
      <trkpt lat="44.77451" lon="5.90698">
        <ele>955.47415</ele>
        <time>2025-07-10T09:06:36.000Z</time>
      </trkpt>
      <trkpt lat="44.77456" lon="5.90699">
        <ele>955.431579</ele>
        <time>2025-07-10T09:06:37.000Z</time>
      </trkpt>
      <trkpt lat="44.77461" lon="5.90699">
        <ele>955.389889</ele>
        <time>2025-07-10T09:06:38.000Z</time>
      </trkpt>
      <trkpt lat="44.77465" lon="5.90699">
        <ele>955.347296</ele>
        <time>2025-07-10T09:06:39.000Z</time>
      </trkpt>
      <trkpt lat="44.7747" lon="5.90698">
        <ele>955.304088</ele>
        <time>2025-07-10T09:06:40.000Z</time>
      </trkpt>
      <trkpt lat="44.77475" lon="5.90696">
        <ele>955.258428</ele>
        <time>2025-07-10T09:06:41.000Z</time>
      </trkpt>
      <trkpt lat="44.77479" lon="5.90693">
        <ele>955.213393</ele>
        <time>2025-07-10T09:06:42.000Z</time>
      </trkpt>
      <trkpt lat="44.77484" lon="5.90689">
        <ele>955.169099</ele>
        <time>2025-07-10T09:06:43.000Z</time>
      </trkpt>
      <trkpt lat="44.77488" lon="5.90686">
        <ele>955.125404</ele>
        <time>2025-07-10T09:06:44.000Z</time>
      </trkpt>
      <trkpt lat="44.77493" lon="5.90684">
        <ele>955.081345</ele>
        <time>2025-07-10T09:06:45.000Z</time>
      </trkpt>
      <trkpt lat="44.77497" lon="5.90684">
        <ele>955.020273</ele>
        <time>2025-07-10T09:06:46.000Z</time>
      </trkpt>
      <trkpt lat="44.77503" lon="5.90684">
        <ele>954.953404</ele>
        <time>2025-07-10T09:06:47.000Z</time>
      </trkpt>
      <trkpt lat="44.77508" lon="5.90686">
        <ele>954.888268</ele>
        <time>2025-07-10T09:06:48.000Z</time>
      </trkpt>
      <trkpt lat="44.77512" lon="5.90688">
        <ele>954.824792</ele>
        <time>2025-07-10T09:06:49.000Z</time>
      </trkpt>
      <trkpt lat="44.77517" lon="5.90691">
        <ele>954.757116</ele>
        <time>2025-07-10T09:06:50.000Z</time>
      </trkpt>
      <trkpt lat="44.77522" lon="5.90694">
        <ele>954.690983</ele>
        <time>2025-07-10T09:06:51.000Z</time>
      </trkpt>
      <trkpt lat="44.77527" lon="5.90697">
        <ele>954.624398</ele>
        <time>2025-07-10T09:06:52.000Z</time>
      </trkpt>
      <trkpt lat="44.77531" lon="5.90699">
        <ele>954.559418</ele>
        <time>2025-07-10T09:06:53.000Z</time>
      </trkpt>
      <trkpt lat="44.77536" lon="5.90701">
        <ele>954.493276</ele>
        <time>2025-07-10T09:06:54.000Z</time>
      </trkpt>
      <trkpt lat="44.77541" lon="5.90703">
        <ele>954.426107</ele>
        <time>2025-07-10T09:06:55.000Z</time>
      </trkpt>
      <trkpt lat="44.77547" lon="5.90704">
        <ele>954.359513</ele>
        <time>2025-07-10T09:06:56.000Z</time>
      </trkpt>
      <trkpt lat="44.77552" lon="5.90706">
        <ele>954.294507</ele>
        <time>2025-07-10T09:06:57.000Z</time>
      </trkpt>
      <trkpt lat="44.77557" lon="5.90707">
        <ele>954.225847</ele>
        <time>2025-07-10T09:06:58.000Z</time>
      </trkpt>
      <trkpt lat="44.77562" lon="5.90707">
        <ele>954.157767</ele>
        <time>2025-07-10T09:06:59.000Z</time>
      </trkpt>
      <trkpt lat="44.77568" lon="5.90708">
        <ele>954.08657</ele>
        <time>2025-07-10T09:07:00.000Z</time>
      </trkpt>
      <trkpt lat="44.77573" lon="5.90709">
        <ele>954.015495</ele>
        <time>2025-07-10T09:07:01.000Z</time>
      </trkpt>
      <trkpt lat="44.77579" lon="5.9071">
        <ele>953.944793</ele>
        <time>2025-07-10T09:07:02.000Z</time>
      </trkpt>
      <trkpt lat="44.77584" lon="5.90711">
        <ele>953.872326</ele>
        <time>2025-07-10T09:07:03.000Z</time>
      </trkpt>
      <trkpt lat="44.7759" lon="5.90712">
        <ele>953.799728</ele>
        <time>2025-07-10T09:07:04.000Z</time>
      </trkpt>
      <trkpt lat="44.77596" lon="5.90713">
        <ele>953.725863</ele>
        <time>2025-07-10T09:07:05.000Z</time>
      </trkpt>
      <trkpt lat="44.77601" lon="5.90714">
        <ele>953.653723</ele>
        <time>2025-07-10T09:07:06.000Z</time>
      </trkpt>
      <trkpt lat="44.77607" lon="5.90715">
        <ele>953.581807</ele>
        <time>2025-07-10T09:07:07.000Z</time>
      </trkpt>
      <trkpt lat="44.77612" lon="5.90716">
        <ele>953.509569</ele>
        <time>2025-07-10T09:07:08.000Z</time>
      </trkpt>
      <trkpt lat="44.77618" lon="5.90716">
        <ele>953.437331</ele>
        <time>2025-07-10T09:07:09.000Z</time>
      </trkpt>
      <trkpt lat="44.77624" lon="5.90717">
        <ele>953.365191</ele>
        <time>2025-07-10T09:07:10.000Z</time>
      </trkpt>
      <trkpt lat="44.77629" lon="5.90718">
        <ele>953.291572</ele>
        <time>2025-07-10T09:07:11.000Z</time>
      </trkpt>
      <trkpt lat="44.77635" lon="5.90719">
        <ele>953.219106</ele>
        <time>2025-07-10T09:07:12.000Z</time>
      </trkpt>
      <trkpt lat="44.77641" lon="5.9072">
        <ele>953.144099</ele>
        <time>2025-07-10T09:07:13.000Z</time>
      </trkpt>
      <trkpt lat="44.77646" lon="5.90721">
        <ele>953.069209</ele>
        <time>2025-07-10T09:07:14.000Z</time>
      </trkpt>
      <trkpt lat="44.77652" lon="5.90722">
        <ele>952.99315</ele>
        <time>2025-07-10T09:07:15.000Z</time>
      </trkpt>
      <trkpt lat="44.77658" lon="5.90724">
        <ele>952.91548</ele>
        <time>2025-07-10T09:07:16.000Z</time>
      </trkpt>
      <trkpt lat="44.77664" lon="5.90725">
        <ele>952.838943</ele>
        <time>2025-07-10T09:07:17.000Z</time>
      </trkpt>
      <trkpt lat="44.7767" lon="5.90726">
        <ele>952.766462</ele>
        <time>2025-07-10T09:07:18.000Z</time>
      </trkpt>
      <trkpt lat="44.77676" lon="5.90727">
        <ele>952.709295</ele>
        <time>2025-07-10T09:07:19.000Z</time>
      </trkpt>
      <trkpt lat="44.77682" lon="5.90728">
        <ele>952.651175</ele>
        <time>2025-07-10T09:07:20.000Z</time>
      </trkpt>
      <trkpt lat="44.77688" lon="5.90729">
        <ele>952.595046</ele>
        <time>2025-07-10T09:07:21.000Z</time>
      </trkpt>
      <trkpt lat="44.77694" lon="5.9073">
        <ele>952.538997</ele>
        <time>2025-07-10T09:07:22.000Z</time>
      </trkpt>
      <trkpt lat="44.77699" lon="5.90731">
        <ele>952.482686</ele>
        <time>2025-07-10T09:07:23.000Z</time>
      </trkpt>
      <trkpt lat="44.77705" lon="5.90733">
        <ele>952.426273</ele>
        <time>2025-07-10T09:07:24.000Z</time>
      </trkpt>
      <trkpt lat="44.77711" lon="5.90734">
        <ele>952.368153</ele>
        <time>2025-07-10T09:07:25.000Z</time>
      </trkpt>
      <trkpt lat="44.77717" lon="5.90735">
        <ele>952.310985</ele>
        <time>2025-07-10T09:07:26.000Z</time>
      </trkpt>
      <trkpt lat="44.77723" lon="5.90736">
        <ele>952.251995</ele>
        <time>2025-07-10T09:07:27.000Z</time>
      </trkpt>
      <trkpt lat="44.77729" lon="5.90737">
        <ele>952.193959</ele>
        <time>2025-07-10T09:07:28.000Z</time>
      </trkpt>
      <trkpt lat="44.77735" lon="5.90738">
        <ele>952.137744</ele>
        <time>2025-07-10T09:07:29.000Z</time>
      </trkpt>
      <trkpt lat="44.77741" lon="5.90739">
        <ele>952.080483</ele>
        <time>2025-07-10T09:07:30.000Z</time>
      </trkpt>
      <trkpt lat="44.77747" lon="5.9074">
        <ele>952.023222</ele>
        <time>2025-07-10T09:07:31.000Z</time>
      </trkpt>
      <trkpt lat="44.77753" lon="5.90741">
        <ele>951.96614</ele>
        <time>2025-07-10T09:07:32.000Z</time>
      </trkpt>
      <trkpt lat="44.77759" lon="5.90742">
        <ele>951.909058</ele>
        <time>2025-07-10T09:07:33.000Z</time>
      </trkpt>
      <trkpt lat="44.77764" lon="5.90743">
        <ele>951.852842</ele>
        <time>2025-07-10T09:07:34.000Z</time>
      </trkpt>
      <trkpt lat="44.7777" lon="5.90745">
        <ele>951.796532</ele>
        <time>2025-07-10T09:07:35.000Z</time>
      </trkpt>
      <trkpt lat="44.77776" lon="5.90745">
        <ele>951.740482</ele>
        <time>2025-07-10T09:07:36.000Z</time>
      </trkpt>
      <trkpt lat="44.77782" lon="5.90747">
        <ele>951.684267</ele>
        <time>2025-07-10T09:07:37.000Z</time>
      </trkpt>
      <trkpt lat="44.77787" lon="5.90748">
        <ele>951.629955</ele>
        <time>2025-07-10T09:07:38.000Z</time>
      </trkpt>
      <trkpt lat="44.77793" lon="5.90749">
        <ele>951.575733</ele>
        <time>2025-07-10T09:07:39.000Z</time>
      </trkpt>
      <trkpt lat="44.77799" lon="5.9075">
        <ele>951.521511</ele>
        <time>2025-07-10T09:07:40.000Z</time>
      </trkpt>
      <trkpt lat="44.77804" lon="5.90751">
        <ele>951.466335</ele>
        <time>2025-07-10T09:07:41.000Z</time>
      </trkpt>
      <trkpt lat="44.7781" lon="5.90752">
        <ele>951.41116</ele>
        <time>2025-07-10T09:07:42.000Z</time>
      </trkpt>
      <trkpt lat="44.77816" lon="5.90753">
        <ele>951.35485</ele>
        <time>2025-07-10T09:07:43.000Z</time>
      </trkpt>
      <trkpt lat="44.77821" lon="5.90754">
        <ele>951.29949</ele>
        <time>2025-07-10T09:07:44.000Z</time>
      </trkpt>
      <trkpt lat="44.77827" lon="5.90755">
        <ele>951.244314</ele>
        <time>2025-07-10T09:07:45.000Z</time>
      </trkpt>
      <trkpt lat="44.77833" lon="5.90756">
        <ele>951.189051</ele>
        <time>2025-07-10T09:07:46.000Z</time>
      </trkpt>
      <trkpt lat="44.77839" lon="5.90757">
        <ele>951.131969</ele>
        <time>2025-07-10T09:07:47.000Z</time>
      </trkpt>
      <trkpt lat="44.77845" lon="5.90758">
        <ele>951.075753</ele>
        <time>2025-07-10T09:07:48.000Z</time>
      </trkpt>
      <trkpt lat="44.7785" lon="5.90759">
        <ele>951.002166</ele>
        <time>2025-07-10T09:07:49.000Z</time>
      </trkpt>
      <trkpt lat="44.77856" lon="5.9076">
        <ele>950.90916</ele>
        <time>2025-07-10T09:07:50.000Z</time>
      </trkpt>
      <trkpt lat="44.77862" lon="5.90761">
        <ele>950.814145</ele>
        <time>2025-07-10T09:07:51.000Z</time>
      </trkpt>
      <trkpt lat="44.77868" lon="5.90762">
        <ele>950.717551</ele>
        <time>2025-07-10T09:07:52.000Z</time>
      </trkpt>
      <trkpt lat="44.77874" lon="5.90764">
        <ele>950.622367</ele>
        <time>2025-07-10T09:07:53.000Z</time>
      </trkpt>
      <trkpt lat="44.7788" lon="5.90765">
        <ele>950.528758</ele>
        <time>2025-07-10T09:07:54.000Z</time>
      </trkpt>
      <trkpt lat="44.77886" lon="5.90766">
        <ele>950.435319</ele>
        <time>2025-07-10T09:07:55.000Z</time>
      </trkpt>
      <trkpt lat="44.77891" lon="5.90767">
        <ele>950.342038</ele>
        <time>2025-07-10T09:07:56.000Z</time>
      </trkpt>
      <trkpt lat="44.77897" lon="5.90768">
        <ele>950.245737</ele>
        <time>2025-07-10T09:07:57.000Z</time>
      </trkpt>
      <trkpt lat="44.77903" lon="5.9077">
        <ele>950.152298</ele>
        <time>2025-07-10T09:07:58.000Z</time>
      </trkpt>
      <trkpt lat="44.77909" lon="5.90771">
        <ele>950.057114</ele>
        <time>2025-07-10T09:07:59.000Z</time>
      </trkpt>
      <trkpt lat="44.77915" lon="5.90772">
        <ele>949.963505</ele>
        <time>2025-07-10T09:08:00.000Z</time>
      </trkpt>
      <trkpt lat="44.77921" lon="5.90773">
        <ele>949.867064</ele>
        <time>2025-07-10T09:08:01.000Z</time>
      </trkpt>
      <trkpt lat="44.77927" lon="5.90774">
        <ele>949.770889</ele>
        <time>2025-07-10T09:08:02.000Z</time>
      </trkpt>
      <trkpt lat="44.77933" lon="5.90775">
        <ele>949.671286</ele>
        <time>2025-07-10T09:08:03.000Z</time>
      </trkpt>
      <trkpt lat="44.77939" lon="5.90776">
        <ele>949.575111</ele>
        <time>2025-07-10T09:08:04.000Z</time>
      </trkpt>
      <trkpt lat="44.77945" lon="5.90777">
        <ele>949.477226</ele>
        <time>2025-07-10T09:08:05.000Z</time>
      </trkpt>
      <trkpt lat="44.77951" lon="5.90778">
        <ele>949.377315</ele>
        <time>2025-07-10T09:08:06.000Z</time>
      </trkpt>
      <trkpt lat="44.77958" lon="5.9078">
        <ele>949.274083</ele>
        <time>2025-07-10T09:08:07.000Z</time>
      </trkpt>
      <trkpt lat="44.77964" lon="5.90781">
        <ele>949.169275</ele>
        <time>2025-07-10T09:08:08.000Z</time>
      </trkpt>
      <trkpt lat="44.77971" lon="5.90783">
        <ele>949.066209</ele>
        <time>2025-07-10T09:08:09.000Z</time>
      </trkpt>
      <trkpt lat="44.77977" lon="5.90784">
        <ele>948.959988</ele>
        <time>2025-07-10T09:08:10.000Z</time>
      </trkpt>
      <trkpt lat="44.77984" lon="5.90785">
        <ele>948.857078</ele>
        <time>2025-07-10T09:08:11.000Z</time>
      </trkpt>
      <trkpt lat="44.7799" lon="5.90786">
        <ele>948.754169</ele>
        <time>2025-07-10T09:08:12.000Z</time>
      </trkpt>
      <trkpt lat="44.77997" lon="5.90788">
        <ele>948.649361</ele>
        <time>2025-07-10T09:08:13.000Z</time>
      </trkpt>
      <trkpt lat="44.78003" lon="5.90789">
        <ele>948.548031</ele>
        <time>2025-07-10T09:08:14.000Z</time>
      </trkpt>
      <trkpt lat="44.78009" lon="5.9079">
        <ele>948.448428</ele>
        <time>2025-07-10T09:08:15.000Z</time>
      </trkpt>
      <trkpt lat="44.78015" lon="5.90791">
        <ele>948.348825</ele>
        <time>2025-07-10T09:08:16.000Z</time>
      </trkpt>
      <trkpt lat="44.78021" lon="5.90792">
        <ele>948.250653</ele>
        <time>2025-07-10T09:08:17.000Z</time>
      </trkpt>
      <trkpt lat="44.78027" lon="5.90793">
        <ele>948.156529</ele>
        <time>2025-07-10T09:08:18.000Z</time>
      </trkpt>
      <trkpt lat="44.78033" lon="5.90795">
        <ele>948.070901</ele>
        <time>2025-07-10T09:08:19.000Z</time>
      </trkpt>
      <trkpt lat="44.78039" lon="5.90796">
        <ele>947.985274</ele>
        <time>2025-07-10T09:08:20.000Z</time>
      </trkpt>
      <trkpt lat="44.78045" lon="5.90797">
        <ele>947.901073</ele>
        <time>2025-07-10T09:08:21.000Z</time>
      </trkpt>
      <trkpt lat="44.78051" lon="5.90798">
        <ele>947.815306</ele>
        <time>2025-07-10T09:08:22.000Z</time>
      </trkpt>
      <trkpt lat="44.78057" lon="5.90799">
        <ele>947.730963</ele>
        <time>2025-07-10T09:08:23.000Z</time>
      </trkpt>
      <trkpt lat="44.78062" lon="5.908">
        <ele>947.646619</ele>
        <time>2025-07-10T09:08:24.000Z</time>
      </trkpt>
      <trkpt lat="44.78069" lon="5.90801">
        <ele>947.558262</ele>
        <time>2025-07-10T09:08:25.000Z</time>
      </trkpt>
      <trkpt lat="44.78074" lon="5.90802">
        <ele>947.474061</ele>
        <time>2025-07-10T09:08:26.000Z</time>
      </trkpt>
      <trkpt lat="44.7808" lon="5.90803">
        <ele>947.391418</ele>
        <time>2025-07-10T09:08:27.000Z</time>
      </trkpt>
      <trkpt lat="44.78086" lon="5.90804">
        <ele>947.308775</ele>
        <time>2025-07-10T09:08:28.000Z</time>
      </trkpt>
      <trkpt lat="44.78092" lon="5.90805">
        <ele>947.224704</ele>
        <time>2025-07-10T09:08:29.000Z</time>
      </trkpt>
      <trkpt lat="44.78097" lon="5.90806">
        <ele>947.140751</ele>
        <time>2025-07-10T09:08:30.000Z</time>
      </trkpt>
      <trkpt lat="44.78103" lon="5.90807">
        <ele>947.058336</ele>
        <time>2025-07-10T09:08:31.000Z</time>
      </trkpt>
      <trkpt lat="44.78109" lon="5.90808">
        <ele>946.975813</ele>
        <time>2025-07-10T09:08:32.000Z</time>
      </trkpt>
      <trkpt lat="44.78114" lon="5.90809">
        <ele>946.894597</ele>
        <time>2025-07-10T09:08:33.000Z</time>
      </trkpt>
      <trkpt lat="44.7812" lon="5.9081">
        <ele>946.810396</ele>
        <time>2025-07-10T09:08:34.000Z</time>
      </trkpt>
      <trkpt lat="44.78126" lon="5.90811">
        <ele>946.725013</ele>
        <time>2025-07-10T09:08:35.000Z</time>
      </trkpt>
      <trkpt lat="44.78132" lon="5.90812">
        <ele>946.640812</ele>
        <time>2025-07-10T09:08:36.000Z</time>
      </trkpt>
      <trkpt lat="44.78138" lon="5.90813">
        <ele>946.556468</ele>
        <time>2025-07-10T09:08:37.000Z</time>
      </trkpt>
      <trkpt lat="44.78143" lon="5.90815">
        <ele>946.472125</ele>
        <time>2025-07-10T09:08:38.000Z</time>
      </trkpt>
      <trkpt lat="44.78149" lon="5.90816">
        <ele>946.387782</ele>
        <time>2025-07-10T09:08:39.000Z</time>
      </trkpt>
      <trkpt lat="44.78155" lon="5.90817">
        <ele>946.302398</ele>
        <time>2025-07-10T09:08:40.000Z</time>
      </trkpt>
      <trkpt lat="44.78161" lon="5.90818">
        <ele>946.215471</ele>
        <time>2025-07-10T09:08:41.000Z</time>
      </trkpt>
      <trkpt lat="44.78167" lon="5.90819">
        <ele>946.129703</ele>
        <time>2025-07-10T09:08:42.000Z</time>
      </trkpt>
      <trkpt lat="44.78173" lon="5.9082">
        <ele>946.043784</ele>
        <time>2025-07-10T09:08:43.000Z</time>
      </trkpt>
      <trkpt lat="44.78179" lon="5.90821">
        <ele>945.959583</ele>
        <time>2025-07-10T09:08:44.000Z</time>
      </trkpt>
      <trkpt lat="44.78185" lon="5.90822">
        <ele>945.875513</ele>
        <time>2025-07-10T09:08:45.000Z</time>
      </trkpt>
      <trkpt lat="44.7819" lon="5.90823">
        <ele>945.789745</ele>
        <time>2025-07-10T09:08:46.000Z</time>
      </trkpt>
      <trkpt lat="44.78196" lon="5.90824">
        <ele>945.704246</ele>
        <time>2025-07-10T09:08:47.000Z</time>
      </trkpt>
      <trkpt lat="44.78202" lon="5.90826">
        <ele>945.619748</ele>
        <time>2025-07-10T09:08:48.000Z</time>
      </trkpt>
      <trkpt lat="44.78208" lon="5.90827">
        <ele>945.508967</ele>
        <time>2025-07-10T09:08:49.000Z</time>
      </trkpt>
      <trkpt lat="44.78214" lon="5.90828">
        <ele>945.386352</ele>
        <time>2025-07-10T09:08:50.000Z</time>
      </trkpt>
      <trkpt lat="44.7822" lon="5.90829">
        <ele>945.261508</ele>
        <time>2025-07-10T09:08:51.000Z</time>
      </trkpt>
      <trkpt lat="44.78226" lon="5.9083">
        <ele>945.140328</ele>
        <time>2025-07-10T09:08:52.000Z</time>
      </trkpt>
      <trkpt lat="44.78232" lon="5.90832">
        <ele>945.017111</ele>
        <time>2025-07-10T09:08:53.000Z</time>
      </trkpt>
      <trkpt lat="44.78237" lon="5.90833">
        <ele>944.897969</ele>
        <time>2025-07-10T09:08:54.000Z</time>
      </trkpt>
      <trkpt lat="44.78243" lon="5.90834">
        <ele>944.775171</ele>
        <time>2025-07-10T09:08:55.000Z</time>
      </trkpt>
      <trkpt lat="44.78249" lon="5.90835">
        <ele>944.652555</ele>
        <time>2025-07-10T09:08:56.000Z</time>
      </trkpt>
      <trkpt lat="44.78255" lon="5.90836">
        <ele>944.531802</ele>
        <time>2025-07-10T09:08:57.000Z</time>
      </trkpt>
      <trkpt lat="44.78261" lon="5.90837">
        <ele>944.409187</ele>
        <time>2025-07-10T09:08:58.000Z</time>
      </trkpt>
      <trkpt lat="44.78267" lon="5.90838">
        <ele>944.29084</ele>
        <time>2025-07-10T09:08:59.000Z</time>
      </trkpt>
      <trkpt lat="44.78272" lon="5.90839">
        <ele>944.172321</ele>
        <time>2025-07-10T09:09:00.000Z</time>
      </trkpt>
      <trkpt lat="44.78278" lon="5.9084">
        <ele>944.053612</ele>
        <time>2025-07-10T09:09:01.000Z</time>
      </trkpt>
      <trkpt lat="44.78284" lon="5.90841">
        <ele>943.935093</ele>
        <time>2025-07-10T09:09:02.000Z</time>
      </trkpt>
      <trkpt lat="44.78289" lon="5.90842">
        <ele>943.814135</ele>
        <time>2025-07-10T09:09:03.000Z</time>
      </trkpt>
      <trkpt lat="44.78295" lon="5.90843">
        <ele>943.691336</ele>
        <time>2025-07-10T09:09:04.000Z</time>
      </trkpt>
      <trkpt lat="44.78301" lon="5.90844">
        <ele>943.568721</ele>
        <time>2025-07-10T09:09:05.000Z</time>
      </trkpt>
      <trkpt lat="44.78307" lon="5.90846">
        <ele>943.450012</ele>
        <time>2025-07-10T09:09:06.000Z</time>
      </trkpt>
      <trkpt lat="44.78313" lon="5.90847">
        <ele>943.327213</ele>
        <time>2025-07-10T09:09:07.000Z</time>
      </trkpt>
      <trkpt lat="44.78319" lon="5.90848">
        <ele>943.208504</ele>
        <time>2025-07-10T09:09:08.000Z</time>
      </trkpt>
      <trkpt lat="44.78324" lon="5.90849">
        <ele>943.085505</ele>
        <time>2025-07-10T09:09:09.000Z</time>
      </trkpt>
      <trkpt lat="44.7833" lon="5.9085">
        <ele>942.964938</ele>
        <time>2025-07-10T09:09:10.000Z</time>
      </trkpt>
      <trkpt lat="44.78336" lon="5.90851">
        <ele>942.84454</ele>
        <time>2025-07-10T09:09:11.000Z</time>
      </trkpt>
      <trkpt lat="44.78342" lon="5.90852">
        <ele>942.721742</ele>
        <time>2025-07-10T09:09:12.000Z</time>
      </trkpt>
      <trkpt lat="44.78348" lon="5.90853">
        <ele>942.603223</ele>
        <time>2025-07-10T09:09:13.000Z</time>
      </trkpt>
      <trkpt lat="44.78353" lon="5.90854">
        <ele>942.484704</ele>
        <time>2025-07-10T09:09:14.000Z</time>
      </trkpt>
      <trkpt lat="44.78359" lon="5.90855">
        <ele>942.364137</ele>
        <time>2025-07-10T09:09:15.000Z</time>
      </trkpt>
      <trkpt lat="44.78365" lon="5.90856">
        <ele>942.247472</ele>
        <time>2025-07-10T09:09:16.000Z</time>
      </trkpt>
      <trkpt lat="44.7837" lon="5.90857">
        <ele>942.133047</ele>
        <time>2025-07-10T09:09:17.000Z</time>
      </trkpt>
      <trkpt lat="44.78376" lon="5.90858">
        <ele>942.016575</ele>
        <time>2025-07-10T09:09:18.000Z</time>
      </trkpt>
      <trkpt lat="44.78381" lon="5.90859">
        <ele>941.89991</ele>
        <time>2025-07-10T09:09:19.000Z</time>
      </trkpt>
      <trkpt lat="44.78387" lon="5.9086">
        <ele>941.811139</ele>
        <time>2025-07-10T09:09:20.000Z</time>
      </trkpt>
      <trkpt lat="44.78392" lon="5.90861">
        <ele>941.728885</ele>
        <time>2025-07-10T09:09:21.000Z</time>
      </trkpt>
      <trkpt lat="44.78398" lon="5.90862">
        <ele>941.643591</ele>
        <time>2025-07-10T09:09:22.000Z</time>
      </trkpt>
      <trkpt lat="44.78403" lon="5.90864">
        <ele>941.559817</ele>
        <time>2025-07-10T09:09:23.000Z</time>
      </trkpt>
      <trkpt lat="44.78408" lon="5.90865">
        <ele>941.477715</ele>
        <time>2025-07-10T09:09:24.000Z</time>
      </trkpt>
      <trkpt lat="44.78414" lon="5.90865">
        <ele>941.397274</ele>
        <time>2025-07-10T09:09:25.000Z</time>
      </trkpt>
      <trkpt lat="44.78419" lon="5.90866">
        <ele>941.316833</ele>
        <time>2025-07-10T09:09:26.000Z</time>
      </trkpt>
      <trkpt lat="44.78424" lon="5.90867">
        <ele>941.234731</ele>
        <time>2025-07-10T09:09:27.000Z</time>
      </trkpt>
      <trkpt lat="44.78429" lon="5.90868">
        <ele>941.152628</ele>
        <time>2025-07-10T09:09:28.000Z</time>
      </trkpt>
      <trkpt lat="44.78435" lon="5.90869">
        <ele>941.069138</ele>
        <time>2025-07-10T09:09:29.000Z</time>
      </trkpt>
      <trkpt lat="44.7844" lon="5.9087">
        <ele>940.983991</ele>
        <time>2025-07-10T09:09:30.000Z</time>
      </trkpt>
      <trkpt lat="44.78446" lon="5.90871">
        <ele>940.900623</ele>
        <time>2025-07-10T09:09:31.000Z</time>
      </trkpt>
      <trkpt lat="44.78451" lon="5.90872">
        <ele>940.812288</ele>
        <time>2025-07-10T09:09:32.000Z</time>
      </trkpt>
      <trkpt lat="44.78457" lon="5.90873">
        <ele>940.726994</ele>
        <time>2025-07-10T09:09:33.000Z</time>
      </trkpt>
      <trkpt lat="44.78462" lon="5.90874">
        <ele>940.644892</ele>
        <time>2025-07-10T09:09:34.000Z</time>
      </trkpt>
      <trkpt lat="44.78468" lon="5.90875">
        <ele>940.561267</ele>
        <time>2025-07-10T09:09:35.000Z</time>
      </trkpt>
      <trkpt lat="44.78473" lon="5.90876">
        <ele>940.479302</ele>
        <time>2025-07-10T09:09:36.000Z</time>
      </trkpt>
      <trkpt lat="44.78478" lon="5.90877">
        <ele>940.400242</ele>
        <time>2025-07-10T09:09:37.000Z</time>
      </trkpt>
      <trkpt lat="44.78483" lon="5.90878">
        <ele>940.319507</ele>
        <time>2025-07-10T09:09:38.000Z</time>
      </trkpt>
      <trkpt lat="44.78488" lon="5.90879">
        <ele>940.238771</ele>
        <time>2025-07-10T09:09:39.000Z</time>
      </trkpt>
      <trkpt lat="44.78494" lon="5.90881">
        <ele>940.156351</ele>
        <time>2025-07-10T09:09:40.000Z</time>
      </trkpt>
      <trkpt lat="44.78499" lon="5.90882">
        <ele>940.075615</ele>
        <time>2025-07-10T09:09:41.000Z</time>
      </trkpt>
      <trkpt lat="44.78504" lon="5.90883">
        <ele>939.995175</ele>
        <time>2025-07-10T09:09:42.000Z</time>
      </trkpt>
      <trkpt lat="44.78509" lon="5.90883">
        <ele>939.916257</ele>
        <time>2025-07-10T09:09:43.000Z</time>
      </trkpt>
      <trkpt lat="44.78514" lon="5.90884">
        <ele>939.83734</ele>
        <time>2025-07-10T09:09:44.000Z</time>
      </trkpt>
      <trkpt lat="44.78519" lon="5.90885">
        <ele>939.759801</ele>
        <time>2025-07-10T09:09:45.000Z</time>
      </trkpt>
      <trkpt lat="44.78524" lon="5.90886">
        <ele>939.680583</ele>
        <time>2025-07-10T09:09:46.000Z</time>
      </trkpt>
      <trkpt lat="44.78529" lon="5.90888">
        <ele>939.6044</ele>
        <time>2025-07-10T09:09:47.000Z</time>
      </trkpt>
      <trkpt lat="44.78534" lon="5.90889">
        <ele>939.52534</ele>
        <time>2025-07-10T09:09:48.000Z</time>
      </trkpt>
      <trkpt lat="44.78539" lon="5.9089">
        <ele>939.4478</ele>
        <time>2025-07-10T09:09:49.000Z</time>
      </trkpt>
      <trkpt lat="44.78544" lon="5.9089">
        <ele>939.370537</ele>
        <time>2025-07-10T09:09:50.000Z</time>
      </trkpt>
      <trkpt lat="44.78549" lon="5.90891">
        <ele>939.296188</ele>
        <time>2025-07-10T09:09:51.000Z</time>
      </trkpt>
      <trkpt lat="44.78554" lon="5.90892">
        <ele>939.220169</ele>
        <time>2025-07-10T09:09:52.000Z</time>
      </trkpt>
      <trkpt lat="44.78559" lon="5.90893">
        <ele>939.145668</ele>
        <time>2025-07-10T09:09:53.000Z</time>
      </trkpt>
      <trkpt lat="44.78564" lon="5.90894">
        <ele>939.077057</ele>
        <time>2025-07-10T09:09:54.000Z</time>
      </trkpt>
      <trkpt lat="44.78569" lon="5.90895">
        <ele>939.011453</ele>
        <time>2025-07-10T09:09:55.000Z</time>
      </trkpt>
      <trkpt lat="44.78574" lon="5.90896">
        <ele>938.944553</ele>
        <time>2025-07-10T09:09:56.000Z</time>
      </trkpt>
      <trkpt lat="44.78579" lon="5.90897">
        <ele>938.877424</ele>
        <time>2025-07-10T09:09:57.000Z</time>
      </trkpt>
      <trkpt lat="44.78584" lon="5.90898">
        <ele>938.811585</ele>
        <time>2025-07-10T09:09:58.000Z</time>
      </trkpt>
      <trkpt lat="44.78589" lon="5.90899">
        <ele>938.745981</ele>
        <time>2025-07-10T09:09:59.000Z</time>
      </trkpt>
      <trkpt lat="44.78594" lon="5.909">
        <ele>938.680142</ele>
        <time>2025-07-10T09:10:00.000Z</time>
      </trkpt>
      <trkpt lat="44.78599" lon="5.90901">
        <ele>938.61572</ele>
        <time>2025-07-10T09:10:01.000Z</time>
      </trkpt>
      <trkpt lat="44.78604" lon="5.90901">
        <ele>938.550005</ele>
        <time>2025-07-10T09:10:02.000Z</time>
      </trkpt>
      <trkpt lat="44.78609" lon="5.90903">
        <ele>938.48403</ele>
        <time>2025-07-10T09:10:03.000Z</time>
      </trkpt>
      <trkpt lat="44.78614" lon="5.90903">
        <ele>938.422193</ele>
        <time>2025-07-10T09:10:04.000Z</time>
      </trkpt>
      <trkpt lat="44.78618" lon="5.90904">
        <ele>938.360224</ele>
        <time>2025-07-10T09:10:05.000Z</time>
      </trkpt>
      <trkpt lat="44.78623" lon="5.90905">
        <ele>938.303406</ele>
        <time>2025-07-10T09:10:06.000Z</time>
      </trkpt>
      <trkpt lat="44.78626" lon="5.90906">
        <ele>938.254604</ele>
        <time>2025-07-10T09:10:07.000Z</time>
      </trkpt>
      <trkpt lat="44.78629" lon="5.90907">
        <ele>938.217913</ele>
        <time>2025-07-10T09:10:08.000Z</time>
      </trkpt>
      <trkpt lat="44.78631" lon="5.90907">
        <ele>938.187701</ele>
        <time>2025-07-10T09:10:09.000Z</time>
      </trkpt>
      <trkpt lat="44.78633" lon="5.90907">
        <ele>938.165364</ele>
        <time>2025-07-10T09:10:10.000Z</time>
      </trkpt>
      <trkpt lat="44.78634" lon="5.90908">
        <ele>938.149611</ele>
        <time>2025-07-10T09:10:11.000Z</time>
      </trkpt>
      <trkpt lat="44.78637" lon="5.90907">
        <ele>938.115702</ele>
        <time>2025-07-10T09:12:16.000Z</time>
      </trkpt>
      <trkpt lat="44.78639" lon="5.90907">
        <ele>938.090914</ele>
        <time>2025-07-10T09:12:17.000Z</time>
      </trkpt>
      <trkpt lat="44.78641" lon="5.90907">
        <ele>938.060929</ele>
        <time>2025-07-10T09:12:18.000Z</time>
      </trkpt>
      <trkpt lat="44.78644" lon="5.90908">
        <ele>938.027867</ele>
        <time>2025-07-10T09:12:19.000Z</time>
      </trkpt>
      <trkpt lat="44.78646" lon="5.90909">
        <ele>937.990209</ele>
        <time>2025-07-10T09:12:20.000Z</time>
      </trkpt>
      <trkpt lat="44.78649" lon="5.9091">
        <ele>937.950565</ele>
        <time>2025-07-10T09:12:21.000Z</time>
      </trkpt>
      <trkpt lat="44.78653" lon="5.9091">
        <ele>937.907058</ele>
        <time>2025-07-10T09:12:22.000Z</time>
      </trkpt>
      <trkpt lat="44.78656" lon="5.90911">
        <ele>937.862118</ele>
        <time>2025-07-10T09:12:23.000Z</time>
      </trkpt>
      <trkpt lat="44.7866" lon="5.90912">
        <ele>937.813448</ele>
        <time>2025-07-10T09:12:24.000Z</time>
      </trkpt>
      <trkpt lat="44.78664" lon="5.90912">
        <ele>937.763692</ele>
        <time>2025-07-10T09:12:25.000Z</time>
      </trkpt>
      <trkpt lat="44.78667" lon="5.90913">
        <ele>937.712545</ele>
        <time>2025-07-10T09:12:26.000Z</time>
      </trkpt>
      <trkpt lat="44.78672" lon="5.90914">
        <ele>937.658702</ele>
        <time>2025-07-10T09:12:27.000Z</time>
      </trkpt>
      <trkpt lat="44.78676" lon="5.90914">
        <ele>937.60227</ele>
        <time>2025-07-10T09:12:28.000Z</time>
      </trkpt>
      <trkpt lat="44.7868" lon="5.90915">
        <ele>937.545724</ele>
        <time>2025-07-10T09:12:29.000Z</time>
      </trkpt>
      <trkpt lat="44.78685" lon="5.90916">
        <ele>937.48762</ele>
        <time>2025-07-10T09:12:30.000Z</time>
      </trkpt>
      <trkpt lat="44.78689" lon="5.90917">
        <ele>937.428488</ele>
        <time>2025-07-10T09:12:31.000Z</time>
      </trkpt>
      <trkpt lat="44.78694" lon="5.90918">
        <ele>937.369356</ele>
        <time>2025-07-10T09:12:32.000Z</time>
      </trkpt>
      <trkpt lat="44.78698" lon="5.90919">
        <ele>937.310224</ele>
        <time>2025-07-10T09:12:33.000Z</time>
      </trkpt>
      <trkpt lat="44.78703" lon="5.90919">
        <ele>937.249678</ele>
        <time>2025-07-10T09:12:34.000Z</time>
      </trkpt>
      <trkpt lat="44.78707" lon="5.9092">
        <ele>937.190286</ele>
        <time>2025-07-10T09:12:35.000Z</time>
      </trkpt>
      <trkpt lat="44.78712" lon="5.90921">
        <ele>937.131032</ele>
        <time>2025-07-10T09:12:36.000Z</time>
      </trkpt>
      <trkpt lat="44.78716" lon="5.90922">
        <ele>937.072103</ele>
        <time>2025-07-10T09:12:37.000Z</time>
      </trkpt>
      <trkpt lat="44.78721" lon="5.90923">
        <ele>937.011557</ele>
        <time>2025-07-10T09:12:38.000Z</time>
      </trkpt>
      <trkpt lat="44.78725" lon="5.90924">
        <ele>936.951132</ele>
        <time>2025-07-10T09:12:39.000Z</time>
      </trkpt>
      <trkpt lat="44.7873" lon="5.90925">
        <ele>936.890586</ele>
        <time>2025-07-10T09:12:40.000Z</time>
      </trkpt>
      <trkpt lat="44.78735" lon="5.90925">
        <ele>936.828866</ele>
        <time>2025-07-10T09:12:41.000Z</time>
      </trkpt>
      <trkpt lat="44.78739" lon="5.90926">
        <ele>936.762515</ele>
        <time>2025-07-10T09:12:42.000Z</time>
      </trkpt>
      <trkpt lat="44.78744" lon="5.90927">
        <ele>936.673192</ele>
        <time>2025-07-10T09:12:43.000Z</time>
      </trkpt>
      <trkpt lat="44.78749" lon="5.90928">
        <ele>936.583869</ele>
        <time>2025-07-10T09:12:44.000Z</time>
      </trkpt>
      <trkpt lat="44.78754" lon="5.90929">
        <ele>936.494547</ele>
        <time>2025-07-10T09:12:45.000Z</time>
      </trkpt>
      <trkpt lat="44.78758" lon="5.90929">
        <ele>936.408723</ele>
        <time>2025-07-10T09:12:46.000Z</time>
      </trkpt>
      <trkpt lat="44.78763" lon="5.9093">
        <ele>936.322709</ele>
        <time>2025-07-10T09:12:47.000Z</time>
      </trkpt>
      <trkpt lat="44.78768" lon="5.90931">
        <ele>936.236885</ele>
        <time>2025-07-10T09:12:48.000Z</time>
      </trkpt>
      <trkpt lat="44.78772" lon="5.90932">
        <ele>936.152891</ele>
        <time>2025-07-10T09:12:49.000Z</time>
      </trkpt>
      <trkpt lat="44.78777" lon="5.90933">
        <ele>936.069071</ele>
        <time>2025-07-10T09:12:50.000Z</time>
      </trkpt>
      <trkpt lat="44.78781" lon="5.90934">
        <ele>935.985078</ele>
        <time>2025-07-10T09:12:51.000Z</time>
      </trkpt>
      <trkpt lat="44.78786" lon="5.90935">
        <ele>935.901258</ele>
        <time>2025-07-10T09:12:52.000Z</time>
      </trkpt>
      <trkpt lat="44.7879" lon="5.90936">
        <ele>935.815605</ele>
        <time>2025-07-10T09:12:53.000Z</time>
      </trkpt>
      <trkpt lat="44.78795" lon="5.90936">
        <ele>935.731785</ele>
        <time>2025-07-10T09:12:54.000Z</time>
      </trkpt>
      <trkpt lat="44.78799" lon="5.90937">
        <ele>935.645961</ele>
        <time>2025-07-10T09:12:55.000Z</time>
      </trkpt>
      <trkpt lat="44.78804" lon="5.90938">
        <ele>935.560137</ele>
        <time>2025-07-10T09:12:56.000Z</time>
      </trkpt>
      <trkpt lat="44.78809" lon="5.90939">
        <ele>935.474314</ele>
        <time>2025-07-10T09:12:57.000Z</time>
      </trkpt>
      <trkpt lat="44.78813" lon="5.9094">
        <ele>935.38866</ele>
        <time>2025-07-10T09:12:58.000Z</time>
      </trkpt>
      <trkpt lat="44.78818" lon="5.90941">
        <ele>935.302836</ele>
        <time>2025-07-10T09:12:59.000Z</time>
      </trkpt>
      <trkpt lat="44.78822" lon="5.90942">
        <ele>935.217183</ele>
        <time>2025-07-10T09:13:00.000Z</time>
      </trkpt>
      <trkpt lat="44.78827" lon="5.90942">
        <ele>935.133189</ele>
        <time>2025-07-10T09:13:01.000Z</time>
      </trkpt>
      <trkpt lat="44.78831" lon="5.90943">
        <ele>935.047365</ele>
        <time>2025-07-10T09:13:02.000Z</time>
      </trkpt>
      <trkpt lat="44.78836" lon="5.90944">
        <ele>934.958043</ele>
        <time>2025-07-10T09:13:03.000Z</time>
      </trkpt>
      <trkpt lat="44.78841" lon="5.90945">
        <ele>934.870555</ele>
        <time>2025-07-10T09:13:04.000Z</time>
      </trkpt>
      <trkpt lat="44.78846" lon="5.90946">
        <ele>934.783067</ele>
        <time>2025-07-10T09:13:05.000Z</time>
      </trkpt>
      <trkpt lat="44.7885" lon="5.90947">
        <ele>934.697243</ele>
        <time>2025-07-10T09:13:06.000Z</time>
      </trkpt>
      <trkpt lat="44.78855" lon="5.90948">
        <ele>934.61142</ele>
        <time>2025-07-10T09:13:07.000Z</time>
      </trkpt>
      <trkpt lat="44.78859" lon="5.90948">
        <ele>934.527426</ele>
        <time>2025-07-10T09:13:08.000Z</time>
      </trkpt>
      <trkpt lat="44.78864" lon="5.90949">
        <ele>934.443432</ele>
        <time>2025-07-10T09:13:09.000Z</time>
      </trkpt>
      <trkpt lat="44.78868" lon="5.9095">
        <ele>934.3599</ele>
        <time>2025-07-10T09:13:10.000Z</time>
      </trkpt>
      <trkpt lat="44.78873" lon="5.90951">
        <ele>934.279746</ele>
        <time>2025-07-10T09:13:11.000Z</time>
      </trkpt>
      <trkpt lat="44.78877" lon="5.90952">
        <ele>934.197164</ele>
        <time>2025-07-10T09:13:12.000Z</time>
      </trkpt>
      <trkpt lat="44.78882" lon="5.90953">
        <ele>934.112976</ele>
        <time>2025-07-10T09:13:13.000Z</time>
      </trkpt>
      <trkpt lat="44.78886" lon="5.90954">
        <ele>934.029157</ele>
        <time>2025-07-10T09:13:14.000Z</time>
      </trkpt>
      <trkpt lat="44.78891" lon="5.90954">
        <ele>933.945491</ele>
        <time>2025-07-10T09:13:15.000Z</time>
      </trkpt>
      <trkpt lat="44.78895" lon="5.90955">
        <ele>933.861672</ele>
        <time>2025-07-10T09:13:16.000Z</time>
      </trkpt>
      <trkpt lat="44.789" lon="5.90956">
        <ele>933.776169</ele>
        <time>2025-07-10T09:13:17.000Z</time>
      </trkpt>
      <trkpt lat="44.78904" lon="5.90956">
        <ele>933.690797</ele>
        <time>2025-07-10T09:13:18.000Z</time>
      </trkpt>
      <trkpt lat="44.78909" lon="5.90957">
        <ele>933.606804</ele>
        <time>2025-07-10T09:13:19.000Z</time>
      </trkpt>
      <trkpt lat="44.78913" lon="5.90958">
        <ele>933.52281</ele>
        <time>2025-07-10T09:13:20.000Z</time>
      </trkpt>
      <trkpt lat="44.78918" lon="5.90959">
        <ele>933.443708</ele>
        <time>2025-07-10T09:13:21.000Z</time>
      </trkpt>
      <trkpt lat="44.78922" lon="5.9096">
        <ele>933.401939</ele>
        <time>2025-07-10T09:13:22.000Z</time>
      </trkpt>
      <trkpt lat="44.78927" lon="5.90961">
        <ele>933.361775</ele>
        <time>2025-07-10T09:13:23.000Z</time>
      </trkpt>
      <trkpt lat="44.78931" lon="5.90962">
        <ele>933.32072</ele>
        <time>2025-07-10T09:13:24.000Z</time>
      </trkpt>
      <trkpt lat="44.78936" lon="5.90963">
        <ele>933.27976</ele>
        <time>2025-07-10T09:13:25.000Z</time>
      </trkpt>
      <trkpt lat="44.7894" lon="5.90963">
        <ele>933.238961</ele>
        <time>2025-07-10T09:13:26.000Z</time>
      </trkpt>
      <trkpt lat="44.78945" lon="5.90964">
        <ele>933.197192</ele>
        <time>2025-07-10T09:13:27.000Z</time>
      </trkpt>
      <trkpt lat="44.78949" lon="5.90965">
        <ele>933.156317</ele>
        <time>2025-07-10T09:13:28.000Z</time>
      </trkpt>
      <trkpt lat="44.78954" lon="5.90966">
        <ele>933.114548</ele>
        <time>2025-07-10T09:13:29.000Z</time>
      </trkpt>
      <trkpt lat="44.78959" lon="5.90967">
        <ele>933.071885</ele>
        <time>2025-07-10T09:13:30.000Z</time>
      </trkpt>
      <trkpt lat="44.78964" lon="5.90967">
        <ele>933.028326</ele>
        <time>2025-07-10T09:13:31.000Z</time>
      </trkpt>
      <trkpt lat="44.78968" lon="5.90968">
        <ele>932.985663</ele>
        <time>2025-07-10T09:13:32.000Z</time>
      </trkpt>
      <trkpt lat="44.78973" lon="5.90969">
        <ele>932.941936</ele>
        <time>2025-07-10T09:13:33.000Z</time>
      </trkpt>
      <trkpt lat="44.78978" lon="5.9097">
        <ele>932.897482</ele>
        <time>2025-07-10T09:13:34.000Z</time>
      </trkpt>
      <trkpt lat="44.78983" lon="5.90971">
        <ele>932.853029</ele>
        <time>2025-07-10T09:13:35.000Z</time>
      </trkpt>
      <trkpt lat="44.78988" lon="5.90972">
        <ele>932.80768</ele>
        <time>2025-07-10T09:13:36.000Z</time>
      </trkpt>
      <trkpt lat="44.78993" lon="5.90973">
        <ele>932.762966</ele>
        <time>2025-07-10T09:13:37.000Z</time>
      </trkpt>
      <trkpt lat="44.78997" lon="5.90974">
        <ele>932.720918</ele>
        <time>2025-07-10T09:13:38.000Z</time>
      </trkpt>
      <trkpt lat="44.79002" lon="5.90975">
        <ele>932.678083</ele>
        <time>2025-07-10T09:13:39.000Z</time>
      </trkpt>
      <trkpt lat="44.79007" lon="5.90976">
        <ele>932.636314</ele>
        <time>2025-07-10T09:13:40.000Z</time>
      </trkpt>
      <trkpt lat="44.79011" lon="5.90976">
        <ele>932.593785</ele>
        <time>2025-07-10T09:13:41.000Z</time>
      </trkpt>
      <trkpt lat="44.79016" lon="5.90977">
        <ele>932.553881</ele>
        <time>2025-07-10T09:13:42.000Z</time>
      </trkpt>
      <trkpt lat="44.7902" lon="5.90978">
        <ele>932.513977</ele>
        <time>2025-07-10T09:13:43.000Z</time>
      </trkpt>
      <trkpt lat="44.79024" lon="5.90978">
        <ele>932.476676</ele>
        <time>2025-07-10T09:13:44.000Z</time>
      </trkpt>
      <trkpt lat="44.79028" lon="5.90979">
        <ele>932.438482</ele>
        <time>2025-07-10T09:13:45.000Z</time>
      </trkpt>
      <trkpt lat="44.79033" lon="5.9098">
        <ele>932.397522</ele>
        <time>2025-07-10T09:13:46.000Z</time>
      </trkpt>
      <trkpt lat="44.79037" lon="5.90981">
        <ele>932.357454</ele>
        <time>2025-07-10T09:13:47.000Z</time>
      </trkpt>
      <trkpt lat="44.79042" lon="5.90982">
        <ele>932.318278</ele>
        <time>2025-07-10T09:13:48.000Z</time>
      </trkpt>
      <trkpt lat="44.79046" lon="5.90983">
        <ele>932.277319</ele>
        <time>2025-07-10T09:13:49.000Z</time>
      </trkpt>
      <trkpt lat="44.79051" lon="5.90984">
        <ele>932.236264</ele>
        <time>2025-07-10T09:13:50.000Z</time>
      </trkpt>
      <trkpt lat="44.79055" lon="5.90985">
        <ele>932.1961</ele>
        <time>2025-07-10T09:13:51.000Z</time>
      </trkpt>
      <trkpt lat="44.7906" lon="5.90986">
        <ele>932.155045</ele>
        <time>2025-07-10T09:13:52.000Z</time>
      </trkpt>
      <trkpt lat="44.79064" lon="5.90987">
        <ele>932.114086</ele>
        <time>2025-07-10T09:13:53.000Z</time>
      </trkpt>
      <trkpt lat="44.79068" lon="5.90988">
        <ele>932.07491</ele>
        <time>2025-07-10T09:13:54.000Z</time>
      </trkpt>
      <trkpt lat="44.79073" lon="5.90989">
        <ele>932.034842</ele>
        <time>2025-07-10T09:13:55.000Z</time>
      </trkpt>
      <trkpt lat="44.79077" lon="5.90989">
        <ele>931.995666</ele>
        <time>2025-07-10T09:13:56.000Z</time>
      </trkpt>
      <trkpt lat="44.79081" lon="5.9099">
        <ele>931.956726</ele>
        <time>2025-07-10T09:13:57.000Z</time>
      </trkpt>
      <trkpt lat="44.79086" lon="5.90991">
        <ele>931.918612</ele>
        <time>2025-07-10T09:13:58.000Z</time>
      </trkpt>
      <trkpt lat="44.7909" lon="5.90992">
        <ele>931.879436</ele>
        <time>2025-07-10T09:13:59.000Z</time>
      </trkpt>
      <trkpt lat="44.79094" lon="5.90992">
        <ele>931.841323</ele>
        <time>2025-07-10T09:14:00.000Z</time>
      </trkpt>
      <trkpt lat="44.79098" lon="5.90993">
        <ele>931.787859</ele>
        <time>2025-07-10T09:14:01.000Z</time>
      </trkpt>
      <trkpt lat="44.79103" lon="5.90993">
        <ele>931.727864</ele>
        <time>2025-07-10T09:14:02.000Z</time>
      </trkpt>
      <trkpt lat="44.79107" lon="5.90994">
        <ele>931.669258</ele>
        <time>2025-07-10T09:14:03.000Z</time>
      </trkpt>
      <trkpt lat="44.79111" lon="5.90994">
        <ele>931.609101</ele>
        <time>2025-07-10T09:14:04.000Z</time>
      </trkpt>
      <trkpt lat="44.79115" lon="5.90995">
        <ele>931.550329</ele>
        <time>2025-07-10T09:14:05.000Z</time>
      </trkpt>
      <trkpt lat="44.7912" lon="5.90995">
        <ele>931.491723</ele>
        <time>2025-07-10T09:14:06.000Z</time>
      </trkpt>
      <trkpt lat="44.79124" lon="5.90996">
        <ele>931.43443</ele>
        <time>2025-07-10T09:14:07.000Z</time>
      </trkpt>
      <trkpt lat="44.79128" lon="5.90996">
        <ele>931.377136</ele>
        <time>2025-07-10T09:14:08.000Z</time>
      </trkpt>
      <trkpt lat="44.79132" lon="5.90997">
        <ele>931.319843</ele>
        <time>2025-07-10T09:14:09.000Z</time>
      </trkpt>
      <trkpt lat="44.79136" lon="5.90997">
        <ele>931.261163</ele>
        <time>2025-07-10T09:14:10.000Z</time>
      </trkpt>
      <trkpt lat="44.7914" lon="5.90998">
        <ele>931.202283</ele>
        <time>2025-07-10T09:14:11.000Z</time>
      </trkpt>
      <trkpt lat="44.79144" lon="5.90999">
        <ele>931.143602</ele>
        <time>2025-07-10T09:14:12.000Z</time>
      </trkpt>
      <trkpt lat="44.79149" lon="5.90999">
        <ele>931.084922</ele>
        <time>2025-07-10T09:14:13.000Z</time>
      </trkpt>
      <trkpt lat="44.79153" lon="5.91">
        <ele>931.026241</ele>
        <time>2025-07-10T09:14:14.000Z</time>
      </trkpt>
      <trkpt lat="44.79157" lon="5.91">
        <ele>930.96756</ele>
        <time>2025-07-10T09:14:15.000Z</time>
      </trkpt>
      <trkpt lat="44.79161" lon="5.91">
        <ele>930.908955</ele>
        <time>2025-07-10T09:14:16.000Z</time>
      </trkpt>
      <trkpt lat="44.79165" lon="5.91001">
        <ele>930.850349</ele>
        <time>2025-07-10T09:14:17.000Z</time>
      </trkpt>
      <trkpt lat="44.7917" lon="5.91001">
        <ele>930.788806</ele>
        <time>2025-07-10T09:14:18.000Z</time>
      </trkpt>
      <trkpt lat="44.79174" lon="5.91002">
        <ele>930.728649</ele>
        <time>2025-07-10T09:14:19.000Z</time>
      </trkpt>
      <trkpt lat="44.79179" lon="5.91003">
        <ele>930.667194</ele>
        <time>2025-07-10T09:14:20.000Z</time>
      </trkpt>
      <trkpt lat="44.79183" lon="5.91003">
        <ele>930.607036</ele>
        <time>2025-07-10T09:14:21.000Z</time>
      </trkpt>
      <trkpt lat="44.79187" lon="5.91004">
        <ele>930.546879</ele>
        <time>2025-07-10T09:14:22.000Z</time>
      </trkpt>
      <trkpt lat="44.79192" lon="5.91004">
        <ele>930.485424</ele>
        <time>2025-07-10T09:14:23.000Z</time>
      </trkpt>
      <trkpt lat="44.79196" lon="5.91005">
        <ele>930.422495</ele>
        <time>2025-07-10T09:14:24.000Z</time>
      </trkpt>
      <trkpt lat="44.79201" lon="5.91005">
        <ele>930.359652</ele>
        <time>2025-07-10T09:14:25.000Z</time>
      </trkpt>
      <trkpt lat="44.79205" lon="5.91006">
        <ele>930.296808</ele>
        <time>2025-07-10T09:14:26.000Z</time>
      </trkpt>
      <trkpt lat="44.79209" lon="5.91006">
        <ele>930.235353</ele>
        <time>2025-07-10T09:14:27.000Z</time>
      </trkpt>
      <trkpt lat="44.79214" lon="5.91007">
        <ele>930.17381</ele>
        <time>2025-07-10T09:14:28.000Z</time>
      </trkpt>
      <trkpt lat="44.79218" lon="5.91008">
        <ele>930.112267</ele>
        <time>2025-07-10T09:14:29.000Z</time>
      </trkpt>
      <trkpt lat="44.79223" lon="5.91008">
        <ele>930.052005</ele>
        <time>2025-07-10T09:14:30.000Z</time>
      </trkpt>
      <trkpt lat="44.79227" lon="5.91009">
        <ele>929.993324</ele>
        <time>2025-07-10T09:14:31.000Z</time>
      </trkpt>
      <trkpt lat="44.79231" lon="5.91009">
        <ele>929.93194</ele>
        <time>2025-07-10T09:14:32.000Z</time>
      </trkpt>
      <trkpt lat="44.79236" lon="5.9101">
        <ele>929.869012</ele>
        <time>2025-07-10T09:14:33.000Z</time>
      </trkpt>
      <trkpt lat="44.7924" lon="5.9101">
        <ele>929.806168</ele>
        <time>2025-07-10T09:14:34.000Z</time>
      </trkpt>
      <trkpt lat="44.79245" lon="5.91011">
        <ele>929.743395</ele>
        <time>2025-07-10T09:14:35.000Z</time>
      </trkpt>
      <trkpt lat="44.79249" lon="5.91011">
        <ele>929.679232</ele>
        <time>2025-07-10T09:14:36.000Z</time>
      </trkpt>
      <trkpt lat="44.79254" lon="5.91012">
        <ele>929.616303</ele>
        <time>2025-07-10T09:14:37.000Z</time>
      </trkpt>
      <trkpt lat="44.79258" lon="5.91012">
        <ele>929.55346</ele>
        <time>2025-07-10T09:14:38.000Z</time>
      </trkpt>
      <trkpt lat="44.79263" lon="5.91013">
        <ele>929.489145</ele>
        <time>2025-07-10T09:14:39.000Z</time>
      </trkpt>
      <trkpt lat="44.79267" lon="5.91013">
        <ele>929.426217</ele>
        <time>2025-07-10T09:14:40.000Z</time>
      </trkpt>
      <trkpt lat="44.79272" lon="5.91014">
        <ele>929.361902</ele>
        <time>2025-07-10T09:14:41.000Z</time>
      </trkpt>
      <trkpt lat="44.79276" lon="5.91015">
        <ele>929.301172</ele>
        <time>2025-07-10T09:14:42.000Z</time>
      </trkpt>
      <trkpt lat="44.79281" lon="5.91015">
        <ele>929.240576</ele>
        <time>2025-07-10T09:14:43.000Z</time>
      </trkpt>
      <trkpt lat="44.79285" lon="5.91016">
        <ele>929.179883</ele>
        <time>2025-07-10T09:14:44.000Z</time>
      </trkpt>
      <trkpt lat="44.7929" lon="5.91016">
        <ele>929.118033</ele>
        <time>2025-07-10T09:14:45.000Z</time>
      </trkpt>
      <trkpt lat="44.79294" lon="5.91017">
        <ele>929.057437</ele>
        <time>2025-07-10T09:14:46.000Z</time>
      </trkpt>
      <trkpt lat="44.79299" lon="5.91018">
        <ele>928.99425</ele>
        <time>2025-07-10T09:14:47.000Z</time>
      </trkpt>
      <trkpt lat="44.79304" lon="5.91018">
        <ele>928.931063</ele>
        <time>2025-07-10T09:14:48.000Z</time>
      </trkpt>
      <trkpt lat="44.79309" lon="5.91019">
        <ele>928.867876</ele>
        <time>2025-07-10T09:14:49.000Z</time>
      </trkpt>
      <trkpt lat="44.79313" lon="5.91019">
        <ele>928.804517</ele>
        <time>2025-07-10T09:14:50.000Z</time>
      </trkpt>
      <trkpt lat="44.79318" lon="5.9102">
        <ele>928.74133</ele>
        <time>2025-07-10T09:14:51.000Z</time>
      </trkpt>
      <trkpt lat="44.79323" lon="5.9102">
        <ele>928.678064</ele>
        <time>2025-07-10T09:14:52.000Z</time>
      </trkpt>
      <trkpt lat="44.79327" lon="5.91021">
        <ele>928.616214</ele>
        <time>2025-07-10T09:14:53.000Z</time>
      </trkpt>
      <trkpt lat="44.79332" lon="5.91022">
        <ele>928.552855</ele>
        <time>2025-07-10T09:14:54.000Z</time>
      </trkpt>
      <trkpt lat="44.79337" lon="5.91022">
        <ele>928.490829</ele>
        <time>2025-07-10T09:14:55.000Z</time>
      </trkpt>
      <trkpt lat="44.79341" lon="5.91023">
        <ele>928.427642</ele>
        <time>2025-07-10T09:14:56.000Z</time>
      </trkpt>
      <trkpt lat="44.79346" lon="5.91023">
        <ele>928.365792</ele>
        <time>2025-07-10T09:14:57.000Z</time>
      </trkpt>
      <trkpt lat="44.7935" lon="5.91024">
        <ele>928.303766</ele>
        <time>2025-07-10T09:14:58.000Z</time>
      </trkpt>
      <trkpt lat="44.79355" lon="5.91025">
        <ele>928.2405</ele>
        <time>2025-07-10T09:14:59.000Z</time>
      </trkpt>
      <trkpt lat="44.7936" lon="5.91025">
        <ele>928.175808</ele>
        <time>2025-07-10T09:15:00.000Z</time>
      </trkpt>
      <trkpt lat="44.79365" lon="5.91026">
        <ele>928.112543</ele>
        <time>2025-07-10T09:15:01.000Z</time>
      </trkpt>
      <trkpt lat="44.79369" lon="5.91026">
        <ele>928.047942</ele>
        <time>2025-07-10T09:15:02.000Z</time>
      </trkpt>
      <trkpt lat="44.79374" lon="5.91027">
        <ele>927.982081</ele>
        <time>2025-07-10T09:15:03.000Z</time>
      </trkpt>
      <trkpt lat="44.79379" lon="5.91027">
        <ele>927.91622</ele>
        <time>2025-07-10T09:15:04.000Z</time>
      </trkpt>
      <trkpt lat="44.79384" lon="5.91028">
        <ele>927.850469</ele>
        <time>2025-07-10T09:15:05.000Z</time>
      </trkpt>
      <trkpt lat="44.79389" lon="5.91028">
        <ele>927.786057</ele>
        <time>2025-07-10T09:15:06.000Z</time>
      </trkpt>
      <trkpt lat="44.79394" lon="5.91029">
        <ele>927.720121</ele>
        <time>2025-07-10T09:15:07.000Z</time>
      </trkpt>
      <trkpt lat="44.79399" lon="5.91029">
        <ele>927.65426</ele>
        <time>2025-07-10T09:15:08.000Z</time>
      </trkpt>
      <trkpt lat="44.79404" lon="5.9103">
        <ele>927.589659</ele>
        <time>2025-07-10T09:15:09.000Z</time>
      </trkpt>
      <trkpt lat="44.79408" lon="5.9103">
        <ele>927.523798</ele>
        <time>2025-07-10T09:15:10.000Z</time>
      </trkpt>
      <trkpt lat="44.79413" lon="5.91031">
        <ele>927.459106</ele>
        <time>2025-07-10T09:15:11.000Z</time>
      </trkpt>
      <trkpt lat="44.79418" lon="5.91032">
        <ele>927.394309</ele>
        <time>2025-07-10T09:15:12.000Z</time>
      </trkpt>
      <trkpt lat="44.79423" lon="5.91032">
        <ele>927.328283</ele>
        <time>2025-07-10T09:15:13.000Z</time>
      </trkpt>
      <trkpt lat="44.79428" lon="5.91033">
        <ele>927.262258</ele>
        <time>2025-07-10T09:15:14.000Z</time>
      </trkpt>
      <trkpt lat="44.79433" lon="5.91034">
        <ele>927.194898</ele>
        <time>2025-07-10T09:15:15.000Z</time>
      </trkpt>
      <trkpt lat="44.79438" lon="5.91035">
        <ele>927.130101</ele>
        <time>2025-07-10T09:15:16.000Z</time>
      </trkpt>
      <trkpt lat="44.79442" lon="5.91035">
        <ele>927.065409</ele>
        <time>2025-07-10T09:15:17.000Z</time>
      </trkpt>
      <trkpt lat="44.79447" lon="5.91036">
        <ele>926.999384</ele>
        <time>2025-07-10T09:15:18.000Z</time>
      </trkpt>
      <trkpt lat="44.79452" lon="5.91037">
        <ele>926.933139</ele>
        <time>2025-07-10T09:15:19.000Z</time>
      </trkpt>
      <trkpt lat="44.79457" lon="5.91038">
        <ele>926.862362</ele>
        <time>2025-07-10T09:15:20.000Z</time>
      </trkpt>
      <trkpt lat="44.79462" lon="5.91038">
        <ele>926.791183</ele>
        <time>2025-07-10T09:15:21.000Z</time>
      </trkpt>
      <trkpt lat="44.79468" lon="5.91038">
        <ele>926.71861</ele>
        <time>2025-07-10T09:15:22.000Z</time>
      </trkpt>
      <trkpt lat="44.79473" lon="5.91039">
        <ele>926.648439</ele>
        <time>2025-07-10T09:15:23.000Z</time>
      </trkpt>
      <trkpt lat="44.79478" lon="5.9104">
        <ele>926.575383</ele>
        <time>2025-07-10T09:15:24.000Z</time>
      </trkpt>
      <trkpt lat="44.79483" lon="5.91041">
        <ele>926.503929</ele>
        <time>2025-07-10T09:15:25.000Z</time>
      </trkpt>
      <trkpt lat="44.79488" lon="5.91041">
        <ele>926.435422</ele>
        <time>2025-07-10T09:15:26.000Z</time>
      </trkpt>
      <trkpt lat="44.79493" lon="5.91042">
        <ele>926.365446</ele>
        <time>2025-07-10T09:15:27.000Z</time>
      </trkpt>
      <trkpt lat="44.79498" lon="5.91042">
        <ele>926.292827</ele>
        <time>2025-07-10T09:15:28.000Z</time>
      </trkpt>
      <trkpt lat="44.79503" lon="5.91043">
        <ele>926.220207</ele>
        <time>2025-07-10T09:15:29.000Z</time>
      </trkpt>
      <trkpt lat="44.79509" lon="5.91043">
        <ele>926.146195</ele>
        <time>2025-07-10T09:15:30.000Z</time>
      </trkpt>
      <trkpt lat="44.79514" lon="5.91044">
        <ele>926.073514</ele>
        <time>2025-07-10T09:15:31.000Z</time>
      </trkpt>
      <trkpt lat="44.79519" lon="5.91044">
        <ele>925.99937</ele>
        <time>2025-07-10T09:15:32.000Z</time>
      </trkpt>
      <trkpt lat="44.79524" lon="5.91045">
        <ele>925.925225</ele>
        <time>2025-07-10T09:15:33.000Z</time>
      </trkpt>
      <trkpt lat="44.7953" lon="5.91045">
        <ele>925.850995</ele>
        <time>2025-07-10T09:15:34.000Z</time>
      </trkpt>
      <trkpt lat="44.79535" lon="5.91046">
        <ele>925.778053</ele>
        <time>2025-07-10T09:15:35.000Z</time>
      </trkpt>
      <trkpt lat="44.7954" lon="5.91047">
        <ele>925.703612</ele>
        <time>2025-07-10T09:15:36.000Z</time>
      </trkpt>
      <trkpt lat="44.79545" lon="5.91048">
        <ele>925.629171</ele>
        <time>2025-07-10T09:15:37.000Z</time>
      </trkpt>
      <trkpt lat="44.79551" lon="5.91049">
        <ele>925.555026</ele>
        <time>2025-07-10T09:15:38.000Z</time>
      </trkpt>
      <trkpt lat="44.79556" lon="5.91049">
        <ele>925.479492</ele>
        <time>2025-07-10T09:15:39.000Z</time>
      </trkpt>
      <trkpt lat="44.79562" lon="5.9105">
        <ele>925.403873</ele>
        <time>2025-07-10T09:15:40.000Z</time>
      </trkpt>
      <trkpt lat="44.79567" lon="5.91051">
        <ele>925.326771</ele>
        <time>2025-07-10T09:15:41.000Z</time>
      </trkpt>
      <trkpt lat="44.79573" lon="5.91051">
        <ele>925.249763</ele>
        <time>2025-07-10T09:15:42.000Z</time>
      </trkpt>
      <trkpt lat="44.79578" lon="5.91052">
        <ele>925.172839</ele>
        <time>2025-07-10T09:15:43.000Z</time>
      </trkpt>
      <trkpt lat="44.79583" lon="5.91053">
        <ele>925.098509</ele>
        <time>2025-07-10T09:15:44.000Z</time>
      </trkpt>
      <trkpt lat="44.79589" lon="5.91054">
        <ele>925.022891</ele>
        <time>2025-07-10T09:15:45.000Z</time>
      </trkpt>
      <trkpt lat="44.79594" lon="5.91054">
        <ele>924.947272</ele>
        <time>2025-07-10T09:15:46.000Z</time>
      </trkpt>
      <trkpt lat="44.796" lon="5.91055">
        <ele>924.871556</ele>
        <time>2025-07-10T09:15:47.000Z</time>
      </trkpt>
      <trkpt lat="44.79605" lon="5.91056">
        <ele>924.795938</ele>
        <time>2025-07-10T09:15:48.000Z</time>
      </trkpt>
      <trkpt lat="44.7961" lon="5.91056">
        <ele>924.720319</ele>
        <time>2025-07-10T09:15:49.000Z</time>
      </trkpt>
      <trkpt lat="44.79616" lon="5.91057">
        <ele>924.644701</ele>
        <time>2025-07-10T09:15:50.000Z</time>
      </trkpt>
      <trkpt lat="44.79621" lon="5.91058">
        <ele>924.569237</ele>
        <time>2025-07-10T09:15:51.000Z</time>
      </trkpt>
      <trkpt lat="44.79626" lon="5.91058">
        <ele>924.495166</ele>
        <time>2025-07-10T09:15:52.000Z</time>
      </trkpt>
      <trkpt lat="44.79632" lon="5.91058">
        <ele>924.419839</ele>
        <time>2025-07-10T09:15:53.000Z</time>
      </trkpt>
      <trkpt lat="44.79637" lon="5.91058">
        <ele>924.400038</ele>
        <time>2025-07-10T09:15:54.000Z</time>
      </trkpt>
      <trkpt lat="44.79643" lon="5.91055">
        <ele>924.393172</ele>
        <time>2025-07-10T09:15:55.000Z</time>
      </trkpt>
      <trkpt lat="44.79647" lon="5.91051">
        <ele>924.386747</ele>
        <time>2025-07-10T09:15:56.000Z</time>
      </trkpt>
      <trkpt lat="44.79651" lon="5.91046">
        <ele>924.380601</ele>
        <time>2025-07-10T09:15:57.000Z</time>
      </trkpt>
      <trkpt lat="44.79653" lon="5.91041">
        <ele>924.374662</ele>
        <time>2025-07-10T09:15:58.000Z</time>
      </trkpt>
      <trkpt lat="44.79655" lon="5.91034">
        <ele>924.36865</ele>
        <time>2025-07-10T09:15:59.000Z</time>
      </trkpt>
      <trkpt lat="44.79657" lon="5.91028">
        <ele>924.362578</ele>
        <time>2025-07-10T09:16:00.000Z</time>
      </trkpt>
      <trkpt lat="44.79659" lon="5.91022">
        <ele>924.356588</ele>
        <time>2025-07-10T09:16:01.000Z</time>
      </trkpt>
      <trkpt lat="44.79661" lon="5.91016">
        <ele>924.350677</ele>
        <time>2025-07-10T09:16:02.000Z</time>
      </trkpt>
      <trkpt lat="44.79663" lon="5.91009">
        <ele>924.344896</ele>
        <time>2025-07-10T09:16:03.000Z</time>
      </trkpt>
      <trkpt lat="44.79665" lon="5.91003">
        <ele>924.339066</ele>
        <time>2025-07-10T09:16:04.000Z</time>
      </trkpt>
      <trkpt lat="44.79667" lon="5.90997">
        <ele>924.333236</ele>
        <time>2025-07-10T09:16:05.000Z</time>
      </trkpt>
      <trkpt lat="44.79669" lon="5.90991">
        <ele>924.327196</ele>
        <time>2025-07-10T09:16:06.000Z</time>
      </trkpt>
      <trkpt lat="44.7967" lon="5.90985">
        <ele>924.321206</ele>
        <time>2025-07-10T09:16:07.000Z</time>
      </trkpt>
      <trkpt lat="44.79672" lon="5.90979">
        <ele>924.315404</ele>
        <time>2025-07-10T09:16:08.000Z</time>
      </trkpt>
      <trkpt lat="44.79675" lon="5.90972">
        <ele>924.309392</ele>
        <time>2025-07-10T09:16:09.000Z</time>
      </trkpt>
      <trkpt lat="44.79677" lon="5.90966">
        <ele>924.303459</ele>
        <time>2025-07-10T09:16:10.000Z</time>
      </trkpt>
      <trkpt lat="44.79679" lon="5.9096">
        <ele>924.297419</ele>
        <time>2025-07-10T09:16:11.000Z</time>
      </trkpt>
      <trkpt lat="44.7968" lon="5.90954">
        <ele>924.291557</ele>
        <time>2025-07-10T09:16:12.000Z</time>
      </trkpt>
      <trkpt lat="44.79682" lon="5.90948">
        <ele>924.285821</ele>
        <time>2025-07-10T09:16:13.000Z</time>
      </trkpt>
      <trkpt lat="44.79684" lon="5.90942">
        <ele>924.280151</ele>
        <time>2025-07-10T09:16:14.000Z</time>
      </trkpt>
      <trkpt lat="44.79686" lon="5.90936">
        <ele>924.274868</ele>
        <time>2025-07-10T09:16:15.000Z</time>
      </trkpt>
      <trkpt lat="44.79687" lon="5.9093">
        <ele>924.269422</ele>
        <time>2025-07-10T09:16:16.000Z</time>
      </trkpt>
      <trkpt lat="44.79689" lon="5.90925">
        <ele>924.26385</ele>
        <time>2025-07-10T09:16:17.000Z</time>
      </trkpt>
      <trkpt lat="44.79691" lon="5.90919">
        <ele>924.258485</ele>
        <time>2025-07-10T09:16:18.000Z</time>
      </trkpt>
      <trkpt lat="44.79692" lon="5.90913">
        <ele>924.253121</ele>
        <time>2025-07-10T09:16:19.000Z</time>
      </trkpt>
      <trkpt lat="44.79694" lon="5.90907">
        <ele>924.247675</ele>
        <time>2025-07-10T09:16:20.000Z</time>
      </trkpt>
      <trkpt lat="44.79695" lon="5.90902">
        <ele>924.242392</ele>
        <time>2025-07-10T09:16:21.000Z</time>
      </trkpt>
      <trkpt lat="44.79697" lon="5.90896">
        <ele>924.237062</ele>
        <time>2025-07-10T09:16:22.000Z</time>
      </trkpt>
      <trkpt lat="44.79699" lon="5.90891">
        <ele>924.231779</ele>
        <time>2025-07-10T09:16:23.000Z</time>
      </trkpt>
      <trkpt lat="44.797" lon="5.90885">
        <ele>924.226529</ele>
        <time>2025-07-10T09:16:24.000Z</time>
      </trkpt>
      <trkpt lat="44.79702" lon="5.9088">
        <ele>924.221121</ele>
        <time>2025-07-10T09:16:25.000Z</time>
      </trkpt>
      <trkpt lat="44.79704" lon="5.90874">
        <ele>924.21579</ele>
        <time>2025-07-10T09:16:26.000Z</time>
      </trkpt>
      <trkpt lat="44.79706" lon="5.90869">
        <ele>924.210671</ele>
        <time>2025-07-10T09:16:27.000Z</time>
      </trkpt>
      <trkpt lat="44.79708" lon="5.90864">
        <ele>924.205397</ele>
        <time>2025-07-10T09:16:28.000Z</time>
      </trkpt>
      <trkpt lat="44.7971" lon="5.90858">
        <ele>924.200227</ele>
        <time>2025-07-10T09:16:29.000Z</time>
      </trkpt>
      <trkpt lat="44.79711" lon="5.90853">
        <ele>924.195152</ele>
        <time>2025-07-10T09:16:30.000Z</time>
      </trkpt>
      <trkpt lat="44.79713" lon="5.90847">
        <ele>924.18995</ele>
        <time>2025-07-10T09:16:31.000Z</time>
      </trkpt>
      <trkpt lat="44.79715" lon="5.90842">
        <ele>924.1847</ele>
        <time>2025-07-10T09:16:32.000Z</time>
      </trkpt>
      <trkpt lat="44.79716" lon="5.90836">
        <ele>924.292944</ele>
        <time>2025-07-10T09:16:33.000Z</time>
      </trkpt>
      <trkpt lat="44.79718" lon="5.9083">
        <ele>924.429199</ele>
        <time>2025-07-10T09:16:34.000Z</time>
      </trkpt>
      <trkpt lat="44.79721" lon="5.90825">
        <ele>924.566358</ele>
        <time>2025-07-10T09:16:35.000Z</time>
      </trkpt>
      <trkpt lat="44.79722" lon="5.90819">
        <ele>924.700046</ele>
        <time>2025-07-10T09:16:36.000Z</time>
      </trkpt>
      <trkpt lat="44.79724" lon="5.90813">
        <ele>924.833734</ele>
        <time>2025-07-10T09:16:37.000Z</time>
      </trkpt>
      <trkpt lat="44.79726" lon="5.90808">
        <ele>924.961107</ele>
        <time>2025-07-10T09:16:38.000Z</time>
      </trkpt>
      <trkpt lat="44.79728" lon="5.90802">
        <ele>925.095445</ele>
        <time>2025-07-10T09:16:39.000Z</time>
      </trkpt>
      <trkpt lat="44.7973" lon="5.90797">
        <ele>925.232332</ele>
        <time>2025-07-10T09:16:40.000Z</time>
      </trkpt>
      <trkpt lat="44.79732" lon="5.90791">
        <ele>925.369218</ele>
        <time>2025-07-10T09:16:41.000Z</time>
      </trkpt>
      <trkpt lat="44.79734" lon="5.90785">
        <ele>925.504162</ele>
        <time>2025-07-10T09:16:42.000Z</time>
      </trkpt>
      <trkpt lat="44.79736" lon="5.90779">
        <ele>925.639884</ele>
        <time>2025-07-10T09:16:43.000Z</time>
      </trkpt>
      <trkpt lat="44.79738" lon="5.90774">
        <ele>925.770961</ele>
        <time>2025-07-10T09:16:44.000Z</time>
      </trkpt>
      <trkpt lat="44.79739" lon="5.90768">
        <ele>925.90231</ele>
        <time>2025-07-10T09:16:45.000Z</time>
      </trkpt>
      <trkpt lat="44.79741" lon="5.90763">
        <ele>926.031558</ele>
        <time>2025-07-10T09:16:46.000Z</time>
      </trkpt>
      <trkpt lat="44.79742" lon="5.90757">
        <ele>926.166502</ele>
        <time>2025-07-10T09:16:47.000Z</time>
      </trkpt>
      <trkpt lat="44.79744" lon="5.90751">
        <ele>926.297579</ele>
        <time>2025-07-10T09:16:48.000Z</time>
      </trkpt>
      <trkpt lat="44.79746" lon="5.90746">
        <ele>926.430006</ele>
        <time>2025-07-10T09:16:49.000Z</time>
      </trkpt>
      <trkpt lat="44.79748" lon="5.9074">
        <ele>926.563694</ele>
        <time>2025-07-10T09:16:50.000Z</time>
      </trkpt>
      <trkpt lat="44.7975" lon="5.90735">
        <ele>926.692242</ele>
        <time>2025-07-10T09:16:51.000Z</time>
      </trkpt>
      <trkpt lat="44.79752" lon="5.90729">
        <ele>926.81948</ele>
        <time>2025-07-10T09:16:52.000Z</time>
      </trkpt>
      <trkpt lat="44.79754" lon="5.90724">
        <ele>926.944809</ele>
        <time>2025-07-10T09:16:53.000Z</time>
      </trkpt>
      <trkpt lat="44.79755" lon="5.90719">
        <ele>927.065548</ele>
        <time>2025-07-10T09:16:54.000Z</time>
      </trkpt>
      <trkpt lat="44.79757" lon="5.90714">
        <ele>927.179991</ele>
        <time>2025-07-10T09:16:55.000Z</time>
      </trkpt>
      <trkpt lat="44.79759" lon="5.9071">
        <ele>927.289229</ele>
        <time>2025-07-10T09:16:56.000Z</time>
      </trkpt>
      <trkpt lat="44.79761" lon="5.90706">
        <ele>927.390982</ele>
        <time>2025-07-10T09:16:57.000Z</time>
      </trkpt>
      <trkpt lat="44.79762" lon="5.90702">
        <ele>927.482292</ele>
        <time>2025-07-10T09:16:58.000Z</time>
      </trkpt>
      <trkpt lat="44.79764" lon="5.90698">
        <ele>927.573602</ele>
        <time>2025-07-10T09:16:59.000Z</time>
      </trkpt>
      <trkpt lat="44.79765" lon="5.90695">
        <ele>927.657577</ele>
        <time>2025-07-10T09:17:00.000Z</time>
      </trkpt>
      <trkpt lat="44.79767" lon="5.90692">
        <ele>927.732954</ele>
        <time>2025-07-10T09:17:01.000Z</time>
      </trkpt>
      <trkpt lat="44.79769" lon="5.9069">
        <ele>927.818084</ele>
        <time>2025-07-10T09:17:02.000Z</time>
      </trkpt>
      <trkpt lat="44.7977" lon="5.90687">
        <ele>927.893841</ele>
        <time>2025-07-10T09:17:03.000Z</time>
      </trkpt>
      <trkpt lat="44.79772" lon="5.90685">
        <ele>927.964404</ele>
        <time>2025-07-10T09:17:04.000Z</time>
      </trkpt>
      <trkpt lat="44.79774" lon="5.90682">
        <ele>928.0341</ele>
        <time>2025-07-10T09:17:05.000Z</time>
      </trkpt>
      <trkpt lat="44.79775" lon="5.9068">
        <ele>928.104664</ele>
        <time>2025-07-10T09:17:06.000Z</time>
      </trkpt>
      <trkpt lat="44.79777" lon="5.90678">
        <ele>928.175228</ele>
        <time>2025-07-10T09:17:07.000Z</time>
      </trkpt>
      <trkpt lat="44.79779" lon="5.90676">
        <ele>928.24066</ele>
        <time>2025-07-10T09:17:08.000Z</time>
      </trkpt>
      <trkpt lat="44.79781" lon="5.90675">
        <ele>928.302744</ele>
        <time>2025-07-10T09:17:09.000Z</time>
      </trkpt>
      <trkpt lat="44.79783" lon="5.90674">
        <ele>928.370178</ele>
        <time>2025-07-10T09:17:10.000Z</time>
      </trkpt>
      <trkpt lat="44.79785" lon="5.90672">
        <ele>928.431909</ele>
        <time>2025-07-10T09:17:11.000Z</time>
      </trkpt>
      <trkpt lat="44.79786" lon="5.90671">
        <ele>928.495688</ele>
        <time>2025-07-10T09:17:12.000Z</time>
      </trkpt>
      <trkpt lat="44.79788" lon="5.90669">
        <ele>928.560432</ele>
        <time>2025-07-10T09:17:13.000Z</time>
      </trkpt>
      <trkpt lat="44.7979" lon="5.90668">
        <ele>928.62246</ele>
        <time>2025-07-10T09:17:14.000Z</time>
      </trkpt>
      <trkpt lat="44.79792" lon="5.90668">
        <ele>928.67786</ele>
        <time>2025-07-10T09:17:15.000Z</time>
      </trkpt>
      <trkpt lat="44.79794" lon="5.90667">
        <ele>928.733261</ele>
        <time>2025-07-10T09:17:16.000Z</time>
      </trkpt>
      <trkpt lat="44.79796" lon="5.90667">
        <ele>928.791272</ele>
        <time>2025-07-10T09:17:17.000Z</time>
      </trkpt>
      <trkpt lat="44.79797" lon="5.90667">
        <ele>928.842607</ele>
        <time>2025-07-10T09:17:18.000Z</time>
      </trkpt>
      <trkpt lat="44.79799" lon="5.90667">
        <ele>928.89713</ele>
        <time>2025-07-10T09:17:19.000Z</time>
      </trkpt>
      <trkpt lat="44.79801" lon="5.90667">
        <ele>928.96058</ele>
        <time>2025-07-10T09:17:20.000Z</time>
      </trkpt>
      <trkpt lat="44.79804" lon="5.90667">
        <ele>929.027048</ele>
        <time>2025-07-10T09:17:21.000Z</time>
      </trkpt>
      <trkpt lat="44.79806" lon="5.90667">
        <ele>929.093482</ele>
        <time>2025-07-10T09:17:22.000Z</time>
      </trkpt>
      <trkpt lat="44.79808" lon="5.90667">
        <ele>929.15704</ele>
        <time>2025-07-10T09:17:23.000Z</time>
      </trkpt>
      <trkpt lat="44.7981" lon="5.90667">
        <ele>929.214455</ele>
        <time>2025-07-10T09:17:24.000Z</time>
      </trkpt>
      <trkpt lat="44.79812" lon="5.90667">
        <ele>929.271829</ele>
        <time>2025-07-10T09:17:25.000Z</time>
      </trkpt>
      <trkpt lat="44.79814" lon="5.90667">
        <ele>929.329244</ele>
        <time>2025-07-10T09:17:26.000Z</time>
      </trkpt>
      <trkpt lat="44.79816" lon="5.90667">
        <ele>929.392694</ele>
        <time>2025-07-10T09:17:27.000Z</time>
      </trkpt>
      <trkpt lat="44.79818" lon="5.90667">
        <ele>929.459162</ele>
        <time>2025-07-10T09:17:28.000Z</time>
      </trkpt>
      <trkpt lat="44.7982" lon="5.90667">
        <ele>929.534776</ele>
        <time>2025-07-10T09:17:29.000Z</time>
      </trkpt>
      <trkpt lat="44.79823" lon="5.90667">
        <ele>929.601244</ele>
        <time>2025-07-10T09:17:30.000Z</time>
      </trkpt>
      <trkpt lat="44.79824" lon="5.90667">
        <ele>929.689132</ele>
        <time>2025-07-10T09:17:31.000Z</time>
      </trkpt>
      <trkpt lat="44.79826" lon="5.90667">
        <ele>929.771305</ele>
        <time>2025-07-10T09:17:32.000Z</time>
      </trkpt>
      <trkpt lat="44.79828" lon="5.90667">
        <ele>929.864331</ele>
        <time>2025-07-10T09:17:33.000Z</time>
      </trkpt>
      <trkpt lat="44.79829" lon="5.90668">
        <ele>929.968951</ele>
        <time>2025-07-10T09:17:34.000Z</time>
      </trkpt>
      <trkpt lat="44.79832" lon="5.90668">
        <ele>930.084454</ele>
        <time>2025-07-10T09:17:35.000Z</time>
      </trkpt>
      <trkpt lat="44.79834" lon="5.90668">
        <ele>930.199433</ele>
        <time>2025-07-10T09:17:36.000Z</time>
      </trkpt>
      <trkpt lat="44.79836" lon="5.90668">
        <ele>930.304054</ele>
        <time>2025-07-10T09:17:37.000Z</time>
      </trkpt>
      <trkpt lat="44.79838" lon="5.90668">
        <ele>930.429972</ele>
        <time>2025-07-10T09:17:38.000Z</time>
      </trkpt>
      <trkpt lat="44.7984" lon="5.90669">
        <ele>930.544951</ele>
        <time>2025-07-10T09:17:39.000Z</time>
      </trkpt>
      <trkpt lat="44.79842" lon="5.90669">
        <ele>930.6383</ele>
        <time>2025-07-10T09:17:40.000Z</time>
      </trkpt>
      <trkpt lat="44.79843" lon="5.90669">
        <ele>930.731407</ele>
        <time>2025-07-10T09:17:41.000Z</time>
      </trkpt>
      <trkpt lat="44.79845" lon="5.90669">
        <ele>930.83021</ele>
        <time>2025-07-10T09:17:42.000Z</time>
      </trkpt>
      <trkpt lat="44.79847" lon="5.90669">
        <ele>930.928708</ele>
        <time>2025-07-10T09:17:43.000Z</time>
      </trkpt>
      <trkpt lat="44.79849" lon="5.90669">
        <ele>931.043884</ele>
        <time>2025-07-10T09:17:44.000Z</time>
      </trkpt>
      <trkpt lat="44.79851" lon="5.90669">
        <ele>931.153944</ele>
        <time>2025-07-10T09:17:45.000Z</time>
      </trkpt>
      <trkpt lat="44.79853" lon="5.9067">
        <ele>931.280757</ele>
        <time>2025-07-10T09:17:46.000Z</time>
      </trkpt>
      <trkpt lat="44.79855" lon="5.9067">
        <ele>931.398009</ele>
        <time>2025-07-10T09:17:47.000Z</time>
      </trkpt>
      <trkpt lat="44.79857" lon="5.90671">
        <ele>931.508547</ele>
        <time>2025-07-10T09:17:48.000Z</time>
      </trkpt>
      <trkpt lat="44.79859" lon="5.90671">
        <ele>931.586037</ele>
        <time>2025-07-10T09:17:49.000Z</time>
      </trkpt>
      <trkpt lat="44.7986" lon="5.90671">
        <ele>931.669575</ele>
        <time>2025-07-10T09:17:50.000Z</time>
      </trkpt>
      <trkpt lat="44.79862" lon="5.90672">
        <ele>931.771754</ele>
        <time>2025-07-10T09:17:51.000Z</time>
      </trkpt>
      <trkpt lat="44.79864" lon="5.90672">
        <ele>931.882292</ele>
        <time>2025-07-10T09:17:52.000Z</time>
      </trkpt>
      <trkpt lat="44.79866" lon="5.90673">
        <ele>931.997178</ele>
        <time>2025-07-10T09:17:53.000Z</time>
      </trkpt>
      <trkpt lat="44.79868" lon="5.90674">
        <ele>932.104642</ele>
        <time>2025-07-10T09:17:54.000Z</time>
      </trkpt>
      <trkpt lat="44.7987" lon="5.90675">
        <ele>932.224752</ele>
        <time>2025-07-10T09:17:55.000Z</time>
      </trkpt>
      <trkpt lat="44.79872" lon="5.90675">
        <ele>932.347372</ele>
        <time>2025-07-10T09:17:56.000Z</time>
      </trkpt>
      <trkpt lat="44.79874" lon="5.90676">
        <ele>932.45392</ele>
        <time>2025-07-10T09:17:57.000Z</time>
      </trkpt>
      <trkpt lat="44.79876" lon="5.90677">
        <ele>932.561384</ele>
        <time>2025-07-10T09:17:58.000Z</time>
      </trkpt>
      <trkpt lat="44.79879" lon="5.90678">
        <ele>932.699485</ele>
        <time>2025-07-10T09:17:59.000Z</time>
      </trkpt>
      <trkpt lat="44.79881" lon="5.90679">
        <ele>932.830118</ele>
        <time>2025-07-10T09:18:00.000Z</time>
      </trkpt>
      <trkpt lat="44.79883" lon="5.90681">
        <ele>932.959974</ele>
        <time>2025-07-10T09:18:01.000Z</time>
      </trkpt>
      <trkpt lat="44.79885" lon="5.90683">
        <ele>933.101167</ele>
        <time>2025-07-10T09:18:02.000Z</time>
      </trkpt>
      <trkpt lat="44.79887" lon="5.90685">
        <ele>933.2318</ele>
        <time>2025-07-10T09:18:03.000Z</time>
      </trkpt>
      <trkpt lat="44.79889" lon="5.90686">
        <ele>933.350748</ele>
        <time>2025-07-10T09:18:04.000Z</time>
      </trkpt>
      <trkpt lat="44.79891" lon="5.90687">
        <ele>933.474723</ele>
        <time>2025-07-10T09:18:05.000Z</time>
      </trkpt>
      <trkpt lat="44.79893" lon="5.90689">
        <ele>933.609223</ele>
        <time>2025-07-10T09:18:06.000Z</time>
      </trkpt>
      <trkpt lat="44.79896" lon="5.90691">
        <ele>933.761118</ele>
        <time>2025-07-10T09:18:07.000Z</time>
      </trkpt>
      <trkpt lat="44.79898" lon="5.90693">
        <ele>933.904378</ele>
        <time>2025-07-10T09:18:08.000Z</time>
      </trkpt>
      <trkpt lat="44.799" lon="5.90695">
        <ele>934.045283</ele>
        <time>2025-07-10T09:18:09.000Z</time>
      </trkpt>
      <trkpt lat="44.79902" lon="5.90697">
        <ele>934.181762</ele>
        <time>2025-07-10T09:18:10.000Z</time>
      </trkpt>
      <trkpt lat="44.79904" lon="5.90699">
        <ele>934.320595</ele>
        <time>2025-07-10T09:18:11.000Z</time>
      </trkpt>
      <trkpt lat="44.79906" lon="5.90701">
        <ele>934.4615</ele>
        <time>2025-07-10T09:18:12.000Z</time>
      </trkpt>
      <trkpt lat="44.79908" lon="5.90703">
        <ele>934.595695</ele>
        <time>2025-07-10T09:18:13.000Z</time>
      </trkpt>
      <trkpt lat="44.7991" lon="5.90705">
        <ele>934.72318</ele>
        <time>2025-07-10T09:18:14.000Z</time>
      </trkpt>
      <trkpt lat="44.79912" lon="5.90707">
        <ele>934.855166</ele>
        <time>2025-07-10T09:18:15.000Z</time>
      </trkpt>
      <trkpt lat="44.79914" lon="5.90709">
        <ele>934.993999</ele>
        <time>2025-07-10T09:18:16.000Z</time>
      </trkpt>
      <trkpt lat="44.79916" lon="5.90712">
        <ele>935.12613</ele>
        <time>2025-07-10T09:18:17.000Z</time>
      </trkpt>
      <trkpt lat="44.79918" lon="5.90714">
        <ele>935.25156</ele>
        <time>2025-07-10T09:18:18.000Z</time>
      </trkpt>
      <trkpt lat="44.79919" lon="5.90716">
        <ele>935.364556</ele>
        <time>2025-07-10T09:18:19.000Z</time>
      </trkpt>
      <trkpt lat="44.7992" lon="5.90717">
        <ele>935.46568</ele>
        <time>2025-07-10T09:18:20.000Z</time>
      </trkpt>
      <trkpt lat="44.79922" lon="5.90719">
        <ele>935.582036</ele>
        <time>2025-07-10T09:18:21.000Z</time>
      </trkpt>
      <trkpt lat="44.79924" lon="5.90721">
        <ele>935.70519</ele>
        <time>2025-07-10T09:18:22.000Z</time>
      </trkpt>
      <trkpt lat="44.79926" lon="5.90723">
        <ele>935.815553</ele>
        <time>2025-07-10T09:18:23.000Z</time>
      </trkpt>
      <trkpt lat="44.79927" lon="5.90725">
        <ele>935.924639</ele>
        <time>2025-07-10T09:18:24.000Z</time>
      </trkpt>
      <trkpt lat="44.79928" lon="5.90727">
        <ele>936.02599</ele>
        <time>2025-07-10T09:18:25.000Z</time>
      </trkpt>
      <trkpt lat="44.79929" lon="5.90729">
        <ele>936.136929</ele>
        <time>2025-07-10T09:18:26.000Z</time>
      </trkpt>
      <trkpt lat="44.7993" lon="5.90731">
        <ele>936.241623</ele>
        <time>2025-07-10T09:18:27.000Z</time>
      </trkpt>
      <trkpt lat="44.79931" lon="5.90733">
        <ele>936.34307</ele>
        <time>2025-07-10T09:18:28.000Z</time>
      </trkpt>
      <trkpt lat="44.79932" lon="5.90736">
        <ele>936.447808</ele>
        <time>2025-07-10T09:18:29.000Z</time>
      </trkpt>
      <trkpt lat="44.79934" lon="5.90738">
        <ele>936.561808</ele>
        <time>2025-07-10T09:18:30.000Z</time>
      </trkpt>
      <trkpt lat="44.79935" lon="5.9074">
        <ele>936.669554</ele>
        <time>2025-07-10T09:18:31.000Z</time>
      </trkpt>
      <trkpt lat="44.79936" lon="5.90743">
        <ele>936.796285</ele>
        <time>2025-07-10T09:18:32.000Z</time>
      </trkpt>
      <trkpt lat="44.79937" lon="5.90745">
        <ele>936.913523</ele>
        <time>2025-07-10T09:18:33.000Z</time>
      </trkpt>
      <trkpt lat="44.79939" lon="5.90748">
        <ele>937.037228</ele>
        <time>2025-07-10T09:18:34.000Z</time>
      </trkpt>
      <trkpt lat="44.7994" lon="5.9075">
        <ele>937.151404</ele>
        <time>2025-07-10T09:18:35.000Z</time>
      </trkpt>
      <trkpt lat="44.79941" lon="5.90753">
        <ele>937.271835</ele>
        <time>2025-07-10T09:18:36.000Z</time>
      </trkpt>
      <trkpt lat="44.79942" lon="5.90755">
        <ele>937.382684</ele>
        <time>2025-07-10T09:18:37.000Z</time>
      </trkpt>
      <trkpt lat="44.79944" lon="5.90758">
        <ele>937.493533</ele>
        <time>2025-07-10T09:18:38.000Z</time>
      </trkpt>
      <trkpt lat="44.79945" lon="5.9076">
        <ele>937.591733</ele>
        <time>2025-07-10T09:18:39.000Z</time>
      </trkpt>
      <trkpt lat="44.79946" lon="5.90761">
        <ele>937.691459</ele>
        <time>2025-07-10T09:18:40.000Z</time>
      </trkpt>
      <trkpt lat="44.79947" lon="5.90764">
        <ele>937.799204</ele>
        <time>2025-07-10T09:18:41.000Z</time>
      </trkpt>
      <trkpt lat="44.79948" lon="5.90766">
        <ele>937.900652</ele>
        <time>2025-07-10T09:18:42.000Z</time>
      </trkpt>
      <trkpt lat="44.79949" lon="5.90768">
        <ele>938.009502</ele>
        <time>2025-07-10T09:18:43.000Z</time>
      </trkpt>
      <trkpt lat="44.7995" lon="5.90771">
        <ele>938.110256</ele>
        <time>2025-07-10T09:18:44.000Z</time>
      </trkpt>
      <trkpt lat="44.79951" lon="5.90773">
        <ele>938.214756</ele>
        <time>2025-07-10T09:18:45.000Z</time>
      </trkpt>
      <trkpt lat="44.79952" lon="5.90775">
        <ele>938.3295</ele>
        <time>2025-07-10T09:18:46.000Z</time>
      </trkpt>
      <trkpt lat="44.79953" lon="5.90777">
        <ele>938.437709</ele>
        <time>2025-07-10T09:18:47.000Z</time>
      </trkpt>
      <trkpt lat="44.79955" lon="5.90779">
        <ele>938.548874</ele>
        <time>2025-07-10T09:18:48.000Z</time>
      </trkpt>
      <trkpt lat="44.79956" lon="5.90781">
        <ele>938.65523</ele>
        <time>2025-07-10T09:18:49.000Z</time>
      </trkpt>
      <trkpt lat="44.79958" lon="5.90784">
        <ele>938.781527</ele>
        <time>2025-07-10T09:18:50.000Z</time>
      </trkpt>
      <trkpt lat="44.79959" lon="5.90785">
        <ele>938.884469</ele>
        <time>2025-07-10T09:18:51.000Z</time>
      </trkpt>
      <trkpt lat="44.79961" lon="5.90787">
        <ele>938.983234</ele>
        <time>2025-07-10T09:18:52.000Z</time>
      </trkpt>
      <trkpt lat="44.79962" lon="5.90789">
        <ele>939.07768</ele>
        <time>2025-07-10T09:18:53.000Z</time>
      </trkpt>
      <trkpt lat="44.79963" lon="5.9079">
        <ele>939.169619</ele>
        <time>2025-07-10T09:18:54.000Z</time>
      </trkpt>
      <trkpt lat="44.79965" lon="5.90792">
        <ele>939.270265</ele>
        <time>2025-07-10T09:18:55.000Z</time>
      </trkpt>
      <trkpt lat="44.79966" lon="5.90793">
        <ele>939.371327</ele>
        <time>2025-07-10T09:18:56.000Z</time>
      </trkpt>
      <trkpt lat="44.79967" lon="5.90794">
        <ele>939.443969</ele>
        <time>2025-07-10T09:18:57.000Z</time>
      </trkpt>
      <trkpt lat="44.79969" lon="5.90795">
        <ele>939.516889</ele>
        <time>2025-07-10T09:18:58.000Z</time>
      </trkpt>
      <trkpt lat="44.79971" lon="5.90796">
        <ele>939.582539</ele>
        <time>2025-07-10T09:18:59.000Z</time>
      </trkpt>
      <trkpt lat="44.79973" lon="5.90796">
        <ele>939.641925</ele>
        <time>2025-07-10T09:19:00.000Z</time>
      </trkpt>
      <trkpt lat="44.79975" lon="5.90797">
        <ele>939.698138</ele>
        <time>2025-07-10T09:19:01.000Z</time>
      </trkpt>
      <trkpt lat="44.79976" lon="5.90797">
        <ele>939.751187</ele>
        <time>2025-07-10T09:19:02.000Z</time>
      </trkpt>
      <trkpt lat="44.79978" lon="5.90798">
        <ele>939.816291</ele>
        <time>2025-07-10T09:19:03.000Z</time>
      </trkpt>
      <trkpt lat="44.7998" lon="5.90798">
        <ele>939.868538</ele>
        <time>2025-07-10T09:19:04.000Z</time>
      </trkpt>
      <trkpt lat="44.79981" lon="5.90799">
        <ele>939.916622</ele>
        <time>2025-07-10T09:19:05.000Z</time>
      </trkpt>
      <trkpt lat="44.79983" lon="5.908">
        <ele>939.971576</ele>
        <time>2025-07-10T09:19:06.000Z</time>
      </trkpt>
      <trkpt lat="44.79985" lon="5.908">
        <ele>940.031448</ele>
        <time>2025-07-10T09:19:07.000Z</time>
      </trkpt>
      <trkpt lat="44.79986" lon="5.90801">
        <ele>940.084497</ele>
        <time>2025-07-10T09:19:08.000Z</time>
      </trkpt>
      <trkpt lat="44.79988" lon="5.90801">
        <ele>940.142511</ele>
        <time>2025-07-10T09:19:09.000Z</time>
      </trkpt>
      <trkpt lat="44.7999" lon="5.90802">
        <ele>940.210835</ele>
        <time>2025-07-10T09:19:10.000Z</time>
      </trkpt>
      <trkpt lat="44.79992" lon="5.90801">
        <ele>940.276222</ele>
        <time>2025-07-10T09:19:11.000Z</time>
      </trkpt>
      <trkpt lat="44.79994" lon="5.90801">
        <ele>940.341609</ele>
        <time>2025-07-10T09:19:12.000Z</time>
      </trkpt>
      <trkpt lat="44.79996" lon="5.908">
        <ele>940.405115</ele>
        <time>2025-07-10T09:19:13.000Z</time>
      </trkpt>
      <trkpt lat="44.79998" lon="5.90799">
        <ele>940.472411</ele>
        <time>2025-07-10T09:19:14.000Z</time>
      </trkpt>
      <trkpt lat="44.8" lon="5.90798">
        <ele>940.538061</ele>
        <time>2025-07-10T09:19:15.000Z</time>
      </trkpt>
      <trkpt lat="44.80002" lon="5.90797">
        <ele>940.60069</ele>
        <time>2025-07-10T09:19:16.000Z</time>
      </trkpt>
      <trkpt lat="44.80004" lon="5.90796">
        <ele>940.667178</ele>
        <time>2025-07-10T09:19:17.000Z</time>
      </trkpt>
      <trkpt lat="44.80005" lon="5.90794">
        <ele>940.725523</ele>
        <time>2025-07-10T09:19:18.000Z</time>
      </trkpt>
      <trkpt lat="44.80007" lon="5.90793">
        <ele>940.792918</ele>
        <time>2025-07-10T09:19:19.000Z</time>
      </trkpt>
      <trkpt lat="44.80008" lon="5.90792">
        <ele>940.849918</ele>
        <time>2025-07-10T09:19:20.000Z</time>
      </trkpt>
      <trkpt lat="44.8001" lon="5.9079">
        <ele>940.912121</ele>
        <time>2025-07-10T09:19:21.000Z</time>
      </trkpt>
      <trkpt lat="44.80012" lon="5.90789">
        <ele>940.974325</ele>
        <time>2025-07-10T09:19:22.000Z</time>
      </trkpt>
      <trkpt lat="44.80013" lon="5.90787">
        <ele>941.036631</ele>
        <time>2025-07-10T09:19:23.000Z</time>
      </trkpt>
      <trkpt lat="44.80015" lon="5.90785">
        <ele>941.104104</ele>
        <time>2025-07-10T09:19:24.000Z</time>
      </trkpt>
      <trkpt lat="44.80017" lon="5.90784">
        <ele>941.17299</ele>
        <time>2025-07-10T09:19:25.000Z</time>
      </trkpt>
      <trkpt lat="44.80018" lon="5.90782">
        <ele>941.233951</ele>
        <time>2025-07-10T09:19:26.000Z</time>
      </trkpt>
      <trkpt lat="44.8002" lon="5.90781">
        <ele>941.302836</ele>
        <time>2025-07-10T09:19:27.000Z</time>
      </trkpt>
      <trkpt lat="44.80022" lon="5.90779">
        <ele>941.371722</ele>
        <time>2025-07-10T09:19:28.000Z</time>
      </trkpt>
      <trkpt lat="44.80024" lon="5.90778">
        <ele>941.44186</ele>
        <time>2025-07-10T09:19:29.000Z</time>
      </trkpt>
      <trkpt lat="44.80025" lon="5.90776">
        <ele>941.518623</ele>
        <time>2025-07-10T09:19:30.000Z</time>
      </trkpt>
      <trkpt lat="44.80027" lon="5.90774">
        <ele>941.591419</ele>
        <time>2025-07-10T09:19:31.000Z</time>
      </trkpt>
      <trkpt lat="44.80029" lon="5.90772">
        <ele>941.656342</ele>
        <time>2025-07-10T09:19:32.000Z</time>
      </trkpt>
      <trkpt lat="44.80031" lon="5.90771">
        <ele>941.725227</ele>
        <time>2025-07-10T09:19:33.000Z</time>
      </trkpt>
      <trkpt lat="44.80032" lon="5.90769">
        <ele>941.794055</ele>
        <time>2025-07-10T09:19:34.000Z</time>
      </trkpt>
      <trkpt lat="44.80034" lon="5.90767">
        <ele>941.856361</ele>
        <time>2025-07-10T09:19:35.000Z</time>
      </trkpt>
      <trkpt lat="44.80036" lon="5.90765">
        <ele>941.922532</ele>
        <time>2025-07-10T09:19:36.000Z</time>
      </trkpt>
      <trkpt lat="44.80038" lon="5.90764">
        <ele>941.994176</ele>
        <time>2025-07-10T09:19:37.000Z</time>
      </trkpt>
      <trkpt lat="44.8004" lon="5.90762">
        <ele>942.068617</ele>
        <time>2025-07-10T09:19:38.000Z</time>
      </trkpt>
      <trkpt lat="44.80041" lon="5.90761">
        <ele>942.140262</ele>
        <time>2025-07-10T09:19:39.000Z</time>
      </trkpt>
      <trkpt lat="44.80043" lon="5.90759">
        <ele>942.211906</ele>
        <time>2025-07-10T09:19:40.000Z</time>
      </trkpt>
      <trkpt lat="44.80045" lon="5.90757">
        <ele>942.278077</ele>
        <time>2025-07-10T09:19:41.000Z</time>
      </trkpt>
      <trkpt lat="44.80047" lon="5.90756">
        <ele>942.34555</ele>
        <time>2025-07-10T09:19:42.000Z</time>
      </trkpt>
      <trkpt lat="44.80049" lon="5.90754">
        <ele>942.417194</ele>
        <time>2025-07-10T09:19:43.000Z</time>
      </trkpt>
      <trkpt lat="44.8005" lon="5.90752">
        <ele>942.487332</ele>
        <time>2025-07-10T09:19:44.000Z</time>
      </trkpt>
      <trkpt lat="44.80052" lon="5.90751">
        <ele>942.556732</ele>
        <time>2025-07-10T09:19:45.000Z</time>
      </trkpt>
      <trkpt lat="44.80054" lon="5.9075">
        <ele>942.621655</ele>
        <time>2025-07-10T09:19:46.000Z</time>
      </trkpt>
      <trkpt lat="44.80056" lon="5.90748">
        <ele>942.691793</ele>
        <time>2025-07-10T09:19:47.000Z</time>
      </trkpt>
      <trkpt lat="44.80058" lon="5.90746">
        <ele>942.765898</ele>
        <time>2025-07-10T09:19:48.000Z</time>
      </trkpt>
      <trkpt lat="44.80059" lon="5.90745">
        <ele>942.830821</ele>
        <time>2025-07-10T09:19:49.000Z</time>
      </trkpt>
      <trkpt lat="44.80061" lon="5.90743">
        <ele>942.903105</ele>
        <time>2025-07-10T09:19:50.000Z</time>
      </trkpt>
      <trkpt lat="44.80063" lon="5.90741">
        <ele>942.977211</ele>
        <time>2025-07-10T09:19:51.000Z</time>
      </trkpt>
      <trkpt lat="44.80065" lon="5.90739">
        <ele>943.060767</ele>
        <time>2025-07-10T09:19:52.000Z</time>
      </trkpt>
      <trkpt lat="44.80067" lon="5.90737">
        <ele>943.136178</ele>
        <time>2025-07-10T09:19:53.000Z</time>
      </trkpt>
      <trkpt lat="44.80069" lon="5.90735">
        <ele>943.214251</ele>
        <time>2025-07-10T09:19:54.000Z</time>
      </trkpt>
      <trkpt lat="44.80071" lon="5.90733">
        <ele>943.296594</ele>
        <time>2025-07-10T09:19:55.000Z</time>
      </trkpt>
      <trkpt lat="44.80074" lon="5.90731">
        <ele>943.381337</ele>
        <time>2025-07-10T09:19:56.000Z</time>
      </trkpt>
      <trkpt lat="44.80076" lon="5.90729">
        <ele>943.462068</ele>
        <time>2025-07-10T09:19:57.000Z</time>
      </trkpt>
      <trkpt lat="44.80078" lon="5.90727">
        <ele>943.548156</ele>
        <time>2025-07-10T09:19:58.000Z</time>
      </trkpt>
      <trkpt lat="44.8008" lon="5.90725">
        <ele>943.635474</ele>
        <time>2025-07-10T09:19:59.000Z</time>
      </trkpt>
      <trkpt lat="44.80082" lon="5.90723">
        <ele>943.715071</ele>
        <time>2025-07-10T09:20:00.000Z</time>
      </trkpt>
      <trkpt lat="44.80084" lon="5.9072">
        <ele>943.807706</ele>
        <time>2025-07-10T09:20:01.000Z</time>
      </trkpt>
      <trkpt lat="44.80086" lon="5.90718">
        <ele>943.898993</ele>
        <time>2025-07-10T09:20:02.000Z</time>
      </trkpt>
      <trkpt lat="44.80089" lon="5.90716">
        <ele>943.991666</ele>
        <time>2025-07-10T09:20:03.000Z</time>
      </trkpt>
      <trkpt lat="44.80091" lon="5.90713">
        <ele>944.088269</ele>
        <time>2025-07-10T09:20:04.000Z</time>
      </trkpt>
      <trkpt lat="44.80093" lon="5.90711">
        <ele>944.176936</ele>
        <time>2025-07-10T09:20:05.000Z</time>
      </trkpt>
      <trkpt lat="44.80096" lon="5.90709">
        <ele>944.270881</ele>
        <time>2025-07-10T09:20:06.000Z</time>
      </trkpt>
      <trkpt lat="44.80098" lon="5.90706">
        <ele>944.368794</ele>
        <time>2025-07-10T09:20:07.000Z</time>
      </trkpt>
      <trkpt lat="44.80101" lon="5.90704">
        <ele>944.46816</ele>
        <time>2025-07-10T09:20:08.000Z</time>
      </trkpt>
      <trkpt lat="44.80103" lon="5.90701">
        <ele>944.567384</ele>
        <time>2025-07-10T09:20:09.000Z</time>
      </trkpt>
      <trkpt lat="44.80106" lon="5.90699">
        <ele>944.670578</ele>
        <time>2025-07-10T09:20:10.000Z</time>
      </trkpt>
      <trkpt lat="44.80109" lon="5.90696">
        <ele>944.771149</ele>
        <time>2025-07-10T09:20:11.000Z</time>
      </trkpt>
      <trkpt lat="44.80111" lon="5.90694">
        <ele>944.873031</ele>
        <time>2025-07-10T09:20:12.000Z</time>
      </trkpt>
      <trkpt lat="44.80114" lon="5.90691">
        <ele>944.979111</ele>
        <time>2025-07-10T09:20:13.000Z</time>
      </trkpt>
      <trkpt lat="44.80117" lon="5.90689">
        <ele>945.083683</ele>
        <time>2025-07-10T09:20:14.000Z</time>
      </trkpt>
      <trkpt lat="44.80119" lon="5.90686">
        <ele>945.189533</ele>
        <time>2025-07-10T09:20:15.000Z</time>
      </trkpt>
      <trkpt lat="44.80122" lon="5.90684">
        <ele>945.268189</ele>
        <time>2025-07-10T09:20:16.000Z</time>
      </trkpt>
      <trkpt lat="44.80125" lon="5.90681">
        <ele>945.208673</ele>
        <time>2025-07-10T09:20:17.000Z</time>
      </trkpt>
      <trkpt lat="44.80128" lon="5.90678">
        <ele>945.148422</ele>
        <time>2025-07-10T09:20:18.000Z</time>
      </trkpt>
      <trkpt lat="44.80131" lon="5.90675">
        <ele>945.088172</ele>
        <time>2025-07-10T09:20:19.000Z</time>
      </trkpt>
      <trkpt lat="44.80133" lon="5.90673">
        <ele>945.030693</ele>
        <time>2025-07-10T09:20:20.000Z</time>
      </trkpt>
      <trkpt lat="44.80136" lon="5.90669">
        <ele>944.972969</ele>
        <time>2025-07-10T09:20:21.000Z</time>
      </trkpt>
      <trkpt lat="44.80139" lon="5.90667">
        <ele>944.914121</ele>
        <time>2025-07-10T09:20:22.000Z</time>
      </trkpt>
      <trkpt lat="44.80141" lon="5.90664">
        <ele>944.856731</ele>
        <time>2025-07-10T09:20:23.000Z</time>
      </trkpt>
      <trkpt lat="44.80144" lon="5.90661">
        <ele>944.799342</ele>
        <time>2025-07-10T09:20:24.000Z</time>
      </trkpt>
      <trkpt lat="44.80147" lon="5.90658">
        <ele>944.738404</ele>
        <time>2025-07-10T09:20:25.000Z</time>
      </trkpt>
      <trkpt lat="44.8015" lon="5.90655">
        <ele>944.674638</ele>
        <time>2025-07-10T09:20:26.000Z</time>
      </trkpt>
      <trkpt lat="44.80153" lon="5.90652">
        <ele>944.612997</ele>
        <time>2025-07-10T09:20:27.000Z</time>
      </trkpt>
      <trkpt lat="44.80156" lon="5.90649">
        <ele>944.547776</ele>
        <time>2025-07-10T09:20:28.000Z</time>
      </trkpt>
      <trkpt lat="44.80159" lon="5.90646">
        <ele>944.483929</ele>
        <time>2025-07-10T09:20:29.000Z</time>
      </trkpt>
      <trkpt lat="44.80162" lon="5.90643">
        <ele>944.420162</ele>
        <time>2025-07-10T09:20:30.000Z</time>
      </trkpt>
      <trkpt lat="44.80165" lon="5.9064">
        <ele>944.353538</ele>
        <time>2025-07-10T09:20:31.000Z</time>
      </trkpt>
      <trkpt lat="44.80168" lon="5.90637">
        <ele>944.286766</ele>
        <time>2025-07-10T09:20:32.000Z</time>
      </trkpt>
      <trkpt lat="44.80171" lon="5.90634">
        <ele>944.220141</ele>
        <time>2025-07-10T09:20:33.000Z</time>
      </trkpt>
      <trkpt lat="44.80175" lon="5.90631">
        <ele>944.150703</ele>
        <time>2025-07-10T09:20:34.000Z</time>
      </trkpt>
      <trkpt lat="44.80178" lon="5.90628">
        <ele>944.078434</ele>
        <time>2025-07-10T09:20:35.000Z</time>
      </trkpt>
      <trkpt lat="44.80182" lon="5.90624">
        <ele>944.006166</ele>
        <time>2025-07-10T09:20:36.000Z</time>
      </trkpt>
      <trkpt lat="44.80185" lon="5.90621">
        <ele>943.933897</ele>
        <time>2025-07-10T09:20:37.000Z</time>
      </trkpt>
      <trkpt lat="44.80188" lon="5.90617">
        <ele>943.860178</ele>
        <time>2025-07-10T09:20:38.000Z</time>
      </trkpt>
      <trkpt lat="44.80192" lon="5.90614">
        <ele>943.784364</ele>
        <time>2025-07-10T09:20:39.000Z</time>
      </trkpt>
      <trkpt lat="44.80196" lon="5.9061">
        <ele>943.709241</ele>
        <time>2025-07-10T09:20:40.000Z</time>
      </trkpt>
      <trkpt lat="44.80199" lon="5.90607">
        <ele>943.631993</ele>
        <time>2025-07-10T09:20:41.000Z</time>
      </trkpt>
      <trkpt lat="44.80203" lon="5.90603">
        <ele>943.555424</ele>
        <time>2025-07-10T09:20:42.000Z</time>
      </trkpt>
      <trkpt lat="44.80207" lon="5.906">
        <ele>943.476052</ele>
        <time>2025-07-10T09:20:43.000Z</time>
      </trkpt>
      <trkpt lat="44.80211" lon="5.90596">
        <ele>943.397359</ele>
        <time>2025-07-10T09:20:44.000Z</time>
      </trkpt>
      <trkpt lat="44.80214" lon="5.90593">
        <ele>943.321545</ele>
        <time>2025-07-10T09:20:45.000Z</time>
      </trkpt>
      <trkpt lat="44.80218" lon="5.90589">
        <ele>943.244307</ele>
        <time>2025-07-10T09:20:46.000Z</time>
      </trkpt>
      <trkpt lat="44.80221" lon="5.90586">
        <ele>943.169913</ele>
        <time>2025-07-10T09:20:47.000Z</time>
      </trkpt>
      <trkpt lat="44.80225" lon="5.90582">
        <ele>943.093394</ele>
        <time>2025-07-10T09:20:48.000Z</time>
      </trkpt>
      <trkpt lat="44.80228" lon="5.90579">
        <ele>943.018949</ele>
        <time>2025-07-10T09:20:49.000Z</time>
      </trkpt>
      <trkpt lat="44.80232" lon="5.90576">
        <ele>942.946628</ele>
        <time>2025-07-10T09:20:50.000Z</time>
      </trkpt>
      <trkpt lat="44.80235" lon="5.90573">
        <ele>942.880004</ele>
        <time>2025-07-10T09:20:51.000Z</time>
      </trkpt>
      <trkpt lat="44.80238" lon="5.9057">
        <ele>942.826126</ele>
        <time>2025-07-10T09:20:52.000Z</time>
      </trkpt>
      <trkpt lat="44.8024" lon="5.90568">
        <ele>942.787113</ele>
        <time>2025-07-10T09:20:53.000Z</time>
      </trkpt>
      <trkpt lat="44.80241" lon="5.90567">
        <ele>942.763732</ele>
        <time>2025-07-10T09:20:54.000Z</time>
      </trkpt>
      <trkpt lat="44.80241" lon="5.90567">
        <ele>942.754311</ele>
        <time>2025-07-10T09:20:55.000Z</time>
      </trkpt>
      <trkpt lat="44.80243" lon="5.90566">
        <ele>942.715038</ele>
        <time>2025-07-10T09:22:52.000Z</time>
      </trkpt>
      <trkpt lat="44.80245" lon="5.90564">
        <ele>942.683003</ele>
        <time>2025-07-10T09:22:53.000Z</time>
      </trkpt>
      <trkpt lat="44.80246" lon="5.90562">
        <ele>942.64593</ele>
        <time>2025-07-10T09:22:54.000Z</time>
      </trkpt>
      <trkpt lat="44.80248" lon="5.9056">
        <ele>942.599826</ele>
        <time>2025-07-10T09:22:55.000Z</time>
      </trkpt>
      <trkpt lat="44.80251" lon="5.90557">
        <ele>942.549515</ele>
        <time>2025-07-10T09:22:56.000Z</time>
      </trkpt>
      <trkpt lat="44.80253" lon="5.90555">
        <ele>942.496377</ele>
        <time>2025-07-10T09:22:57.000Z</time>
      </trkpt>
      <trkpt lat="44.80256" lon="5.90552">
        <ele>942.440375</ele>
        <time>2025-07-10T09:22:58.000Z</time>
      </trkpt>
      <trkpt lat="44.80259" lon="5.9055">
        <ele>942.380794</ele>
        <time>2025-07-10T09:22:59.000Z</time>
      </trkpt>
      <trkpt lat="44.80262" lon="5.90547">
        <ele>942.321982</ele>
        <time>2025-07-10T09:23:00.000Z</time>
      </trkpt>
      <trkpt lat="44.80265" lon="5.90544">
        <ele>942.260342</ele>
        <time>2025-07-10T09:23:01.000Z</time>
      </trkpt>
      <trkpt lat="44.80268" lon="5.90541">
        <ele>942.196576</ele>
        <time>2025-07-10T09:23:02.000Z</time>
      </trkpt>
      <trkpt lat="44.80271" lon="5.90538">
        <ele>942.078842</ele>
        <time>2025-07-10T09:23:03.000Z</time>
      </trkpt>
      <trkpt lat="44.80274" lon="5.90535">
        <ele>941.902952</ele>
        <time>2025-07-10T09:23:04.000Z</time>
      </trkpt>
      <trkpt lat="44.80277" lon="5.90531">
        <ele>941.719827</ele>
        <time>2025-07-10T09:23:05.000Z</time>
      </trkpt>
      <trkpt lat="44.80281" lon="5.90528">
        <ele>941.529329</ele>
        <time>2025-07-10T09:23:06.000Z</time>
      </trkpt>
      <trkpt lat="44.80285" lon="5.90525">
        <ele>941.333396</ele>
        <time>2025-07-10T09:23:07.000Z</time>
      </trkpt>
      <trkpt lat="44.80288" lon="5.90521">
        <ele>941.128517</ele>
        <time>2025-07-10T09:23:08.000Z</time>
      </trkpt>
      <trkpt lat="44.80292" lon="5.90517">
        <ele>940.916394</ele>
        <time>2025-07-10T09:23:09.000Z</time>
      </trkpt>
      <trkpt lat="44.80296" lon="5.90513">
        <ele>940.693392</ele>
        <time>2025-07-10T09:23:10.000Z</time>
      </trkpt>
      <trkpt lat="44.803" lon="5.90509">
        <ele>940.473994</ele>
        <time>2025-07-10T09:23:11.000Z</time>
      </trkpt>
      <trkpt lat="44.80305" lon="5.90505">
        <ele>940.241734</ele>
        <time>2025-07-10T09:23:12.000Z</time>
      </trkpt>
      <trkpt lat="44.80309" lon="5.90501">
        <ele>940.002316</ele>
        <time>2025-07-10T09:23:13.000Z</time>
      </trkpt>
      <trkpt lat="44.80314" lon="5.90496">
        <ele>939.757462</ele>
        <time>2025-07-10T09:23:14.000Z</time>
      </trkpt>
      <trkpt lat="44.80318" lon="5.90492">
        <ele>939.514513</ele>
        <time>2025-07-10T09:23:15.000Z</time>
      </trkpt>
      <trkpt lat="44.80323" lon="5.90487">
        <ele>939.260686</ele>
        <time>2025-07-10T09:23:16.000Z</time>
      </trkpt>
      <trkpt lat="44.80328" lon="5.90483">
        <ele>938.999611</ele>
        <time>2025-07-10T09:23:17.000Z</time>
      </trkpt>
      <trkpt lat="44.80333" lon="5.90478">
        <ele>938.743976</ele>
        <time>2025-07-10T09:23:18.000Z</time>
      </trkpt>
      <trkpt lat="44.80337" lon="5.90473">
        <ele>938.48825</ele>
        <time>2025-07-10T09:23:19.000Z</time>
      </trkpt>
      <trkpt lat="44.80342" lon="5.90469">
        <ele>938.228819</ele>
        <time>2025-07-10T09:23:20.000Z</time>
      </trkpt>
      <trkpt lat="44.80347" lon="5.90464">
        <ele>937.965898</ele>
        <time>2025-07-10T09:23:21.000Z</time>
      </trkpt>
      <trkpt lat="44.80352" lon="5.90459">
        <ele>937.701194</ele>
        <time>2025-07-10T09:23:22.000Z</time>
      </trkpt>
      <trkpt lat="44.80357" lon="5.90455">
        <ele>937.443711</ele>
        <time>2025-07-10T09:23:23.000Z</time>
      </trkpt>
      <trkpt lat="44.80362" lon="5.9045">
        <ele>937.187985</ele>
        <time>2025-07-10T09:23:24.000Z</time>
      </trkpt>
      <trkpt lat="44.80366" lon="5.90445">
        <ele>936.934095</ele>
        <time>2025-07-10T09:23:25.000Z</time>
      </trkpt>
      <trkpt lat="44.80371" lon="5.90441">
        <ele>936.680205</ele>
        <time>2025-07-10T09:23:26.000Z</time>
      </trkpt>
      <trkpt lat="44.80376" lon="5.90436">
        <ele>936.424479</ele>
        <time>2025-07-10T09:23:27.000Z</time>
      </trkpt>
      <trkpt lat="44.80381" lon="5.90432">
        <ele>936.170483</ele>
        <time>2025-07-10T09:23:28.000Z</time>
      </trkpt>
      <trkpt lat="44.80386" lon="5.90427">
        <ele>935.909005</ele>
        <time>2025-07-10T09:23:29.000Z</time>
      </trkpt>
      <trkpt lat="44.8039" lon="5.90423">
        <ele>935.656711</ele>
        <time>2025-07-10T09:23:30.000Z</time>
      </trkpt>
      <trkpt lat="44.80395" lon="5.90419">
        <ele>935.404667</ele>
        <time>2025-07-10T09:23:31.000Z</time>
      </trkpt>
      <trkpt lat="44.804" lon="5.90414">
        <ele>935.149033</ele>
        <time>2025-07-10T09:23:32.000Z</time>
      </trkpt>
      <trkpt lat="44.80405" lon="5.90409">
        <ele>934.889769</ele>
        <time>2025-07-10T09:23:33.000Z</time>
      </trkpt>
      <trkpt lat="44.80409" lon="5.90404">
        <ele>934.626849</ele>
        <time>2025-07-10T09:23:34.000Z</time>
      </trkpt>
      <trkpt lat="44.80414" lon="5.904">
        <ele>934.358491</ele>
        <time>2025-07-10T09:23:35.000Z</time>
      </trkpt>
      <trkpt lat="44.8042" lon="5.90395">
        <ele>934.082635</ele>
        <time>2025-07-10T09:23:36.000Z</time>
      </trkpt>
      <trkpt lat="44.80425" lon="5.9039">
        <ele>933.799704</ele>
        <time>2025-07-10T09:23:37.000Z</time>
      </trkpt>
      <trkpt lat="44.8043" lon="5.90385">
        <ele>933.51528</ele>
        <time>2025-07-10T09:23:38.000Z</time>
      </trkpt>
      <trkpt lat="44.80435" lon="5.9038">
        <ele>933.230855</ele>
        <time>2025-07-10T09:23:39.000Z</time>
      </trkpt>
      <trkpt lat="44.80441" lon="5.90375">
        <ele>932.938922</ele>
        <time>2025-07-10T09:23:40.000Z</time>
      </trkpt>
      <trkpt lat="44.80446" lon="5.9037">
        <ele>932.648958</ele>
        <time>2025-07-10T09:23:41.000Z</time>
      </trkpt>
      <trkpt lat="44.80451" lon="5.90365">
        <ele>932.353456</ele>
        <time>2025-07-10T09:23:42.000Z</time>
      </trkpt>
      <trkpt lat="44.80457" lon="5.9036">
        <ele>932.054212</ele>
        <time>2025-07-10T09:23:43.000Z</time>
      </trkpt>
      <trkpt lat="44.80462" lon="5.90354">
        <ele>931.75317</ele>
        <time>2025-07-10T09:23:44.000Z</time>
      </trkpt>
      <trkpt lat="44.80468" lon="5.90349">
        <ele>931.44105</ele>
        <time>2025-07-10T09:23:45.000Z</time>
      </trkpt>
      <trkpt lat="44.80474" lon="5.90343">
        <ele>931.128938</ele>
        <time>2025-07-10T09:23:46.000Z</time>
      </trkpt>
      <trkpt lat="44.8048" lon="5.90338">
        <ele>930.805542</ele>
        <time>2025-07-10T09:23:47.000Z</time>
      </trkpt>
      <trkpt lat="44.80486" lon="5.90332">
        <ele>930.485925</ele>
        <time>2025-07-10T09:23:48.000Z</time>
      </trkpt>
      <trkpt lat="44.80492" lon="5.90327">
        <ele>930.15899</ele>
        <time>2025-07-10T09:23:49.000Z</time>
      </trkpt>
      <trkpt lat="44.80498" lon="5.9032">
        <ele>929.826466</ele>
        <time>2025-07-10T09:23:50.000Z</time>
      </trkpt>
      <trkpt lat="44.80504" lon="5.90314">
        <ele>929.490309</ele>
        <time>2025-07-10T09:23:51.000Z</time>
      </trkpt>
      <trkpt lat="44.8051" lon="5.90308">
        <ele>929.157903</ele>
        <time>2025-07-10T09:23:52.000Z</time>
      </trkpt>
      <trkpt lat="44.80516" lon="5.90302">
        <ele>928.821802</ele>
        <time>2025-07-10T09:23:53.000Z</time>
      </trkpt>
      <trkpt lat="44.80521" lon="5.90296">
        <ele>928.494817</ele>
        <time>2025-07-10T09:23:54.000Z</time>
      </trkpt>
      <trkpt lat="44.80527" lon="5.90289">
        <ele>928.164983</ele>
        <time>2025-07-10T09:23:55.000Z</time>
      </trkpt>
      <trkpt lat="44.80533" lon="5.90283">
        <ele>927.831</ele>
        <time>2025-07-10T09:23:56.000Z</time>
      </trkpt>
      <trkpt lat="44.80538" lon="5.90276">
        <ele>927.497018</ele>
        <time>2025-07-10T09:23:57.000Z</time>
      </trkpt>
      <trkpt lat="44.80544" lon="5.90269">
        <ele>927.168834</ele>
        <time>2025-07-10T09:23:58.000Z</time>
      </trkpt>
      <trkpt lat="44.80549" lon="5.90261">
        <ele>926.834946</ele>
        <time>2025-07-10T09:23:59.000Z</time>
      </trkpt>
      <trkpt lat="44.80554" lon="5.90254">
        <ele>926.500325</ele>
        <time>2025-07-10T09:24:00.000Z</time>
      </trkpt>
      <trkpt lat="44.80559" lon="5.90246">
        <ele>926.162637</ele>
        <time>2025-07-10T09:24:01.000Z</time>
      </trkpt>
      <trkpt lat="44.80564" lon="5.90238">
        <ele>925.800867</ele>
        <time>2025-07-10T09:24:02.000Z</time>
      </trkpt>
      <trkpt lat="44.80568" lon="5.9023">
        <ele>925.434538</ele>
        <time>2025-07-10T09:24:03.000Z</time>
      </trkpt>
      <trkpt lat="44.80573" lon="5.90221">
        <ele>925.065751</ele>
        <time>2025-07-10T09:24:04.000Z</time>
      </trkpt>
      <trkpt lat="44.80577" lon="5.90212">
        <ele>924.694102</ele>
        <time>2025-07-10T09:24:05.000Z</time>
      </trkpt>
      <trkpt lat="44.80581" lon="5.90204">
        <ele>924.325312</ele>
        <time>2025-07-10T09:24:06.000Z</time>
      </trkpt>
      <trkpt lat="44.80586" lon="5.90195">
        <ele>923.956525</ele>
        <time>2025-07-10T09:24:07.000Z</time>
      </trkpt>
      <trkpt lat="44.8059" lon="5.90186">
        <ele>923.584744</ele>
        <time>2025-07-10T09:24:08.000Z</time>
      </trkpt>
      <trkpt lat="44.80594" lon="5.90177">
        <ele>923.206475</ele>
        <time>2025-07-10T09:24:09.000Z</time>
      </trkpt>
      <trkpt lat="44.80598" lon="5.90167">
        <ele>922.821706</ele>
        <time>2025-07-10T09:24:10.000Z</time>
      </trkpt>
      <trkpt lat="44.80602" lon="5.90158">
        <ele>922.438653</ele>
        <time>2025-07-10T09:24:11.000Z</time>
      </trkpt>
      <trkpt lat="44.80605" lon="5.90148">
        <ele>922.053931</ele>
        <time>2025-07-10T09:24:12.000Z</time>
      </trkpt>
      <trkpt lat="44.80608" lon="5.90137">
        <ele>921.662836</ele>
        <time>2025-07-10T09:24:13.000Z</time>
      </trkpt>
      <trkpt lat="44.80611" lon="5.90127">
        <ele>921.270478</ele>
        <time>2025-07-10T09:24:14.000Z</time>
      </trkpt>
      <trkpt lat="44.80614" lon="5.90116">
        <ele>920.870306</ele>
        <time>2025-07-10T09:24:15.000Z</time>
      </trkpt>
      <trkpt lat="44.80617" lon="5.90105">
        <ele>920.473627</ele>
        <time>2025-07-10T09:24:16.000Z</time>
      </trkpt>
      <trkpt lat="44.8062" lon="5.90095">
        <ele>920.075188</ele>
        <time>2025-07-10T09:24:17.000Z</time>
      </trkpt>
      <trkpt lat="44.80622" lon="5.90084">
        <ele>919.674906</ele>
        <time>2025-07-10T09:24:18.000Z</time>
      </trkpt>
      <trkpt lat="44.80624" lon="5.90072">
        <ele>919.275338</ele>
        <time>2025-07-10T09:24:19.000Z</time>
      </trkpt>
      <trkpt lat="44.80626" lon="5.90061">
        <ele>918.877005</ele>
        <time>2025-07-10T09:24:20.000Z</time>
      </trkpt>
      <trkpt lat="44.80628" lon="5.9005">
        <ele>918.47985</ele>
        <time>2025-07-10T09:24:21.000Z</time>
      </trkpt>
      <trkpt lat="44.8063" lon="5.9004">
        <ele>918.094987</ele>
        <time>2025-07-10T09:24:22.000Z</time>
      </trkpt>
      <trkpt lat="44.80632" lon="5.90029">
        <ele>917.716847</ele>
        <time>2025-07-10T09:24:23.000Z</time>
      </trkpt>
      <trkpt lat="44.80634" lon="5.90019">
        <ele>917.349368</ele>
        <time>2025-07-10T09:24:24.000Z</time>
      </trkpt>
      <trkpt lat="44.80636" lon="5.90009">
        <ele>917.113526</ele>
        <time>2025-07-10T09:24:25.000Z</time>
      </trkpt>
      <trkpt lat="44.80638" lon="5.89999">
        <ele>916.935794</ele>
        <time>2025-07-10T09:24:26.000Z</time>
      </trkpt>
      <trkpt lat="44.8064" lon="5.8999">
        <ele>916.764391</ele>
        <time>2025-07-10T09:24:27.000Z</time>
      </trkpt>
      <trkpt lat="44.80641" lon="5.8998">
        <ele>916.596977</ele>
        <time>2025-07-10T09:24:28.000Z</time>
      </trkpt>
      <trkpt lat="44.80643" lon="5.89971">
        <ele>916.43002</ele>
        <time>2025-07-10T09:24:29.000Z</time>
      </trkpt>
      <trkpt lat="44.80645" lon="5.89962">
        <ele>916.266434</ele>
        <time>2025-07-10T09:24:30.000Z</time>
      </trkpt>
      <trkpt lat="44.80647" lon="5.89953">
        <ele>916.10453</ele>
        <time>2025-07-10T09:24:31.000Z</time>
      </trkpt>
      <trkpt lat="44.80649" lon="5.89945">
        <ele>915.947667</ele>
        <time>2025-07-10T09:24:32.000Z</time>
      </trkpt>
      <trkpt lat="44.8065" lon="5.89936">
        <ele>915.793169</ele>
        <time>2025-07-10T09:24:33.000Z</time>
      </trkpt>
      <trkpt lat="44.80652" lon="5.89928">
        <ele>915.63867</ele>
        <time>2025-07-10T09:24:34.000Z</time>
      </trkpt>
      <trkpt lat="44.80654" lon="5.89919">
        <ele>915.486834</ele>
        <time>2025-07-10T09:24:35.000Z</time>
      </trkpt>
      <trkpt lat="44.80655" lon="5.89911">
        <ele>915.334677</ele>
        <time>2025-07-10T09:24:36.000Z</time>
      </trkpt>
      <trkpt lat="44.80657" lon="5.89903">
        <ele>915.185896</ele>
        <time>2025-07-10T09:24:37.000Z</time>
      </trkpt>
      <trkpt lat="44.80659" lon="5.89895">
        <ele>915.039444</ele>
        <time>2025-07-10T09:24:38.000Z</time>
      </trkpt>
      <trkpt lat="44.8066" lon="5.89887">
        <ele>914.892349</ele>
        <time>2025-07-10T09:24:39.000Z</time>
      </trkpt>
      <trkpt lat="44.80662" lon="5.89879">
        <ele>914.747589</ele>
        <time>2025-07-10T09:24:40.000Z</time>
      </trkpt>
      <trkpt lat="44.80663" lon="5.89871">
        <ele>914.603166</ele>
        <time>2025-07-10T09:24:41.000Z</time>
      </trkpt>
      <trkpt lat="44.80665" lon="5.89863">
        <ele>914.460416</ele>
        <time>2025-07-10T09:24:42.000Z</time>
      </trkpt>
      <trkpt lat="44.80666" lon="5.89855">
        <ele>914.321355</ele>
        <time>2025-07-10T09:24:43.000Z</time>
      </trkpt>
      <trkpt lat="44.80668" lon="5.89848">
        <ele>914.183989</ele>
        <time>2025-07-10T09:24:44.000Z</time>
      </trkpt>
      <trkpt lat="44.80669" lon="5.8984">
        <ele>914.045521</ele>
        <time>2025-07-10T09:24:45.000Z</time>
      </trkpt>
      <trkpt lat="44.8067" lon="5.89832">
        <ele>913.908754</ele>
        <time>2025-07-10T09:24:46.000Z</time>
      </trkpt>
      <trkpt lat="44.80672" lon="5.89825">
        <ele>913.776461</ele>
        <time>2025-07-10T09:24:47.000Z</time>
      </trkpt>
      <trkpt lat="44.80673" lon="5.89818">
        <ele>913.644467</ele>
        <time>2025-07-10T09:24:48.000Z</time>
      </trkpt>
      <trkpt lat="44.80675" lon="5.89811">
        <ele>913.51151</ele>
        <time>2025-07-10T09:24:49.000Z</time>
      </trkpt>
      <trkpt lat="44.80676" lon="5.89804">
        <ele>913.383585</ele>
        <time>2025-07-10T09:24:50.000Z</time>
      </trkpt>
      <trkpt lat="44.80678" lon="5.89797">
        <ele>913.254926</ele>
        <time>2025-07-10T09:24:51.000Z</time>
      </trkpt>
      <trkpt lat="44.8068" lon="5.8979">
        <ele>913.126267</ele>
        <time>2025-07-10T09:24:52.000Z</time>
      </trkpt>
      <trkpt lat="44.80681" lon="5.89783">
        <ele>913.003063</ele>
        <time>2025-07-10T09:24:53.000Z</time>
      </trkpt>
      <trkpt lat="44.80682" lon="5.89776">
        <ele>912.877512</ele>
        <time>2025-07-10T09:24:54.000Z</time>
      </trkpt>
      <trkpt lat="44.80684" lon="5.89769">
        <ele>912.787373</ele>
        <time>2025-07-10T09:24:55.000Z</time>
      </trkpt>
      <trkpt lat="44.80685" lon="5.89763">
        <ele>912.74895</ele>
        <time>2025-07-10T09:24:56.000Z</time>
      </trkpt>
      <trkpt lat="44.80687" lon="5.89756">
        <ele>912.710205</ele>
        <time>2025-07-10T09:24:57.000Z</time>
      </trkpt>
      <trkpt lat="44.80689" lon="5.8975">
        <ele>912.672173</ele>
        <time>2025-07-10T09:24:58.000Z</time>
      </trkpt>
      <trkpt lat="44.80691" lon="5.89745">
        <ele>912.635855</ele>
        <time>2025-07-10T09:24:59.000Z</time>
      </trkpt>
      <trkpt lat="44.80692" lon="5.89739">
        <ele>912.599899</ele>
        <time>2025-07-10T09:25:00.000Z</time>
      </trkpt>
      <trkpt lat="44.80693" lon="5.89733">
        <ele>912.564155</ele>
        <time>2025-07-10T09:25:01.000Z</time>
      </trkpt>
      <trkpt lat="44.80694" lon="5.89727">
        <ele>912.530723</ele>
        <time>2025-07-10T09:25:02.000Z</time>
      </trkpt>
      <trkpt lat="44.80694" lon="5.89721">
        <ele>912.497204</ele>
        <time>2025-07-10T09:25:03.000Z</time>
      </trkpt>
      <trkpt lat="44.80695" lon="5.89715">
        <ele>912.461754</ele>
        <time>2025-07-10T09:25:04.000Z</time>
      </trkpt>
      <trkpt lat="44.80695" lon="5.89709">
        <ele>912.427436</ele>
        <time>2025-07-10T09:25:05.000Z</time>
      </trkpt>
      <trkpt lat="44.80696" lon="5.89703">
        <ele>912.392411</ele>
        <time>2025-07-10T09:25:06.000Z</time>
      </trkpt>
      <trkpt lat="44.80697" lon="5.89697">
        <ele>912.357414</ele>
        <time>2025-07-10T09:25:07.000Z</time>
      </trkpt>
      <trkpt lat="44.80699" lon="5.89691">
        <ele>912.321723</ele>
        <time>2025-07-10T09:25:08.000Z</time>
      </trkpt>
      <trkpt lat="44.807" lon="5.89685">
        <ele>912.285767</ele>
        <time>2025-07-10T09:25:09.000Z</time>
      </trkpt>
      <trkpt lat="44.80702" lon="5.89679">
        <ele>912.249776</ele>
        <time>2025-07-10T09:25:10.000Z</time>
      </trkpt>
      <trkpt lat="44.80703" lon="5.89673">
        <ele>912.21346</ele>
        <time>2025-07-10T09:25:11.000Z</time>
      </trkpt>
      <trkpt lat="44.80704" lon="5.89667">
        <ele>912.17637</ele>
        <time>2025-07-10T09:25:12.000Z</time>
      </trkpt>
      <trkpt lat="44.80705" lon="5.89661">
        <ele>912.138948</ele>
        <time>2025-07-10T09:25:13.000Z</time>
      </trkpt>
      <trkpt lat="44.80706" lon="5.89654">
        <ele>912.09986</ele>
        <time>2025-07-10T09:25:14.000Z</time>
      </trkpt>
      <trkpt lat="44.80708" lon="5.89647">
        <ele>912.060217</ele>
        <time>2025-07-10T09:25:15.000Z</time>
      </trkpt>
      <trkpt lat="44.80709" lon="5.89641">
        <ele>912.020204</ele>
        <time>2025-07-10T09:25:16.000Z</time>
      </trkpt>
      <trkpt lat="44.8071" lon="5.89634">
        <ele>911.978693</ele>
        <time>2025-07-10T09:25:17.000Z</time>
      </trkpt>
      <trkpt lat="44.80712" lon="5.89627">
        <ele>911.937047</ele>
        <time>2025-07-10T09:25:18.000Z</time>
      </trkpt>
      <trkpt lat="44.80713" lon="5.8962">
        <ele>911.895875</ele>
        <time>2025-07-10T09:25:19.000Z</time>
      </trkpt>
      <trkpt lat="44.80715" lon="5.89613">
        <ele>911.854473</ele>
        <time>2025-07-10T09:25:20.000Z</time>
      </trkpt>
      <trkpt lat="44.80716" lon="5.89606">
        <ele>911.813517</ele>
        <time>2025-07-10T09:25:21.000Z</time>
      </trkpt>
      <trkpt lat="44.80717" lon="5.89599">
        <ele>911.772005</ele>
        <time>2025-07-10T09:25:22.000Z</time>
      </trkpt>
      <trkpt lat="44.80718" lon="5.89592">
        <ele>911.729938</ele>
        <time>2025-07-10T09:25:23.000Z</time>
      </trkpt>
      <trkpt lat="44.8072" lon="5.89585">
        <ele>911.687871</ele>
        <time>2025-07-10T09:25:24.000Z</time>
      </trkpt>
      <trkpt lat="44.80721" lon="5.89578">
        <ele>911.645595</ele>
        <time>2025-07-10T09:25:25.000Z</time>
      </trkpt>
      <trkpt lat="44.80722" lon="5.89571">
        <ele>911.603528</ele>
        <time>2025-07-10T09:25:26.000Z</time>
      </trkpt>
      <trkpt lat="44.80724" lon="5.89564">
        <ele>911.561804</ele>
        <time>2025-07-10T09:25:27.000Z</time>
      </trkpt>
      <trkpt lat="44.80725" lon="5.89557">
        <ele>911.520081</ele>
        <time>2025-07-10T09:25:28.000Z</time>
      </trkpt>
      <trkpt lat="44.80727" lon="5.8955">
        <ele>911.478014</ele>
        <time>2025-07-10T09:25:29.000Z</time>
      </trkpt>
      <trkpt lat="44.80728" lon="5.89543">
        <ele>911.43629</ele>
        <time>2025-07-10T09:25:30.000Z</time>
      </trkpt>
      <trkpt lat="44.80729" lon="5.89536">
        <ele>911.39434</ele>
        <time>2025-07-10T09:25:31.000Z</time>
      </trkpt>
      <trkpt lat="44.80731" lon="5.89529">
        <ele>911.352938</ele>
        <time>2025-07-10T09:25:32.000Z</time>
      </trkpt>
      <trkpt lat="44.80732" lon="5.89522">
        <ele>911.263561</ele>
        <time>2025-07-10T09:25:33.000Z</time>
      </trkpt>
      <trkpt lat="44.80734" lon="5.89514">
        <ele>911.170495</ele>
        <time>2025-07-10T09:25:34.000Z</time>
      </trkpt>
      <trkpt lat="44.80735" lon="5.89507">
        <ele>911.07786</ele>
        <time>2025-07-10T09:25:35.000Z</time>
      </trkpt>
      <trkpt lat="44.80736" lon="5.895">
        <ele>910.986774</ele>
        <time>2025-07-10T09:25:36.000Z</time>
      </trkpt>
      <trkpt lat="44.80738" lon="5.89494">
        <ele>910.898615</ele>
        <time>2025-07-10T09:25:37.000Z</time>
      </trkpt>
      <trkpt lat="44.80739" lon="5.89487">
        <ele>910.808749</ele>
        <time>2025-07-10T09:25:38.000Z</time>
      </trkpt>
      <trkpt lat="44.8074" lon="5.8948">
        <ele>910.719364</ele>
        <time>2025-07-10T09:25:39.000Z</time>
      </trkpt>
      <trkpt lat="44.80742" lon="5.89473">
        <ele>910.629498</ele>
        <time>2025-07-10T09:25:40.000Z</time>
      </trkpt>
      <trkpt lat="44.80743" lon="5.89466">
        <ele>910.535474</ele>
        <time>2025-07-10T09:25:41.000Z</time>
      </trkpt>
      <trkpt lat="44.80745" lon="5.89459">
        <ele>910.442133</ele>
        <time>2025-07-10T09:25:42.000Z</time>
      </trkpt>
      <trkpt lat="44.80747" lon="5.89452">
        <ele>910.350626</ele>
        <time>2025-07-10T09:25:43.000Z</time>
      </trkpt>
      <trkpt lat="44.80748" lon="5.89446">
        <ele>910.260315</ele>
        <time>2025-07-10T09:25:44.000Z</time>
      </trkpt>
      <trkpt lat="44.8075" lon="5.89439">
        <ele>910.171556</ele>
        <time>2025-07-10T09:25:45.000Z</time>
      </trkpt>
      <trkpt lat="44.80752" lon="5.89433">
        <ele>910.083957</ele>
        <time>2025-07-10T09:25:46.000Z</time>
      </trkpt>
      <trkpt lat="44.80754" lon="5.89427">
        <ele>909.995397</ele>
        <time>2025-07-10T09:25:47.000Z</time>
      </trkpt>
      <trkpt lat="44.80756" lon="5.8942">
        <ele>909.907344</ele>
        <time>2025-07-10T09:25:48.000Z</time>
      </trkpt>
      <trkpt lat="44.80758" lon="5.89414">
        <ele>909.816695</ele>
        <time>2025-07-10T09:25:49.000Z</time>
      </trkpt>
      <trkpt lat="44.8076" lon="5.89407">
        <ele>909.72835</ele>
        <time>2025-07-10T09:25:50.000Z</time>
      </trkpt>
      <trkpt lat="44.80762" lon="5.89401">
        <ele>909.638855</ele>
        <time>2025-07-10T09:25:51.000Z</time>
      </trkpt>
      <trkpt lat="44.80764" lon="5.89394">
        <ele>909.54745</ele>
        <time>2025-07-10T09:25:52.000Z</time>
      </trkpt>
      <trkpt lat="44.80767" lon="5.89388">
        <ele>909.454898</ele>
        <time>2025-07-10T09:25:53.000Z</time>
      </trkpt>
      <trkpt lat="44.80769" lon="5.89381">
        <ele>909.360431</ele>
        <time>2025-07-10T09:25:54.000Z</time>
      </trkpt>
      <trkpt lat="44.80771" lon="5.89375">
        <ele>909.267879</ele>
        <time>2025-07-10T09:25:55.000Z</time>
      </trkpt>
      <trkpt lat="44.80773" lon="5.89368">
        <ele>909.173412</ele>
        <time>2025-07-10T09:25:56.000Z</time>
      </trkpt>
      <trkpt lat="44.80776" lon="5.89361">
        <ele>909.076653</ele>
        <time>2025-07-10T09:25:57.000Z</time>
      </trkpt>
      <trkpt lat="44.80778" lon="5.89354">
        <ele>908.979121</ele>
        <time>2025-07-10T09:25:58.000Z</time>
      </trkpt>
      <trkpt lat="44.80781" lon="5.89347">
        <ele>908.880447</ele>
        <time>2025-07-10T09:25:59.000Z</time>
      </trkpt>
      <trkpt lat="44.80783" lon="5.8934">
        <ele>908.780982</ele>
        <time>2025-07-10T09:26:00.000Z</time>
      </trkpt>
      <trkpt lat="44.80785" lon="5.89333">
        <ele>908.680764</ele>
        <time>2025-07-10T09:26:01.000Z</time>
      </trkpt>
      <trkpt lat="44.80788" lon="5.89326">
        <ele>908.581702</ele>
        <time>2025-07-10T09:26:02.000Z</time>
      </trkpt>
      <trkpt lat="44.8079" lon="5.89319">
        <ele>908.482237</ele>
        <time>2025-07-10T09:26:03.000Z</time>
      </trkpt>
      <trkpt lat="44.80793" lon="5.89312">
        <ele>908.383078</ele>
        <time>2025-07-10T09:26:04.000Z</time>
      </trkpt>
      <trkpt lat="44.80795" lon="5.89305">
        <ele>908.283613</ele>
        <time>2025-07-10T09:26:05.000Z</time>
      </trkpt>
      <trkpt lat="44.80798" lon="5.89298">
        <ele>908.183795</ele>
        <time>2025-07-10T09:26:06.000Z</time>
      </trkpt>
      <trkpt lat="44.808" lon="5.89291">
        <ele>908.113285</ele>
        <time>2025-07-10T09:26:07.000Z</time>
      </trkpt>
      <trkpt lat="44.80802" lon="5.89284">
        <ele>908.074371</ele>
        <time>2025-07-10T09:26:08.000Z</time>
      </trkpt>
      <trkpt lat="44.80805" lon="5.89277">
        <ele>908.034232</ele>
        <time>2025-07-10T09:26:09.000Z</time>
      </trkpt>
      <trkpt lat="44.80807" lon="5.8927">
        <ele>907.994546</ele>
        <time>2025-07-10T09:26:10.000Z</time>
      </trkpt>
      <trkpt lat="44.8081" lon="5.89263">
        <ele>907.955312</ele>
        <time>2025-07-10T09:26:11.000Z</time>
      </trkpt>
      <trkpt lat="44.80813" lon="5.89256">
        <ele>907.915851</ele>
        <time>2025-07-10T09:26:12.000Z</time>
      </trkpt>
      <trkpt lat="44.80815" lon="5.89249">
        <ele>907.877067</ele>
        <time>2025-07-10T09:26:13.000Z</time>
      </trkpt>
      <trkpt lat="44.80817" lon="5.89243">
        <ele>907.839059</ele>
        <time>2025-07-10T09:26:14.000Z</time>
      </trkpt>
      <trkpt lat="44.8082" lon="5.89236">
        <ele>907.801503</ele>
        <time>2025-07-10T09:26:15.000Z</time>
      </trkpt>
      <trkpt lat="44.80822" lon="5.89229">
        <ele>907.764721</ele>
        <time>2025-07-10T09:26:16.000Z</time>
      </trkpt>
      <trkpt lat="44.80824" lon="5.89223">
        <ele>907.728842</ele>
        <time>2025-07-10T09:26:17.000Z</time>
      </trkpt>
      <trkpt lat="44.80827" lon="5.89217">
        <ele>907.693737</ele>
        <time>2025-07-10T09:26:18.000Z</time>
      </trkpt>
      <trkpt lat="44.80829" lon="5.89211">
        <ele>907.658179</ele>
        <time>2025-07-10T09:26:19.000Z</time>
      </trkpt>
      <trkpt lat="44.80831" lon="5.89204">
        <ele>907.623388</ele>
        <time>2025-07-10T09:26:20.000Z</time>
      </trkpt>
      <trkpt lat="44.80833" lon="5.89199">
        <ele>907.589962</ele>
        <time>2025-07-10T09:26:21.000Z</time>
      </trkpt>
      <trkpt lat="44.80835" lon="5.89193">
        <ele>907.55776</ele>
        <time>2025-07-10T09:26:22.000Z</time>
      </trkpt>
      <trkpt lat="44.80837" lon="5.89187">
        <ele>907.525869</ele>
        <time>2025-07-10T09:26:23.000Z</time>
      </trkpt>
      <trkpt lat="44.80839" lon="5.89182">
        <ele>907.495196</ele>
        <time>2025-07-10T09:26:24.000Z</time>
      </trkpt>
      <trkpt lat="44.80841" lon="5.89176">
        <ele>907.464673</ele>
        <time>2025-07-10T09:26:25.000Z</time>
      </trkpt>
      <trkpt lat="44.80842" lon="5.89171">
        <ele>907.434917</ele>
        <time>2025-07-10T09:26:26.000Z</time>
      </trkpt>
      <trkpt lat="44.80844" lon="5.89166">
        <ele>907.405618</ele>
        <time>2025-07-10T09:26:27.000Z</time>
      </trkpt>
      <trkpt lat="44.80846" lon="5.89161">
        <ele>907.375998</ele>
        <time>2025-07-10T09:26:28.000Z</time>
      </trkpt>
      <trkpt lat="44.80848" lon="5.89155">
        <ele>907.346828</ele>
        <time>2025-07-10T09:26:29.000Z</time>
      </trkpt>
      <trkpt lat="44.8085" lon="5.89151">
        <ele>907.319335</ele>
        <time>2025-07-10T09:26:30.000Z</time>
      </trkpt>
      <trkpt lat="44.80852" lon="5.89146">
        <ele>907.290942</ele>
        <time>2025-07-10T09:26:31.000Z</time>
      </trkpt>
      <trkpt lat="44.80853" lon="5.89141">
        <ele>907.262097</ele>
        <time>2025-07-10T09:26:32.000Z</time>
      </trkpt>
      <trkpt lat="44.80855" lon="5.89136">
        <ele>907.234155</ele>
        <time>2025-07-10T09:26:33.000Z</time>
      </trkpt>
      <trkpt lat="44.80857" lon="5.89131">
        <ele>907.207756</ele>
        <time>2025-07-10T09:26:34.000Z</time>
      </trkpt>
      <trkpt lat="44.80859" lon="5.89126">
        <ele>907.181154</ele>
        <time>2025-07-10T09:26:35.000Z</time>
      </trkpt>
      <trkpt lat="44.8086" lon="5.89122">
        <ele>907.156549</ele>
        <time>2025-07-10T09:26:36.000Z</time>
      </trkpt>
      <trkpt lat="44.80861" lon="5.89117">
        <ele>907.13213</ele>
        <time>2025-07-10T09:26:37.000Z</time>
      </trkpt>
      <trkpt lat="44.80863" lon="5.89113">
        <ele>907.107865</ele>
        <time>2025-07-10T09:26:38.000Z</time>
      </trkpt>
      <trkpt lat="44.80864" lon="5.89109">
        <ele>907.084505</ele>
        <time>2025-07-10T09:26:39.000Z</time>
      </trkpt>
      <trkpt lat="44.80866" lon="5.89105">
        <ele>907.062225</ele>
        <time>2025-07-10T09:26:40.000Z</time>
      </trkpt>
      <trkpt lat="44.80867" lon="5.89101">
        <ele>907.040092</ele>
        <time>2025-07-10T09:26:41.000Z</time>
      </trkpt>
      <trkpt lat="44.80869" lon="5.89097">
        <ele>907.018071</ele>
        <time>2025-07-10T09:26:42.000Z</time>
      </trkpt>
      <trkpt lat="44.8087" lon="5.89094">
        <ele>906.996388</ele>
        <time>2025-07-10T09:26:43.000Z</time>
      </trkpt>
      <trkpt lat="44.80871" lon="5.8909">
        <ele>906.975025</ele>
        <time>2025-07-10T09:26:44.000Z</time>
      </trkpt>
      <trkpt lat="44.80873" lon="5.89086">
        <ele>906.952561</ele>
        <time>2025-07-10T09:26:45.000Z</time>
      </trkpt>
      <trkpt lat="44.80874" lon="5.89082">
        <ele>906.929974</ele>
        <time>2025-07-10T09:26:46.000Z</time>
      </trkpt>
      <trkpt lat="44.80876" lon="5.89078">
        <ele>906.906933</ele>
        <time>2025-07-10T09:26:47.000Z</time>
      </trkpt>
      <trkpt lat="44.80877" lon="5.89074">
        <ele>906.883891</ele>
        <time>2025-07-10T09:26:48.000Z</time>
      </trkpt>
      <trkpt lat="44.80879" lon="5.89069">
        <ele>906.85975</ele>
        <time>2025-07-10T09:26:49.000Z</time>
      </trkpt>
      <trkpt lat="44.8088" lon="5.89065">
        <ele>906.849174</ele>
        <time>2025-07-10T09:26:50.000Z</time>
      </trkpt>
      <trkpt lat="44.80881" lon="5.89061">
        <ele>906.8522</ele>
        <time>2025-07-10T09:26:51.000Z</time>
      </trkpt>
      <trkpt lat="44.80883" lon="5.89057">
        <ele>906.855285</ele>
        <time>2025-07-10T09:26:52.000Z</time>
      </trkpt>
      <trkpt lat="44.80884" lon="5.89052">
        <ele>906.858451</ele>
        <time>2025-07-10T09:26:53.000Z</time>
      </trkpt>
      <trkpt lat="44.80886" lon="5.89048">
        <ele>906.861517</ele>
        <time>2025-07-10T09:26:54.000Z</time>
      </trkpt>
      <trkpt lat="44.80887" lon="5.89044">
        <ele>906.864661</ele>
        <time>2025-07-10T09:26:55.000Z</time>
      </trkpt>
      <trkpt lat="44.80889" lon="5.8904">
        <ele>906.867709</ele>
        <time>2025-07-10T09:26:56.000Z</time>
      </trkpt>
      <trkpt lat="44.8089" lon="5.89035">
        <ele>906.870775</ele>
        <time>2025-07-10T09:26:57.000Z</time>
      </trkpt>
      <trkpt lat="44.80892" lon="5.89031">
        <ele>906.873928</ele>
        <time>2025-07-10T09:26:58.000Z</time>
      </trkpt>
      <trkpt lat="44.80893" lon="5.89027">
        <ele>906.876954</ele>
        <time>2025-07-10T09:26:59.000Z</time>
      </trkpt>
      <trkpt lat="44.80895" lon="5.89023">
        <ele>906.880079</ele>
        <time>2025-07-10T09:27:00.000Z</time>
      </trkpt>
      <trkpt lat="44.80896" lon="5.89018">
        <ele>906.883262</ele>
        <time>2025-07-10T09:27:01.000Z</time>
      </trkpt>
      <trkpt lat="44.80898" lon="5.89014">
        <ele>906.886504</ele>
        <time>2025-07-10T09:27:02.000Z</time>
      </trkpt>
      <trkpt lat="44.80899" lon="5.89009">
        <ele>906.889746</ele>
        <time>2025-07-10T09:27:03.000Z</time>
      </trkpt>
      <trkpt lat="44.80901" lon="5.89005">
        <ele>906.893028</ele>
        <time>2025-07-10T09:27:04.000Z</time>
      </trkpt>
      <trkpt lat="44.80902" lon="5.89">
        <ele>906.896368</ele>
        <time>2025-07-10T09:27:05.000Z</time>
      </trkpt>
      <trkpt lat="44.80904" lon="5.88995">
        <ele>906.899768</ele>
        <time>2025-07-10T09:27:06.000Z</time>
      </trkpt>
      <trkpt lat="44.80906" lon="5.88991">
        <ele>906.903128</ele>
        <time>2025-07-10T09:27:07.000Z</time>
      </trkpt>
      <trkpt lat="44.80907" lon="5.88986">
        <ele>906.906611</ele>
        <time>2025-07-10T09:27:08.000Z</time>
      </trkpt>
      <trkpt lat="44.80909" lon="5.88981">
        <ele>906.910036</ele>
        <time>2025-07-10T09:27:09.000Z</time>
      </trkpt>
      <trkpt lat="44.80911" lon="5.88977">
        <ele>906.913534</ele>
        <time>2025-07-10T09:27:10.000Z</time>
      </trkpt>
      <trkpt lat="44.80912" lon="5.88972">
        <ele>906.917052</ele>
        <time>2025-07-10T09:27:11.000Z</time>
      </trkpt>
      <trkpt lat="44.80914" lon="5.88967">
        <ele>906.920472</ele>
        <time>2025-07-10T09:27:12.000Z</time>
      </trkpt>
      <trkpt lat="44.80915" lon="5.88962">
        <ele>906.923773</ele>
        <time>2025-07-10T09:27:13.000Z</time>
      </trkpt>
      <trkpt lat="44.80917" lon="5.88958">
        <ele>906.927172</ele>
        <time>2025-07-10T09:27:14.000Z</time>
      </trkpt>
      <trkpt lat="44.80919" lon="5.88953">
        <ele>906.930571</ele>
        <time>2025-07-10T09:27:15.000Z</time>
      </trkpt>
      <trkpt lat="44.8092" lon="5.88948">
        <ele>906.933775</ele>
        <time>2025-07-10T09:27:16.000Z</time>
      </trkpt>
      <trkpt lat="44.80922" lon="5.88944">
        <ele>906.937157</ele>
        <time>2025-07-10T09:27:17.000Z</time>
      </trkpt>
      <trkpt lat="44.80923" lon="5.88939">
        <ele>906.940498</ele>
        <time>2025-07-10T09:27:18.000Z</time>
      </trkpt>
      <trkpt lat="44.80925" lon="5.88935">
        <ele>906.943838</ele>
        <time>2025-07-10T09:27:19.000Z</time>
      </trkpt>
      <trkpt lat="44.80927" lon="5.8893">
        <ele>906.947179</ele>
        <time>2025-07-10T09:27:20.000Z</time>
      </trkpt>
      <trkpt lat="44.80928" lon="5.88925">
        <ele>906.95054</ele>
        <time>2025-07-10T09:27:21.000Z</time>
      </trkpt>
      <trkpt lat="44.8093" lon="5.88921">
        <ele>906.953922</ele>
        <time>2025-07-10T09:27:22.000Z</time>
      </trkpt>
      <trkpt lat="44.80932" lon="5.88916">
        <ele>906.957392</ele>
        <time>2025-07-10T09:27:23.000Z</time>
      </trkpt>
      <trkpt lat="44.80933" lon="5.88912">
        <ele>906.960818</ele>
        <time>2025-07-10T09:27:24.000Z</time>
      </trkpt>
      <trkpt lat="44.80935" lon="5.88907">
        <ele>906.964276</ele>
        <time>2025-07-10T09:27:25.000Z</time>
      </trkpt>
      <trkpt lat="44.80937" lon="5.88902">
        <ele>906.967793</ele>
        <time>2025-07-10T09:27:26.000Z</time>
      </trkpt>
      <trkpt lat="44.80938" lon="5.88897">
        <ele>906.97131</ele>
        <time>2025-07-10T09:27:27.000Z</time>
      </trkpt>
      <trkpt lat="44.8094" lon="5.88892">
        <ele>906.97473</ele>
        <time>2025-07-10T09:27:28.000Z</time>
      </trkpt>
      <trkpt lat="44.80942" lon="5.88887">
        <ele>906.978328</ele>
        <time>2025-07-10T09:27:29.000Z</time>
      </trkpt>
      <trkpt lat="44.80943" lon="5.88882">
        <ele>906.981984</ele>
        <time>2025-07-10T09:27:30.000Z</time>
      </trkpt>
      <trkpt lat="44.80945" lon="5.88877">
        <ele>906.985502</ele>
        <time>2025-07-10T09:27:31.000Z</time>
      </trkpt>
      <trkpt lat="44.80947" lon="5.88872">
        <ele>906.989078</ele>
        <time>2025-07-10T09:27:32.000Z</time>
      </trkpt>
      <trkpt lat="44.80948" lon="5.88867">
        <ele>906.992694</ele>
        <time>2025-07-10T09:27:33.000Z</time>
      </trkpt>
      <trkpt lat="44.8095" lon="5.88863">
        <ele>906.996192</ele>
        <time>2025-07-10T09:27:34.000Z</time>
      </trkpt>
      <trkpt lat="44.80952" lon="5.88858">
        <ele>906.999765</ele>
        <time>2025-07-10T09:27:35.000Z</time>
      </trkpt>
      <trkpt lat="44.80954" lon="5.88853">
        <ele>907.003508</ele>
        <time>2025-07-10T09:27:36.000Z</time>
      </trkpt>
      <trkpt lat="44.80956" lon="5.88848">
        <ele>907.007085</ele>
        <time>2025-07-10T09:27:37.000Z</time>
      </trkpt>
      <trkpt lat="44.80957" lon="5.88843">
        <ele>907.010741</ele>
        <time>2025-07-10T09:27:38.000Z</time>
      </trkpt>
      <trkpt lat="44.80959" lon="5.88838">
        <ele>907.008116</ele>
        <time>2025-07-10T09:27:39.000Z</time>
      </trkpt>
      <trkpt lat="44.80961" lon="5.88833">
        <ele>906.996496</ele>
        <time>2025-07-10T09:27:40.000Z</time>
      </trkpt>
      <trkpt lat="44.80962" lon="5.88827">
        <ele>906.984685</ele>
        <time>2025-07-10T09:27:41.000Z</time>
      </trkpt>
      <trkpt lat="44.80964" lon="5.88822">
        <ele>906.973001</ele>
        <time>2025-07-10T09:27:42.000Z</time>
      </trkpt>
      <trkpt lat="44.80966" lon="5.88818">
        <ele>906.961688</ele>
        <time>2025-07-10T09:27:43.000Z</time>
      </trkpt>
      <trkpt lat="44.80968" lon="5.88813">
        <ele>906.949908</ele>
        <time>2025-07-10T09:27:44.000Z</time>
      </trkpt>
      <trkpt lat="44.8097" lon="5.88808">
        <ele>906.938594</ele>
        <time>2025-07-10T09:27:45.000Z</time>
      </trkpt>
      <trkpt lat="44.80972" lon="5.88803">
        <ele>906.926958</ele>
        <time>2025-07-10T09:27:46.000Z</time>
      </trkpt>
      <trkpt lat="44.80973" lon="5.88798">
        <ele>906.915404</ele>
        <time>2025-07-10T09:27:47.000Z</time>
      </trkpt>
      <trkpt lat="44.80975" lon="5.88793">
        <ele>906.904038</ele>
        <time>2025-07-10T09:27:48.000Z</time>
      </trkpt>
      <trkpt lat="44.80977" lon="5.88788">
        <ele>906.892484</ele>
        <time>2025-07-10T09:27:49.000Z</time>
      </trkpt>
      <trkpt lat="44.80979" lon="5.88783">
        <ele>906.88093</ele>
        <time>2025-07-10T09:27:50.000Z</time>
      </trkpt>
      <trkpt lat="44.8098" lon="5.88778">
        <ele>906.86981</ele>
        <time>2025-07-10T09:27:51.000Z</time>
      </trkpt>
      <trkpt lat="44.80982" lon="5.88773">
        <ele>906.858443</ele>
        <time>2025-07-10T09:27:52.000Z</time>
      </trkpt>
      <trkpt lat="44.80983" lon="5.88768">
        <ele>906.846823</ele>
        <time>2025-07-10T09:27:53.000Z</time>
      </trkpt>
      <trkpt lat="44.80985" lon="5.88763">
        <ele>906.835393</ele>
        <time>2025-07-10T09:27:54.000Z</time>
      </trkpt>
      <trkpt lat="44.80987" lon="5.88758">
        <ele>906.82371</ele>
        <time>2025-07-10T09:27:55.000Z</time>
      </trkpt>
      <trkpt lat="44.80989" lon="5.88753">
        <ele>906.812026</ele>
        <time>2025-07-10T09:27:56.000Z</time>
      </trkpt>
      <trkpt lat="44.80991" lon="5.88748">
        <ele>906.800065</ele>
        <time>2025-07-10T09:27:57.000Z</time>
      </trkpt>
      <trkpt lat="44.80992" lon="5.88743">
        <ele>906.788245</ele>
        <time>2025-07-10T09:27:58.000Z</time>
      </trkpt>
      <trkpt lat="44.80994" lon="5.88738">
        <ele>906.776243</ele>
        <time>2025-07-10T09:27:59.000Z</time>
      </trkpt>
      <trkpt lat="44.80996" lon="5.88733">
        <ele>906.764122</ele>
        <time>2025-07-10T09:28:00.000Z</time>
      </trkpt>
      <trkpt lat="44.80997" lon="5.88727">
        <ele>906.752002</ele>
        <time>2025-07-10T09:28:01.000Z</time>
      </trkpt>
      <trkpt lat="44.80999" lon="5.88722">
        <ele>906.739945</ele>
        <time>2025-07-10T09:28:02.000Z</time>
      </trkpt>
      <trkpt lat="44.81001" lon="5.88717">
        <ele>906.727888</ele>
        <time>2025-07-10T09:28:03.000Z</time>
      </trkpt>
      <trkpt lat="44.81003" lon="5.88712">
        <ele>906.715957</ele>
        <time>2025-07-10T09:28:04.000Z</time>
      </trkpt>
      <trkpt lat="44.81004" lon="5.88706">
        <ele>906.703763</ele>
        <time>2025-07-10T09:28:05.000Z</time>
      </trkpt>
      <trkpt lat="44.81006" lon="5.88701">
        <ele>906.69176</ele>
        <time>2025-07-10T09:28:06.000Z</time>
      </trkpt>
      <trkpt lat="44.81008" lon="5.88696">
        <ele>906.679757</ele>
        <time>2025-07-10T09:28:07.000Z</time>
      </trkpt>
      <trkpt lat="44.8101" lon="5.88691">
        <ele>906.668015</ele>
        <time>2025-07-10T09:28:08.000Z</time>
      </trkpt>
      <trkpt lat="44.81011" lon="5.88685">
        <ele>906.655582</ele>
        <time>2025-07-10T09:28:09.000Z</time>
      </trkpt>
      <trkpt lat="44.81013" lon="5.8868">
        <ele>906.643208</ele>
        <time>2025-07-10T09:28:10.000Z</time>
      </trkpt>
      <trkpt lat="44.81015" lon="5.88675">
        <ele>906.630882</ele>
        <time>2025-07-10T09:28:11.000Z</time>
      </trkpt>
      <trkpt lat="44.81017" lon="5.8867">
        <ele>906.61874</ele>
        <time>2025-07-10T09:28:12.000Z</time>
      </trkpt>
      <trkpt lat="44.81019" lon="5.88665">
        <ele>906.606452</ele>
        <time>2025-07-10T09:28:13.000Z</time>
      </trkpt>
      <trkpt lat="44.81022" lon="5.8866">
        <ele>906.594192</ele>
        <time>2025-07-10T09:28:14.000Z</time>
      </trkpt>
      <trkpt lat="44.81024" lon="5.88655">
        <ele>906.582122</ele>
        <time>2025-07-10T09:28:15.000Z</time>
      </trkpt>
      <trkpt lat="44.81026" lon="5.8865">
        <ele>906.569545</ele>
        <time>2025-07-10T09:28:16.000Z</time>
      </trkpt>
      <trkpt lat="44.81029" lon="5.88645">
        <ele>906.557308</ele>
        <time>2025-07-10T09:28:17.000Z</time>
      </trkpt>
      <trkpt lat="44.81031" lon="5.88641">
        <ele>906.545241</ele>
        <time>2025-07-10T09:28:18.000Z</time>
      </trkpt>
      <trkpt lat="44.81034" lon="5.88636">
        <ele>906.533005</ele>
        <time>2025-07-10T09:28:19.000Z</time>
      </trkpt>
      <trkpt lat="44.81036" lon="5.88631">
        <ele>906.520585</ele>
        <time>2025-07-10T09:28:20.000Z</time>
      </trkpt>
      <trkpt lat="44.81039" lon="5.88626">
        <ele>906.508144</ele>
        <time>2025-07-10T09:28:21.000Z</time>
      </trkpt>
      <trkpt lat="44.81041" lon="5.88622">
        <ele>906.49607</ele>
        <time>2025-07-10T09:28:22.000Z</time>
      </trkpt>
      <trkpt lat="44.81044" lon="5.88617">
        <ele>906.484838</ele>
        <time>2025-07-10T09:28:23.000Z</time>
      </trkpt>
      <trkpt lat="44.81047" lon="5.88612">
        <ele>906.48659</ele>
        <time>2025-07-10T09:28:24.000Z</time>
      </trkpt>
      <trkpt lat="44.8105" lon="5.88608">
        <ele>906.488299</ele>
        <time>2025-07-10T09:28:25.000Z</time>
      </trkpt>
      <trkpt lat="44.81053" lon="5.88603">
        <ele>906.490062</ele>
        <time>2025-07-10T09:28:26.000Z</time>
      </trkpt>
      <trkpt lat="44.81055" lon="5.88599">
        <ele>906.491797</ele>
        <time>2025-07-10T09:28:27.000Z</time>
      </trkpt>
      <trkpt lat="44.81058" lon="5.88594">
        <ele>906.493506</ele>
        <time>2025-07-10T09:28:28.000Z</time>
      </trkpt>
      <trkpt lat="44.81061" lon="5.8859">
        <ele>906.495236</ele>
        <time>2025-07-10T09:28:29.000Z</time>
      </trkpt>
      <trkpt lat="44.81064" lon="5.88585">
        <ele>906.49702</ele>
        <time>2025-07-10T09:28:30.000Z</time>
      </trkpt>
      <trkpt lat="44.81067" lon="5.88581">
        <ele>906.49875</ele>
        <time>2025-07-10T09:28:31.000Z</time>
      </trkpt>
      <trkpt lat="44.8107" lon="5.88576">
        <ele>906.50055</ele>
        <time>2025-07-10T09:28:32.000Z</time>
      </trkpt>
      <trkpt lat="44.81073" lon="5.88571">
        <ele>906.502346</ele>
        <time>2025-07-10T09:28:33.000Z</time>
      </trkpt>
      <trkpt lat="44.81075" lon="5.88566">
        <ele>906.504121</ele>
        <time>2025-07-10T09:28:34.000Z</time>
      </trkpt>
      <trkpt lat="44.81078" lon="5.88561">
        <ele>906.505825</ele>
        <time>2025-07-10T09:28:35.000Z</time>
      </trkpt>
      <trkpt lat="44.81081" lon="5.88557">
        <ele>906.507555</ele>
        <time>2025-07-10T09:28:36.000Z</time>
      </trkpt>
      <trkpt lat="44.81084" lon="5.88552">
        <ele>906.50926</ele>
        <time>2025-07-10T09:28:37.000Z</time>
      </trkpt>
      <trkpt lat="44.81086" lon="5.88548">
        <ele>906.510939</ele>
        <time>2025-07-10T09:28:38.000Z</time>
      </trkpt>
      <trkpt lat="44.81089" lon="5.88543">
        <ele>906.512595</ele>
        <time>2025-07-10T09:28:39.000Z</time>
      </trkpt>
      <trkpt lat="44.81091" lon="5.88539">
        <ele>906.514278</ele>
        <time>2025-07-10T09:28:40.000Z</time>
      </trkpt>
      <trkpt lat="44.81094" lon="5.88534">
        <ele>906.515982</ele>
        <time>2025-07-10T09:28:41.000Z</time>
      </trkpt>
      <trkpt lat="44.81097" lon="5.8853">
        <ele>906.517665</ele>
        <time>2025-07-10T09:28:42.000Z</time>
      </trkpt>
      <trkpt lat="44.81099" lon="5.88525">
        <ele>906.519274</ele>
        <time>2025-07-10T09:28:43.000Z</time>
      </trkpt>
      <trkpt lat="44.81102" lon="5.88521">
        <ele>906.520859</ele>
        <time>2025-07-10T09:28:44.000Z</time>
      </trkpt>
      <trkpt lat="44.81104" lon="5.88516">
        <ele>906.522466</ele>
        <time>2025-07-10T09:28:45.000Z</time>
      </trkpt>
      <trkpt lat="44.81107" lon="5.88512">
        <ele>906.524098</ele>
        <time>2025-07-10T09:28:46.000Z</time>
      </trkpt>
      <trkpt lat="44.81109" lon="5.88507">
        <ele>906.525707</ele>
        <time>2025-07-10T09:28:47.000Z</time>
      </trkpt>
      <trkpt lat="44.81112" lon="5.88503">
        <ele>906.527316</ele>
        <time>2025-07-10T09:28:48.000Z</time>
      </trkpt>
      <trkpt lat="44.81114" lon="5.88498">
        <ele>906.528948</ele>
        <time>2025-07-10T09:28:49.000Z</time>
      </trkpt>
      <trkpt lat="44.81117" lon="5.88494">
        <ele>906.530555</ele>
        <time>2025-07-10T09:28:50.000Z</time>
      </trkpt>
      <trkpt lat="44.81119" lon="5.8849">
        <ele>906.532092</ele>
        <time>2025-07-10T09:28:51.000Z</time>
      </trkpt>
      <trkpt lat="44.81121" lon="5.88485">
        <ele>906.5337</ele>
        <time>2025-07-10T09:28:52.000Z</time>
      </trkpt>
      <trkpt lat="44.81124" lon="5.88481">
        <ele>906.535306</ele>
        <time>2025-07-10T09:28:53.000Z</time>
      </trkpt>
      <trkpt lat="44.81126" lon="5.88476">
        <ele>906.536866</ele>
        <time>2025-07-10T09:28:54.000Z</time>
      </trkpt>
      <trkpt lat="44.81128" lon="5.88472">
        <ele>906.53845</ele>
        <time>2025-07-10T09:28:55.000Z</time>
      </trkpt>
      <trkpt lat="44.8113" lon="5.88467">
        <ele>906.54001</ele>
        <time>2025-07-10T09:28:56.000Z</time>
      </trkpt>
      <trkpt lat="44.81133" lon="5.88463">
        <ele>906.541547</ele>
        <time>2025-07-10T09:28:57.000Z</time>
      </trkpt>
      <trkpt lat="44.81135" lon="5.88459">
        <ele>906.543087</ele>
        <time>2025-07-10T09:28:58.000Z</time>
      </trkpt>
      <trkpt lat="44.81137" lon="5.88454">
        <ele>906.544647</ele>
        <time>2025-07-10T09:28:59.000Z</time>
      </trkpt>
      <trkpt lat="44.8114" lon="5.8845">
        <ele>906.546207</ele>
        <time>2025-07-10T09:29:00.000Z</time>
      </trkpt>
      <trkpt lat="44.81142" lon="5.88445">
        <ele>906.547791</ele>
        <time>2025-07-10T09:29:01.000Z</time>
      </trkpt>
      <trkpt lat="44.81144" lon="5.88441">
        <ele>906.549374</ele>
        <time>2025-07-10T09:29:02.000Z</time>
      </trkpt>
      <trkpt lat="44.81146" lon="5.88436">
        <ele>906.550958</ele>
        <time>2025-07-10T09:29:03.000Z</time>
      </trkpt>
      <trkpt lat="44.81149" lon="5.88432">
        <ele>906.552471</ele>
        <time>2025-07-10T09:29:04.000Z</time>
      </trkpt>
      <trkpt lat="44.81151" lon="5.88428">
        <ele>906.554008</ele>
        <time>2025-07-10T09:29:05.000Z</time>
      </trkpt>
      <trkpt lat="44.81153" lon="5.88423">
        <ele>906.555546</ele>
        <time>2025-07-10T09:29:06.000Z</time>
      </trkpt>
      <trkpt lat="44.81155" lon="5.88419">
        <ele>906.55704</ele>
        <time>2025-07-10T09:29:07.000Z</time>
      </trkpt>
      <trkpt lat="44.81157" lon="5.88414">
        <ele>906.555107</ele>
        <time>2025-07-10T09:29:08.000Z</time>
      </trkpt>
      <trkpt lat="44.81159" lon="5.8841">
        <ele>906.553147</ele>
        <time>2025-07-10T09:29:09.000Z</time>
      </trkpt>
      <trkpt lat="44.81161" lon="5.88405">
        <ele>906.551127</ele>
        <time>2025-07-10T09:29:10.000Z</time>
      </trkpt>
      <trkpt lat="44.81163" lon="5.88401">
        <ele>906.549108</ele>
        <time>2025-07-10T09:29:11.000Z</time>
      </trkpt>
      <trkpt lat="44.81165" lon="5.88396">
        <ele>906.547114</ele>
        <time>2025-07-10T09:29:12.000Z</time>
      </trkpt>
      <trkpt lat="44.81167" lon="5.88391">
        <ele>906.54514</ele>
        <time>2025-07-10T09:29:13.000Z</time>
      </trkpt>
      <trkpt lat="44.81169" lon="5.88387">
        <ele>906.543166</ele>
        <time>2025-07-10T09:29:14.000Z</time>
      </trkpt>
      <trkpt lat="44.81171" lon="5.88382">
        <ele>906.541173</ele>
        <time>2025-07-10T09:29:15.000Z</time>
      </trkpt>
      <trkpt lat="44.81172" lon="5.88377">
        <ele>906.539213</ele>
        <time>2025-07-10T09:29:16.000Z</time>
      </trkpt>
      <trkpt lat="44.81174" lon="5.88372">
        <ele>906.53722</ele>
        <time>2025-07-10T09:29:17.000Z</time>
      </trkpt>
      <trkpt lat="44.81175" lon="5.88367">
        <ele>906.535145</ele>
        <time>2025-07-10T09:29:18.000Z</time>
      </trkpt>
      <trkpt lat="44.81177" lon="5.88362">
        <ele>906.533124</ele>
        <time>2025-07-10T09:29:19.000Z</time>
      </trkpt>
      <trkpt lat="44.81178" lon="5.88357">
        <ele>906.531097</ele>
        <time>2025-07-10T09:29:20.000Z</time>
      </trkpt>
      <trkpt lat="44.8118" lon="5.88352">
        <ele>906.529015</ele>
        <time>2025-07-10T09:29:21.000Z</time>
      </trkpt>
      <trkpt lat="44.81182" lon="5.88346">
        <ele>906.52692</ele>
        <time>2025-07-10T09:29:22.000Z</time>
      </trkpt>
      <trkpt lat="44.81183" lon="5.88341">
        <ele>906.524743</ele>
        <time>2025-07-10T09:29:23.000Z</time>
      </trkpt>
      <trkpt lat="44.81185" lon="5.88336">
        <ele>906.52258</ele>
        <time>2025-07-10T09:29:24.000Z</time>
      </trkpt>
      <trkpt lat="44.81186" lon="5.8833">
        <ele>906.520577</ele>
        <time>2025-07-10T09:29:25.000Z</time>
      </trkpt>
      <trkpt lat="44.81187" lon="5.88325">
        <ele>906.518486</ele>
        <time>2025-07-10T09:29:26.000Z</time>
      </trkpt>
      <trkpt lat="44.81188" lon="5.88319">
        <ele>906.516324</ele>
        <time>2025-07-10T09:29:27.000Z</time>
      </trkpt>
      <trkpt lat="44.81189" lon="5.88314">
        <ele>906.514177</ele>
        <time>2025-07-10T09:29:28.000Z</time>
      </trkpt>
      <trkpt lat="44.81191" lon="5.88308">
        <ele>906.512018</ele>
        <time>2025-07-10T09:29:29.000Z</time>
      </trkpt>
      <trkpt lat="44.81192" lon="5.88303">
        <ele>906.50991</ele>
        <time>2025-07-10T09:29:30.000Z</time>
      </trkpt>
      <trkpt lat="44.81194" lon="5.88298">
        <ele>906.50782</ele>
        <time>2025-07-10T09:29:31.000Z</time>
      </trkpt>
      <trkpt lat="44.81195" lon="5.88292">
        <ele>906.505626</ele>
        <time>2025-07-10T09:29:32.000Z</time>
      </trkpt>
      <trkpt lat="44.81196" lon="5.88286">
        <ele>906.503414</ele>
        <time>2025-07-10T09:29:33.000Z</time>
      </trkpt>
      <trkpt lat="44.81198" lon="5.88281">
        <ele>906.501202</ele>
        <time>2025-07-10T09:29:34.000Z</time>
      </trkpt>
      <trkpt lat="44.81199" lon="5.88275">
        <ele>906.499008</ele>
        <time>2025-07-10T09:29:35.000Z</time>
      </trkpt>
      <trkpt lat="44.81201" lon="5.88269">
        <ele>906.49676</ele>
        <time>2025-07-10T09:29:36.000Z</time>
      </trkpt>
      <trkpt lat="44.81202" lon="5.88264">
        <ele>906.494583</ele>
        <time>2025-07-10T09:29:37.000Z</time>
      </trkpt>
      <trkpt lat="44.81203" lon="5.88258">
        <ele>906.492421</ele>
        <time>2025-07-10T09:29:38.000Z</time>
      </trkpt>
      <trkpt lat="44.81205" lon="5.88252">
        <ele>906.490157</ele>
        <time>2025-07-10T09:29:39.000Z</time>
      </trkpt>
      <trkpt lat="44.81206" lon="5.88247">
        <ele>906.487962</ele>
        <time>2025-07-10T09:29:40.000Z</time>
      </trkpt>
      <trkpt lat="44.81207" lon="5.88241">
        <ele>906.485785</ele>
        <time>2025-07-10T09:29:41.000Z</time>
      </trkpt>
      <trkpt lat="44.81209" lon="5.88236">
        <ele>906.483656</ele>
        <time>2025-07-10T09:29:42.000Z</time>
      </trkpt>
      <trkpt lat="44.81211" lon="5.88231">
        <ele>906.481479</ele>
        <time>2025-07-10T09:29:43.000Z</time>
      </trkpt>
      <trkpt lat="44.81212" lon="5.88225">
        <ele>906.479301</ele>
        <time>2025-07-10T09:29:44.000Z</time>
      </trkpt>
      <trkpt lat="44.81213" lon="5.88219">
        <ele>906.477089</ele>
        <time>2025-07-10T09:29:45.000Z</time>
      </trkpt>
      <trkpt lat="44.81215" lon="5.88214">
        <ele>906.474842</ele>
        <time>2025-07-10T09:29:46.000Z</time>
      </trkpt>
      <trkpt lat="44.81216" lon="5.88208">
        <ele>906.472594</ele>
        <time>2025-07-10T09:29:47.000Z</time>
      </trkpt>
      <trkpt lat="44.81218" lon="5.88202">
        <ele>906.470363</ele>
        <time>2025-07-10T09:29:48.000Z</time>
      </trkpt>
      <trkpt lat="44.81219" lon="5.88196">
        <ele>906.468115</ele>
        <time>2025-07-10T09:29:49.000Z</time>
      </trkpt>
      <trkpt lat="44.8122" lon="5.88191">
        <ele>906.465953</ele>
        <time>2025-07-10T09:29:50.000Z</time>
      </trkpt>
      <trkpt lat="44.81221" lon="5.88185">
        <ele>906.463759</ele>
        <time>2025-07-10T09:29:51.000Z</time>
      </trkpt>
      <trkpt lat="44.81223" lon="5.8818">
        <ele>906.448859</ele>
        <time>2025-07-10T09:29:52.000Z</time>
      </trkpt>
      <trkpt lat="44.81224" lon="5.88174">
        <ele>906.430899</ele>
        <time>2025-07-10T09:29:53.000Z</time>
      </trkpt>
      <trkpt lat="44.81225" lon="5.88169">
        <ele>906.41355</ele>
        <time>2025-07-10T09:29:54.000Z</time>
      </trkpt>
      <trkpt lat="44.81226" lon="5.88163">
        <ele>906.3962</ele>
        <time>2025-07-10T09:29:55.000Z</time>
      </trkpt>
      <trkpt lat="44.81227" lon="5.88158">
        <ele>906.379097</ele>
        <time>2025-07-10T09:29:56.000Z</time>
      </trkpt>
      <trkpt lat="44.81227" lon="5.88152">
        <ele>906.361491</ele>
        <time>2025-07-10T09:29:57.000Z</time>
      </trkpt>
      <trkpt lat="44.81227" lon="5.88146">
        <ele>906.344273</ele>
        <time>2025-07-10T09:29:58.000Z</time>
      </trkpt>
      <trkpt lat="44.81227" lon="5.88141">
        <ele>906.327363</ele>
        <time>2025-07-10T09:29:59.000Z</time>
      </trkpt>
      <trkpt lat="44.81227" lon="5.88136">
        <ele>906.310562</ele>
        <time>2025-07-10T09:30:00.000Z</time>
      </trkpt>
      <trkpt lat="44.81226" lon="5.8813">
        <ele>906.294208</ele>
        <time>2025-07-10T09:30:01.000Z</time>
      </trkpt>
      <trkpt lat="44.81225" lon="5.88125">
        <ele>906.277984</ele>
        <time>2025-07-10T09:30:02.000Z</time>
      </trkpt>
      <trkpt lat="44.81223" lon="5.8812">
        <ele>906.261581</ele>
        <time>2025-07-10T09:30:03.000Z</time>
      </trkpt>
      <trkpt lat="44.81221" lon="5.88116">
        <ele>906.244893</ele>
        <time>2025-07-10T09:30:04.000Z</time>
      </trkpt>
      <trkpt lat="44.81219" lon="5.88111">
        <ele>906.228797</ele>
        <time>2025-07-10T09:30:05.000Z</time>
      </trkpt>
      <trkpt lat="44.81217" lon="5.88107">
        <ele>906.212475</ele>
        <time>2025-07-10T09:30:06.000Z</time>
      </trkpt>
      <trkpt lat="44.81215" lon="5.88102">
        <ele>906.196175</ele>
        <time>2025-07-10T09:30:07.000Z</time>
      </trkpt>
      <trkpt lat="44.81213" lon="5.88098">
        <ele>906.179358</ele>
        <time>2025-07-10T09:30:08.000Z</time>
      </trkpt>
      <trkpt lat="44.81211" lon="5.88094">
        <ele>906.162559</ele>
        <time>2025-07-10T09:30:09.000Z</time>
      </trkpt>
      <trkpt lat="44.81208" lon="5.88089">
        <ele>906.146014</ele>
        <time>2025-07-10T09:30:10.000Z</time>
      </trkpt>
      <trkpt lat="44.81206" lon="5.88085">
        <ele>906.129216</ele>
        <time>2025-07-10T09:30:11.000Z</time>
      </trkpt>
      <trkpt lat="44.81204" lon="5.8808">
        <ele>906.112663</ele>
        <time>2025-07-10T09:30:12.000Z</time>
      </trkpt>
      <trkpt lat="44.81202" lon="5.88076">
        <ele>906.096368</ele>
        <time>2025-07-10T09:30:13.000Z</time>
      </trkpt>
      <trkpt lat="44.812" lon="5.88071">
        <ele>906.080425</ele>
        <time>2025-07-10T09:30:14.000Z</time>
      </trkpt>
      <trkpt lat="44.81198" lon="5.88067">
        <ele>906.064278</ele>
        <time>2025-07-10T09:30:15.000Z</time>
      </trkpt>
      <trkpt lat="44.81197" lon="5.88062">
        <ele>906.048531</ele>
        <time>2025-07-10T09:30:16.000Z</time>
      </trkpt>
      <trkpt lat="44.81195" lon="5.88058">
        <ele>906.03292</ele>
        <time>2025-07-10T09:30:17.000Z</time>
      </trkpt>
      <trkpt lat="44.81193" lon="5.88054">
        <ele>906.018267</ele>
        <time>2025-07-10T09:30:18.000Z</time>
      </trkpt>
      <trkpt lat="44.81191" lon="5.88049">
        <ele>906.00292</ele>
        <time>2025-07-10T09:30:19.000Z</time>
      </trkpt>
      <trkpt lat="44.81189" lon="5.88044">
        <ele>905.985757</ele>
        <time>2025-07-10T09:30:20.000Z</time>
      </trkpt>
      <trkpt lat="44.81187" lon="5.8804">
        <ele>905.967697</ele>
        <time>2025-07-10T09:30:21.000Z</time>
      </trkpt>
      <trkpt lat="44.81185" lon="5.88034">
        <ele>905.948371</ele>
        <time>2025-07-10T09:30:22.000Z</time>
      </trkpt>
      <trkpt lat="44.81182" lon="5.88029">
        <ele>905.929063</ele>
        <time>2025-07-10T09:30:23.000Z</time>
      </trkpt>
      <trkpt lat="44.8118" lon="5.88024">
        <ele>905.909737</ele>
        <time>2025-07-10T09:30:24.000Z</time>
      </trkpt>
      <trkpt lat="44.81177" lon="5.88018">
        <ele>905.889422</ele>
        <time>2025-07-10T09:30:25.000Z</time>
      </trkpt>
      <trkpt lat="44.81175" lon="5.88013">
        <ele>905.868611</ele>
        <time>2025-07-10T09:30:26.000Z</time>
      </trkpt>
      <trkpt lat="44.81172" lon="5.88007">
        <ele>905.8473</ele>
        <time>2025-07-10T09:30:27.000Z</time>
      </trkpt>
      <trkpt lat="44.81169" lon="5.88001">
        <ele>905.824988</ele>
        <time>2025-07-10T09:30:28.000Z</time>
      </trkpt>
      <trkpt lat="44.81166" lon="5.87995">
        <ele>905.802672</ele>
        <time>2025-07-10T09:30:29.000Z</time>
      </trkpt>
      <trkpt lat="44.81163" lon="5.87989">
        <ele>905.780485</ele>
        <time>2025-07-10T09:30:30.000Z</time>
      </trkpt>
      <trkpt lat="44.81161" lon="5.87983">
        <ele>905.758565</ele>
        <time>2025-07-10T09:30:31.000Z</time>
      </trkpt>
      <trkpt lat="44.81158" lon="5.87976">
        <ele>905.735974</ele>
        <time>2025-07-10T09:30:32.000Z</time>
      </trkpt>
      <trkpt lat="44.81155" lon="5.8797">
        <ele>905.71335</ele>
        <time>2025-07-10T09:30:33.000Z</time>
      </trkpt>
      <trkpt lat="44.81153" lon="5.87964">
        <ele>905.690463</ele>
        <time>2025-07-10T09:30:34.000Z</time>
      </trkpt>
      <trkpt lat="44.8115" lon="5.87957">
        <ele>905.646619</ele>
        <time>2025-07-10T09:30:35.000Z</time>
      </trkpt>
      <trkpt lat="44.81147" lon="5.87951">
        <ele>905.595734</ele>
        <time>2025-07-10T09:30:36.000Z</time>
      </trkpt>
      <trkpt lat="44.81144" lon="5.87945">
        <ele>905.545502</ele>
        <time>2025-07-10T09:30:37.000Z</time>
      </trkpt>
      <trkpt lat="44.81141" lon="5.87939">
        <ele>905.495269</ele>
        <time>2025-07-10T09:30:38.000Z</time>
      </trkpt>
      <trkpt lat="44.81139" lon="5.87933">
        <ele>905.446747</ele>
        <time>2025-07-10T09:30:39.000Z</time>
      </trkpt>
      <trkpt lat="44.81136" lon="5.87928">
        <ele>905.397678</ele>
        <time>2025-07-10T09:30:40.000Z</time>
      </trkpt>
      <trkpt lat="44.81133" lon="5.87922">
        <ele>905.348028</ele>
        <time>2025-07-10T09:30:41.000Z</time>
      </trkpt>
      <trkpt lat="44.8113" lon="5.87916">
        <ele>905.298397</ele>
        <time>2025-07-10T09:30:42.000Z</time>
      </trkpt>
      <trkpt lat="44.81127" lon="5.8791">
        <ele>905.248192</ele>
        <time>2025-07-10T09:30:43.000Z</time>
      </trkpt>
      <trkpt lat="44.81125" lon="5.87904">
        <ele>905.197959</ele>
        <time>2025-07-10T09:30:44.000Z</time>
      </trkpt>
      <trkpt lat="44.81122" lon="5.87898">
        <ele>905.148783</ele>
        <time>2025-07-10T09:30:45.000Z</time>
      </trkpt>
      <trkpt lat="44.81119" lon="5.87892">
        <ele>905.097898</ele>
        <time>2025-07-10T09:30:46.000Z</time>
      </trkpt>
      <trkpt lat="44.81116" lon="5.87886">
        <ele>905.045406</ele>
        <time>2025-07-10T09:30:47.000Z</time>
      </trkpt>
      <trkpt lat="44.81113" lon="5.87879">
        <ele>904.991167</ele>
        <time>2025-07-10T09:30:48.000Z</time>
      </trkpt>
      <trkpt lat="44.8111" lon="5.87872">
        <ele>904.935071</ele>
        <time>2025-07-10T09:30:49.000Z</time>
      </trkpt>
      <trkpt lat="44.81108" lon="5.87865">
        <ele>904.879472</ele>
        <time>2025-07-10T09:30:50.000Z</time>
      </trkpt>
      <trkpt lat="44.81105" lon="5.87858">
        <ele>904.823376</ele>
        <time>2025-07-10T09:30:51.000Z</time>
      </trkpt>
      <trkpt lat="44.81102" lon="5.87851">
        <ele>904.767646</ele>
        <time>2025-07-10T09:30:52.000Z</time>
      </trkpt>
      <trkpt lat="44.81099" lon="5.87845">
        <ele>904.717764</ele>
        <time>2025-07-10T09:30:53.000Z</time>
      </trkpt>
      <trkpt lat="44.81097" lon="5.8784">
        <ele>904.671556</ele>
        <time>2025-07-10T09:30:54.000Z</time>
      </trkpt>
      <trkpt lat="44.81094" lon="5.87834">
        <ele>904.623582</ele>
        <time>2025-07-10T09:30:55.000Z</time>
      </trkpt>
      <trkpt lat="44.81091" lon="5.87829">
        <ele>904.578418</ele>
        <time>2025-07-10T09:30:56.000Z</time>
      </trkpt>
      <trkpt lat="44.81089" lon="5.87823">
        <ele>904.53182</ele>
        <time>2025-07-10T09:30:57.000Z</time>
      </trkpt>
      <trkpt lat="44.81088" lon="5.87817">
        <ele>904.489659</ele>
        <time>2025-07-10T09:30:58.000Z</time>
      </trkpt>
      <trkpt lat="44.81086" lon="5.87812">
        <ele>904.448559</ele>
        <time>2025-07-10T09:30:59.000Z</time>
      </trkpt>
      <trkpt lat="44.81085" lon="5.87806">
        <ele>904.401138</ele>
        <time>2025-07-10T09:31:00.000Z</time>
      </trkpt>
      <trkpt lat="44.81086" lon="5.878">
        <ele>904.36302</ele>
        <time>2025-07-10T09:31:01.000Z</time>
      </trkpt>
      <trkpt lat="44.81086" lon="5.87793">
        <ele>904.312189</ele>
        <time>2025-07-10T09:31:02.000Z</time>
      </trkpt>
      <trkpt lat="44.81087" lon="5.87785">
        <ele>904.253834</ele>
        <time>2025-07-10T09:31:03.000Z</time>
      </trkpt>
      <trkpt lat="44.81087" lon="5.87777">
        <ele>904.199267</ele>
        <time>2025-07-10T09:31:04.000Z</time>
      </trkpt>
      <trkpt lat="44.81088" lon="5.8777">
        <ele>904.14856</ele>
        <time>2025-07-10T09:31:05.000Z</time>
      </trkpt>
      <trkpt lat="44.81087" lon="5.87763">
        <ele>904.100987</ele>
        <time>2025-07-10T09:31:06.000Z</time>
      </trkpt>
      <trkpt lat="44.81087" lon="5.87756">
        <ele>904.054655</ele>
        <time>2025-07-10T09:31:07.000Z</time>
      </trkpt>
      <trkpt lat="44.81088" lon="5.8775">
        <ele>904.006272</ele>
        <time>2025-07-10T09:31:08.000Z</time>
      </trkpt>
      <trkpt lat="44.81087" lon="5.87744">
        <ele>903.96389</ele>
        <time>2025-07-10T09:31:09.000Z</time>
      </trkpt>
      <trkpt lat="44.81087" lon="5.87737">
        <ele>903.92112</ele>
        <time>2025-07-10T09:31:10.000Z</time>
      </trkpt>
      <trkpt lat="44.81087" lon="5.87732">
        <ele>903.862008</ele>
        <time>2025-07-10T09:31:11.000Z</time>
      </trkpt>
      <trkpt lat="44.81086" lon="5.87726">
        <ele>903.804416</ele>
        <time>2025-07-10T09:31:12.000Z</time>
      </trkpt>
      <trkpt lat="44.81086" lon="5.87721">
        <ele>903.74615</ele>
        <time>2025-07-10T09:31:13.000Z</time>
      </trkpt>
      <trkpt lat="44.81085" lon="5.87716">
        <ele>903.694719</ele>
        <time>2025-07-10T09:31:14.000Z</time>
      </trkpt>
      <trkpt lat="44.81085" lon="5.87712">
        <ele>903.64422</ele>
        <time>2025-07-10T09:31:15.000Z</time>
      </trkpt>
      <trkpt lat="44.81085" lon="5.87708">
        <ele>903.599373</ele>
        <time>2025-07-10T09:31:16.000Z</time>
      </trkpt>
      <trkpt lat="44.81085" lon="5.87703">
        <ele>903.55018</ele>
        <time>2025-07-10T09:31:17.000Z</time>
      </trkpt>
      <trkpt lat="44.81085" lon="5.87699">
        <ele>903.50089</ele>
        <time>2025-07-10T09:31:18.000Z</time>
      </trkpt>
      <trkpt lat="44.81085" lon="5.87694">
        <ele>903.448685</ele>
        <time>2025-07-10T09:31:19.000Z</time>
      </trkpt>
      <trkpt lat="44.81085" lon="5.8769">
        <ele>903.399467</ele>
        <time>2025-07-10T09:31:20.000Z</time>
      </trkpt>
      <trkpt lat="44.81085" lon="5.87685">
        <ele>903.344461</ele>
        <time>2025-07-10T09:31:21.000Z</time>
      </trkpt>
      <trkpt lat="44.81085" lon="5.8768">
        <ele>903.293963</ele>
        <time>2025-07-10T09:31:22.000Z</time>
      </trkpt>
      <trkpt lat="44.81086" lon="5.87675">
        <ele>903.238763</ele>
        <time>2025-07-10T09:31:23.000Z</time>
      </trkpt>
      <trkpt lat="44.81086" lon="5.8767">
        <ele>903.179829</ele>
        <time>2025-07-10T09:31:24.000Z</time>
      </trkpt>
      <trkpt lat="44.81087" lon="5.87664">
        <ele>903.118743</ele>
        <time>2025-07-10T09:31:25.000Z</time>
      </trkpt>
      <trkpt lat="44.81088" lon="5.87659">
        <ele>903.058126</ele>
        <time>2025-07-10T09:31:26.000Z</time>
      </trkpt>
      <trkpt lat="44.81088" lon="5.87653">
        <ele>902.998594</ele>
        <time>2025-07-10T09:31:27.000Z</time>
      </trkpt>
      <trkpt lat="44.81088" lon="5.87648">
        <ele>902.937201</ele>
        <time>2025-07-10T09:31:28.000Z</time>
      </trkpt>
      <trkpt lat="44.81089" lon="5.87642">
        <ele>902.877848</ele>
        <time>2025-07-10T09:31:29.000Z</time>
      </trkpt>
      <trkpt lat="44.81089" lon="5.87636">
        <ele>902.814368</ele>
        <time>2025-07-10T09:31:30.000Z</time>
      </trkpt>
      <trkpt lat="44.81089" lon="5.8763">
        <ele>902.748488</ele>
        <time>2025-07-10T09:31:31.000Z</time>
      </trkpt>
      <trkpt lat="44.8109" lon="5.87625">
        <ele>902.685872</ele>
        <time>2025-07-10T09:31:32.000Z</time>
      </trkpt>
      <trkpt lat="44.8109" lon="5.87619">
        <ele>902.61917</ele>
        <time>2025-07-10T09:31:33.000Z</time>
      </trkpt>
      <trkpt lat="44.81089" lon="5.87612">
        <ele>902.55028</ele>
        <time>2025-07-10T09:31:34.000Z</time>
      </trkpt>
      <trkpt lat="44.81088" lon="5.87606">
        <ele>902.480792</ele>
        <time>2025-07-10T09:31:35.000Z</time>
      </trkpt>
      <trkpt lat="44.81088" lon="5.876">
        <ele>902.409468</ele>
        <time>2025-07-10T09:31:36.000Z</time>
      </trkpt>
      <trkpt lat="44.81087" lon="5.87593">
        <ele>902.335434</ele>
        <time>2025-07-10T09:31:37.000Z</time>
      </trkpt>
      <trkpt lat="44.81087" lon="5.87586">
        <ele>902.262045</ele>
        <time>2025-07-10T09:31:38.000Z</time>
      </trkpt>
      <trkpt lat="44.81087" lon="5.87579">
        <ele>902.185506</ele>
        <time>2025-07-10T09:31:39.000Z</time>
      </trkpt>
      <trkpt lat="44.81087" lon="5.87572">
        <ele>902.111106</ele>
        <time>2025-07-10T09:31:40.000Z</time>
      </trkpt>
      <trkpt lat="44.81087" lon="5.87566">
        <ele>902.03566</ele>
        <time>2025-07-10T09:31:41.000Z</time>
      </trkpt>
      <trkpt lat="44.81087" lon="5.87559">
        <ele>901.959137</ele>
        <time>2025-07-10T09:31:42.000Z</time>
      </trkpt>
      <trkpt lat="44.81086" lon="5.87552">
        <ele>901.882227</ele>
        <time>2025-07-10T09:31:43.000Z</time>
      </trkpt>
      <trkpt lat="44.81086" lon="5.87545">
        <ele>901.805564</ele>
        <time>2025-07-10T09:31:44.000Z</time>
      </trkpt>
      <trkpt lat="44.81086" lon="5.87537">
        <ele>901.727887</ele>
        <time>2025-07-10T09:31:45.000Z</time>
      </trkpt>
      <trkpt lat="44.81086" lon="5.8753">
        <ele>901.645378</ele>
        <time>2025-07-10T09:31:46.000Z</time>
      </trkpt>
      <trkpt lat="44.81086" lon="5.87522">
        <ele>901.557869</ele>
        <time>2025-07-10T09:31:47.000Z</time>
      </trkpt>
      <trkpt lat="44.81087" lon="5.87515">
        <ele>901.475793</ele>
        <time>2025-07-10T09:31:48.000Z</time>
      </trkpt>
      <trkpt lat="44.81088" lon="5.87507">
        <ele>901.396347</ele>
        <time>2025-07-10T09:31:49.000Z</time>
      </trkpt>
      <trkpt lat="44.81089" lon="5.875">
        <ele>901.314925</ele>
        <time>2025-07-10T09:31:50.000Z</time>
      </trkpt>
      <trkpt lat="44.81089" lon="5.87492">
        <ele>901.229531</ele>
        <time>2025-07-10T09:31:51.000Z</time>
      </trkpt>
      <trkpt lat="44.8109" lon="5.87484">
        <ele>901.128841</ele>
        <time>2025-07-10T09:31:52.000Z</time>
      </trkpt>
      <trkpt lat="44.8109" lon="5.87475">
        <ele>900.878218</ele>
        <time>2025-07-10T09:31:53.000Z</time>
      </trkpt>
      <trkpt lat="44.81089" lon="5.87466">
        <ele>900.608623</ele>
        <time>2025-07-10T09:31:54.000Z</time>
      </trkpt>
      <trkpt lat="44.81089" lon="5.87456">
        <ele>900.343308</ele>
        <time>2025-07-10T09:31:55.000Z</time>
      </trkpt>
      <trkpt lat="44.81089" lon="5.87447">
        <ele>900.069819</ele>
        <time>2025-07-10T09:31:56.000Z</time>
      </trkpt>
      <trkpt lat="44.81089" lon="5.87437">
        <ele>899.799265</ele>
        <time>2025-07-10T09:31:57.000Z</time>
      </trkpt>
      <trkpt lat="44.81088" lon="5.87427">
        <ele>899.519478</ele>
        <time>2025-07-10T09:31:58.000Z</time>
      </trkpt>
      <trkpt lat="44.81087" lon="5.87417">
        <ele>899.23574</ele>
        <time>2025-07-10T09:31:59.000Z</time>
      </trkpt>
      <trkpt lat="44.81086" lon="5.87408">
        <ele>898.951837</ele>
        <time>2025-07-10T09:32:00.000Z</time>
      </trkpt>
      <trkpt lat="44.81087" lon="5.87399">
        <ele>898.708164</ele>
        <time>2025-07-10T09:32:01.000Z</time>
      </trkpt>
      <trkpt lat="44.81087" lon="5.87391">
        <ele>898.468661</ele>
        <time>2025-07-10T09:32:02.000Z</time>
      </trkpt>
      <trkpt lat="44.81088" lon="5.87382">
        <ele>898.213197</ele>
        <time>2025-07-10T09:32:03.000Z</time>
      </trkpt>
      <trkpt lat="44.81089" lon="5.87373">
        <ele>897.960016</ele>
        <time>2025-07-10T09:32:04.000Z</time>
      </trkpt>
      <trkpt lat="44.81089" lon="5.87364">
        <ele>897.694094</ele>
        <time>2025-07-10T09:32:05.000Z</time>
      </trkpt>
      <trkpt lat="44.81089" lon="5.87355">
        <ele>897.443504</ele>
        <time>2025-07-10T09:32:06.000Z</time>
      </trkpt>
      <trkpt lat="44.81089" lon="5.87345">
        <ele>897.167168</ele>
        <time>2025-07-10T09:32:07.000Z</time>
      </trkpt>
      <trkpt lat="44.8109" lon="5.87336">
        <ele>896.886781</ele>
        <time>2025-07-10T09:32:08.000Z</time>
      </trkpt>
      <trkpt lat="44.81092" lon="5.87326">
        <ele>896.61327</ele>
        <time>2025-07-10T09:32:09.000Z</time>
      </trkpt>
      <trkpt lat="44.81091" lon="5.87316">
        <ele>896.319279</ele>
        <time>2025-07-10T09:32:10.000Z</time>
      </trkpt>
      <trkpt lat="44.81089" lon="5.87305">
        <ele>896.00969</ele>
        <time>2025-07-10T09:32:11.000Z</time>
      </trkpt>
      <trkpt lat="44.81086" lon="5.87296">
        <ele>895.72047</ele>
        <time>2025-07-10T09:32:12.000Z</time>
      </trkpt>
      <trkpt lat="44.81081" lon="5.87287">
        <ele>895.376526</ele>
        <time>2025-07-10T09:32:13.000Z</time>
      </trkpt>
      <trkpt lat="44.81075" lon="5.87278">
        <ele>895.017244</ele>
        <time>2025-07-10T09:32:14.000Z</time>
      </trkpt>
      <trkpt lat="44.81069" lon="5.87269">
        <ele>894.690696</ele>
        <time>2025-07-10T09:32:15.000Z</time>
      </trkpt>
      <trkpt lat="44.81064" lon="5.87261">
        <ele>894.368928</ele>
        <time>2025-07-10T09:32:16.000Z</time>
      </trkpt>
      <trkpt lat="44.81057" lon="5.87254">
        <ele>894.040986</ele>
        <time>2025-07-10T09:32:17.000Z</time>
      </trkpt>
      <trkpt lat="44.81051" lon="5.87247">
        <ele>893.717514</ele>
        <time>2025-07-10T09:32:18.000Z</time>
      </trkpt>
      <trkpt lat="44.81045" lon="5.87241">
        <ele>893.414421</ele>
        <time>2025-07-10T09:32:19.000Z</time>
      </trkpt>
      <trkpt lat="44.81038" lon="5.87235">
        <ele>893.095266</ele>
        <time>2025-07-10T09:32:20.000Z</time>
      </trkpt>
      <trkpt lat="44.81031" lon="5.8723">
        <ele>892.780375</ele>
        <time>2025-07-10T09:32:21.000Z</time>
      </trkpt>
      <trkpt lat="44.81024" lon="5.87225">
        <ele>892.468554</ele>
        <time>2025-07-10T09:32:22.000Z</time>
      </trkpt>
      <trkpt lat="44.81017" lon="5.8722">
        <ele>892.153662</ele>
        <time>2025-07-10T09:32:23.000Z</time>
      </trkpt>
      <trkpt lat="44.81011" lon="5.87215">
        <ele>891.848643</ele>
        <time>2025-07-10T09:32:24.000Z</time>
      </trkpt>
      <trkpt lat="44.81004" lon="5.87209">
        <ele>891.539925</ele>
        <time>2025-07-10T09:32:25.000Z</time>
      </trkpt>
      <trkpt lat="44.80998" lon="5.87203">
        <ele>891.219777</ele>
        <time>2025-07-10T09:32:26.000Z</time>
      </trkpt>
      <trkpt lat="44.80991" lon="5.87197">
        <ele>890.890011</ele>
        <time>2025-07-10T09:32:27.000Z</time>
      </trkpt>
      <trkpt lat="44.80985" lon="5.87189">
        <ele>890.545471</ele>
        <time>2025-07-10T09:32:28.000Z</time>
      </trkpt>
      <trkpt lat="44.80979" lon="5.87181">
        <ele>890.225525</ele>
        <time>2025-07-10T09:32:29.000Z</time>
      </trkpt>
      <trkpt lat="44.80974" lon="5.87174">
        <ele>889.939367</ele>
        <time>2025-07-10T09:32:30.000Z</time>
      </trkpt>
      <trkpt lat="44.8097" lon="5.87165">
        <ele>889.629818</ele>
        <time>2025-07-10T09:32:31.000Z</time>
      </trkpt>
      <trkpt lat="44.80965" lon="5.87156">
        <ele>889.308571</ele>
        <time>2025-07-10T09:32:32.000Z</time>
      </trkpt>
      <trkpt lat="44.8096" lon="5.87147">
        <ele>888.988514</ele>
        <time>2025-07-10T09:32:33.000Z</time>
      </trkpt>
      <trkpt lat="44.80954" lon="5.87138">
        <ele>888.638943</ele>
        <time>2025-07-10T09:32:34.000Z</time>
      </trkpt>
      <trkpt lat="44.80949" lon="5.87129">
        <ele>888.294769</ele>
        <time>2025-07-10T09:32:35.000Z</time>
      </trkpt>
      <trkpt lat="44.80943" lon="5.87121">
        <ele>887.968795</ele>
        <time>2025-07-10T09:32:36.000Z</time>
      </trkpt>
      <trkpt lat="44.80937" lon="5.87114">
        <ele>887.645071</ele>
        <time>2025-07-10T09:32:37.000Z</time>
      </trkpt>
      <trkpt lat="44.8093" lon="5.87108">
        <ele>887.32707</ele>
        <time>2025-07-10T09:32:38.000Z</time>
      </trkpt>
      <trkpt lat="44.80923" lon="5.87102">
        <ele>886.999461</ele>
        <time>2025-07-10T09:32:39.000Z</time>
      </trkpt>
      <trkpt lat="44.80916" lon="5.87096">
        <ele>886.669391</ele>
        <time>2025-07-10T09:32:40.000Z</time>
      </trkpt>
      <trkpt lat="44.8091" lon="5.8709">
        <ele>886.370298</ele>
        <time>2025-07-10T09:32:41.000Z</time>
      </trkpt>
      <trkpt lat="44.80904" lon="5.87082">
        <ele>886.060384</ele>
        <time>2025-07-10T09:32:42.000Z</time>
      </trkpt>
      <trkpt lat="44.80897" lon="5.87076">
        <ele>885.75108</ele>
        <time>2025-07-10T09:32:43.000Z</time>
      </trkpt>
      <trkpt lat="44.80891" lon="5.87071">
        <ele>885.490097</ele>
        <time>2025-07-10T09:32:44.000Z</time>
      </trkpt>
      <trkpt lat="44.80886" lon="5.87067">
        <ele>885.261615</ele>
        <time>2025-07-10T09:32:45.000Z</time>
      </trkpt>
      <trkpt lat="44.80881" lon="5.87062">
        <ele>885.009284</ele>
        <time>2025-07-10T09:32:46.000Z</time>
      </trkpt>
      <trkpt lat="44.80873" lon="5.87057">
        <ele>884.695341</ele>
        <time>2025-07-10T09:32:47.000Z</time>
      </trkpt>
      <trkpt lat="44.80865" lon="5.87053">
        <ele>884.370764</ele>
        <time>2025-07-10T09:32:48.000Z</time>
      </trkpt>
      <trkpt lat="44.80857" lon="5.8705">
        <ele>884.043386</ele>
        <time>2025-07-10T09:32:49.000Z</time>
      </trkpt>
      <trkpt lat="44.80848" lon="5.87048">
        <ele>883.71985</ele>
        <time>2025-07-10T09:32:50.000Z</time>
      </trkpt>
      <trkpt lat="44.8084" lon="5.87047">
        <ele>883.386523</ele>
        <time>2025-07-10T09:32:51.000Z</time>
      </trkpt>
      <trkpt lat="44.80831" lon="5.87047">
        <ele>883.065554</ele>
        <time>2025-07-10T09:32:52.000Z</time>
      </trkpt>
      <trkpt lat="44.80823" lon="5.87047">
        <ele>882.748116</ele>
        <time>2025-07-10T09:32:53.000Z</time>
      </trkpt>
      <trkpt lat="44.80815" lon="5.87046">
        <ele>882.422771</ele>
        <time>2025-07-10T09:32:54.000Z</time>
      </trkpt>
      <trkpt lat="44.80806" lon="5.87045">
        <ele>882.093255</ele>
        <time>2025-07-10T09:32:55.000Z</time>
      </trkpt>
      <trkpt lat="44.80797" lon="5.87044">
        <ele>881.762758</ele>
        <time>2025-07-10T09:32:56.000Z</time>
      </trkpt>
      <trkpt lat="44.80789" lon="5.87042">
        <ele>881.422982</ele>
        <time>2025-07-10T09:32:57.000Z</time>
      </trkpt>
      <trkpt lat="44.8078" lon="5.8704">
        <ele>881.092261</ele>
        <time>2025-07-10T09:32:58.000Z</time>
      </trkpt>
      <trkpt lat="44.80772" lon="5.87038">
        <ele>880.775945</ele>
        <time>2025-07-10T09:32:59.000Z</time>
      </trkpt>
      <trkpt lat="44.80764" lon="5.87035">
        <ele>880.458514</ele>
        <time>2025-07-10T09:33:00.000Z</time>
      </trkpt>
      <trkpt lat="44.80756" lon="5.87033">
        <ele>880.156587</ele>
        <time>2025-07-10T09:33:01.000Z</time>
      </trkpt>
      <trkpt lat="44.80748" lon="5.87032">
        <ele>879.852346</ele>
        <time>2025-07-10T09:33:02.000Z</time>
      </trkpt>
      <trkpt lat="44.8074" lon="5.87032">
        <ele>879.847102</ele>
        <time>2025-07-10T09:33:03.000Z</time>
      </trkpt>
      <trkpt lat="44.80732" lon="5.87033">
        <ele>879.971526</ele>
        <time>2025-07-10T09:33:04.000Z</time>
      </trkpt>
      <trkpt lat="44.80725" lon="5.87033">
        <ele>880.098923</ele>
        <time>2025-07-10T09:33:05.000Z</time>
      </trkpt>
      <trkpt lat="44.80717" lon="5.87032">
        <ele>880.227179</ele>
        <time>2025-07-10T09:33:06.000Z</time>
      </trkpt>
      <trkpt lat="44.80709" lon="5.87029">
        <ele>880.35882</ele>
        <time>2025-07-10T09:33:07.000Z</time>
      </trkpt>
      <trkpt lat="44.80701" lon="5.87025">
        <ele>880.49076</ele>
        <time>2025-07-10T09:33:08.000Z</time>
      </trkpt>
      <trkpt lat="44.80694" lon="5.8702">
        <ele>880.619689</ele>
        <time>2025-07-10T09:33:09.000Z</time>
      </trkpt>
      <trkpt lat="44.80687" lon="5.87014">
        <ele>880.746115</ele>
        <time>2025-07-10T09:33:10.000Z</time>
      </trkpt>
      <trkpt lat="44.80681" lon="5.87007">
        <ele>880.873184</ele>
        <time>2025-07-10T09:33:11.000Z</time>
      </trkpt>
      <trkpt lat="44.80676" lon="5.86999">
        <ele>880.993681</ele>
        <time>2025-07-10T09:33:12.000Z</time>
      </trkpt>
      <trkpt lat="44.80674" lon="5.86988">
        <ele>881.124434</ele>
        <time>2025-07-10T09:33:13.000Z</time>
      </trkpt>
      <trkpt lat="44.80675" lon="5.86977">
        <ele>881.249501</ele>
        <time>2025-07-10T09:33:14.000Z</time>
      </trkpt>
      <trkpt lat="44.80679" lon="5.86968">
        <ele>881.366922</ele>
        <time>2025-07-10T09:33:15.000Z</time>
      </trkpt>
      <trkpt lat="44.80684" lon="5.86963">
        <ele>881.475667</ele>
        <time>2025-07-10T09:33:16.000Z</time>
      </trkpt>
      <trkpt lat="44.8069" lon="5.86959">
        <ele>881.578025</ele>
        <time>2025-07-10T09:33:17.000Z</time>
      </trkpt>
      <trkpt lat="44.80696" lon="5.86957">
        <ele>881.676945</ele>
        <time>2025-07-10T09:33:18.000Z</time>
      </trkpt>
      <trkpt lat="44.80701" lon="5.86957">
        <ele>881.757969</ele>
        <time>2025-07-10T09:33:19.000Z</time>
      </trkpt>
      <trkpt lat="44.80705" lon="5.86956">
        <ele>881.824439</ele>
        <time>2025-07-10T09:33:20.000Z</time>
      </trkpt>
      <trkpt lat="44.80709" lon="5.86956">
        <ele>881.889033</ele>
        <time>2025-07-10T09:33:21.000Z</time>
      </trkpt>
      <trkpt lat="44.80713" lon="5.86955">
        <ele>881.948872</ele>
        <time>2025-07-10T09:33:22.000Z</time>
      </trkpt>
      <trkpt lat="44.80716" lon="5.86955">
        <ele>882.000524</ele>
        <time>2025-07-10T09:33:23.000Z</time>
      </trkpt>
      <trkpt lat="44.8072" lon="5.86956">
        <ele>882.052328</ele>
        <time>2025-07-10T09:33:24.000Z</time>
      </trkpt>
      <trkpt lat="44.80722" lon="5.86955">
        <ele>882.094504</ele>
        <time>2025-07-10T09:33:25.000Z</time>
      </trkpt>
      <trkpt lat="44.80724" lon="5.86955">
        <ele>882.128847</ele>
        <time>2025-07-10T09:33:26.000Z</time>
      </trkpt>
      <trkpt lat="44.80726" lon="5.86955">
        <ele>882.159507</ele>
        <time>2025-07-10T09:33:27.000Z</time>
      </trkpt>
      <trkpt lat="44.80728" lon="5.86955">
        <ele>882.191839</ele>
        <time>2025-07-10T09:33:28.000Z</time>
      </trkpt>
      <trkpt lat="44.8073" lon="5.86955">
        <ele>882.227481</ele>
        <time>2025-07-10T09:33:29.000Z</time>
      </trkpt>
      <trkpt lat="44.80732" lon="5.86955">
        <ele>882.256596</ele>
        <time>2025-07-10T09:33:30.000Z</time>
      </trkpt>
      <trkpt lat="44.80734" lon="5.86955">
        <ele>882.288929</ele>
        <time>2025-07-10T09:33:31.000Z</time>
      </trkpt>
      <trkpt lat="44.80737" lon="5.86954">
        <ele>882.327782</ele>
        <time>2025-07-10T09:33:32.000Z</time>
      </trkpt>
      <trkpt lat="44.80739" lon="5.86954">
        <ele>882.361819</ele>
        <time>2025-07-10T09:33:33.000Z</time>
      </trkpt>
      <trkpt lat="44.8074" lon="5.86954">
        <ele>882.378581</ele>
        <time>2025-07-10T09:33:34.000Z</time>
      </trkpt>
      <trkpt lat="44.80741" lon="5.86954">
        <ele>882.402877</ele>
        <time>2025-07-10T09:33:35.000Z</time>
      </trkpt>
      <trkpt lat="44.80743" lon="5.86954">
        <ele>882.433601</ele>
        <time>2025-07-10T09:33:36.000Z</time>
      </trkpt>
      <trkpt lat="44.80745" lon="5.86954">
        <ele>882.462717</ele>
        <time>2025-07-10T09:33:37.000Z</time>
      </trkpt>
      <trkpt lat="44.80747" lon="5.86954">
        <ele>882.491945</ele>
        <time>2025-07-10T09:33:38.000Z</time>
      </trkpt>
      <trkpt lat="44.80749" lon="5.86955">
        <ele>882.522605</ele>
        <time>2025-07-10T09:33:39.000Z</time>
      </trkpt>
      <trkpt lat="44.8075" lon="5.86955">
        <ele>882.551631</ele>
        <time>2025-07-10T09:33:40.000Z</time>
      </trkpt>
      <trkpt lat="44.80752" lon="5.86954">
        <ele>882.575846</ele>
        <time>2025-07-10T09:33:41.000Z</time>
      </trkpt>
      <trkpt lat="44.80754" lon="5.86955">
        <ele>882.604894</ele>
        <time>2025-07-10T09:33:42.000Z</time>
      </trkpt>
      <trkpt lat="44.80755" lon="5.86955">
        <ele>882.629082</ele>
        <time>2025-07-10T09:33:43.000Z</time>
      </trkpt>
      <trkpt lat="44.80757" lon="5.86955">
        <ele>882.656496</ele>
        <time>2025-07-10T09:33:44.000Z</time>
      </trkpt>
      <trkpt lat="44.80759" lon="5.86954">
        <ele>882.784031</ele>
        <time>2025-07-10T09:33:45.000Z</time>
      </trkpt>
      <trkpt lat="44.8076" lon="5.86954">
        <ele>882.898088</ele>
        <time>2025-07-10T09:33:46.000Z</time>
      </trkpt>
      <trkpt lat="44.80761" lon="5.86953">
        <ele>883.010112</ele>
        <time>2025-07-10T09:33:47.000Z</time>
      </trkpt>
      <trkpt lat="44.80763" lon="5.86952">
        <ele>883.157838</ele>
        <time>2025-07-10T09:33:48.000Z</time>
      </trkpt>
      <trkpt lat="44.80765" lon="5.86951">
        <ele>883.296061</ele>
        <time>2025-07-10T09:33:49.000Z</time>
      </trkpt>
      <trkpt lat="44.80766" lon="5.8695">
        <ele>883.451152</ele>
        <time>2025-07-10T09:33:50.000Z</time>
      </trkpt>
      <trkpt lat="44.80768" lon="5.86949">
        <ele>883.611321</ele>
        <time>2025-07-10T09:33:51.000Z</time>
      </trkpt>
      <trkpt lat="44.8077" lon="5.86949">
        <ele>883.730625</ele>
        <time>2025-07-10T09:33:52.000Z</time>
      </trkpt>
      <trkpt lat="44.80771" lon="5.86947">
        <ele>883.864159</ele>
        <time>2025-07-10T09:33:53.000Z</time>
      </trkpt>
      <trkpt lat="44.80773" lon="5.86946">
        <ele>883.999722</ele>
        <time>2025-07-10T09:33:54.000Z</time>
      </trkpt>
      <trkpt lat="44.80774" lon="5.86945">
        <ele>884.147448</ele>
        <time>2025-07-10T09:33:55.000Z</time>
      </trkpt>
      <trkpt lat="44.80776" lon="5.86944">
        <ele>884.28651</ele>
        <time>2025-07-10T09:33:56.000Z</time>
      </trkpt>
      <trkpt lat="44.80777" lon="5.86942">
        <ele>884.41239</ele>
        <time>2025-07-10T09:33:57.000Z</time>
      </trkpt>
      <trkpt lat="44.80778" lon="5.86941">
        <ele>884.545069</ele>
        <time>2025-07-10T09:33:58.000Z</time>
      </trkpt>
      <trkpt lat="44.8078" lon="5.86939">
        <ele>884.687409</ele>
        <time>2025-07-10T09:33:59.000Z</time>
      </trkpt>
      <trkpt lat="44.80781" lon="5.86938">
        <ele>884.803606</ele>
        <time>2025-07-10T09:34:00.000Z</time>
      </trkpt>
      <trkpt lat="44.80782" lon="5.86937">
        <ele>884.936005</ele>
        <time>2025-07-10T09:34:01.000Z</time>
      </trkpt>
      <trkpt lat="44.80784" lon="5.86935">
        <ele>885.059026</ele>
        <time>2025-07-10T09:34:02.000Z</time>
      </trkpt>
      <trkpt lat="44.80785" lon="5.86934">
        <ele>885.191705</ele>
        <time>2025-07-10T09:34:03.000Z</time>
      </trkpt>
      <trkpt lat="44.80786" lon="5.86934">
        <ele>885.280187</ele>
        <time>2025-07-10T09:34:04.000Z</time>
      </trkpt>
      <trkpt lat="44.80787" lon="5.86933">
        <ele>885.38275</ele>
        <time>2025-07-10T09:34:05.000Z</time>
      </trkpt>
      <trkpt lat="44.80788" lon="5.86932">
        <ele>885.483196</ele>
        <time>2025-07-10T09:34:06.000Z</time>
      </trkpt>
      <trkpt lat="44.80789" lon="5.86931">
        <ele>885.538911</ele>
        <time>2025-07-10T09:34:07.000Z</time>
      </trkpt>
      <trkpt lat="44.8079" lon="5.8693">
        <ele>885.640682</ele>
        <time>2025-07-10T09:34:08.000Z</time>
      </trkpt>
      <trkpt lat="44.80791" lon="5.86928">
        <ele>885.751992</ele>
        <time>2025-07-10T09:34:09.000Z</time>
      </trkpt>
      <trkpt lat="44.80792" lon="5.86927">
        <ele>885.866373</ele>
        <time>2025-07-10T09:34:10.000Z</time>
      </trkpt>
      <trkpt lat="44.80794" lon="5.86926">
        <ele>886.019169</ele>
        <time>2025-07-10T09:34:11.000Z</time>
      </trkpt>
      <trkpt lat="44.80795" lon="5.86925">
        <ele>886.161246</ele>
        <time>2025-07-10T09:34:12.000Z</time>
      </trkpt>
      <trkpt lat="44.80797" lon="5.86924">
        <ele>886.345595</ele>
        <time>2025-07-10T09:34:13.000Z</time>
      </trkpt>
      <trkpt lat="44.80799" lon="5.86923">
        <ele>886.493059</ele>
        <time>2025-07-10T09:34:14.000Z</time>
      </trkpt>
      <trkpt lat="44.80801" lon="5.86922">
        <ele>886.668112</ele>
        <time>2025-07-10T09:34:15.000Z</time>
      </trkpt>
      <trkpt lat="44.80803" lon="5.86921">
        <ele>886.796859</ele>
        <time>2025-07-10T09:34:16.000Z</time>
      </trkpt>
      <trkpt lat="44.80804" lon="5.8692">
        <ele>886.91124</ele>
        <time>2025-07-10T09:34:17.000Z</time>
      </trkpt>
      <trkpt lat="44.80805" lon="5.8692">
        <ele>887.032759</ele>
        <time>2025-07-10T09:34:18.000Z</time>
      </trkpt>
      <trkpt lat="44.80807" lon="5.86919">
        <ele>887.183591</ele>
        <time>2025-07-10T09:34:19.000Z</time>
      </trkpt>
      <trkpt lat="44.80808" lon="5.86918">
        <ele>887.27729</ele>
        <time>2025-07-10T09:34:20.000Z</time>
      </trkpt>
      <trkpt lat="44.8081" lon="5.86916">
        <ele>887.423138</ele>
        <time>2025-07-10T09:34:21.000Z</time>
      </trkpt>
      <trkpt lat="44.80812" lon="5.86915">
        <ele>887.570864</ele>
        <time>2025-07-10T09:34:22.000Z</time>
      </trkpt>
      <trkpt lat="44.80812" lon="5.86915">
        <ele>887.64949</ele>
        <time>2025-07-10T09:34:23.000Z</time>
      </trkpt>
      <trkpt lat="44.80814" lon="5.86914">
        <ele>887.759392</ele>
        <time>2025-07-10T09:34:24.000Z</time>
      </trkpt>
      <trkpt lat="44.80815" lon="5.86914">
        <ele>887.864475</ele>
        <time>2025-07-10T09:34:25.000Z</time>
      </trkpt>
      <trkpt lat="44.80817" lon="5.86913">
        <ele>888.000523</ele>
        <time>2025-07-10T09:34:26.000Z</time>
      </trkpt>
      <trkpt lat="44.80818" lon="5.86912">
        <ele>888.138746</ele>
        <time>2025-07-10T09:34:27.000Z</time>
      </trkpt>
      <trkpt lat="44.8082" lon="5.86911">
        <ele>888.268172</ele>
        <time>2025-07-10T09:34:28.000Z</time>
      </trkpt>
      <trkpt lat="44.80822" lon="5.8691">
        <ele>888.411585</ele>
        <time>2025-07-10T09:34:29.000Z</time>
      </trkpt>
      <trkpt lat="44.80823" lon="5.8691">
        <ele>888.553124</ele>
        <time>2025-07-10T09:34:30.000Z</time>
      </trkpt>
      <trkpt lat="44.80825" lon="5.86909">
        <ele>888.712653</ele>
        <time>2025-07-10T09:34:31.000Z</time>
      </trkpt>
      <trkpt lat="44.80827" lon="5.86909">
        <ele>888.858727</ele>
        <time>2025-07-10T09:34:32.000Z</time>
      </trkpt>
      <trkpt lat="44.80829" lon="5.86908">
        <ele>889.019139</ele>
        <time>2025-07-10T09:34:33.000Z</time>
      </trkpt>
      <trkpt lat="44.80831" lon="5.86907">
        <ele>889.151443</ele>
        <time>2025-07-10T09:34:34.000Z</time>
      </trkpt>
      <trkpt lat="44.80832" lon="5.86907">
        <ele>889.270433</ele>
        <time>2025-07-10T09:34:35.000Z</time>
      </trkpt>
      <trkpt lat="44.80833" lon="5.86907">
        <ele>889.335809</ele>
        <time>2025-07-10T09:34:36.000Z</time>
      </trkpt>
      <trkpt lat="44.80834" lon="5.86907">
        <ele>889.414981</ele>
        <time>2025-07-10T09:34:37.000Z</time>
      </trkpt>
      <trkpt lat="44.80834" lon="5.86907">
        <ele>889.44119</ele>
        <time>2025-07-10T09:34:38.000Z</time>
      </trkpt>
      <trkpt lat="44.80835" lon="5.86907">
        <ele>889.49897</ele>
        <time>2025-07-10T09:34:39.000Z</time>
      </trkpt>
      <trkpt lat="44.80836" lon="5.86906">
        <ele>889.582765</ele>
        <time>2025-07-10T09:34:40.000Z</time>
      </trkpt>
      <trkpt lat="44.80836" lon="5.86906">
        <ele>889.615378</ele>
        <time>2025-07-10T09:34:41.000Z</time>
      </trkpt>
      <trkpt lat="44.8084" lon="5.86905">
        <ele>889.905151</ele>
        <time>2025-07-10T09:34:43.000Z</time>
      </trkpt>
      <trkpt lat="44.80841" lon="5.86905">
        <ele>890.02414</ele>
        <time>2025-07-10T09:34:44.000Z</time>
      </trkpt>
      <trkpt lat="44.80843" lon="5.86905">
        <ele>890.182186</ele>
        <time>2025-07-10T09:34:45.000Z</time>
      </trkpt>
      <trkpt lat="44.80845" lon="5.86904">
        <ele>890.333174</ele>
        <time>2025-07-10T09:34:46.000Z</time>
      </trkpt>
      <trkpt lat="44.80847" lon="5.86904">
        <ele>890.476317</ele>
        <time>2025-07-10T09:34:47.000Z</time>
      </trkpt>
      <trkpt lat="44.80849" lon="5.86904">
        <ele>890.627305</ele>
        <time>2025-07-10T09:34:48.000Z</time>
      </trkpt>
      <trkpt lat="44.80851" lon="5.86904">
        <ele>890.762027</ele>
        <time>2025-07-10T09:34:49.000Z</time>
      </trkpt>
      <trkpt lat="44.80852" lon="5.86904">
        <ele>890.896282</ele>
        <time>2025-07-10T09:34:50.000Z</time>
      </trkpt>
      <trkpt lat="44.80854" lon="5.86904">
        <ele>891.006987</ele>
        <time>2025-07-10T09:34:51.000Z</time>
      </trkpt>
      <trkpt lat="44.80855" lon="5.86903">
        <ele>891.128714</ele>
        <time>2025-07-10T09:34:52.000Z</time>
      </trkpt>
      <trkpt lat="44.80857" lon="5.86903">
        <ele>891.286761</ele>
        <time>2025-07-10T09:34:53.000Z</time>
      </trkpt>
      <trkpt lat="44.80859" lon="5.86904">
        <ele>891.438475</ele>
        <time>2025-07-10T09:34:54.000Z</time>
      </trkpt>
      <trkpt lat="44.80861" lon="5.86903">
        <ele>891.573196</ele>
        <time>2025-07-10T09:34:55.000Z</time>
      </trkpt>
      <trkpt lat="44.80862" lon="5.86903">
        <ele>891.693758</ele>
        <time>2025-07-10T09:34:56.000Z</time>
      </trkpt>
      <trkpt lat="44.80864" lon="5.86903">
        <ele>891.844746</ele>
        <time>2025-07-10T09:34:57.000Z</time>
      </trkpt>
      <trkpt lat="44.80866" lon="5.86903">
        <ele>891.979001</ele>
        <time>2025-07-10T09:34:58.000Z</time>
      </trkpt>
      <trkpt lat="44.80868" lon="5.86902">
        <ele>892.107331</ele>
        <time>2025-07-10T09:34:59.000Z</time>
      </trkpt>
      <trkpt lat="44.80869" lon="5.86902">
        <ele>892.221388</ele>
        <time>2025-07-10T09:35:00.000Z</time>
      </trkpt>
      <trkpt lat="44.80871" lon="5.86902">
        <ele>892.347869</ele>
        <time>2025-07-10T09:35:01.000Z</time>
      </trkpt>
      <trkpt lat="44.80872" lon="5.86901">
        <ele>892.477295</ele>
        <time>2025-07-10T09:35:02.000Z</time>
      </trkpt>
      <trkpt lat="44.80874" lon="5.86901">
        <ele>892.602079</ele>
        <time>2025-07-10T09:35:03.000Z</time>
      </trkpt>
      <trkpt lat="44.80875" lon="5.869">
        <ele>892.732832</ele>
        <time>2025-07-10T09:35:04.000Z</time>
      </trkpt>
      <trkpt lat="44.80877" lon="5.86899">
        <ele>892.883664</ele>
        <time>2025-07-10T09:35:05.000Z</time>
      </trkpt>
      <trkpt lat="44.80879" lon="5.86898">
        <ele>893.055458</ele>
        <time>2025-07-10T09:35:06.000Z</time>
      </trkpt>
      <trkpt lat="44.80881" lon="5.86898">
        <ele>893.216943</ele>
        <time>2025-07-10T09:35:07.000Z</time>
      </trkpt>
      <trkpt lat="44.80883" lon="5.86897">
        <ele>893.377355</ele>
        <time>2025-07-10T09:35:08.000Z</time>
      </trkpt>
      <trkpt lat="44.80885" lon="5.86896">
        <ele>893.533957</ele>
        <time>2025-07-10T09:35:09.000Z</time>
      </trkpt>
      <trkpt lat="44.80887" lon="5.86896">
        <ele>893.666261</ele>
        <time>2025-07-10T09:35:10.000Z</time>
      </trkpt>
      <trkpt lat="44.80888" lon="5.86895">
        <ele>893.771344</ele>
        <time>2025-07-10T09:35:11.000Z</time>
      </trkpt>
      <trkpt lat="44.80889" lon="5.86895">
        <ele>893.894482</ele>
        <time>2025-07-10T09:35:12.000Z</time>
      </trkpt>
      <trkpt lat="44.80891" lon="5.86894">
        <ele>894.023228</ele>
        <time>2025-07-10T09:35:13.000Z</time>
      </trkpt>
      <trkpt lat="44.80893" lon="5.86893">
        <ele>894.181524</ele>
        <time>2025-07-10T09:35:14.000Z</time>
      </trkpt>
      <trkpt lat="44.80894" lon="5.86892">
        <ele>894.322111</ele>
        <time>2025-07-10T09:35:15.000Z</time>
      </trkpt>
      <trkpt lat="44.80896" lon="5.8689">
        <ele>894.462156</ele>
        <time>2025-07-10T09:35:16.000Z</time>
      </trkpt>
      <trkpt lat="44.80897" lon="5.86889">
        <ele>894.594834</ele>
        <time>2025-07-10T09:35:17.000Z</time>
      </trkpt>
      <trkpt lat="44.80898" lon="5.86887">
        <ele>894.711878</ele>
        <time>2025-07-10T09:35:18.000Z</time>
      </trkpt>
      <trkpt lat="44.809" lon="5.86886">
        <ele>894.860435</ele>
        <time>2025-07-10T09:35:19.000Z</time>
      </trkpt>
      <trkpt lat="44.80901" lon="5.86884">
        <ele>894.966287</ele>
        <time>2025-07-10T09:35:20.000Z</time>
      </trkpt>
      <trkpt lat="44.80902" lon="5.86883">
        <ele>895.095688</ele>
        <time>2025-07-10T09:35:21.000Z</time>
      </trkpt>
      <trkpt lat="44.80904" lon="5.86882">
        <ele>895.241535</ele>
        <time>2025-07-10T09:35:22.000Z</time>
      </trkpt>
      <trkpt lat="44.80905" lon="5.8688">
        <ele>895.357731</ele>
        <time>2025-07-10T09:35:23.000Z</time>
      </trkpt>
      <trkpt lat="44.80906" lon="5.86879">
        <ele>895.498318</ele>
        <time>2025-07-10T09:35:24.000Z</time>
      </trkpt>
      <trkpt lat="44.80908" lon="5.86878">
        <ele>895.605667</ele>
        <time>2025-07-10T09:35:25.000Z</time>
      </trkpt>
      <trkpt lat="44.80909" lon="5.86877">
        <ele>895.721862</ele>
        <time>2025-07-10T09:35:26.000Z</time>
      </trkpt>
      <trkpt lat="44.8091" lon="5.86876">
        <ele>895.845811</ele>
        <time>2025-07-10T09:35:27.000Z</time>
      </trkpt>
      <trkpt lat="44.80911" lon="5.86875">
        <ele>895.968533</ele>
        <time>2025-07-10T09:35:28.000Z</time>
      </trkpt>
      <trkpt lat="44.80913" lon="5.86874">
        <ele>896.088277</ele>
        <time>2025-07-10T09:35:29.000Z</time>
      </trkpt>
      <trkpt lat="44.80914" lon="5.86873">
        <ele>896.198127</ele>
        <time>2025-07-10T09:35:30.000Z</time>
      </trkpt>
      <trkpt lat="44.80915" lon="5.86872">
        <ele>896.308219</ele>
        <time>2025-07-10T09:35:31.000Z</time>
      </trkpt>
      <trkpt lat="44.80917" lon="5.86871">
        <ele>896.441752</ele>
        <time>2025-07-10T09:35:32.000Z</time>
      </trkpt>
      <trkpt lat="44.80918" lon="5.8687">
        <ele>896.582339</ele>
        <time>2025-07-10T09:35:33.000Z</time>
      </trkpt>
      <trkpt lat="44.80919" lon="5.86868">
        <ele>896.709005</ele>
        <time>2025-07-10T09:35:34.000Z</time>
      </trkpt>
      <trkpt lat="44.80921" lon="5.86867">
        <ele>896.851081</ele>
        <time>2025-07-10T09:35:35.000Z</time>
      </trkpt>
      <trkpt lat="44.80922" lon="5.86866">
        <ele>896.951569</ele>
        <time>2025-07-10T09:35:36.000Z</time>
      </trkpt>
      <trkpt lat="44.80923" lon="5.86865">
        <ele>897.067119</ele>
        <time>2025-07-10T09:35:37.000Z</time>
      </trkpt>
      <trkpt lat="44.80925" lon="5.86864">
        <ele>897.164511</ele>
        <time>2025-07-10T09:35:38.000Z</time>
      </trkpt>
      <trkpt lat="44.80926" lon="5.86864">
        <ele>897.256827</ele>
        <time>2025-07-10T09:35:39.000Z</time>
      </trkpt>
      <trkpt lat="44.80927" lon="5.86863">
        <ele>897.361458</ele>
        <time>2025-07-10T09:35:40.000Z</time>
      </trkpt>
      <trkpt lat="44.80928" lon="5.86863">
        <ele>897.469774</ele>
        <time>2025-07-10T09:35:41.000Z</time>
      </trkpt>
      <trkpt lat="44.8093" lon="5.86862">
        <ele>897.585658</ele>
        <time>2025-07-10T09:35:42.000Z</time>
      </trkpt>
      <trkpt lat="44.80932" lon="5.86862">
        <ele>897.719705</ele>
        <time>2025-07-10T09:35:43.000Z</time>
      </trkpt>
      <trkpt lat="44.80933" lon="5.86861">
        <ele>897.830174</ele>
        <time>2025-07-10T09:35:44.000Z</time>
      </trkpt>
      <trkpt lat="44.80934" lon="5.8686">
        <ele>897.905202</ele>
        <time>2025-07-10T09:35:45.000Z</time>
      </trkpt>
      <trkpt lat="44.80935" lon="5.8686">
        <ele>898.039248</ele>
        <time>2025-07-10T09:35:46.000Z</time>
      </trkpt>
      <trkpt lat="44.80937" lon="5.86859">
        <ele>898.166169</ele>
        <time>2025-07-10T09:35:47.000Z</time>
      </trkpt>
      <trkpt lat="44.80939" lon="5.86858">
        <ele>898.300216</ele>
        <time>2025-07-10T09:35:48.000Z</time>
      </trkpt>
      <trkpt lat="44.8094" lon="5.86857">
        <ele>898.417913</ele>
        <time>2025-07-10T09:35:49.000Z</time>
      </trkpt>
      <trkpt lat="44.80942" lon="5.86857">
        <ele>898.538772</ele>
        <time>2025-07-10T09:35:50.000Z</time>
      </trkpt>
      <trkpt lat="44.80943" lon="5.86856">
        <ele>898.662233</ele>
        <time>2025-07-10T09:35:51.000Z</time>
      </trkpt>
      <trkpt lat="44.80945" lon="5.86856">
        <ele>898.774159</ele>
        <time>2025-07-10T09:35:52.000Z</time>
      </trkpt>
      <trkpt lat="44.80946" lon="5.86855">
        <ele>898.906085</ele>
        <time>2025-07-10T09:35:53.000Z</time>
      </trkpt>
      <trkpt lat="44.80948" lon="5.86854">
        <ele>899.029547</ele>
        <time>2025-07-10T09:35:54.000Z</time>
      </trkpt>
      <trkpt lat="44.80949" lon="5.86854">
        <ele>899.144793</ele>
        <time>2025-07-10T09:35:55.000Z</time>
      </trkpt>
      <trkpt lat="44.80951" lon="5.86854">
        <ele>899.275841</ele>
        <time>2025-07-10T09:35:56.000Z</time>
      </trkpt>
      <trkpt lat="44.80953" lon="5.86855">
        <ele>899.421928</ele>
        <time>2025-07-10T09:35:57.000Z</time>
      </trkpt>
      <trkpt lat="44.80954" lon="5.86856">
        <ele>899.525</ele>
        <time>2025-07-10T09:35:58.000Z</time>
      </trkpt>
      <trkpt lat="44.80955" lon="5.86856">
        <ele>899.622391</ele>
        <time>2025-07-10T09:35:59.000Z</time>
      </trkpt>
      <trkpt lat="44.80956" lon="5.86857">
        <ele>899.71671</ele>
        <time>2025-07-10T09:36:00.000Z</time>
      </trkpt>
      <trkpt lat="44.80958" lon="5.86857">
        <ele>899.850757</ele>
        <time>2025-07-10T09:36:01.000Z</time>
      </trkpt>
      <trkpt lat="44.8096" lon="5.86858">
        <ele>899.996844</ele>
        <time>2025-07-10T09:36:02.000Z</time>
      </trkpt>
      <trkpt lat="44.80961" lon="5.86858">
        <ele>900.104478</ele>
        <time>2025-07-10T09:36:03.000Z</time>
      </trkpt>
      <trkpt lat="44.80963" lon="5.86859">
        <ele>900.234333</ele>
        <time>2025-07-10T09:36:04.000Z</time>
      </trkpt>
      <trkpt lat="44.80964" lon="5.8686">
        <ele>900.344803</ele>
        <time>2025-07-10T09:36:05.000Z</time>
      </trkpt>
      <trkpt lat="44.80966" lon="5.8686">
        <ele>900.455272</ele>
        <time>2025-07-10T09:36:06.000Z</time>
      </trkpt>
      <trkpt lat="44.80967" lon="5.86861">
        <ele>900.585127</ele>
        <time>2025-07-10T09:36:07.000Z</time>
      </trkpt>
      <trkpt lat="44.80969" lon="5.86862">
        <ele>900.69591</ele>
        <time>2025-07-10T09:36:08.000Z</time>
      </trkpt>
      <trkpt lat="44.8097" lon="5.86862">
        <ele>900.828743</ele>
        <time>2025-07-10T09:36:09.000Z</time>
      </trkpt>
      <trkpt lat="44.80971" lon="5.86862">
        <ele>900.905999</ele>
        <time>2025-07-10T09:36:10.000Z</time>
      </trkpt>
      <trkpt lat="44.80973" lon="5.86864">
        <ele>901.046675</ele>
        <time>2025-07-10T09:36:11.000Z</time>
      </trkpt>
      <trkpt lat="44.80974" lon="5.86863">
        <ele>901.147435</ele>
        <time>2025-07-10T09:36:12.000Z</time>
      </trkpt>
      <trkpt lat="44.80975" lon="5.86864">
        <ele>901.247463</ele>
        <time>2025-07-10T09:36:13.000Z</time>
      </trkpt>
      <trkpt lat="44.80976" lon="5.86864">
        <ele>901.308894</ele>
        <time>2025-07-10T09:36:14.000Z</time>
      </trkpt>
      <trkpt lat="44.80976" lon="5.86864">
        <ele>901.308894</ele>
        <time>2025-07-10T09:36:15.000Z</time>
      </trkpt>
      <trkpt lat="44.80978" lon="5.86867">
        <ele>901.528367</ele>
        <time>2025-07-10T09:36:21.000Z</time>
      </trkpt>
      <trkpt lat="44.80979" lon="5.86867">
        <ele>901.578594</ele>
        <time>2025-07-10T09:36:22.000Z</time>
      </trkpt>
      <trkpt lat="44.80982" lon="5.86866">
        <ele>901.850726</ele>
        <time>2025-07-10T09:44:20.000Z</time>
      </trkpt>
      <trkpt lat="44.80983" lon="5.86866">
        <ele>901.921465</ele>
        <time>2025-07-10T09:44:21.000Z</time>
      </trkpt>
      <trkpt lat="44.80984" lon="5.86866">
        <ele>901.993647</ele>
        <time>2025-07-10T09:44:22.000Z</time>
      </trkpt>
      <trkpt lat="44.80985" lon="5.86866">
        <ele>902.070329</ele>
        <time>2025-07-10T09:44:23.000Z</time>
      </trkpt>
      <trkpt lat="44.80986" lon="5.86865">
        <ele>902.188228</ele>
        <time>2025-07-10T09:44:24.000Z</time>
      </trkpt>
      <trkpt lat="44.80988" lon="5.86865">
        <ele>902.303091</ele>
        <time>2025-07-10T09:44:25.000Z</time>
      </trkpt>
      <trkpt lat="44.80989" lon="5.86865">
        <ele>902.381294</ele>
        <time>2025-07-10T09:44:26.000Z</time>
      </trkpt>
      <trkpt lat="44.8099" lon="5.86865">
        <ele>902.465432</ele>
        <time>2025-07-10T09:44:27.000Z</time>
      </trkpt>
      <trkpt lat="44.8099" lon="5.86865">
        <ele>902.496028</ele>
        <time>2025-07-10T09:44:28.000Z</time>
      </trkpt>
      <trkpt lat="44.80993" lon="5.86866">
        <ele>902.713542</ele>
        <time>2025-07-10T09:44:30.000Z</time>
      </trkpt>
      <trkpt lat="44.80995" lon="5.86867">
        <ele>902.853871</ele>
        <time>2025-07-10T09:44:31.000Z</time>
      </trkpt>
      <trkpt lat="44.80997" lon="5.86867">
        <ele>903.006946</ele>
        <time>2025-07-10T09:44:32.000Z</time>
      </trkpt>
      <trkpt lat="44.80998" lon="5.86867">
        <ele>903.106531</ele>
        <time>2025-07-10T09:44:33.000Z</time>
      </trkpt>
      <trkpt lat="44.81" lon="5.86866">
        <ele>903.230824</ele>
        <time>2025-07-10T09:44:34.000Z</time>
      </trkpt>
      <trkpt lat="44.81001" lon="5.86866">
        <ele>903.345559</ele>
        <time>2025-07-10T09:44:35.000Z</time>
      </trkpt>
      <trkpt lat="44.81003" lon="5.86866">
        <ele>903.452782</ele>
        <time>2025-07-10T09:44:36.000Z</time>
      </trkpt>
      <trkpt lat="44.81004" lon="5.86867">
        <ele>903.561098</ele>
        <time>2025-07-10T09:44:37.000Z</time>
      </trkpt>
      <trkpt lat="44.81006" lon="5.86866">
        <ele>903.699206</ele>
        <time>2025-07-10T09:44:38.000Z</time>
      </trkpt>
      <trkpt lat="44.81007" lon="5.86867">
        <ele>903.791154</ele>
        <time>2025-07-10T09:44:39.000Z</time>
      </trkpt>
      <trkpt lat="44.81008" lon="5.86868">
        <ele>903.884938</ele>
        <time>2025-07-10T09:44:40.000Z</time>
      </trkpt>
      <trkpt lat="44.81009" lon="5.86869">
        <ele>903.977881</ele>
        <time>2025-07-10T09:44:41.000Z</time>
      </trkpt>
      <trkpt lat="44.8101" lon="5.8687">
        <ele>904.047196</ele>
        <time>2025-07-10T09:44:42.000Z</time>
      </trkpt>
      <trkpt lat="44.81011" lon="5.8687">
        <ele>904.128355</ele>
        <time>2025-07-10T09:44:43.000Z</time>
      </trkpt>
      <trkpt lat="44.81012" lon="5.8687">
        <ele>904.227792</ele>
        <time>2025-07-10T09:44:44.000Z</time>
      </trkpt>
      <trkpt lat="44.81014" lon="5.8687">
        <ele>904.366432</ele>
        <time>2025-07-10T09:44:45.000Z</time>
      </trkpt>
      <trkpt lat="44.81016" lon="5.86871">
        <ele>904.506761</ele>
        <time>2025-07-10T09:44:46.000Z</time>
      </trkpt>
      <trkpt lat="44.81017" lon="5.86871">
        <ele>904.632116</ele>
        <time>2025-07-10T09:44:47.000Z</time>
      </trkpt>
      <trkpt lat="44.81019" lon="5.86872">
        <ele>904.789228</ele>
        <time>2025-07-10T09:44:48.000Z</time>
      </trkpt>
      <trkpt lat="44.81021" lon="5.86874">
        <ele>904.934654</ele>
        <time>2025-07-10T09:44:49.000Z</time>
      </trkpt>
      <trkpt lat="44.81022" lon="5.86875">
        <ele>905.085335</ele>
        <time>2025-07-10T09:44:50.000Z</time>
      </trkpt>
      <trkpt lat="44.81024" lon="5.86876">
        <ele>905.224237</ele>
        <time>2025-07-10T09:44:51.000Z</time>
      </trkpt>
      <trkpt lat="44.81026" lon="5.86877">
        <ele>905.354721</ele>
        <time>2025-07-10T09:44:52.000Z</time>
      </trkpt>
      <trkpt lat="44.81028" lon="5.86877">
        <ele>905.494103</ele>
        <time>2025-07-10T09:44:53.000Z</time>
      </trkpt>
      <trkpt lat="44.81029" lon="5.86877">
        <ele>905.616607</ele>
        <time>2025-07-10T09:44:54.000Z</time>
      </trkpt>
      <trkpt lat="44.81031" lon="5.86877">
        <ele>905.747091</ele>
        <time>2025-07-10T09:44:55.000Z</time>
      </trkpt>
      <trkpt lat="44.81033" lon="5.86878">
        <ele>905.879924</ele>
        <time>2025-07-10T09:44:56.000Z</time>
      </trkpt>
      <trkpt lat="44.81034" lon="5.86878">
        <ele>906.012757</ele>
        <time>2025-07-10T09:44:57.000Z</time>
      </trkpt>
      <trkpt lat="44.81036" lon="5.86879">
        <ele>906.13543</ele>
        <time>2025-07-10T09:44:58.000Z</time>
      </trkpt>
      <trkpt lat="44.81037" lon="5.86879">
        <ele>906.26207</ele>
        <time>2025-07-10T09:44:59.000Z</time>
      </trkpt>
      <trkpt lat="44.81039" lon="5.8688">
        <ele>906.403549</ele>
        <time>2025-07-10T09:45:00.000Z</time>
      </trkpt>
      <trkpt lat="44.81041" lon="5.86881">
        <ele>906.531692</ele>
        <time>2025-07-10T09:45:01.000Z</time>
      </trkpt>
      <trkpt lat="44.81042" lon="5.86881">
        <ele>906.63347</ele>
        <time>2025-07-10T09:45:02.000Z</time>
      </trkpt>
      <trkpt lat="44.81044" lon="5.86881">
        <ele>906.748717</ele>
        <time>2025-07-10T09:45:03.000Z</time>
      </trkpt>
      <trkpt lat="44.81045" lon="5.86882">
        <ele>906.886825</ele>
        <time>2025-07-10T09:45:04.000Z</time>
      </trkpt>
      <trkpt lat="44.81047" lon="5.86882">
        <ele>907.001688</ele>
        <time>2025-07-10T09:45:05.000Z</time>
      </trkpt>
      <trkpt lat="44.81049" lon="5.86882">
        <ele>907.131833</ele>
        <time>2025-07-10T09:45:06.000Z</time>
      </trkpt>
      <trkpt lat="44.8105" lon="5.86882">
        <ele>907.238919</ele>
        <time>2025-07-10T09:45:07.000Z</time>
      </trkpt>
      <trkpt lat="44.81051" lon="5.86882">
        <ele>907.354166</ele>
        <time>2025-07-10T09:45:08.000Z</time>
      </trkpt>
      <trkpt lat="44.81053" lon="5.86882">
        <ele>907.476549</ele>
        <time>2025-07-10T09:45:09.000Z</time>
      </trkpt>
      <trkpt lat="44.81055" lon="5.86881">
        <ele>907.607033</ele>
        <time>2025-07-10T09:45:10.000Z</time>
      </trkpt>
      <trkpt lat="44.81056" lon="5.86882">
        <ele>907.731327</ele>
        <time>2025-07-10T09:45:11.000Z</time>
      </trkpt>
      <trkpt lat="44.81058" lon="5.86882">
        <ele>907.848096</ele>
        <time>2025-07-10T09:45:12.000Z</time>
      </trkpt>
      <trkpt lat="44.8106" lon="5.86882">
        <ele>907.978581</ele>
        <time>2025-07-10T09:45:13.000Z</time>
      </trkpt>
      <trkpt lat="44.81061" lon="5.86882">
        <ele>908.101085</ele>
        <time>2025-07-10T09:45:14.000Z</time>
      </trkpt>
      <trkpt lat="44.81063" lon="5.86883">
        <ele>908.223588</ele>
        <time>2025-07-10T09:45:15.000Z</time>
      </trkpt>
      <trkpt lat="44.81064" lon="5.86883">
        <ele>908.338835</ele>
        <time>2025-07-10T09:45:16.000Z</time>
      </trkpt>
      <trkpt lat="44.81066" lon="5.86883">
        <ele>908.454719</ele>
        <time>2025-07-10T09:45:17.000Z</time>
      </trkpt>
      <trkpt lat="44.81067" lon="5.86883">
        <ele>908.569453</ele>
        <time>2025-07-10T09:45:18.000Z</time>
      </trkpt>
      <trkpt lat="44.81069" lon="5.86883">
        <ele>908.677087</ele>
        <time>2025-07-10T09:45:19.000Z</time>
      </trkpt>
      <trkpt lat="44.8107" lon="5.86883">
        <ele>908.78431</ele>
        <time>2025-07-10T09:45:20.000Z</time>
      </trkpt>
      <trkpt lat="44.81072" lon="5.86884">
        <ele>908.907174</ele>
        <time>2025-07-10T09:45:21.000Z</time>
      </trkpt>
      <trkpt lat="44.81073" lon="5.86884">
        <ele>909.025073</ele>
        <time>2025-07-10T09:45:22.000Z</time>
      </trkpt>
      <trkpt lat="44.81074" lon="5.86885">
        <ele>909.128144</ele>
        <time>2025-07-10T09:45:23.000Z</time>
      </trkpt>
      <trkpt lat="44.81076" lon="5.86885">
        <ele>909.246043</ele>
        <time>2025-07-10T09:45:24.000Z</time>
      </trkpt>
      <trkpt lat="44.81077" lon="5.86885">
        <ele>909.355306</ele>
        <time>2025-07-10T09:45:25.000Z</time>
      </trkpt>
      <trkpt lat="44.81079" lon="5.86886">
        <ele>909.47781</ele>
        <time>2025-07-10T09:45:26.000Z</time>
      </trkpt>
      <trkpt lat="44.81081" lon="5.86886">
        <ele>909.601271</ele>
        <time>2025-07-10T09:45:27.000Z</time>
      </trkpt>
      <trkpt lat="44.81082" lon="5.86886">
        <ele>909.718041</ele>
        <time>2025-07-10T09:45:28.000Z</time>
      </trkpt>
      <trkpt lat="44.81084" lon="5.86887">
        <ele>909.844681</ele>
        <time>2025-07-10T09:45:29.000Z</time>
      </trkpt>
      <trkpt lat="44.81085" lon="5.86887">
        <ele>909.960565</ele>
        <time>2025-07-10T09:45:30.000Z</time>
      </trkpt>
      <trkpt lat="44.81087" lon="5.86887">
        <ele>910.075812</ele>
        <time>2025-07-10T09:45:31.000Z</time>
      </trkpt>
      <trkpt lat="44.81088" lon="5.86888">
        <ele>910.186281</ele>
        <time>2025-07-10T09:45:32.000Z</time>
      </trkpt>
      <trkpt lat="44.81089" lon="5.86889">
        <ele>910.287817</ele>
        <time>2025-07-10T09:45:33.000Z</time>
      </trkpt>
      <trkpt lat="44.81091" lon="5.86889">
        <ele>910.398286</ele>
        <time>2025-07-10T09:45:34.000Z</time>
      </trkpt>
      <trkpt lat="44.81092" lon="5.8689">
        <ele>910.515982</ele>
        <time>2025-07-10T09:45:35.000Z</time>
      </trkpt>
      <trkpt lat="44.81093" lon="5.86891">
        <ele>910.620584</ele>
        <time>2025-07-10T09:45:36.000Z</time>
      </trkpt>
      <trkpt lat="44.81095" lon="5.86891">
        <ele>910.693939</ele>
        <time>2025-07-10T09:45:37.000Z</time>
      </trkpt>
      <trkpt lat="44.81096" lon="5.86892">
        <ele>910.775187</ele>
        <time>2025-07-10T09:45:38.000Z</time>
      </trkpt>
      <trkpt lat="44.81098" lon="5.86892">
        <ele>910.855657</ele>
        <time>2025-07-10T09:45:39.000Z</time>
      </trkpt>
      <trkpt lat="44.81099" lon="5.86893">
        <ele>910.945144</ele>
        <time>2025-07-10T09:45:40.000Z</time>
      </trkpt>
      <trkpt lat="44.81101" lon="5.86894">
        <ele>911.028432</ele>
        <time>2025-07-10T09:45:41.000Z</time>
      </trkpt>
      <trkpt lat="44.81102" lon="5.86894">
        <ele>911.121787</ele>
        <time>2025-07-10T09:45:42.000Z</time>
      </trkpt>
      <trkpt lat="44.81104" lon="5.86895">
        <ele>911.207442</ele>
        <time>2025-07-10T09:45:43.000Z</time>
      </trkpt>
      <trkpt lat="44.81106" lon="5.86895">
        <ele>911.293829</ele>
        <time>2025-07-10T09:45:44.000Z</time>
      </trkpt>
      <trkpt lat="44.81107" lon="5.86896">
        <ele>911.374298</ele>
        <time>2025-07-10T09:45:45.000Z</time>
      </trkpt>
      <trkpt lat="44.81109" lon="5.86896">
        <ele>911.4526</ele>
        <time>2025-07-10T09:45:46.000Z</time>
      </trkpt>
      <trkpt lat="44.8111" lon="5.86897">
        <ele>911.529732</ele>
        <time>2025-07-10T09:45:47.000Z</time>
      </trkpt>
      <trkpt lat="44.81111" lon="5.86898">
        <ele>911.601837</ele>
        <time>2025-07-10T09:45:48.000Z</time>
      </trkpt>
      <trkpt lat="44.81113" lon="5.86898">
        <ele>911.683085</ele>
        <time>2025-07-10T09:45:49.000Z</time>
      </trkpt>
      <trkpt lat="44.81114" lon="5.86899">
        <ele>911.764333</ele>
        <time>2025-07-10T09:45:50.000Z</time>
      </trkpt>
      <trkpt lat="44.81116" lon="5.86899">
        <ele>911.844193</ele>
        <time>2025-07-10T09:45:51.000Z</time>
      </trkpt>
      <trkpt lat="44.81117" lon="5.86899">
        <ele>911.924662</ele>
        <time>2025-07-10T09:45:52.000Z</time>
      </trkpt>
      <trkpt lat="44.81119" lon="5.869">
        <ele>911.999959</ele>
        <time>2025-07-10T09:45:53.000Z</time>
      </trkpt>
      <trkpt lat="44.8112" lon="5.869">
        <ele>912.079819</ele>
        <time>2025-07-10T09:45:54.000Z</time>
      </trkpt>
      <trkpt lat="44.81122" lon="5.869">
        <ele>912.155116</ele>
        <time>2025-07-10T09:45:55.000Z</time>
      </trkpt>
      <trkpt lat="44.81123" lon="5.86901">
        <ele>912.231244</ele>
        <time>2025-07-10T09:45:56.000Z</time>
      </trkpt>
      <trkpt lat="44.81124" lon="5.86902">
        <ele>912.308376</ele>
        <time>2025-07-10T09:45:57.000Z</time>
      </trkpt>
      <trkpt lat="44.81126" lon="5.86902">
        <ele>912.387532</ele>
        <time>2025-07-10T09:45:58.000Z</time>
      </trkpt>
      <trkpt lat="44.81127" lon="5.86902">
        <ele>912.471953</ele>
        <time>2025-07-10T09:45:59.000Z</time>
      </trkpt>
      <trkpt lat="44.81129" lon="5.86902">
        <ele>912.552423</ele>
        <time>2025-07-10T09:46:00.000Z</time>
      </trkpt>
      <trkpt lat="44.8113" lon="5.86902">
        <ele>912.632282</ele>
        <time>2025-07-10T09:46:01.000Z</time>
      </trkpt>
      <trkpt lat="44.81132" lon="5.86902">
        <ele>912.711438</ele>
        <time>2025-07-10T09:46:02.000Z</time>
      </trkpt>
      <trkpt lat="44.81134" lon="5.86902">
        <ele>912.801126</ele>
        <time>2025-07-10T09:46:03.000Z</time>
      </trkpt>
      <trkpt lat="44.81135" lon="5.86903">
        <ele>912.885548</ele>
        <time>2025-07-10T09:46:04.000Z</time>
      </trkpt>
      <trkpt lat="44.81137" lon="5.86903">
        <ele>912.964615</ele>
        <time>2025-07-10T09:46:05.000Z</time>
      </trkpt>
      <trkpt lat="44.81138" lon="5.86903">
        <ele>913.054225</ele>
        <time>2025-07-10T09:46:06.000Z</time>
      </trkpt>
      <trkpt lat="44.8114" lon="5.86903">
        <ele>913.133381</ele>
        <time>2025-07-10T09:46:07.000Z</time>
      </trkpt>
      <trkpt lat="44.81141" lon="5.86903">
        <ele>913.213851</ele>
        <time>2025-07-10T09:46:08.000Z</time>
      </trkpt>
      <trkpt lat="44.81143" lon="5.86904">
        <ele>913.300237</ele>
        <time>2025-07-10T09:46:09.000Z</time>
      </trkpt>
      <trkpt lat="44.81145" lon="5.86904">
        <ele>913.391087</ele>
        <time>2025-07-10T09:46:10.000Z</time>
      </trkpt>
      <trkpt lat="44.81147" lon="5.86904">
        <ele>913.487139</ele>
        <time>2025-07-10T09:46:11.000Z</time>
      </trkpt>
      <trkpt lat="44.81148" lon="5.86905">
        <ele>913.570427</ele>
        <time>2025-07-10T09:46:12.000Z</time>
      </trkpt>
      <trkpt lat="44.81149" lon="5.86906">
        <ele>913.650057</ele>
        <time>2025-07-10T09:46:13.000Z</time>
      </trkpt>
      <trkpt lat="44.81151" lon="5.86907">
        <ele>913.728122</ele>
        <time>2025-07-10T09:46:14.000Z</time>
      </trkpt>
      <trkpt lat="44.81152" lon="5.86908">
        <ele>913.798093</ele>
        <time>2025-07-10T09:46:15.000Z</time>
      </trkpt>
      <trkpt lat="44.81153" lon="5.86908">
        <ele>913.877723</ele>
        <time>2025-07-10T09:46:16.000Z</time>
      </trkpt>
      <trkpt lat="44.81155" lon="5.86909">
        <ele>913.958831</ele>
        <time>2025-07-10T09:46:17.000Z</time>
      </trkpt>
      <trkpt lat="44.81156" lon="5.86911">
        <ele>914.036386</ele>
        <time>2025-07-10T09:46:18.000Z</time>
      </trkpt>
      <trkpt lat="44.81157" lon="5.86912">
        <ele>914.124756</ele>
        <time>2025-07-10T09:46:19.000Z</time>
      </trkpt>
      <trkpt lat="44.81159" lon="5.86913">
        <ele>914.210991</ele>
        <time>2025-07-10T09:46:20.000Z</time>
      </trkpt>
      <trkpt lat="44.8116" lon="5.86914">
        <ele>914.290915</ele>
        <time>2025-07-10T09:46:21.000Z</time>
      </trkpt>
      <trkpt lat="44.81161" lon="5.86916">
        <ele>914.372825</ele>
        <time>2025-07-10T09:46:22.000Z</time>
      </trkpt>
      <trkpt lat="44.81162" lon="5.86917">
        <ele>914.458868</ele>
        <time>2025-07-10T09:46:23.000Z</time>
      </trkpt>
      <trkpt lat="44.81163" lon="5.86919">
        <ele>914.54771</ele>
        <time>2025-07-10T09:46:24.000Z</time>
      </trkpt>
      <trkpt lat="44.81164" lon="5.86921">
        <ele>914.627449</ele>
        <time>2025-07-10T09:46:25.000Z</time>
      </trkpt>
      <trkpt lat="44.81166" lon="5.86922">
        <ele>914.716291</ele>
        <time>2025-07-10T09:46:26.000Z</time>
      </trkpt>
      <trkpt lat="44.81167" lon="5.86924">
        <ele>914.799609</ele>
        <time>2025-07-10T09:46:27.000Z</time>
      </trkpt>
      <trkpt lat="44.81168" lon="5.86926">
        <ele>914.876582</ele>
        <time>2025-07-10T09:46:28.000Z</time>
      </trkpt>
      <trkpt lat="44.81169" lon="5.86927">
        <ele>914.959164</ele>
        <time>2025-07-10T09:46:29.000Z</time>
      </trkpt>
      <trkpt lat="44.8117" lon="5.86929">
        <ele>915.047633</ele>
        <time>2025-07-10T09:46:30.000Z</time>
      </trkpt>
      <trkpt lat="44.81171" lon="5.86931">
        <ele>915.142267</ele>
        <time>2025-07-10T09:46:31.000Z</time>
      </trkpt>
      <trkpt lat="44.81172" lon="5.86933">
        <ele>915.224616</ele>
        <time>2025-07-10T09:46:32.000Z</time>
      </trkpt>
      <trkpt lat="44.81173" lon="5.86935">
        <ele>915.313085</ele>
        <time>2025-07-10T09:46:33.000Z</time>
      </trkpt>
      <trkpt lat="44.81174" lon="5.86937">
        <ele>915.401652</ele>
        <time>2025-07-10T09:46:34.000Z</time>
      </trkpt>
      <trkpt lat="44.81174" lon="5.86939">
        <ele>915.487511</ele>
        <time>2025-07-10T09:46:35.000Z</time>
      </trkpt>
      <trkpt lat="44.81175" lon="5.8694">
        <ele>915.563869</ele>
        <time>2025-07-10T09:46:36.000Z</time>
      </trkpt>
      <trkpt lat="44.81176" lon="5.86942">
        <ele>915.64319</ele>
        <time>2025-07-10T09:46:37.000Z</time>
      </trkpt>
      <trkpt lat="44.81177" lon="5.86944">
        <ele>915.723251</ele>
        <time>2025-07-10T09:46:38.000Z</time>
      </trkpt>
      <trkpt lat="44.81178" lon="5.86946">
        <ele>915.8056</ele>
        <time>2025-07-10T09:46:39.000Z</time>
      </trkpt>
      <trkpt lat="44.81179" lon="5.86948">
        <ele>915.888182</ele>
        <time>2025-07-10T09:46:40.000Z</time>
      </trkpt>
      <trkpt lat="44.8118" lon="5.86949">
        <ele>915.961381</ele>
        <time>2025-07-10T09:46:41.000Z</time>
      </trkpt>
      <trkpt lat="44.8118" lon="5.86951">
        <ele>916.034581</ele>
        <time>2025-07-10T09:46:42.000Z</time>
      </trkpt>
      <trkpt lat="44.81181" lon="5.86952">
        <ele>916.10778</ele>
        <time>2025-07-10T09:46:43.000Z</time>
      </trkpt>
      <trkpt lat="44.81182" lon="5.86954">
        <ele>916.184137</ele>
        <time>2025-07-10T09:46:44.000Z</time>
      </trkpt>
      <trkpt lat="44.81183" lon="5.86955">
        <ele>916.257601</ele>
        <time>2025-07-10T09:46:45.000Z</time>
      </trkpt>
      <trkpt lat="44.81184" lon="5.86957">
        <ele>916.331105</ele>
        <time>2025-07-10T09:46:46.000Z</time>
      </trkpt>
      <trkpt lat="44.81184" lon="5.86959">
        <ele>916.404304</ele>
        <time>2025-07-10T09:46:47.000Z</time>
      </trkpt>
      <trkpt lat="44.81185" lon="5.8696">
        <ele>916.471528</ele>
        <time>2025-07-10T09:46:48.000Z</time>
      </trkpt>
      <trkpt lat="44.81186" lon="5.86962">
        <ele>916.551268</ele>
        <time>2025-07-10T09:46:49.000Z</time>
      </trkpt>
      <trkpt lat="44.81187" lon="5.86964">
        <ele>916.640109</ele>
        <time>2025-07-10T09:46:50.000Z</time>
      </trkpt>
      <trkpt lat="44.81188" lon="5.86965">
        <ele>916.726151</ele>
        <time>2025-07-10T09:46:51.000Z</time>
      </trkpt>
      <trkpt lat="44.81189" lon="5.86967">
        <ele>916.805891</ele>
        <time>2025-07-10T09:46:52.000Z</time>
      </trkpt>
      <trkpt lat="44.81191" lon="5.86968">
        <ele>916.892126</ele>
        <time>2025-07-10T09:46:53.000Z</time>
      </trkpt>
      <trkpt lat="44.81192" lon="5.8697">
        <ele>916.976144</ele>
        <time>2025-07-10T09:46:54.000Z</time>
      </trkpt>
      <trkpt lat="44.81193" lon="5.86971">
        <ele>917.06063</ele>
        <time>2025-07-10T09:46:55.000Z</time>
      </trkpt>
      <trkpt lat="44.81195" lon="5.86972">
        <ele>917.148094</ele>
        <time>2025-07-10T09:46:56.000Z</time>
      </trkpt>
      <trkpt lat="44.81196" lon="5.86973">
        <ele>917.232581</ele>
        <time>2025-07-10T09:46:57.000Z</time>
      </trkpt>
      <trkpt lat="44.81198" lon="5.86973">
        <ele>917.31477</ele>
        <time>2025-07-10T09:46:58.000Z</time>
      </trkpt>
      <trkpt lat="44.812" lon="5.86974">
        <ele>917.410823</ele>
        <time>2025-07-10T09:46:59.000Z</time>
      </trkpt>
      <trkpt lat="44.81201" lon="5.86974">
        <ele>917.50832</ele>
        <time>2025-07-10T09:47:00.000Z</time>
      </trkpt>
      <trkpt lat="44.81203" lon="5.86975">
        <ele>917.605818</ele>
        <time>2025-07-10T09:47:01.000Z</time>
      </trkpt>
      <trkpt lat="44.81205" lon="5.86975">
        <ele>917.701871</ele>
        <time>2025-07-10T09:47:02.000Z</time>
      </trkpt>
      <trkpt lat="44.81207" lon="5.86976">
        <ele>917.797413</ele>
        <time>2025-07-10T09:47:03.000Z</time>
      </trkpt>
      <trkpt lat="44.81209" lon="5.86976">
        <ele>917.898191</ele>
        <time>2025-07-10T09:47:04.000Z</time>
      </trkpt>
      <trkpt lat="44.81211" lon="5.86976">
        <ele>918.000074</ele>
        <time>2025-07-10T09:47:05.000Z</time>
      </trkpt>
      <trkpt lat="44.81213" lon="5.86977">
        <ele>918.105563</ele>
        <time>2025-07-10T09:47:06.000Z</time>
      </trkpt>
      <trkpt lat="44.81215" lon="5.86977">
        <ele>918.210987</ele>
        <time>2025-07-10T09:47:07.000Z</time>
      </trkpt>
      <trkpt lat="44.81217" lon="5.86976">
        <ele>918.321933</ele>
        <time>2025-07-10T09:47:08.000Z</time>
      </trkpt>
      <trkpt lat="44.81219" lon="5.86976">
        <ele>918.434196</ele>
        <time>2025-07-10T09:47:09.000Z</time>
      </trkpt>
      <trkpt lat="44.81221" lon="5.86975">
        <ele>918.547943</ele>
        <time>2025-07-10T09:47:10.000Z</time>
      </trkpt>
      <trkpt lat="44.81223" lon="5.86975">
        <ele>918.675825</ele>
        <time>2025-07-10T09:47:11.000Z</time>
      </trkpt>
      <trkpt lat="44.81226" lon="5.86974">
        <ele>918.803708</ele>
        <time>2025-07-10T09:47:12.000Z</time>
      </trkpt>
      <trkpt lat="44.81228" lon="5.86973">
        <ele>918.94483</ele>
        <time>2025-07-10T09:47:13.000Z</time>
      </trkpt>
      <trkpt lat="44.81231" lon="5.86972">
        <ele>919.08792</ele>
        <time>2025-07-10T09:47:14.000Z</time>
      </trkpt>
      <trkpt lat="44.81234" lon="5.86971">
        <ele>919.237148</ele>
        <time>2025-07-10T09:47:15.000Z</time>
      </trkpt>
      <trkpt lat="44.81236" lon="5.8697">
        <ele>919.388793</ele>
        <time>2025-07-10T09:47:16.000Z</time>
      </trkpt>
      <trkpt lat="44.81239" lon="5.86968">
        <ele>919.544922</ele>
        <time>2025-07-10T09:47:17.000Z</time>
      </trkpt>
      <trkpt lat="44.81241" lon="5.86965">
        <ele>919.698017</ele>
        <time>2025-07-10T09:47:18.000Z</time>
      </trkpt>
      <trkpt lat="44.81243" lon="5.86963">
        <ele>919.844654</ele>
        <time>2025-07-10T09:47:19.000Z</time>
      </trkpt>
      <trkpt lat="44.81246" lon="5.86961">
        <ele>919.991615</ele>
        <time>2025-07-10T09:47:20.000Z</time>
      </trkpt>
      <trkpt lat="44.81248" lon="5.86959">
        <ele>920.095108</ele>
        <time>2025-07-10T09:47:21.000Z</time>
      </trkpt>
      <trkpt lat="44.8125" lon="5.86958">
        <ele>920.065167</ele>
        <time>2025-07-10T09:47:22.000Z</time>
      </trkpt>
      <trkpt lat="44.81251" lon="5.86957">
        <ele>920.046844</ele>
        <time>2025-07-10T09:47:23.000Z</time>
      </trkpt>
      <trkpt lat="44.81252" lon="5.86957">
        <ele>920.036522</ele>
        <time>2025-07-10T09:47:24.000Z</time>
      </trkpt>
      <trkpt lat="44.81253" lon="5.86957">
        <ele>920.026645</ele>
        <time>2025-07-10T09:48:47.000Z</time>
      </trkpt>
      <trkpt lat="44.81255" lon="5.86957">
        <ele>919.997</ele>
        <time>2025-07-10T09:48:48.000Z</time>
      </trkpt>
      <trkpt lat="44.81257" lon="5.86957">
        <ele>919.964534</ele>
        <time>2025-07-10T09:48:49.000Z</time>
      </trkpt>
      <trkpt lat="44.8126" lon="5.86957">
        <ele>919.925016</ele>
        <time>2025-07-10T09:48:50.000Z</time>
      </trkpt>
      <trkpt lat="44.81263" lon="5.86956">
        <ele>919.882113</ele>
        <time>2025-07-10T09:48:51.000Z</time>
      </trkpt>
      <trkpt lat="44.81266" lon="5.86955">
        <ele>919.83311</ele>
        <time>2025-07-10T09:48:52.000Z</time>
      </trkpt>
      <trkpt lat="44.8127" lon="5.86954">
        <ele>919.783659</ele>
        <time>2025-07-10T09:48:53.000Z</time>
      </trkpt>
      <trkpt lat="44.81273" lon="5.86953">
        <ele>919.730694</ele>
        <time>2025-07-10T09:48:54.000Z</time>
      </trkpt>
      <trkpt lat="44.81277" lon="5.86951">
        <ele>919.67741</ele>
        <time>2025-07-10T09:48:55.000Z</time>
      </trkpt>
      <trkpt lat="44.8128" lon="5.86949">
        <ele>919.62244</ele>
        <time>2025-07-10T09:48:56.000Z</time>
      </trkpt>
      <trkpt lat="44.81284" lon="5.86947">
        <ele>919.565554</ele>
        <time>2025-07-10T09:48:57.000Z</time>
      </trkpt>
      <trkpt lat="44.81288" lon="5.86945">
        <ele>919.507654</ele>
        <time>2025-07-10T09:48:58.000Z</time>
      </trkpt>
      <trkpt lat="44.81292" lon="5.86943">
        <ele>919.449755</ele>
        <time>2025-07-10T09:48:59.000Z</time>
      </trkpt>
      <trkpt lat="44.81296" lon="5.86941">
        <ele>919.390201</ele>
        <time>2025-07-10T09:49:00.000Z</time>
      </trkpt>
      <trkpt lat="44.813" lon="5.86939">
        <ele>919.328306</ele>
        <time>2025-07-10T09:49:01.000Z</time>
      </trkpt>
      <trkpt lat="44.81304" lon="5.86937">
        <ele>919.265089</ele>
        <time>2025-07-10T09:49:02.000Z</time>
      </trkpt>
      <trkpt lat="44.81309" lon="5.86935">
        <ele>919.199548</ele>
        <time>2025-07-10T09:49:03.000Z</time>
      </trkpt>
      <trkpt lat="44.81313" lon="5.86933">
        <ele>919.132977</ele>
        <time>2025-07-10T09:49:04.000Z</time>
      </trkpt>
      <trkpt lat="44.81318" lon="5.86931">
        <ele>919.064757</ele>
        <time>2025-07-10T09:49:05.000Z</time>
      </trkpt>
      <trkpt lat="44.81322" lon="5.86929">
        <ele>918.996839</ele>
        <time>2025-07-10T09:49:06.000Z</time>
      </trkpt>
      <trkpt lat="44.81327" lon="5.86927">
        <ele>918.925137</ele>
        <time>2025-07-10T09:49:07.000Z</time>
      </trkpt>
      <trkpt lat="44.81332" lon="5.86925">
        <ele>918.853436</ele>
        <time>2025-07-10T09:49:08.000Z</time>
      </trkpt>
      <trkpt lat="44.81337" lon="5.86922">
        <ele>918.77923</ele>
        <time>2025-07-10T09:49:09.000Z</time>
      </trkpt>
      <trkpt lat="44.81342" lon="5.8692">
        <ele>918.707032</ele>
        <time>2025-07-10T09:49:10.000Z</time>
      </trkpt>
      <trkpt lat="44.81347" lon="5.86917">
        <ele>918.632804</ele>
        <time>2025-07-10T09:49:11.000Z</time>
      </trkpt>
      <trkpt lat="44.81352" lon="5.86915">
        <ele>918.557954</ele>
        <time>2025-07-10T09:49:12.000Z</time>
      </trkpt>
      <trkpt lat="44.81357" lon="5.86912">
        <ele>918.483748</ele>
        <time>2025-07-10T09:49:13.000Z</time>
      </trkpt>
      <trkpt lat="44.81362" lon="5.8691">
        <ele>918.409226</ele>
        <time>2025-07-10T09:49:14.000Z</time>
      </trkpt>
      <trkpt lat="44.81367" lon="5.86908">
        <ele>918.334375</ele>
        <time>2025-07-10T09:49:15.000Z</time>
      </trkpt>
      <trkpt lat="44.81372" lon="5.86905">
        <ele>918.256189</ele>
        <time>2025-07-10T09:49:16.000Z</time>
      </trkpt>
      <trkpt lat="44.81377" lon="5.86902">
        <ele>918.179673</ele>
        <time>2025-07-10T09:49:17.000Z</time>
      </trkpt>
      <trkpt lat="44.81382" lon="5.869">
        <ele>918.101828</ele>
        <time>2025-07-10T09:49:18.000Z</time>
      </trkpt>
      <trkpt lat="44.81388" lon="5.86897">
        <ele>918.024629</ele>
        <time>2025-07-10T09:49:19.000Z</time>
      </trkpt>
      <trkpt lat="44.81393" lon="5.86895">
        <ele>917.945453</ele>
        <time>2025-07-10T09:49:20.000Z</time>
      </trkpt>
      <trkpt lat="44.81398" lon="5.86892">
        <ele>917.865597</ele>
        <time>2025-07-10T09:49:21.000Z</time>
      </trkpt>
      <trkpt lat="44.81403" lon="5.86889">
        <ele>917.788007</ele>
        <time>2025-07-10T09:49:22.000Z</time>
      </trkpt>
      <trkpt lat="44.81409" lon="5.86886">
        <ele>917.709108</ele>
        <time>2025-07-10T09:49:23.000Z</time>
      </trkpt>
      <trkpt lat="44.81414" lon="5.86884">
        <ele>917.631909</ele>
        <time>2025-07-10T09:49:24.000Z</time>
      </trkpt>
      <trkpt lat="44.81419" lon="5.86881">
        <ele>917.542454</ele>
        <time>2025-07-10T09:49:25.000Z</time>
      </trkpt>
      <trkpt lat="44.81424" lon="5.86879">
        <ele>917.372604</ele>
        <time>2025-07-10T09:49:26.000Z</time>
      </trkpt>
      <trkpt lat="44.81429" lon="5.86876">
        <ele>917.202375</ele>
        <time>2025-07-10T09:49:27.000Z</time>
      </trkpt>
      <trkpt lat="44.81434" lon="5.86873">
        <ele>917.03382</ele>
        <time>2025-07-10T09:49:28.000Z</time>
      </trkpt>
      <trkpt lat="44.8144" lon="5.86871">
        <ele>916.865078</ele>
        <time>2025-07-10T09:49:29.000Z</time>
      </trkpt>
      <trkpt lat="44.81445" lon="5.86869">
        <ele>916.696337</ele>
        <time>2025-07-10T09:49:30.000Z</time>
      </trkpt>
      <trkpt lat="44.8145" lon="5.86866">
        <ele>916.532597</ele>
        <time>2025-07-10T09:49:31.000Z</time>
      </trkpt>
      <trkpt lat="44.81454" lon="5.86862">
        <ele>916.377123</ele>
        <time>2025-07-10T09:49:32.000Z</time>
      </trkpt>
      <trkpt lat="44.81458" lon="5.86859">
        <ele>916.235069</ele>
        <time>2025-07-10T09:49:33.000Z</time>
      </trkpt>
      <trkpt lat="44.81462" lon="5.86856">
        <ele>916.098894</ele>
        <time>2025-07-10T09:49:34.000Z</time>
      </trkpt>
      <trkpt lat="44.81466" lon="5.86854">
        <ele>915.979599</ele>
        <time>2025-07-10T09:49:35.000Z</time>
      </trkpt>
      <trkpt lat="44.81469" lon="5.86852">
        <ele>915.884148</ele>
        <time>2025-07-10T09:49:36.000Z</time>
      </trkpt>
      <trkpt lat="44.81471" lon="5.86851">
        <ele>915.811033</ele>
        <time>2025-07-10T09:49:37.000Z</time>
      </trkpt>
      <trkpt lat="44.81472" lon="5.8685">
        <ele>915.760175</ele>
        <time>2025-07-10T09:49:38.000Z</time>
      </trkpt>
      <trkpt lat="44.81473" lon="5.86849">
        <ele>915.734158</ele>
        <time>2025-07-10T09:49:39.000Z</time>
      </trkpt>
      <trkpt lat="44.81474" lon="5.86849">
        <ele>915.722884</ele>
        <time>2025-07-10T09:49:40.000Z</time>
      </trkpt>
      <trkpt lat="44.81476" lon="5.86849">
        <ele>915.646228</ele>
        <time>2025-07-10T09:50:28.000Z</time>
      </trkpt>
      <trkpt lat="44.81478" lon="5.86848">
        <ele>915.574535</ele>
        <time>2025-07-10T09:50:29.000Z</time>
      </trkpt>
      <trkpt lat="44.81481" lon="5.86848">
        <ele>915.497142</ele>
        <time>2025-07-10T09:50:30.000Z</time>
      </trkpt>
      <trkpt lat="44.81483" lon="5.86848">
        <ele>915.416978</ele>
        <time>2025-07-10T09:50:31.000Z</time>
      </trkpt>
      <trkpt lat="44.81487" lon="5.86847">
        <ele>915.321565</ele>
        <time>2025-07-10T09:50:32.000Z</time>
      </trkpt>
      <trkpt lat="44.8149" lon="5.86846">
        <ele>915.221103</ele>
        <time>2025-07-10T09:50:33.000Z</time>
      </trkpt>
      <trkpt lat="44.81493" lon="5.86845">
        <ele>915.115476</ele>
        <time>2025-07-10T09:50:34.000Z</time>
      </trkpt>
      <trkpt lat="44.81497" lon="5.86843">
        <ele>914.995507</ele>
        <time>2025-07-10T09:50:35.000Z</time>
      </trkpt>
      <trkpt lat="44.81501" lon="5.86841">
        <ele>914.869034</ele>
        <time>2025-07-10T09:50:36.000Z</time>
      </trkpt>
      <trkpt lat="44.81505" lon="5.86839">
        <ele>914.736056</ele>
        <time>2025-07-10T09:50:37.000Z</time>
      </trkpt>
      <trkpt lat="44.81509" lon="5.86837">
        <ele>914.597937</ele>
        <time>2025-07-10T09:50:38.000Z</time>
      </trkpt>
      <trkpt lat="44.81514" lon="5.86835">
        <ele>914.449737</ele>
        <time>2025-07-10T09:50:39.000Z</time>
      </trkpt>
      <trkpt lat="44.81518" lon="5.86833">
        <ele>914.294349</ele>
        <time>2025-07-10T09:50:40.000Z</time>
      </trkpt>
      <trkpt lat="44.81523" lon="5.8683">
        <ele>914.133875</ele>
        <time>2025-07-10T09:50:41.000Z</time>
      </trkpt>
      <trkpt lat="44.81528" lon="5.86828">
        <ele>913.97053</ele>
        <time>2025-07-10T09:50:42.000Z</time>
      </trkpt>
      <trkpt lat="44.81534" lon="5.86825">
        <ele>913.80142</ele>
        <time>2025-07-10T09:50:43.000Z</time>
      </trkpt>
      <trkpt lat="44.81539" lon="5.86823">
        <ele>913.630798</ele>
        <time>2025-07-10T09:50:44.000Z</time>
      </trkpt>
      <trkpt lat="44.81544" lon="5.8682">
        <ele>913.457255</ele>
        <time>2025-07-10T09:50:45.000Z</time>
      </trkpt>
      <trkpt lat="44.8155" lon="5.86818">
        <ele>913.276544</ele>
        <time>2025-07-10T09:50:46.000Z</time>
      </trkpt>
      <trkpt lat="44.81555" lon="5.86815">
        <ele>913.095141</ele>
        <time>2025-07-10T09:50:47.000Z</time>
      </trkpt>
      <trkpt lat="44.81561" lon="5.86812">
        <ele>912.913022</ele>
        <time>2025-07-10T09:50:48.000Z</time>
      </trkpt>
      <trkpt lat="44.81567" lon="5.86809">
        <ele>912.728012</ele>
        <time>2025-07-10T09:50:49.000Z</time>
      </trkpt>
      <trkpt lat="44.81573" lon="5.86807">
        <ele>912.540798</ele>
        <time>2025-07-10T09:50:50.000Z</time>
      </trkpt>
      <trkpt lat="44.81578" lon="5.86804">
        <ele>912.352892</ele>
        <time>2025-07-10T09:50:51.000Z</time>
      </trkpt>
      <trkpt lat="44.81584" lon="5.86801">
        <ele>912.162082</ele>
        <time>2025-07-10T09:50:52.000Z</time>
      </trkpt>
      <trkpt lat="44.8159" lon="5.86798">
        <ele>911.949555</ele>
        <time>2025-07-10T09:50:53.000Z</time>
      </trkpt>
      <trkpt lat="44.81596" lon="5.86795">
        <ele>911.709603</ele>
        <time>2025-07-10T09:50:54.000Z</time>
      </trkpt>
      <trkpt lat="44.81602" lon="5.86792">
        <ele>911.471381</ele>
        <time>2025-07-10T09:50:55.000Z</time>
      </trkpt>
      <trkpt lat="44.81609" lon="5.86789">
        <ele>911.22881</ele>
        <time>2025-07-10T09:50:56.000Z</time>
      </trkpt>
      <trkpt lat="44.81615" lon="5.86786">
        <ele>910.987078</ele>
        <time>2025-07-10T09:50:57.000Z</time>
      </trkpt>
      <trkpt lat="44.81621" lon="5.86783">
        <ele>910.744507</ele>
        <time>2025-07-10T09:50:58.000Z</time>
      </trkpt>
      <trkpt lat="44.81627" lon="5.8678">
        <ele>910.502775</ele>
        <time>2025-07-10T09:50:59.000Z</time>
      </trkpt>
      <trkpt lat="44.81634" lon="5.86777">
        <ele>910.256701</ele>
        <time>2025-07-10T09:51:00.000Z</time>
      </trkpt>
      <trkpt lat="44.8164" lon="5.86774">
        <ele>910.011455</ele>
        <time>2025-07-10T09:51:01.000Z</time>
      </trkpt>
      <trkpt lat="44.81646" lon="5.86771">
        <ele>909.765381</ele>
        <time>2025-07-10T09:51:02.000Z</time>
      </trkpt>
      <trkpt lat="44.81652" lon="5.86768">
        <ele>909.517577</ele>
        <time>2025-07-10T09:51:03.000Z</time>
      </trkpt>
      <trkpt lat="44.81659" lon="5.86765">
        <ele>909.273251</ele>
        <time>2025-07-10T09:51:04.000Z</time>
      </trkpt>
      <trkpt lat="44.81665" lon="5.86762">
        <ele>909.026324</ele>
        <time>2025-07-10T09:51:05.000Z</time>
      </trkpt>
      <trkpt lat="44.81671" lon="5.86759">
        <ele>908.777557</ele>
        <time>2025-07-10T09:51:06.000Z</time>
      </trkpt>
      <trkpt lat="44.81678" lon="5.86756">
        <ele>908.528791</ele>
        <time>2025-07-10T09:51:07.000Z</time>
      </trkpt>
      <trkpt lat="44.81684" lon="5.86753">
        <ele>908.279208</ele>
        <time>2025-07-10T09:51:08.000Z</time>
      </trkpt>
      <trkpt lat="44.8169" lon="5.8675">
        <ele>908.029576</ele>
        <time>2025-07-10T09:51:09.000Z</time>
      </trkpt>
      <trkpt lat="44.81697" lon="5.86746">
        <ele>907.779398</ele>
        <time>2025-07-10T09:51:10.000Z</time>
      </trkpt>
      <trkpt lat="44.81703" lon="5.86741">
        <ele>907.525833</ele>
        <time>2025-07-10T09:51:11.000Z</time>
      </trkpt>
      <trkpt lat="44.81709" lon="5.86736">
        <ele>907.272874</ele>
        <time>2025-07-10T09:51:12.000Z</time>
      </trkpt>
      <trkpt lat="44.81714" lon="5.8673">
        <ele>907.019682</ele>
        <time>2025-07-10T09:51:13.000Z</time>
      </trkpt>
      <trkpt lat="44.81719" lon="5.86723">
        <ele>906.76524</ele>
        <time>2025-07-10T09:51:14.000Z</time>
      </trkpt>
      <trkpt lat="44.81723" lon="5.86716">
        <ele>906.510884</ele>
        <time>2025-07-10T09:51:15.000Z</time>
      </trkpt>
      <trkpt lat="44.81727" lon="5.86708">
        <ele>906.258152</ele>
        <time>2025-07-10T09:51:16.000Z</time>
      </trkpt>
      <trkpt lat="44.81731" lon="5.867">
        <ele>906.014776</ele>
        <time>2025-07-10T09:51:17.000Z</time>
      </trkpt>
      <trkpt lat="44.81733" lon="5.86692">
        <ele>905.777205</ele>
        <time>2025-07-10T09:51:18.000Z</time>
      </trkpt>
      <trkpt lat="44.81734" lon="5.86683">
        <ele>905.543261</ele>
        <time>2025-07-10T09:51:19.000Z</time>
      </trkpt>
      <trkpt lat="44.81734" lon="5.86674">
        <ele>905.286845</ele>
        <time>2025-07-10T09:51:20.000Z</time>
      </trkpt>
      <trkpt lat="44.81735" lon="5.86665">
        <ele>904.998647</ele>
        <time>2025-07-10T09:51:21.000Z</time>
      </trkpt>
      <trkpt lat="44.81734" lon="5.86657">
        <ele>904.713455</ele>
        <time>2025-07-10T09:51:22.000Z</time>
      </trkpt>
      <trkpt lat="44.81733" lon="5.86648">
        <ele>904.42578</ele>
        <time>2025-07-10T09:51:23.000Z</time>
      </trkpt>
      <trkpt lat="44.8173" lon="5.86641">
        <ele>904.148536</ele>
        <time>2025-07-10T09:51:24.000Z</time>
      </trkpt>
      <trkpt lat="44.81725" lon="5.86635">
        <ele>903.866235</ele>
        <time>2025-07-10T09:51:25.000Z</time>
      </trkpt>
      <trkpt lat="44.8172" lon="5.8663">
        <ele>903.581383</ele>
        <time>2025-07-10T09:51:26.000Z</time>
      </trkpt>
      <trkpt lat="44.81715" lon="5.86626">
        <ele>903.298541</ele>
        <time>2025-07-10T09:51:27.000Z</time>
      </trkpt>
      <trkpt lat="44.81709" lon="5.86623">
        <ele>903.0211</ele>
        <time>2025-07-10T09:51:28.000Z</time>
      </trkpt>
      <trkpt lat="44.81703" lon="5.8662">
        <ele>902.717736</ele>
        <time>2025-07-10T09:51:29.000Z</time>
      </trkpt>
      <trkpt lat="44.81696" lon="5.86616">
        <ele>902.3948</ele>
        <time>2025-07-10T09:51:30.000Z</time>
      </trkpt>
      <trkpt lat="44.8169" lon="5.86612">
        <ele>902.069032</ele>
        <time>2025-07-10T09:51:31.000Z</time>
      </trkpt>
      <trkpt lat="44.81683" lon="5.86609">
        <ele>901.732903</ele>
        <time>2025-07-10T09:51:32.000Z</time>
      </trkpt>
      <trkpt lat="44.81676" lon="5.86605">
        <ele>901.387598</ele>
        <time>2025-07-10T09:51:33.000Z</time>
      </trkpt>
      <trkpt lat="44.81669" lon="5.86601">
        <ele>901.036204</ele>
        <time>2025-07-10T09:51:34.000Z</time>
      </trkpt>
      <trkpt lat="44.81662" lon="5.86597">
        <ele>900.671885</ele>
        <time>2025-07-10T09:51:35.000Z</time>
      </trkpt>
      <trkpt lat="44.81654" lon="5.86593">
        <ele>900.303243</ele>
        <time>2025-07-10T09:51:36.000Z</time>
      </trkpt>
      <trkpt lat="44.81647" lon="5.86589">
        <ele>899.924815</ele>
        <time>2025-07-10T09:51:37.000Z</time>
      </trkpt>
      <trkpt lat="44.81639" lon="5.86585">
        <ele>899.546331</ele>
        <time>2025-07-10T09:51:38.000Z</time>
      </trkpt>
      <trkpt lat="44.81631" lon="5.86582">
        <ele>899.158063</ele>
        <time>2025-07-10T09:51:39.000Z</time>
      </trkpt>
      <trkpt lat="44.81623" lon="5.86577">
        <ele>898.763236</ele>
        <time>2025-07-10T09:51:40.000Z</time>
      </trkpt>
      <trkpt lat="44.81615" lon="5.86573">
        <ele>898.366032</ele>
        <time>2025-07-10T09:51:41.000Z</time>
      </trkpt>
      <trkpt lat="44.81607" lon="5.86568">
        <ele>897.970892</ele>
        <time>2025-07-10T09:51:42.000Z</time>
      </trkpt>
      <trkpt lat="44.816" lon="5.86562">
        <ele>897.585116</ele>
        <time>2025-07-10T09:51:43.000Z</time>
      </trkpt>
      <trkpt lat="44.81592" lon="5.86557">
        <ele>897.197803</ele>
        <time>2025-07-10T09:51:44.000Z</time>
      </trkpt>
      <trkpt lat="44.81585" lon="5.86551">
        <ele>896.782813</ele>
        <time>2025-07-10T09:51:45.000Z</time>
      </trkpt>
      <trkpt lat="44.81577" lon="5.86545">
        <ele>896.355919</ele>
        <time>2025-07-10T09:51:46.000Z</time>
      </trkpt>
      <trkpt lat="44.8157" lon="5.86539">
        <ele>895.925269</ele>
        <time>2025-07-10T09:51:47.000Z</time>
      </trkpt>
      <trkpt lat="44.81562" lon="5.86534">
        <ele>895.488884</ele>
        <time>2025-07-10T09:51:48.000Z</time>
      </trkpt>
      <trkpt lat="44.81553" lon="5.86529">
        <ele>895.037591</ele>
        <time>2025-07-10T09:51:49.000Z</time>
      </trkpt>
      <trkpt lat="44.81544" lon="5.86526">
        <ele>894.567814</ele>
        <time>2025-07-10T09:51:50.000Z</time>
      </trkpt>
      <trkpt lat="44.81535" lon="5.86524">
        <ele>894.100222</ele>
        <time>2025-07-10T09:51:51.000Z</time>
      </trkpt>
      <trkpt lat="44.81525" lon="5.86524">
        <ele>893.608155</ele>
        <time>2025-07-10T09:51:52.000Z</time>
      </trkpt>
      <trkpt lat="44.81515" lon="5.86525">
        <ele>893.099696</ele>
        <time>2025-07-10T09:51:53.000Z</time>
      </trkpt>
      <trkpt lat="44.81505" lon="5.86528">
        <ele>892.609382</ele>
        <time>2025-07-10T09:51:54.000Z</time>
      </trkpt>
      <trkpt lat="44.81496" lon="5.86532">
        <ele>892.126507</ele>
        <time>2025-07-10T09:51:55.000Z</time>
      </trkpt>
      <trkpt lat="44.81486" lon="5.86537">
        <ele>891.630773</ele>
        <time>2025-07-10T09:51:56.000Z</time>
      </trkpt>
      <trkpt lat="44.81477" lon="5.86542">
        <ele>891.11155</ele>
        <time>2025-07-10T09:51:57.000Z</time>
      </trkpt>
      <trkpt lat="44.81466" lon="5.86546">
        <ele>890.586254</ele>
        <time>2025-07-10T09:51:58.000Z</time>
      </trkpt>
      <trkpt lat="44.81456" lon="5.86548">
        <ele>890.066163</ele>
        <time>2025-07-10T09:51:59.000Z</time>
      </trkpt>
      <trkpt lat="44.81445" lon="5.86549">
        <ele>889.532921</ele>
        <time>2025-07-10T09:52:00.000Z</time>
      </trkpt>
      <trkpt lat="44.81435" lon="5.8655">
        <ele>889.01581</ele>
        <time>2025-07-10T09:52:01.000Z</time>
      </trkpt>
      <trkpt lat="44.81424" lon="5.86551">
        <ele>888.472653</ele>
        <time>2025-07-10T09:52:02.000Z</time>
      </trkpt>
      <trkpt lat="44.81413" lon="5.86552">
        <ele>887.854924</ele>
        <time>2025-07-10T09:52:03.000Z</time>
      </trkpt>
      <trkpt lat="44.81401" lon="5.86554">
        <ele>887.150623</ele>
        <time>2025-07-10T09:52:04.000Z</time>
      </trkpt>
      <trkpt lat="44.8139" lon="5.86555">
        <ele>886.448432</ele>
        <time>2025-07-10T09:52:05.000Z</time>
      </trkpt>
      <trkpt lat="44.81379" lon="5.86555">
        <ele>885.741436</ele>
        <time>2025-07-10T09:52:06.000Z</time>
      </trkpt>
      <trkpt lat="44.81367" lon="5.86555">
        <ele>885.040478</ele>
        <time>2025-07-10T09:52:07.000Z</time>
      </trkpt>
      <trkpt lat="44.81355" lon="5.86554">
        <ele>884.320988</ele>
        <time>2025-07-10T09:52:08.000Z</time>
      </trkpt>
      <trkpt lat="44.81344" lon="5.86554">
        <ele>883.612916</ele>
        <time>2025-07-10T09:52:09.000Z</time>
      </trkpt>
      <trkpt lat="44.81332" lon="5.86552">
        <ele>882.900573</ele>
        <time>2025-07-10T09:52:10.000Z</time>
      </trkpt>
      <trkpt lat="44.81321" lon="5.86549">
        <ele>882.205751</ele>
        <time>2025-07-10T09:52:11.000Z</time>
      </trkpt>
      <trkpt lat="44.81311" lon="5.86544">
        <ele>881.513403</ele>
        <time>2025-07-10T09:52:12.000Z</time>
      </trkpt>
      <trkpt lat="44.81301" lon="5.86538">
        <ele>880.851899</ele>
        <time>2025-07-10T09:52:13.000Z</time>
      </trkpt>
      <trkpt lat="44.81291" lon="5.86532">
        <ele>880.204343</ele>
        <time>2025-07-10T09:52:14.000Z</time>
      </trkpt>
      <trkpt lat="44.81282" lon="5.86524">
        <ele>879.557115</ele>
        <time>2025-07-10T09:52:15.000Z</time>
      </trkpt>
      <trkpt lat="44.81273" lon="5.86517">
        <ele>878.924923</ele>
        <time>2025-07-10T09:52:16.000Z</time>
      </trkpt>
      <trkpt lat="44.81264" lon="5.86509">
        <ele>878.289689</ele>
        <time>2025-07-10T09:52:17.000Z</time>
      </trkpt>
      <trkpt lat="44.81255" lon="5.86503">
        <ele>877.647929</ele>
        <time>2025-07-10T09:52:18.000Z</time>
      </trkpt>
      <trkpt lat="44.81246" lon="5.86498">
        <ele>877.134335</ele>
        <time>2025-07-10T09:52:19.000Z</time>
      </trkpt>
      <trkpt lat="44.81236" lon="5.86493">
        <ele>877.451939</ele>
        <time>2025-07-10T09:52:20.000Z</time>
      </trkpt>
      <trkpt lat="44.81226" lon="5.86488">
        <ele>877.762366</ele>
        <time>2025-07-10T09:52:21.000Z</time>
      </trkpt>
      <trkpt lat="44.81217" lon="5.86481">
        <ele>878.059245</ele>
        <time>2025-07-10T09:52:22.000Z</time>
      </trkpt>
      <trkpt lat="44.81211" lon="5.86471">
        <ele>878.331819</ele>
        <time>2025-07-10T09:52:23.000Z</time>
      </trkpt>
      <trkpt lat="44.81209" lon="5.86459">
        <ele>878.59013</ele>
        <time>2025-07-10T09:52:24.000Z</time>
      </trkpt>
      <trkpt lat="44.81208" lon="5.86447">
        <ele>878.844515</ele>
        <time>2025-07-10T09:52:25.000Z</time>
      </trkpt>
      <trkpt lat="44.81208" lon="5.86436">
        <ele>879.093275</ele>
        <time>2025-07-10T09:52:26.000Z</time>
      </trkpt>
      <trkpt lat="44.81209" lon="5.86424">
        <ele>879.335099</ele>
        <time>2025-07-10T09:52:27.000Z</time>
      </trkpt>
      <trkpt lat="44.81212" lon="5.86415">
        <ele>879.558176</ele>
        <time>2025-07-10T09:52:28.000Z</time>
      </trkpt>
      <trkpt lat="44.81216" lon="5.86407">
        <ele>879.757628</ele>
        <time>2025-07-10T09:52:29.000Z</time>
      </trkpt>
      <trkpt lat="44.8122" lon="5.86401">
        <ele>879.936831</ele>
        <time>2025-07-10T09:52:30.000Z</time>
      </trkpt>
      <trkpt lat="44.81224" lon="5.86396">
        <ele>880.097506</ele>
        <time>2025-07-10T09:52:31.000Z</time>
      </trkpt>
      <trkpt lat="44.81228" lon="5.86393">
        <ele>880.232676</ele>
        <time>2025-07-10T09:52:32.000Z</time>
      </trkpt>
      <trkpt lat="44.81232" lon="5.8639">
        <ele>880.359132</ele>
        <time>2025-07-10T09:52:33.000Z</time>
      </trkpt>
      <trkpt lat="44.81235" lon="5.86388">
        <ele>880.473087</ele>
        <time>2025-07-10T09:52:34.000Z</time>
      </trkpt>
      <trkpt lat="44.81239" lon="5.86385">
        <ele>880.591179</ele>
        <time>2025-07-10T09:52:35.000Z</time>
      </trkpt>
      <trkpt lat="44.81242" lon="5.86382">
        <ele>880.698372</ele>
        <time>2025-07-10T09:52:36.000Z</time>
      </trkpt>
      <trkpt lat="44.81245" lon="5.86379">
        <ele>880.803022</ele>
        <time>2025-07-10T09:52:37.000Z</time>
      </trkpt>
      <trkpt lat="44.81247" lon="5.86377">
        <ele>880.89297</ele>
        <time>2025-07-10T09:52:38.000Z</time>
      </trkpt>
      <trkpt lat="44.8125" lon="5.86375">
        <ele>880.974403</ele>
        <time>2025-07-10T09:52:39.000Z</time>
      </trkpt>
      <trkpt lat="44.81252" lon="5.86373">
        <ele>881.044361</ele>
        <time>2025-07-10T09:52:40.000Z</time>
      </trkpt>
      <trkpt lat="44.81254" lon="5.86372">
        <ele>881.107122</ele>
        <time>2025-07-10T09:52:41.000Z</time>
      </trkpt>
      <trkpt lat="44.81255" lon="5.86371">
        <ele>881.163619</ele>
        <time>2025-07-10T09:52:42.000Z</time>
      </trkpt>
      <trkpt lat="44.81257" lon="5.8637">
        <ele>881.219205</ele>
        <time>2025-07-10T09:52:43.000Z</time>
      </trkpt>
      <trkpt lat="44.81259" lon="5.86368">
        <ele>881.276677</ele>
        <time>2025-07-10T09:52:44.000Z</time>
      </trkpt>
      <trkpt lat="44.8126" lon="5.86367">
        <ele>881.336217</ele>
        <time>2025-07-10T09:52:45.000Z</time>
      </trkpt>
      <trkpt lat="44.81262" lon="5.86365">
        <ele>881.396968</ele>
        <time>2025-07-10T09:52:46.000Z</time>
      </trkpt>
      <trkpt lat="44.81263" lon="5.86362">
        <ele>881.463387</ele>
        <time>2025-07-10T09:52:47.000Z</time>
      </trkpt>
      <trkpt lat="44.81265" lon="5.8636">
        <ele>881.531296</ele>
        <time>2025-07-10T09:52:48.000Z</time>
      </trkpt>
      <trkpt lat="44.81266" lon="5.86358">
        <ele>881.592651</ele>
        <time>2025-07-10T09:52:49.000Z</time>
      </trkpt>
      <trkpt lat="44.81268" lon="5.86356">
        <ele>881.658452</ele>
        <time>2025-07-10T09:52:50.000Z</time>
      </trkpt>
      <trkpt lat="44.8127" lon="5.86354">
        <ele>881.725622</ele>
        <time>2025-07-10T09:52:51.000Z</time>
      </trkpt>
      <trkpt lat="44.81272" lon="5.86352">
        <ele>881.7942</ele>
        <time>2025-07-10T09:52:52.000Z</time>
      </trkpt>
      <trkpt lat="44.81273" lon="5.8635">
        <ele>881.857023</ele>
        <time>2025-07-10T09:52:53.000Z</time>
      </trkpt>
      <trkpt lat="44.81274" lon="5.86347">
        <ele>881.919018</ele>
        <time>2025-07-10T09:52:54.000Z</time>
      </trkpt>
      <trkpt lat="44.81275" lon="5.86345">
        <ele>881.975758</ele>
        <time>2025-07-10T09:52:55.000Z</time>
      </trkpt>
      <trkpt lat="44.81276" lon="5.86343">
        <ele>882.034434</ele>
        <time>2025-07-10T09:52:56.000Z</time>
      </trkpt>
      <trkpt lat="44.81278" lon="5.8634">
        <ele>882.099824</ele>
        <time>2025-07-10T09:52:57.000Z</time>
      </trkpt>
      <trkpt lat="44.81279" lon="5.86338">
        <ele>882.160327</ele>
        <time>2025-07-10T09:52:58.000Z</time>
      </trkpt>
      <trkpt lat="44.8128" lon="5.86335">
        <ele>882.217195</ele>
        <time>2025-07-10T09:52:59.000Z</time>
      </trkpt>
      <trkpt lat="44.81281" lon="5.86333">
        <ele>882.274423</ele>
        <time>2025-07-10T09:53:00.000Z</time>
      </trkpt>
      <trkpt lat="44.81281" lon="5.8633">
        <ele>882.333523</ele>
        <time>2025-07-10T09:53:01.000Z</time>
      </trkpt>
      <trkpt lat="44.81282" lon="5.86328">
        <ele>882.385245</ele>
        <time>2025-07-10T09:53:02.000Z</time>
      </trkpt>
      <trkpt lat="44.81283" lon="5.86326">
        <ele>882.432472</ele>
        <time>2025-07-10T09:53:03.000Z</time>
      </trkpt>
      <trkpt lat="44.81283" lon="5.86324">
        <ele>882.546825</ele>
        <time>2025-07-10T09:53:04.000Z</time>
      </trkpt>
      <trkpt lat="44.81284" lon="5.86322">
        <ele>882.684726</ele>
        <time>2025-07-10T09:53:05.000Z</time>
      </trkpt>
      <trkpt lat="44.81285" lon="5.8632">
        <ele>882.817299</ele>
        <time>2025-07-10T09:53:06.000Z</time>
      </trkpt>
      <trkpt lat="44.81286" lon="5.86319">
        <ele>882.949871</ele>
        <time>2025-07-10T09:53:07.000Z</time>
      </trkpt>
      <trkpt lat="44.81287" lon="5.86317">
        <ele>883.077198</ele>
        <time>2025-07-10T09:53:08.000Z</time>
      </trkpt>
      <trkpt lat="44.81287" lon="5.86315">
        <ele>883.20977</ele>
        <time>2025-07-10T09:53:09.000Z</time>
      </trkpt>
      <trkpt lat="44.81288" lon="5.86313">
        <ele>883.348964</ele>
        <time>2025-07-10T09:53:10.000Z</time>
      </trkpt>
      <trkpt lat="44.81289" lon="5.86311">
        <ele>883.499454</ele>
        <time>2025-07-10T09:53:11.000Z</time>
      </trkpt>
      <trkpt lat="44.81289" lon="5.86309">
        <ele>883.634986</ele>
        <time>2025-07-10T09:53:12.000Z</time>
      </trkpt>
      <trkpt lat="44.8129" lon="5.86307">
        <ele>883.802975</ele>
        <time>2025-07-10T09:53:13.000Z</time>
      </trkpt>
      <trkpt lat="44.81291" lon="5.86305">
        <ele>883.947793</ele>
        <time>2025-07-10T09:53:14.000Z</time>
      </trkpt>
      <trkpt lat="44.81292" lon="5.86303">
        <ele>884.080365</ele>
        <time>2025-07-10T09:53:15.000Z</time>
      </trkpt>
      <trkpt lat="44.81293" lon="5.86301">
        <ele>884.210171</ele>
        <time>2025-07-10T09:53:16.000Z</time>
      </trkpt>
      <trkpt lat="44.81294" lon="5.86299">
        <ele>884.37325</ele>
        <time>2025-07-10T09:53:17.000Z</time>
      </trkpt>
      <trkpt lat="44.81295" lon="5.86297">
        <ele>884.53111</ele>
        <time>2025-07-10T09:53:18.000Z</time>
      </trkpt>
      <trkpt lat="44.81296" lon="5.86294">
        <ele>884.694037</ele>
        <time>2025-07-10T09:53:19.000Z</time>
      </trkpt>
      <trkpt lat="44.81296" lon="5.86293">
        <ele>884.831939</ele>
        <time>2025-07-10T09:53:20.000Z</time>
      </trkpt>
      <trkpt lat="44.81297" lon="5.8629">
        <ele>884.967651</ele>
        <time>2025-07-10T09:53:21.000Z</time>
      </trkpt>
      <trkpt lat="44.81297" lon="5.86289">
        <ele>885.075204</ele>
        <time>2025-07-10T09:53:22.000Z</time>
      </trkpt>
      <trkpt lat="44.81297" lon="5.86287">
        <ele>885.184542</ele>
        <time>2025-07-10T09:53:23.000Z</time>
      </trkpt>
      <trkpt lat="44.81298" lon="5.86285">
        <ele>885.314347</ele>
        <time>2025-07-10T09:53:24.000Z</time>
      </trkpt>
      <trkpt lat="44.81299" lon="5.86283">
        <ele>885.453541</ele>
        <time>2025-07-10T09:53:25.000Z</time>
      </trkpt>
      <trkpt lat="44.81299" lon="5.86281">
        <ele>885.589253</ele>
        <time>2025-07-10T09:53:26.000Z</time>
      </trkpt>
      <trkpt lat="44.81299" lon="5.86279">
        <ele>885.701041</ele>
        <time>2025-07-10T09:53:27.000Z</time>
      </trkpt>
      <trkpt lat="44.813" lon="5.86278">
        <ele>885.818769</ele>
        <time>2025-07-10T09:53:28.000Z</time>
      </trkpt>
      <trkpt lat="44.813" lon="5.86276">
        <ele>885.948575</ele>
        <time>2025-07-10T09:53:29.000Z</time>
      </trkpt>
      <trkpt lat="44.81301" lon="5.86274">
        <ele>886.066303</ele>
        <time>2025-07-10T09:53:30.000Z</time>
      </trkpt>
      <trkpt lat="44.81302" lon="5.86272">
        <ele>886.194421</ele>
        <time>2025-07-10T09:53:31.000Z</time>
      </trkpt>
      <trkpt lat="44.81302" lon="5.8627">
        <ele>886.331867</ele>
        <time>2025-07-10T09:53:32.000Z</time>
      </trkpt>
      <trkpt lat="44.81303" lon="5.86268">
        <ele>886.464439</ele>
        <time>2025-07-10T09:53:33.000Z</time>
      </trkpt>
      <trkpt lat="44.81304" lon="5.86267">
        <ele>886.582949</ele>
        <time>2025-07-10T09:53:34.000Z</time>
      </trkpt>
      <trkpt lat="44.81305" lon="5.86265">
        <ele>886.735667</ele>
        <time>2025-07-10T09:53:35.000Z</time>
      </trkpt>
      <trkpt lat="44.81306" lon="5.86263">
        <ele>886.863785</ele>
        <time>2025-07-10T09:53:36.000Z</time>
      </trkpt>
      <trkpt lat="44.81306" lon="5.86261">
        <ele>886.981111</ele>
        <time>2025-07-10T09:53:37.000Z</time>
      </trkpt>
      <trkpt lat="44.81307" lon="5.8626">
        <ele>887.118556</ele>
        <time>2025-07-10T09:53:38.000Z</time>
      </trkpt>
      <trkpt lat="44.81308" lon="5.86258">
        <ele>887.230758</ele>
        <time>2025-07-10T09:53:39.000Z</time>
      </trkpt>
      <trkpt lat="44.81308" lon="5.86257">
        <ele>887.328028</ele>
        <time>2025-07-10T09:53:40.000Z</time>
      </trkpt>
      <trkpt lat="44.81309" lon="5.86255">
        <ele>887.460421</ele>
        <time>2025-07-10T09:53:41.000Z</time>
      </trkpt>
      <trkpt lat="44.8131" lon="5.86253">
        <ele>887.592993</ele>
        <time>2025-07-10T09:53:42.000Z</time>
      </trkpt>
      <trkpt lat="44.8131" lon="5.86251">
        <ele>887.713644</ele>
        <time>2025-07-10T09:53:43.000Z</time>
      </trkpt>
      <trkpt lat="44.81311" lon="5.8625">
        <ele>887.834294</ele>
        <time>2025-07-10T09:53:44.000Z</time>
      </trkpt>
      <trkpt lat="44.81312" lon="5.86248">
        <ele>887.962413</ele>
        <time>2025-07-10T09:53:45.000Z</time>
      </trkpt>
      <trkpt lat="44.81312" lon="5.86246">
        <ele>888.088896</ele>
        <time>2025-07-10T09:53:46.000Z</time>
      </trkpt>
      <trkpt lat="44.81313" lon="5.86244">
        <ele>888.22715</ele>
        <time>2025-07-10T09:53:47.000Z</time>
      </trkpt>
      <trkpt lat="44.81313" lon="5.86242">
        <ele>888.354476</ele>
        <time>2025-07-10T09:53:48.000Z</time>
      </trkpt>
      <trkpt lat="44.81314" lon="5.8624">
        <ele>888.491922</ele>
        <time>2025-07-10T09:53:49.000Z</time>
      </trkpt>
      <trkpt lat="44.81315" lon="5.86239">
        <ele>888.624314</ele>
        <time>2025-07-10T09:53:50.000Z</time>
      </trkpt>
      <trkpt lat="44.81316" lon="5.86237">
        <ele>888.746996</ele>
        <time>2025-07-10T09:53:51.000Z</time>
      </trkpt>
      <trkpt lat="44.81317" lon="5.86235">
        <ele>888.874322</ele>
        <time>2025-07-10T09:53:52.000Z</time>
      </trkpt>
      <trkpt lat="44.81317" lon="5.86233">
        <ele>889.013516</ele>
        <time>2025-07-10T09:53:53.000Z</time>
      </trkpt>
      <trkpt lat="44.81318" lon="5.86231">
        <ele>889.166646</ele>
        <time>2025-07-10T09:53:54.000Z</time>
      </trkpt>
      <trkpt lat="44.81319" lon="5.86229">
        <ele>889.31447</ele>
        <time>2025-07-10T09:53:55.000Z</time>
      </trkpt>
      <trkpt lat="44.8132" lon="5.86227">
        <ele>889.459793</ele>
        <time>2025-07-10T09:53:56.000Z</time>
      </trkpt>
      <trkpt lat="44.81322" lon="5.86226">
        <ele>889.603404</ele>
        <time>2025-07-10T09:53:57.000Z</time>
      </trkpt>
      <trkpt lat="44.81322" lon="5.86224">
        <ele>889.73073</ele>
        <time>2025-07-10T09:53:58.000Z</time>
      </trkpt>
      <trkpt lat="44.81323" lon="5.86222">
        <ele>889.86382</ele>
        <time>2025-07-10T09:53:59.000Z</time>
      </trkpt>
      <trkpt lat="44.81324" lon="5.86221">
        <ele>889.99691</ele>
        <time>2025-07-10T09:54:00.000Z</time>
      </trkpt>
      <trkpt lat="44.81325" lon="5.86219">
        <ele>890.119526</ele>
        <time>2025-07-10T09:54:01.000Z</time>
      </trkpt>
      <trkpt lat="44.81326" lon="5.86218">
        <ele>890.247999</ele>
        <time>2025-07-10T09:54:02.000Z</time>
      </trkpt>
      <trkpt lat="44.81327" lon="5.86216">
        <ele>890.378387</ele>
        <time>2025-07-10T09:54:03.000Z</time>
      </trkpt>
      <trkpt lat="44.81329" lon="5.86215">
        <ele>890.519494</ele>
        <time>2025-07-10T09:54:04.000Z</time>
      </trkpt>
      <trkpt lat="44.8133" lon="5.86213">
        <ele>890.652584</ele>
        <time>2025-07-10T09:54:05.000Z</time>
      </trkpt>
      <trkpt lat="44.8133" lon="5.86212">
        <ele>890.770504</ele>
        <time>2025-07-10T09:54:06.000Z</time>
      </trkpt>
      <trkpt lat="44.81331" lon="5.86211">
        <ele>890.882705</ele>
        <time>2025-07-10T09:54:07.000Z</time>
      </trkpt>
      <trkpt lat="44.81332" lon="5.86209">
        <ele>890.984568</ele>
        <time>2025-07-10T09:54:08.000Z</time>
      </trkpt>
      <trkpt lat="44.81333" lon="5.86208">
        <ele>891.087347</ele>
        <time>2025-07-10T09:54:09.000Z</time>
      </trkpt>
      <trkpt lat="44.81334" lon="5.86207">
        <ele>891.209721</ele>
        <time>2025-07-10T09:54:10.000Z</time>
      </trkpt>
      <trkpt lat="44.81335" lon="5.86206">
        <ele>891.335657</ele>
        <time>2025-07-10T09:54:11.000Z</time>
      </trkpt>
      <trkpt lat="44.81336" lon="5.86205">
        <ele>891.479813</ele>
        <time>2025-07-10T09:54:12.000Z</time>
      </trkpt>
      <trkpt lat="44.81338" lon="5.86203">
        <ele>891.620827</ele>
        <time>2025-07-10T09:54:13.000Z</time>
      </trkpt>
      <trkpt lat="44.81339" lon="5.86202">
        <ele>891.772569</ele>
        <time>2025-07-10T09:54:14.000Z</time>
      </trkpt>
      <trkpt lat="44.81341" lon="5.86201">
        <ele>891.899993</ele>
        <time>2025-07-10T09:54:15.000Z</time>
      </trkpt>
      <trkpt lat="44.81342" lon="5.86201">
        <ele>892.032901</ele>
        <time>2025-07-10T09:54:16.000Z</time>
      </trkpt>
      <trkpt lat="44.81343" lon="5.86199">
        <ele>892.166299</ele>
        <time>2025-07-10T09:54:17.000Z</time>
      </trkpt>
      <trkpt lat="44.81345" lon="5.86199">
        <ele>892.285888</ele>
        <time>2025-07-10T09:54:18.000Z</time>
      </trkpt>
      <trkpt lat="44.81346" lon="5.86198">
        <ele>892.400147</ele>
        <time>2025-07-10T09:54:19.000Z</time>
      </trkpt>
      <trkpt lat="44.81347" lon="5.86197">
        <ele>892.522582</ele>
        <time>2025-07-10T09:54:20.000Z</time>
      </trkpt>
      <trkpt lat="44.81348" lon="5.86197">
        <ele>892.651321</ele>
        <time>2025-07-10T09:54:21.000Z</time>
      </trkpt>
      <trkpt lat="44.8135" lon="5.86196">
        <ele>892.792421</ele>
        <time>2025-07-10T09:54:22.000Z</time>
      </trkpt>
      <trkpt lat="44.81351" lon="5.86195">
        <ele>892.927798</ele>
        <time>2025-07-10T09:54:23.000Z</time>
      </trkpt>
      <trkpt lat="44.81353" lon="5.86194">
        <ele>893.06588</ele>
        <time>2025-07-10T09:54:24.000Z</time>
      </trkpt>
      <trkpt lat="44.81354" lon="5.86193">
        <ele>893.199278</ele>
        <time>2025-07-10T09:54:25.000Z</time>
      </trkpt>
      <trkpt lat="44.81355" lon="5.86192">
        <ele>893.329969</ele>
        <time>2025-07-10T09:54:26.000Z</time>
      </trkpt>
      <trkpt lat="44.81357" lon="5.86191">
        <ele>893.44199</ele>
        <time>2025-07-10T09:54:27.000Z</time>
      </trkpt>
      <trkpt lat="44.81358" lon="5.86191">
        <ele>893.566788</ele>
        <time>2025-07-10T09:54:28.000Z</time>
      </trkpt>
      <trkpt lat="44.81359" lon="5.8619">
        <ele>893.697084</ele>
        <time>2025-07-10T09:54:29.000Z</time>
      </trkpt>
      <trkpt lat="44.81361" lon="5.86189">
        <ele>893.827379</ele>
        <time>2025-07-10T09:54:30.000Z</time>
      </trkpt>
      <trkpt lat="44.81362" lon="5.86187">
        <ele>893.956823</ele>
        <time>2025-07-10T09:54:31.000Z</time>
      </trkpt>
      <trkpt lat="44.81363" lon="5.86186">
        <ele>894.075481</ele>
        <time>2025-07-10T09:54:32.000Z</time>
      </trkpt>
      <trkpt lat="44.81364" lon="5.86185">
        <ele>894.19507</ele>
        <time>2025-07-10T09:54:33.000Z</time>
      </trkpt>
      <trkpt lat="44.81365" lon="5.86185">
        <ele>894.315419</ele>
        <time>2025-07-10T09:54:34.000Z</time>
      </trkpt>
      <trkpt lat="44.81366" lon="5.86184">
        <ele>894.427016</ele>
        <time>2025-07-10T09:54:35.000Z</time>
      </trkpt>
      <trkpt lat="44.81368" lon="5.86183">
        <ele>894.563731</ele>
        <time>2025-07-10T09:54:36.000Z</time>
      </trkpt>
      <trkpt lat="44.81369" lon="5.86182">
        <ele>894.707158</ele>
        <time>2025-07-10T09:54:37.000Z</time>
      </trkpt>
      <trkpt lat="44.81371" lon="5.8618">
        <ele>894.851314</ele>
        <time>2025-07-10T09:54:38.000Z</time>
      </trkpt>
      <trkpt lat="44.81372" lon="5.8618">
        <ele>894.98669</ele>
        <time>2025-07-10T09:54:39.000Z</time>
      </trkpt>
      <trkpt lat="44.81373" lon="5.86179">
        <ele>895.125704</ele>
        <time>2025-07-10T09:54:40.000Z</time>
      </trkpt>
      <trkpt lat="44.81375" lon="5.86178">
        <ele>895.262885</ele>
        <time>2025-07-10T09:54:41.000Z</time>
      </trkpt>
      <trkpt lat="44.81376" lon="5.86177">
        <ele>895.400968</ele>
        <time>2025-07-10T09:54:42.000Z</time>
      </trkpt>
      <trkpt lat="44.81378" lon="5.86176">
        <ele>895.534365</ele>
        <time>2025-07-10T09:54:43.000Z</time>
      </trkpt>
      <trkpt lat="44.81379" lon="5.86175">
        <ele>895.672448</ele>
        <time>2025-07-10T09:54:44.000Z</time>
      </trkpt>
      <trkpt lat="44.8138" lon="5.86174">
        <ele>895.816603</ele>
        <time>2025-07-10T09:54:45.000Z</time>
      </trkpt>
      <trkpt lat="44.81382" lon="5.86173">
        <ele>895.946899</ele>
        <time>2025-07-10T09:54:46.000Z</time>
      </trkpt>
      <trkpt lat="44.81383" lon="5.86172">
        <ele>896.079807</ele>
        <time>2025-07-10T09:54:47.000Z</time>
      </trkpt>
      <trkpt lat="44.81384" lon="5.86171">
        <ele>896.199396</ele>
        <time>2025-07-10T09:54:48.000Z</time>
      </trkpt>
      <trkpt lat="44.81385" lon="5.8617">
        <ele>896.308295</ele>
        <time>2025-07-10T09:54:49.000Z</time>
      </trkpt>
      <trkpt lat="44.81387" lon="5.8617">
        <ele>896.422554</ele>
        <time>2025-07-10T09:54:50.000Z</time>
      </trkpt>
      <trkpt lat="44.81388" lon="5.86169">
        <ele>896.542903</ele>
        <time>2025-07-10T09:54:51.000Z</time>
      </trkpt>
      <trkpt lat="44.81389" lon="5.86168">
        <ele>896.673594</ele>
        <time>2025-07-10T09:54:52.000Z</time>
      </trkpt>
      <trkpt lat="44.81391" lon="5.86168">
        <ele>896.783686</ele>
        <time>2025-07-10T09:54:53.000Z</time>
      </trkpt>
      <trkpt lat="44.81392" lon="5.86167">
        <ele>896.903275</ele>
        <time>2025-07-10T09:54:54.000Z</time>
      </trkpt>
      <trkpt lat="44.81393" lon="5.86166">
        <ele>897.029211</ele>
        <time>2025-07-10T09:54:55.000Z</time>
      </trkpt>
      <trkpt lat="44.81394" lon="5.86165">
        <ele>897.159506</ele>
        <time>2025-07-10T09:54:56.000Z</time>
      </trkpt>
      <trkpt lat="44.81395" lon="5.86164">
        <ele>897.276294</ele>
        <time>2025-07-10T09:54:57.000Z</time>
      </trkpt>
      <trkpt lat="44.81397" lon="5.86163">
        <ele>897.385193</ele>
        <time>2025-07-10T09:54:58.000Z</time>
      </trkpt>
      <trkpt lat="44.81398" lon="5.86163">
        <ele>897.501981</ele>
        <time>2025-07-10T09:54:59.000Z</time>
      </trkpt>
      <trkpt lat="44.81399" lon="5.86162">
        <ele>897.643081</ele>
        <time>2025-07-10T09:55:00.000Z</time>
      </trkpt>
      <trkpt lat="44.81401" lon="5.86161">
        <ele>897.773772</ele>
        <time>2025-07-10T09:55:01.000Z</time>
      </trkpt>
      <trkpt lat="44.81402" lon="5.8616">
        <ele>897.911855</ele>
        <time>2025-07-10T09:55:02.000Z</time>
      </trkpt>
      <trkpt lat="44.81403" lon="5.86159">
        <ele>898.05601</ele>
        <time>2025-07-10T09:55:03.000Z</time>
      </trkpt>
      <trkpt lat="44.81405" lon="5.86158">
        <ele>898.194093</ele>
        <time>2025-07-10T09:55:04.000Z</time>
      </trkpt>
      <trkpt lat="44.81406" lon="5.86157">
        <ele>898.329304</ele>
        <time>2025-07-10T09:55:05.000Z</time>
      </trkpt>
      <trkpt lat="44.81407" lon="5.86156">
        <ele>898.460564</ele>
        <time>2025-07-10T09:55:06.000Z</time>
      </trkpt>
      <trkpt lat="44.81409" lon="5.86155">
        <ele>898.592194</ele>
        <time>2025-07-10T09:55:07.000Z</time>
      </trkpt>
      <trkpt lat="44.8141" lon="5.86153">
        <ele>898.719741</ele>
        <time>2025-07-10T09:55:08.000Z</time>
      </trkpt>
      <trkpt lat="44.81411" lon="5.86152">
        <ele>898.858779</ele>
        <time>2025-07-10T09:55:09.000Z</time>
      </trkpt>
      <trkpt lat="44.81413" lon="5.86151">
        <ele>899.022018</ele>
        <time>2025-07-10T09:55:10.000Z</time>
      </trkpt>
      <trkpt lat="44.81414" lon="5.8615">
        <ele>899.174175</ele>
        <time>2025-07-10T09:55:11.000Z</time>
      </trkpt>
      <trkpt lat="44.81416" lon="5.86149">
        <ele>899.329851</ele>
        <time>2025-07-10T09:55:12.000Z</time>
      </trkpt>
      <trkpt lat="44.81417" lon="5.86148">
        <ele>899.49309</ele>
        <time>2025-07-10T09:55:13.000Z</time>
      </trkpt>
      <trkpt lat="44.81419" lon="5.86147">
        <ele>899.650493</ele>
        <time>2025-07-10T09:55:14.000Z</time>
      </trkpt>
      <trkpt lat="44.8142" lon="5.86146">
        <ele>899.785409</ele>
        <time>2025-07-10T09:55:15.000Z</time>
      </trkpt>
      <trkpt lat="44.81421" lon="5.86145">
        <ele>899.916669</ele>
        <time>2025-07-10T09:55:16.000Z</time>
      </trkpt>
      <trkpt lat="44.81422" lon="5.86144">
        <ele>900.04948</ele>
        <time>2025-07-10T09:55:17.000Z</time>
      </trkpt>
      <trkpt lat="44.81424" lon="5.86143">
        <ele>900.207637</ele>
        <time>2025-07-10T09:55:18.000Z</time>
      </trkpt>
      <trkpt lat="44.81425" lon="5.86141">
        <ele>900.354612</ele>
        <time>2025-07-10T09:55:19.000Z</time>
      </trkpt>
      <trkpt lat="44.81427" lon="5.86141">
        <ele>900.508236</ele>
        <time>2025-07-10T09:55:20.000Z</time>
      </trkpt>
      <trkpt lat="44.81428" lon="5.8614">
        <ele>900.641047</ele>
        <time>2025-07-10T09:55:21.000Z</time>
      </trkpt>
      <trkpt lat="44.8143" lon="5.86139">
        <ele>900.788022</ele>
        <time>2025-07-10T09:55:22.000Z</time>
      </trkpt>
      <trkpt lat="44.81431" lon="5.86138">
        <ele>900.931942</ele>
        <time>2025-07-10T09:55:23.000Z</time>
      </trkpt>
      <trkpt lat="44.81433" lon="5.86137">
        <ele>901.092437</ele>
        <time>2025-07-10T09:55:24.000Z</time>
      </trkpt>
      <trkpt lat="44.81434" lon="5.86136">
        <ele>901.237328</ele>
        <time>2025-07-10T09:55:25.000Z</time>
      </trkpt>
      <trkpt lat="44.81435" lon="5.86136">
        <ele>901.352074</ele>
        <time>2025-07-10T09:55:26.000Z</time>
      </trkpt>
      <trkpt lat="44.81437" lon="5.86135">
        <ele>901.486256</ele>
        <time>2025-07-10T09:55:27.000Z</time>
      </trkpt>
      <trkpt lat="44.81438" lon="5.86134">
        <ele>901.624783</ele>
        <time>2025-07-10T09:55:28.000Z</time>
      </trkpt>
      <trkpt lat="44.8144" lon="5.86133">
        <ele>901.788022</ele>
        <time>2025-07-10T09:55:29.000Z</time>
      </trkpt>
      <trkpt lat="44.81441" lon="5.86132">
        <ele>901.948517</ele>
        <time>2025-07-10T09:55:30.000Z</time>
      </trkpt>
      <trkpt lat="44.81443" lon="5.86132">
        <ele>902.08986</ele>
        <time>2025-07-10T09:55:31.000Z</time>
      </trkpt>
      <trkpt lat="44.81444" lon="5.86131">
        <ele>902.23284</ele>
        <time>2025-07-10T09:55:32.000Z</time>
      </trkpt>
      <trkpt lat="44.81446" lon="5.8613">
        <ele>902.392087</ele>
        <time>2025-07-10T09:55:33.000Z</time>
      </trkpt>
      <trkpt lat="44.81448" lon="5.8613">
        <ele>902.552789</ele>
        <time>2025-07-10T09:55:34.000Z</time>
      </trkpt>
      <trkpt lat="44.81449" lon="5.86129">
        <ele>902.694132</ele>
        <time>2025-07-10T09:55:35.000Z</time>
      </trkpt>
      <trkpt lat="44.81451" lon="5.86129">
        <ele>902.832296</ele>
        <time>2025-07-10T09:55:36.000Z</time>
      </trkpt>
      <trkpt lat="44.81452" lon="5.86129">
        <ele>902.969999</ele>
        <time>2025-07-10T09:55:37.000Z</time>
      </trkpt>
      <trkpt lat="44.81454" lon="5.86128">
        <ele>903.125675</ele>
        <time>2025-07-10T09:55:38.000Z</time>
      </trkpt>
      <trkpt lat="44.81455" lon="5.86127">
        <ele>903.281351</ele>
        <time>2025-07-10T09:55:39.000Z</time>
      </trkpt>
      <trkpt lat="44.81457" lon="5.86127">
        <ele>903.424331</ele>
        <time>2025-07-10T09:55:40.000Z</time>
      </trkpt>
      <trkpt lat="44.81458" lon="5.86126">
        <ele>903.565674</ele>
        <time>2025-07-10T09:55:41.000Z</time>
      </trkpt>
      <trkpt lat="44.8146" lon="5.86126">
        <ele>903.684884</ele>
        <time>2025-07-10T09:55:42.000Z</time>
      </trkpt>
      <trkpt lat="44.81461" lon="5.86126">
        <ele>903.813429</ele>
        <time>2025-07-10T09:55:43.000Z</time>
      </trkpt>
      <trkpt lat="44.81463" lon="5.86126">
        <ele>903.953418</ele>
        <time>2025-07-10T09:55:44.000Z</time>
      </trkpt>
      <trkpt lat="44.81464" lon="5.86126">
        <ele>904.128133</ele>
        <time>2025-07-10T09:55:45.000Z</time>
      </trkpt>
      <trkpt lat="44.81466" lon="5.86126">
        <ele>904.302485</ele>
        <time>2025-07-10T09:55:46.000Z</time>
      </trkpt>
      <trkpt lat="44.81468" lon="5.86125">
        <ele>904.450497</ele>
        <time>2025-07-10T09:55:47.000Z</time>
      </trkpt>
      <trkpt lat="44.81469" lon="5.86125">
        <ele>904.551367</ele>
        <time>2025-07-10T09:55:48.000Z</time>
      </trkpt>
      <trkpt lat="44.8147" lon="5.86125">
        <ele>904.661406</ele>
        <time>2025-07-10T09:55:49.000Z</time>
      </trkpt>
      <trkpt lat="44.81472" lon="5.86125">
        <ele>904.781324</ele>
        <time>2025-07-10T09:55:50.000Z</time>
      </trkpt>
      <trkpt lat="44.81473" lon="5.86126">
        <ele>904.873942</ele>
        <time>2025-07-10T09:55:51.000Z</time>
      </trkpt>
      <trkpt lat="44.81474" lon="5.86125">
        <ele>904.975648</ele>
        <time>2025-07-10T09:55:52.000Z</time>
      </trkpt>
      <trkpt lat="44.81475" lon="5.86125">
        <ele>905.122944</ele>
        <time>2025-07-10T09:55:53.000Z</time>
      </trkpt>
      <trkpt lat="44.81477" lon="5.86126">
        <ele>905.261871</ele>
        <time>2025-07-10T09:55:54.000Z</time>
      </trkpt>
      <trkpt lat="44.81478" lon="5.86126">
        <ele>905.399575</ele>
        <time>2025-07-10T09:55:55.000Z</time>
      </trkpt>
      <trkpt lat="44.8148" lon="5.86126">
        <ele>905.537278</ele>
        <time>2025-07-10T09:55:56.000Z</time>
      </trkpt>
      <trkpt lat="44.81481" lon="5.86126">
        <ele>905.693304</ele>
        <time>2025-07-10T09:55:57.000Z</time>
      </trkpt>
      <trkpt lat="44.81483" lon="5.86126">
        <ele>905.849736</ele>
        <time>2025-07-10T09:55:58.000Z</time>
      </trkpt>
      <trkpt lat="44.81485" lon="5.86126">
        <ele>906.005625</ele>
        <time>2025-07-10T09:55:59.000Z</time>
      </trkpt>
      <trkpt lat="44.81486" lon="5.86126">
        <ele>906.13417</ele>
        <time>2025-07-10T09:56:00.000Z</time>
      </trkpt>
      <trkpt lat="44.81488" lon="5.86126">
        <ele>906.263207</ele>
        <time>2025-07-10T09:56:01.000Z</time>
      </trkpt>
      <trkpt lat="44.81489" lon="5.86126">
        <ele>906.383125</ele>
        <time>2025-07-10T09:56:02.000Z</time>
      </trkpt>
      <trkpt lat="44.8149" lon="5.86126">
        <ele>906.51167</ele>
        <time>2025-07-10T09:56:03.000Z</time>
      </trkpt>
      <trkpt lat="44.81492" lon="5.86126">
        <ele>906.63088</ele>
        <time>2025-07-10T09:56:04.000Z</time>
      </trkpt>
      <trkpt lat="44.81493" lon="5.86127">
        <ele>906.742637</ele>
        <time>2025-07-10T09:56:05.000Z</time>
      </trkpt>
      <trkpt lat="44.81494" lon="5.86127">
        <ele>906.857383</ele>
        <time>2025-07-10T09:56:06.000Z</time>
      </trkpt>
      <trkpt lat="44.81495" lon="5.86128">
        <ele>906.989819</ele>
        <time>2025-07-10T09:56:07.000Z</time>
      </trkpt>
      <trkpt lat="44.81497" lon="5.86128">
        <ele>907.129808</ele>
        <time>2025-07-10T09:56:08.000Z</time>
      </trkpt>
      <trkpt lat="44.81499" lon="5.86128">
        <ele>907.277104</ele>
        <time>2025-07-10T09:56:09.000Z</time>
      </trkpt>
      <trkpt lat="44.815" lon="5.86128">
        <ele>907.43421</ele>
        <time>2025-07-10T09:56:10.000Z</time>
      </trkpt>
      <trkpt lat="44.81501" lon="5.86129">
        <ele>907.545017</ele>
        <time>2025-07-10T09:56:11.000Z</time>
      </trkpt>
      <trkpt lat="44.81503" lon="5.86129">
        <ele>907.673397</ele>
        <time>2025-07-10T09:56:12.000Z</time>
      </trkpt>
      <trkpt lat="44.81505" lon="5.86129">
        <ele>907.829422</ele>
        <time>2025-07-10T09:56:13.000Z</time>
      </trkpt>
      <trkpt lat="44.81506" lon="5.86129">
        <ele>907.976718</ele>
        <time>2025-07-10T09:56:14.000Z</time>
      </trkpt>
      <trkpt lat="44.81508" lon="5.86129">
        <ele>908.123438</ele>
        <time>2025-07-10T09:56:15.000Z</time>
      </trkpt>
      <trkpt lat="44.81509" lon="5.86128">
        <ele>908.252475</ele>
        <time>2025-07-10T09:56:16.000Z</time>
      </trkpt>
      <trkpt lat="44.81511" lon="5.86128">
        <ele>908.38102</ele>
        <time>2025-07-10T09:56:17.000Z</time>
      </trkpt>
      <trkpt lat="44.81512" lon="5.86129">
        <ele>908.510057</ele>
        <time>2025-07-10T09:56:18.000Z</time>
      </trkpt>
      <trkpt lat="44.81513" lon="5.86129">
        <ele>908.648221</ele>
        <time>2025-07-10T09:56:19.000Z</time>
      </trkpt>
      <trkpt lat="44.81515" lon="5.86129">
        <ele>908.777258</ele>
        <time>2025-07-10T09:56:20.000Z</time>
      </trkpt>
      <trkpt lat="44.81516" lon="5.86128">
        <ele>908.898055</ele>
        <time>2025-07-10T09:56:21.000Z</time>
      </trkpt>
      <trkpt lat="44.81518" lon="5.86128">
        <ele>909.036219</ele>
        <time>2025-07-10T09:56:22.000Z</time>
      </trkpt>
      <trkpt lat="44.81519" lon="5.86128">
        <ele>909.167209</ele>
        <time>2025-07-10T09:56:23.000Z</time>
      </trkpt>
      <trkpt lat="44.81521" lon="5.86127">
        <ele>909.307199</ele>
        <time>2025-07-10T09:56:24.000Z</time>
      </trkpt>
      <trkpt lat="44.81522" lon="5.86127">
        <ele>909.418005</ele>
        <time>2025-07-10T09:56:25.000Z</time>
      </trkpt>
      <trkpt lat="44.81523" lon="5.86127">
        <ele>909.528811</ele>
        <time>2025-07-10T09:56:26.000Z</time>
      </trkpt>
      <trkpt lat="44.81524" lon="5.86127">
        <ele>909.666361</ele>
        <time>2025-07-10T09:56:27.000Z</time>
      </trkpt>
      <trkpt lat="44.81526" lon="5.86127">
        <ele>909.803911</ele>
        <time>2025-07-10T09:56:28.000Z</time>
      </trkpt>
      <trkpt lat="44.81527" lon="5.86127">
        <ele>909.923829</ele>
        <time>2025-07-10T09:56:29.000Z</time>
      </trkpt>
      <trkpt lat="44.81529" lon="5.86126">
        <ele>910.053683</ele>
        <time>2025-07-10T09:56:30.000Z</time>
      </trkpt>
      <trkpt lat="44.8153" lon="5.86126">
        <ele>910.183538</ele>
        <time>2025-07-10T09:56:31.000Z</time>
      </trkpt>
      <trkpt lat="44.81531" lon="5.86126">
        <ele>910.31772</ele>
        <time>2025-07-10T09:56:32.000Z</time>
      </trkpt>
      <trkpt lat="44.81533" lon="5.86125">
        <ele>910.45053</ele>
        <time>2025-07-10T09:56:33.000Z</time>
      </trkpt>
      <trkpt lat="44.81534" lon="5.86124">
        <ele>910.586746</ele>
        <time>2025-07-10T09:56:34.000Z</time>
      </trkpt>
      <trkpt lat="44.81536" lon="5.86123">
        <ele>910.719182</ele>
        <time>2025-07-10T09:56:35.000Z</time>
      </trkpt>
      <trkpt lat="44.81537" lon="5.86123">
        <ele>910.850172</ele>
        <time>2025-07-10T09:56:36.000Z</time>
      </trkpt>
      <trkpt lat="44.81538" lon="5.86123">
        <ele>910.988336</ele>
        <time>2025-07-10T09:56:37.000Z</time>
      </trkpt>
      <trkpt lat="44.8154" lon="5.86122">
        <ele>911.138618</ele>
        <time>2025-07-10T09:56:38.000Z</time>
      </trkpt>
      <trkpt lat="44.81541" lon="5.86122">
        <ele>911.2728</ele>
        <time>2025-07-10T09:56:39.000Z</time>
      </trkpt>
      <trkpt lat="44.81543" lon="5.86121">
        <ele>911.414143</ele>
        <time>2025-07-10T09:56:40.000Z</time>
      </trkpt>
      <trkpt lat="44.81544" lon="5.86121">
        <ele>911.557123</ele>
        <time>2025-07-10T09:56:41.000Z</time>
      </trkpt>
      <trkpt lat="44.81546" lon="5.8612">
        <ele>911.693339</ele>
        <time>2025-07-10T09:56:42.000Z</time>
      </trkpt>
      <trkpt lat="44.81547" lon="5.86119">
        <ele>911.834438</ele>
        <time>2025-07-10T09:56:43.000Z</time>
      </trkpt>
      <trkpt lat="44.81549" lon="5.86118">
        <ele>911.970654</ele>
        <time>2025-07-10T09:56:44.000Z</time>
      </trkpt>
      <trkpt lat="44.8155" lon="5.86118">
        <ele>912.111997</ele>
        <time>2025-07-10T09:56:45.000Z</time>
      </trkpt>
      <trkpt lat="44.81552" lon="5.86117">
        <ele>912.265621</ele>
        <time>2025-07-10T09:56:46.000Z</time>
      </trkpt>
      <trkpt lat="44.81553" lon="5.86116">
        <ele>912.412686</ele>
        <time>2025-07-10T09:56:47.000Z</time>
      </trkpt>
      <trkpt lat="44.81555" lon="5.86116">
        <ele>912.548902</ele>
        <time>2025-07-10T09:56:48.000Z</time>
      </trkpt>
      <trkpt lat="44.81556" lon="5.86115">
        <ele>912.687428</ele>
        <time>2025-07-10T09:56:49.000Z</time>
      </trkpt>
      <trkpt lat="44.81558" lon="5.86114">
        <ele>912.836919</ele>
        <time>2025-07-10T09:56:50.000Z</time>
      </trkpt>
      <trkpt lat="44.81559" lon="5.86113">
        <ele>912.98181</ele>
        <time>2025-07-10T09:56:51.000Z</time>
      </trkpt>
      <trkpt lat="44.8156" lon="5.86112">
        <ele>913.12573</ele>
        <time>2025-07-10T09:56:52.000Z</time>
      </trkpt>
      <trkpt lat="44.81562" lon="5.86111">
        <ele>913.272795</ele>
        <time>2025-07-10T09:56:53.000Z</time>
      </trkpt>
      <trkpt lat="44.81563" lon="5.86111">
        <ele>913.411321</ele>
        <time>2025-07-10T09:56:54.000Z</time>
      </trkpt>
      <trkpt lat="44.81565" lon="5.8611">
        <ele>913.547537</ele>
        <time>2025-07-10T09:56:55.000Z</time>
      </trkpt>
      <trkpt lat="44.81566" lon="5.86109">
        <ele>913.680348</ele>
        <time>2025-07-10T09:56:56.000Z</time>
      </trkpt>
      <trkpt lat="44.81568" lon="5.86108">
        <ele>913.829838</ele>
        <time>2025-07-10T09:56:57.000Z</time>
      </trkpt>
      <trkpt lat="44.81569" lon="5.86107">
        <ele>913.973758</ele>
        <time>2025-07-10T09:56:58.000Z</time>
      </trkpt>
      <trkpt lat="44.8157" lon="5.86106">
        <ele>914.103832</ele>
        <time>2025-07-10T09:56:59.000Z</time>
      </trkpt>
      <trkpt lat="44.81572" lon="5.86106">
        <ele>914.229268</ele>
        <time>2025-07-10T09:57:00.000Z</time>
      </trkpt>
      <trkpt lat="44.81573" lon="5.86105">
        <ele>914.365484</ele>
        <time>2025-07-10T09:57:01.000Z</time>
      </trkpt>
      <trkpt lat="44.81574" lon="5.86104">
        <ele>914.512549</ele>
        <time>2025-07-10T09:57:02.000Z</time>
      </trkpt>
      <trkpt lat="44.81576" lon="5.86103">
        <ele>914.653648</ele>
        <time>2025-07-10T09:57:03.000Z</time>
      </trkpt>
      <trkpt lat="44.81577" lon="5.86102">
        <ele>914.792764</ele>
        <time>2025-07-10T09:57:04.000Z</time>
      </trkpt>
      <trkpt lat="44.81579" lon="5.86102">
        <ele>914.921716</ele>
        <time>2025-07-10T09:57:05.000Z</time>
      </trkpt>
      <trkpt lat="44.8158" lon="5.86101">
        <ele>915.050667</ele>
        <time>2025-07-10T09:57:06.000Z</time>
      </trkpt>
      <trkpt lat="44.81581" lon="5.861">
        <ele>915.174298</ele>
        <time>2025-07-10T09:57:07.000Z</time>
      </trkpt>
      <trkpt lat="44.81583" lon="5.86099">
        <ele>915.297928</ele>
        <time>2025-07-10T09:57:08.000Z</time>
      </trkpt>
      <trkpt lat="44.81584" lon="5.86098">
        <ele>915.42688</ele>
        <time>2025-07-10T09:57:09.000Z</time>
      </trkpt>
      <trkpt lat="44.81585" lon="5.86097">
        <ele>915.55051</ele>
        <time>2025-07-10T09:57:10.000Z</time>
      </trkpt>
      <trkpt lat="44.81587" lon="5.86096">
        <ele>915.681857</ele>
        <time>2025-07-10T09:57:11.000Z</time>
      </trkpt>
      <trkpt lat="44.81588" lon="5.86095">
        <ele>915.808273</ele>
        <time>2025-07-10T09:57:12.000Z</time>
      </trkpt>
      <trkpt lat="44.81589" lon="5.86094">
        <ele>915.927267</ele>
        <time>2025-07-10T09:57:13.000Z</time>
      </trkpt>
      <trkpt lat="44.8159" lon="5.86093">
        <ele>916.049453</ele>
        <time>2025-07-10T09:57:14.000Z</time>
      </trkpt>
      <trkpt lat="44.81592" lon="5.86093">
        <ele>916.170537</ele>
        <time>2025-07-10T09:57:15.000Z</time>
      </trkpt>
      <trkpt lat="44.81593" lon="5.86091">
        <ele>916.285661</ele>
        <time>2025-07-10T09:57:16.000Z</time>
      </trkpt>
      <trkpt lat="44.81594" lon="5.8609">
        <ele>916.404391</ele>
        <time>2025-07-10T09:57:17.000Z</time>
      </trkpt>
      <trkpt lat="44.81595" lon="5.86089">
        <ele>916.547495</ele>
        <time>2025-07-10T09:57:18.000Z</time>
      </trkpt>
      <trkpt lat="44.81597" lon="5.86088">
        <ele>916.676683</ele>
        <time>2025-07-10T09:57:19.000Z</time>
      </trkpt>
      <trkpt lat="44.81598" lon="5.86087">
        <ele>916.806109</ele>
        <time>2025-07-10T09:57:20.000Z</time>
      </trkpt>
      <trkpt lat="44.81599" lon="5.86085">
        <ele>916.942925</ele>
        <time>2025-07-10T09:57:21.000Z</time>
      </trkpt>
      <trkpt lat="44.816" lon="5.86084">
        <ele>917.061918</ele>
        <time>2025-07-10T09:57:22.000Z</time>
      </trkpt>
      <trkpt lat="44.81602" lon="5.86083">
        <ele>917.180649</ele>
        <time>2025-07-10T09:57:23.000Z</time>
      </trkpt>
      <trkpt lat="44.81602" lon="5.86082">
        <ele>917.294287</ele>
        <time>2025-07-10T09:57:24.000Z</time>
      </trkpt>
      <trkpt lat="44.81603" lon="5.8608">
        <ele>917.422735</ele>
        <time>2025-07-10T09:57:25.000Z</time>
      </trkpt>
      <trkpt lat="44.81604" lon="5.86078">
        <ele>917.551861</ele>
        <time>2025-07-10T09:57:26.000Z</time>
      </trkpt>
      <trkpt lat="44.81605" lon="5.86077">
        <ele>917.678366</ele>
        <time>2025-07-10T09:57:27.000Z</time>
      </trkpt>
      <trkpt lat="44.81607" lon="5.86075">
        <ele>917.819361</ele>
        <time>2025-07-10T09:57:28.000Z</time>
      </trkpt>
      <trkpt lat="44.81608" lon="5.86074">
        <ele>917.963225</ele>
        <time>2025-07-10T09:57:29.000Z</time>
      </trkpt>
      <trkpt lat="44.81609" lon="5.86072">
        <ele>918.086874</ele>
        <time>2025-07-10T09:57:30.000Z</time>
      </trkpt>
      <trkpt lat="44.8161" lon="5.86071">
        <ele>918.217514</ele>
        <time>2025-07-10T09:57:31.000Z</time>
      </trkpt>
      <trkpt lat="44.81611" lon="5.86069">
        <ele>918.342161</ele>
        <time>2025-07-10T09:57:32.000Z</time>
      </trkpt>
      <trkpt lat="44.81612" lon="5.86067">
        <ele>918.47589</ele>
        <time>2025-07-10T09:57:33.000Z</time>
      </trkpt>
      <trkpt lat="44.81613" lon="5.86066">
        <ele>918.600536</ele>
        <time>2025-07-10T09:57:34.000Z</time>
      </trkpt>
      <trkpt lat="44.81614" lon="5.86064">
        <ele>918.729662</ele>
        <time>2025-07-10T09:57:35.000Z</time>
      </trkpt>
      <trkpt lat="44.81615" lon="5.86063">
        <ele>918.85331</ele>
        <time>2025-07-10T09:57:36.000Z</time>
      </trkpt>
      <trkpt lat="44.81616" lon="5.86061">
        <ele>918.977956</ele>
        <time>2025-07-10T09:57:37.000Z</time>
      </trkpt>
      <trkpt lat="44.81616" lon="5.8606">
        <ele>919.09649</ele>
        <time>2025-07-10T09:57:38.000Z</time>
      </trkpt>
      <trkpt lat="44.81617" lon="5.86058">
        <ele>919.215516</ele>
        <time>2025-07-10T09:57:39.000Z</time>
      </trkpt>
      <trkpt lat="44.81618" lon="5.86056">
        <ele>919.339048</ele>
        <time>2025-07-10T09:57:40.000Z</time>
      </trkpt>
      <trkpt lat="44.81619" lon="5.86054">
        <ele>919.472399</ele>
        <time>2025-07-10T09:57:41.000Z</time>
      </trkpt>
      <trkpt lat="44.8162" lon="5.86053">
        <ele>919.60102</ele>
        <time>2025-07-10T09:57:42.000Z</time>
      </trkpt>
      <trkpt lat="44.81621" lon="5.86051">
        <ele>919.734749</ele>
        <time>2025-07-10T09:57:43.000Z</time>
      </trkpt>
      <trkpt lat="44.81622" lon="5.86049">
        <ele>919.875744</ele>
        <time>2025-07-10T09:57:44.000Z</time>
      </trkpt>
      <trkpt lat="44.81623" lon="5.86048">
        <ele>920.004869</ele>
        <time>2025-07-10T09:57:45.000Z</time>
      </trkpt>
      <trkpt lat="44.81624" lon="5.86046">
        <ele>920.128518</ele>
        <time>2025-07-10T09:57:46.000Z</time>
      </trkpt>
      <trkpt lat="44.81625" lon="5.86044">
        <ele>920.257643</ele>
        <time>2025-07-10T09:57:47.000Z</time>
      </trkpt>
      <trkpt lat="44.81626" lon="5.86043">
        <ele>920.386768</ele>
        <time>2025-07-10T09:57:48.000Z</time>
      </trkpt>
      <trkpt lat="44.81627" lon="5.86041">
        <ele>920.505731</ele>
        <time>2025-07-10T09:57:49.000Z</time>
      </trkpt>
      <trkpt lat="44.81628" lon="5.8604">
        <ele>920.63946</ele>
        <time>2025-07-10T09:57:50.000Z</time>
      </trkpt>
      <trkpt lat="44.81629" lon="5.86038">
        <ele>920.777904</ele>
        <time>2025-07-10T09:57:51.000Z</time>
      </trkpt>
      <trkpt lat="44.81629" lon="5.86036">
        <ele>920.901436</ele>
        <time>2025-07-10T09:57:52.000Z</time>
      </trkpt>
      <trkpt lat="44.8163" lon="5.86035">
        <ele>921.020399</ele>
        <time>2025-07-10T09:57:53.000Z</time>
      </trkpt>
      <trkpt lat="44.81631" lon="5.86033">
        <ele>921.138932</ele>
        <time>2025-07-10T09:57:54.000Z</time>
      </trkpt>
      <trkpt lat="44.81632" lon="5.86031">
        <ele>921.268058</ele>
        <time>2025-07-10T09:57:55.000Z</time>
      </trkpt>
      <trkpt lat="44.81633" lon="5.8603">
        <ele>921.387021</ele>
        <time>2025-07-10T09:57:56.000Z</time>
      </trkpt>
      <trkpt lat="44.81634" lon="5.86028">
        <ele>921.510553</ele>
        <time>2025-07-10T09:57:57.000Z</time>
      </trkpt>
      <trkpt lat="44.81635" lon="5.86026">
        <ele>921.643903</ele>
        <time>2025-07-10T09:57:58.000Z</time>
      </trkpt>
      <trkpt lat="44.81635" lon="5.86025">
        <ele>921.772524</ele>
        <time>2025-07-10T09:57:59.000Z</time>
      </trkpt>
      <trkpt lat="44.81636" lon="5.86023">
        <ele>921.89155</ele>
        <time>2025-07-10T09:58:00.000Z</time>
      </trkpt>
      <trkpt lat="44.81637" lon="5.86021">
        <ele>922.020675</ele>
        <time>2025-07-10T09:58:01.000Z</time>
      </trkpt>
      <trkpt lat="44.81638" lon="5.8602">
        <ele>922.151315</ele>
        <time>2025-07-10T09:58:02.000Z</time>
      </trkpt>
      <trkpt lat="44.81639" lon="5.86018">
        <ele>922.281956</ele>
        <time>2025-07-10T09:58:03.000Z</time>
      </trkpt>
      <trkpt lat="44.8164" lon="5.86017">
        <ele>922.406602</ele>
        <time>2025-07-10T09:58:04.000Z</time>
      </trkpt>
      <trkpt lat="44.81641" lon="5.86015">
        <ele>922.54033</ele>
        <time>2025-07-10T09:58:05.000Z</time>
      </trkpt>
      <trkpt lat="44.81642" lon="5.86013">
        <ele>922.674059</ele>
        <time>2025-07-10T09:58:06.000Z</time>
      </trkpt>
      <trkpt lat="44.81643" lon="5.86012">
        <ele>922.802507</ele>
        <time>2025-07-10T09:58:07.000Z</time>
      </trkpt>
      <trkpt lat="44.81644" lon="5.8601">
        <ele>922.930954</ele>
        <time>2025-07-10T09:58:08.000Z</time>
      </trkpt>
      <trkpt lat="44.81645" lon="5.86008">
        <ele>923.04998</ele>
        <time>2025-07-10T09:58:09.000Z</time>
      </trkpt>
      <trkpt lat="44.81646" lon="5.86007">
        <ele>923.18333</ele>
        <time>2025-07-10T09:58:10.000Z</time>
      </trkpt>
      <trkpt lat="44.81647" lon="5.86005">
        <ele>923.302293</ele>
        <time>2025-07-10T09:58:11.000Z</time>
      </trkpt>
      <trkpt lat="44.81647" lon="5.86003">
        <ele>923.421318</ele>
        <time>2025-07-10T09:58:12.000Z</time>
      </trkpt>
      <trkpt lat="44.81648" lon="5.86002">
        <ele>923.555047</ele>
        <time>2025-07-10T09:58:13.000Z</time>
      </trkpt>
      <trkpt lat="44.81649" lon="5.86">
        <ele>923.688775</ele>
        <time>2025-07-10T09:58:14.000Z</time>
      </trkpt>
      <trkpt lat="44.8165" lon="5.85998">
        <ele>923.812423</ele>
        <time>2025-07-10T09:58:15.000Z</time>
      </trkpt>
      <trkpt lat="44.81651" lon="5.85997">
        <ele>923.92606</ele>
        <time>2025-07-10T09:58:16.000Z</time>
      </trkpt>
      <trkpt lat="44.81652" lon="5.85995">
        <ele>924.039698</ele>
        <time>2025-07-10T09:58:17.000Z</time>
      </trkpt>
      <trkpt lat="44.81653" lon="5.85994">
        <ele>924.173426</ele>
        <time>2025-07-10T09:58:18.000Z</time>
      </trkpt>
      <trkpt lat="44.81654" lon="5.85992">
        <ele>924.312459</ele>
        <time>2025-07-10T09:58:19.000Z</time>
      </trkpt>
      <trkpt lat="44.81655" lon="5.8599">
        <ele>924.450802</ele>
        <time>2025-07-10T09:58:20.000Z</time>
      </trkpt>
      <trkpt lat="44.81655" lon="5.85988">
        <ele>924.579423</ele>
        <time>2025-07-10T09:58:21.000Z</time>
      </trkpt>
      <trkpt lat="44.81656" lon="5.85986">
        <ele>924.718755</ele>
        <time>2025-07-10T09:58:22.000Z</time>
      </trkpt>
      <trkpt lat="44.81657" lon="5.85985">
        <ele>924.842403</ele>
        <time>2025-07-10T09:58:23.000Z</time>
      </trkpt>
      <trkpt lat="44.81658" lon="5.85983">
        <ele>924.95738</ele>
        <time>2025-07-10T09:58:24.000Z</time>
      </trkpt>
      <trkpt lat="44.81659" lon="5.85981">
        <ele>925.071209</ele>
        <time>2025-07-10T09:58:25.000Z</time>
      </trkpt>
      <trkpt lat="44.8166" lon="5.8598">
        <ele>925.190172</ele>
        <time>2025-07-10T09:58:26.000Z</time>
      </trkpt>
      <trkpt lat="44.8166" lon="5.85978">
        <ele>925.31382</ele>
        <time>2025-07-10T09:58:27.000Z</time>
      </trkpt>
      <trkpt lat="44.81661" lon="5.85977">
        <ele>925.442945</ele>
        <time>2025-07-10T09:58:28.000Z</time>
      </trkpt>
      <trkpt lat="44.81662" lon="5.85975">
        <ele>925.571393</ele>
        <time>2025-07-10T09:58:29.000Z</time>
      </trkpt>
      <trkpt lat="44.81663" lon="5.85973">
        <ele>925.69984</ele>
        <time>2025-07-10T09:58:30.000Z</time>
      </trkpt>
      <trkpt lat="44.81664" lon="5.85971">
        <ele>925.843704</ele>
        <time>2025-07-10T09:58:31.000Z</time>
      </trkpt>
      <trkpt lat="44.81665" lon="5.8597">
        <ele>925.982147</ele>
        <time>2025-07-10T09:58:32.000Z</time>
      </trkpt>
      <trkpt lat="44.81666" lon="5.85968">
        <ele>926.105679</ele>
        <time>2025-07-10T09:58:33.000Z</time>
      </trkpt>
      <trkpt lat="44.81667" lon="5.85966">
        <ele>926.226107</ele>
        <time>2025-07-10T09:58:34.000Z</time>
      </trkpt>
      <trkpt lat="44.81667" lon="5.85964">
        <ele>926.346536</ele>
        <time>2025-07-10T09:58:35.000Z</time>
      </trkpt>
      <trkpt lat="44.81668" lon="5.85963">
        <ele>926.456125</ele>
        <time>2025-07-10T09:58:36.000Z</time>
      </trkpt>
      <trkpt lat="44.81669" lon="5.85961">
        <ele>926.579657</ele>
        <time>2025-07-10T09:58:37.000Z</time>
      </trkpt>
      <trkpt lat="44.81669" lon="5.85959">
        <ele>926.698682</ele>
        <time>2025-07-10T09:58:38.000Z</time>
      </trkpt>
      <trkpt lat="44.8167" lon="5.85958">
        <ele>926.810119</ele>
        <time>2025-07-10T09:58:39.000Z</time>
      </trkpt>
      <trkpt lat="44.8167" lon="5.85956">
        <ele>926.927985</ele>
        <time>2025-07-10T09:58:40.000Z</time>
      </trkpt>
      <trkpt lat="44.81671" lon="5.85954">
        <ele>927.042962</ele>
        <time>2025-07-10T09:58:41.000Z</time>
      </trkpt>
      <trkpt lat="44.81672" lon="5.85953">
        <ele>927.156599</ele>
        <time>2025-07-10T09:58:42.000Z</time>
      </trkpt>
      <trkpt lat="44.81672" lon="5.85951">
        <ele>927.270817</ele>
        <time>2025-07-10T09:58:43.000Z</time>
      </trkpt>
      <trkpt lat="44.81672" lon="5.85949">
        <ele>927.379272</ele>
        <time>2025-07-10T09:58:44.000Z</time>
      </trkpt>
      <trkpt lat="44.81673" lon="5.85947">
        <ele>927.491235</ele>
        <time>2025-07-10T09:58:45.000Z</time>
      </trkpt>
      <trkpt lat="44.81673" lon="5.85945">
        <ele>927.61717</ele>
        <time>2025-07-10T09:58:46.000Z</time>
      </trkpt>
      <trkpt lat="44.81674" lon="5.85944">
        <ele>927.736195</ele>
        <time>2025-07-10T09:58:47.000Z</time>
      </trkpt>
      <trkpt lat="44.81675" lon="5.85942">
        <ele>927.842064</ele>
        <time>2025-07-10T09:58:48.000Z</time>
      </trkpt>
      <trkpt lat="44.81675" lon="5.8594">
        <ele>927.954027</ele>
        <time>2025-07-10T09:58:49.000Z</time>
      </trkpt>
      <trkpt lat="44.81675" lon="5.85938">
        <ele>928.085692</ele>
        <time>2025-07-10T09:58:50.000Z</time>
      </trkpt>
      <trkpt lat="44.81675" lon="5.85936">
        <ele>928.232018</ele>
        <time>2025-07-10T09:58:51.000Z</time>
      </trkpt>
      <trkpt lat="44.81675" lon="5.85933">
        <ele>928.37155</ele>
        <time>2025-07-10T09:58:52.000Z</time>
      </trkpt>
      <trkpt lat="44.81676" lon="5.85932">
        <ele>928.486527</ele>
        <time>2025-07-10T09:58:53.000Z</time>
      </trkpt>
      <trkpt lat="44.81676" lon="5.85929">
        <ele>928.634093</ele>
        <time>2025-07-10T09:58:54.000Z</time>
      </trkpt>
      <trkpt lat="44.81676" lon="5.85927">
        <ele>928.775699</ele>
        <time>2025-07-10T09:58:55.000Z</time>
      </trkpt>
      <trkpt lat="44.81677" lon="5.85925">
        <ele>928.914731</ele>
        <time>2025-07-10T09:58:56.000Z</time>
      </trkpt>
      <trkpt lat="44.81678" lon="5.85923">
        <ele>929.038378</ele>
        <time>2025-07-10T09:58:57.000Z</time>
      </trkpt>
      <trkpt lat="44.81678" lon="5.85922">
        <ele>929.153355</ele>
        <time>2025-07-10T09:58:58.000Z</time>
      </trkpt>
      <trkpt lat="44.81679" lon="5.8592">
        <ele>929.265318</ele>
        <time>2025-07-10T09:58:59.000Z</time>
      </trkpt>
      <trkpt lat="44.81679" lon="5.85918">
        <ele>929.396983</ele>
        <time>2025-07-10T09:59:00.000Z</time>
      </trkpt>
      <trkpt lat="44.8168" lon="5.85916">
        <ele>929.532027</ele>
        <time>2025-07-10T09:59:01.000Z</time>
      </trkpt>
      <trkpt lat="44.8168" lon="5.85914">
        <ele>929.669115</ele>
        <time>2025-07-10T09:59:02.000Z</time>
      </trkpt>
      <trkpt lat="44.81681" lon="5.85912">
        <ele>929.797562</ele>
        <time>2025-07-10T09:59:03.000Z</time>
      </trkpt>
      <trkpt lat="44.81683" lon="5.85911">
        <ele>929.926749</ele>
        <time>2025-07-10T09:59:04.000Z</time>
      </trkpt>
      <trkpt lat="44.81684" lon="5.8591">
        <ele>930.058095</ele>
        <time>2025-07-10T09:59:05.000Z</time>
      </trkpt>
      <trkpt lat="44.81686" lon="5.85909">
        <ele>930.182385</ele>
        <time>2025-07-10T09:59:06.000Z</time>
      </trkpt>
      <trkpt lat="44.81687" lon="5.85909">
        <ele>930.28651</ele>
        <time>2025-07-10T09:59:07.000Z</time>
      </trkpt>
      <trkpt lat="44.81689" lon="5.8591">
        <ele>930.391679</ele>
        <time>2025-07-10T09:59:08.000Z</time>
      </trkpt>
      <trkpt lat="44.8169" lon="5.85911">
        <ele>930.516089</ele>
        <time>2025-07-10T09:59:09.000Z</time>
      </trkpt>
      <trkpt lat="44.81691" lon="5.85912">
        <ele>930.615731</ele>
        <time>2025-07-10T09:59:10.000Z</time>
      </trkpt>
      <trkpt lat="44.81693" lon="5.85913">
        <ele>930.730389</ele>
        <time>2025-07-10T09:59:11.000Z</time>
      </trkpt>
      <trkpt lat="44.81694" lon="5.85915">
        <ele>930.830031</ele>
        <time>2025-07-10T09:59:12.000Z</time>
      </trkpt>
      <trkpt lat="44.81695" lon="5.85916">
        <ele>930.944689</ele>
        <time>2025-07-10T09:59:13.000Z</time>
      </trkpt>
      <trkpt lat="44.81696" lon="5.85918">
        <ele>931.05602</ele>
        <time>2025-07-10T09:59:14.000Z</time>
      </trkpt>
      <trkpt lat="44.81697" lon="5.85919">
        <ele>931.165738</ele>
        <time>2025-07-10T09:59:15.000Z</time>
      </trkpt>
      <trkpt lat="44.81698" lon="5.85921">
        <ele>931.278321</ele>
        <time>2025-07-10T09:59:16.000Z</time>
      </trkpt>
      <trkpt lat="44.81699" lon="5.85923">
        <ele>931.392979</ele>
        <time>2025-07-10T09:59:17.000Z</time>
      </trkpt>
      <trkpt lat="44.817" lon="5.85925">
        <ele>931.50997</ele>
        <time>2025-07-10T09:59:18.000Z</time>
      </trkpt>
      <trkpt lat="44.81702" lon="5.85926">
        <ele>931.619688</ele>
        <time>2025-07-10T09:59:19.000Z</time>
      </trkpt>
      <trkpt lat="44.81703" lon="5.85928">
        <ele>931.748676</ele>
        <time>2025-07-10T09:59:20.000Z</time>
      </trkpt>
      <trkpt lat="44.81704" lon="5.8593">
        <ele>931.866772</ele>
        <time>2025-07-10T09:59:21.000Z</time>
      </trkpt>
      <trkpt lat="44.81705" lon="5.85932">
        <ele>932.000348</ele>
        <time>2025-07-10T09:59:22.000Z</time>
      </trkpt>
      <trkpt lat="44.81706" lon="5.85934">
        <ele>932.121113</ele>
        <time>2025-07-10T09:59:23.000Z</time>
      </trkpt>
      <trkpt lat="44.81708" lon="5.85936">
        <ele>932.251101</ele>
        <time>2025-07-10T09:59:24.000Z</time>
      </trkpt>
      <trkpt lat="44.81709" lon="5.85938">
        <ele>932.377592</ele>
        <time>2025-07-10T09:59:25.000Z</time>
      </trkpt>
      <trkpt lat="44.8171" lon="5.85939">
        <ele>932.498356</ele>
        <time>2025-07-10T09:59:26.000Z</time>
      </trkpt>
      <trkpt lat="44.81711" lon="5.85941">
        <ele>932.609687</ele>
        <time>2025-07-10T09:59:27.000Z</time>
      </trkpt>
      <trkpt lat="44.81712" lon="5.85942">
        <ele>932.715925</ele>
        <time>2025-07-10T09:59:28.000Z</time>
      </trkpt>
      <trkpt lat="44.81714" lon="5.85944">
        <ele>932.83402</ele>
        <time>2025-07-10T09:59:29.000Z</time>
      </trkpt>
      <trkpt lat="44.81715" lon="5.85946">
        <ele>932.955655</ele>
        <time>2025-07-10T09:59:30.000Z</time>
      </trkpt>
      <trkpt lat="44.81716" lon="5.85948">
        <ele>933.072154</ele>
        <time>2025-07-10T09:59:31.000Z</time>
      </trkpt>
      <trkpt lat="44.81717" lon="5.8595">
        <ele>933.200699</ele>
        <time>2025-07-10T09:59:32.000Z</time>
      </trkpt>
      <trkpt lat="44.81718" lon="5.85952">
        <ele>933.323789</ele>
        <time>2025-07-10T09:59:33.000Z</time>
      </trkpt>
      <trkpt lat="44.81719" lon="5.85954">
        <ele>933.449058</ele>
        <time>2025-07-10T09:59:34.000Z</time>
      </trkpt>
      <trkpt lat="44.81721" lon="5.85955">
        <ele>933.575549</ele>
        <time>2025-07-10T09:59:35.000Z</time>
      </trkpt>
      <trkpt lat="44.81722" lon="5.85957">
        <ele>933.688854</ele>
        <time>2025-07-10T09:59:36.000Z</time>
      </trkpt>
      <trkpt lat="44.81723" lon="5.85959">
        <ele>933.809619</ele>
        <time>2025-07-10T09:59:37.000Z</time>
      </trkpt>
      <trkpt lat="44.81724" lon="5.85961">
        <ele>933.938607</ele>
        <time>2025-07-10T09:59:38.000Z</time>
      </trkpt>
      <trkpt lat="44.81725" lon="5.85962">
        <ele>934.049938</ele>
        <time>2025-07-10T09:59:39.000Z</time>
      </trkpt>
      <trkpt lat="44.81727" lon="5.85964">
        <ele>934.163499</ele>
        <time>2025-07-10T09:59:40.000Z</time>
      </trkpt>
      <trkpt lat="44.81728" lon="5.85966">
        <ele>934.285134</ele>
        <time>2025-07-10T09:59:41.000Z</time>
      </trkpt>
      <trkpt lat="44.81729" lon="5.85967">
        <ele>934.40323</ele>
        <time>2025-07-10T09:59:42.000Z</time>
      </trkpt>
      <trkpt lat="44.8173" lon="5.85969">
        <ele>934.519729</ele>
        <time>2025-07-10T09:59:43.000Z</time>
      </trkpt>
      <trkpt lat="44.81731" lon="5.85971">
        <ele>934.63329</ele>
        <time>2025-07-10T09:59:44.000Z</time>
      </trkpt>
      <trkpt lat="44.81733" lon="5.85972">
        <ele>934.753085</ele>
        <time>2025-07-10T09:59:45.000Z</time>
      </trkpt>
      <trkpt lat="44.81734" lon="5.85974">
        <ele>934.866646</ele>
        <time>2025-07-10T09:59:46.000Z</time>
      </trkpt>
      <trkpt lat="44.81735" lon="5.85975">
        <ele>934.977288</ele>
        <time>2025-07-10T09:59:47.000Z</time>
      </trkpt>
      <trkpt lat="44.81737" lon="5.85976">
        <ele>935.091026</ele>
        <time>2025-07-10T09:59:48.000Z</time>
      </trkpt>
      <trkpt lat="44.81738" lon="5.85977">
        <ele>935.201667</ele>
        <time>2025-07-10T09:59:49.000Z</time>
      </trkpt>
      <trkpt lat="44.81739" lon="5.85979">
        <ele>935.315228</ele>
        <time>2025-07-10T09:59:50.000Z</time>
      </trkpt>
      <trkpt lat="44.8174" lon="5.8598">
        <ele>935.431844</ele>
        <time>2025-07-10T09:59:51.000Z</time>
      </trkpt>
      <trkpt lat="44.81742" lon="5.85982">
        <ele>935.558334</ele>
        <time>2025-07-10T09:59:52.000Z</time>
      </trkpt>
      <trkpt lat="44.81743" lon="5.85984">
        <ele>935.683603</ele>
        <time>2025-07-10T09:59:53.000Z</time>
      </trkpt>
      <trkpt lat="44.81744" lon="5.85986">
        <ele>935.794934</ele>
        <time>2025-07-10T09:59:54.000Z</time>
      </trkpt>
      <trkpt lat="44.81745" lon="5.85987">
        <ele>935.914729</ele>
        <time>2025-07-10T09:59:55.000Z</time>
      </trkpt>
      <trkpt lat="44.81747" lon="5.85989">
        <ele>936.032824</ele>
        <time>2025-07-10T09:59:56.000Z</time>
      </trkpt>
      <trkpt lat="44.81748" lon="5.85991">
        <ele>936.155914</ele>
        <time>2025-07-10T09:59:57.000Z</time>
      </trkpt>
      <trkpt lat="44.81749" lon="5.85992">
        <ele>936.266555</ele>
        <time>2025-07-10T09:59:58.000Z</time>
      </trkpt>
      <trkpt lat="44.81751" lon="5.85993">
        <ele>936.377196</ele>
        <time>2025-07-10T09:59:59.000Z</time>
      </trkpt>
      <trkpt lat="44.81752" lon="5.85995">
        <ele>936.490757</ele>
        <time>2025-07-10T10:00:00.000Z</time>
      </trkpt>
      <trkpt lat="44.81753" lon="5.85996">
        <ele>936.610552</ele>
        <time>2025-07-10T10:00:01.000Z</time>
      </trkpt>
      <trkpt lat="44.81755" lon="5.85998">
        <ele>936.732619</ele>
        <time>2025-07-10T10:00:02.000Z</time>
      </trkpt>
      <trkpt lat="44.81756" lon="5.85999">
        <ele>936.847276</ele>
        <time>2025-07-10T10:00:03.000Z</time>
      </trkpt>
      <trkpt lat="44.81757" lon="5.86001">
        <ele>936.967072</ele>
        <time>2025-07-10T10:00:04.000Z</time>
      </trkpt>
      <trkpt lat="44.81758" lon="5.86002">
        <ele>937.086867</ele>
        <time>2025-07-10T10:00:05.000Z</time>
      </trkpt>
      <trkpt lat="44.8176" lon="5.86004">
        <ele>937.203239</ele>
        <time>2025-07-10T10:00:06.000Z</time>
      </trkpt>
      <trkpt lat="44.81761" lon="5.86005">
        <ele>937.3168</ele>
        <time>2025-07-10T10:00:07.000Z</time>
      </trkpt>
      <trkpt lat="44.81762" lon="5.86006">
        <ele>937.427441</ele>
        <time>2025-07-10T10:00:08.000Z</time>
      </trkpt>
      <trkpt lat="44.81764" lon="5.86008">
        <ele>937.5387</ele>
        <time>2025-07-10T10:00:09.000Z</time>
      </trkpt>
      <trkpt lat="44.81765" lon="5.86009">
        <ele>937.660929</ele>
        <time>2025-07-10T10:00:10.000Z</time>
      </trkpt>
      <trkpt lat="44.81767" lon="5.8601">
        <ele>937.77449</ele>
        <time>2025-07-10T10:00:11.000Z</time>
      </trkpt>
      <trkpt lat="44.81768" lon="5.86011">
        <ele>937.889672</ele>
        <time>2025-07-10T10:00:12.000Z</time>
      </trkpt>
      <trkpt lat="44.8177" lon="5.86012">
        <ele>938.021648</ele>
        <time>2025-07-10T10:00:13.000Z</time>
      </trkpt>
      <trkpt lat="44.81771" lon="5.86014">
        <ele>938.143715</ele>
        <time>2025-07-10T10:00:14.000Z</time>
      </trkpt>
      <trkpt lat="44.81773" lon="5.86015">
        <ele>938.271377</ele>
        <time>2025-07-10T10:00:15.000Z</time>
      </trkpt>
      <trkpt lat="44.81774" lon="5.86017">
        <ele>938.401951</ele>
        <time>2025-07-10T10:00:16.000Z</time>
      </trkpt>
      <trkpt lat="44.81776" lon="5.86018">
        <ele>938.52418</ele>
        <time>2025-07-10T10:00:17.000Z</time>
      </trkpt>
      <trkpt lat="44.81777" lon="5.8602">
        <ele>938.643903</ele>
        <time>2025-07-10T10:00:18.000Z</time>
      </trkpt>
      <trkpt lat="44.81779" lon="5.86021">
        <ele>938.774476</ele>
        <time>2025-07-10T10:00:19.000Z</time>
      </trkpt>
      <trkpt lat="44.8178" lon="5.86023">
        <ele>938.899354</ele>
        <time>2025-07-10T10:00:20.000Z</time>
      </trkpt>
      <trkpt lat="44.81781" lon="5.86024">
        <ele>939.009995</ele>
        <time>2025-07-10T10:00:21.000Z</time>
      </trkpt>
      <trkpt lat="44.81783" lon="5.86025">
        <ele>939.129147</ele>
        <time>2025-07-10T10:00:22.000Z</time>
      </trkpt>
      <trkpt lat="44.81784" lon="5.86027">
        <ele>939.248299</ele>
        <time>2025-07-10T10:00:23.000Z</time>
      </trkpt>
      <trkpt lat="44.81786" lon="5.86028">
        <ele>939.368022</ele>
        <time>2025-07-10T10:00:24.000Z</time>
      </trkpt>
      <trkpt lat="44.81787" lon="5.86029">
        <ele>939.481186</ele>
        <time>2025-07-10T10:00:25.000Z</time>
      </trkpt>
      <trkpt lat="44.81789" lon="5.8603">
        <ele>939.596368</ele>
        <time>2025-07-10T10:00:26.000Z</time>
      </trkpt>
      <trkpt lat="44.8179" lon="5.86031">
        <ele>939.71155</ele>
        <time>2025-07-10T10:00:27.000Z</time>
      </trkpt>
      <trkpt lat="44.81792" lon="5.86031">
        <ele>939.814665</ele>
        <time>2025-07-10T10:00:28.000Z</time>
      </trkpt>
      <trkpt lat="44.81793" lon="5.86032">
        <ele>939.913131</ele>
        <time>2025-07-10T10:00:29.000Z</time>
      </trkpt>
      <trkpt lat="44.81795" lon="5.86033">
        <ele>940.028061</ele>
        <time>2025-07-10T10:00:30.000Z</time>
      </trkpt>
      <trkpt lat="44.81796" lon="5.86033">
        <ele>940.135057</ele>
        <time>2025-07-10T10:00:31.000Z</time>
      </trkpt>
      <trkpt lat="44.81797" lon="5.86034">
        <ele>940.238173</ele>
        <time>2025-07-10T10:00:32.000Z</time>
      </trkpt>
      <trkpt lat="44.81799" lon="5.86035">
        <ele>940.359824</ele>
        <time>2025-07-10T10:00:33.000Z</time>
      </trkpt>
      <trkpt lat="44.81801" lon="5.86035">
        <ele>940.473588</ele>
        <time>2025-07-10T10:00:34.000Z</time>
      </trkpt>
      <trkpt lat="44.81802" lon="5.86036">
        <ele>940.595239</ele>
        <time>2025-07-10T10:00:35.000Z</time>
      </trkpt>
      <trkpt lat="44.81804" lon="5.86036">
        <ele>940.734422</ele>
        <time>2025-07-10T10:00:36.000Z</time>
      </trkpt>
      <trkpt lat="44.81807" lon="5.86036">
        <ele>940.889112</ele>
        <time>2025-07-10T10:00:37.000Z</time>
      </trkpt>
      <trkpt lat="44.81809" lon="5.86037">
        <ele>941.036952</ele>
        <time>2025-07-10T10:00:38.000Z</time>
      </trkpt>
      <trkpt lat="44.81811" lon="5.86037">
        <ele>941.183475</ele>
        <time>2025-07-10T10:00:39.000Z</time>
      </trkpt>
      <trkpt lat="44.81813" lon="5.86037">
        <ele>941.329583</ele>
        <time>2025-07-10T10:00:40.000Z</time>
      </trkpt>
      <trkpt lat="44.81815" lon="5.86038">
        <ele>941.469201</ele>
        <time>2025-07-10T10:00:41.000Z</time>
      </trkpt>
      <trkpt lat="44.81817" lon="5.86038">
        <ele>941.601918</ele>
        <time>2025-07-10T10:00:42.000Z</time>
      </trkpt>
      <trkpt lat="44.81819" lon="5.86038">
        <ele>941.741536</ele>
        <time>2025-07-10T10:00:43.000Z</time>
      </trkpt>
      <trkpt lat="44.81821" lon="5.86039">
        <ele>941.894966</ele>
        <time>2025-07-10T10:00:44.000Z</time>
      </trkpt>
      <trkpt lat="44.81823" lon="5.86039">
        <ele>942.034149</ele>
        <time>2025-07-10T10:00:45.000Z</time>
      </trkpt>
      <trkpt lat="44.81825" lon="5.86039">
        <ele>942.153079</ele>
        <time>2025-07-10T10:00:46.000Z</time>
      </trkpt>
      <trkpt lat="44.81827" lon="5.8604">
        <ele>942.286435</ele>
        <time>2025-07-10T10:00:47.000Z</time>
      </trkpt>
      <trkpt lat="44.81828" lon="5.8604">
        <ele>942.413788</ele>
        <time>2025-07-10T10:00:48.000Z</time>
      </trkpt>
      <trkpt lat="44.8183" lon="5.86041">
        <ele>942.52347</ele>
        <time>2025-07-10T10:00:49.000Z</time>
      </trkpt>
      <trkpt lat="44.81832" lon="5.86041">
        <ele>942.614174</ele>
        <time>2025-07-10T10:00:50.000Z</time>
      </trkpt>
      <trkpt lat="44.81834" lon="5.86042">
        <ele>942.638319</ele>
        <time>2025-07-10T10:00:51.000Z</time>
      </trkpt>
      <trkpt lat="44.81835" lon="5.86043">
        <ele>942.662508</ele>
        <time>2025-07-10T10:00:52.000Z</time>
      </trkpt>
      <trkpt lat="44.81837" lon="5.86044">
        <ele>942.686696</ele>
        <time>2025-07-10T10:00:53.000Z</time>
      </trkpt>
      <trkpt lat="44.81838" lon="5.86045">
        <ele>942.70856</ele>
        <time>2025-07-10T10:00:54.000Z</time>
      </trkpt>
      <trkpt lat="44.8184" lon="5.86047">
        <ele>942.731996</ele>
        <time>2025-07-10T10:00:55.000Z</time>
      </trkpt>
      <trkpt lat="44.81842" lon="5.86048">
        <ele>942.755259</ele>
        <time>2025-07-10T10:00:56.000Z</time>
      </trkpt>
      <trkpt lat="44.81843" lon="5.8605">
        <ele>942.780147</ele>
        <time>2025-07-10T10:00:57.000Z</time>
      </trkpt>
      <trkpt lat="44.81845" lon="5.86052">
        <ele>942.80764</ele>
        <time>2025-07-10T10:00:58.000Z</time>
      </trkpt>
      <trkpt lat="44.81847" lon="5.86053">
        <ele>942.836178</ele>
        <time>2025-07-10T10:00:59.000Z</time>
      </trkpt>
      <trkpt lat="44.81848" lon="5.86055">
        <ele>942.863217</ele>
        <time>2025-07-10T10:01:00.000Z</time>
      </trkpt>
      <trkpt lat="44.8185" lon="5.86056">
        <ele>942.887037</ele>
        <time>2025-07-10T10:01:01.000Z</time>
      </trkpt>
      <trkpt lat="44.81851" lon="5.86057">
        <ele>942.908715</ele>
        <time>2025-07-10T10:01:02.000Z</time>
      </trkpt>
      <trkpt lat="44.81853" lon="5.86059">
        <ele>942.935767</ele>
        <time>2025-07-10T10:01:03.000Z</time>
      </trkpt>
      <trkpt lat="44.81855" lon="5.86061">
        <ele>942.96282</ele>
        <time>2025-07-10T10:01:04.000Z</time>
      </trkpt>
      <trkpt lat="44.81856" lon="5.86063">
        <ele>942.986713</ele>
        <time>2025-07-10T10:01:05.000Z</time>
      </trkpt>
      <trkpt lat="44.81857" lon="5.86064">
        <ele>943.006284</ele>
        <time>2025-07-10T10:01:06.000Z</time>
      </trkpt>
      <trkpt lat="44.81859" lon="5.86065">
        <ele>943.026377</ele>
        <time>2025-07-10T10:01:07.000Z</time>
      </trkpt>
      <trkpt lat="44.8186" lon="5.86066">
        <ele>943.049813</ele>
        <time>2025-07-10T10:01:08.000Z</time>
      </trkpt>
      <trkpt lat="44.81862" lon="5.86068">
        <ele>943.073694</ele>
        <time>2025-07-10T10:01:09.000Z</time>
      </trkpt>
      <trkpt lat="44.81864" lon="5.86069">
        <ele>943.099442</ele>
        <time>2025-07-10T10:01:10.000Z</time>
      </trkpt>
      <trkpt lat="44.81865" lon="5.8607">
        <ele>943.122461</ele>
        <time>2025-07-10T10:01:11.000Z</time>
      </trkpt>
      <trkpt lat="44.81867" lon="5.86071">
        <ele>943.146281</ele>
        <time>2025-07-10T10:01:12.000Z</time>
      </trkpt>
      <trkpt lat="44.81869" lon="5.86072">
        <ele>943.170687</ele>
        <time>2025-07-10T10:01:13.000Z</time>
      </trkpt>
      <trkpt lat="44.8187" lon="5.86072">
        <ele>943.194605</ele>
        <time>2025-07-10T10:01:14.000Z</time>
      </trkpt>
      <trkpt lat="44.81872" lon="5.86073">
        <ele>943.217267</ele>
        <time>2025-07-10T10:01:15.000Z</time>
      </trkpt>
      <trkpt lat="44.81874" lon="5.86073">
        <ele>943.242261</ele>
        <time>2025-07-10T10:01:16.000Z</time>
      </trkpt>
      <trkpt lat="44.81876" lon="5.86073">
        <ele>943.268123</ele>
        <time>2025-07-10T10:01:17.000Z</time>
      </trkpt>
      <trkpt lat="44.81878" lon="5.86073">
        <ele>943.295341</ele>
        <time>2025-07-10T10:01:18.000Z</time>
      </trkpt>
      <trkpt lat="44.8188" lon="5.86073">
        <ele>943.322881</ele>
        <time>2025-07-10T10:01:19.000Z</time>
      </trkpt>
      <trkpt lat="44.81882" lon="5.86072">
        <ele>943.350422</ele>
        <time>2025-07-10T10:01:20.000Z</time>
      </trkpt>
      <trkpt lat="44.81884" lon="5.86072">
        <ele>943.3756</ele>
        <time>2025-07-10T10:01:21.000Z</time>
      </trkpt>
      <trkpt lat="44.81886" lon="5.8607">
        <ele>943.402523</ele>
        <time>2025-07-10T10:01:22.000Z</time>
      </trkpt>
      <trkpt lat="44.81888" lon="5.86069">
        <ele>943.43106</ele>
        <time>2025-07-10T10:01:23.000Z</time>
      </trkpt>
      <trkpt lat="44.8189" lon="5.86067">
        <ele>943.461723</ele>
        <time>2025-07-10T10:01:24.000Z</time>
      </trkpt>
      <trkpt lat="44.81892" lon="5.86065">
        <ele>943.495017</ele>
        <time>2025-07-10T10:01:25.000Z</time>
      </trkpt>
      <trkpt lat="44.81894" lon="5.86062">
        <ele>943.531557</ele>
        <time>2025-07-10T10:01:26.000Z</time>
      </trkpt>
      <trkpt lat="44.81896" lon="5.86059">
        <ele>943.567699</ele>
        <time>2025-07-10T10:01:27.000Z</time>
      </trkpt>
      <trkpt lat="44.81899" lon="5.86057">
        <ele>943.607601</ele>
        <time>2025-07-10T10:01:28.000Z</time>
      </trkpt>
      <trkpt lat="44.81901" lon="5.86054">
        <ele>943.647181</ele>
        <time>2025-07-10T10:01:29.000Z</time>
      </trkpt>
      <trkpt lat="44.81903" lon="5.8605">
        <ele>943.688722</ele>
        <time>2025-07-10T10:01:30.000Z</time>
      </trkpt>
      <trkpt lat="44.81905" lon="5.86046">
        <ele>943.73212</ele>
        <time>2025-07-10T10:01:31.000Z</time>
      </trkpt>
      <trkpt lat="44.81906" lon="5.86042">
        <ele>943.775043</ele>
        <time>2025-07-10T10:01:32.000Z</time>
      </trkpt>
      <trkpt lat="44.81908" lon="5.86038">
        <ele>943.819822</ele>
        <time>2025-07-10T10:01:33.000Z</time>
      </trkpt>
      <trkpt lat="44.81909" lon="5.86034">
        <ele>943.863776</ele>
        <time>2025-07-10T10:01:34.000Z</time>
      </trkpt>
      <trkpt lat="44.81911" lon="5.86029">
        <ele>943.90913</ele>
        <time>2025-07-10T10:01:35.000Z</time>
      </trkpt>
      <trkpt lat="44.81912" lon="5.86025">
        <ele>943.954087</ele>
        <time>2025-07-10T10:01:36.000Z</time>
      </trkpt>
      <trkpt lat="44.81913" lon="5.8602">
        <ele>943.999096</ele>
        <time>2025-07-10T10:01:37.000Z</time>
      </trkpt>
      <trkpt lat="44.81914" lon="5.86015">
        <ele>944.044105</ele>
        <time>2025-07-10T10:01:38.000Z</time>
      </trkpt>
      <trkpt lat="44.81915" lon="5.8601">
        <ele>944.091422</ele>
        <time>2025-07-10T10:01:39.000Z</time>
      </trkpt>
      <trkpt lat="44.81916" lon="5.86005">
        <ele>944.13665</ele>
        <time>2025-07-10T10:01:40.000Z</time>
      </trkpt>
      <trkpt lat="44.81917" lon="5.86001">
        <ele>944.180781</ele>
        <time>2025-07-10T10:01:41.000Z</time>
      </trkpt>
      <trkpt lat="44.81918" lon="5.85996">
        <ele>944.228432</ele>
        <time>2025-07-10T10:01:42.000Z</time>
      </trkpt>
      <trkpt lat="44.81919" lon="5.85991">
        <ele>944.276081</ele>
        <time>2025-07-10T10:01:43.000Z</time>
      </trkpt>
      <trkpt lat="44.81919" lon="5.85986">
        <ele>944.3235</ele>
        <time>2025-07-10T10:01:44.000Z</time>
      </trkpt>
      <trkpt lat="44.8192" lon="5.8598">
        <ele>944.372049</ele>
        <time>2025-07-10T10:01:45.000Z</time>
      </trkpt>
      <trkpt lat="44.81921" lon="5.85975">
        <ele>944.419469</ele>
        <time>2025-07-10T10:01:46.000Z</time>
      </trkpt>
      <trkpt lat="44.81921" lon="5.8597">
        <ele>944.468358</ele>
        <time>2025-07-10T10:01:47.000Z</time>
      </trkpt>
      <trkpt lat="44.81921" lon="5.85964">
        <ele>944.518874</ele>
        <time>2025-07-10T10:01:48.000Z</time>
      </trkpt>
      <trkpt lat="44.81921" lon="5.85959">
        <ele>944.571301</ele>
        <time>2025-07-10T10:01:49.000Z</time>
      </trkpt>
      <trkpt lat="44.81922" lon="5.85953">
        <ele>944.625482</ele>
        <time>2025-07-10T10:01:50.000Z</time>
      </trkpt>
      <trkpt lat="44.81922" lon="5.85947">
        <ele>944.68145</ele>
        <time>2025-07-10T10:01:51.000Z</time>
      </trkpt>
      <trkpt lat="44.81922" lon="5.85941">
        <ele>944.736486</ele>
        <time>2025-07-10T10:01:52.000Z</time>
      </trkpt>
      <trkpt lat="44.81922" lon="5.85935">
        <ele>944.793371</ele>
        <time>2025-07-10T10:01:53.000Z</time>
      </trkpt>
      <trkpt lat="44.81922" lon="5.85928">
        <ele>944.852132</ele>
        <time>2025-07-10T10:01:54.000Z</time>
      </trkpt>
      <trkpt lat="44.81923" lon="5.85922">
        <ele>944.910281</ele>
        <time>2025-07-10T10:01:55.000Z</time>
      </trkpt>
      <trkpt lat="44.81923" lon="5.85915">
        <ele>944.86825</ele>
        <time>2025-07-10T10:01:56.000Z</time>
      </trkpt>
      <trkpt lat="44.81924" lon="5.85909">
        <ele>944.769237</ele>
        <time>2025-07-10T10:01:57.000Z</time>
      </trkpt>
      <trkpt lat="44.81924" lon="5.85902">
        <ele>944.672612</ele>
        <time>2025-07-10T10:01:58.000Z</time>
      </trkpt>
      <trkpt lat="44.81925" lon="5.85896">
        <ele>944.578162</ele>
        <time>2025-07-10T10:01:59.000Z</time>
      </trkpt>
      <trkpt lat="44.81926" lon="5.8589">
        <ele>944.48566</ele>
        <time>2025-07-10T10:02:00.000Z</time>
      </trkpt>
      <trkpt lat="44.81928" lon="5.85884">
        <ele>944.392624</ele>
        <time>2025-07-10T10:02:01.000Z</time>
      </trkpt>
      <trkpt lat="44.81929" lon="5.85877">
        <ele>944.294784</ele>
        <time>2025-07-10T10:02:02.000Z</time>
      </trkpt>
      <trkpt lat="44.8193" lon="5.85871">
        <ele>944.192927</ele>
        <time>2025-07-10T10:02:03.000Z</time>
      </trkpt>
      <trkpt lat="44.81932" lon="5.85864">
        <ele>944.08973</ele>
        <time>2025-07-10T10:02:04.000Z</time>
      </trkpt>
      <trkpt lat="44.81934" lon="5.85857">
        <ele>943.98425</ele>
        <time>2025-07-10T10:02:05.000Z</time>
      </trkpt>
      <trkpt lat="44.81936" lon="5.85851">
        <ele>943.878954</ele>
        <time>2025-07-10T10:02:06.000Z</time>
      </trkpt>
      <trkpt lat="44.81938" lon="5.85844">
        <ele>943.772121</ele>
        <time>2025-07-10T10:02:07.000Z</time>
      </trkpt>
      <trkpt lat="44.8194" lon="5.85837">
        <ele>943.668925</ele>
        <time>2025-07-10T10:02:08.000Z</time>
      </trkpt>
      <trkpt lat="44.81941" lon="5.85831">
        <ele>943.562254</ele>
        <time>2025-07-10T10:02:09.000Z</time>
      </trkpt>
      <trkpt lat="44.81943" lon="5.85824">
        <ele>943.449198</ele>
        <time>2025-07-10T10:02:10.000Z</time>
      </trkpt>
      <trkpt lat="44.81946" lon="5.85817">
        <ele>943.340195</ele>
        <time>2025-07-10T10:02:11.000Z</time>
      </trkpt>
      <trkpt lat="44.81948" lon="5.85811">
        <ele>943.235097</ele>
        <time>2025-07-10T10:02:12.000Z</time>
      </trkpt>
      <trkpt lat="44.81951" lon="5.85804">
        <ele>943.129243</ele>
        <time>2025-07-10T10:02:13.000Z</time>
      </trkpt>
      <trkpt lat="44.81953" lon="5.85798">
        <ele>943.02339</ele>
        <time>2025-07-10T10:02:14.000Z</time>
      </trkpt>
      <trkpt lat="44.81956" lon="5.85792">
        <ele>942.917536</ele>
        <time>2025-07-10T10:02:15.000Z</time>
      </trkpt>
      <trkpt lat="44.81958" lon="5.85786">
        <ele>942.815232</ele>
        <time>2025-07-10T10:02:16.000Z</time>
      </trkpt>
      <trkpt lat="44.8196" lon="5.8578">
        <ele>942.712403</ele>
        <time>2025-07-10T10:02:17.000Z</time>
      </trkpt>
      <trkpt lat="44.81964" lon="5.85774">
        <ele>942.605672</ele>
        <time>2025-07-10T10:02:18.000Z</time>
      </trkpt>
      <trkpt lat="44.81966" lon="5.85768">
        <ele>942.497651</ele>
        <time>2025-07-10T10:02:19.000Z</time>
      </trkpt>
      <trkpt lat="44.81969" lon="5.85761">
        <ele>942.390728</ele>
        <time>2025-07-10T10:02:20.000Z</time>
      </trkpt>
      <trkpt lat="44.81972" lon="5.85755">
        <ele>942.280216</ele>
        <time>2025-07-10T10:02:21.000Z</time>
      </trkpt>
      <trkpt lat="44.81974" lon="5.85748">
        <ele>942.167693</ele>
        <time>2025-07-10T10:02:22.000Z</time>
      </trkpt>
      <trkpt lat="44.81976" lon="5.85741">
        <ele>942.056881</ele>
        <time>2025-07-10T10:02:23.000Z</time>
      </trkpt>
      <trkpt lat="44.81977" lon="5.85733">
        <ele>941.945089</ele>
        <time>2025-07-10T10:02:24.000Z</time>
      </trkpt>
      <trkpt lat="44.81978" lon="5.85726">
        <ele>941.831092</ele>
        <time>2025-07-10T10:02:25.000Z</time>
      </trkpt>
      <trkpt lat="44.81979" lon="5.85718">
        <ele>941.718534</ele>
        <time>2025-07-10T10:02:26.000Z</time>
      </trkpt>
      <trkpt lat="44.8198" lon="5.8571">
        <ele>941.603227</ele>
        <time>2025-07-10T10:02:27.000Z</time>
      </trkpt>
      <trkpt lat="44.81981" lon="5.85703">
        <ele>941.48779</ele>
        <time>2025-07-10T10:02:28.000Z</time>
      </trkpt>
      <trkpt lat="44.81981" lon="5.85695">
        <ele>941.369053</ele>
        <time>2025-07-10T10:02:29.000Z</time>
      </trkpt>
      <trkpt lat="44.81982" lon="5.85686">
        <ele>941.244751</ele>
        <time>2025-07-10T10:02:30.000Z</time>
      </trkpt>
      <trkpt lat="44.81983" lon="5.85678">
        <ele>941.142414</ele>
        <time>2025-07-10T10:02:31.000Z</time>
      </trkpt>
      <trkpt lat="44.81985" lon="5.8567">
        <ele>941.046777</ele>
        <time>2025-07-10T10:02:32.000Z</time>
      </trkpt>
      <trkpt lat="44.81987" lon="5.85662">
        <ele>940.952781</ele>
        <time>2025-07-10T10:02:33.000Z</time>
      </trkpt>
      <trkpt lat="44.8199" lon="5.85655">
        <ele>940.861017</ele>
        <time>2025-07-10T10:02:34.000Z</time>
      </trkpt>
      <trkpt lat="44.81993" lon="5.85648">
        <ele>940.771691</ele>
        <time>2025-07-10T10:02:35.000Z</time>
      </trkpt>
      <trkpt lat="44.81997" lon="5.85641">
        <ele>940.678875</ele>
        <time>2025-07-10T10:02:36.000Z</time>
      </trkpt>
      <trkpt lat="44.82002" lon="5.85636">
        <ele>940.585631</ele>
        <time>2025-07-10T10:02:37.000Z</time>
      </trkpt>
      <trkpt lat="44.82006" lon="5.85631">
        <ele>940.501181</ele>
        <time>2025-07-10T10:02:38.000Z</time>
      </trkpt>
      <trkpt lat="44.82011" lon="5.85628">
        <ele>940.41294</ele>
        <time>2025-07-10T10:02:39.000Z</time>
      </trkpt>
      <trkpt lat="44.82016" lon="5.85624">
        <ele>940.327638</ele>
        <time>2025-07-10T10:02:40.000Z</time>
      </trkpt>
      <trkpt lat="44.82021" lon="5.85621">
        <ele>940.244189</ele>
        <time>2025-07-10T10:02:41.000Z</time>
      </trkpt>
      <trkpt lat="44.82026" lon="5.85618">
        <ele>940.161202</ele>
        <time>2025-07-10T10:02:42.000Z</time>
      </trkpt>
      <trkpt lat="44.82031" lon="5.85615">
        <ele>940.077753</ele>
        <time>2025-07-10T10:02:43.000Z</time>
      </trkpt>
      <trkpt lat="44.82035" lon="5.85611">
        <ele>939.99466</ele>
        <time>2025-07-10T10:02:44.000Z</time>
      </trkpt>
      <trkpt lat="44.8204" lon="5.85607">
        <ele>939.909524</ele>
        <time>2025-07-10T10:02:45.000Z</time>
      </trkpt>
      <trkpt lat="44.82045" lon="5.85602">
        <ele>939.821913</ele>
        <time>2025-07-10T10:02:46.000Z</time>
      </trkpt>
      <trkpt lat="44.82049" lon="5.85598">
        <ele>939.736157</ele>
        <time>2025-07-10T10:02:47.000Z</time>
      </trkpt>
      <trkpt lat="44.82053" lon="5.85592">
        <ele>939.650047</ele>
        <time>2025-07-10T10:02:48.000Z</time>
      </trkpt>
      <trkpt lat="44.82057" lon="5.85587">
        <ele>939.564651</ele>
        <time>2025-07-10T10:02:49.000Z</time>
      </trkpt>
      <trkpt lat="44.82061" lon="5.85581">
        <ele>939.478697</ele>
        <time>2025-07-10T10:02:50.000Z</time>
      </trkpt>
      <trkpt lat="44.82064" lon="5.85575">
        <ele>939.39192</ele>
        <time>2025-07-10T10:02:51.000Z</time>
      </trkpt>
      <trkpt lat="44.82068" lon="5.85569">
        <ele>939.306164</ele>
        <time>2025-07-10T10:02:52.000Z</time>
      </trkpt>
      <trkpt lat="44.82071" lon="5.85563">
        <ele>939.221413</ele>
        <time>2025-07-10T10:02:53.000Z</time>
      </trkpt>
      <trkpt lat="44.82075" lon="5.85557">
        <ele>939.13496</ele>
        <time>2025-07-10T10:02:54.000Z</time>
      </trkpt>
      <trkpt lat="44.82078" lon="5.85551">
        <ele>939.047647</ele>
        <time>2025-07-10T10:02:55.000Z</time>
      </trkpt>
      <trkpt lat="44.82082" lon="5.85545">
        <ele>938.960419</ele>
        <time>2025-07-10T10:02:56.000Z</time>
      </trkpt>
      <trkpt lat="44.82085" lon="5.85539">
        <ele>938.874935</ele>
        <time>2025-07-10T10:02:57.000Z</time>
      </trkpt>
      <trkpt lat="44.82089" lon="5.85533">
        <ele>938.791275</ele>
        <time>2025-07-10T10:02:58.000Z</time>
      </trkpt>
      <trkpt lat="44.82092" lon="5.85526">
        <ele>938.706786</ele>
        <time>2025-07-10T10:02:59.000Z</time>
      </trkpt>
      <trkpt lat="44.82095" lon="5.8552">
        <ele>938.623202</ele>
        <time>2025-07-10T10:03:00.000Z</time>
      </trkpt>
      <trkpt lat="44.82098" lon="5.85514">
        <ele>938.540446</ele>
        <time>2025-07-10T10:03:01.000Z</time>
      </trkpt>
      <trkpt lat="44.821" lon="5.85507">
        <ele>938.455537</ele>
        <time>2025-07-10T10:03:02.000Z</time>
      </trkpt>
      <trkpt lat="44.82103" lon="5.85501">
        <ele>938.358452</ele>
        <time>2025-07-10T10:03:03.000Z</time>
      </trkpt>
      <trkpt lat="44.82105" lon="5.85494">
        <ele>938.24436</ele>
        <time>2025-07-10T10:03:04.000Z</time>
      </trkpt>
      <trkpt lat="44.82108" lon="5.85487">
        <ele>938.128407</ele>
        <time>2025-07-10T10:03:05.000Z</time>
      </trkpt>
      <trkpt lat="44.8211" lon="5.85479">
        <ele>938.006697</ele>
        <time>2025-07-10T10:03:06.000Z</time>
      </trkpt>
      <trkpt lat="44.82112" lon="5.85471">
        <ele>937.880735</ele>
        <time>2025-07-10T10:03:07.000Z</time>
      </trkpt>
      <trkpt lat="44.82113" lon="5.85461">
        <ele>937.743263</ele>
        <time>2025-07-10T10:03:08.000Z</time>
      </trkpt>
      <trkpt lat="44.82115" lon="5.85453">
        <ele>937.613238</ele>
        <time>2025-07-10T10:03:09.000Z</time>
      </trkpt>
      <trkpt lat="44.82117" lon="5.85444">
        <ele>937.476317</ele>
        <time>2025-07-10T10:03:10.000Z</time>
      </trkpt>
      <trkpt lat="44.82119" lon="5.85436">
        <ele>937.3407</ele>
        <time>2025-07-10T10:03:11.000Z</time>
      </trkpt>
      <trkpt lat="44.82122" lon="5.85428">
        <ele>937.210167</ele>
        <time>2025-07-10T10:03:12.000Z</time>
      </trkpt>
      <trkpt lat="44.82126" lon="5.8542">
        <ele>937.069897</ele>
        <time>2025-07-10T10:03:13.000Z</time>
      </trkpt>
      <trkpt lat="44.82131" lon="5.85412">
        <ele>936.921936</ele>
        <time>2025-07-10T10:03:14.000Z</time>
      </trkpt>
      <trkpt lat="44.82136" lon="5.85406">
        <ele>936.779693</ele>
        <time>2025-07-10T10:03:15.000Z</time>
      </trkpt>
      <trkpt lat="44.82141" lon="5.85401">
        <ele>936.649481</ele>
        <time>2025-07-10T10:03:16.000Z</time>
      </trkpt>
      <trkpt lat="44.82147" lon="5.85396">
        <ele>936.510754</ele>
        <time>2025-07-10T10:03:17.000Z</time>
      </trkpt>
      <trkpt lat="44.82152" lon="5.85391">
        <ele>936.374399</ele>
        <time>2025-07-10T10:03:18.000Z</time>
      </trkpt>
      <trkpt lat="44.82157" lon="5.85385">
        <ele>936.249617</ele>
        <time>2025-07-10T10:03:19.000Z</time>
      </trkpt>
      <trkpt lat="44.82162" lon="5.85379">
        <ele>936.107383</ele>
        <time>2025-07-10T10:03:20.000Z</time>
      </trkpt>
      <trkpt lat="44.82166" lon="5.85372">
        <ele>935.981575</ele>
        <time>2025-07-10T10:03:21.000Z</time>
      </trkpt>
      <trkpt lat="44.82172" lon="5.85367">
        <ele>935.842771</ele>
        <time>2025-07-10T10:03:22.000Z</time>
      </trkpt>
      <trkpt lat="44.82177" lon="5.85361">
        <ele>935.711693</ele>
        <time>2025-07-10T10:03:23.000Z</time>
      </trkpt>
      <trkpt lat="44.82182" lon="5.85356">
        <ele>935.585688</ele>
        <time>2025-07-10T10:03:24.000Z</time>
      </trkpt>
      <trkpt lat="44.82187" lon="5.85351">
        <ele>935.452075</ele>
        <time>2025-07-10T10:03:25.000Z</time>
      </trkpt>
      <trkpt lat="44.82192" lon="5.85345">
        <ele>935.31679</ele>
        <time>2025-07-10T10:03:26.000Z</time>
      </trkpt>
      <trkpt lat="44.82197" lon="5.8534">
        <ele>935.192952</ele>
        <time>2025-07-10T10:03:27.000Z</time>
      </trkpt>
      <trkpt lat="44.82202" lon="5.85335">
        <ele>935.060999</ele>
        <time>2025-07-10T10:03:28.000Z</time>
      </trkpt>
      <trkpt lat="44.82207" lon="5.8533">
        <ele>934.932485</ele>
        <time>2025-07-10T10:03:29.000Z</time>
      </trkpt>
      <trkpt lat="44.82212" lon="5.85325">
        <ele>934.799731</ele>
        <time>2025-07-10T10:03:30.000Z</time>
      </trkpt>
      <trkpt lat="44.82217" lon="5.8532">
        <ele>934.687697</ele>
        <time>2025-07-10T10:03:31.000Z</time>
      </trkpt>
      <trkpt lat="44.82221" lon="5.85314">
        <ele>934.668618</ele>
        <time>2025-07-10T10:03:32.000Z</time>
      </trkpt>
      <trkpt lat="44.82225" lon="5.85308">
        <ele>934.64955</ele>
        <time>2025-07-10T10:03:33.000Z</time>
      </trkpt>
      <trkpt lat="44.82228" lon="5.85302">
        <ele>934.630304</ele>
        <time>2025-07-10T10:03:34.000Z</time>
      </trkpt>
      <trkpt lat="44.82232" lon="5.85296">
        <ele>934.611519</ele>
        <time>2025-07-10T10:03:35.000Z</time>
      </trkpt>
      <trkpt lat="44.82235" lon="5.8529">
        <ele>934.593128</ele>
        <time>2025-07-10T10:03:36.000Z</time>
      </trkpt>
      <trkpt lat="44.82239" lon="5.85283">
        <ele>934.574753</ele>
        <time>2025-07-10T10:03:37.000Z</time>
      </trkpt>
      <trkpt lat="44.82242" lon="5.85277">
        <ele>934.555789</ele>
        <time>2025-07-10T10:03:38.000Z</time>
      </trkpt>
      <trkpt lat="44.82245" lon="5.8527">
        <ele>934.536627</ele>
        <time>2025-07-10T10:03:39.000Z</time>
      </trkpt>
      <trkpt lat="44.82248" lon="5.85263">
        <ele>934.516832</ele>
        <time>2025-07-10T10:03:40.000Z</time>
      </trkpt>
      <trkpt lat="44.82251" lon="5.85256">
        <ele>934.49741</ele>
        <time>2025-07-10T10:03:41.000Z</time>
      </trkpt>
      <trkpt lat="44.82254" lon="5.85248">
        <ele>934.477987</ele>
        <time>2025-07-10T10:03:42.000Z</time>
      </trkpt>
      <trkpt lat="44.82256" lon="5.85241">
        <ele>934.458471</ele>
        <time>2025-07-10T10:03:43.000Z</time>
      </trkpt>
      <trkpt lat="44.82259" lon="5.85234">
        <ele>934.438429</ele>
        <time>2025-07-10T10:03:44.000Z</time>
      </trkpt>
      <trkpt lat="44.82262" lon="5.85226">
        <ele>934.418259</ele>
        <time>2025-07-10T10:03:45.000Z</time>
      </trkpt>
      <trkpt lat="44.82265" lon="5.85219">
        <ele>934.398464</ele>
        <time>2025-07-10T10:03:46.000Z</time>
      </trkpt>
      <trkpt lat="44.82268" lon="5.85211">
        <ele>934.377741</ele>
        <time>2025-07-10T10:03:47.000Z</time>
      </trkpt>
      <trkpt lat="44.82271" lon="5.85203">
        <ele>934.356931</ele>
        <time>2025-07-10T10:03:48.000Z</time>
      </trkpt>
      <trkpt lat="44.82273" lon="5.85196">
        <ele>934.337049</ele>
        <time>2025-07-10T10:03:49.000Z</time>
      </trkpt>
      <trkpt lat="44.82276" lon="5.85189">
        <ele>934.317584</ele>
        <time>2025-07-10T10:03:50.000Z</time>
      </trkpt>
      <trkpt lat="44.82279" lon="5.85181">
        <ele>934.298007</ele>
        <time>2025-07-10T10:03:51.000Z</time>
      </trkpt>
      <trkpt lat="44.82281" lon="5.85174">
        <ele>934.278005</ele>
        <time>2025-07-10T10:03:52.000Z</time>
      </trkpt>
      <trkpt lat="44.82284" lon="5.85166">
        <ele>934.258123</ele>
        <time>2025-07-10T10:03:53.000Z</time>
      </trkpt>
      <trkpt lat="44.82287" lon="5.8516">
        <ele>934.238591</ele>
        <time>2025-07-10T10:03:54.000Z</time>
      </trkpt>
      <trkpt lat="44.82291" lon="5.85153">
        <ele>934.219345</ele>
        <time>2025-07-10T10:03:55.000Z</time>
      </trkpt>
      <trkpt lat="44.82295" lon="5.85148">
        <ele>934.200187</ele>
        <time>2025-07-10T10:03:56.000Z</time>
      </trkpt>
      <trkpt lat="44.823" lon="5.85143">
        <ele>934.182675</ele>
        <time>2025-07-10T10:03:57.000Z</time>
      </trkpt>
      <trkpt lat="44.82304" lon="5.85139">
        <ele>934.165587</ele>
        <time>2025-07-10T10:03:58.000Z</time>
      </trkpt>
      <trkpt lat="44.82308" lon="5.85136">
        <ele>934.149631</ele>
        <time>2025-07-10T10:03:59.000Z</time>
      </trkpt>
      <trkpt lat="44.82312" lon="5.85134">
        <ele>934.13497</ele>
        <time>2025-07-10T10:04:00.000Z</time>
      </trkpt>
      <trkpt lat="44.82316" lon="5.85132">
        <ele>934.121395</ele>
        <time>2025-07-10T10:04:01.000Z</time>
      </trkpt>
      <trkpt lat="44.8232" lon="5.85132">
        <ele>934.108306</ele>
        <time>2025-07-10T10:04:02.000Z</time>
      </trkpt>
      <trkpt lat="44.82323" lon="5.85132">
        <ele>934.096587</ele>
        <time>2025-07-10T10:04:03.000Z</time>
      </trkpt>
      <trkpt lat="44.82327" lon="5.85132">
        <ele>934.094913</ele>
        <time>2025-07-10T10:04:04.000Z</time>
      </trkpt>
      <trkpt lat="44.8233" lon="5.85132">
        <ele>934.120474</ele>
        <time>2025-07-10T10:04:05.000Z</time>
      </trkpt>
      <trkpt lat="44.82332" lon="5.85132">
        <ele>934.145177</ele>
        <time>2025-07-10T10:04:06.000Z</time>
      </trkpt>
      <trkpt lat="44.82335" lon="5.85132">
        <ele>934.168976</ele>
        <time>2025-07-10T10:04:07.000Z</time>
      </trkpt>
      <trkpt lat="44.82338" lon="5.85132">
        <ele>934.191886</ele>
        <time>2025-07-10T10:04:08.000Z</time>
      </trkpt>
      <trkpt lat="44.82341" lon="5.85132">
        <ele>934.217447</ele>
        <time>2025-07-10T10:04:09.000Z</time>
      </trkpt>
      <trkpt lat="44.82344" lon="5.85132">
        <ele>934.24391</ele>
        <time>2025-07-10T10:04:10.000Z</time>
      </trkpt>
      <trkpt lat="44.82347" lon="5.85132">
        <ele>934.270352</ele>
        <time>2025-07-10T10:04:11.000Z</time>
      </trkpt>
      <trkpt lat="44.8235" lon="5.85132">
        <ele>934.296793</ele>
        <time>2025-07-10T10:04:12.000Z</time>
      </trkpt>
      <trkpt lat="44.82352" lon="5.85133">
        <ele>934.31978</ele>
        <time>2025-07-10T10:04:13.000Z</time>
      </trkpt>
      <trkpt lat="44.82355" lon="5.85132">
        <ele>934.344523</ele>
        <time>2025-07-10T10:04:14.000Z</time>
      </trkpt>
      <trkpt lat="44.82358" lon="5.85131">
        <ele>934.370134</ele>
        <time>2025-07-10T10:04:15.000Z</time>
      </trkpt>
      <trkpt lat="44.82361" lon="5.8513">
        <ele>934.396312</ele>
        <time>2025-07-10T10:04:16.000Z</time>
      </trkpt>
      <trkpt lat="44.82363" lon="5.85128">
        <ele>934.422705</ele>
        <time>2025-07-10T10:04:17.000Z</time>
      </trkpt>
      <trkpt lat="44.82366" lon="5.85127">
        <ele>934.448511</ele>
        <time>2025-07-10T10:04:18.000Z</time>
      </trkpt>
      <trkpt lat="44.82369" lon="5.85125">
        <ele>934.474316</ele>
        <time>2025-07-10T10:04:19.000Z</time>
      </trkpt>
      <trkpt lat="44.82371" lon="5.85123">
        <ele>934.501034</ele>
        <time>2025-07-10T10:04:20.000Z</time>
      </trkpt>
      <trkpt lat="44.82374" lon="5.8512">
        <ele>934.526961</ele>
        <time>2025-07-10T10:04:21.000Z</time>
      </trkpt>
      <trkpt lat="44.82376" lon="5.85118">
        <ele>934.552174</ele>
        <time>2025-07-10T10:04:22.000Z</time>
      </trkpt>
      <trkpt lat="44.82379" lon="5.85116">
        <ele>934.578478</ele>
        <time>2025-07-10T10:04:23.000Z</time>
      </trkpt>
      <trkpt lat="44.82381" lon="5.85113">
        <ele>934.604771</ele>
        <time>2025-07-10T10:04:24.000Z</time>
      </trkpt>
      <trkpt lat="44.82383" lon="5.8511">
        <ele>934.631546</ele>
        <time>2025-07-10T10:04:25.000Z</time>
      </trkpt>
      <trkpt lat="44.82385" lon="5.85108">
        <ele>934.657662</ele>
        <time>2025-07-10T10:04:26.000Z</time>
      </trkpt>
      <trkpt lat="44.82388" lon="5.85105">
        <ele>934.684437</ele>
        <time>2025-07-10T10:04:27.000Z</time>
      </trkpt>
      <trkpt lat="44.8239" lon="5.85102">
        <ele>934.71078</ele>
        <time>2025-07-10T10:04:28.000Z</time>
      </trkpt>
      <trkpt lat="44.82392" lon="5.85099">
        <ele>934.737748</ele>
        <time>2025-07-10T10:04:29.000Z</time>
      </trkpt>
      <trkpt lat="44.82394" lon="5.85096">
        <ele>934.764937</ele>
        <time>2025-07-10T10:04:30.000Z</time>
      </trkpt>
      <trkpt lat="44.82397" lon="5.85093">
        <ele>934.792788</ele>
        <time>2025-07-10T10:04:31.000Z</time>
      </trkpt>
      <trkpt lat="44.82399" lon="5.8509">
        <ele>934.819757</ele>
        <time>2025-07-10T10:04:32.000Z</time>
      </trkpt>
      <trkpt lat="44.82401" lon="5.85087">
        <ele>934.847365</ele>
        <time>2025-07-10T10:04:33.000Z</time>
      </trkpt>
      <trkpt lat="44.82403" lon="5.85084">
        <ele>934.874772</ele>
        <time>2025-07-10T10:04:34.000Z</time>
      </trkpt>
      <trkpt lat="44.82406" lon="5.85081">
        <ele>934.90248</ele>
        <time>2025-07-10T10:04:35.000Z</time>
      </trkpt>
      <trkpt lat="44.82407" lon="5.85077">
        <ele>934.930525</ele>
        <time>2025-07-10T10:04:36.000Z</time>
      </trkpt>
      <trkpt lat="44.82409" lon="5.85073">
        <ele>934.959073</ele>
        <time>2025-07-10T10:04:37.000Z</time>
      </trkpt>
      <trkpt lat="44.82412" lon="5.8507">
        <ele>934.988771</ele>
        <time>2025-07-10T10:04:38.000Z</time>
      </trkpt>
      <trkpt lat="44.82414" lon="5.85066">
        <ele>935.018387</ele>
        <time>2025-07-10T10:04:39.000Z</time>
      </trkpt>
      <trkpt lat="44.82416" lon="5.85062">
        <ele>935.048003</ele>
        <time>2025-07-10T10:04:40.000Z</time>
      </trkpt>
      <trkpt lat="44.82418" lon="5.85058">
        <ele>935.079102</ele>
        <time>2025-07-10T10:04:41.000Z</time>
      </trkpt>
      <trkpt lat="44.8242" lon="5.85054">
        <ele>935.109758</ele>
        <time>2025-07-10T10:04:42.000Z</time>
      </trkpt>
      <trkpt lat="44.82422" lon="5.8505">
        <ele>935.142027</ele>
        <time>2025-07-10T10:04:43.000Z</time>
      </trkpt>
      <trkpt lat="44.82425" lon="5.85046">
        <ele>935.176775</ele>
        <time>2025-07-10T10:04:44.000Z</time>
      </trkpt>
      <trkpt lat="44.82427" lon="5.85041">
        <ele>935.214521</ele>
        <time>2025-07-10T10:04:45.000Z</time>
      </trkpt>
      <trkpt lat="44.8243" lon="5.85037">
        <ele>935.251837</ele>
        <time>2025-07-10T10:04:46.000Z</time>
      </trkpt>
      <trkpt lat="44.82433" lon="5.85032">
        <ele>935.289088</ele>
        <time>2025-07-10T10:04:47.000Z</time>
      </trkpt>
      <trkpt lat="44.82435" lon="5.85027">
        <ele>935.327866</ele>
        <time>2025-07-10T10:04:48.000Z</time>
      </trkpt>
      <trkpt lat="44.82438" lon="5.85022">
        <ele>935.366645</ele>
        <time>2025-07-10T10:04:49.000Z</time>
      </trkpt>
      <trkpt lat="44.82441" lon="5.85017">
        <ele>935.407216</ele>
        <time>2025-07-10T10:04:50.000Z</time>
      </trkpt>
      <trkpt lat="44.82445" lon="5.85013">
        <ele>935.450057</ele>
        <time>2025-07-10T10:04:51.000Z</time>
      </trkpt>
      <trkpt lat="44.82448" lon="5.85008">
        <ele>935.494584</ele>
        <time>2025-07-10T10:04:52.000Z</time>
      </trkpt>
      <trkpt lat="44.82452" lon="5.85002">
        <ele>935.537728</ele>
        <time>2025-07-10T10:04:53.000Z</time>
      </trkpt>
      <trkpt lat="44.82455" lon="5.84997">
        <ele>935.582855</ele>
        <time>2025-07-10T10:04:54.000Z</time>
      </trkpt>
      <trkpt lat="44.82458" lon="5.84991">
        <ele>935.627798</ele>
        <time>2025-07-10T10:04:55.000Z</time>
      </trkpt>
      <trkpt lat="44.82461" lon="5.84986">
        <ele>935.672158</ele>
        <time>2025-07-10T10:04:56.000Z</time>
      </trkpt>
      <trkpt lat="44.82464" lon="5.8498">
        <ele>935.452209</ele>
        <time>2025-07-10T10:04:57.000Z</time>
      </trkpt>
      <trkpt lat="44.82468" lon="5.84975">
        <ele>935.229025</ele>
        <time>2025-07-10T10:04:58.000Z</time>
      </trkpt>
      <trkpt lat="44.82471" lon="5.84969">
        <ele>934.992378</ele>
        <time>2025-07-10T10:04:59.000Z</time>
      </trkpt>
      <trkpt lat="44.82475" lon="5.84963">
        <ele>934.751544</ele>
        <time>2025-07-10T10:05:00.000Z</time>
      </trkpt>
      <trkpt lat="44.82478" lon="5.84957">
        <ele>934.493017</ele>
        <time>2025-07-10T10:05:01.000Z</time>
      </trkpt>
      <trkpt lat="44.82482" lon="5.8495">
        <ele>934.227143</ele>
        <time>2025-07-10T10:05:02.000Z</time>
      </trkpt>
      <trkpt lat="44.82486" lon="5.84943">
        <ele>933.952933</ele>
        <time>2025-07-10T10:05:03.000Z</time>
      </trkpt>
      <trkpt lat="44.8249" lon="5.84937">
        <ele>933.672327</ele>
        <time>2025-07-10T10:05:04.000Z</time>
      </trkpt>
      <trkpt lat="44.82495" lon="5.8493">
        <ele>933.378831</ele>
        <time>2025-07-10T10:05:05.000Z</time>
      </trkpt>
      <trkpt lat="44.82499" lon="5.84923">
        <ele>933.075997</ele>
        <time>2025-07-10T10:05:06.000Z</time>
      </trkpt>
      <trkpt lat="44.82504" lon="5.84915">
        <ele>932.763164</ele>
        <time>2025-07-10T10:05:07.000Z</time>
      </trkpt>
      <trkpt lat="44.82509" lon="5.84907">
        <ele>932.442184</ele>
        <time>2025-07-10T10:05:08.000Z</time>
      </trkpt>
      <trkpt lat="44.82514" lon="5.849">
        <ele>932.112312</ele>
        <time>2025-07-10T10:05:09.000Z</time>
      </trkpt>
      <trkpt lat="44.82519" lon="5.84892">
        <ele>931.777835</ele>
        <time>2025-07-10T10:05:10.000Z</time>
      </trkpt>
      <trkpt lat="44.82524" lon="5.84883">
        <ele>931.431087</ele>
        <time>2025-07-10T10:05:11.000Z</time>
      </trkpt>
      <trkpt lat="44.82529" lon="5.84875">
        <ele>931.074855</ele>
        <time>2025-07-10T10:05:12.000Z</time>
      </trkpt>
      <trkpt lat="44.82535" lon="5.84866">
        <ele>930.71139</ele>
        <time>2025-07-10T10:05:13.000Z</time>
      </trkpt>
      <trkpt lat="44.8254" lon="5.84856">
        <ele>930.337846</ele>
        <time>2025-07-10T10:05:14.000Z</time>
      </trkpt>
      <trkpt lat="44.82545" lon="5.84847">
        <ele>929.95871</ele>
        <time>2025-07-10T10:05:15.000Z</time>
      </trkpt>
      <trkpt lat="44.82551" lon="5.84838">
        <ele>929.571937</ele>
        <time>2025-07-10T10:05:16.000Z</time>
      </trkpt>
      <trkpt lat="44.82556" lon="5.84827">
        <ele>929.181164</ele>
        <time>2025-07-10T10:05:17.000Z</time>
      </trkpt>
      <trkpt lat="44.82561" lon="5.84817">
        <ele>928.790392</ele>
        <time>2025-07-10T10:05:18.000Z</time>
      </trkpt>
      <trkpt lat="44.82566" lon="5.84807">
        <ele>928.399589</ele>
        <time>2025-07-10T10:05:19.000Z</time>
      </trkpt>
      <trkpt lat="44.82571" lon="5.84796">
        <ele>928.002854</ele>
        <time>2025-07-10T10:05:20.000Z</time>
      </trkpt>
      <trkpt lat="44.82575" lon="5.84785">
        <ele>927.591806</ele>
        <time>2025-07-10T10:05:21.000Z</time>
      </trkpt>
      <trkpt lat="44.82579" lon="5.84774">
        <ele>927.147066</ele>
        <time>2025-07-10T10:05:22.000Z</time>
      </trkpt>
      <trkpt lat="44.82583" lon="5.84762">
        <ele>926.701006</ele>
        <time>2025-07-10T10:05:23.000Z</time>
      </trkpt>
      <trkpt lat="44.82586" lon="5.84751">
        <ele>926.262702</ele>
        <time>2025-07-10T10:05:24.000Z</time>
      </trkpt>
      <trkpt lat="44.8259" lon="5.8474">
        <ele>925.824351</ele>
        <time>2025-07-10T10:05:25.000Z</time>
      </trkpt>
      <trkpt lat="44.82594" lon="5.8473">
        <ele>925.392174</ele>
        <time>2025-07-10T10:05:26.000Z</time>
      </trkpt>
      <trkpt lat="44.82599" lon="5.8472">
        <ele>924.976378</ele>
        <time>2025-07-10T10:05:27.000Z</time>
      </trkpt>
      <trkpt lat="44.82604" lon="5.84711">
        <ele>924.559412</ele>
        <time>2025-07-10T10:05:28.000Z</time>
      </trkpt>
      <trkpt lat="44.8261" lon="5.84703">
        <ele>924.131952</ele>
        <time>2025-07-10T10:05:29.000Z</time>
      </trkpt>
      <trkpt lat="44.82616" lon="5.84694">
        <ele>923.712003</ele>
        <time>2025-07-10T10:05:30.000Z</time>
      </trkpt>
      <trkpt lat="44.82622" lon="5.84687">
        <ele>923.299426</ele>
        <time>2025-07-10T10:05:31.000Z</time>
      </trkpt>
      <trkpt lat="44.82629" lon="5.84679">
        <ele>922.887951</ele>
        <time>2025-07-10T10:05:32.000Z</time>
      </trkpt>
      <trkpt lat="44.82635" lon="5.84672">
        <ele>922.478131</ele>
        <time>2025-07-10T10:05:33.000Z</time>
      </trkpt>
      <trkpt lat="44.82641" lon="5.84665">
        <ele>922.067075</ele>
        <time>2025-07-10T10:05:34.000Z</time>
      </trkpt>
      <trkpt lat="44.82648" lon="5.84657">
        <ele>921.655593</ele>
        <time>2025-07-10T10:05:35.000Z</time>
      </trkpt>
      <trkpt lat="44.82654" lon="5.8465">
        <ele>921.250263</ele>
        <time>2025-07-10T10:05:36.000Z</time>
      </trkpt>
      <trkpt lat="44.82661" lon="5.84643">
        <ele>920.828687</ele>
        <time>2025-07-10T10:05:37.000Z</time>
      </trkpt>
      <trkpt lat="44.82667" lon="5.84636">
        <ele>920.413265</ele>
        <time>2025-07-10T10:05:38.000Z</time>
      </trkpt>
      <trkpt lat="44.82674" lon="5.84629">
        <ele>919.993881</ele>
        <time>2025-07-10T10:05:39.000Z</time>
      </trkpt>
      <trkpt lat="44.8268" lon="5.84621">
        <ele>919.567868</ele>
        <time>2025-07-10T10:05:40.000Z</time>
      </trkpt>
      <trkpt lat="44.82687" lon="5.84613">
        <ele>919.143079</ele>
        <time>2025-07-10T10:05:41.000Z</time>
      </trkpt>
      <trkpt lat="44.82693" lon="5.84604">
        <ele>918.713088</ele>
        <time>2025-07-10T10:05:42.000Z</time>
      </trkpt>
      <trkpt lat="44.82698" lon="5.84595">
        <ele>918.28562</ele>
        <time>2025-07-10T10:05:43.000Z</time>
      </trkpt>
      <trkpt lat="44.82704" lon="5.84586">
        <ele>917.854495</ele>
        <time>2025-07-10T10:05:44.000Z</time>
      </trkpt>
      <trkpt lat="44.82709" lon="5.84576">
        <ele>917.418561</ele>
        <time>2025-07-10T10:05:45.000Z</time>
      </trkpt>
      <trkpt lat="44.82715" lon="5.84565">
        <ele>916.982868</ele>
        <time>2025-07-10T10:05:46.000Z</time>
      </trkpt>
      <trkpt lat="44.8272" lon="5.84555">
        <ele>916.552788</ele>
        <time>2025-07-10T10:05:47.000Z</time>
      </trkpt>
      <trkpt lat="44.82725" lon="5.84545">
        <ele>916.125502</ele>
        <time>2025-07-10T10:05:48.000Z</time>
      </trkpt>
      <trkpt lat="44.8273" lon="5.84535">
        <ele>915.692646</ele>
        <time>2025-07-10T10:05:49.000Z</time>
      </trkpt>
      <trkpt lat="44.82735" lon="5.84525">
        <ele>915.256113</ele>
        <time>2025-07-10T10:05:50.000Z</time>
      </trkpt>
      <trkpt lat="44.82738" lon="5.84513">
        <ele>914.814961</ele>
        <time>2025-07-10T10:05:51.000Z</time>
      </trkpt>
      <trkpt lat="44.82741" lon="5.84501">
        <ele>914.371173</ele>
        <time>2025-07-10T10:05:52.000Z</time>
      </trkpt>
      <trkpt lat="44.82742" lon="5.84488">
        <ele>913.923355</ele>
        <time>2025-07-10T10:05:53.000Z</time>
      </trkpt>
      <trkpt lat="44.82742" lon="5.84475">
        <ele>913.482758</ele>
        <time>2025-07-10T10:05:54.000Z</time>
      </trkpt>
      <trkpt lat="44.82742" lon="5.84463">
        <ele>913.051314</ele>
        <time>2025-07-10T10:05:55.000Z</time>
      </trkpt>
      <trkpt lat="44.8274" lon="5.8445">
        <ele>912.615815</ele>
        <time>2025-07-10T10:05:56.000Z</time>
      </trkpt>
      <trkpt lat="44.82739" lon="5.84438">
        <ele>912.170958</ele>
        <time>2025-07-10T10:05:57.000Z</time>
      </trkpt>
      <trkpt lat="44.82737" lon="5.84425">
        <ele>911.724403</ele>
        <time>2025-07-10T10:05:58.000Z</time>
      </trkpt>
      <trkpt lat="44.82735" lon="5.84413">
        <ele>911.283846</ele>
        <time>2025-07-10T10:05:59.000Z</time>
      </trkpt>
      <trkpt lat="44.82734" lon="5.844">
        <ele>910.846703</ele>
        <time>2025-07-10T10:06:00.000Z</time>
      </trkpt>
      <trkpt lat="44.82732" lon="5.84388">
        <ele>910.403568</ele>
        <time>2025-07-10T10:06:01.000Z</time>
      </trkpt>
      <trkpt lat="44.82731" lon="5.84375">
        <ele>909.95779</ele>
        <time>2025-07-10T10:06:02.000Z</time>
      </trkpt>
      <trkpt lat="44.82729" lon="5.84362">
        <ele>909.516387</ele>
        <time>2025-07-10T10:06:03.000Z</time>
      </trkpt>
      <trkpt lat="44.82728" lon="5.8435">
        <ele>909.071123</ele>
        <time>2025-07-10T10:06:04.000Z</time>
      </trkpt>
      <trkpt lat="44.82726" lon="5.84337">
        <ele>908.620583</ele>
        <time>2025-07-10T10:06:05.000Z</time>
      </trkpt>
      <trkpt lat="44.82724" lon="5.84324">
        <ele>908.163484</ele>
        <time>2025-07-10T10:06:06.000Z</time>
      </trkpt>
      <trkpt lat="44.82721" lon="5.84311">
        <ele>907.700544</ele>
        <time>2025-07-10T10:06:07.000Z</time>
      </trkpt>
      <trkpt lat="44.82717" lon="5.84299">
        <ele>907.248481</ele>
        <time>2025-07-10T10:06:08.000Z</time>
      </trkpt>
      <trkpt lat="44.82713" lon="5.84287">
        <ele>906.789936</ele>
        <time>2025-07-10T10:06:09.000Z</time>
      </trkpt>
      <trkpt lat="44.82708" lon="5.84276">
        <ele>906.325216</ele>
        <time>2025-07-10T10:06:10.000Z</time>
      </trkpt>
      <trkpt lat="44.82703" lon="5.84264">
        <ele>905.846896</ele>
        <time>2025-07-10T10:06:11.000Z</time>
      </trkpt>
      <trkpt lat="44.82699" lon="5.84251">
        <ele>905.358941</ele>
        <time>2025-07-10T10:06:12.000Z</time>
      </trkpt>
      <trkpt lat="44.82695" lon="5.84237">
        <ele>904.862136</ele>
        <time>2025-07-10T10:06:13.000Z</time>
      </trkpt>
      <trkpt lat="44.82693" lon="5.84223">
        <ele>904.371471</ele>
        <time>2025-07-10T10:06:14.000Z</time>
      </trkpt>
      <trkpt lat="44.82691" lon="5.84209">
        <ele>903.878726</ele>
        <time>2025-07-10T10:06:15.000Z</time>
      </trkpt>
      <trkpt lat="44.8269" lon="5.84195">
        <ele>903.384124</ele>
        <time>2025-07-10T10:06:16.000Z</time>
      </trkpt>
      <trkpt lat="44.82691" lon="5.84182">
        <ele>902.923829</ele>
        <time>2025-07-10T10:06:17.000Z</time>
      </trkpt>
      <trkpt lat="44.82694" lon="5.84169">
        <ele>902.475039</ele>
        <time>2025-07-10T10:06:18.000Z</time>
      </trkpt>
      <trkpt lat="44.82698" lon="5.84158">
        <ele>902.047668</ele>
        <time>2025-07-10T10:06:19.000Z</time>
      </trkpt>
      <trkpt lat="44.82703" lon="5.84148">
        <ele>901.63735</ele>
        <time>2025-07-10T10:06:20.000Z</time>
      </trkpt>
      <trkpt lat="44.82708" lon="5.84139">
        <ele>901.246456</ele>
        <time>2025-07-10T10:06:21.000Z</time>
      </trkpt>
      <trkpt lat="44.82713" lon="5.84131">
        <ele>901.162895</ele>
        <time>2025-07-10T10:06:22.000Z</time>
      </trkpt>
      <trkpt lat="44.82717" lon="5.84123">
        <ele>901.166326</ele>
        <time>2025-07-10T10:06:23.000Z</time>
      </trkpt>
      <trkpt lat="44.82721" lon="5.84115">
        <ele>901.169522</ele>
        <time>2025-07-10T10:06:24.000Z</time>
      </trkpt>
      <trkpt lat="44.82725" lon="5.84108">
        <ele>901.172474</ele>
        <time>2025-07-10T10:06:25.000Z</time>
      </trkpt>
      <trkpt lat="44.82729" lon="5.84101">
        <ele>901.175262</ele>
        <time>2025-07-10T10:06:26.000Z</time>
      </trkpt>
      <trkpt lat="44.82732" lon="5.84095">
        <ele>901.177783</ele>
        <time>2025-07-10T10:06:27.000Z</time>
      </trkpt>
      <trkpt lat="44.82735" lon="5.84089">
        <ele>901.180225</ele>
        <time>2025-07-10T10:06:28.000Z</time>
      </trkpt>
      <trkpt lat="44.82738" lon="5.84084">
        <ele>901.182428</ele>
        <time>2025-07-10T10:06:29.000Z</time>
      </trkpt>
      <trkpt lat="44.82741" lon="5.84079">
        <ele>901.184531</ele>
        <time>2025-07-10T10:06:30.000Z</time>
      </trkpt>
      <trkpt lat="44.82744" lon="5.84074">
        <ele>901.186464</ele>
        <time>2025-07-10T10:06:31.000Z</time>
      </trkpt>
      <trkpt lat="44.82746" lon="5.84069">
        <ele>901.188395</ele>
        <time>2025-07-10T10:06:32.000Z</time>
      </trkpt>
      <trkpt lat="44.82748" lon="5.84065">
        <ele>901.190246</ele>
        <time>2025-07-10T10:06:33.000Z</time>
      </trkpt>
      <trkpt lat="44.8275" lon="5.8406">
        <ele>901.192016</ele>
        <time>2025-07-10T10:06:34.000Z</time>
      </trkpt>
      <trkpt lat="44.82752" lon="5.84056">
        <ele>901.193681</ele>
        <time>2025-07-10T10:06:35.000Z</time>
      </trkpt>
      <trkpt lat="44.82754" lon="5.84052">
        <ele>901.195344</ele>
        <time>2025-07-10T10:06:36.000Z</time>
      </trkpt>
      <trkpt lat="44.82756" lon="5.84048">
        <ele>901.196979</ele>
        <time>2025-07-10T10:06:37.000Z</time>
      </trkpt>
      <trkpt lat="44.82758" lon="5.84044">
        <ele>901.198561</ele>
        <time>2025-07-10T10:06:38.000Z</time>
      </trkpt>
      <trkpt lat="44.8276" lon="5.8404">
        <ele>901.200144</ele>
        <time>2025-07-10T10:06:39.000Z</time>
      </trkpt>
      <trkpt lat="44.82762" lon="5.84036">
        <ele>901.201753</ele>
        <time>2025-07-10T10:06:40.000Z</time>
      </trkpt>
      <trkpt lat="44.82764" lon="5.84032">
        <ele>901.203283</ele>
        <time>2025-07-10T10:06:41.000Z</time>
      </trkpt>
      <trkpt lat="44.82766" lon="5.84028">
        <ele>901.204731</ele>
        <time>2025-07-10T10:06:42.000Z</time>
      </trkpt>
      <trkpt lat="44.82768" lon="5.84025">
        <ele>901.206237</ele>
        <time>2025-07-10T10:06:43.000Z</time>
      </trkpt>
      <trkpt lat="44.8277" lon="5.84021">
        <ele>901.207712</ele>
        <time>2025-07-10T10:06:44.000Z</time>
      </trkpt>
      <trkpt lat="44.82771" lon="5.84017">
        <ele>901.209325</ele>
        <time>2025-07-10T10:06:45.000Z</time>
      </trkpt>
      <trkpt lat="44.82773" lon="5.84013">
        <ele>901.211015</ele>
        <time>2025-07-10T10:06:46.000Z</time>
      </trkpt>
      <trkpt lat="44.82775" lon="5.84008">
        <ele>901.212733</ele>
        <time>2025-07-10T10:06:47.000Z</time>
      </trkpt>
      <trkpt lat="44.82778" lon="5.84004">
        <ele>901.214557</ele>
        <time>2025-07-10T10:06:48.000Z</time>
      </trkpt>
      <trkpt lat="44.8278" lon="5.83999">
        <ele>901.216488</ele>
        <time>2025-07-10T10:06:49.000Z</time>
      </trkpt>
      <trkpt lat="44.82783" lon="5.83994">
        <ele>901.218501</ele>
        <time>2025-07-10T10:06:50.000Z</time>
      </trkpt>
      <trkpt lat="44.82786" lon="5.83989">
        <ele>901.220595</ele>
        <time>2025-07-10T10:06:51.000Z</time>
      </trkpt>
      <trkpt lat="44.82788" lon="5.83984">
        <ele>901.222794</ele>
        <time>2025-07-10T10:06:52.000Z</time>
      </trkpt>
      <trkpt lat="44.82791" lon="5.83978">
        <ele>901.225103</ele>
        <time>2025-07-10T10:06:53.000Z</time>
      </trkpt>
      <trkpt lat="44.82795" lon="5.83973">
        <ele>901.227471</ele>
        <time>2025-07-10T10:06:54.000Z</time>
      </trkpt>
      <trkpt lat="44.82798" lon="5.83967">
        <ele>901.229999</ele>
        <time>2025-07-10T10:06:55.000Z</time>
      </trkpt>
      <trkpt lat="44.82802" lon="5.8396">
        <ele>901.232601</ele>
        <time>2025-07-10T10:06:56.000Z</time>
      </trkpt>
      <trkpt lat="44.82805" lon="5.83954">
        <ele>901.235255</ele>
        <time>2025-07-10T10:06:57.000Z</time>
      </trkpt>
      <trkpt lat="44.82809" lon="5.83947">
        <ele>901.238023</ele>
        <time>2025-07-10T10:06:58.000Z</time>
      </trkpt>
      <trkpt lat="44.82813" lon="5.83941">
        <ele>901.240822</ele>
        <time>2025-07-10T10:06:59.000Z</time>
      </trkpt>
      <trkpt lat="44.82817" lon="5.83934">
        <ele>901.236796</ele>
        <time>2025-07-10T10:07:00.000Z</time>
      </trkpt>
      <trkpt lat="44.82821" lon="5.83928">
        <ele>901.03739</ele>
        <time>2025-07-10T10:07:01.000Z</time>
      </trkpt>
      <trkpt lat="44.82825" lon="5.83921">
        <ele>900.836761</ele>
        <time>2025-07-10T10:07:02.000Z</time>
      </trkpt>
      <trkpt lat="44.8283" lon="5.83915">
        <ele>900.634984</ele>
        <time>2025-07-10T10:07:03.000Z</time>
      </trkpt>
      <trkpt lat="44.82835" lon="5.83909">
        <ele>900.426031</ele>
        <time>2025-07-10T10:07:04.000Z</time>
      </trkpt>
      <trkpt lat="44.8284" lon="5.83903">
        <ele>900.222813</ele>
        <time>2025-07-10T10:07:05.000Z</time>
      </trkpt>
      <trkpt lat="44.82845" lon="5.83898">
        <ele>900.017323</ele>
        <time>2025-07-10T10:07:06.000Z</time>
      </trkpt>
      <trkpt lat="44.8285" lon="5.83894">
        <ele>899.826006</ele>
        <time>2025-07-10T10:07:07.000Z</time>
      </trkpt>
      <trkpt lat="44.82856" lon="5.8389">
        <ele>899.636779</ele>
        <time>2025-07-10T10:07:08.000Z</time>
      </trkpt>
      <trkpt lat="44.82861" lon="5.83887">
        <ele>899.455267</ele>
        <time>2025-07-10T10:07:09.000Z</time>
      </trkpt>
      <trkpt lat="44.82866" lon="5.83883">
        <ele>899.279424</ele>
        <time>2025-07-10T10:07:10.000Z</time>
      </trkpt>
      <trkpt lat="44.8287" lon="5.8388">
        <ele>899.106397</ele>
        <time>2025-07-10T10:07:11.000Z</time>
      </trkpt>
      <trkpt lat="44.82875" lon="5.83876">
        <ele>898.933371</ele>
        <time>2025-07-10T10:07:12.000Z</time>
      </trkpt>
      <trkpt lat="44.8288" lon="5.83872">
        <ele>898.757528</ele>
        <time>2025-07-10T10:07:13.000Z</time>
      </trkpt>
      <trkpt lat="44.82885" lon="5.83869">
        <ele>898.582336</ele>
        <time>2025-07-10T10:07:14.000Z</time>
      </trkpt>
      <trkpt lat="44.8289" lon="5.83865">
        <ele>898.408238</ele>
        <time>2025-07-10T10:07:15.000Z</time>
      </trkpt>
      <trkpt lat="44.82895" lon="5.83861">
        <ele>898.229165</ele>
        <time>2025-07-10T10:07:16.000Z</time>
      </trkpt>
      <trkpt lat="44.829" lon="5.83857">
        <ele>898.044524</ele>
        <time>2025-07-10T10:07:17.000Z</time>
      </trkpt>
      <trkpt lat="44.82905" lon="5.83853">
        <ele>897.858795</ele>
        <time>2025-07-10T10:07:18.000Z</time>
      </trkpt>
      <trkpt lat="44.8291" lon="5.83849">
        <ele>897.670279</ele>
        <time>2025-07-10T10:07:19.000Z</time>
      </trkpt>
      <trkpt lat="44.82915" lon="5.83845">
        <ele>897.476152</ele>
        <time>2025-07-10T10:07:20.000Z</time>
      </trkpt>
      <trkpt lat="44.82921" lon="5.83841">
        <ele>897.276368</ele>
        <time>2025-07-10T10:07:21.000Z</time>
      </trkpt>
      <trkpt lat="44.82926" lon="5.83837">
        <ele>897.077308</ele>
        <time>2025-07-10T10:07:22.000Z</time>
      </trkpt>
      <trkpt lat="44.82932" lon="5.83833">
        <ele>896.873664</ele>
        <time>2025-07-10T10:07:23.000Z</time>
      </trkpt>
      <trkpt lat="44.82938" lon="5.83829">
        <ele>896.66433</ele>
        <time>2025-07-10T10:07:24.000Z</time>
      </trkpt>
      <trkpt lat="44.82944" lon="5.83824">
        <ele>896.447288</ele>
        <time>2025-07-10T10:07:25.000Z</time>
      </trkpt>
      <trkpt lat="44.8295" lon="5.8382">
        <ele>896.230246</ele>
        <time>2025-07-10T10:07:26.000Z</time>
      </trkpt>
      <trkpt lat="44.82957" lon="5.83816">
        <ele>896.007493</ele>
        <time>2025-07-10T10:07:27.000Z</time>
      </trkpt>
      <trkpt lat="44.82963" lon="5.83811">
        <ele>895.783469</ele>
        <time>2025-07-10T10:07:28.000Z</time>
      </trkpt>
      <trkpt lat="44.82969" lon="5.83806">
        <ele>895.560043</ele>
        <time>2025-07-10T10:07:29.000Z</time>
      </trkpt>
      <trkpt lat="44.82975" lon="5.83801">
        <ele>895.2329</ele>
        <time>2025-07-10T10:07:30.000Z</time>
      </trkpt>
      <trkpt lat="44.82981" lon="5.83796">
        <ele>894.889263</ele>
        <time>2025-07-10T10:07:31.000Z</time>
      </trkpt>
      <trkpt lat="44.82987" lon="5.8379">
        <ele>894.544043</ele>
        <time>2025-07-10T10:07:32.000Z</time>
      </trkpt>
      <trkpt lat="44.82992" lon="5.83782">
        <ele>894.193993</ele>
        <time>2025-07-10T10:07:33.000Z</time>
      </trkpt>
      <trkpt lat="44.82996" lon="5.83773">
        <ele>893.835084</ele>
        <time>2025-07-10T10:07:34.000Z</time>
      </trkpt>
      <trkpt lat="44.82999" lon="5.83763">
        <ele>893.466952</ele>
        <time>2025-07-10T10:07:35.000Z</time>
      </trkpt>
      <trkpt lat="44.83001" lon="5.83753">
        <ele>893.091564</ele>
        <time>2025-07-10T10:07:36.000Z</time>
      </trkpt>
      <trkpt lat="44.83002" lon="5.83741">
        <ele>892.705092</ele>
        <time>2025-07-10T10:07:37.000Z</time>
      </trkpt>
      <trkpt lat="44.83001" lon="5.8373">
        <ele>892.308173</ele>
        <time>2025-07-10T10:07:38.000Z</time>
      </trkpt>
      <trkpt lat="44.83" lon="5.83718">
        <ele>891.910451</ele>
        <time>2025-07-10T10:07:39.000Z</time>
      </trkpt>
      <trkpt lat="44.82999" lon="5.83706">
        <ele>891.507747</ele>
        <time>2025-07-10T10:07:40.000Z</time>
      </trkpt>
      <trkpt lat="44.82998" lon="5.83694">
        <ele>891.10954</ele>
        <time>2025-07-10T10:07:41.000Z</time>
      </trkpt>
      <trkpt lat="44.82998" lon="5.83683">
        <ele>890.713625</ele>
        <time>2025-07-10T10:07:42.000Z</time>
      </trkpt>
      <trkpt lat="44.82999" lon="5.83671">
        <ele>890.320317</ele>
        <time>2025-07-10T10:07:43.000Z</time>
      </trkpt>
      <trkpt lat="44.83003" lon="5.8366">
        <ele>889.927393</ele>
        <time>2025-07-10T10:07:44.000Z</time>
      </trkpt>
      <trkpt lat="44.83008" lon="5.83652">
        <ele>889.539821</ele>
        <time>2025-07-10T10:07:45.000Z</time>
      </trkpt>
      <trkpt lat="44.83015" lon="5.83646">
        <ele>889.166548</ele>
        <time>2025-07-10T10:07:46.000Z</time>
      </trkpt>
      <trkpt lat="44.83022" lon="5.83644">
        <ele>888.813878</ele>
        <time>2025-07-10T10:07:47.000Z</time>
      </trkpt>
      <trkpt lat="44.8303" lon="5.83644">
        <ele>888.440983</ele>
        <time>2025-07-10T10:07:48.000Z</time>
      </trkpt>
      <trkpt lat="44.83037" lon="5.83647">
        <ele>888.084641</ele>
        <time>2025-07-10T10:07:49.000Z</time>
      </trkpt>
      <trkpt lat="44.83044" lon="5.83651">
        <ele>887.724661</ele>
        <time>2025-07-10T10:07:50.000Z</time>
      </trkpt>
      <trkpt lat="44.83051" lon="5.83654">
        <ele>887.381359</ele>
        <time>2025-07-10T10:07:51.000Z</time>
      </trkpt>
      <trkpt lat="44.83057" lon="5.83658">
        <ele>887.046924</ele>
        <time>2025-07-10T10:07:52.000Z</time>
      </trkpt>
      <trkpt lat="44.83063" lon="5.83662">
        <ele>886.862681</ele>
        <time>2025-07-10T10:07:53.000Z</time>
      </trkpt>
      <trkpt lat="44.83069" lon="5.83666">
        <ele>886.754333</ele>
        <time>2025-07-10T10:07:54.000Z</time>
      </trkpt>
      <trkpt lat="44.83075" lon="5.83669">
        <ele>886.645871</ele>
        <time>2025-07-10T10:07:55.000Z</time>
      </trkpt>
      <trkpt lat="44.83081" lon="5.83673">
        <ele>886.541543</ele>
        <time>2025-07-10T10:07:56.000Z</time>
      </trkpt>
      <trkpt lat="44.83087" lon="5.83676">
        <ele>886.439698</ele>
        <time>2025-07-10T10:07:57.000Z</time>
      </trkpt>
      <trkpt lat="44.83092" lon="5.83679">
        <ele>886.339205</ele>
        <time>2025-07-10T10:07:58.000Z</time>
      </trkpt>
      <trkpt lat="44.83098" lon="5.83682">
        <ele>886.237155</ele>
        <time>2025-07-10T10:07:59.000Z</time>
      </trkpt>
      <trkpt lat="44.83103" lon="5.83685">
        <ele>886.138649</ele>
        <time>2025-07-10T10:08:00.000Z</time>
      </trkpt>
      <trkpt lat="44.83109" lon="5.83689">
        <ele>886.039709</ele>
        <time>2025-07-10T10:08:01.000Z</time>
      </trkpt>
      <trkpt lat="44.83114" lon="5.83692">
        <ele>885.942318</ele>
        <time>2025-07-10T10:08:02.000Z</time>
      </trkpt>
      <trkpt lat="44.8312" lon="5.83694">
        <ele>885.843068</ele>
        <time>2025-07-10T10:08:03.000Z</time>
      </trkpt>
      <trkpt lat="44.83125" lon="5.83697">
        <ele>885.744586</ele>
        <time>2025-07-10T10:08:04.000Z</time>
      </trkpt>
      <trkpt lat="44.83131" lon="5.837">
        <ele>885.649647</ele>
        <time>2025-07-10T10:08:05.000Z</time>
      </trkpt>
      <trkpt lat="44.83136" lon="5.83702">
        <ele>885.557486</ele>
        <time>2025-07-10T10:08:06.000Z</time>
      </trkpt>
      <trkpt lat="44.83141" lon="5.83704">
        <ele>885.464857</ele>
        <time>2025-07-10T10:08:07.000Z</time>
      </trkpt>
      <trkpt lat="44.83146" lon="5.83706">
        <ele>885.378358</ele>
        <time>2025-07-10T10:08:08.000Z</time>
      </trkpt>
      <trkpt lat="44.83151" lon="5.83708">
        <ele>885.294067</ele>
        <time>2025-07-10T10:08:09.000Z</time>
      </trkpt>
      <trkpt lat="44.83156" lon="5.8371">
        <ele>885.210051</ele>
        <time>2025-07-10T10:08:10.000Z</time>
      </trkpt>
      <trkpt lat="44.83161" lon="5.83711">
        <ele>885.129556</ele>
        <time>2025-07-10T10:08:11.000Z</time>
      </trkpt>
      <trkpt lat="44.83166" lon="5.83713">
        <ele>885.049315</ele>
        <time>2025-07-10T10:08:12.000Z</time>
      </trkpt>
      <trkpt lat="44.8317" lon="5.83714">
        <ele>884.969732</ele>
        <time>2025-07-10T10:08:13.000Z</time>
      </trkpt>
      <trkpt lat="44.83175" lon="5.83714">
        <ele>884.892447</ele>
        <time>2025-07-10T10:08:14.000Z</time>
      </trkpt>
      <trkpt lat="44.83179" lon="5.83715">
        <ele>884.815381</ele>
        <time>2025-07-10T10:08:15.000Z</time>
      </trkpt>
      <trkpt lat="44.83184" lon="5.83715">
        <ele>884.738314</ele>
        <time>2025-07-10T10:08:16.000Z</time>
      </trkpt>
      <trkpt lat="44.83189" lon="5.83716">
        <ele>884.662997</ele>
        <time>2025-07-10T10:08:17.000Z</time>
      </trkpt>
      <trkpt lat="44.83193" lon="5.83716">
        <ele>884.587819</ele>
        <time>2025-07-10T10:08:18.000Z</time>
      </trkpt>
      <trkpt lat="44.83198" lon="5.83716">
        <ele>884.510981</ele>
        <time>2025-07-10T10:08:19.000Z</time>
      </trkpt>
      <trkpt lat="44.83202" lon="5.83716">
        <ele>884.434106</ele>
        <time>2025-07-10T10:08:20.000Z</time>
      </trkpt>
      <trkpt lat="44.83207" lon="5.83715">
        <ele>884.356821</ele>
        <time>2025-07-10T10:08:21.000Z</time>
      </trkpt>
      <trkpt lat="44.83211" lon="5.83714">
        <ele>884.280725</ele>
        <time>2025-07-10T10:08:22.000Z</time>
      </trkpt>
      <trkpt lat="44.83216" lon="5.83713">
        <ele>884.203749</ele>
        <time>2025-07-10T10:08:23.000Z</time>
      </trkpt>
      <trkpt lat="44.8322" lon="5.83711">
        <ele>884.130424</ele>
        <time>2025-07-10T10:08:24.000Z</time>
      </trkpt>
      <trkpt lat="44.83224" lon="5.83709">
        <ele>884.055987</ele>
        <time>2025-07-10T10:08:25.000Z</time>
      </trkpt>
      <trkpt lat="44.83228" lon="5.83706">
        <ele>883.980288</ele>
        <time>2025-07-10T10:08:26.000Z</time>
      </trkpt>
      <trkpt lat="44.83233" lon="5.83704">
        <ele>883.932582</ele>
        <time>2025-07-10T10:08:27.000Z</time>
      </trkpt>
      <trkpt lat="44.83236" lon="5.83701">
        <ele>883.930288</ele>
        <time>2025-07-10T10:08:28.000Z</time>
      </trkpt>
      <trkpt lat="44.8324" lon="5.83698">
        <ele>883.927941</ele>
        <time>2025-07-10T10:08:29.000Z</time>
      </trkpt>
      <trkpt lat="44.83244" lon="5.83694">
        <ele>883.925611</ele>
        <time>2025-07-10T10:08:30.000Z</time>
      </trkpt>
      <trkpt lat="44.83248" lon="5.83691">
        <ele>883.923219</ele>
        <time>2025-07-10T10:08:31.000Z</time>
      </trkpt>
      <trkpt lat="44.83252" lon="5.83688">
        <ele>883.920834</ele>
        <time>2025-07-10T10:08:32.000Z</time>
      </trkpt>
      <trkpt lat="44.83256" lon="5.83684">
        <ele>883.918472</ele>
        <time>2025-07-10T10:08:33.000Z</time>
      </trkpt>
      <trkpt lat="44.83259" lon="5.8368">
        <ele>883.916151</ele>
        <time>2025-07-10T10:08:34.000Z</time>
      </trkpt>
      <trkpt lat="44.83263" lon="5.83676">
        <ele>883.913807</ele>
        <time>2025-07-10T10:08:35.000Z</time>
      </trkpt>
      <trkpt lat="44.83266" lon="5.83672">
        <ele>883.911468</ele>
        <time>2025-07-10T10:08:36.000Z</time>
      </trkpt>
      <trkpt lat="44.8327" lon="5.83669">
        <ele>883.90915</ele>
        <time>2025-07-10T10:08:37.000Z</time>
      </trkpt>
      <trkpt lat="44.83274" lon="5.83665">
        <ele>883.906811</ele>
        <time>2025-07-10T10:08:38.000Z</time>
      </trkpt>
      <trkpt lat="44.83277" lon="5.83661">
        <ele>883.904449</ele>
        <time>2025-07-10T10:08:39.000Z</time>
      </trkpt>
      <trkpt lat="44.83281" lon="5.83657">
        <ele>883.902129</ele>
        <time>2025-07-10T10:08:40.000Z</time>
      </trkpt>
      <trkpt lat="44.83284" lon="5.83653">
        <ele>883.899789</ele>
        <time>2025-07-10T10:08:41.000Z</time>
      </trkpt>
      <trkpt lat="44.83288" lon="5.8365">
        <ele>883.897577</ele>
        <time>2025-07-10T10:08:42.000Z</time>
      </trkpt>
      <trkpt lat="44.83291" lon="5.83646">
        <ele>883.895324</ele>
        <time>2025-07-10T10:08:43.000Z</time>
      </trkpt>
      <trkpt lat="44.83295" lon="5.83642">
        <ele>883.89307</ele>
        <time>2025-07-10T10:08:44.000Z</time>
      </trkpt>
      <trkpt lat="44.83298" lon="5.83639">
        <ele>883.890816</ele>
        <time>2025-07-10T10:08:45.000Z</time>
      </trkpt>
      <trkpt lat="44.83302" lon="5.83635">
        <ele>883.888584</ele>
        <time>2025-07-10T10:08:46.000Z</time>
      </trkpt>
      <trkpt lat="44.83305" lon="5.83632">
        <ele>883.886308</ele>
        <time>2025-07-10T10:08:47.000Z</time>
      </trkpt>
      <trkpt lat="44.83309" lon="5.83628">
        <ele>883.884012</ele>
        <time>2025-07-10T10:08:48.000Z</time>
      </trkpt>
      <trkpt lat="44.83312" lon="5.83624">
        <ele>883.881695</ele>
        <time>2025-07-10T10:08:49.000Z</time>
      </trkpt>
      <trkpt lat="44.83316" lon="5.83621">
        <ele>883.879441</ele>
        <time>2025-07-10T10:08:50.000Z</time>
      </trkpt>
      <trkpt lat="44.83319" lon="5.83617">
        <ele>883.877165</ele>
        <time>2025-07-10T10:08:51.000Z</time>
      </trkpt>
      <trkpt lat="44.83323" lon="5.83613">
        <ele>883.874953</ele>
        <time>2025-07-10T10:08:52.000Z</time>
      </trkpt>
      <trkpt lat="44.83326" lon="5.8361">
        <ele>883.8727</ele>
        <time>2025-07-10T10:08:53.000Z</time>
      </trkpt>
      <trkpt lat="44.8333" lon="5.83606">
        <ele>883.87051</ele>
        <time>2025-07-10T10:08:54.000Z</time>
      </trkpt>
      <trkpt lat="44.83333" lon="5.83603">
        <ele>883.868277</ele>
        <time>2025-07-10T10:08:55.000Z</time>
      </trkpt>
      <trkpt lat="44.83337" lon="5.83599">
        <ele>883.866045</ele>
        <time>2025-07-10T10:08:56.000Z</time>
      </trkpt>
      <trkpt lat="44.8334" lon="5.83596">
        <ele>883.863749</ele>
        <time>2025-07-10T10:08:57.000Z</time>
      </trkpt>
      <trkpt lat="44.83344" lon="5.83592">
        <ele>883.861495</ele>
        <time>2025-07-10T10:08:58.000Z</time>
      </trkpt>
      <trkpt lat="44.83347" lon="5.83589">
        <ele>883.859284</ele>
        <time>2025-07-10T10:08:59.000Z</time>
      </trkpt>
      <trkpt lat="44.83351" lon="5.83585">
        <ele>883.857052</ele>
        <time>2025-07-10T10:09:00.000Z</time>
      </trkpt>
      <trkpt lat="44.83354" lon="5.83582">
        <ele>883.854841</ele>
        <time>2025-07-10T10:09:01.000Z</time>
      </trkpt>
      <trkpt lat="44.83358" lon="5.83579">
        <ele>883.85263</ele>
        <time>2025-07-10T10:09:02.000Z</time>
      </trkpt>
      <trkpt lat="44.83361" lon="5.83575">
        <ele>883.85044</ele>
        <time>2025-07-10T10:09:03.000Z</time>
      </trkpt>
      <trkpt lat="44.83365" lon="5.83572">
        <ele>883.848208</ele>
        <time>2025-07-10T10:09:04.000Z</time>
      </trkpt>
      <trkpt lat="44.83368" lon="5.83568">
        <ele>883.845997</ele>
        <time>2025-07-10T10:09:05.000Z</time>
      </trkpt>
      <trkpt lat="44.83372" lon="5.83565">
        <ele>883.843828</ele>
        <time>2025-07-10T10:09:06.000Z</time>
      </trkpt>
      <trkpt lat="44.83375" lon="5.83561">
        <ele>883.841658</ele>
        <time>2025-07-10T10:09:07.000Z</time>
      </trkpt>
      <trkpt lat="44.83378" lon="5.83558">
        <ele>883.841076</ele>
        <time>2025-07-10T10:09:08.000Z</time>
      </trkpt>
      <trkpt lat="44.83382" lon="5.83554">
        <ele>883.84809</ele>
        <time>2025-07-10T10:09:09.000Z</time>
      </trkpt>
      <trkpt lat="44.83385" lon="5.83551">
        <ele>883.855105</ele>
        <time>2025-07-10T10:09:10.000Z</time>
      </trkpt>
      <trkpt lat="44.83388" lon="5.83548">
        <ele>883.862189</ele>
        <time>2025-07-10T10:09:11.000Z</time>
      </trkpt>
      <trkpt lat="44.83392" lon="5.83544">
        <ele>883.869276</ele>
        <time>2025-07-10T10:09:12.000Z</time>
      </trkpt>
      <trkpt lat="44.83395" lon="5.83541">
        <ele>883.87643</ele>
        <time>2025-07-10T10:09:13.000Z</time>
      </trkpt>
      <trkpt lat="44.83398" lon="5.83537">
        <ele>883.883445</ele>
        <time>2025-07-10T10:09:14.000Z</time>
      </trkpt>
      <trkpt lat="44.83402" lon="5.83534">
        <ele>883.890532</ele>
        <time>2025-07-10T10:09:15.000Z</time>
      </trkpt>
      <trkpt lat="44.83405" lon="5.8353">
        <ele>883.897547</ele>
        <time>2025-07-10T10:09:16.000Z</time>
      </trkpt>
      <trkpt lat="44.83408" lon="5.83527">
        <ele>883.904771</ele>
        <time>2025-07-10T10:09:17.000Z</time>
      </trkpt>
      <trkpt lat="44.83412" lon="5.83523">
        <ele>883.911996</ele>
        <time>2025-07-10T10:09:18.000Z</time>
      </trkpt>
      <trkpt lat="44.83415" lon="5.8352">
        <ele>883.919291</ele>
        <time>2025-07-10T10:09:19.000Z</time>
      </trkpt>
      <trkpt lat="44.83418" lon="5.83517">
        <ele>883.926242</ele>
        <time>2025-07-10T10:09:20.000Z</time>
      </trkpt>
      <trkpt lat="44.83422" lon="5.83513">
        <ele>883.933613</ele>
        <time>2025-07-10T10:09:21.000Z</time>
      </trkpt>
      <trkpt lat="44.83425" lon="5.83509">
        <ele>883.940774</ele>
        <time>2025-07-10T10:09:22.000Z</time>
      </trkpt>
      <trkpt lat="44.83428" lon="5.83506">
        <ele>883.94801</ele>
        <time>2025-07-10T10:09:23.000Z</time>
      </trkpt>
      <trkpt lat="44.83432" lon="5.83502">
        <ele>883.955446</ele>
        <time>2025-07-10T10:09:24.000Z</time>
      </trkpt>
      <trkpt lat="44.83435" lon="5.83499">
        <ele>883.962741</ele>
        <time>2025-07-10T10:09:25.000Z</time>
      </trkpt>
      <trkpt lat="44.83439" lon="5.83495">
        <ele>883.969828</ele>
        <time>2025-07-10T10:09:26.000Z</time>
      </trkpt>
      <trkpt lat="44.83442" lon="5.83492">
        <ele>883.976771</ele>
        <time>2025-07-10T10:09:27.000Z</time>
      </trkpt>
      <trkpt lat="44.83445" lon="5.83489">
        <ele>883.983856</ele>
        <time>2025-07-10T10:09:28.000Z</time>
      </trkpt>
      <trkpt lat="44.83449" lon="5.83485">
        <ele>883.990943</ele>
        <time>2025-07-10T10:09:29.000Z</time>
      </trkpt>
      <trkpt lat="44.83452" lon="5.83482">
        <ele>883.997957</ele>
        <time>2025-07-10T10:09:30.000Z</time>
      </trkpt>
      <trkpt lat="44.83455" lon="5.83479">
        <ele>884.004763</ele>
        <time>2025-07-10T10:09:31.000Z</time>
      </trkpt>
      <trkpt lat="44.83459" lon="5.83475">
        <ele>884.01185</ele>
        <time>2025-07-10T10:09:32.000Z</time>
      </trkpt>
      <trkpt lat="44.83462" lon="5.83472">
        <ele>884.019004</ele>
        <time>2025-07-10T10:09:33.000Z</time>
      </trkpt>
      <trkpt lat="44.83466" lon="5.83469">
        <ele>884.026243</ele>
        <time>2025-07-10T10:09:34.000Z</time>
      </trkpt>
      <trkpt lat="44.83469" lon="5.83466">
        <ele>884.03342</ele>
        <time>2025-07-10T10:09:35.000Z</time>
      </trkpt>
      <trkpt lat="44.83473" lon="5.83462">
        <ele>884.040364</ele>
        <time>2025-07-10T10:09:36.000Z</time>
      </trkpt>
      <trkpt lat="44.83476" lon="5.83459">
        <ele>884.047451</ele>
        <time>2025-07-10T10:09:37.000Z</time>
      </trkpt>
      <trkpt lat="44.83479" lon="5.83455">
        <ele>884.054402</ele>
        <time>2025-07-10T10:09:38.000Z</time>
      </trkpt>
      <trkpt lat="44.83482" lon="5.83452">
        <ele>884.061451</ele>
        <time>2025-07-10T10:09:39.000Z</time>
      </trkpt>
      <trkpt lat="44.83485" lon="5.83448">
        <ele>884.068632</ele>
        <time>2025-07-10T10:09:40.000Z</time>
      </trkpt>
      <trkpt lat="44.83489" lon="5.83444">
        <ele>884.075658</ele>
        <time>2025-07-10T10:09:41.000Z</time>
      </trkpt>
      <trkpt lat="44.83492" lon="5.83441">
        <ele>884.082263</ele>
        <time>2025-07-10T10:09:42.000Z</time>
      </trkpt>
      <trkpt lat="44.83495" lon="5.83438">
        <ele>884.088996</ele>
        <time>2025-07-10T10:09:43.000Z</time>
      </trkpt>
      <trkpt lat="44.83498" lon="5.83434">
        <ele>884.09559</ele>
        <time>2025-07-10T10:09:44.000Z</time>
      </trkpt>
      <trkpt lat="44.83501" lon="5.83431">
        <ele>884.102196</ele>
        <time>2025-07-10T10:09:45.000Z</time>
      </trkpt>
      <trkpt lat="44.83504" lon="5.83428">
        <ele>884.108669</ele>
        <time>2025-07-10T10:09:46.000Z</time>
      </trkpt>
      <trkpt lat="44.83507" lon="5.83424">
        <ele>884.115172</ele>
        <time>2025-07-10T10:09:47.000Z</time>
      </trkpt>
      <trkpt lat="44.83509" lon="5.8342">
        <ele>884.121884</ele>
        <time>2025-07-10T10:09:48.000Z</time>
      </trkpt>
      <trkpt lat="44.83512" lon="5.83417">
        <ele>884.128262</ele>
        <time>2025-07-10T10:09:49.000Z</time>
      </trkpt>
      <trkpt lat="44.83515" lon="5.83413">
        <ele>884.134848</ele>
        <time>2025-07-10T10:09:50.000Z</time>
      </trkpt>
      <trkpt lat="44.83518" lon="5.83409">
        <ele>884.141479</ele>
        <time>2025-07-10T10:09:51.000Z</time>
      </trkpt>
      <trkpt lat="44.83521" lon="5.83406">
        <ele>884.14803</ele>
        <time>2025-07-10T10:09:52.000Z</time>
      </trkpt>
      <trkpt lat="44.83524" lon="5.83402">
        <ele>884.153382</ele>
        <time>2025-07-10T10:09:53.000Z</time>
      </trkpt>
      <trkpt lat="44.83526" lon="5.83398">
        <ele>884.158783</ele>
        <time>2025-07-10T10:09:54.000Z</time>
      </trkpt>
      <trkpt lat="44.83529" lon="5.83394">
        <ele>884.164221</ele>
        <time>2025-07-10T10:09:55.000Z</time>
      </trkpt>
      <trkpt lat="44.83532" lon="5.8339">
        <ele>884.169494</ele>
        <time>2025-07-10T10:09:56.000Z</time>
      </trkpt>
      <trkpt lat="44.83535" lon="5.83387">
        <ele>884.174767</ele>
        <time>2025-07-10T10:09:57.000Z</time>
      </trkpt>
      <trkpt lat="44.83537" lon="5.83383">
        <ele>884.180137</ele>
        <time>2025-07-10T10:09:58.000Z</time>
      </trkpt>
      <trkpt lat="44.8354" lon="5.83379">
        <ele>884.185575</ele>
        <time>2025-07-10T10:09:59.000Z</time>
      </trkpt>
      <trkpt lat="44.83543" lon="5.83375">
        <ele>884.190896</ele>
        <time>2025-07-10T10:10:00.000Z</time>
      </trkpt>
      <trkpt lat="44.83546" lon="5.8337">
        <ele>884.196309</ele>
        <time>2025-07-10T10:10:01.000Z</time>
      </trkpt>
      <trkpt lat="44.83548" lon="5.83366">
        <ele>884.201652</ele>
        <time>2025-07-10T10:10:02.000Z</time>
      </trkpt>
      <trkpt lat="44.83551" lon="5.83363">
        <ele>884.206926</ele>
        <time>2025-07-10T10:10:03.000Z</time>
      </trkpt>
      <trkpt lat="44.83554" lon="5.83359">
        <ele>884.212295</ele>
        <time>2025-07-10T10:10:04.000Z</time>
      </trkpt>
      <trkpt lat="44.83556" lon="5.83355">
        <ele>884.217638</ele>
        <time>2025-07-10T10:10:05.000Z</time>
      </trkpt>
      <trkpt lat="44.83559" lon="5.83351">
        <ele>884.223145</ele>
        <time>2025-07-10T10:10:06.000Z</time>
      </trkpt>
      <trkpt lat="44.83562" lon="5.83346">
        <ele>884.228722</ele>
        <time>2025-07-10T10:10:07.000Z</time>
      </trkpt>
      <trkpt lat="44.83565" lon="5.83342">
        <ele>884.234257</ele>
        <time>2025-07-10T10:10:08.000Z</time>
      </trkpt>
      <trkpt lat="44.83568" lon="5.83338">
        <ele>884.23953</ele>
        <time>2025-07-10T10:10:09.000Z</time>
      </trkpt>
      <trkpt lat="44.83571" lon="5.83335">
        <ele>884.244931</ele>
        <time>2025-07-10T10:10:10.000Z</time>
      </trkpt>
      <trkpt lat="44.83573" lon="5.83331">
        <ele>884.250438</ele>
        <time>2025-07-10T10:10:11.000Z</time>
      </trkpt>
      <trkpt lat="44.83576" lon="5.83327">
        <ele>884.255688</ele>
        <time>2025-07-10T10:10:12.000Z</time>
      </trkpt>
      <trkpt lat="44.83579" lon="5.83323">
        <ele>884.261126</ele>
        <time>2025-07-10T10:10:13.000Z</time>
      </trkpt>
      <trkpt lat="44.83581" lon="5.83319">
        <ele>884.266376</ele>
        <time>2025-07-10T10:10:14.000Z</time>
      </trkpt>
      <trkpt lat="44.83584" lon="5.83315">
        <ele>884.271745</ele>
        <time>2025-07-10T10:10:15.000Z</time>
      </trkpt>
      <trkpt lat="44.83587" lon="5.83311">
        <ele>884.276981</ele>
        <time>2025-07-10T10:10:16.000Z</time>
      </trkpt>
      <trkpt lat="44.8359" lon="5.83307">
        <ele>884.282089</ele>
        <time>2025-07-10T10:10:17.000Z</time>
      </trkpt>
      <trkpt lat="44.83592" lon="5.83303">
        <ele>884.287294</ele>
        <time>2025-07-10T10:10:18.000Z</time>
      </trkpt>
      <trkpt lat="44.83595" lon="5.833">
        <ele>884.292403</ele>
        <time>2025-07-10T10:10:19.000Z</time>
      </trkpt>
      <trkpt lat="44.83597" lon="5.83295">
        <ele>884.297724</ele>
        <time>2025-07-10T10:10:20.000Z</time>
      </trkpt>
      <trkpt lat="44.836" lon="5.83292">
        <ele>884.302997</ele>
        <time>2025-07-10T10:10:21.000Z</time>
      </trkpt>
      <trkpt lat="44.83603" lon="5.83288">
        <ele>884.308271</ele>
        <time>2025-07-10T10:10:22.000Z</time>
      </trkpt>
      <trkpt lat="44.83606" lon="5.83284">
        <ele>884.31364</ele>
        <time>2025-07-10T10:10:23.000Z</time>
      </trkpt>
      <trkpt lat="44.83608" lon="5.8328">
        <ele>884.318983</ele>
        <time>2025-07-10T10:10:24.000Z</time>
      </trkpt>
      <trkpt lat="44.83611" lon="5.83276">
        <ele>884.324517</ele>
        <time>2025-07-10T10:10:25.000Z</time>
      </trkpt>
      <trkpt lat="44.83614" lon="5.83272">
        <ele>884.32986</ele>
        <time>2025-07-10T10:10:26.000Z</time>
      </trkpt>
      <trkpt lat="44.83617" lon="5.83268">
        <ele>884.335345</ele>
        <time>2025-07-10T10:10:27.000Z</time>
      </trkpt>
      <trkpt lat="44.83619" lon="5.83263">
        <ele>884.34083</ele>
        <time>2025-07-10T10:10:28.000Z</time>
      </trkpt>
      <trkpt lat="44.83622" lon="5.83259">
        <ele>884.346337</ele>
        <time>2025-07-10T10:10:29.000Z</time>
      </trkpt>
      <trkpt lat="44.83625" lon="5.83255">
        <ele>884.351541</ele>
        <time>2025-07-10T10:10:30.000Z</time>
      </trkpt>
      <trkpt lat="44.83628" lon="5.83252">
        <ele>884.356843</ele>
        <time>2025-07-10T10:10:31.000Z</time>
      </trkpt>
      <trkpt lat="44.8363" lon="5.83248">
        <ele>884.362186</ele>
        <time>2025-07-10T10:10:32.000Z</time>
      </trkpt>
      <trkpt lat="44.83633" lon="5.83244">
        <ele>884.367345</ele>
        <time>2025-07-10T10:10:33.000Z</time>
      </trkpt>
      <trkpt lat="44.83635" lon="5.8324">
        <ele>884.372666</ele>
        <time>2025-07-10T10:10:34.000Z</time>
      </trkpt>
      <trkpt lat="44.83638" lon="5.83236">
        <ele>884.377845</ele>
        <time>2025-07-10T10:10:35.000Z</time>
      </trkpt>
      <trkpt lat="44.83641" lon="5.83232">
        <ele>884.383024</ele>
        <time>2025-07-10T10:10:36.000Z</time>
      </trkpt>
      <trkpt lat="44.83643" lon="5.83228">
        <ele>884.388273</ele>
        <time>2025-07-10T10:10:37.000Z</time>
      </trkpt>
      <trkpt lat="44.83646" lon="5.83224">
        <ele>884.393711</ele>
        <time>2025-07-10T10:10:38.000Z</time>
      </trkpt>
      <trkpt lat="44.83649" lon="5.83219">
        <ele>884.446995</ele>
        <time>2025-07-10T10:10:39.000Z</time>
      </trkpt>
      <trkpt lat="44.83652" lon="5.83215">
        <ele>884.505807</ele>
        <time>2025-07-10T10:10:40.000Z</time>
      </trkpt>
      <trkpt lat="44.83655" lon="5.8321">
        <ele>884.567138</ele>
        <time>2025-07-10T10:10:41.000Z</time>
      </trkpt>
      <trkpt lat="44.83658" lon="5.83206">
        <ele>884.628993</ele>
        <time>2025-07-10T10:10:42.000Z</time>
      </trkpt>
      <trkpt lat="44.83661" lon="5.83201">
        <ele>884.691516</ele>
        <time>2025-07-10T10:10:43.000Z</time>
      </trkpt>
      <trkpt lat="44.83665" lon="5.83196">
        <ele>884.755004</ele>
        <time>2025-07-10T10:10:44.000Z</time>
      </trkpt>
      <trkpt lat="44.83668" lon="5.83192">
        <ele>884.819157</ele>
        <time>2025-07-10T10:10:45.000Z</time>
      </trkpt>
      <trkpt lat="44.83671" lon="5.83187">
        <ele>884.881414</ele>
        <time>2025-07-10T10:10:46.000Z</time>
      </trkpt>
      <trkpt lat="44.83675" lon="5.83182">
        <ele>884.944902</ele>
        <time>2025-07-10T10:10:47.000Z</time>
      </trkpt>
      <trkpt lat="44.83678" lon="5.83178">
        <ele>885.007082</ele>
        <time>2025-07-10T10:10:48.000Z</time>
      </trkpt>
      <trkpt lat="44.83682" lon="5.83174">
        <ele>885.067785</ele>
        <time>2025-07-10T10:10:49.000Z</time>
      </trkpt>
      <trkpt lat="44.83685" lon="5.8317">
        <ele>885.128377</ele>
        <time>2025-07-10T10:10:50.000Z</time>
      </trkpt>
      <trkpt lat="44.83689" lon="5.83167">
        <ele>885.187844</ele>
        <time>2025-07-10T10:10:51.000Z</time>
      </trkpt>
      <trkpt lat="44.83693" lon="5.83163">
        <ele>885.247877</ele>
        <time>2025-07-10T10:10:52.000Z</time>
      </trkpt>
      <trkpt lat="44.83696" lon="5.8316">
        <ele>885.306867</ele>
        <time>2025-07-10T10:10:53.000Z</time>
      </trkpt>
      <trkpt lat="44.837" lon="5.83157">
        <ele>885.365086</ele>
        <time>2025-07-10T10:10:54.000Z</time>
      </trkpt>
      <trkpt lat="44.83704" lon="5.83154">
        <ele>885.421998</ele>
        <time>2025-07-10T10:10:55.000Z</time>
      </trkpt>
      <trkpt lat="44.83708" lon="5.83152">
        <ele>885.477281</ele>
        <time>2025-07-10T10:10:56.000Z</time>
      </trkpt>
      <trkpt lat="44.83711" lon="5.8315">
        <ele>885.531765</ele>
        <time>2025-07-10T10:10:57.000Z</time>
      </trkpt>
      <trkpt lat="44.83715" lon="5.83148">
        <ele>885.580163</ele>
        <time>2025-07-10T10:10:58.000Z</time>
      </trkpt>
      <trkpt lat="44.83718" lon="5.83145">
        <ele>885.627721</ele>
        <time>2025-07-10T10:10:59.000Z</time>
      </trkpt>
      <trkpt lat="44.83721" lon="5.83144">
        <ele>885.674506</ele>
        <time>2025-07-10T10:11:00.000Z</time>
      </trkpt>
      <trkpt lat="44.83724" lon="5.83142">
        <ele>885.717199</ele>
        <time>2025-07-10T10:11:01.000Z</time>
      </trkpt>
      <trkpt lat="44.83727" lon="5.8314">
        <ele>885.762017</ele>
        <time>2025-07-10T10:11:02.000Z</time>
      </trkpt>
      <trkpt lat="44.8373" lon="5.83139">
        <ele>885.803319</ele>
        <time>2025-07-10T10:11:03.000Z</time>
      </trkpt>
      <trkpt lat="44.83733" lon="5.83137">
        <ele>885.841762</ele>
        <time>2025-07-10T10:11:04.000Z</time>
      </trkpt>
      <trkpt lat="44.83735" lon="5.83136">
        <ele>885.879263</ele>
        <time>2025-07-10T10:11:05.000Z</time>
      </trkpt>
      <trkpt lat="44.83738" lon="5.83135">
        <ele>885.916764</ele>
        <time>2025-07-10T10:11:06.000Z</time>
      </trkpt>
      <trkpt lat="44.8374" lon="5.83133">
        <ele>885.949808</ele>
        <time>2025-07-10T10:11:07.000Z</time>
      </trkpt>
      <trkpt lat="44.83743" lon="5.83132">
        <ele>885.98327</ele>
        <time>2025-07-10T10:11:08.000Z</time>
      </trkpt>
      <trkpt lat="44.83745" lon="5.83132">
        <ele>886.0165</ele>
        <time>2025-07-10T10:11:09.000Z</time>
      </trkpt>
      <trkpt lat="44.83747" lon="5.83131">
        <ele>886.049963</ele>
        <time>2025-07-10T10:11:10.000Z</time>
      </trkpt>
      <trkpt lat="44.8375" lon="5.8313">
        <ele>886.084978</ele>
        <time>2025-07-10T10:11:11.000Z</time>
      </trkpt>
      <trkpt lat="44.83752" lon="5.83129">
        <ele>886.120266</ele>
        <time>2025-07-10T10:11:12.000Z</time>
      </trkpt>
      <trkpt lat="44.83755" lon="5.83128">
        <ele>886.154269</ele>
        <time>2025-07-10T10:11:13.000Z</time>
      </trkpt>
      <trkpt lat="44.83757" lon="5.83126">
        <ele>886.188581</ele>
        <time>2025-07-10T10:11:14.000Z</time>
      </trkpt>
      <trkpt lat="44.8376" lon="5.83125">
        <ele>886.222584</ele>
        <time>2025-07-10T10:11:15.000Z</time>
      </trkpt>
      <trkpt lat="44.83762" lon="5.83124">
        <ele>886.256305</ele>
        <time>2025-07-10T10:11:16.000Z</time>
      </trkpt>
      <trkpt lat="44.83764" lon="5.83123">
        <ele>886.290026</ele>
        <time>2025-07-10T10:11:17.000Z</time>
      </trkpt>
      <trkpt lat="44.83767" lon="5.83122">
        <ele>886.324337</ele>
        <time>2025-07-10T10:11:18.000Z</time>
      </trkpt>
      <trkpt lat="44.83769" lon="5.83121">
        <ele>886.358979</ele>
        <time>2025-07-10T10:11:19.000Z</time>
      </trkpt>
      <trkpt lat="44.83772" lon="5.8312">
        <ele>886.39329</ele>
        <time>2025-07-10T10:11:20.000Z</time>
      </trkpt>
      <trkpt lat="44.83774" lon="5.83118">
        <ele>886.428578</ele>
        <time>2025-07-10T10:11:21.000Z</time>
      </trkpt>
      <trkpt lat="44.83776" lon="5.83117">
        <ele>886.462582</ele>
        <time>2025-07-10T10:11:22.000Z</time>
      </trkpt>
      <trkpt lat="44.83779" lon="5.83116">
        <ele>886.49787</ele>
        <time>2025-07-10T10:11:23.000Z</time>
      </trkpt>
      <trkpt lat="44.83781" lon="5.83115">
        <ele>886.532512</ele>
        <time>2025-07-10T10:11:24.000Z</time>
      </trkpt>
      <trkpt lat="44.83784" lon="5.83114">
        <ele>886.566267</ele>
        <time>2025-07-10T10:11:25.000Z</time>
      </trkpt>
      <trkpt lat="44.83786" lon="5.83112">
        <ele>886.600909</ele>
        <time>2025-07-10T10:11:26.000Z</time>
      </trkpt>
      <trkpt lat="44.83788" lon="5.83111">
        <ele>886.634664</ele>
        <time>2025-07-10T10:11:27.000Z</time>
      </trkpt>
      <trkpt lat="44.83791" lon="5.8311">
        <ele>886.670248</ele>
        <time>2025-07-10T10:11:28.000Z</time>
      </trkpt>
      <trkpt lat="44.83793" lon="5.83108">
        <ele>886.70489</ele>
        <time>2025-07-10T10:11:29.000Z</time>
      </trkpt>
      <trkpt lat="44.83796" lon="5.83107">
        <ele>886.741135</ele>
        <time>2025-07-10T10:11:30.000Z</time>
      </trkpt>
      <trkpt lat="44.83798" lon="5.83105">
        <ele>886.778128</ele>
        <time>2025-07-10T10:11:31.000Z</time>
      </trkpt>
      <trkpt lat="44.83801" lon="5.83104">
        <ele>886.816744</ele>
        <time>2025-07-10T10:11:32.000Z</time>
      </trkpt>
      <trkpt lat="44.83803" lon="5.83102">
        <ele>886.814165</ele>
        <time>2025-07-10T10:11:33.000Z</time>
      </trkpt>
      <trkpt lat="44.83805" lon="5.83101">
        <ele>886.81072</ele>
        <time>2025-07-10T10:11:34.000Z</time>
      </trkpt>
      <trkpt lat="44.83808" lon="5.83099">
        <ele>886.807189</ele>
        <time>2025-07-10T10:11:35.000Z</time>
      </trkpt>
      <trkpt lat="44.8381" lon="5.83097">
        <ele>886.803493</ele>
        <time>2025-07-10T10:11:36.000Z</time>
      </trkpt>
      <trkpt lat="44.83813" lon="5.83095">
        <ele>886.799842</ele>
        <time>2025-07-10T10:11:37.000Z</time>
      </trkpt>
      <trkpt lat="44.83815" lon="5.83094">
        <ele>886.796266</ele>
        <time>2025-07-10T10:11:38.000Z</time>
      </trkpt>
      <trkpt lat="44.83817" lon="5.83092">
        <ele>886.79269</ele>
        <time>2025-07-10T10:11:39.000Z</time>
      </trkpt>
      <trkpt lat="44.83819" lon="5.8309">
        <ele>886.789348</ele>
        <time>2025-07-10T10:11:40.000Z</time>
      </trkpt>
      <trkpt lat="44.83821" lon="5.83088">
        <ele>886.785891</ele>
        <time>2025-07-10T10:11:41.000Z</time>
      </trkpt>
      <trkpt lat="44.83824" lon="5.83086">
        <ele>886.78236</ele>
        <time>2025-07-10T10:11:42.000Z</time>
      </trkpt>
      <trkpt lat="44.83826" lon="5.83085">
        <ele>886.779019</ele>
        <time>2025-07-10T10:11:43.000Z</time>
      </trkpt>
      <trkpt lat="44.83828" lon="5.83083">
        <ele>886.775574</ele>
        <time>2025-07-10T10:11:44.000Z</time>
      </trkpt>
      <trkpt lat="44.8383" lon="5.83081">
        <ele>886.77195</ele>
        <time>2025-07-10T10:11:45.000Z</time>
      </trkpt>
      <trkpt lat="44.83833" lon="5.83079">
        <ele>886.768208</ele>
        <time>2025-07-10T10:11:46.000Z</time>
      </trkpt>
      <trkpt lat="44.83835" lon="5.83077">
        <ele>886.76415</ele>
        <time>2025-07-10T10:11:47.000Z</time>
      </trkpt>
      <trkpt lat="44.83837" lon="5.83074">
        <ele>886.760309</ele>
        <time>2025-07-10T10:11:48.000Z</time>
      </trkpt>
      <trkpt lat="44.8384" lon="5.83071">
        <ele>886.755968</ele>
        <time>2025-07-10T10:11:49.000Z</time>
      </trkpt>
      <trkpt lat="44.83842" lon="5.83069">
        <ele>886.751687</ele>
        <time>2025-07-10T10:11:50.000Z</time>
      </trkpt>
      <trkpt lat="44.83845" lon="5.83066">
        <ele>886.74718</ele>
        <time>2025-07-10T10:11:51.000Z</time>
      </trkpt>
      <trkpt lat="44.83848" lon="5.83063">
        <ele>886.742733</ele>
        <time>2025-07-10T10:11:52.000Z</time>
      </trkpt>
      <trkpt lat="44.8385" lon="5.8306">
        <ele>886.738059</ele>
        <time>2025-07-10T10:11:53.000Z</time>
      </trkpt>
      <trkpt lat="44.83853" lon="5.83057">
        <ele>886.733386</ele>
        <time>2025-07-10T10:11:54.000Z</time>
      </trkpt>
      <trkpt lat="44.83856" lon="5.83054">
        <ele>886.728757</ele>
        <time>2025-07-10T10:11:55.000Z</time>
      </trkpt>
      <trkpt lat="44.83858" lon="5.83051">
        <ele>886.724065</ele>
        <time>2025-07-10T10:11:56.000Z</time>
      </trkpt>
      <trkpt lat="44.83861" lon="5.83047">
        <ele>886.719508</ele>
        <time>2025-07-10T10:11:57.000Z</time>
      </trkpt>
      <trkpt lat="44.83863" lon="5.83044">
        <ele>886.714581</ele>
        <time>2025-07-10T10:11:58.000Z</time>
      </trkpt>
      <trkpt lat="44.83866" lon="5.8304">
        <ele>886.709584</ele>
        <time>2025-07-10T10:11:59.000Z</time>
      </trkpt>
      <trkpt lat="44.83868" lon="5.83036">
        <ele>886.704465</ele>
        <time>2025-07-10T10:12:00.000Z</time>
      </trkpt>
      <trkpt lat="44.83871" lon="5.83032">
        <ele>886.699163</ele>
        <time>2025-07-10T10:12:01.000Z</time>
      </trkpt>
      <trkpt lat="44.83873" lon="5.83028">
        <ele>886.693802</ele>
        <time>2025-07-10T10:12:02.000Z</time>
      </trkpt>
      <trkpt lat="44.83876" lon="5.83023">
        <ele>886.688218</ele>
        <time>2025-07-10T10:12:03.000Z</time>
      </trkpt>
      <trkpt lat="44.83878" lon="5.83018">
        <ele>886.682477</ele>
        <time>2025-07-10T10:12:04.000Z</time>
      </trkpt>
      <trkpt lat="44.8388" lon="5.83013">
        <ele>886.676557</ele>
        <time>2025-07-10T10:12:05.000Z</time>
      </trkpt>
      <trkpt lat="44.83883" lon="5.83007">
        <ele>886.670566</ele>
        <time>2025-07-10T10:12:06.000Z</time>
      </trkpt>
      <trkpt lat="44.83885" lon="5.83002">
        <ele>886.664268</ele>
        <time>2025-07-10T10:12:07.000Z</time>
      </trkpt>
      <trkpt lat="44.83888" lon="5.82996">
        <ele>886.657896</ele>
        <time>2025-07-10T10:12:08.000Z</time>
      </trkpt>
      <trkpt lat="44.8389" lon="5.82991">
        <ele>886.651199</ele>
        <time>2025-07-10T10:12:09.000Z</time>
      </trkpt>
      <trkpt lat="44.83893" lon="5.82985">
        <ele>886.644502</ele>
        <time>2025-07-10T10:12:10.000Z</time>
      </trkpt>
      <trkpt lat="44.83896" lon="5.82979">
        <ele>886.637651</ele>
        <time>2025-07-10T10:12:11.000Z</time>
      </trkpt>
      <trkpt lat="44.83898" lon="5.82973">
        <ele>886.63079</ele>
        <time>2025-07-10T10:12:12.000Z</time>
      </trkpt>
      <trkpt lat="44.83901" lon="5.82966">
        <ele>886.623775</ele>
        <time>2025-07-10T10:12:13.000Z</time>
      </trkpt>
      <trkpt lat="44.83904" lon="5.8296">
        <ele>886.61677</ele>
        <time>2025-07-10T10:12:14.000Z</time>
      </trkpt>
      <trkpt lat="44.83907" lon="5.82954">
        <ele>886.609846</ele>
        <time>2025-07-10T10:12:15.000Z</time>
      </trkpt>
      <trkpt lat="44.83909" lon="5.82948">
        <ele>886.602925</ele>
        <time>2025-07-10T10:12:16.000Z</time>
      </trkpt>
      <trkpt lat="44.83912" lon="5.82942">
        <ele>886.596081</ele>
        <time>2025-07-10T10:12:17.000Z</time>
      </trkpt>
      <trkpt lat="44.83915" lon="5.82937">
        <ele>886.589236</ele>
        <time>2025-07-10T10:12:18.000Z</time>
      </trkpt>
      <trkpt lat="44.83918" lon="5.82931">
        <ele>886.58261</ele>
        <time>2025-07-10T10:12:19.000Z</time>
      </trkpt>
      <trkpt lat="44.8392" lon="5.82925">
        <ele>886.575995</ele>
        <time>2025-07-10T10:12:20.000Z</time>
      </trkpt>
      <trkpt lat="44.83923" lon="5.82919">
        <ele>886.579014</ele>
        <time>2025-07-10T10:12:21.000Z</time>
      </trkpt>
      <trkpt lat="44.83926" lon="5.82913">
        <ele>886.589743</ele>
        <time>2025-07-10T10:12:22.000Z</time>
      </trkpt>
      <trkpt lat="44.83928" lon="5.82907">
        <ele>886.599871</ele>
        <time>2025-07-10T10:12:23.000Z</time>
      </trkpt>
      <trkpt lat="44.8393" lon="5.82901">
        <ele>886.610282</ele>
        <time>2025-07-10T10:12:24.000Z</time>
      </trkpt>
      <trkpt lat="44.83933" lon="5.82895">
        <ele>886.620824</ele>
        <time>2025-07-10T10:12:25.000Z</time>
      </trkpt>
      <trkpt lat="44.83935" lon="5.82889">
        <ele>886.631532</ele>
        <time>2025-07-10T10:12:26.000Z</time>
      </trkpt>
      <trkpt lat="44.83937" lon="5.82883">
        <ele>886.64224</ele>
        <time>2025-07-10T10:12:27.000Z</time>
      </trkpt>
      <trkpt lat="44.8394" lon="5.82876">
        <ele>886.653083</ele>
        <time>2025-07-10T10:12:28.000Z</time>
      </trkpt>
      <trkpt lat="44.83942" lon="5.8287">
        <ele>886.663831</ele>
        <time>2025-07-10T10:12:29.000Z</time>
      </trkpt>
      <trkpt lat="44.83944" lon="5.82863">
        <ele>886.674625</ele>
        <time>2025-07-10T10:12:30.000Z</time>
      </trkpt>
      <trkpt lat="44.83946" lon="5.82857">
        <ele>886.685282</ele>
        <time>2025-07-10T10:12:31.000Z</time>
      </trkpt>
      <trkpt lat="44.83948" lon="5.8285">
        <ele>886.696167</ele>
        <time>2025-07-10T10:12:32.000Z</time>
      </trkpt>
      <trkpt lat="44.83951" lon="5.82844">
        <ele>886.707107</ele>
        <time>2025-07-10T10:12:33.000Z</time>
      </trkpt>
      <trkpt lat="44.83953" lon="5.82838">
        <ele>886.718048</ele>
        <time>2025-07-10T10:12:34.000Z</time>
      </trkpt>
      <trkpt lat="44.83955" lon="5.82831">
        <ele>886.728489</ele>
        <time>2025-07-10T10:12:35.000Z</time>
      </trkpt>
      <trkpt lat="44.83958" lon="5.82825">
        <ele>886.739136</ele>
        <time>2025-07-10T10:12:36.000Z</time>
      </trkpt>
      <trkpt lat="44.8396" lon="5.82819">
        <ele>886.749546</ele>
        <time>2025-07-10T10:12:37.000Z</time>
      </trkpt>
      <trkpt lat="44.83963" lon="5.82813">
        <ele>886.760172</ele>
        <time>2025-07-10T10:12:38.000Z</time>
      </trkpt>
      <trkpt lat="44.83966" lon="5.82807">
        <ele>886.770901</ele>
        <time>2025-07-10T10:12:39.000Z</time>
      </trkpt>
      <trkpt lat="44.83969" lon="5.82802">
        <ele>886.781877</ele>
        <time>2025-07-10T10:12:40.000Z</time>
      </trkpt>
      <trkpt lat="44.83972" lon="5.82796">
        <ele>886.792725</ele>
        <time>2025-07-10T10:12:41.000Z</time>
      </trkpt>
      <trkpt lat="44.83975" lon="5.8279">
        <ele>886.803701</ele>
        <time>2025-07-10T10:12:42.000Z</time>
      </trkpt>
      <trkpt lat="44.83978" lon="5.82784">
        <ele>886.814939</ele>
        <time>2025-07-10T10:12:43.000Z</time>
      </trkpt>
      <trkpt lat="44.83981" lon="5.82779">
        <ele>886.825942</ele>
        <time>2025-07-10T10:12:44.000Z</time>
      </trkpt>
      <trkpt lat="44.83985" lon="5.82773">
        <ele>886.83718</ele>
        <time>2025-07-10T10:12:45.000Z</time>
      </trkpt>
      <trkpt lat="44.83988" lon="5.82767">
        <ele>886.848093</ele>
        <time>2025-07-10T10:12:46.000Z</time>
      </trkpt>
      <trkpt lat="44.83991" lon="5.82762">
        <ele>886.858728</ele>
        <time>2025-07-10T10:12:47.000Z</time>
      </trkpt>
      <trkpt lat="44.83995" lon="5.82757">
        <ele>886.869273</ele>
        <time>2025-07-10T10:12:48.000Z</time>
      </trkpt>
      <trkpt lat="44.83998" lon="5.82752">
        <ele>886.879526</ele>
        <time>2025-07-10T10:12:49.000Z</time>
      </trkpt>
      <trkpt lat="44.84001" lon="5.82747">
        <ele>886.889521</ele>
        <time>2025-07-10T10:12:50.000Z</time>
      </trkpt>
      <trkpt lat="44.84005" lon="5.82743">
        <ele>886.899152</ele>
        <time>2025-07-10T10:12:51.000Z</time>
      </trkpt>
      <trkpt lat="44.84008" lon="5.82739">
        <ele>886.908067</ele>
        <time>2025-07-10T10:12:52.000Z</time>
      </trkpt>
      <trkpt lat="44.84011" lon="5.82735">
        <ele>886.91739</ele>
        <time>2025-07-10T10:12:53.000Z</time>
      </trkpt>
      <trkpt lat="44.84015" lon="5.82732">
        <ele>886.926883</ele>
        <time>2025-07-10T10:12:54.000Z</time>
      </trkpt>
      <trkpt lat="44.84018" lon="5.82728">
        <ele>886.935952</ele>
        <time>2025-07-10T10:12:55.000Z</time>
      </trkpt>
      <trkpt lat="44.84022" lon="5.82725">
        <ele>886.944941</ele>
        <time>2025-07-10T10:12:56.000Z</time>
      </trkpt>
      <trkpt lat="44.84026" lon="5.82722">
        <ele>886.953831</ele>
        <time>2025-07-10T10:12:57.000Z</time>
      </trkpt>
      <trkpt lat="44.84029" lon="5.82719">
        <ele>887.008738</ele>
        <time>2025-07-10T10:12:58.000Z</time>
      </trkpt>
      <trkpt lat="44.84033" lon="5.82717">
        <ele>887.080377</ele>
        <time>2025-07-10T10:12:59.000Z</time>
      </trkpt>
      <trkpt lat="44.84036" lon="5.82714">
        <ele>887.149845</ele>
        <time>2025-07-10T10:13:00.000Z</time>
      </trkpt>
      <trkpt lat="44.84039" lon="5.82712">
        <ele>887.217238</ele>
        <time>2025-07-10T10:13:01.000Z</time>
      </trkpt>
      <trkpt lat="44.84043" lon="5.82709">
        <ele>887.284037</ele>
        <time>2025-07-10T10:13:02.000Z</time>
      </trkpt>
      <trkpt lat="44.84046" lon="5.82707">
        <ele>887.348653</ele>
        <time>2025-07-10T10:13:03.000Z</time>
      </trkpt>
      <trkpt lat="44.84049" lon="5.82705">
        <ele>887.412002</ele>
        <time>2025-07-10T10:13:04.000Z</time>
      </trkpt>
      <trkpt lat="44.84052" lon="5.82702">
        <ele>887.476724</ele>
        <time>2025-07-10T10:13:05.000Z</time>
      </trkpt>
      <trkpt lat="44.84055" lon="5.82699">
        <ele>887.538547</ele>
        <time>2025-07-10T10:13:06.000Z</time>
      </trkpt>
      <trkpt lat="44.84058" lon="5.82697">
        <ele>887.598168</ele>
        <time>2025-07-10T10:13:07.000Z</time>
      </trkpt>
      <trkpt lat="44.8406" lon="5.82694">
        <ele>887.657117</ele>
        <time>2025-07-10T10:13:08.000Z</time>
      </trkpt>
      <trkpt lat="44.84063" lon="5.82692">
        <ele>887.716065</ele>
        <time>2025-07-10T10:13:09.000Z</time>
      </trkpt>
      <trkpt lat="44.84066" lon="5.82689">
        <ele>887.780091</ele>
        <time>2025-07-10T10:13:10.000Z</time>
      </trkpt>
      <trkpt lat="44.84069" lon="5.82687">
        <ele>887.8382</ele>
        <time>2025-07-10T10:13:11.000Z</time>
      </trkpt>
      <trkpt lat="44.84072" lon="5.82684">
        <ele>887.898494</ele>
        <time>2025-07-10T10:13:12.000Z</time>
      </trkpt>
      <trkpt lat="44.84074" lon="5.82681">
        <ele>887.959553</ele>
        <time>2025-07-10T10:13:13.000Z</time>
      </trkpt>
      <trkpt lat="44.84077" lon="5.82678">
        <ele>888.018103</ele>
        <time>2025-07-10T10:13:14.000Z</time>
      </trkpt>
      <trkpt lat="44.84079" lon="5.82675">
        <ele>888.079708</ele>
        <time>2025-07-10T10:13:15.000Z</time>
      </trkpt>
      <trkpt lat="44.84082" lon="5.82671">
        <ele>888.140448</ele>
        <time>2025-07-10T10:13:16.000Z</time>
      </trkpt>
      <trkpt lat="44.84084" lon="5.82668">
        <ele>888.200751</ele>
        <time>2025-07-10T10:13:17.000Z</time>
      </trkpt>
      <trkpt lat="44.84087" lon="5.82665">
        <ele>888.261054</ele>
        <time>2025-07-10T10:13:18.000Z</time>
      </trkpt>
      <trkpt lat="44.84089" lon="5.82661">
        <ele>888.321358</ele>
        <time>2025-07-10T10:13:19.000Z</time>
      </trkpt>
      <trkpt lat="44.84091" lon="5.82658">
        <ele>888.379483</ele>
        <time>2025-07-10T10:13:20.000Z</time>
      </trkpt>
      <trkpt lat="44.84094" lon="5.82655">
        <ele>888.43672</ele>
        <time>2025-07-10T10:13:21.000Z</time>
      </trkpt>
      <trkpt lat="44.84096" lon="5.82652">
        <ele>888.495749</ele>
        <time>2025-07-10T10:13:22.000Z</time>
      </trkpt>
      <trkpt lat="44.84098" lon="5.82649">
        <ele>888.552313</ele>
        <time>2025-07-10T10:13:23.000Z</time>
      </trkpt>
      <trkpt lat="44.841" lon="5.82645">
        <ele>888.613188</ele>
        <time>2025-07-10T10:13:24.000Z</time>
      </trkpt>
      <trkpt lat="44.84103" lon="5.82642">
        <ele>888.673491</ele>
        <time>2025-07-10T10:13:25.000Z</time>
      </trkpt>
      <trkpt lat="44.84105" lon="5.82639">
        <ele>888.731617</ele>
        <time>2025-07-10T10:13:26.000Z</time>
      </trkpt>
      <trkpt lat="44.84107" lon="5.82635">
        <ele>888.786996</ele>
        <time>2025-07-10T10:13:27.000Z</time>
      </trkpt>
      <trkpt lat="44.84109" lon="5.82632">
        <ele>888.844777</ele>
        <time>2025-07-10T10:13:28.000Z</time>
      </trkpt>
      <trkpt lat="44.84111" lon="5.82629">
        <ele>888.902297</ele>
        <time>2025-07-10T10:13:29.000Z</time>
      </trkpt>
      <trkpt lat="44.84113" lon="5.82625">
        <ele>888.957521</ele>
        <time>2025-07-10T10:13:30.000Z</time>
      </trkpt>
      <trkpt lat="44.84115" lon="5.82622">
        <ele>889.013752</ele>
        <time>2025-07-10T10:13:31.000Z</time>
      </trkpt>
      <trkpt lat="44.84117" lon="5.82618">
        <ele>889.071094</ele>
        <time>2025-07-10T10:13:32.000Z</time>
      </trkpt>
      <trkpt lat="44.84119" lon="5.82615">
        <ele>889.127287</ele>
        <time>2025-07-10T10:13:33.000Z</time>
      </trkpt>
      <trkpt lat="44.84121" lon="5.82611">
        <ele>889.187657</ele>
        <time>2025-07-10T10:13:34.000Z</time>
      </trkpt>
      <trkpt lat="44.84123" lon="5.82607">
        <ele>889.245934</ele>
        <time>2025-07-10T10:13:35.000Z</time>
      </trkpt>
      <trkpt lat="44.84125" lon="5.82603">
        <ele>889.308371</ele>
        <time>2025-07-10T10:13:36.000Z</time>
      </trkpt>
      <trkpt lat="44.84127" lon="5.82599">
        <ele>889.366712</ele>
        <time>2025-07-10T10:13:37.000Z</time>
      </trkpt>
      <trkpt lat="44.84129" lon="5.82596">
        <ele>889.42618</ele>
        <time>2025-07-10T10:13:38.000Z</time>
      </trkpt>
      <trkpt lat="44.84131" lon="5.82592">
        <ele>889.484668</ele>
        <time>2025-07-10T10:13:39.000Z</time>
      </trkpt>
      <trkpt lat="44.84133" lon="5.82589">
        <ele>889.54201</ele>
        <time>2025-07-10T10:13:40.000Z</time>
      </trkpt>
      <trkpt lat="44.84135" lon="5.82585">
        <ele>889.602468</ele>
        <time>2025-07-10T10:13:41.000Z</time>
      </trkpt>
      <trkpt lat="44.84137" lon="5.82582">
        <ele>889.661935</ele>
        <time>2025-07-10T10:13:42.000Z</time>
      </trkpt>
      <trkpt lat="44.84139" lon="5.82578">
        <ele>889.721285</ele>
        <time>2025-07-10T10:13:43.000Z</time>
      </trkpt>
      <trkpt lat="44.84141" lon="5.82574">
        <ele>889.779626</ele>
        <time>2025-07-10T10:13:44.000Z</time>
      </trkpt>
      <trkpt lat="44.84143" lon="5.82571">
        <ele>889.837967</ele>
        <time>2025-07-10T10:13:45.000Z</time>
      </trkpt>
      <trkpt lat="44.84145" lon="5.82567">
        <ele>889.896455</ele>
        <time>2025-07-10T10:13:46.000Z</time>
      </trkpt>
      <trkpt lat="44.84148" lon="5.82564">
        <ele>889.958566</ele>
        <time>2025-07-10T10:13:47.000Z</time>
      </trkpt>
      <trkpt lat="44.8415" lon="5.8256">
        <ele>890.021049</ele>
        <time>2025-07-10T10:13:48.000Z</time>
      </trkpt>
      <trkpt lat="44.84153" lon="5.82557">
        <ele>890.084423</ele>
        <time>2025-07-10T10:13:49.000Z</time>
      </trkpt>
      <trkpt lat="44.84155" lon="5.82554">
        <ele>890.142974</ele>
        <time>2025-07-10T10:13:50.000Z</time>
      </trkpt>
      <trkpt lat="44.84158" lon="5.82551">
        <ele>890.200089</ele>
        <time>2025-07-10T10:13:51.000Z</time>
      </trkpt>
      <trkpt lat="44.8416" lon="5.82548">
        <ele>890.239067</ele>
        <time>2025-07-10T10:13:52.000Z</time>
      </trkpt>
      <trkpt lat="44.84162" lon="5.82545">
        <ele>890.27773</ele>
        <time>2025-07-10T10:13:53.000Z</time>
      </trkpt>
      <trkpt lat="44.84164" lon="5.82542">
        <ele>890.317021</ele>
        <time>2025-07-10T10:13:54.000Z</time>
      </trkpt>
      <trkpt lat="44.84167" lon="5.82539">
        <ele>890.356602</ele>
        <time>2025-07-10T10:13:55.000Z</time>
      </trkpt>
      <trkpt lat="44.84169" lon="5.82536">
        <ele>890.395954</ele>
        <time>2025-07-10T10:13:56.000Z</time>
      </trkpt>
      <trkpt lat="44.84172" lon="5.82533">
        <ele>890.437425</ele>
        <time>2025-07-10T10:13:57.000Z</time>
      </trkpt>
      <trkpt lat="44.84174" lon="5.8253">
        <ele>890.477759</ele>
        <time>2025-07-10T10:13:58.000Z</time>
      </trkpt>
      <trkpt lat="44.84177" lon="5.82527">
        <ele>890.518655</ele>
        <time>2025-07-10T10:13:59.000Z</time>
      </trkpt>
      <trkpt lat="44.84179" lon="5.82524">
        <ele>890.55885</ele>
        <time>2025-07-10T10:14:00.000Z</time>
      </trkpt>
      <trkpt lat="44.84181" lon="5.82521">
        <ele>890.600577</ele>
        <time>2025-07-10T10:14:01.000Z</time>
      </trkpt>
      <trkpt lat="44.84184" lon="5.82518">
        <ele>890.641694</ele>
        <time>2025-07-10T10:14:02.000Z</time>
      </trkpt>
      <trkpt lat="44.84186" lon="5.82515">
        <ele>890.683024</ele>
        <time>2025-07-10T10:14:03.000Z</time>
      </trkpt>
      <trkpt lat="44.84189" lon="5.82512">
        <ele>890.724752</ele>
        <time>2025-07-10T10:14:04.000Z</time>
      </trkpt>
      <trkpt lat="44.84191" lon="5.82509">
        <ele>890.764946</ele>
        <time>2025-07-10T10:14:05.000Z</time>
      </trkpt>
      <trkpt lat="44.84193" lon="5.82505">
        <ele>890.807042</ele>
        <time>2025-07-10T10:14:06.000Z</time>
      </trkpt>
      <trkpt lat="44.84196" lon="5.82502">
        <ele>890.848159</ele>
        <time>2025-07-10T10:14:07.000Z</time>
      </trkpt>
      <trkpt lat="44.84198" lon="5.82499">
        <ele>890.890813</ele>
        <time>2025-07-10T10:14:08.000Z</time>
      </trkpt>
      <trkpt lat="44.842" lon="5.82496">
        <ele>890.932266</ele>
        <time>2025-07-10T10:14:09.000Z</time>
      </trkpt>
      <trkpt lat="44.84203" lon="5.82492">
        <ele>890.9735</ele>
        <time>2025-07-10T10:14:10.000Z</time>
      </trkpt>
      <trkpt lat="44.84205" lon="5.82489">
        <ele>891.016757</ele>
        <time>2025-07-10T10:14:11.000Z</time>
      </trkpt>
      <trkpt lat="44.84207" lon="5.82485">
        <ele>891.061022</ele>
        <time>2025-07-10T10:14:12.000Z</time>
      </trkpt>
      <trkpt lat="44.8421" lon="5.82481">
        <ele>891.10464</ele>
        <time>2025-07-10T10:14:13.000Z</time>
      </trkpt>
      <trkpt lat="44.84212" lon="5.82478">
        <ele>891.148719</ele>
        <time>2025-07-10T10:14:14.000Z</time>
      </trkpt>
      <trkpt lat="44.84214" lon="5.82474">
        <ele>891.192129</ele>
        <time>2025-07-10T10:14:15.000Z</time>
      </trkpt>
      <trkpt lat="44.84216" lon="5.8247">
        <ele>891.235386</ele>
        <time>2025-07-10T10:14:16.000Z</time>
      </trkpt>
      <trkpt lat="44.84219" lon="5.82467">
        <ele>891.279465</ele>
        <time>2025-07-10T10:14:17.000Z</time>
      </trkpt>
      <trkpt lat="44.84221" lon="5.82463">
        <ele>891.322214</ele>
        <time>2025-07-10T10:14:18.000Z</time>
      </trkpt>
      <trkpt lat="44.84223" lon="5.8246">
        <ele>891.36431</ele>
        <time>2025-07-10T10:14:19.000Z</time>
      </trkpt>
      <trkpt lat="44.84226" lon="5.82456">
        <ele>891.407058</ele>
        <time>2025-07-10T10:14:20.000Z</time>
      </trkpt>
      <trkpt lat="44.84228" lon="5.82453">
        <ele>891.450468</ele>
        <time>2025-07-10T10:14:21.000Z</time>
      </trkpt>
      <trkpt lat="44.8423" lon="5.82449">
        <ele>891.494548</ele>
        <time>2025-07-10T10:14:22.000Z</time>
      </trkpt>
      <trkpt lat="44.84232" lon="5.82445">
        <ele>891.537707</ele>
        <time>2025-07-10T10:14:23.000Z</time>
      </trkpt>
      <trkpt lat="44.84235" lon="5.82442">
        <ele>891.581786</ele>
        <time>2025-07-10T10:14:24.000Z</time>
      </trkpt>
      <trkpt lat="44.84237" lon="5.82438">
        <ele>891.625866</ele>
        <time>2025-07-10T10:14:25.000Z</time>
      </trkpt>
      <trkpt lat="44.84239" lon="5.82434">
        <ele>891.670788</ele>
        <time>2025-07-10T10:14:26.000Z</time>
      </trkpt>
      <trkpt lat="44.84242" lon="5.8243">
        <ele>891.71571</ele>
        <time>2025-07-10T10:14:27.000Z</time>
      </trkpt>
      <trkpt lat="44.84244" lon="5.82427">
        <ele>891.760632</ele>
        <time>2025-07-10T10:14:28.000Z</time>
      </trkpt>
      <trkpt lat="44.84247" lon="5.82423">
        <ele>891.804898</ele>
        <time>2025-07-10T10:14:29.000Z</time>
      </trkpt>
      <trkpt lat="44.84249" lon="5.8242">
        <ele>891.849694</ele>
        <time>2025-07-10T10:14:30.000Z</time>
      </trkpt>
      <trkpt lat="44.84252" lon="5.82416">
        <ele>891.893959</ele>
        <time>2025-07-10T10:14:31.000Z</time>
      </trkpt>
      <trkpt lat="44.84254" lon="5.82412">
        <ele>891.938882</ele>
        <time>2025-07-10T10:14:32.000Z</time>
      </trkpt>
      <trkpt lat="44.84256" lon="5.82409">
        <ele>891.985142</ele>
        <time>2025-07-10T10:14:33.000Z</time>
      </trkpt>
      <trkpt lat="44.84259" lon="5.82405">
        <ele>892.029407</ele>
        <time>2025-07-10T10:14:34.000Z</time>
      </trkpt>
      <trkpt lat="44.84261" lon="5.82401">
        <ele>892.073912</ele>
        <time>2025-07-10T10:14:35.000Z</time>
      </trkpt>
      <trkpt lat="44.84264" lon="5.82398">
        <ele>892.117991</ele>
        <time>2025-07-10T10:14:36.000Z</time>
      </trkpt>
      <trkpt lat="44.84266" lon="5.82394">
        <ele>892.161401</ele>
        <time>2025-07-10T10:14:37.000Z</time>
      </trkpt>
      <trkpt lat="44.84268" lon="5.82391">
        <ele>892.205018</ele>
        <time>2025-07-10T10:14:38.000Z</time>
      </trkpt>
      <trkpt lat="44.84271" lon="5.82387">
        <ele>892.247766</ele>
        <time>2025-07-10T10:14:39.000Z</time>
      </trkpt>
      <trkpt lat="44.84273" lon="5.82383">
        <ele>892.293208</ele>
        <time>2025-07-10T10:14:40.000Z</time>
      </trkpt>
      <trkpt lat="44.84275" lon="5.82379">
        <ele>892.337964</ele>
        <time>2025-07-10T10:14:41.000Z</time>
      </trkpt>
      <trkpt lat="44.84277" lon="5.82376">
        <ele>892.38006</ele>
        <time>2025-07-10T10:14:42.000Z</time>
      </trkpt>
      <trkpt lat="44.8428" lon="5.82372">
        <ele>892.42347</ele>
        <time>2025-07-10T10:14:43.000Z</time>
      </trkpt>
      <trkpt lat="44.84282" lon="5.82369">
        <ele>892.465407</ele>
        <time>2025-07-10T10:14:44.000Z</time>
      </trkpt>
      <trkpt lat="44.84284" lon="5.82365">
        <ele>892.485663</ele>
        <time>2025-07-10T10:14:45.000Z</time>
      </trkpt>
      <trkpt lat="44.84286" lon="5.82362">
        <ele>892.506572</ele>
        <time>2025-07-10T10:14:46.000Z</time>
      </trkpt>
      <trkpt lat="44.84288" lon="5.82358">
        <ele>892.527086</ele>
        <time>2025-07-10T10:14:47.000Z</time>
      </trkpt>
      <trkpt lat="44.84291" lon="5.82354">
        <ele>892.548327</ele>
        <time>2025-07-10T10:14:48.000Z</time>
      </trkpt>
      <trkpt lat="44.84293" lon="5.8235">
        <ele>892.56954</ele>
        <time>2025-07-10T10:14:49.000Z</time>
      </trkpt>
      <trkpt lat="44.84295" lon="5.82346">
        <ele>892.591454</ele>
        <time>2025-07-10T10:14:50.000Z</time>
      </trkpt>
      <trkpt lat="44.84297" lon="5.82342">
        <ele>892.613011</ele>
        <time>2025-07-10T10:14:51.000Z</time>
      </trkpt>
      <trkpt lat="44.84299" lon="5.82337">
        <ele>892.634574</ele>
        <time>2025-07-10T10:14:52.000Z</time>
      </trkpt>
      <trkpt lat="44.84301" lon="5.82333">
        <ele>892.656136</ele>
        <time>2025-07-10T10:14:53.000Z</time>
      </trkpt>
      <trkpt lat="44.84303" lon="5.82329">
        <ele>892.67737</ele>
        <time>2025-07-10T10:14:54.000Z</time>
      </trkpt>
      <trkpt lat="44.84305" lon="5.82325">
        <ele>892.698652</ele>
        <time>2025-07-10T10:14:55.000Z</time>
      </trkpt>
      <trkpt lat="44.84307" lon="5.8232">
        <ele>892.720303</ele>
        <time>2025-07-10T10:14:56.000Z</time>
      </trkpt>
      <trkpt lat="44.84308" lon="5.82316">
        <ele>892.741953</ele>
        <time>2025-07-10T10:14:57.000Z</time>
      </trkpt>
      <trkpt lat="44.8431" lon="5.82311">
        <ele>892.764062</ele>
        <time>2025-07-10T10:14:58.000Z</time>
      </trkpt>
      <trkpt lat="44.84312" lon="5.82307">
        <ele>892.78487</ele>
        <time>2025-07-10T10:14:59.000Z</time>
      </trkpt>
      <trkpt lat="44.84313" lon="5.82302">
        <ele>892.805814</ele>
        <time>2025-07-10T10:15:00.000Z</time>
      </trkpt>
      <trkpt lat="44.84314" lon="5.82298">
        <ele>892.827393</ele>
        <time>2025-07-10T10:15:01.000Z</time>
      </trkpt>
      <trkpt lat="44.84316" lon="5.82293">
        <ele>892.848499</ele>
        <time>2025-07-10T10:15:02.000Z</time>
      </trkpt>
      <trkpt lat="44.84317" lon="5.82288">
        <ele>892.87</ele>
        <time>2025-07-10T10:15:03.000Z</time>
      </trkpt>
      <trkpt lat="44.84319" lon="5.82284">
        <ele>892.891968</ele>
        <time>2025-07-10T10:15:04.000Z</time>
      </trkpt>
      <trkpt lat="44.8432" lon="5.82279">
        <ele>892.91496</ele>
        <time>2025-07-10T10:15:05.000Z</time>
      </trkpt>
      <trkpt lat="44.84322" lon="5.82274">
        <ele>892.937081</ele>
        <time>2025-07-10T10:15:06.000Z</time>
      </trkpt>
      <trkpt lat="44.84323" lon="5.82269">
        <ele>892.959597</ele>
        <time>2025-07-10T10:15:07.000Z</time>
      </trkpt>
      <trkpt lat="44.84324" lon="5.82264">
        <ele>892.982094</ele>
        <time>2025-07-10T10:15:08.000Z</time>
      </trkpt>
      <trkpt lat="44.84325" lon="5.82259">
        <ele>893.004189</ele>
        <time>2025-07-10T10:15:09.000Z</time>
      </trkpt>
      <trkpt lat="44.84327" lon="5.82255">
        <ele>893.025916</ele>
        <time>2025-07-10T10:15:10.000Z</time>
      </trkpt>
      <trkpt lat="44.84328" lon="5.8225">
        <ele>893.048037</ele>
        <time>2025-07-10T10:15:11.000Z</time>
      </trkpt>
      <trkpt lat="44.84329" lon="5.82245">
        <ele>893.069539</ele>
        <time>2025-07-10T10:15:12.000Z</time>
      </trkpt>
      <trkpt lat="44.84331" lon="5.8224">
        <ele>893.09083</ele>
        <time>2025-07-10T10:15:13.000Z</time>
      </trkpt>
      <trkpt lat="44.84332" lon="5.82236">
        <ele>893.11212</ele>
        <time>2025-07-10T10:15:14.000Z</time>
      </trkpt>
      <trkpt lat="44.84333" lon="5.82231">
        <ele>893.133411</ele>
        <time>2025-07-10T10:15:15.000Z</time>
      </trkpt>
      <trkpt lat="44.84334" lon="5.82226">
        <ele>893.154101</ele>
        <time>2025-07-10T10:15:16.000Z</time>
      </trkpt>
      <trkpt lat="44.84335" lon="5.82222">
        <ele>893.175603</ele>
        <time>2025-07-10T10:15:17.000Z</time>
      </trkpt>
      <trkpt lat="44.84337" lon="5.82217">
        <ele>893.19757</ele>
        <time>2025-07-10T10:15:18.000Z</time>
      </trkpt>
      <trkpt lat="44.84338" lon="5.82212">
        <ele>893.219262</ele>
        <time>2025-07-10T10:15:19.000Z</time>
      </trkpt>
      <trkpt lat="44.84339" lon="5.82207">
        <ele>893.24176</ele>
        <time>2025-07-10T10:15:20.000Z</time>
      </trkpt>
      <trkpt lat="44.84341" lon="5.82202">
        <ele>893.263452</ele>
        <time>2025-07-10T10:15:21.000Z</time>
      </trkpt>
      <trkpt lat="44.84342" lon="5.82198">
        <ele>893.285573</ele>
        <time>2025-07-10T10:15:22.000Z</time>
      </trkpt>
      <trkpt lat="44.84343" lon="5.82193">
        <ele>893.307265</ele>
        <time>2025-07-10T10:15:23.000Z</time>
      </trkpt>
      <trkpt lat="44.84344" lon="5.82188">
        <ele>893.328556</ele>
        <time>2025-07-10T10:15:24.000Z</time>
      </trkpt>
      <trkpt lat="44.84346" lon="5.82183">
        <ele>893.349661</ele>
        <time>2025-07-10T10:15:25.000Z</time>
      </trkpt>
      <trkpt lat="44.84347" lon="5.82179">
        <ele>893.370551</ele>
        <time>2025-07-10T10:15:26.000Z</time>
      </trkpt>
      <trkpt lat="44.84348" lon="5.82174">
        <ele>893.392053</ele>
        <time>2025-07-10T10:15:27.000Z</time>
      </trkpt>
      <trkpt lat="44.84349" lon="5.82169">
        <ele>893.413952</ele>
        <time>2025-07-10T10:15:28.000Z</time>
      </trkpt>
      <trkpt lat="44.84351" lon="5.82165">
        <ele>893.435453</ele>
        <time>2025-07-10T10:15:29.000Z</time>
      </trkpt>
      <trkpt lat="44.84352" lon="5.8216">
        <ele>893.457751</ele>
        <time>2025-07-10T10:15:30.000Z</time>
      </trkpt>
      <trkpt lat="44.84353" lon="5.82155">
        <ele>893.479042</ele>
        <time>2025-07-10T10:15:31.000Z</time>
      </trkpt>
      <trkpt lat="44.84355" lon="5.8215">
        <ele>893.500544</ele>
        <time>2025-07-10T10:15:32.000Z</time>
      </trkpt>
      <trkpt lat="44.84356" lon="5.82145">
        <ele>893.522275</ele>
        <time>2025-07-10T10:15:33.000Z</time>
      </trkpt>
      <trkpt lat="44.84357" lon="5.8214">
        <ele>893.544588</ele>
        <time>2025-07-10T10:15:34.000Z</time>
      </trkpt>
      <trkpt lat="44.84358" lon="5.82136">
        <ele>893.580835</ele>
        <time>2025-07-10T10:15:35.000Z</time>
      </trkpt>
      <trkpt lat="44.84359" lon="5.82131">
        <ele>893.616356</ele>
        <time>2025-07-10T10:15:36.000Z</time>
      </trkpt>
      <trkpt lat="44.8436" lon="5.82126">
        <ele>893.652159</ele>
        <time>2025-07-10T10:15:37.000Z</time>
      </trkpt>
      <trkpt lat="44.84361" lon="5.82122">
        <ele>893.6862</ele>
        <time>2025-07-10T10:15:38.000Z</time>
      </trkpt>
      <trkpt lat="44.84362" lon="5.82117">
        <ele>893.719912</ele>
        <time>2025-07-10T10:15:39.000Z</time>
      </trkpt>
      <trkpt lat="44.84363" lon="5.82113">
        <ele>893.75447</ele>
        <time>2025-07-10T10:15:40.000Z</time>
      </trkpt>
      <trkpt lat="44.84363" lon="5.82108">
        <ele>893.788084</ele>
        <time>2025-07-10T10:15:41.000Z</time>
      </trkpt>
      <trkpt lat="44.84364" lon="5.82104">
        <ele>893.821933</ele>
        <time>2025-07-10T10:15:42.000Z</time>
      </trkpt>
      <trkpt lat="44.84365" lon="5.82099">
        <ele>893.855974</ele>
        <time>2025-07-10T10:15:43.000Z</time>
      </trkpt>
      <trkpt lat="44.84366" lon="5.82095">
        <ele>893.890791</ele>
        <time>2025-07-10T10:15:44.000Z</time>
      </trkpt>
      <trkpt lat="44.84367" lon="5.8209">
        <ele>893.924917</ele>
        <time>2025-07-10T10:15:45.000Z</time>
      </trkpt>
      <trkpt lat="44.84367" lon="5.82086">
        <ele>893.958325</ele>
        <time>2025-07-10T10:15:46.000Z</time>
      </trkpt>
      <trkpt lat="44.84368" lon="5.82081">
        <ele>893.992883</ele>
        <time>2025-07-10T10:15:47.000Z</time>
      </trkpt>
      <trkpt lat="44.84369" lon="5.82077">
        <ele>894.026732</ele>
        <time>2025-07-10T10:15:48.000Z</time>
      </trkpt>
      <trkpt lat="44.8437" lon="5.82072">
        <ele>894.060846</ele>
        <time>2025-07-10T10:15:49.000Z</time>
      </trkpt>
      <trkpt lat="44.84371" lon="5.82068">
        <ele>894.094696</ele>
        <time>2025-07-10T10:15:50.000Z</time>
      </trkpt>
      <trkpt lat="44.84371" lon="5.82063">
        <ele>894.129023</ele>
        <time>2025-07-10T10:15:51.000Z</time>
      </trkpt>
      <trkpt lat="44.84372" lon="5.82058">
        <ele>894.163149</ele>
        <time>2025-07-10T10:15:52.000Z</time>
      </trkpt>
      <trkpt lat="44.84373" lon="5.82054">
        <ele>894.197992</ele>
        <time>2025-07-10T10:15:53.000Z</time>
      </trkpt>
      <trkpt lat="44.84373" lon="5.82049">
        <ele>894.231947</ele>
        <time>2025-07-10T10:15:54.000Z</time>
      </trkpt>
      <trkpt lat="44.84374" lon="5.82045">
        <ele>894.266505</ele>
        <time>2025-07-10T10:15:55.000Z</time>
      </trkpt>
      <trkpt lat="44.84374" lon="5.8204">
        <ele>894.299913</ele>
        <time>2025-07-10T10:15:56.000Z</time>
      </trkpt>
      <trkpt lat="44.84375" lon="5.82036">
        <ele>894.333322</ele>
        <time>2025-07-10T10:15:57.000Z</time>
      </trkpt>
      <trkpt lat="44.84376" lon="5.82031">
        <ele>894.366936</ele>
        <time>2025-07-10T10:15:58.000Z</time>
      </trkpt>
      <trkpt lat="44.84376" lon="5.82027">
        <ele>894.400344</ele>
        <time>2025-07-10T10:15:59.000Z</time>
      </trkpt>
      <trkpt lat="44.84377" lon="5.82022">
        <ele>894.433753</ele>
        <time>2025-07-10T10:16:00.000Z</time>
      </trkpt>
      <trkpt lat="44.84377" lon="5.82018">
        <ele>894.466266</ele>
        <time>2025-07-10T10:16:01.000Z</time>
      </trkpt>
      <trkpt lat="44.84378" lon="5.82013">
        <ele>894.498779</ele>
        <time>2025-07-10T10:16:02.000Z</time>
      </trkpt>
      <trkpt lat="44.84379" lon="5.82009">
        <ele>894.532187</ele>
        <time>2025-07-10T10:16:03.000Z</time>
      </trkpt>
      <trkpt lat="44.84379" lon="5.82004">
        <ele>894.566726</ele>
        <time>2025-07-10T10:16:04.000Z</time>
      </trkpt>
      <trkpt lat="44.84379" lon="5.81999">
        <ele>894.60054</ele>
        <time>2025-07-10T10:16:05.000Z</time>
      </trkpt>
      <trkpt lat="44.8438" lon="5.81995">
        <ele>894.634154</ele>
        <time>2025-07-10T10:16:06.000Z</time>
      </trkpt>
      <trkpt lat="44.84381" lon="5.81991">
        <ele>894.667296</ele>
        <time>2025-07-10T10:16:07.000Z</time>
      </trkpt>
      <trkpt lat="44.84381" lon="5.81986">
        <ele>894.699987</ele>
        <time>2025-07-10T10:16:08.000Z</time>
      </trkpt>
      <trkpt lat="44.84382" lon="5.81982">
        <ele>894.734113</ele>
        <time>2025-07-10T10:16:09.000Z</time>
      </trkpt>
      <trkpt lat="44.84383" lon="5.81977">
        <ele>894.768068</ele>
        <time>2025-07-10T10:16:10.000Z</time>
      </trkpt>
      <trkpt lat="44.84383" lon="5.81972">
        <ele>894.803109</ele>
        <time>2025-07-10T10:16:11.000Z</time>
      </trkpt>
      <trkpt lat="44.84384" lon="5.81967">
        <ele>894.839389</ele>
        <time>2025-07-10T10:16:12.000Z</time>
      </trkpt>
      <trkpt lat="44.84384" lon="5.81962">
        <ele>894.875509</ele>
        <time>2025-07-10T10:16:13.000Z</time>
      </trkpt>
      <trkpt lat="44.84385" lon="5.81958">
        <ele>894.911071</ele>
        <time>2025-07-10T10:16:14.000Z</time>
      </trkpt>
      <trkpt lat="44.84386" lon="5.81953">
        <ele>894.946633</ele>
        <time>2025-07-10T10:16:15.000Z</time>
      </trkpt>
      <trkpt lat="44.84386" lon="5.81948">
        <ele>894.982388</ele>
        <time>2025-07-10T10:16:16.000Z</time>
      </trkpt>
      <trkpt lat="44.84387" lon="5.81943">
        <ele>895.016819</ele>
        <time>2025-07-10T10:16:17.000Z</time>
      </trkpt>
      <trkpt lat="44.84387" lon="5.81939">
        <ele>895.051357</ele>
        <time>2025-07-10T10:16:18.000Z</time>
      </trkpt>
      <trkpt lat="44.84388" lon="5.81934">
        <ele>895.087112</ele>
        <time>2025-07-10T10:16:19.000Z</time>
      </trkpt>
      <trkpt lat="44.84388" lon="5.81929">
        <ele>895.12167</ele>
        <time>2025-07-10T10:16:20.000Z</time>
      </trkpt>
      <trkpt lat="44.84389" lon="5.81925">
        <ele>895.156227</ele>
        <time>2025-07-10T10:16:21.000Z</time>
      </trkpt>
      <trkpt lat="44.8439" lon="5.8192">
        <ele>895.191494</ele>
        <time>2025-07-10T10:16:22.000Z</time>
      </trkpt>
      <trkpt lat="44.84391" lon="5.81915">
        <ele>895.226534</ele>
        <time>2025-07-10T10:16:23.000Z</time>
      </trkpt>
      <trkpt lat="44.84391" lon="5.8191">
        <ele>895.262096</ele>
        <time>2025-07-10T10:16:24.000Z</time>
      </trkpt>
      <trkpt lat="44.84392" lon="5.81906">
        <ele>895.297137</ele>
        <time>2025-07-10T10:16:25.000Z</time>
      </trkpt>
      <trkpt lat="44.84393" lon="5.81901">
        <ele>895.332891</ele>
        <time>2025-07-10T10:16:26.000Z</time>
      </trkpt>
      <trkpt lat="44.84393" lon="5.81896">
        <ele>895.367932</ele>
        <time>2025-07-10T10:16:27.000Z</time>
      </trkpt>
      <trkpt lat="44.84394" lon="5.81891">
        <ele>895.402815</ele>
        <time>2025-07-10T10:16:28.000Z</time>
      </trkpt>
      <trkpt lat="44.84395" lon="5.81887">
        <ele>895.433039</ele>
        <time>2025-07-10T10:16:29.000Z</time>
      </trkpt>
      <trkpt lat="44.84395" lon="5.81882">
        <ele>895.464014</ele>
        <time>2025-07-10T10:16:30.000Z</time>
      </trkpt>
      <trkpt lat="44.84396" lon="5.81877">
        <ele>895.494358</ele>
        <time>2025-07-10T10:16:31.000Z</time>
      </trkpt>
      <trkpt lat="44.84396" lon="5.81873">
        <ele>895.524221</ele>
        <time>2025-07-10T10:16:32.000Z</time>
      </trkpt>
      <trkpt lat="44.84397" lon="5.81868">
        <ele>895.555081</ele>
        <time>2025-07-10T10:16:33.000Z</time>
      </trkpt>
      <trkpt lat="44.84398" lon="5.81863">
        <ele>895.584944</ele>
        <time>2025-07-10T10:16:34.000Z</time>
      </trkpt>
      <trkpt lat="44.84398" lon="5.81859">
        <ele>895.615288</ele>
        <time>2025-07-10T10:16:35.000Z</time>
      </trkpt>
      <trkpt lat="44.84399" lon="5.81854">
        <ele>895.646407</ele>
        <time>2025-07-10T10:16:36.000Z</time>
      </trkpt>
      <trkpt lat="44.84399" lon="5.81849">
        <ele>895.677526</ele>
        <time>2025-07-10T10:16:37.000Z</time>
      </trkpt>
      <trkpt lat="44.844" lon="5.81844">
        <ele>895.707238</ele>
        <time>2025-07-10T10:16:38.000Z</time>
      </trkpt>
      <trkpt lat="44.844" lon="5.8184">
        <ele>895.736951</ele>
        <time>2025-07-10T10:16:39.000Z</time>
      </trkpt>
      <trkpt lat="44.84401" lon="5.81835">
        <ele>895.766664</ele>
        <time>2025-07-10T10:16:40.000Z</time>
      </trkpt>
      <trkpt lat="44.84401" lon="5.81831">
        <ele>895.795745</ele>
        <time>2025-07-10T10:16:41.000Z</time>
      </trkpt>
      <trkpt lat="44.84402" lon="5.81826">
        <ele>895.825608</ele>
        <time>2025-07-10T10:16:42.000Z</time>
      </trkpt>
      <trkpt lat="44.84402" lon="5.81822">
        <ele>895.854059</ele>
        <time>2025-07-10T10:16:43.000Z</time>
      </trkpt>
      <trkpt lat="44.84403" lon="5.81817">
        <ele>895.88188</ele>
        <time>2025-07-10T10:16:44.000Z</time>
      </trkpt>
      <trkpt lat="44.84403" lon="5.81813">
        <ele>895.908756</ele>
        <time>2025-07-10T10:16:45.000Z</time>
      </trkpt>
      <trkpt lat="44.84403" lon="5.81809">
        <ele>895.936269</ele>
        <time>2025-07-10T10:16:46.000Z</time>
      </trkpt>
      <trkpt lat="44.84404" lon="5.81805">
        <ele>895.964491</ele>
        <time>2025-07-10T10:16:47.000Z</time>
      </trkpt>
      <trkpt lat="44.84404" lon="5.818">
        <ele>895.99519</ele>
        <time>2025-07-10T10:16:48.000Z</time>
      </trkpt>
      <trkpt lat="44.84404" lon="5.81795">
        <ele>896.026488</ele>
        <time>2025-07-10T10:16:49.000Z</time>
      </trkpt>
      <trkpt lat="44.84404" lon="5.8179">
        <ele>896.056496</ele>
        <time>2025-07-10T10:16:50.000Z</time>
      </trkpt>
      <trkpt lat="44.84403" lon="5.81785">
        <ele>896.087472</ele>
        <time>2025-07-10T10:16:51.000Z</time>
      </trkpt>
      <trkpt lat="44.84403" lon="5.8178">
        <ele>896.119849</ele>
        <time>2025-07-10T10:16:52.000Z</time>
      </trkpt>
      <trkpt lat="44.84402" lon="5.81776">
        <ele>896.150825</ele>
        <time>2025-07-10T10:16:53.000Z</time>
      </trkpt>
      <trkpt lat="44.84401" lon="5.8177">
        <ele>896.183832</ele>
        <time>2025-07-10T10:16:54.000Z</time>
      </trkpt>
      <trkpt lat="44.84401" lon="5.81765">
        <ele>896.217181</ele>
        <time>2025-07-10T10:16:55.000Z</time>
      </trkpt>
      <trkpt lat="44.844" lon="5.8176">
        <ele>896.25053</ele>
        <time>2025-07-10T10:16:56.000Z</time>
      </trkpt>
      <trkpt lat="44.84399" lon="5.81755">
        <ele>896.284951</ele>
        <time>2025-07-10T10:16:57.000Z</time>
      </trkpt>
      <trkpt lat="44.84398" lon="5.8175">
        <ele>896.318745</ele>
        <time>2025-07-10T10:16:58.000Z</time>
      </trkpt>
      <trkpt lat="44.84398" lon="5.81745">
        <ele>896.352382</ele>
        <time>2025-07-10T10:16:59.000Z</time>
      </trkpt>
      <trkpt lat="44.84397" lon="5.81739">
        <ele>896.38764</ele>
        <time>2025-07-10T10:17:00.000Z</time>
      </trkpt>
      <trkpt lat="44.84396" lon="5.81734">
        <ele>896.421424</ele>
        <time>2025-07-10T10:17:01.000Z</time>
      </trkpt>
      <trkpt lat="44.84395" lon="5.81729">
        <ele>896.455397</ele>
        <time>2025-07-10T10:17:02.000Z</time>
      </trkpt>
      <trkpt lat="44.84394" lon="5.81724">
        <ele>896.488953</ele>
        <time>2025-07-10T10:17:03.000Z</time>
      </trkpt>
      <trkpt lat="44.84393" lon="5.81719">
        <ele>896.523261</ele>
        <time>2025-07-10T10:17:04.000Z</time>
      </trkpt>
      <trkpt lat="44.84392" lon="5.81714">
        <ele>896.556964</ele>
        <time>2025-07-10T10:17:05.000Z</time>
      </trkpt>
      <trkpt lat="44.8439" lon="5.81709">
        <ele>896.590966</ele>
        <time>2025-07-10T10:17:06.000Z</time>
      </trkpt>
      <trkpt lat="44.84389" lon="5.81704">
        <ele>896.625612</ele>
        <time>2025-07-10T10:17:07.000Z</time>
      </trkpt>
      <trkpt lat="44.84388" lon="5.81698">
        <ele>896.660871</ele>
        <time>2025-07-10T10:17:08.000Z</time>
      </trkpt>
      <trkpt lat="44.84387" lon="5.81693">
        <ele>896.694906</ele>
        <time>2025-07-10T10:17:09.000Z</time>
      </trkpt>
      <trkpt lat="44.84386" lon="5.81688">
        <ele>896.729214</ele>
        <time>2025-07-10T10:17:10.000Z</time>
      </trkpt>
      <trkpt lat="44.84385" lon="5.81683">
        <ele>896.76325</ele>
        <time>2025-07-10T10:17:11.000Z</time>
      </trkpt>
      <trkpt lat="44.84384" lon="5.81678">
        <ele>896.796805</ele>
        <time>2025-07-10T10:17:12.000Z</time>
      </trkpt>
      <trkpt lat="44.84383" lon="5.81673">
        <ele>896.830778</ele>
        <time>2025-07-10T10:17:13.000Z</time>
      </trkpt>
      <trkpt lat="44.84382" lon="5.81667">
        <ele>896.866412</ele>
        <time>2025-07-10T10:17:14.000Z</time>
      </trkpt>
      <trkpt lat="44.84381" lon="5.81662">
        <ele>896.901829</ele>
        <time>2025-07-10T10:17:15.000Z</time>
      </trkpt>
      <trkpt lat="44.8438" lon="5.81657">
        <ele>896.935178</ele>
        <time>2025-07-10T10:17:16.000Z</time>
      </trkpt>
      <trkpt lat="44.8438" lon="5.81651">
        <ele>896.970227</ele>
        <time>2025-07-10T10:17:17.000Z</time>
      </trkpt>
      <trkpt lat="44.84379" lon="5.81646">
        <ele>897.006898</ele>
        <time>2025-07-10T10:17:18.000Z</time>
      </trkpt>
      <trkpt lat="44.84379" lon="5.8164">
        <ele>897.044107</ele>
        <time>2025-07-10T10:17:19.000Z</time>
      </trkpt>
      <trkpt lat="44.84379" lon="5.81635">
        <ele>897.083521</ele>
        <time>2025-07-10T10:17:20.000Z</time>
      </trkpt>
      <trkpt lat="44.84379" lon="5.81629">
        <ele>897.122182</ele>
        <time>2025-07-10T10:17:21.000Z</time>
      </trkpt>
      <trkpt lat="44.84379" lon="5.81624">
        <ele>897.157328</ele>
        <time>2025-07-10T10:17:22.000Z</time>
      </trkpt>
      <trkpt lat="44.84379" lon="5.81619">
        <ele>897.192489</ele>
        <time>2025-07-10T10:17:23.000Z</time>
      </trkpt>
      <trkpt lat="44.84379" lon="5.81614">
        <ele>897.228461</ele>
        <time>2025-07-10T10:17:24.000Z</time>
      </trkpt>
      <trkpt lat="44.84379" lon="5.81609">
        <ele>897.265134</ele>
        <time>2025-07-10T10:17:25.000Z</time>
      </trkpt>
      <trkpt lat="44.8438" lon="5.81604">
        <ele>897.299706</ele>
        <time>2025-07-10T10:17:26.000Z</time>
      </trkpt>
      <trkpt lat="44.8438" lon="5.81599">
        <ele>897.335896</ele>
        <time>2025-07-10T10:17:27.000Z</time>
      </trkpt>
      <trkpt lat="44.84381" lon="5.81594">
        <ele>897.372783</ele>
        <time>2025-07-10T10:17:28.000Z</time>
      </trkpt>
      <trkpt lat="44.84381" lon="5.81588">
        <ele>897.409669</ele>
        <time>2025-07-10T10:17:29.000Z</time>
      </trkpt>
      <trkpt lat="44.84382" lon="5.81583">
        <ele>897.447396</ele>
        <time>2025-07-10T10:17:30.000Z</time>
      </trkpt>
      <trkpt lat="44.84382" lon="5.81578">
        <ele>897.484429</ele>
        <time>2025-07-10T10:17:31.000Z</time>
      </trkpt>
      <trkpt lat="44.84383" lon="5.81573">
        <ele>897.520769</ele>
        <time>2025-07-10T10:17:32.000Z</time>
      </trkpt>
      <trkpt lat="44.84384" lon="5.81568">
        <ele>897.557485</ele>
        <time>2025-07-10T10:17:33.000Z</time>
      </trkpt>
      <trkpt lat="44.84384" lon="5.81563">
        <ele>897.594201</ele>
        <time>2025-07-10T10:17:34.000Z</time>
      </trkpt>
      <trkpt lat="44.84385" lon="5.81558">
        <ele>897.630231</ele>
        <time>2025-07-10T10:17:35.000Z</time>
      </trkpt>
      <trkpt lat="44.84386" lon="5.81553">
        <ele>897.666056</ele>
        <time>2025-07-10T10:17:36.000Z</time>
      </trkpt>
      <trkpt lat="44.84387" lon="5.81548">
        <ele>897.702395</ele>
        <time>2025-07-10T10:17:37.000Z</time>
      </trkpt>
      <trkpt lat="44.84387" lon="5.81542">
        <ele>897.738735</ele>
        <time>2025-07-10T10:17:38.000Z</time>
      </trkpt>
      <trkpt lat="44.84388" lon="5.81537">
        <ele>897.774381</ele>
        <time>2025-07-10T10:17:39.000Z</time>
      </trkpt>
      <trkpt lat="44.84388" lon="5.81533">
        <ele>897.809516</ele>
        <time>2025-07-10T10:17:40.000Z</time>
      </trkpt>
      <trkpt lat="44.84389" lon="5.81528">
        <ele>897.844652</ele>
        <time>2025-07-10T10:17:41.000Z</time>
      </trkpt>
      <trkpt lat="44.8439" lon="5.81523">
        <ele>897.880682</ele>
        <time>2025-07-10T10:17:42.000Z</time>
      </trkpt>
      <trkpt lat="44.84391" lon="5.81518">
        <ele>897.916328</ele>
        <time>2025-07-10T10:17:43.000Z</time>
      </trkpt>
      <trkpt lat="44.84391" lon="5.81513">
        <ele>897.951281</ele>
        <time>2025-07-10T10:17:44.000Z</time>
      </trkpt>
      <trkpt lat="44.84392" lon="5.81508">
        <ele>897.986234</ele>
        <time>2025-07-10T10:17:45.000Z</time>
      </trkpt>
      <trkpt lat="44.84392" lon="5.81503">
        <ele>898.02137</ele>
        <time>2025-07-10T10:17:46.000Z</time>
      </trkpt>
      <trkpt lat="44.84393" lon="5.81498">
        <ele>898.055631</ele>
        <time>2025-07-10T10:17:47.000Z</time>
      </trkpt>
      <trkpt lat="44.84394" lon="5.81493">
        <ele>898.091892</ele>
        <time>2025-07-10T10:17:48.000Z</time>
      </trkpt>
      <trkpt lat="44.84395" lon="5.81488">
        <ele>898.127922</ele>
        <time>2025-07-10T10:17:49.000Z</time>
      </trkpt>
      <trkpt lat="44.84395" lon="5.81483">
        <ele>898.165127</ele>
        <time>2025-07-10T10:17:50.000Z</time>
      </trkpt>
      <trkpt lat="44.84396" lon="5.81478">
        <ele>898.200773</ele>
        <time>2025-07-10T10:17:51.000Z</time>
      </trkpt>
      <trkpt lat="44.84397" lon="5.81473">
        <ele>898.237489</ele>
        <time>2025-07-10T10:17:52.000Z</time>
      </trkpt>
      <trkpt lat="44.84398" lon="5.81468">
        <ele>898.274694</ele>
        <time>2025-07-10T10:17:53.000Z</time>
      </trkpt>
      <trkpt lat="44.84398" lon="5.81463">
        <ele>898.311208</ele>
        <time>2025-07-10T10:17:54.000Z</time>
      </trkpt>
      <trkpt lat="44.84399" lon="5.81458">
        <ele>898.347033</ele>
        <time>2025-07-10T10:17:55.000Z</time>
      </trkpt>
      <trkpt lat="44.844" lon="5.81453">
        <ele>898.382169</ele>
        <time>2025-07-10T10:17:56.000Z</time>
      </trkpt>
      <trkpt lat="44.844" lon="5.81448">
        <ele>898.417815</ele>
        <time>2025-07-10T10:17:57.000Z</time>
      </trkpt>
      <trkpt lat="44.84401" lon="5.81443">
        <ele>898.454154</ele>
        <time>2025-07-10T10:17:58.000Z</time>
      </trkpt>
      <trkpt lat="44.84401" lon="5.81438">
        <ele>898.4898</ele>
        <time>2025-07-10T10:17:59.000Z</time>
      </trkpt>
      <trkpt lat="44.84402" lon="5.81433">
        <ele>898.525446</ele>
        <time>2025-07-10T10:18:00.000Z</time>
      </trkpt>
      <trkpt lat="44.84403" lon="5.81428">
        <ele>898.560399</ele>
        <time>2025-07-10T10:18:01.000Z</time>
      </trkpt>
      <trkpt lat="44.84403" lon="5.81423">
        <ele>898.594846</ele>
        <time>2025-07-10T10:18:02.000Z</time>
      </trkpt>
      <trkpt lat="44.84404" lon="5.81418">
        <ele>898.629981</ele>
        <time>2025-07-10T10:18:03.000Z</time>
      </trkpt>
      <trkpt lat="44.84405" lon="5.81413">
        <ele>898.665806</ele>
        <time>2025-07-10T10:18:04.000Z</time>
      </trkpt>
      <trkpt lat="44.84405" lon="5.81408">
        <ele>898.700941</ele>
        <time>2025-07-10T10:18:05.000Z</time>
      </trkpt>
      <trkpt lat="44.84406" lon="5.81403">
        <ele>898.736077</ele>
        <time>2025-07-10T10:18:06.000Z</time>
      </trkpt>
      <trkpt lat="44.84407" lon="5.81398">
        <ele>898.771212</ele>
        <time>2025-07-10T10:18:07.000Z</time>
      </trkpt>
      <trkpt lat="44.84407" lon="5.81393">
        <ele>898.79601</ele>
        <time>2025-07-10T10:18:08.000Z</time>
      </trkpt>
      <trkpt lat="44.84408" lon="5.81388">
        <ele>898.777604</ele>
        <time>2025-07-10T10:18:09.000Z</time>
      </trkpt>
      <trkpt lat="44.84409" lon="5.81384">
        <ele>898.759353</ele>
        <time>2025-07-10T10:18:10.000Z</time>
      </trkpt>
      <trkpt lat="44.8441" lon="5.81379">
        <ele>898.740852</ele>
        <time>2025-07-10T10:18:11.000Z</time>
      </trkpt>
      <trkpt lat="44.8441" lon="5.81374">
        <ele>898.722081</ele>
        <time>2025-07-10T10:18:12.000Z</time>
      </trkpt>
      <trkpt lat="44.84411" lon="5.81369">
        <ele>898.703217</ele>
        <time>2025-07-10T10:18:13.000Z</time>
      </trkpt>
      <trkpt lat="44.84411" lon="5.81364">
        <ele>898.684811</ele>
        <time>2025-07-10T10:18:14.000Z</time>
      </trkpt>
      <trkpt lat="44.84412" lon="5.81359">
        <ele>898.666406</ele>
        <time>2025-07-10T10:18:15.000Z</time>
      </trkpt>
      <trkpt lat="44.84413" lon="5.81354">
        <ele>898.647349</ele>
        <time>2025-07-10T10:18:16.000Z</time>
      </trkpt>
      <trkpt lat="44.84413" lon="5.81349">
        <ele>898.627848</ele>
        <time>2025-07-10T10:18:17.000Z</time>
      </trkpt>
      <trkpt lat="44.84414" lon="5.81344">
        <ele>898.608713</ele>
        <time>2025-07-10T10:18:18.000Z</time>
      </trkpt>
      <trkpt lat="44.84414" lon="5.81338">
        <ele>898.589577</ele>
        <time>2025-07-10T10:18:19.000Z</time>
      </trkpt>
      <trkpt lat="44.84415" lon="5.81333">
        <ele>898.570713</ele>
        <time>2025-07-10T10:18:20.000Z</time>
      </trkpt>
      <trkpt lat="44.84416" lon="5.81328">
        <ele>898.551849</ele>
        <time>2025-07-10T10:18:21.000Z</time>
      </trkpt>
      <trkpt lat="44.84416" lon="5.81323">
        <ele>898.532621</ele>
        <time>2025-07-10T10:18:22.000Z</time>
      </trkpt>
      <trkpt lat="44.84417" lon="5.81318">
        <ele>898.513393</ele>
        <time>2025-07-10T10:18:23.000Z</time>
      </trkpt>
      <trkpt lat="44.84418" lon="5.81313">
        <ele>898.494421</ele>
        <time>2025-07-10T10:18:24.000Z</time>
      </trkpt>
      <trkpt lat="44.84419" lon="5.81308">
        <ele>898.475285</ele>
        <time>2025-07-10T10:18:25.000Z</time>
      </trkpt>
      <trkpt lat="44.84419" lon="5.81303">
        <ele>898.456515</ele>
        <time>2025-07-10T10:18:26.000Z</time>
      </trkpt>
      <trkpt lat="44.8442" lon="5.81298">
        <ele>898.437651</ele>
        <time>2025-07-10T10:18:27.000Z</time>
      </trkpt>
      <trkpt lat="44.8442" lon="5.81293">
        <ele>898.41888</ele>
        <time>2025-07-10T10:18:28.000Z</time>
      </trkpt>
      <trkpt lat="44.84421" lon="5.81288">
        <ele>898.400379</ele>
        <time>2025-07-10T10:18:29.000Z</time>
      </trkpt>
      <trkpt lat="44.84422" lon="5.81283">
        <ele>898.381514</ele>
        <time>2025-07-10T10:18:30.000Z</time>
      </trkpt>
      <trkpt lat="44.84423" lon="5.81278">
        <ele>898.362287</ele>
        <time>2025-07-10T10:18:31.000Z</time>
      </trkpt>
      <trkpt lat="44.84423" lon="5.81273">
        <ele>898.343059</ele>
        <time>2025-07-10T10:18:32.000Z</time>
      </trkpt>
      <trkpt lat="44.84424" lon="5.81268">
        <ele>898.324194</ele>
        <time>2025-07-10T10:18:33.000Z</time>
      </trkpt>
      <trkpt lat="44.84425" lon="5.81263">
        <ele>898.304967</ele>
        <time>2025-07-10T10:18:34.000Z</time>
      </trkpt>
      <trkpt lat="44.84425" lon="5.81258">
        <ele>898.285831</ele>
        <time>2025-07-10T10:18:35.000Z</time>
      </trkpt>
      <trkpt lat="44.84426" lon="5.81253">
        <ele>898.266408</ele>
        <time>2025-07-10T10:18:36.000Z</time>
      </trkpt>
      <trkpt lat="44.84426" lon="5.81248">
        <ele>898.247638</ele>
        <time>2025-07-10T10:18:37.000Z</time>
      </trkpt>
      <trkpt lat="44.84427" lon="5.81243">
        <ele>898.228773</ele>
        <time>2025-07-10T10:18:38.000Z</time>
      </trkpt>
      <trkpt lat="44.84428" lon="5.81238">
        <ele>898.210634</ele>
        <time>2025-07-10T10:18:39.000Z</time>
      </trkpt>
      <trkpt lat="44.84428" lon="5.81233">
        <ele>898.19177</ele>
        <time>2025-07-10T10:18:40.000Z</time>
      </trkpt>
      <trkpt lat="44.84429" lon="5.81228">
        <ele>898.172798</ele>
        <time>2025-07-10T10:18:41.000Z</time>
      </trkpt>
      <trkpt lat="44.8443" lon="5.81223">
        <ele>898.153344</ele>
        <time>2025-07-10T10:18:42.000Z</time>
      </trkpt>
      <trkpt lat="44.84431" lon="5.81218">
        <ele>898.134117</ele>
        <time>2025-07-10T10:18:43.000Z</time>
      </trkpt>
      <trkpt lat="44.84431" lon="5.81213">
        <ele>898.115346</ele>
        <time>2025-07-10T10:18:44.000Z</time>
      </trkpt>
      <trkpt lat="44.84432" lon="5.81208">
        <ele>898.096482</ele>
        <time>2025-07-10T10:18:45.000Z</time>
      </trkpt>
      <trkpt lat="44.84433" lon="5.81202">
        <ele>898.076982</ele>
        <time>2025-07-10T10:18:46.000Z</time>
      </trkpt>
      <trkpt lat="44.84433" lon="5.81197">
        <ele>898.057989</ele>
        <time>2025-07-10T10:18:47.000Z</time>
      </trkpt>
      <trkpt lat="44.84434" lon="5.81192">
        <ele>898.039125</ele>
        <time>2025-07-10T10:18:48.000Z</time>
      </trkpt>
      <trkpt lat="44.84435" lon="5.81187">
        <ele>898.019227</ele>
        <time>2025-07-10T10:18:49.000Z</time>
      </trkpt>
      <trkpt lat="44.84438" lon="5.81183">
        <ele>897.999261</ele>
        <time>2025-07-10T10:18:50.000Z</time>
      </trkpt>
      <trkpt lat="44.84441" lon="5.8118">
        <ele>897.979625</ele>
        <time>2025-07-10T10:18:51.000Z</time>
      </trkpt>
      <trkpt lat="44.84444" lon="5.81177">
        <ele>897.959608</ele>
        <time>2025-07-10T10:18:52.000Z</time>
      </trkpt>
      <trkpt lat="44.84448" lon="5.81176">
        <ele>897.939176</ele>
        <time>2025-07-10T10:18:53.000Z</time>
      </trkpt>
      <trkpt lat="44.84452" lon="5.81175">
        <ele>897.91694</ele>
        <time>2025-07-10T10:18:54.000Z</time>
      </trkpt>
      <trkpt lat="44.84456" lon="5.81174">
        <ele>897.894464</ele>
        <time>2025-07-10T10:18:55.000Z</time>
      </trkpt>
      <trkpt lat="44.84461" lon="5.81175">
        <ele>897.870439</ele>
        <time>2025-07-10T10:18:56.000Z</time>
      </trkpt>
      <trkpt lat="44.84466" lon="5.81175">
        <ele>897.755894</ele>
        <time>2025-07-10T10:18:57.000Z</time>
      </trkpt>
      <trkpt lat="44.84471" lon="5.81176">
        <ele>897.583342</ele>
        <time>2025-07-10T10:18:58.000Z</time>
      </trkpt>
      <trkpt lat="44.84476" lon="5.81177">
        <ele>897.410134</ele>
        <time>2025-07-10T10:18:59.000Z</time>
      </trkpt>
      <trkpt lat="44.84481" lon="5.81178">
        <ele>897.236143</ele>
        <time>2025-07-10T10:19:00.000Z</time>
      </trkpt>
      <trkpt lat="44.84487" lon="5.81179">
        <ele>897.049969</ele>
        <time>2025-07-10T10:19:01.000Z</time>
      </trkpt>
      <trkpt lat="44.84492" lon="5.8118">
        <ele>896.858239</ele>
        <time>2025-07-10T10:19:02.000Z</time>
      </trkpt>
      <trkpt lat="44.84498" lon="5.8118">
        <ele>896.660164</ele>
        <time>2025-07-10T10:19:03.000Z</time>
      </trkpt>
      <trkpt lat="44.84504" lon="5.81179">
        <ele>896.458044</ele>
        <time>2025-07-10T10:19:04.000Z</time>
      </trkpt>
      <trkpt lat="44.8451" lon="5.81177">
        <ele>896.255878</ele>
        <time>2025-07-10T10:19:05.000Z</time>
      </trkpt>
      <trkpt lat="44.84516" lon="5.81174">
        <ele>896.043662</ele>
        <time>2025-07-10T10:19:06.000Z</time>
      </trkpt>
      <trkpt lat="44.84522" lon="5.8117">
        <ele>895.81848</ele>
        <time>2025-07-10T10:19:07.000Z</time>
      </trkpt>
      <trkpt lat="44.84527" lon="5.81164">
        <ele>895.590608</ele>
        <time>2025-07-10T10:19:08.000Z</time>
      </trkpt>
      <trkpt lat="44.84532" lon="5.81157">
        <ele>895.351698</ele>
        <time>2025-07-10T10:19:09.000Z</time>
      </trkpt>
      <trkpt lat="44.84537" lon="5.81149">
        <ele>895.110839</ele>
        <time>2025-07-10T10:19:10.000Z</time>
      </trkpt>
      <trkpt lat="44.84541" lon="5.8114">
        <ele>894.863546</ele>
        <time>2025-07-10T10:19:11.000Z</time>
      </trkpt>
      <trkpt lat="44.84544" lon="5.81131">
        <ele>894.620344</ele>
        <time>2025-07-10T10:19:12.000Z</time>
      </trkpt>
      <trkpt lat="44.84546" lon="5.81121">
        <ele>894.3758</ele>
        <time>2025-07-10T10:19:13.000Z</time>
      </trkpt>
      <trkpt lat="44.84547" lon="5.81111">
        <ele>894.127843</ele>
        <time>2025-07-10T10:19:14.000Z</time>
      </trkpt>
      <trkpt lat="44.84548" lon="5.81101">
        <ele>893.885542</ele>
        <time>2025-07-10T10:19:15.000Z</time>
      </trkpt>
      <trkpt lat="44.84549" lon="5.8109">
        <ele>893.633366</ele>
        <time>2025-07-10T10:19:16.000Z</time>
      </trkpt>
      <trkpt lat="44.84551" lon="5.8108">
        <ele>893.380209</ele>
        <time>2025-07-10T10:19:17.000Z</time>
      </trkpt>
      <trkpt lat="44.84552" lon="5.81069">
        <ele>893.123845</ele>
        <time>2025-07-10T10:19:18.000Z</time>
      </trkpt>
      <trkpt lat="44.84554" lon="5.81059">
        <ele>892.870513</ele>
        <time>2025-07-10T10:19:19.000Z</time>
      </trkpt>
      <trkpt lat="44.84556" lon="5.81049">
        <ele>892.617181</ele>
        <time>2025-07-10T10:19:20.000Z</time>
      </trkpt>
      <trkpt lat="44.84558" lon="5.81038">
        <ele>892.366152</ele>
        <time>2025-07-10T10:19:21.000Z</time>
      </trkpt>
      <trkpt lat="44.8456" lon="5.81028">
        <ele>892.112377</ele>
        <time>2025-07-10T10:19:22.000Z</time>
      </trkpt>
      <trkpt lat="44.84562" lon="5.81018">
        <ele>891.858602</ele>
        <time>2025-07-10T10:19:23.000Z</time>
      </trkpt>
      <trkpt lat="44.84565" lon="5.81008">
        <ele>891.592885</ele>
        <time>2025-07-10T10:19:24.000Z</time>
      </trkpt>
      <trkpt lat="44.84567" lon="5.80998">
        <ele>891.330238</ele>
        <time>2025-07-10T10:19:25.000Z</time>
      </trkpt>
      <trkpt lat="44.84569" lon="5.80988">
        <ele>891.07106</ele>
        <time>2025-07-10T10:19:26.000Z</time>
      </trkpt>
      <trkpt lat="44.84572" lon="5.80978">
        <ele>890.814246</ele>
        <time>2025-07-10T10:19:27.000Z</time>
      </trkpt>
      <trkpt lat="44.84574" lon="5.80968">
        <ele>890.558657</ele>
        <time>2025-07-10T10:19:28.000Z</time>
      </trkpt>
      <trkpt lat="44.84576" lon="5.80959">
        <ele>890.306562</ele>
        <time>2025-07-10T10:19:29.000Z</time>
      </trkpt>
      <trkpt lat="44.84579" lon="5.80949">
        <ele>890.054466</ele>
        <time>2025-07-10T10:19:30.000Z</time>
      </trkpt>
      <trkpt lat="44.84581" lon="5.80939">
        <ele>889.801104</ele>
        <time>2025-07-10T10:19:31.000Z</time>
      </trkpt>
      <trkpt lat="44.84583" lon="5.8093">
        <ele>889.548349</ele>
        <time>2025-07-10T10:19:32.000Z</time>
      </trkpt>
      <trkpt lat="44.84585" lon="5.8092">
        <ele>889.294936</ele>
        <time>2025-07-10T10:19:33.000Z</time>
      </trkpt>
      <trkpt lat="44.84586" lon="5.8091">
        <ele>889.041353</ele>
        <time>2025-07-10T10:19:34.000Z</time>
      </trkpt>
      <trkpt lat="44.84587" lon="5.809">
        <ele>888.793319</ele>
        <time>2025-07-10T10:19:35.000Z</time>
      </trkpt>
      <trkpt lat="44.84589" lon="5.8089">
        <ele>888.547053</ele>
        <time>2025-07-10T10:19:36.000Z</time>
      </trkpt>
      <trkpt lat="44.8459" lon="5.8088">
        <ele>888.29835</ele>
        <time>2025-07-10T10:19:37.000Z</time>
      </trkpt>
      <trkpt lat="44.84591" lon="5.80871">
        <ele>888.054496</ele>
        <time>2025-07-10T10:19:38.000Z</time>
      </trkpt>
      <trkpt lat="44.84592" lon="5.80861">
        <ele>887.811934</ele>
        <time>2025-07-10T10:19:39.000Z</time>
      </trkpt>
      <trkpt lat="44.84592" lon="5.80851">
        <ele>887.572462</ele>
        <time>2025-07-10T10:19:40.000Z</time>
      </trkpt>
      <trkpt lat="44.84593" lon="5.80842">
        <ele>887.335888</ele>
        <time>2025-07-10T10:19:41.000Z</time>
      </trkpt>
      <trkpt lat="44.84593" lon="5.80832">
        <ele>887.097034</ele>
        <time>2025-07-10T10:19:42.000Z</time>
      </trkpt>
      <trkpt lat="44.84593" lon="5.80823">
        <ele>886.858206</ele>
        <time>2025-07-10T10:19:43.000Z</time>
      </trkpt>
      <trkpt lat="44.84593" lon="5.80813">
        <ele>886.614402</ele>
        <time>2025-07-10T10:19:44.000Z</time>
      </trkpt>
      <trkpt lat="44.84593" lon="5.80803">
        <ele>886.368086</ele>
        <time>2025-07-10T10:19:45.000Z</time>
      </trkpt>
      <trkpt lat="44.84592" lon="5.80793">
        <ele>886.121769</ele>
        <time>2025-07-10T10:19:46.000Z</time>
      </trkpt>
      <trkpt lat="44.84592" lon="5.80783">
        <ele>885.875253</ele>
        <time>2025-07-10T10:19:47.000Z</time>
      </trkpt>
      <trkpt lat="44.84592" lon="5.80773">
        <ele>885.631046</ele>
        <time>2025-07-10T10:19:48.000Z</time>
      </trkpt>
      <trkpt lat="44.84591" lon="5.80764">
        <ele>885.41343</ele>
        <time>2025-07-10T10:19:49.000Z</time>
      </trkpt>
      <trkpt lat="44.84591" lon="5.80754">
        <ele>885.2215</ele>
        <time>2025-07-10T10:19:50.000Z</time>
      </trkpt>
      <trkpt lat="44.84591" lon="5.80744">
        <ele>885.025559</ele>
        <time>2025-07-10T10:19:51.000Z</time>
      </trkpt>
      <trkpt lat="44.8459" lon="5.80734">
        <ele>884.825401</ele>
        <time>2025-07-10T10:19:52.000Z</time>
      </trkpt>
      <trkpt lat="44.8459" lon="5.80723">
        <ele>884.621505</ele>
        <time>2025-07-10T10:19:53.000Z</time>
      </trkpt>
      <trkpt lat="44.8459" lon="5.80713">
        <ele>884.419696</ele>
        <time>2025-07-10T10:19:54.000Z</time>
      </trkpt>
      <trkpt lat="44.8459" lon="5.80703">
        <ele>884.221973</ele>
        <time>2025-07-10T10:19:55.000Z</time>
      </trkpt>
      <trkpt lat="44.8459" lon="5.80693">
        <ele>884.02212</ele>
        <time>2025-07-10T10:19:56.000Z</time>
      </trkpt>
      <trkpt lat="44.84591" lon="5.80682">
        <ele>883.818056</ele>
        <time>2025-07-10T10:19:57.000Z</time>
      </trkpt>
      <trkpt lat="44.84591" lon="5.80672">
        <ele>883.619851</ele>
        <time>2025-07-10T10:19:58.000Z</time>
      </trkpt>
      <trkpt lat="44.84592" lon="5.80662">
        <ele>883.421646</ele>
        <time>2025-07-10T10:19:59.000Z</time>
      </trkpt>
      <trkpt lat="44.84592" lon="5.80652">
        <ele>883.220747</ele>
        <time>2025-07-10T10:20:00.000Z</time>
      </trkpt>
      <trkpt lat="44.84593" lon="5.80642">
        <ele>883.021468</ele>
        <time>2025-07-10T10:20:01.000Z</time>
      </trkpt>
      <trkpt lat="44.84594" lon="5.80632">
        <ele>882.822514</ele>
        <time>2025-07-10T10:20:02.000Z</time>
      </trkpt>
      <trkpt lat="44.84595" lon="5.80621">
        <ele>882.619951</ele>
        <time>2025-07-10T10:20:03.000Z</time>
      </trkpt>
      <trkpt lat="44.84596" lon="5.80611">
        <ele>882.41873</ele>
        <time>2025-07-10T10:20:04.000Z</time>
      </trkpt>
      <trkpt lat="44.84596" lon="5.80601">
        <ele>882.219776</ele>
        <time>2025-07-10T10:20:05.000Z</time>
      </trkpt>
      <trkpt lat="44.84597" lon="5.80591">
        <ele>882.028265</ele>
        <time>2025-07-10T10:20:06.000Z</time>
      </trkpt>
      <trkpt lat="44.84598" lon="5.80582">
        <ele>881.84098</ele>
        <time>2025-07-10T10:20:07.000Z</time>
      </trkpt>
      <trkpt lat="44.84599" lon="5.80572">
        <ele>881.648159</ele>
        <time>2025-07-10T10:20:08.000Z</time>
      </trkpt>
      <trkpt lat="44.84599" lon="5.80562">
        <ele>881.447792</ele>
        <time>2025-07-10T10:20:09.000Z</time>
      </trkpt>
      <trkpt lat="44.846" lon="5.80552">
        <ele>881.24815</ele>
        <time>2025-07-10T10:20:10.000Z</time>
      </trkpt>
      <trkpt lat="44.84602" lon="5.80542">
        <ele>881.046172</ele>
        <time>2025-07-10T10:20:11.000Z</time>
      </trkpt>
      <trkpt lat="44.84603" lon="5.80531">
        <ele>880.84183</ele>
        <time>2025-07-10T10:20:12.000Z</time>
      </trkpt>
      <trkpt lat="44.84604" lon="5.80521">
        <ele>880.638948</ele>
        <time>2025-07-10T10:20:13.000Z</time>
      </trkpt>
      <trkpt lat="44.84606" lon="5.80511">
        <ele>880.418615</ele>
        <time>2025-07-10T10:20:14.000Z</time>
      </trkpt>
      <trkpt lat="44.84607" lon="5.80501">
        <ele>880.18475</ele>
        <time>2025-07-10T10:20:15.000Z</time>
      </trkpt>
      <trkpt lat="44.84609" lon="5.80491">
        <ele>879.957438</ele>
        <time>2025-07-10T10:20:16.000Z</time>
      </trkpt>
      <trkpt lat="44.84611" lon="5.80481">
        <ele>879.731578</ele>
        <time>2025-07-10T10:20:17.000Z</time>
      </trkpt>
      <trkpt lat="44.84612" lon="5.80471">
        <ele>879.504135</ele>
        <time>2025-07-10T10:20:18.000Z</time>
      </trkpt>
      <trkpt lat="44.84614" lon="5.80461">
        <ele>879.274533</ele>
        <time>2025-07-10T10:20:19.000Z</time>
      </trkpt>
      <trkpt lat="44.84616" lon="5.80451">
        <ele>879.047902</ele>
        <time>2025-07-10T10:20:20.000Z</time>
      </trkpt>
      <trkpt lat="44.84618" lon="5.80442">
        <ele>878.824217</ele>
        <time>2025-07-10T10:20:21.000Z</time>
      </trkpt>
      <trkpt lat="44.84619" lon="5.80432">
        <ele>878.598225</ele>
        <time>2025-07-10T10:20:22.000Z</time>
      </trkpt>
      <trkpt lat="44.8462" lon="5.80422">
        <ele>878.377004</ele>
        <time>2025-07-10T10:20:23.000Z</time>
      </trkpt>
      <trkpt lat="44.8462" lon="5.80412">
        <ele>878.159649</ele>
        <time>2025-07-10T10:20:24.000Z</time>
      </trkpt>
      <trkpt lat="44.8462" lon="5.80403">
        <ele>877.942499</ele>
        <time>2025-07-10T10:20:25.000Z</time>
      </trkpt>
      <trkpt lat="44.8462" lon="5.80393">
        <ele>877.715845</ele>
        <time>2025-07-10T10:20:26.000Z</time>
      </trkpt>
      <trkpt lat="44.84619" lon="5.80382">
        <ele>877.484207</ele>
        <time>2025-07-10T10:20:27.000Z</time>
      </trkpt>
      <trkpt lat="44.84619" lon="5.80372">
        <ele>877.252569</ele>
        <time>2025-07-10T10:20:28.000Z</time>
      </trkpt>
      <trkpt lat="44.84618" lon="5.80362">
        <ele>877.020931</ele>
        <time>2025-07-10T10:20:29.000Z</time>
      </trkpt>
      <trkpt lat="44.84617" lon="5.80351">
        <ele>876.784161</ele>
        <time>2025-07-10T10:20:30.000Z</time>
      </trkpt>
      <trkpt lat="44.84616" lon="5.8034">
        <ele>876.543296</ele>
        <time>2025-07-10T10:20:31.000Z</time>
      </trkpt>
      <trkpt lat="44.84615" lon="5.8033">
        <ele>876.300514</ele>
        <time>2025-07-10T10:20:32.000Z</time>
      </trkpt>
      <trkpt lat="44.84615" lon="5.80319">
        <ele>876.051042</ele>
        <time>2025-07-10T10:20:33.000Z</time>
      </trkpt>
      <trkpt lat="44.84614" lon="5.80308">
        <ele>875.803156</ele>
        <time>2025-07-10T10:20:34.000Z</time>
      </trkpt>
      <trkpt lat="44.84613" lon="5.80297">
        <ele>875.559717</ele>
        <time>2025-07-10T10:20:35.000Z</time>
      </trkpt>
      <trkpt lat="44.84612" lon="5.80286">
        <ele>875.312959</ele>
        <time>2025-07-10T10:20:36.000Z</time>
      </trkpt>
      <trkpt lat="44.84612" lon="5.80275">
        <ele>875.070855</ele>
        <time>2025-07-10T10:20:37.000Z</time>
      </trkpt>
      <trkpt lat="44.84612" lon="5.80264">
        <ele>874.839005</ele>
        <time>2025-07-10T10:20:38.000Z</time>
      </trkpt>
      <trkpt lat="44.84612" lon="5.80254">
        <ele>874.646292</ele>
        <time>2025-07-10T10:20:39.000Z</time>
      </trkpt>
      <trkpt lat="44.84613" lon="5.80244">
        <ele>874.45486</ele>
        <time>2025-07-10T10:20:40.000Z</time>
      </trkpt>
      <trkpt lat="44.84614" lon="5.80233">
        <ele>874.264126</ele>
        <time>2025-07-10T10:20:41.000Z</time>
      </trkpt>
      <trkpt lat="44.84615" lon="5.80224">
        <ele>874.076042</ele>
        <time>2025-07-10T10:20:42.000Z</time>
      </trkpt>
      <trkpt lat="44.84617" lon="5.80214">
        <ele>873.887851</ele>
        <time>2025-07-10T10:20:43.000Z</time>
      </trkpt>
      <trkpt lat="44.84619" lon="5.80204">
        <ele>873.698394</ele>
        <time>2025-07-10T10:20:44.000Z</time>
      </trkpt>
      <trkpt lat="44.84622" lon="5.80195">
        <ele>873.514199</ele>
        <time>2025-07-10T10:20:45.000Z</time>
      </trkpt>
      <trkpt lat="44.84624" lon="5.80185">
        <ele>873.332617</ele>
        <time>2025-07-10T10:20:46.000Z</time>
      </trkpt>
      <trkpt lat="44.84627" lon="5.80177">
        <ele>873.15226</ele>
        <time>2025-07-10T10:20:47.000Z</time>
      </trkpt>
      <trkpt lat="44.8463" lon="5.80168">
        <ele>872.976849</ele>
        <time>2025-07-10T10:20:48.000Z</time>
      </trkpt>
      <trkpt lat="44.84633" lon="5.8016">
        <ele>872.806348</ele>
        <time>2025-07-10T10:20:49.000Z</time>
      </trkpt>
      <trkpt lat="44.84636" lon="5.80152">
        <ele>872.643603</ele>
        <time>2025-07-10T10:20:50.000Z</time>
      </trkpt>
      <trkpt lat="44.84639" lon="5.80145">
        <ele>872.480463</ele>
        <time>2025-07-10T10:20:51.000Z</time>
      </trkpt>
      <trkpt lat="44.84642" lon="5.80137">
        <ele>872.314032</ele>
        <time>2025-07-10T10:20:52.000Z</time>
      </trkpt>
      <trkpt lat="44.84645" lon="5.80129">
        <ele>872.148032</ele>
        <time>2025-07-10T10:20:53.000Z</time>
      </trkpt>
      <trkpt lat="44.84648" lon="5.80121">
        <ele>871.981107</ele>
        <time>2025-07-10T10:20:54.000Z</time>
      </trkpt>
      <trkpt lat="44.84651" lon="5.80113">
        <ele>871.818363</ele>
        <time>2025-07-10T10:20:55.000Z</time>
      </trkpt>
      <trkpt lat="44.84654" lon="5.80105">
        <ele>871.653039</ele>
        <time>2025-07-10T10:20:56.000Z</time>
      </trkpt>
      <trkpt lat="44.84657" lon="5.80098">
        <ele>871.491916</ele>
        <time>2025-07-10T10:20:57.000Z</time>
      </trkpt>
      <trkpt lat="44.8466" lon="5.8009">
        <ele>871.329469</ele>
        <time>2025-07-10T10:20:58.000Z</time>
      </trkpt>
      <trkpt lat="44.84663" lon="5.80082">
        <ele>871.163678</ele>
        <time>2025-07-10T10:20:59.000Z</time>
      </trkpt>
      <trkpt lat="44.84665" lon="5.80074">
        <ele>870.997887</ele>
        <time>2025-07-10T10:21:00.000Z</time>
      </trkpt>
      <trkpt lat="44.84668" lon="5.80066">
        <ele>870.834875</ele>
        <time>2025-07-10T10:21:01.000Z</time>
      </trkpt>
      <trkpt lat="44.84671" lon="5.80058">
        <ele>870.672936</ele>
        <time>2025-07-10T10:21:02.000Z</time>
      </trkpt>
      <trkpt lat="44.84673" lon="5.8005">
        <ele>870.513285</ele>
        <time>2025-07-10T10:21:03.000Z</time>
      </trkpt>
      <trkpt lat="44.84676" lon="5.80042">
        <ele>870.355308</ele>
        <time>2025-07-10T10:21:04.000Z</time>
      </trkpt>
      <trkpt lat="44.84679" lon="5.80035">
        <ele>870.193807</ele>
        <time>2025-07-10T10:21:05.000Z</time>
      </trkpt>
      <trkpt lat="44.84682" lon="5.80027">
        <ele>870.094042</ele>
        <time>2025-07-10T10:21:06.000Z</time>
      </trkpt>
      <trkpt lat="44.84685" lon="5.8002">
        <ele>870.004753</ele>
        <time>2025-07-10T10:21:07.000Z</time>
      </trkpt>
      <trkpt lat="44.84688" lon="5.80013">
        <ele>869.916426</ele>
        <time>2025-07-10T10:21:08.000Z</time>
      </trkpt>
      <trkpt lat="44.84691" lon="5.80006">
        <ele>869.828972</ele>
        <time>2025-07-10T10:21:09.000Z</time>
      </trkpt>
      <trkpt lat="44.84695" lon="5.79999">
        <ele>869.740678</ele>
        <time>2025-07-10T10:21:10.000Z</time>
      </trkpt>
      <trkpt lat="44.84698" lon="5.79993">
        <ele>869.654104</ele>
        <time>2025-07-10T10:21:11.000Z</time>
      </trkpt>
      <trkpt lat="44.84702" lon="5.79986">
        <ele>869.565813</ele>
        <time>2025-07-10T10:21:12.000Z</time>
      </trkpt>
      <trkpt lat="44.84705" lon="5.79979">
        <ele>869.480954</ele>
        <time>2025-07-10T10:21:13.000Z</time>
      </trkpt>
      <trkpt lat="44.84708" lon="5.79972">
        <ele>869.3935</ele>
        <time>2025-07-10T10:21:14.000Z</time>
      </trkpt>
      <trkpt lat="44.84712" lon="5.79966">
        <ele>869.30778</ele>
        <time>2025-07-10T10:21:15.000Z</time>
      </trkpt>
      <trkpt lat="44.84715" lon="5.79959">
        <ele>869.219372</ele>
        <time>2025-07-10T10:21:16.000Z</time>
      </trkpt>
      <trkpt lat="44.84719" lon="5.79953">
        <ele>869.133065</ele>
        <time>2025-07-10T10:21:17.000Z</time>
      </trkpt>
      <trkpt lat="44.84723" lon="5.79948">
        <ele>869.05274</ele>
        <time>2025-07-10T10:21:18.000Z</time>
      </trkpt>
      <trkpt lat="44.84728" lon="5.79944">
        <ele>868.973973</ele>
        <time>2025-07-10T10:21:19.000Z</time>
      </trkpt>
      <trkpt lat="44.84733" lon="5.79944">
        <ele>868.898274</ele>
        <time>2025-07-10T10:21:20.000Z</time>
      </trkpt>
      <trkpt lat="44.84738" lon="5.79945">
        <ele>868.82517</ele>
        <time>2025-07-10T10:21:21.000Z</time>
      </trkpt>
      <trkpt lat="44.84743" lon="5.79947">
        <ele>868.752994</ele>
        <time>2025-07-10T10:21:22.000Z</time>
      </trkpt>
      <trkpt lat="44.84747" lon="5.79949">
        <ele>868.680664</ele>
        <time>2025-07-10T10:21:23.000Z</time>
      </trkpt>
      <trkpt lat="44.84752" lon="5.79951">
        <ele>868.604833</ele>
        <time>2025-07-10T10:21:24.000Z</time>
      </trkpt>
      <trkpt lat="44.84757" lon="5.79954">
        <ele>868.523726</ele>
        <time>2025-07-10T10:21:25.000Z</time>
      </trkpt>
      <trkpt lat="44.84763" lon="5.79956">
        <ele>868.437383</ele>
        <time>2025-07-10T10:21:26.000Z</time>
      </trkpt>
      <trkpt lat="44.84769" lon="5.79956">
        <ele>868.349787</ele>
        <time>2025-07-10T10:21:27.000Z</time>
      </trkpt>
      <trkpt lat="44.84775" lon="5.79955">
        <ele>868.263056</ele>
        <time>2025-07-10T10:21:28.000Z</time>
      </trkpt>
      <trkpt lat="44.8478" lon="5.79953">
        <ele>868.173767</ele>
        <time>2025-07-10T10:21:29.000Z</time>
      </trkpt>
      <trkpt lat="44.84786" lon="5.7995">
        <ele>868.081468</ele>
        <time>2025-07-10T10:21:30.000Z</time>
      </trkpt>
      <trkpt lat="44.84791" lon="5.79945">
        <ele>867.9916</ele>
        <time>2025-07-10T10:21:31.000Z</time>
      </trkpt>
      <trkpt lat="44.84796" lon="5.7994">
        <ele>867.900722</ele>
        <time>2025-07-10T10:21:32.000Z</time>
      </trkpt>
      <trkpt lat="44.848" lon="5.79934">
        <ele>867.813417</ele>
        <time>2025-07-10T10:21:33.000Z</time>
      </trkpt>
      <trkpt lat="44.84803" lon="5.79927">
        <ele>867.725903</ele>
        <time>2025-07-10T10:21:34.000Z</time>
      </trkpt>
      <trkpt lat="44.84806" lon="5.7992">
        <ele>867.636336</ele>
        <time>2025-07-10T10:21:35.000Z</time>
      </trkpt>
      <trkpt lat="44.84809" lon="5.79912">
        <ele>867.546177</ele>
        <time>2025-07-10T10:21:36.000Z</time>
      </trkpt>
      <trkpt lat="44.8481" lon="5.79903">
        <ele>867.463041</ele>
        <time>2025-07-10T10:21:37.000Z</time>
      </trkpt>
      <trkpt lat="44.8481" lon="5.79895">
        <ele>867.385362</ele>
        <time>2025-07-10T10:21:38.000Z</time>
      </trkpt>
      <trkpt lat="44.8481" lon="5.79886">
        <ele>867.309234</ele>
        <time>2025-07-10T10:21:39.000Z</time>
      </trkpt>
      <trkpt lat="44.84809" lon="5.79879">
        <ele>867.239425</ele>
        <time>2025-07-10T10:21:40.000Z</time>
      </trkpt>
      <trkpt lat="44.84807" lon="5.79872">
        <ele>867.172177</ele>
        <time>2025-07-10T10:21:41.000Z</time>
      </trkpt>
      <trkpt lat="44.84805" lon="5.79865">
        <ele>867.109838</ele>
        <time>2025-07-10T10:21:42.000Z</time>
      </trkpt>
      <trkpt lat="44.84803" lon="5.7986">
        <ele>867.053991</ele>
        <time>2025-07-10T10:21:43.000Z</time>
      </trkpt>
      <trkpt lat="44.84801" lon="5.79855">
        <ele>867.006089</ele>
        <time>2025-07-10T10:21:44.000Z</time>
      </trkpt>
      <trkpt lat="44.848" lon="5.79851">
        <ele>866.966949</ele>
        <time>2025-07-10T10:21:45.000Z</time>
      </trkpt>
      <trkpt lat="44.84799" lon="5.79848">
        <ele>866.935051</ele>
        <time>2025-07-10T10:21:46.000Z</time>
      </trkpt>
      <trkpt lat="44.84797" lon="5.79846">
        <ele>866.909964</ele>
        <time>2025-07-10T10:21:47.000Z</time>
      </trkpt>
      <trkpt lat="44.84795" lon="5.79847">
        <ele>866.883153</ele>
        <time>2025-07-10T10:21:48.000Z</time>
      </trkpt>
      <trkpt lat="44.84793" lon="5.79847">
        <ele>866.858138</ele>
        <time>2025-07-10T10:21:49.000Z</time>
      </trkpt>
      <trkpt lat="44.84792" lon="5.79848">
        <ele>866.836514</ele>
        <time>2025-07-10T10:21:50.000Z</time>
      </trkpt>
      <trkpt lat="44.8479" lon="5.79848">
        <ele>866.820807</ele>
        <time>2025-07-10T10:21:51.000Z</time>
      </trkpt>
      <trkpt lat="44.84789" lon="5.79848">
        <ele>866.809027</ele>
        <time>2025-07-10T10:21:52.000Z</time>
      </trkpt>
      <trkpt lat="44.84789" lon="5.79848">
        <ele>866.796705</ele>
        <time>2025-07-10T10:21:53.000Z</time>
      </trkpt>
      <trkpt lat="44.84788" lon="5.79847">
        <ele>866.787386</ele>
        <time>2025-07-10T10:21:54.000Z</time>
      </trkpt>
      <trkpt lat="44.84787" lon="5.79847">
        <ele>866.780465</ele>
        <time>2025-07-10T10:21:55.000Z</time>
      </trkpt>
      <trkpt lat="44.84786" lon="5.79847">
        <ele>866.763807</ele>
        <time>2025-07-10T10:23:37.000Z</time>
      </trkpt>
      <trkpt lat="44.84785" lon="5.79845">
        <ele>866.73944</ele>
        <time>2025-07-10T10:23:38.000Z</time>
      </trkpt>
      <trkpt lat="44.84784" lon="5.79842">
        <ele>866.710058</ele>
        <time>2025-07-10T10:23:39.000Z</time>
      </trkpt>
      <trkpt lat="44.84785" lon="5.79839">
        <ele>866.680464</ele>
        <time>2025-07-10T10:23:40.000Z</time>
      </trkpt>
      <trkpt lat="44.84786" lon="5.79836">
        <ele>866.648684</ele>
        <time>2025-07-10T10:23:41.000Z</time>
      </trkpt>
      <trkpt lat="44.84789" lon="5.79834">
        <ele>866.614266</ele>
        <time>2025-07-10T10:23:42.000Z</time>
      </trkpt>
      <trkpt lat="44.84791" lon="5.79832">
        <ele>866.576541</ele>
        <time>2025-07-10T10:23:43.000Z</time>
      </trkpt>
      <trkpt lat="44.84794" lon="5.7983">
        <ele>866.540367</ele>
        <time>2025-07-10T10:23:44.000Z</time>
      </trkpt>
      <trkpt lat="44.84796" lon="5.79828">
        <ele>866.502891</ele>
        <time>2025-07-10T10:23:45.000Z</time>
      </trkpt>
      <trkpt lat="44.84798" lon="5.79824">
        <ele>866.462635</ele>
        <time>2025-07-10T10:23:46.000Z</time>
      </trkpt>
      <trkpt lat="44.848" lon="5.7982">
        <ele>866.418399</ele>
        <time>2025-07-10T10:23:47.000Z</time>
      </trkpt>
      <trkpt lat="44.84802" lon="5.79816">
        <ele>866.373677</ele>
        <time>2025-07-10T10:23:48.000Z</time>
      </trkpt>
      <trkpt lat="44.84803" lon="5.79811">
        <ele>866.325534</ele>
        <time>2025-07-10T10:23:49.000Z</time>
      </trkpt>
      <trkpt lat="44.84804" lon="5.79805">
        <ele>866.276596</ele>
        <time>2025-07-10T10:23:50.000Z</time>
      </trkpt>
      <trkpt lat="44.84804" lon="5.798">
        <ele>866.225241</ele>
        <time>2025-07-10T10:23:51.000Z</time>
      </trkpt>
      <trkpt lat="44.84805" lon="5.79794">
        <ele>866.168729</ele>
        <time>2025-07-10T10:23:52.000Z</time>
      </trkpt>
      <trkpt lat="44.84805" lon="5.79787">
        <ele>866.111605</ele>
        <time>2025-07-10T10:23:53.000Z</time>
      </trkpt>
      <trkpt lat="44.84806" lon="5.79781">
        <ele>866.052778</ele>
        <time>2025-07-10T10:23:54.000Z</time>
      </trkpt>
      <trkpt lat="44.84806" lon="5.79774">
        <ele>865.992149</ele>
        <time>2025-07-10T10:23:55.000Z</time>
      </trkpt>
      <trkpt lat="44.84806" lon="5.79768">
        <ele>865.934125</ele>
        <time>2025-07-10T10:23:56.000Z</time>
      </trkpt>
      <trkpt lat="44.84807" lon="5.79761">
        <ele>865.873655</ele>
        <time>2025-07-10T10:23:57.000Z</time>
      </trkpt>
      <trkpt lat="44.84808" lon="5.79754">
        <ele>865.809784</ele>
        <time>2025-07-10T10:23:58.000Z</time>
      </trkpt>
      <trkpt lat="44.8481" lon="5.79748">
        <ele>865.747191</ele>
        <time>2025-07-10T10:23:59.000Z</time>
      </trkpt>
      <trkpt lat="44.84811" lon="5.79741">
        <ele>865.684622</ele>
        <time>2025-07-10T10:24:00.000Z</time>
      </trkpt>
      <trkpt lat="44.84813" lon="5.79735">
        <ele>865.624134</ele>
        <time>2025-07-10T10:24:01.000Z</time>
      </trkpt>
      <trkpt lat="44.84814" lon="5.79728">
        <ele>865.56154</ele>
        <time>2025-07-10T10:24:02.000Z</time>
      </trkpt>
      <trkpt lat="44.84816" lon="5.79722">
        <ele>865.500665</ele>
        <time>2025-07-10T10:24:03.000Z</time>
      </trkpt>
      <trkpt lat="44.84817" lon="5.79715">
        <ele>865.44054</ele>
        <time>2025-07-10T10:24:04.000Z</time>
      </trkpt>
      <trkpt lat="44.84818" lon="5.79709">
        <ele>865.383369</ele>
        <time>2025-07-10T10:24:05.000Z</time>
      </trkpt>
      <trkpt lat="44.84819" lon="5.79703">
        <ele>865.330006</ele>
        <time>2025-07-10T10:24:06.000Z</time>
      </trkpt>
      <trkpt lat="44.8482" lon="5.79698">
        <ele>865.275441</ele>
        <time>2025-07-10T10:24:07.000Z</time>
      </trkpt>
      <trkpt lat="44.84821" lon="5.79692">
        <ele>865.224699</ele>
        <time>2025-07-10T10:24:08.000Z</time>
      </trkpt>
      <trkpt lat="44.84822" lon="5.79687">
        <ele>865.172254</ele>
        <time>2025-07-10T10:24:09.000Z</time>
      </trkpt>
      <trkpt lat="44.84824" lon="5.79681">
        <ele>865.122128</ele>
        <time>2025-07-10T10:24:10.000Z</time>
      </trkpt>
      <trkpt lat="44.84825" lon="5.79677">
        <ele>865.072296</ele>
        <time>2025-07-10T10:24:11.000Z</time>
      </trkpt>
      <trkpt lat="44.84827" lon="5.79672">
        <ele>865.022539</ele>
        <time>2025-07-10T10:24:12.000Z</time>
      </trkpt>
      <trkpt lat="44.8483" lon="5.79669">
        <ele>864.974418</ele>
        <time>2025-07-10T10:24:13.000Z</time>
      </trkpt>
      <trkpt lat="44.84833" lon="5.79665">
        <ele>864.922682</ele>
        <time>2025-07-10T10:24:14.000Z</time>
      </trkpt>
      <trkpt lat="44.84836" lon="5.79662">
        <ele>864.871529</ele>
        <time>2025-07-10T10:24:15.000Z</time>
      </trkpt>
      <trkpt lat="44.8484" lon="5.79659">
        <ele>864.818406</ele>
        <time>2025-07-10T10:24:16.000Z</time>
      </trkpt>
      <trkpt lat="44.84844" lon="5.79657">
        <ele>864.764547</ele>
        <time>2025-07-10T10:24:17.000Z</time>
      </trkpt>
      <trkpt lat="44.84848" lon="5.79655">
        <ele>864.711703</ele>
        <time>2025-07-10T10:24:18.000Z</time>
      </trkpt>
      <trkpt lat="44.84851" lon="5.79653">
        <ele>864.658518</ele>
        <time>2025-07-10T10:24:19.000Z</time>
      </trkpt>
      <trkpt lat="44.84856" lon="5.79651">
        <ele>864.603092</ele>
        <time>2025-07-10T10:24:20.000Z</time>
      </trkpt>
      <trkpt lat="44.8486" lon="5.7965">
        <ele>864.547906</ele>
        <time>2025-07-10T10:24:21.000Z</time>
      </trkpt>
      <trkpt lat="44.84864" lon="5.79649">
        <ele>864.490967</ele>
        <time>2025-07-10T10:24:22.000Z</time>
      </trkpt>
      <trkpt lat="44.84868" lon="5.79648">
        <ele>864.434457</ele>
        <time>2025-07-10T10:24:23.000Z</time>
      </trkpt>
      <trkpt lat="44.84873" lon="5.79647">
        <ele>864.377518</ele>
        <time>2025-07-10T10:24:24.000Z</time>
      </trkpt>
      <trkpt lat="44.84877" lon="5.79646">
        <ele>864.319297</ele>
        <time>2025-07-10T10:24:25.000Z</time>
      </trkpt>
      <trkpt lat="44.84881" lon="5.79644">
        <ele>864.261799</ele>
        <time>2025-07-10T10:24:26.000Z</time>
      </trkpt>
      <trkpt lat="44.84886" lon="5.79643">
        <ele>864.201759</ele>
        <time>2025-07-10T10:24:27.000Z</time>
      </trkpt>
      <trkpt lat="44.8489" lon="5.79642">
        <ele>864.141719</ele>
        <time>2025-07-10T10:24:28.000Z</time>
      </trkpt>
      <trkpt lat="44.84895" lon="5.7964">
        <ele>864.08301</ele>
        <time>2025-07-10T10:24:29.000Z</time>
      </trkpt>
      <trkpt lat="44.84899" lon="5.79638">
        <ele>864.024018</ele>
        <time>2025-07-10T10:24:30.000Z</time>
      </trkpt>
      <trkpt lat="44.84903" lon="5.79636">
        <ele>863.967494</ele>
        <time>2025-07-10T10:24:31.000Z</time>
      </trkpt>
      <trkpt lat="44.84907" lon="5.79634">
        <ele>863.913064</ele>
        <time>2025-07-10T10:24:32.000Z</time>
      </trkpt>
      <trkpt lat="44.84911" lon="5.79632">
        <ele>863.856541</ele>
        <time>2025-07-10T10:24:33.000Z</time>
      </trkpt>
      <trkpt lat="44.84915" lon="5.7963">
        <ele>863.798704</ele>
        <time>2025-07-10T10:24:34.000Z</time>
      </trkpt>
      <trkpt lat="44.84919" lon="5.79627">
        <ele>863.740507</ele>
        <time>2025-07-10T10:24:35.000Z</time>
      </trkpt>
      <trkpt lat="44.84923" lon="5.79624">
        <ele>863.681553</ele>
        <time>2025-07-10T10:24:36.000Z</time>
      </trkpt>
      <trkpt lat="44.84927" lon="5.79621">
        <ele>863.622528</ele>
        <time>2025-07-10T10:24:37.000Z</time>
      </trkpt>
      <trkpt lat="44.84931" lon="5.79619">
        <ele>863.566235</ele>
        <time>2025-07-10T10:24:38.000Z</time>
      </trkpt>
      <trkpt lat="44.84935" lon="5.79616">
        <ele>863.510376</ele>
        <time>2025-07-10T10:24:39.000Z</time>
      </trkpt>
      <trkpt lat="44.84939" lon="5.79613">
        <ele>863.454562</ele>
        <time>2025-07-10T10:24:40.000Z</time>
      </trkpt>
      <trkpt lat="44.84943" lon="5.79611">
        <ele>863.398953</ele>
        <time>2025-07-10T10:24:41.000Z</time>
      </trkpt>
      <trkpt lat="44.84947" lon="5.79609">
        <ele>863.344227</ele>
        <time>2025-07-10T10:24:42.000Z</time>
      </trkpt>
      <trkpt lat="44.84951" lon="5.79607">
        <ele>863.28998</ele>
        <time>2025-07-10T10:24:43.000Z</time>
      </trkpt>
      <trkpt lat="44.84954" lon="5.79604">
        <ele>863.234904</ele>
        <time>2025-07-10T10:24:44.000Z</time>
      </trkpt>
      <trkpt lat="44.84958" lon="5.79602">
        <ele>863.179828</ele>
        <time>2025-07-10T10:24:45.000Z</time>
      </trkpt>
      <trkpt lat="44.84962" lon="5.796">
        <ele>863.12439</ele>
        <time>2025-07-10T10:24:46.000Z</time>
      </trkpt>
      <trkpt lat="44.84966" lon="5.79597">
        <ele>863.069362</ele>
        <time>2025-07-10T10:24:47.000Z</time>
      </trkpt>
      <trkpt lat="44.8497" lon="5.79594">
        <ele>863.013503</ele>
        <time>2025-07-10T10:24:48.000Z</time>
      </trkpt>
      <trkpt lat="44.84974" lon="5.79592">
        <ele>862.957689</ele>
        <time>2025-07-10T10:24:49.000Z</time>
      </trkpt>
      <trkpt lat="44.84978" lon="5.7959">
        <ele>862.904207</ele>
        <time>2025-07-10T10:24:50.000Z</time>
      </trkpt>
      <trkpt lat="44.84982" lon="5.79591">
        <ele>862.847278</ele>
        <time>2025-07-10T10:24:51.000Z</time>
      </trkpt>
      <trkpt lat="44.84987" lon="5.79591">
        <ele>862.789687</ele>
        <time>2025-07-10T10:24:52.000Z</time>
      </trkpt>
      <trkpt lat="44.84991" lon="5.79591">
        <ele>862.732344</ele>
        <time>2025-07-10T10:24:53.000Z</time>
      </trkpt>
      <trkpt lat="44.84996" lon="5.79591">
        <ele>862.673561</ele>
        <time>2025-07-10T10:24:54.000Z</time>
      </trkpt>
      <trkpt lat="44.85" lon="5.7959">
        <ele>862.615878</ele>
        <time>2025-07-10T10:24:55.000Z</time>
      </trkpt>
      <trkpt lat="44.85005" lon="5.79589">
        <ele>862.555662</ele>
        <time>2025-07-10T10:24:56.000Z</time>
      </trkpt>
      <trkpt lat="44.8501" lon="5.79589">
        <ele>862.494337</ele>
        <time>2025-07-10T10:24:57.000Z</time>
      </trkpt>
      <trkpt lat="44.85015" lon="5.79588">
        <ele>862.433013</ele>
        <time>2025-07-10T10:24:58.000Z</time>
      </trkpt>
      <trkpt lat="44.85019" lon="5.79587">
        <ele>862.372695</ele>
        <time>2025-07-10T10:24:59.000Z</time>
      </trkpt>
      <trkpt lat="44.85024" lon="5.79587">
        <ele>862.311112</ele>
        <time>2025-07-10T10:25:00.000Z</time>
      </trkpt>
      <trkpt lat="44.85029" lon="5.79586">
        <ele>862.250895</ele>
        <time>2025-07-10T10:25:01.000Z</time>
      </trkpt>
      <trkpt lat="44.85033" lon="5.79585">
        <ele>862.190679</ele>
        <time>2025-07-10T10:25:02.000Z</time>
      </trkpt>
      <trkpt lat="44.85038" lon="5.79584">
        <ele>862.130246</ele>
        <time>2025-07-10T10:25:03.000Z</time>
      </trkpt>
      <trkpt lat="44.85043" lon="5.79583">
        <ele>862.068663</ele>
        <time>2025-07-10T10:25:04.000Z</time>
      </trkpt>
      <trkpt lat="44.85048" lon="5.79583">
        <ele>862.008446</ele>
        <time>2025-07-10T10:25:05.000Z</time>
      </trkpt>
      <trkpt lat="44.85053" lon="5.79582">
        <ele>861.945487</ele>
        <time>2025-07-10T10:25:06.000Z</time>
      </trkpt>
      <trkpt lat="44.85057" lon="5.79581">
        <ele>861.884004</ele>
        <time>2025-07-10T10:25:07.000Z</time>
      </trkpt>
      <trkpt lat="44.85062" lon="5.7958">
        <ele>861.822421</ele>
        <time>2025-07-10T10:25:08.000Z</time>
      </trkpt>
      <trkpt lat="44.85067" lon="5.7958">
        <ele>861.760937</ele>
        <time>2025-07-10T10:25:09.000Z</time>
      </trkpt>
      <trkpt lat="44.85072" lon="5.79579">
        <ele>861.699241</ele>
        <time>2025-07-10T10:25:10.000Z</time>
      </trkpt>
      <trkpt lat="44.85077" lon="5.79578">
        <ele>861.637658</ele>
        <time>2025-07-10T10:25:11.000Z</time>
      </trkpt>
      <trkpt lat="44.85081" lon="5.79577">
        <ele>861.577225</ele>
        <time>2025-07-10T10:25:12.000Z</time>
      </trkpt>
      <trkpt lat="44.85086" lon="5.79576">
        <ele>861.517009</ele>
        <time>2025-07-10T10:25:13.000Z</time>
      </trkpt>
      <trkpt lat="44.85091" lon="5.79576">
        <ele>861.458059</ele>
        <time>2025-07-10T10:25:14.000Z</time>
      </trkpt>
      <trkpt lat="44.85095" lon="5.79575">
        <ele>861.400468</ele>
        <time>2025-07-10T10:25:15.000Z</time>
      </trkpt>
      <trkpt lat="44.851" lon="5.79574">
        <ele>861.342785</ele>
        <time>2025-07-10T10:25:16.000Z</time>
      </trkpt>
      <trkpt lat="44.85104" lon="5.79574">
        <ele>861.283732</ele>
        <time>2025-07-10T10:25:17.000Z</time>
      </trkpt>
      <trkpt lat="44.85109" lon="5.79572">
        <ele>861.226797</ele>
        <time>2025-07-10T10:25:18.000Z</time>
      </trkpt>
      <trkpt lat="44.85113" lon="5.79571">
        <ele>861.168754</ele>
        <time>2025-07-10T10:25:19.000Z</time>
      </trkpt>
      <trkpt lat="44.85117" lon="5.79571">
        <ele>861.112628</ele>
        <time>2025-07-10T10:25:20.000Z</time>
      </trkpt>
      <trkpt lat="44.85122" lon="5.79571">
        <ele>861.057774</ele>
        <time>2025-07-10T10:25:21.000Z</time>
      </trkpt>
      <trkpt lat="44.85126" lon="5.7957">
        <ele>861.001531</ele>
        <time>2025-07-10T10:25:22.000Z</time>
      </trkpt>
      <trkpt lat="44.85131" lon="5.7957">
        <ele>860.944018</ele>
        <time>2025-07-10T10:25:23.000Z</time>
      </trkpt>
      <trkpt lat="44.85135" lon="5.79569">
        <ele>860.88784</ele>
        <time>2025-07-10T10:25:24.000Z</time>
      </trkpt>
      <trkpt lat="44.8514" lon="5.79569">
        <ele>860.830249</ele>
        <time>2025-07-10T10:25:25.000Z</time>
      </trkpt>
      <trkpt lat="44.85144" lon="5.79568">
        <ele>860.773833</ele>
        <time>2025-07-10T10:25:26.000Z</time>
      </trkpt>
      <trkpt lat="44.85148" lon="5.79567">
        <ele>860.717416</ele>
        <time>2025-07-10T10:25:27.000Z</time>
      </trkpt>
      <trkpt lat="44.85153" lon="5.79567">
        <ele>860.660999</ele>
        <time>2025-07-10T10:25:28.000Z</time>
      </trkpt>
      <trkpt lat="44.85157" lon="5.79566">
        <ele>860.604677</ele>
        <time>2025-07-10T10:25:29.000Z</time>
      </trkpt>
      <trkpt lat="44.85162" lon="5.79566">
        <ele>860.555295</ele>
        <time>2025-07-10T10:25:30.000Z</time>
      </trkpt>
      <trkpt lat="44.85166" lon="5.79565">
        <ele>860.515676</ele>
        <time>2025-07-10T10:25:31.000Z</time>
      </trkpt>
      <trkpt lat="44.85171" lon="5.79564">
        <ele>860.474473</ele>
        <time>2025-07-10T10:25:32.000Z</time>
      </trkpt>
      <trkpt lat="44.85175" lon="5.79564">
        <ele>860.434107</ele>
        <time>2025-07-10T10:25:33.000Z</time>
      </trkpt>
      <trkpt lat="44.8518" lon="5.79563">
        <ele>860.392716</ele>
        <time>2025-07-10T10:25:34.000Z</time>
      </trkpt>
      <trkpt lat="44.85184" lon="5.79562">
        <ele>860.351694</ele>
        <time>2025-07-10T10:25:35.000Z</time>
      </trkpt>
      <trkpt lat="44.85189" lon="5.79561">
        <ele>860.309246</ele>
        <time>2025-07-10T10:25:36.000Z</time>
      </trkpt>
      <trkpt lat="44.85194" lon="5.7956">
        <ele>860.266968</ele>
        <time>2025-07-10T10:25:37.000Z</time>
      </trkpt>
      <trkpt lat="44.85198" lon="5.79559">
        <ele>860.226537</ele>
        <time>2025-07-10T10:25:38.000Z</time>
      </trkpt>
      <trkpt lat="44.85203" lon="5.79558">
        <ele>860.184179</ele>
        <time>2025-07-10T10:25:39.000Z</time>
      </trkpt>
      <trkpt lat="44.85207" lon="5.79557">
        <ele>860.142705</ele>
        <time>2025-07-10T10:25:40.000Z</time>
      </trkpt>
      <trkpt lat="44.85212" lon="5.79557">
        <ele>860.100498</ele>
        <time>2025-07-10T10:25:41.000Z</time>
      </trkpt>
      <trkpt lat="44.85217" lon="5.79556">
        <ele>860.060132</ele>
        <time>2025-07-10T10:25:42.000Z</time>
      </trkpt>
      <trkpt lat="44.85221" lon="5.79555">
        <ele>860.018658</ele>
        <time>2025-07-10T10:25:43.000Z</time>
      </trkpt>
      <trkpt lat="44.85226" lon="5.79554">
        <ele>859.977093</ele>
        <time>2025-07-10T10:25:44.000Z</time>
      </trkpt>
      <trkpt lat="44.85231" lon="5.79553">
        <ele>859.933559</ele>
        <time>2025-07-10T10:25:45.000Z</time>
      </trkpt>
      <trkpt lat="44.85236" lon="5.79552">
        <ele>859.889144</ele>
        <time>2025-07-10T10:25:46.000Z</time>
      </trkpt>
      <trkpt lat="44.85241" lon="5.7955">
        <ele>859.84385</ele>
        <time>2025-07-10T10:25:47.000Z</time>
      </trkpt>
      <trkpt lat="44.85245" lon="5.79549">
        <ele>859.800422</ele>
        <time>2025-07-10T10:25:48.000Z</time>
      </trkpt>
      <trkpt lat="44.8525" lon="5.79548">
        <ele>859.755407</ele>
        <time>2025-07-10T10:25:49.000Z</time>
      </trkpt>
      <trkpt lat="44.85255" lon="5.79547">
        <ele>859.710308</ele>
        <time>2025-07-10T10:25:50.000Z</time>
      </trkpt>
      <trkpt lat="44.8526" lon="5.79547">
        <ele>859.666256</ele>
        <time>2025-07-10T10:25:51.000Z</time>
      </trkpt>
      <trkpt lat="44.85265" lon="5.79546">
        <ele>859.621157</ele>
        <time>2025-07-10T10:25:52.000Z</time>
      </trkpt>
      <trkpt lat="44.8527" lon="5.79545">
        <ele>859.574199</ele>
        <time>2025-07-10T10:25:53.000Z</time>
      </trkpt>
      <trkpt lat="44.85276" lon="5.79544">
        <ele>859.526526</ele>
        <time>2025-07-10T10:25:54.000Z</time>
      </trkpt>
      <trkpt lat="44.85281" lon="5.79543">
        <ele>859.478987</ele>
        <time>2025-07-10T10:25:55.000Z</time>
      </trkpt>
      <trkpt lat="44.85286" lon="5.79542">
        <ele>859.433086</ele>
        <time>2025-07-10T10:25:56.000Z</time>
      </trkpt>
      <trkpt lat="44.85291" lon="5.79541">
        <ele>859.38726</ele>
        <time>2025-07-10T10:25:57.000Z</time>
      </trkpt>
      <trkpt lat="44.85296" lon="5.7954">
        <ele>859.341359</ele>
        <time>2025-07-10T10:25:58.000Z</time>
      </trkpt>
      <trkpt lat="44.85301" lon="5.79539">
        <ele>859.296345</ele>
        <time>2025-07-10T10:25:59.000Z</time>
      </trkpt>
      <trkpt lat="44.85306" lon="5.79539">
        <ele>859.251531</ele>
        <time>2025-07-10T10:26:00.000Z</time>
      </trkpt>
      <trkpt lat="44.85311" lon="5.79538">
        <ele>859.207479</ele>
        <time>2025-07-10T10:26:01.000Z</time>
      </trkpt>
      <trkpt lat="44.85316" lon="5.79537">
        <ele>859.163169</ele>
        <time>2025-07-10T10:26:02.000Z</time>
      </trkpt>
      <trkpt lat="44.85321" lon="5.79536">
        <ele>859.119635</ele>
        <time>2025-07-10T10:26:03.000Z</time>
      </trkpt>
      <trkpt lat="44.85326" lon="5.79535">
        <ele>859.0761</ele>
        <time>2025-07-10T10:26:04.000Z</time>
      </trkpt>
      <trkpt lat="44.85331" lon="5.79533">
        <ele>859.032451</ele>
        <time>2025-07-10T10:26:05.000Z</time>
      </trkpt>
      <trkpt lat="44.85335" lon="5.79532">
        <ele>858.987673</ele>
        <time>2025-07-10T10:26:06.000Z</time>
      </trkpt>
      <trkpt lat="44.8534" lon="5.7953">
        <ele>858.93712</ele>
        <time>2025-07-10T10:26:07.000Z</time>
      </trkpt>
      <trkpt lat="44.85345" lon="5.79529">
        <ele>858.882673</ele>
        <time>2025-07-10T10:26:08.000Z</time>
      </trkpt>
      <trkpt lat="44.8535" lon="5.79527">
        <ele>858.829773</ele>
        <time>2025-07-10T10:26:09.000Z</time>
      </trkpt>
      <trkpt lat="44.85355" lon="5.79525">
        <ele>858.774992</ele>
        <time>2025-07-10T10:26:10.000Z</time>
      </trkpt>
      <trkpt lat="44.8536" lon="5.79524">
        <ele>858.721422</ele>
        <time>2025-07-10T10:26:11.000Z</time>
      </trkpt>
      <trkpt lat="44.85365" lon="5.79522">
        <ele>858.666813</ele>
        <time>2025-07-10T10:26:12.000Z</time>
      </trkpt>
      <trkpt lat="44.8537" lon="5.7952">
        <ele>858.613068</ele>
        <time>2025-07-10T10:26:13.000Z</time>
      </trkpt>
      <trkpt lat="44.85375" lon="5.79519">
        <ele>858.557073</ele>
        <time>2025-07-10T10:26:14.000Z</time>
      </trkpt>
      <trkpt lat="44.8538" lon="5.79517">
        <ele>858.501919</ele>
        <time>2025-07-10T10:26:15.000Z</time>
      </trkpt>
      <trkpt lat="44.85385" lon="5.79515">
        <ele>858.444512</ele>
        <time>2025-07-10T10:26:16.000Z</time>
      </trkpt>
      <trkpt lat="44.85391" lon="5.79513">
        <ele>858.387298</ele>
        <time>2025-07-10T10:26:17.000Z</time>
      </trkpt>
      <trkpt lat="44.85396" lon="5.79511">
        <ele>858.33027</ele>
        <time>2025-07-10T10:26:18.000Z</time>
      </trkpt>
      <trkpt lat="44.85401" lon="5.79509">
        <ele>858.272862</ele>
        <time>2025-07-10T10:26:19.000Z</time>
      </trkpt>
      <trkpt lat="44.85406" lon="5.79507">
        <ele>858.214617</ele>
        <time>2025-07-10T10:26:20.000Z</time>
      </trkpt>
      <trkpt lat="44.85412" lon="5.79505">
        <ele>858.155518</ele>
        <time>2025-07-10T10:26:21.000Z</time>
      </trkpt>
      <trkpt lat="44.85417" lon="5.79503">
        <ele>858.097272</ele>
        <time>2025-07-10T10:26:22.000Z</time>
      </trkpt>
      <trkpt lat="44.85422" lon="5.79501">
        <ele>858.037611</ele>
        <time>2025-07-10T10:26:23.000Z</time>
      </trkpt>
      <trkpt lat="44.85428" lon="5.79499">
        <ele>857.97795</ele>
        <time>2025-07-10T10:26:24.000Z</time>
      </trkpt>
      <trkpt lat="44.85433" lon="5.79497">
        <ele>857.920542</ele>
        <time>2025-07-10T10:26:25.000Z</time>
      </trkpt>
      <trkpt lat="44.85438" lon="5.79495">
        <ele>857.863135</ele>
        <time>2025-07-10T10:26:26.000Z</time>
      </trkpt>
      <trkpt lat="44.85444" lon="5.79493">
        <ele>857.80367</ele>
        <time>2025-07-10T10:26:27.000Z</time>
      </trkpt>
      <trkpt lat="44.85449" lon="5.79491">
        <ele>857.743803</ele>
        <time>2025-07-10T10:26:28.000Z</time>
      </trkpt>
      <trkpt lat="44.85454" lon="5.79489">
        <ele>857.684959</ele>
        <time>2025-07-10T10:26:29.000Z</time>
      </trkpt>
      <trkpt lat="44.8546" lon="5.79487">
        <ele>857.624069</ele>
        <time>2025-07-10T10:26:30.000Z</time>
      </trkpt>
      <trkpt lat="44.85465" lon="5.79485">
        <ele>857.564604</ele>
        <time>2025-07-10T10:26:31.000Z</time>
      </trkpt>
      <trkpt lat="44.85471" lon="5.79483">
        <ele>857.503915</ele>
        <time>2025-07-10T10:26:32.000Z</time>
      </trkpt>
      <trkpt lat="44.85476" lon="5.79481">
        <ele>857.442387</ele>
        <time>2025-07-10T10:26:33.000Z</time>
      </trkpt>
      <trkpt lat="44.85482" lon="5.79479">
        <ele>857.383287</ele>
        <time>2025-07-10T10:26:34.000Z</time>
      </trkpt>
      <trkpt lat="44.85487" lon="5.79477">
        <ele>857.322976</ele>
        <time>2025-07-10T10:26:35.000Z</time>
      </trkpt>
      <trkpt lat="44.85493" lon="5.79475">
        <ele>857.262287</ele>
        <time>2025-07-10T10:26:36.000Z</time>
      </trkpt>
      <trkpt lat="44.85498" lon="5.79473">
        <ele>857.199726</ele>
        <time>2025-07-10T10:26:37.000Z</time>
      </trkpt>
      <trkpt lat="44.85504" lon="5.79471">
        <ele>857.137343</ele>
        <time>2025-07-10T10:26:38.000Z</time>
      </trkpt>
      <trkpt lat="44.8551" lon="5.79469">
        <ele>857.075584</ele>
        <time>2025-07-10T10:26:39.000Z</time>
      </trkpt>
      <trkpt lat="44.85515" lon="5.79468">
        <ele>856.979237</ele>
        <time>2025-07-10T10:26:40.000Z</time>
      </trkpt>
      <trkpt lat="44.85521" lon="5.79467">
        <ele>856.863517</ele>
        <time>2025-07-10T10:26:41.000Z</time>
      </trkpt>
      <trkpt lat="44.85527" lon="5.79466">
        <ele>856.749586</ele>
        <time>2025-07-10T10:26:42.000Z</time>
      </trkpt>
      <trkpt lat="44.85532" lon="5.79464">
        <ele>856.636857</ele>
        <time>2025-07-10T10:26:43.000Z</time>
      </trkpt>
      <trkpt lat="44.85537" lon="5.79463">
        <ele>856.528966</ele>
        <time>2025-07-10T10:26:44.000Z</time>
      </trkpt>
      <trkpt lat="44.85542" lon="5.79462">
        <ele>856.425349</ele>
        <time>2025-07-10T10:26:45.000Z</time>
      </trkpt>
      <trkpt lat="44.85547" lon="5.7946">
        <ele>856.317458</ele>
        <time>2025-07-10T10:26:46.000Z</time>
      </trkpt>
      <trkpt lat="44.85553" lon="5.79459">
        <ele>856.209567</ele>
        <time>2025-07-10T10:26:47.000Z</time>
      </trkpt>
      <trkpt lat="44.85558" lon="5.79458">
        <ele>856.105697</ele>
        <time>2025-07-10T10:26:48.000Z</time>
      </trkpt>
      <trkpt lat="44.85563" lon="5.79456">
        <ele>855.998293</ele>
        <time>2025-07-10T10:26:49.000Z</time>
      </trkpt>
      <trkpt lat="44.85568" lon="5.79454">
        <ele>855.888179</ele>
        <time>2025-07-10T10:26:50.000Z</time>
      </trkpt>
      <trkpt lat="44.85573" lon="5.79452">
        <ele>855.776402</ele>
        <time>2025-07-10T10:26:51.000Z</time>
      </trkpt>
      <trkpt lat="44.85578" lon="5.79449">
        <ele>855.664625</ele>
        <time>2025-07-10T10:26:52.000Z</time>
      </trkpt>
      <trkpt lat="44.85584" lon="5.79447">
        <ele>855.545864</ele>
        <time>2025-07-10T10:26:53.000Z</time>
      </trkpt>
      <trkpt lat="44.85589" lon="5.79445">
        <ele>855.427103</ele>
        <time>2025-07-10T10:26:54.000Z</time>
      </trkpt>
      <trkpt lat="44.85595" lon="5.79442">
        <ele>855.310992</ele>
        <time>2025-07-10T10:26:55.000Z</time>
      </trkpt>
      <trkpt lat="44.85601" lon="5.7944">
        <ele>855.18829</ele>
        <time>2025-07-10T10:26:56.000Z</time>
      </trkpt>
      <trkpt lat="44.85606" lon="5.79438">
        <ele>855.071495</ele>
        <time>2025-07-10T10:26:57.000Z</time>
      </trkpt>
      <trkpt lat="44.85612" lon="5.79435">
        <ele>854.951924</ele>
        <time>2025-07-10T10:26:58.000Z</time>
      </trkpt>
      <trkpt lat="44.85618" lon="5.79433">
        <ele>854.829942</ele>
        <time>2025-07-10T10:26:59.000Z</time>
      </trkpt>
      <trkpt lat="44.85623" lon="5.79432">
        <ele>854.706917</ele>
        <time>2025-07-10T10:27:00.000Z</time>
      </trkpt>
      <trkpt lat="44.85629" lon="5.7943">
        <ele>854.590465</ele>
        <time>2025-07-10T10:27:01.000Z</time>
      </trkpt>
      <trkpt lat="44.85634" lon="5.79429">
        <ele>854.490874</ele>
        <time>2025-07-10T10:27:02.000Z</time>
      </trkpt>
      <trkpt lat="44.85637" lon="5.79428">
        <ele>854.428213</ele>
        <time>2025-07-10T10:27:03.000Z</time>
      </trkpt>
      <trkpt lat="44.85638" lon="5.79428">
        <ele>854.39439</ele>
        <time>2025-07-10T10:27:04.000Z</time>
      </trkpt>
      <trkpt lat="44.85641" lon="5.79424">
        <ele>854.327722</ele>
        <time>2025-07-10T10:30:50.000Z</time>
      </trkpt>
      <trkpt lat="44.85643" lon="5.79424">
        <ele>854.280178</ele>
        <time>2025-07-10T10:30:51.000Z</time>
      </trkpt>
      <trkpt lat="44.85645" lon="5.79423">
        <ele>854.227467</ele>
        <time>2025-07-10T10:30:52.000Z</time>
      </trkpt>
      <trkpt lat="44.85648" lon="5.79422">
        <ele>854.170052</ele>
        <time>2025-07-10T10:30:53.000Z</time>
      </trkpt>
      <trkpt lat="44.85651" lon="5.79421">
        <ele>854.105084</ele>
        <time>2025-07-10T10:30:54.000Z</time>
      </trkpt>
      <trkpt lat="44.85655" lon="5.7942">
        <ele>854.036417</ele>
        <time>2025-07-10T10:30:55.000Z</time>
      </trkpt>
      <trkpt lat="44.85658" lon="5.79419">
        <ele>853.962174</ele>
        <time>2025-07-10T10:30:56.000Z</time>
      </trkpt>
      <trkpt lat="44.85662" lon="5.79418">
        <ele>853.887719</ele>
        <time>2025-07-10T10:30:57.000Z</time>
      </trkpt>
      <trkpt lat="44.85665" lon="5.79417">
        <ele>853.815359</ele>
        <time>2025-07-10T10:30:58.000Z</time>
      </trkpt>
      <trkpt lat="44.85669" lon="5.79415">
        <ele>853.739531</ele>
        <time>2025-07-10T10:30:59.000Z</time>
      </trkpt>
      <trkpt lat="44.85672" lon="5.79413">
        <ele>853.660032</ele>
        <time>2025-07-10T10:31:00.000Z</time>
      </trkpt>
      <trkpt lat="44.85676" lon="5.79411">
        <ele>853.574685</ele>
        <time>2025-07-10T10:31:01.000Z</time>
      </trkpt>
      <trkpt lat="44.85681" lon="5.79409">
        <ele>853.482627</ele>
        <time>2025-07-10T10:31:02.000Z</time>
      </trkpt>
      <trkpt lat="44.85685" lon="5.79407">
        <ele>853.389663</ele>
        <time>2025-07-10T10:31:03.000Z</time>
      </trkpt>
      <trkpt lat="44.85689" lon="5.79406">
        <ele>853.212975</ele>
        <time>2025-07-10T10:31:04.000Z</time>
      </trkpt>
      <trkpt lat="44.85693" lon="5.79404">
        <ele>853.010143</ele>
        <time>2025-07-10T10:31:05.000Z</time>
      </trkpt>
      <trkpt lat="44.85697" lon="5.79401">
        <ele>852.783077</ele>
        <time>2025-07-10T10:31:06.000Z</time>
      </trkpt>
      <trkpt lat="44.85702" lon="5.79398">
        <ele>852.538939</ele>
        <time>2025-07-10T10:31:07.000Z</time>
      </trkpt>
      <trkpt lat="44.85708" lon="5.79395">
        <ele>852.262243</ele>
        <time>2025-07-10T10:31:08.000Z</time>
      </trkpt>
      <trkpt lat="44.85714" lon="5.79393">
        <ele>851.955025</ele>
        <time>2025-07-10T10:31:09.000Z</time>
      </trkpt>
      <trkpt lat="44.85721" lon="5.79391">
        <ele>851.642465</ele>
        <time>2025-07-10T10:31:10.000Z</time>
      </trkpt>
      <trkpt lat="44.85728" lon="5.79391">
        <ele>851.313826</ele>
        <time>2025-07-10T10:31:11.000Z</time>
      </trkpt>
      <trkpt lat="44.85735" lon="5.7939">
        <ele>850.981058</ele>
        <time>2025-07-10T10:31:12.000Z</time>
      </trkpt>
      <trkpt lat="44.85742" lon="5.7939">
        <ele>850.63482</ele>
        <time>2025-07-10T10:31:13.000Z</time>
      </trkpt>
      <trkpt lat="44.85749" lon="5.79391">
        <ele>850.307269</ele>
        <time>2025-07-10T10:31:14.000Z</time>
      </trkpt>
      <trkpt lat="44.85756" lon="5.79391">
        <ele>849.965943</ele>
        <time>2025-07-10T10:31:15.000Z</time>
      </trkpt>
      <trkpt lat="44.85764" lon="5.7939">
        <ele>849.633572</ele>
        <time>2025-07-10T10:31:16.000Z</time>
      </trkpt>
      <trkpt lat="44.85771" lon="5.79389">
        <ele>849.27172</ele>
        <time>2025-07-10T10:31:17.000Z</time>
      </trkpt>
      <trkpt lat="44.85778" lon="5.79386">
        <ele>848.925581</ele>
        <time>2025-07-10T10:31:18.000Z</time>
      </trkpt>
      <trkpt lat="44.85785" lon="5.79381">
        <ele>848.581007</ele>
        <time>2025-07-10T10:31:19.000Z</time>
      </trkpt>
      <trkpt lat="44.85792" lon="5.79375">
        <ele>848.196317</ele>
        <time>2025-07-10T10:31:20.000Z</time>
      </trkpt>
      <trkpt lat="44.85798" lon="5.79368">
        <ele>847.814248</ele>
        <time>2025-07-10T10:31:21.000Z</time>
      </trkpt>
      <trkpt lat="44.85805" lon="5.79363">
        <ele>847.449405</ele>
        <time>2025-07-10T10:31:22.000Z</time>
      </trkpt>
      <trkpt lat="44.85813" lon="5.79358">
        <ele>847.064039</ele>
        <time>2025-07-10T10:31:23.000Z</time>
      </trkpt>
      <trkpt lat="44.85821" lon="5.79355">
        <ele>846.671434</ele>
        <time>2025-07-10T10:31:24.000Z</time>
      </trkpt>
      <trkpt lat="44.85829" lon="5.79354">
        <ele>846.286887</ele>
        <time>2025-07-10T10:31:25.000Z</time>
      </trkpt>
      <trkpt lat="44.85837" lon="5.79355">
        <ele>845.911077</ele>
        <time>2025-07-10T10:31:26.000Z</time>
      </trkpt>
      <trkpt lat="44.85845" lon="5.79357">
        <ele>845.543756</ele>
        <time>2025-07-10T10:31:27.000Z</time>
      </trkpt>
      <trkpt lat="44.85852" lon="5.7936">
        <ele>845.18467</ele>
        <time>2025-07-10T10:31:28.000Z</time>
      </trkpt>
      <trkpt lat="44.85859" lon="5.79364">
        <ele>844.841669</ele>
        <time>2025-07-10T10:31:29.000Z</time>
      </trkpt>
      <trkpt lat="44.85864" lon="5.79371">
        <ele>844.480249</ele>
        <time>2025-07-10T10:31:30.000Z</time>
      </trkpt>
      <trkpt lat="44.85868" lon="5.7938">
        <ele>844.116949</ele>
        <time>2025-07-10T10:31:31.000Z</time>
      </trkpt>
      <trkpt lat="44.85869" lon="5.7939">
        <ele>843.744894</ele>
        <time>2025-07-10T10:31:32.000Z</time>
      </trkpt>
      <trkpt lat="44.8587" lon="5.79401">
        <ele>843.35322</ele>
        <time>2025-07-10T10:31:33.000Z</time>
      </trkpt>
      <trkpt lat="44.8587" lon="5.79412">
        <ele>842.959084</ele>
        <time>2025-07-10T10:31:34.000Z</time>
      </trkpt>
      <trkpt lat="44.85871" lon="5.79423">
        <ele>842.561272</ele>
        <time>2025-07-10T10:31:35.000Z</time>
      </trkpt>
      <trkpt lat="44.85871" lon="5.79434">
        <ele>842.177658</ele>
        <time>2025-07-10T10:31:36.000Z</time>
      </trkpt>
      <trkpt lat="44.85872" lon="5.79444">
        <ele>841.813786</ele>
        <time>2025-07-10T10:31:37.000Z</time>
      </trkpt>
      <trkpt lat="44.85874" lon="5.79454">
        <ele>841.447234</ele>
        <time>2025-07-10T10:31:38.000Z</time>
      </trkpt>
      <trkpt lat="44.85877" lon="5.79463">
        <ele>841.100681</ele>
        <time>2025-07-10T10:31:39.000Z</time>
      </trkpt>
      <trkpt lat="44.85882" lon="5.7947">
        <ele>840.75136</ele>
        <time>2025-07-10T10:31:40.000Z</time>
      </trkpt>
      <trkpt lat="44.85889" lon="5.79476">
        <ele>840.348025</ele>
        <time>2025-07-10T10:31:41.000Z</time>
      </trkpt>
      <trkpt lat="44.85896" lon="5.7948">
        <ele>839.974345</ele>
        <time>2025-07-10T10:31:42.000Z</time>
      </trkpt>
      <trkpt lat="44.85903" lon="5.79482">
        <ele>839.592002</ele>
        <time>2025-07-10T10:31:43.000Z</time>
      </trkpt>
      <trkpt lat="44.85911" lon="5.79483">
        <ele>839.198134</ele>
        <time>2025-07-10T10:31:44.000Z</time>
      </trkpt>
      <trkpt lat="44.85919" lon="5.79485">
        <ele>838.789771</ele>
        <time>2025-07-10T10:31:45.000Z</time>
      </trkpt>
      <trkpt lat="44.85927" lon="5.79486">
        <ele>838.371046</ele>
        <time>2025-07-10T10:31:46.000Z</time>
      </trkpt>
      <trkpt lat="44.85936" lon="5.79487">
        <ele>837.95232</ele>
        <time>2025-07-10T10:31:47.000Z</time>
      </trkpt>
      <trkpt lat="44.85944" lon="5.79489">
        <ele>837.528189</ele>
        <time>2025-07-10T10:31:48.000Z</time>
      </trkpt>
      <trkpt lat="44.85953" lon="5.7949">
        <ele>837.105607</ele>
        <time>2025-07-10T10:31:49.000Z</time>
      </trkpt>
      <trkpt lat="44.85961" lon="5.79491">
        <ele>836.688329</ele>
        <time>2025-07-10T10:31:50.000Z</time>
      </trkpt>
      <trkpt lat="44.85969" lon="5.79492">
        <ele>836.255072</ele>
        <time>2025-07-10T10:31:51.000Z</time>
      </trkpt>
      <trkpt lat="44.85978" lon="5.79494">
        <ele>835.835396</ele>
        <time>2025-07-10T10:31:52.000Z</time>
      </trkpt>
      <trkpt lat="44.85986" lon="5.79497">
        <ele>835.411866</ele>
        <time>2025-07-10T10:31:53.000Z</time>
      </trkpt>
      <trkpt lat="44.85995" lon="5.795">
        <ele>834.98199</ele>
        <time>2025-07-10T10:31:54.000Z</time>
      </trkpt>
      <trkpt lat="44.86003" lon="5.79503">
        <ele>834.545909</ele>
        <time>2025-07-10T10:31:55.000Z</time>
      </trkpt>
      <trkpt lat="44.86012" lon="5.79507">
        <ele>834.108837</ele>
        <time>2025-07-10T10:31:56.000Z</time>
      </trkpt>
      <trkpt lat="44.8602" lon="5.79511">
        <ele>833.685022</ele>
        <time>2025-07-10T10:31:57.000Z</time>
      </trkpt>
      <trkpt lat="44.86028" lon="5.79516">
        <ele>833.253683</ele>
        <time>2025-07-10T10:31:58.000Z</time>
      </trkpt>
      <trkpt lat="44.86036" lon="5.7952">
        <ele>832.819418</ele>
        <time>2025-07-10T10:31:59.000Z</time>
      </trkpt>
      <trkpt lat="44.86044" lon="5.79524">
        <ele>832.391953</ele>
        <time>2025-07-10T10:32:00.000Z</time>
      </trkpt>
      <trkpt lat="44.86052" lon="5.79529">
        <ele>831.97237</ele>
        <time>2025-07-10T10:32:01.000Z</time>
      </trkpt>
      <trkpt lat="44.8606" lon="5.79533">
        <ele>831.565798</ele>
        <time>2025-07-10T10:32:02.000Z</time>
      </trkpt>
      <trkpt lat="44.86068" lon="5.79537">
        <ele>831.159397</ele>
        <time>2025-07-10T10:32:03.000Z</time>
      </trkpt>
      <trkpt lat="44.86076" lon="5.79541">
        <ele>830.742379</ele>
        <time>2025-07-10T10:32:04.000Z</time>
      </trkpt>
      <trkpt lat="44.86083" lon="5.79545">
        <ele>830.324091</ele>
        <time>2025-07-10T10:32:05.000Z</time>
      </trkpt>
      <trkpt lat="44.86092" lon="5.7955">
        <ele>829.88742</ele>
        <time>2025-07-10T10:32:06.000Z</time>
      </trkpt>
      <trkpt lat="44.861" lon="5.79554">
        <ele>829.448245</ele>
        <time>2025-07-10T10:32:07.000Z</time>
      </trkpt>
      <trkpt lat="44.86108" lon="5.79559">
        <ele>829.014928</ele>
        <time>2025-07-10T10:32:08.000Z</time>
      </trkpt>
      <trkpt lat="44.86116" lon="5.79565">
        <ele>828.564728</ele>
        <time>2025-07-10T10:32:09.000Z</time>
      </trkpt>
      <trkpt lat="44.86124" lon="5.79572">
        <ele>828.111984</ele>
        <time>2025-07-10T10:32:10.000Z</time>
      </trkpt>
      <trkpt lat="44.86131" lon="5.79581">
        <ele>827.63604</ele>
        <time>2025-07-10T10:32:11.000Z</time>
      </trkpt>
      <trkpt lat="44.86138" lon="5.79591">
        <ele>827.157684</ele>
        <time>2025-07-10T10:32:12.000Z</time>
      </trkpt>
      <trkpt lat="44.86145" lon="5.79601">
        <ele>826.440422</ele>
        <time>2025-07-10T10:32:13.000Z</time>
      </trkpt>
      <trkpt lat="44.86151" lon="5.79613">
        <ele>825.668518</ele>
        <time>2025-07-10T10:32:14.000Z</time>
      </trkpt>
      <trkpt lat="44.86158" lon="5.79625">
        <ele>824.875471</ele>
        <time>2025-07-10T10:32:15.000Z</time>
      </trkpt>
      <trkpt lat="44.86164" lon="5.79636">
        <ele>824.095318</ele>
        <time>2025-07-10T10:32:16.000Z</time>
      </trkpt>
      <trkpt lat="44.8617" lon="5.79647">
        <ele>823.367532</ele>
        <time>2025-07-10T10:32:17.000Z</time>
      </trkpt>
      <trkpt lat="44.86176" lon="5.79658">
        <ele>822.669753</ele>
        <time>2025-07-10T10:32:18.000Z</time>
      </trkpt>
      <trkpt lat="44.86182" lon="5.79668">
        <ele>821.977674</ele>
        <time>2025-07-10T10:32:19.000Z</time>
      </trkpt>
      <trkpt lat="44.86189" lon="5.79677">
        <ele>821.254698</ele>
        <time>2025-07-10T10:32:20.000Z</time>
      </trkpt>
      <trkpt lat="44.86197" lon="5.79685">
        <ele>820.530873</ele>
        <time>2025-07-10T10:32:21.000Z</time>
      </trkpt>
      <trkpt lat="44.86206" lon="5.79692">
        <ele>819.789052</ele>
        <time>2025-07-10T10:32:22.000Z</time>
      </trkpt>
      <trkpt lat="44.86215" lon="5.79698">
        <ele>819.023257</ele>
        <time>2025-07-10T10:32:23.000Z</time>
      </trkpt>
      <trkpt lat="44.86225" lon="5.79703">
        <ele>818.247573</ele>
        <time>2025-07-10T10:32:24.000Z</time>
      </trkpt>
      <trkpt lat="44.86235" lon="5.79706">
        <ele>817.442009</ele>
        <time>2025-07-10T10:32:25.000Z</time>
      </trkpt>
      <trkpt lat="44.86246" lon="5.79709">
        <ele>816.612682</ele>
        <time>2025-07-10T10:32:26.000Z</time>
      </trkpt>
      <trkpt lat="44.86257" lon="5.7971">
        <ele>815.78957</ele>
        <time>2025-07-10T10:32:27.000Z</time>
      </trkpt>
      <trkpt lat="44.86268" lon="5.79711">
        <ele>814.976529</ele>
        <time>2025-07-10T10:32:28.000Z</time>
      </trkpt>
      <trkpt lat="44.86279" lon="5.79712">
        <ele>814.179232</ele>
        <time>2025-07-10T10:32:29.000Z</time>
      </trkpt>
      <trkpt lat="44.86289" lon="5.79713">
        <ele>813.504954</ele>
        <time>2025-07-10T10:32:30.000Z</time>
      </trkpt>
      <trkpt lat="44.863" lon="5.79715">
        <ele>812.986049</ele>
        <time>2025-07-10T10:32:31.000Z</time>
      </trkpt>
      <trkpt lat="44.8631" lon="5.79717">
        <ele>812.465592</ele>
        <time>2025-07-10T10:32:32.000Z</time>
      </trkpt>
      <trkpt lat="44.8632" lon="5.7972">
        <ele>811.95607</ele>
        <time>2025-07-10T10:32:33.000Z</time>
      </trkpt>
      <trkpt lat="44.8633" lon="5.79721">
        <ele>811.482139</ele>
        <time>2025-07-10T10:32:34.000Z</time>
      </trkpt>
      <trkpt lat="44.86338" lon="5.79723">
        <ele>811.064513</ele>
        <time>2025-07-10T10:32:35.000Z</time>
      </trkpt>
      <trkpt lat="44.86345" lon="5.79724">
        <ele>810.703434</ele>
        <time>2025-07-10T10:32:36.000Z</time>
      </trkpt>
      <trkpt lat="44.86351" lon="5.79725">
        <ele>810.397679</ele>
        <time>2025-07-10T10:32:37.000Z</time>
      </trkpt>
      <trkpt lat="44.86356" lon="5.79725">
        <ele>810.16215</ele>
        <time>2025-07-10T10:32:38.000Z</time>
      </trkpt>
      <trkpt lat="44.86359" lon="5.79726">
        <ele>809.980781</ele>
        <time>2025-07-10T10:32:39.000Z</time>
      </trkpt>
      <trkpt lat="44.86362" lon="5.79727">
        <ele>809.843771</ele>
        <time>2025-07-10T10:32:40.000Z</time>
      </trkpt>
      <trkpt lat="44.86364" lon="5.79727">
        <ele>809.763918</ele>
        <time>2025-07-10T10:32:41.000Z</time>
      </trkpt>
      <trkpt lat="44.86365" lon="5.79727">
        <ele>809.719</ele>
        <time>2025-07-10T10:32:42.000Z</time>
      </trkpt>
      <trkpt lat="44.86366" lon="5.79726">
        <ele>809.649443</ele>
        <time>2025-07-10T10:33:50.000Z</time>
      </trkpt>
      <trkpt lat="44.86368" lon="5.79725">
        <ele>809.550083</ele>
        <time>2025-07-10T10:33:51.000Z</time>
      </trkpt>
      <trkpt lat="44.8637" lon="5.79723">
        <ele>809.41443</ele>
        <time>2025-07-10T10:33:52.000Z</time>
      </trkpt>
      <trkpt lat="44.86373" lon="5.79721">
        <ele>809.278844</ele>
        <time>2025-07-10T10:33:53.000Z</time>
      </trkpt>
      <trkpt lat="44.86375" lon="5.7972">
        <ele>809.131728</ele>
        <time>2025-07-10T10:33:54.000Z</time>
      </trkpt>
      <trkpt lat="44.86378" lon="5.79719">
        <ele>808.977028</ele>
        <time>2025-07-10T10:33:55.000Z</time>
      </trkpt>
      <trkpt lat="44.86382" lon="5.79718">
        <ele>808.815412</ele>
        <time>2025-07-10T10:33:56.000Z</time>
      </trkpt>
      <trkpt lat="44.86385" lon="5.79717">
        <ele>808.628594</ele>
        <time>2025-07-10T10:33:57.000Z</time>
      </trkpt>
      <trkpt lat="44.86389" lon="5.79716">
        <ele>808.424497</ele>
        <time>2025-07-10T10:33:58.000Z</time>
      </trkpt>
      <trkpt lat="44.86393" lon="5.79715">
        <ele>808.221791</ele>
        <time>2025-07-10T10:33:59.000Z</time>
      </trkpt>
      <trkpt lat="44.86397" lon="5.79713">
        <ele>808.00641</ele>
        <time>2025-07-10T10:34:00.000Z</time>
      </trkpt>
      <trkpt lat="44.86401" lon="5.79711">
        <ele>807.785177</ele>
        <time>2025-07-10T10:34:01.000Z</time>
      </trkpt>
      <trkpt lat="44.86406" lon="5.79709">
        <ele>807.54468</ele>
        <time>2025-07-10T10:34:02.000Z</time>
      </trkpt>
      <trkpt lat="44.86411" lon="5.79708">
        <ele>807.285373</ele>
        <time>2025-07-10T10:34:03.000Z</time>
      </trkpt>
      <trkpt lat="44.86417" lon="5.79706">
        <ele>807.016261</ele>
        <time>2025-07-10T10:34:04.000Z</time>
      </trkpt>
      <trkpt lat="44.86422" lon="5.79705">
        <ele>806.745758</ele>
        <time>2025-07-10T10:34:05.000Z</time>
      </trkpt>
      <trkpt lat="44.86427" lon="5.79703">
        <ele>806.466829</ele>
        <time>2025-07-10T10:34:06.000Z</time>
      </trkpt>
      <trkpt lat="44.86433" lon="5.79702">
        <ele>806.178071</ele>
        <time>2025-07-10T10:34:07.000Z</time>
      </trkpt>
      <trkpt lat="44.86439" lon="5.79701">
        <ele>805.884971</ele>
        <time>2025-07-10T10:34:08.000Z</time>
      </trkpt>
      <trkpt lat="44.86445" lon="5.79699">
        <ele>805.577075</ele>
        <time>2025-07-10T10:34:09.000Z</time>
      </trkpt>
      <trkpt lat="44.86451" lon="5.79698">
        <ele>805.275541</ele>
        <time>2025-07-10T10:34:10.000Z</time>
      </trkpt>
      <trkpt lat="44.86457" lon="5.79697">
        <ele>804.973572</ele>
        <time>2025-07-10T10:34:11.000Z</time>
      </trkpt>
      <trkpt lat="44.86463" lon="5.79696">
        <ele>804.675759</ele>
        <time>2025-07-10T10:34:12.000Z</time>
      </trkpt>
      <trkpt lat="44.86469" lon="5.79694">
        <ele>804.416602</ele>
        <time>2025-07-10T10:34:13.000Z</time>
      </trkpt>
      <trkpt lat="44.86475" lon="5.79692">
        <ele>804.16501</ele>
        <time>2025-07-10T10:34:14.000Z</time>
      </trkpt>
      <trkpt lat="44.86481" lon="5.7969">
        <ele>803.905853</ele>
        <time>2025-07-10T10:34:15.000Z</time>
      </trkpt>
      <trkpt lat="44.86487" lon="5.79689">
        <ele>803.648725</ele>
        <time>2025-07-10T10:34:16.000Z</time>
      </trkpt>
      <trkpt lat="44.86493" lon="5.79688">
        <ele>803.399362</ele>
        <time>2025-07-10T10:34:17.000Z</time>
      </trkpt>
      <trkpt lat="44.86499" lon="5.79686">
        <ele>803.160616</ele>
        <time>2025-07-10T10:34:18.000Z</time>
      </trkpt>
      <trkpt lat="44.86505" lon="5.79684">
        <ele>802.908383</ele>
        <time>2025-07-10T10:34:19.000Z</time>
      </trkpt>
      <trkpt lat="44.86511" lon="5.79682">
        <ele>802.620984</ele>
        <time>2025-07-10T10:34:20.000Z</time>
      </trkpt>
      <trkpt lat="44.86518" lon="5.79678">
        <ele>802.341544</ele>
        <time>2025-07-10T10:34:21.000Z</time>
      </trkpt>
      <trkpt lat="44.86524" lon="5.79674">
        <ele>802.048193</ele>
        <time>2025-07-10T10:34:22.000Z</time>
      </trkpt>
      <trkpt lat="44.86529" lon="5.79668">
        <ele>801.758651</ele>
        <time>2025-07-10T10:34:23.000Z</time>
      </trkpt>
      <trkpt lat="44.86535" lon="5.79662">
        <ele>801.482373</ele>
        <time>2025-07-10T10:34:24.000Z</time>
      </trkpt>
      <trkpt lat="44.86539" lon="5.79656">
        <ele>801.206065</ele>
        <time>2025-07-10T10:34:25.000Z</time>
      </trkpt>
      <trkpt lat="44.86545" lon="5.7965">
        <ele>800.930087</ele>
        <time>2025-07-10T10:34:26.000Z</time>
      </trkpt>
      <trkpt lat="44.86551" lon="5.79646">
        <ele>800.634083</ele>
        <time>2025-07-10T10:34:27.000Z</time>
      </trkpt>
      <trkpt lat="44.86558" lon="5.79644">
        <ele>800.342633</ele>
        <time>2025-07-10T10:34:28.000Z</time>
      </trkpt>
      <trkpt lat="44.86565" lon="5.79642">
        <ele>800.033239</ele>
        <time>2025-07-10T10:34:29.000Z</time>
      </trkpt>
      <trkpt lat="44.86572" lon="5.79641">
        <ele>799.747611</ele>
        <time>2025-07-10T10:34:30.000Z</time>
      </trkpt>
      <trkpt lat="44.86579" lon="5.7964">
        <ele>799.455123</ele>
        <time>2025-07-10T10:34:31.000Z</time>
      </trkpt>
      <trkpt lat="44.86586" lon="5.7964">
        <ele>799.155017</ele>
        <time>2025-07-10T10:34:32.000Z</time>
      </trkpt>
      <trkpt lat="44.86594" lon="5.79641">
        <ele>798.845896</ele>
        <time>2025-07-10T10:34:33.000Z</time>
      </trkpt>
      <trkpt lat="44.86601" lon="5.79642">
        <ele>798.536057</ele>
        <time>2025-07-10T10:34:34.000Z</time>
      </trkpt>
      <trkpt lat="44.86609" lon="5.79644">
        <ele>798.206148</ele>
        <time>2025-07-10T10:34:35.000Z</time>
      </trkpt>
      <trkpt lat="44.86617" lon="5.79647">
        <ele>797.861029</ele>
        <time>2025-07-10T10:34:36.000Z</time>
      </trkpt>
      <trkpt lat="44.86625" lon="5.79651">
        <ele>797.515122</ele>
        <time>2025-07-10T10:34:37.000Z</time>
      </trkpt>
      <trkpt lat="44.86633" lon="5.79657">
        <ele>797.115458</ele>
        <time>2025-07-10T10:34:38.000Z</time>
      </trkpt>
      <trkpt lat="44.86641" lon="5.79661">
        <ele>796.708647</ele>
        <time>2025-07-10T10:34:39.000Z</time>
      </trkpt>
      <trkpt lat="44.86649" lon="5.79666">
        <ele>796.301276</ele>
        <time>2025-07-10T10:34:40.000Z</time>
      </trkpt>
      <trkpt lat="44.86657" lon="5.79671">
        <ele>795.914284</ele>
        <time>2025-07-10T10:34:41.000Z</time>
      </trkpt>
      <trkpt lat="44.86664" lon="5.79675">
        <ele>795.555677</ele>
        <time>2025-07-10T10:34:42.000Z</time>
      </trkpt>
      <trkpt lat="44.86671" lon="5.79679">
        <ele>795.216511</ele>
        <time>2025-07-10T10:34:43.000Z</time>
      </trkpt>
      <trkpt lat="44.86678" lon="5.79682">
        <ele>794.870074</ele>
        <time>2025-07-10T10:34:44.000Z</time>
      </trkpt>
      <trkpt lat="44.86685" lon="5.79684">
        <ele>794.521436</ele>
        <time>2025-07-10T10:34:45.000Z</time>
      </trkpt>
      <trkpt lat="44.86692" lon="5.79685">
        <ele>794.17822</ele>
        <time>2025-07-10T10:34:46.000Z</time>
      </trkpt>
      <trkpt lat="44.867" lon="5.79684">
        <ele>793.830647</ele>
        <time>2025-07-10T10:34:47.000Z</time>
      </trkpt>
      <trkpt lat="44.86707" lon="5.79682">
        <ele>793.482857</ele>
        <time>2025-07-10T10:34:48.000Z</time>
      </trkpt>
      <trkpt lat="44.86713" lon="5.79676">
        <ele>793.149824</ele>
        <time>2025-07-10T10:34:49.000Z</time>
      </trkpt>
      <trkpt lat="44.86717" lon="5.79669">
        <ele>792.830782</ele>
        <time>2025-07-10T10:34:50.000Z</time>
      </trkpt>
      <trkpt lat="44.86721" lon="5.79662">
        <ele>792.514188</ele>
        <time>2025-07-10T10:34:51.000Z</time>
      </trkpt>
      <trkpt lat="44.86724" lon="5.79653">
        <ele>792.187324</ele>
        <time>2025-07-10T10:34:52.000Z</time>
      </trkpt>
      <trkpt lat="44.86727" lon="5.79643">
        <ele>791.8259</ele>
        <time>2025-07-10T10:34:53.000Z</time>
      </trkpt>
      <trkpt lat="44.86727" lon="5.79631">
        <ele>791.444489</ele>
        <time>2025-07-10T10:34:54.000Z</time>
      </trkpt>
      <trkpt lat="44.86728" lon="5.7962">
        <ele>791.078582</ele>
        <time>2025-07-10T10:34:55.000Z</time>
      </trkpt>
      <trkpt lat="44.86729" lon="5.7961">
        <ele>790.748606</ele>
        <time>2025-07-10T10:34:56.000Z</time>
      </trkpt>
      <trkpt lat="44.8673" lon="5.796">
        <ele>790.420291</ele>
        <time>2025-07-10T10:34:57.000Z</time>
      </trkpt>
      <trkpt lat="44.86734" lon="5.79593">
        <ele>790.108767</ele>
        <time>2025-07-10T10:34:58.000Z</time>
      </trkpt>
      <trkpt lat="44.86739" lon="5.79588">
        <ele>789.835001</ele>
        <time>2025-07-10T10:34:59.000Z</time>
      </trkpt>
      <trkpt lat="44.86744" lon="5.79586">
        <ele>789.586629</ele>
        <time>2025-07-10T10:35:00.000Z</time>
      </trkpt>
      <trkpt lat="44.86749" lon="5.7959">
        <ele>789.309476</ele>
        <time>2025-07-10T10:35:01.000Z</time>
      </trkpt>
      <trkpt lat="44.86754" lon="5.79594">
        <ele>789.054447</ele>
        <time>2025-07-10T10:35:02.000Z</time>
      </trkpt>
      <trkpt lat="44.86757" lon="5.79601">
        <ele>788.820504</ele>
        <time>2025-07-10T10:35:03.000Z</time>
      </trkpt>
      <trkpt lat="44.8676" lon="5.79607">
        <ele>788.809808</ele>
        <time>2025-07-10T10:35:04.000Z</time>
      </trkpt>
      <trkpt lat="44.86763" lon="5.79614">
        <ele>788.798546</ele>
        <time>2025-07-10T10:35:05.000Z</time>
      </trkpt>
      <trkpt lat="44.86765" lon="5.79621">
        <ele>788.788041</ele>
        <time>2025-07-10T10:35:06.000Z</time>
      </trkpt>
      <trkpt lat="44.86767" lon="5.79628">
        <ele>788.777346</ele>
        <time>2025-07-10T10:35:07.000Z</time>
      </trkpt>
      <trkpt lat="44.86769" lon="5.79635">
        <ele>788.767307</ele>
        <time>2025-07-10T10:35:08.000Z</time>
      </trkpt>
      <trkpt lat="44.86771" lon="5.79641">
        <ele>788.757369</ele>
        <time>2025-07-10T10:35:09.000Z</time>
      </trkpt>
      <trkpt lat="44.86773" lon="5.79647">
        <ele>788.747558</ele>
        <time>2025-07-10T10:35:10.000Z</time>
      </trkpt>
      <trkpt lat="44.86775" lon="5.79653">
        <ele>788.738069</ele>
        <time>2025-07-10T10:35:11.000Z</time>
      </trkpt>
      <trkpt lat="44.86778" lon="5.79659">
        <ele>788.727917</ele>
        <time>2025-07-10T10:35:12.000Z</time>
      </trkpt>
      <trkpt lat="44.8678" lon="5.79665">
        <ele>788.718397</ele>
        <time>2025-07-10T10:35:13.000Z</time>
      </trkpt>
      <trkpt lat="44.86783" lon="5.79671">
        <ele>788.709054</ele>
        <time>2025-07-10T10:35:14.000Z</time>
      </trkpt>
      <trkpt lat="44.86785" lon="5.79676">
        <ele>788.699618</ele>
        <time>2025-07-10T10:35:15.000Z</time>
      </trkpt>
      <trkpt lat="44.86789" lon="5.79681">
        <ele>788.690734</ele>
        <time>2025-07-10T10:35:16.000Z</time>
      </trkpt>
      <trkpt lat="44.86792" lon="5.79685">
        <ele>788.681635</ele>
        <time>2025-07-10T10:35:17.000Z</time>
      </trkpt>
      <trkpt lat="44.86797" lon="5.79687">
        <ele>788.672399</ele>
        <time>2025-07-10T10:35:18.000Z</time>
      </trkpt>
      <trkpt lat="44.86801" lon="5.79689">
        <ele>788.663351</ele>
        <time>2025-07-10T10:35:19.000Z</time>
      </trkpt>
      <trkpt lat="44.86805" lon="5.79691">
        <ele>788.65427</ele>
        <time>2025-07-10T10:35:20.000Z</time>
      </trkpt>
      <trkpt lat="44.8681" lon="5.79691">
        <ele>788.645097</ele>
        <time>2025-07-10T10:35:21.000Z</time>
      </trkpt>
      <trkpt lat="44.86815" lon="5.79691">
        <ele>788.635544</ele>
        <time>2025-07-10T10:35:22.000Z</time>
      </trkpt>
      <trkpt lat="44.8682" lon="5.79691">
        <ele>788.6258</ele>
        <time>2025-07-10T10:35:23.000Z</time>
      </trkpt>
      <trkpt lat="44.86825" lon="5.79691">
        <ele>788.615975</ele>
        <time>2025-07-10T10:35:24.000Z</time>
      </trkpt>
      <trkpt lat="44.86829" lon="5.79689">
        <ele>788.606869</ele>
        <time>2025-07-10T10:35:25.000Z</time>
      </trkpt>
      <trkpt lat="44.86834" lon="5.79688">
        <ele>788.597635</ele>
        <time>2025-07-10T10:35:26.000Z</time>
      </trkpt>
      <trkpt lat="44.86839" lon="5.79688">
        <ele>788.587867</ele>
        <time>2025-07-10T10:35:27.000Z</time>
      </trkpt>
      <trkpt lat="44.86844" lon="5.79688">
        <ele>788.577717</ele>
        <time>2025-07-10T10:35:28.000Z</time>
      </trkpt>
      <trkpt lat="44.86849" lon="5.79688">
        <ele>788.567576</ele>
        <time>2025-07-10T10:35:29.000Z</time>
      </trkpt>
      <trkpt lat="44.86854" lon="5.79688">
        <ele>788.557426</ele>
        <time>2025-07-10T10:35:30.000Z</time>
      </trkpt>
      <trkpt lat="44.86859" lon="5.79688">
        <ele>788.548081</ele>
        <time>2025-07-10T10:35:31.000Z</time>
      </trkpt>
      <trkpt lat="44.86864" lon="5.79688">
        <ele>788.537937</ele>
        <time>2025-07-10T10:35:32.000Z</time>
      </trkpt>
      <trkpt lat="44.86869" lon="5.79688">
        <ele>788.527594</ele>
        <time>2025-07-10T10:35:33.000Z</time>
      </trkpt>
      <trkpt lat="44.86874" lon="5.79689">
        <ele>788.517032</ele>
        <time>2025-07-10T10:35:34.000Z</time>
      </trkpt>
      <trkpt lat="44.8688" lon="5.7969">
        <ele>788.505865</ele>
        <time>2025-07-10T10:35:35.000Z</time>
      </trkpt>
      <trkpt lat="44.86885" lon="5.7969">
        <ele>788.495502</ele>
        <time>2025-07-10T10:35:36.000Z</time>
      </trkpt>
      <trkpt lat="44.8689" lon="5.7969">
        <ele>788.484558</ele>
        <time>2025-07-10T10:35:37.000Z</time>
      </trkpt>
      <trkpt lat="44.86896" lon="5.79691">
        <ele>788.473813</ele>
        <time>2025-07-10T10:35:38.000Z</time>
      </trkpt>
      <trkpt lat="44.86901" lon="5.79691">
        <ele>788.467427</ele>
        <time>2025-07-10T10:35:39.000Z</time>
      </trkpt>
      <trkpt lat="44.86906" lon="5.79692">
        <ele>788.487945</ele>
        <time>2025-07-10T10:35:40.000Z</time>
      </trkpt>
      <trkpt lat="44.86911" lon="5.79693">
        <ele>788.510525</ele>
        <time>2025-07-10T10:35:41.000Z</time>
      </trkpt>
      <trkpt lat="44.86916" lon="5.79694">
        <ele>788.534172</ele>
        <time>2025-07-10T10:35:42.000Z</time>
      </trkpt>
      <trkpt lat="44.86922" lon="5.79696">
        <ele>788.557635</ele>
        <time>2025-07-10T10:35:43.000Z</time>
      </trkpt>
      <trkpt lat="44.86927" lon="5.79697">
        <ele>788.580856</ele>
        <time>2025-07-10T10:35:44.000Z</time>
      </trkpt>
      <trkpt lat="44.86932" lon="5.79699">
        <ele>788.60355</ele>
        <time>2025-07-10T10:35:45.000Z</time>
      </trkpt>
      <trkpt lat="44.86937" lon="5.79701">
        <ele>788.627578</ele>
        <time>2025-07-10T10:35:46.000Z</time>
      </trkpt>
      <trkpt lat="44.86943" lon="5.79704">
        <ele>788.652924</ele>
        <time>2025-07-10T10:35:47.000Z</time>
      </trkpt>
      <trkpt lat="44.86948" lon="5.79707">
        <ele>788.676752</ele>
        <time>2025-07-10T10:35:48.000Z</time>
      </trkpt>
      <trkpt lat="44.86953" lon="5.7971">
        <ele>788.700088</ele>
        <time>2025-07-10T10:35:49.000Z</time>
      </trkpt>
      <trkpt lat="44.86958" lon="5.79713">
        <ele>788.722071</ele>
        <time>2025-07-10T10:35:50.000Z</time>
      </trkpt>
      <trkpt lat="44.86962" lon="5.79715">
        <ele>788.743647</ele>
        <time>2025-07-10T10:35:51.000Z</time>
      </trkpt>
      <trkpt lat="44.86967" lon="5.79718">
        <ele>788.765539</ele>
        <time>2025-07-10T10:35:52.000Z</time>
      </trkpt>
      <trkpt lat="44.86971" lon="5.79721">
        <ele>788.787024</ele>
        <time>2025-07-10T10:35:53.000Z</time>
      </trkpt>
      <trkpt lat="44.86976" lon="5.79724">
        <ele>788.808132</ele>
        <time>2025-07-10T10:35:54.000Z</time>
      </trkpt>
      <trkpt lat="44.8698" lon="5.79727">
        <ele>788.828576</ele>
        <time>2025-07-10T10:35:55.000Z</time>
      </trkpt>
      <trkpt lat="44.86984" lon="5.79729">
        <ele>788.84798</ele>
        <time>2025-07-10T10:35:56.000Z</time>
      </trkpt>
      <trkpt lat="44.86988" lon="5.79732">
        <ele>788.866625</ele>
        <time>2025-07-10T10:35:57.000Z</time>
      </trkpt>
      <trkpt lat="44.86993" lon="5.79734">
        <ele>788.886303</ele>
        <time>2025-07-10T10:35:58.000Z</time>
      </trkpt>
      <trkpt lat="44.86997" lon="5.79736">
        <ele>788.905238</ele>
        <time>2025-07-10T10:35:59.000Z</time>
      </trkpt>
      <trkpt lat="44.87001" lon="5.79739">
        <ele>788.924399</ele>
        <time>2025-07-10T10:36:00.000Z</time>
      </trkpt>
      <trkpt lat="44.87005" lon="5.79741">
        <ele>788.943445</ele>
        <time>2025-07-10T10:36:01.000Z</time>
      </trkpt>
      <trkpt lat="44.87009" lon="5.79743">
        <ele>788.96238</ele>
        <time>2025-07-10T10:36:02.000Z</time>
      </trkpt>
      <trkpt lat="44.87013" lon="5.79746">
        <ele>788.981828</ele>
        <time>2025-07-10T10:36:03.000Z</time>
      </trkpt>
      <trkpt lat="44.87017" lon="5.79748">
        <ele>788.999741</ele>
        <time>2025-07-10T10:36:04.000Z</time>
      </trkpt>
      <trkpt lat="44.87021" lon="5.79749">
        <ele>789.016949</ele>
        <time>2025-07-10T10:36:05.000Z</time>
      </trkpt>
      <trkpt lat="44.87025" lon="5.79751">
        <ele>789.034321</ele>
        <time>2025-07-10T10:36:06.000Z</time>
      </trkpt>
      <trkpt lat="44.87029" lon="5.79752">
        <ele>789.051619</ele>
        <time>2025-07-10T10:36:07.000Z</time>
      </trkpt>
      <trkpt lat="44.87033" lon="5.79753">
        <ele>789.069829</ele>
        <time>2025-07-10T10:36:08.000Z</time>
      </trkpt>
      <trkpt lat="44.87037" lon="5.79755">
        <ele>789.088777</ele>
        <time>2025-07-10T10:36:09.000Z</time>
      </trkpt>
      <trkpt lat="44.87041" lon="5.79757">
        <ele>789.107639</ele>
        <time>2025-07-10T10:36:10.000Z</time>
      </trkpt>
      <trkpt lat="44.87045" lon="5.79758">
        <ele>789.125923</ele>
        <time>2025-07-10T10:36:11.000Z</time>
      </trkpt>
      <trkpt lat="44.87049" lon="5.7976">
        <ele>789.142311</ele>
        <time>2025-07-10T10:36:12.000Z</time>
      </trkpt>
      <trkpt lat="44.87053" lon="5.79761">
        <ele>789.159847</ele>
        <time>2025-07-10T10:36:13.000Z</time>
      </trkpt>
      <trkpt lat="44.87057" lon="5.79762">
        <ele>789.175888</ele>
        <time>2025-07-10T10:36:14.000Z</time>
      </trkpt>
      <trkpt lat="44.8706" lon="5.79763">
        <ele>789.19088</ele>
        <time>2025-07-10T10:36:15.000Z</time>
      </trkpt>
      <trkpt lat="44.87064" lon="5.79763">
        <ele>789.206957</ele>
        <time>2025-07-10T10:36:16.000Z</time>
      </trkpt>
      <trkpt lat="44.87067" lon="5.79764">
        <ele>789.223407</ele>
        <time>2025-07-10T10:36:17.000Z</time>
      </trkpt>
      <trkpt lat="44.87071" lon="5.79764">
        <ele>789.240698</ele>
        <time>2025-07-10T10:36:18.000Z</time>
      </trkpt>
      <trkpt lat="44.87075" lon="5.79764">
        <ele>789.209913</ele>
        <time>2025-07-10T10:36:19.000Z</time>
      </trkpt>
      <trkpt lat="44.87079" lon="5.79764">
        <ele>789.179045</ele>
        <time>2025-07-10T10:36:20.000Z</time>
      </trkpt>
      <trkpt lat="44.87083" lon="5.79763">
        <ele>789.147979</ele>
        <time>2025-07-10T10:36:21.000Z</time>
      </trkpt>
      <trkpt lat="44.87086" lon="5.79763">
        <ele>789.117026</ele>
        <time>2025-07-10T10:36:22.000Z</time>
      </trkpt>
      <trkpt lat="44.8709" lon="5.79763">
        <ele>789.08524</ele>
        <time>2025-07-10T10:36:23.000Z</time>
      </trkpt>
      <trkpt lat="44.87094" lon="5.79762">
        <ele>789.051854</ele>
        <time>2025-07-10T10:36:24.000Z</time>
      </trkpt>
      <trkpt lat="44.87098" lon="5.79762">
        <ele>789.015865</ele>
        <time>2025-07-10T10:36:25.000Z</time>
      </trkpt>
      <trkpt lat="44.87103" lon="5.79761">
        <ele>788.979413</ele>
        <time>2025-07-10T10:36:26.000Z</time>
      </trkpt>
      <trkpt lat="44.87107" lon="5.7976">
        <ele>788.944706</ele>
        <time>2025-07-10T10:36:27.000Z</time>
      </trkpt>
      <trkpt lat="44.87111" lon="5.79759">
        <ele>788.907772</ele>
        <time>2025-07-10T10:36:28.000Z</time>
      </trkpt>
      <trkpt lat="44.87116" lon="5.79759">
        <ele>788.867664</ele>
        <time>2025-07-10T10:36:29.000Z</time>
      </trkpt>
      <trkpt lat="44.87121" lon="5.79759">
        <ele>788.828455</ele>
        <time>2025-07-10T10:36:30.000Z</time>
      </trkpt>
      <trkpt lat="44.87125" lon="5.79759">
        <ele>788.78918</ele>
        <time>2025-07-10T10:36:31.000Z</time>
      </trkpt>
      <trkpt lat="44.8713" lon="5.7976">
        <ele>788.748518</ele>
        <time>2025-07-10T10:36:32.000Z</time>
      </trkpt>
      <trkpt lat="44.87135" lon="5.79762">
        <ele>788.707737</ele>
        <time>2025-07-10T10:36:33.000Z</time>
      </trkpt>
      <trkpt lat="44.87139" lon="5.79764">
        <ele>788.668799</ele>
        <time>2025-07-10T10:36:34.000Z</time>
      </trkpt>
      <trkpt lat="44.87144" lon="5.79767">
        <ele>788.628238</ele>
        <time>2025-07-10T10:36:35.000Z</time>
      </trkpt>
      <trkpt lat="44.87149" lon="5.7977">
        <ele>788.585909</ele>
        <time>2025-07-10T10:36:36.000Z</time>
      </trkpt>
      <trkpt lat="44.87153" lon="5.79772">
        <ele>788.544575</ele>
        <time>2025-07-10T10:36:37.000Z</time>
      </trkpt>
      <trkpt lat="44.87158" lon="5.79774">
        <ele>788.504653</ele>
        <time>2025-07-10T10:36:38.000Z</time>
      </trkpt>
      <trkpt lat="44.87162" lon="5.79777">
        <ele>788.465118</ele>
        <time>2025-07-10T10:36:39.000Z</time>
      </trkpt>
      <trkpt lat="44.87167" lon="5.79779">
        <ele>788.423813</ele>
        <time>2025-07-10T10:36:40.000Z</time>
      </trkpt>
      <trkpt lat="44.87172" lon="5.79781">
        <ele>788.382385</ele>
        <time>2025-07-10T10:36:41.000Z</time>
      </trkpt>
      <trkpt lat="44.87177" lon="5.79782">
        <ele>788.339746</ele>
        <time>2025-07-10T10:36:42.000Z</time>
      </trkpt>
      <trkpt lat="44.87182" lon="5.79784">
        <ele>788.296291</ele>
        <time>2025-07-10T10:36:43.000Z</time>
      </trkpt>
      <trkpt lat="44.87187" lon="5.79785">
        <ele>788.252836</ele>
        <time>2025-07-10T10:36:44.000Z</time>
      </trkpt>
      <trkpt lat="44.87192" lon="5.79786">
        <ele>788.208976</ele>
        <time>2025-07-10T10:36:45.000Z</time>
      </trkpt>
      <trkpt lat="44.87197" lon="5.79787">
        <ele>788.166333</ele>
        <time>2025-07-10T10:36:46.000Z</time>
      </trkpt>
      <trkpt lat="44.87202" lon="5.79787">
        <ele>788.12212</ele>
        <time>2025-07-10T10:36:47.000Z</time>
      </trkpt>
      <trkpt lat="44.87208" lon="5.79786">
        <ele>788.077812</ele>
        <time>2025-07-10T10:36:48.000Z</time>
      </trkpt>
      <trkpt lat="44.87213" lon="5.79785">
        <ele>788.032522</ele>
        <time>2025-07-10T10:36:49.000Z</time>
      </trkpt>
      <trkpt lat="44.87219" lon="5.79784">
        <ele>787.987012</ele>
        <time>2025-07-10T10:36:50.000Z</time>
      </trkpt>
      <trkpt lat="44.87224" lon="5.79783">
        <ele>787.942854</ele>
        <time>2025-07-10T10:36:51.000Z</time>
      </trkpt>
      <trkpt lat="44.87229" lon="5.79781">
        <ele>787.896704</ele>
        <time>2025-07-10T10:36:52.000Z</time>
      </trkpt>
      <trkpt lat="44.87235" lon="5.79779">
        <ele>787.848854</ele>
        <time>2025-07-10T10:36:53.000Z</time>
      </trkpt>
      <trkpt lat="44.8724" lon="5.79776">
        <ele>787.800083</ele>
        <time>2025-07-10T10:36:54.000Z</time>
      </trkpt>
      <trkpt lat="44.87246" lon="5.79774">
        <ele>787.750631</ele>
        <time>2025-07-10T10:36:55.000Z</time>
      </trkpt>
      <trkpt lat="44.87251" lon="5.79771">
        <ele>787.651996</ele>
        <time>2025-07-10T10:36:56.000Z</time>
      </trkpt>
      <trkpt lat="44.87256" lon="5.79767">
        <ele>787.54058</ele>
        <time>2025-07-10T10:36:57.000Z</time>
      </trkpt>
      <trkpt lat="44.87262" lon="5.79764">
        <ele>787.427978</ele>
        <time>2025-07-10T10:36:58.000Z</time>
      </trkpt>
      <trkpt lat="44.87267" lon="5.79759">
        <ele>787.315067</ele>
        <time>2025-07-10T10:36:59.000Z</time>
      </trkpt>
      <trkpt lat="44.87272" lon="5.79755">
        <ele>787.195016</ele>
        <time>2025-07-10T10:37:00.000Z</time>
      </trkpt>
      <trkpt lat="44.87277" lon="5.79751">
        <ele>787.07817</ele>
        <time>2025-07-10T10:37:01.000Z</time>
      </trkpt>
      <trkpt lat="44.87282" lon="5.79746">
        <ele>786.966894</ele>
        <time>2025-07-10T10:37:02.000Z</time>
      </trkpt>
      <trkpt lat="44.87287" lon="5.79742">
        <ele>786.853061</ele>
        <time>2025-07-10T10:37:03.000Z</time>
      </trkpt>
      <trkpt lat="44.87292" lon="5.79737">
        <ele>786.738647</ele>
        <time>2025-07-10T10:37:04.000Z</time>
      </trkpt>
      <trkpt lat="44.87297" lon="5.79732">
        <ele>786.621092</ele>
        <time>2025-07-10T10:37:05.000Z</time>
      </trkpt>
      <trkpt lat="44.87301" lon="5.79727">
        <ele>786.501505</ele>
        <time>2025-07-10T10:37:06.000Z</time>
      </trkpt>
      <trkpt lat="44.87306" lon="5.79721">
        <ele>786.383022</ele>
        <time>2025-07-10T10:37:07.000Z</time>
      </trkpt>
      <trkpt lat="44.8731" lon="5.79716">
        <ele>786.268439</ele>
        <time>2025-07-10T10:37:08.000Z</time>
      </trkpt>
      <trkpt lat="44.87315" lon="5.79711">
        <ele>786.151629</ele>
        <time>2025-07-10T10:37:09.000Z</time>
      </trkpt>
      <trkpt lat="44.8732" lon="5.79706">
        <ele>786.034834</ele>
        <time>2025-07-10T10:37:10.000Z</time>
      </trkpt>
      <trkpt lat="44.87325" lon="5.79701">
        <ele>785.918025</ele>
        <time>2025-07-10T10:37:11.000Z</time>
      </trkpt>
      <trkpt lat="44.8733" lon="5.79695">
        <ele>785.795758</ele>
        <time>2025-07-10T10:37:12.000Z</time>
      </trkpt>
      <trkpt lat="44.87334" lon="5.79689">
        <ele>785.677758</ele>
        <time>2025-07-10T10:37:13.000Z</time>
      </trkpt>
      <trkpt lat="44.87339" lon="5.79684">
        <ele>785.551474</ele>
        <time>2025-07-10T10:37:14.000Z</time>
      </trkpt>
      <trkpt lat="44.87344" lon="5.79678">
        <ele>785.437747</ele>
        <time>2025-07-10T10:37:15.000Z</time>
      </trkpt>
      <trkpt lat="44.87348" lon="5.79672">
        <ele>785.315968</ele>
        <time>2025-07-10T10:37:16.000Z</time>
      </trkpt>
      <trkpt lat="44.87351" lon="5.79666">
        <ele>785.207944</ele>
        <time>2025-07-10T10:37:17.000Z</time>
      </trkpt>
      <trkpt lat="44.87353" lon="5.79658">
        <ele>785.098718</ele>
        <time>2025-07-10T10:37:18.000Z</time>
      </trkpt>
      <trkpt lat="44.87355" lon="5.7965">
        <ele>784.975328</ele>
        <time>2025-07-10T10:37:19.000Z</time>
      </trkpt>
      <trkpt lat="44.87356" lon="5.79641">
        <ele>784.852834</ele>
        <time>2025-07-10T10:37:20.000Z</time>
      </trkpt>
      <trkpt lat="44.87358" lon="5.79633">
        <ele>784.734781</ele>
        <time>2025-07-10T10:37:21.000Z</time>
      </trkpt>
      <trkpt lat="44.87359" lon="5.79624">
        <ele>784.615438</ele>
        <time>2025-07-10T10:37:22.000Z</time>
      </trkpt>
      <trkpt lat="44.87361" lon="5.79615">
        <ele>784.486219</ele>
        <time>2025-07-10T10:37:23.000Z</time>
      </trkpt>
      <trkpt lat="44.87364" lon="5.79607">
        <ele>784.349595</ele>
        <time>2025-07-10T10:37:24.000Z</time>
      </trkpt>
      <trkpt lat="44.87368" lon="5.79598">
        <ele>784.22826</ele>
        <time>2025-07-10T10:37:25.000Z</time>
      </trkpt>
      <trkpt lat="44.87372" lon="5.79591">
        <ele>784.146957</ele>
        <time>2025-07-10T10:37:26.000Z</time>
      </trkpt>
      <trkpt lat="44.87377" lon="5.79585">
        <ele>784.070526</ele>
        <time>2025-07-10T10:37:27.000Z</time>
      </trkpt>
      <trkpt lat="44.87382" lon="5.79581">
        <ele>783.998718</ele>
        <time>2025-07-10T10:37:28.000Z</time>
      </trkpt>
      <trkpt lat="44.87388" lon="5.79578">
        <ele>783.921678</ele>
        <time>2025-07-10T10:37:29.000Z</time>
      </trkpt>
      <trkpt lat="44.87393" lon="5.79577">
        <ele>783.852432</ele>
        <time>2025-07-10T10:37:30.000Z</time>
      </trkpt>
      <trkpt lat="44.87398" lon="5.79576">
        <ele>783.793231</ele>
        <time>2025-07-10T10:37:31.000Z</time>
      </trkpt>
      <trkpt lat="44.87403" lon="5.79576">
        <ele>783.735781</ele>
        <time>2025-07-10T10:37:32.000Z</time>
      </trkpt>
      <trkpt lat="44.87408" lon="5.79579">
        <ele>783.669145</ele>
        <time>2025-07-10T10:37:33.000Z</time>
      </trkpt>
      <trkpt lat="44.87412" lon="5.79584">
        <ele>783.603842</ele>
        <time>2025-07-10T10:37:34.000Z</time>
      </trkpt>
      <trkpt lat="44.87416" lon="5.79589">
        <ele>783.538466</ele>
        <time>2025-07-10T10:37:35.000Z</time>
      </trkpt>
      <trkpt lat="44.87419" lon="5.79596">
        <ele>783.471954</ele>
        <time>2025-07-10T10:37:36.000Z</time>
      </trkpt>
      <trkpt lat="44.87422" lon="5.79603">
        <ele>783.398837</ele>
        <time>2025-07-10T10:37:37.000Z</time>
      </trkpt>
      <trkpt lat="44.87424" lon="5.79611">
        <ele>783.326476</ele>
        <time>2025-07-10T10:37:38.000Z</time>
      </trkpt>
      <trkpt lat="44.87427" lon="5.79617">
        <ele>783.262882</ele>
        <time>2025-07-10T10:37:39.000Z</time>
      </trkpt>
      <trkpt lat="44.8743" lon="5.79624">
        <ele>783.195735</ele>
        <time>2025-07-10T10:37:40.000Z</time>
      </trkpt>
      <trkpt lat="44.87433" lon="5.7963">
        <ele>783.128664</ele>
        <time>2025-07-10T10:37:41.000Z</time>
      </trkpt>
      <trkpt lat="44.87436" lon="5.79637">
        <ele>783.063707</ele>
        <time>2025-07-10T10:37:42.000Z</time>
      </trkpt>
      <trkpt lat="44.87438" lon="5.79643">
        <ele>783.000047</ele>
        <time>2025-07-10T10:37:43.000Z</time>
      </trkpt>
      <trkpt lat="44.87441" lon="5.79649">
        <ele>782.934438</ele>
        <time>2025-07-10T10:37:44.000Z</time>
      </trkpt>
      <trkpt lat="44.87444" lon="5.79655">
        <ele>782.868121</ele>
        <time>2025-07-10T10:37:45.000Z</time>
      </trkpt>
      <trkpt lat="44.87448" lon="5.79662">
        <ele>782.801764</ele>
        <time>2025-07-10T10:37:46.000Z</time>
      </trkpt>
      <trkpt lat="44.87451" lon="5.79668">
        <ele>782.73191</ele>
        <time>2025-07-10T10:37:47.000Z</time>
      </trkpt>
      <trkpt lat="44.87454" lon="5.79675">
        <ele>782.663446</ele>
        <time>2025-07-10T10:37:48.000Z</time>
      </trkpt>
      <trkpt lat="44.87458" lon="5.79681">
        <ele>782.59501</ele>
        <time>2025-07-10T10:37:49.000Z</time>
      </trkpt>
      <trkpt lat="44.87461" lon="5.79687">
        <ele>782.526539</ele>
        <time>2025-07-10T10:37:50.000Z</time>
      </trkpt>
      <trkpt lat="44.87464" lon="5.79694">
        <ele>782.45951</ele>
        <time>2025-07-10T10:37:51.000Z</time>
      </trkpt>
      <trkpt lat="44.87467" lon="5.797">
        <ele>782.391076</ele>
        <time>2025-07-10T10:37:52.000Z</time>
      </trkpt>
      <trkpt lat="44.8747" lon="5.79707">
        <ele>782.323351</ele>
        <time>2025-07-10T10:37:53.000Z</time>
      </trkpt>
      <trkpt lat="44.87474" lon="5.79713">
        <ele>782.254917</ele>
        <time>2025-07-10T10:37:54.000Z</time>
      </trkpt>
      <trkpt lat="44.87476" lon="5.7972">
        <ele>782.186167</ele>
        <time>2025-07-10T10:37:55.000Z</time>
      </trkpt>
      <trkpt lat="44.87479" lon="5.79727">
        <ele>782.119708</ele>
        <time>2025-07-10T10:37:56.000Z</time>
      </trkpt>
      <trkpt lat="44.87481" lon="5.79734">
        <ele>782.051912</ele>
        <time>2025-07-10T10:37:57.000Z</time>
      </trkpt>
      <trkpt lat="44.87483" lon="5.79741">
        <ele>781.886927</ele>
        <time>2025-07-10T10:37:58.000Z</time>
      </trkpt>
      <trkpt lat="44.87485" lon="5.79748">
        <ele>781.713862</ele>
        <time>2025-07-10T10:37:59.000Z</time>
      </trkpt>
      <trkpt lat="44.87487" lon="5.79755">
        <ele>781.549806</ele>
        <time>2025-07-10T10:38:00.000Z</time>
      </trkpt>
      <trkpt lat="44.87489" lon="5.79761">
        <ele>781.385496</ele>
        <time>2025-07-10T10:38:01.000Z</time>
      </trkpt>
      <trkpt lat="44.87491" lon="5.79769">
        <ele>781.215072</ele>
        <time>2025-07-10T10:38:02.000Z</time>
      </trkpt>
      <trkpt lat="44.87493" lon="5.79776">
        <ele>781.044534</ele>
        <time>2025-07-10T10:38:03.000Z</time>
      </trkpt>
      <trkpt lat="44.87495" lon="5.79783">
        <ele>780.870894</ele>
        <time>2025-07-10T10:38:04.000Z</time>
      </trkpt>
      <trkpt lat="44.87497" lon="5.7979">
        <ele>780.697829</ele>
        <time>2025-07-10T10:38:05.000Z</time>
      </trkpt>
      <trkpt lat="44.87499" lon="5.79796">
        <ele>780.531432</ele>
        <time>2025-07-10T10:38:06.000Z</time>
      </trkpt>
      <trkpt lat="44.87502" lon="5.79801">
        <ele>780.379887</ele>
        <time>2025-07-10T10:38:07.000Z</time>
      </trkpt>
      <trkpt lat="44.87505" lon="5.79806">
        <ele>780.253391</ele>
        <time>2025-07-10T10:38:08.000Z</time>
      </trkpt>
      <trkpt lat="44.87507" lon="5.79809">
        <ele>780.152628</ele>
        <time>2025-07-10T10:38:09.000Z</time>
      </trkpt>
      <trkpt lat="44.87509" lon="5.79812">
        <ele>780.065702</ele>
        <time>2025-07-10T10:38:10.000Z</time>
      </trkpt>
      <trkpt lat="44.87509" lon="5.79816">
        <ele>779.983346</ele>
        <time>2025-07-10T10:38:11.000Z</time>
      </trkpt>
      <trkpt lat="44.87509" lon="5.7982">
        <ele>779.892719</ele>
        <time>2025-07-10T10:38:12.000Z</time>
      </trkpt>
      <trkpt lat="44.87508" lon="5.79823">
        <ele>779.810692</ele>
        <time>2025-07-10T10:38:13.000Z</time>
      </trkpt>
      <trkpt lat="44.87507" lon="5.79826">
        <ele>779.730859</ele>
        <time>2025-07-10T10:38:14.000Z</time>
      </trkpt>
      <trkpt lat="44.87506" lon="5.79829">
        <ele>779.665978</ele>
        <time>2025-07-10T10:38:15.000Z</time>
      </trkpt>
      <trkpt lat="44.87505" lon="5.7983">
        <ele>779.621722</ele>
        <time>2025-07-10T10:38:16.000Z</time>
      </trkpt>
      <trkpt lat="44.87504" lon="5.79831">
        <ele>779.593795</ele>
        <time>2025-07-10T10:38:17.000Z</time>
      </trkpt>
      <trkpt lat="44.87504" lon="5.79832">
        <ele>779.582054</ele>
        <time>2025-07-10T10:38:18.000Z</time>
      </trkpt>
      <trkpt lat="44.87505" lon="5.79832">
        <ele>779.562785</ele>
        <time>2025-07-10T10:38:57.000Z</time>
      </trkpt>
      <trkpt lat="44.87506" lon="5.79832">
        <ele>779.519812</ele>
        <time>2025-07-10T10:38:58.000Z</time>
      </trkpt>
      <trkpt lat="44.87508" lon="5.79831">
        <ele>779.476191</ele>
        <time>2025-07-10T10:38:59.000Z</time>
      </trkpt>
      <trkpt lat="44.87509" lon="5.7983">
        <ele>779.429646</ele>
        <time>2025-07-10T10:39:00.000Z</time>
      </trkpt>
      <trkpt lat="44.8751" lon="5.79828">
        <ele>779.372429</ele>
        <time>2025-07-10T10:39:01.000Z</time>
      </trkpt>
      <trkpt lat="44.87511" lon="5.79826">
        <ele>779.309409</ele>
        <time>2025-07-10T10:39:02.000Z</time>
      </trkpt>
      <trkpt lat="44.87512" lon="5.79824">
        <ele>779.251324</ele>
        <time>2025-07-10T10:39:03.000Z</time>
      </trkpt>
      <trkpt lat="44.87514" lon="5.79822">
        <ele>779.190921</ele>
        <time>2025-07-10T10:39:04.000Z</time>
      </trkpt>
      <trkpt lat="44.87515" lon="5.7982">
        <ele>779.118597</ele>
        <time>2025-07-10T10:39:05.000Z</time>
      </trkpt>
      <trkpt lat="44.87517" lon="5.79817">
        <ele>779.039619</ele>
        <time>2025-07-10T10:39:06.000Z</time>
      </trkpt>
      <trkpt lat="44.87519" lon="5.79815">
        <ele>778.958818</ele>
        <time>2025-07-10T10:39:07.000Z</time>
      </trkpt>
      <trkpt lat="44.87522" lon="5.79814">
        <ele>778.869309</ele>
        <time>2025-07-10T10:39:08.000Z</time>
      </trkpt>
      <trkpt lat="44.87524" lon="5.79813">
        <ele>778.774099</ele>
        <time>2025-07-10T10:39:09.000Z</time>
      </trkpt>
      <trkpt lat="44.87528" lon="5.79813">
        <ele>778.668829</ele>
        <time>2025-07-10T10:39:10.000Z</time>
      </trkpt>
      <trkpt lat="44.87531" lon="5.79814">
        <ele>778.557582</ele>
        <time>2025-07-10T10:39:11.000Z</time>
      </trkpt>
      <trkpt lat="44.87534" lon="5.79815">
        <ele>778.450042</ele>
        <time>2025-07-10T10:39:12.000Z</time>
      </trkpt>
      <trkpt lat="44.87537" lon="5.79817">
        <ele>778.348536</ele>
        <time>2025-07-10T10:39:13.000Z</time>
      </trkpt>
      <trkpt lat="44.87539" lon="5.79818">
        <ele>778.277097</ele>
        <time>2025-07-10T10:39:14.000Z</time>
      </trkpt>
      <trkpt lat="44.87541" lon="5.79819">
        <ele>778.22296</ele>
        <time>2025-07-10T10:39:15.000Z</time>
      </trkpt>
      <trkpt lat="44.87543" lon="5.79819">
        <ele>778.171882</ele>
        <time>2025-07-10T10:39:19.000Z</time>
      </trkpt>
      <trkpt lat="44.87543" lon="5.79819">
        <ele>778.147797</ele>
        <time>2025-07-10T10:39:20.000Z</time>
      </trkpt>
      <trkpt lat="44.87544" lon="5.79819">
        <ele>778.128135</ele>
        <time>2025-07-10T10:39:21.000Z</time>
      </trkpt>
      <trkpt lat="44.87544" lon="5.79819">
        <ele>778.128135</ele>
        <time>2025-07-10T10:39:23.000Z</time>
      </trkpt>
      <trkpt lat="44.87544" lon="5.79816">
        <ele>778.051868</ele>
        <time>2025-07-10T10:40:48.000Z</time>
      </trkpt>
      <trkpt lat="44.87545" lon="5.79815">
        <ele>778.031279</ele>
        <time>2025-07-10T10:40:49.000Z</time>
      </trkpt>
      <trkpt lat="44.87546" lon="5.79814">
        <ele>777.995678</ele>
        <time>2025-07-10T10:40:50.000Z</time>
      </trkpt>
      <trkpt lat="44.87547" lon="5.79815">
        <ele>777.95659</ele>
        <time>2025-07-10T10:40:51.000Z</time>
      </trkpt>
      <trkpt lat="44.87547" lon="5.79816">
        <ele>777.942659</ele>
        <time>2025-07-10T10:40:52.000Z</time>
      </trkpt>
      <trkpt lat="44.87548" lon="5.79817">
        <ele>777.895996</ele>
        <time>2025-07-10T10:40:56.000Z</time>
      </trkpt>
      <trkpt lat="44.8755" lon="5.79819">
        <ele>777.812533</ele>
        <time>2025-07-10T10:41:48.000Z</time>
      </trkpt>
      <trkpt lat="44.87551" lon="5.79819">
        <ele>777.790094</ele>
        <time>2025-07-10T10:41:49.000Z</time>
      </trkpt>
      <trkpt lat="44.87552" lon="5.79819">
        <ele>777.754723</ele>
        <time>2025-07-10T10:41:50.000Z</time>
      </trkpt>
      <trkpt lat="44.87554" lon="5.79819">
        <ele>777.706671</ele>
        <time>2025-07-10T10:41:51.000Z</time>
      </trkpt>
      <trkpt lat="44.87555" lon="5.79819">
        <ele>777.645697</ele>
        <time>2025-07-10T10:41:52.000Z</time>
      </trkpt>
      <trkpt lat="44.87558" lon="5.7982">
        <ele>777.561281</ele>
        <time>2025-07-10T10:41:53.000Z</time>
      </trkpt>
      <trkpt lat="44.87561" lon="5.79821">
        <ele>777.453008</ele>
        <time>2025-07-10T10:41:54.000Z</time>
      </trkpt>
      <trkpt lat="44.87565" lon="5.79823">
        <ele>777.335673</ele>
        <time>2025-07-10T10:41:55.000Z</time>
      </trkpt>
      <trkpt lat="44.87568" lon="5.79824">
        <ele>777.228825</ele>
        <time>2025-07-10T10:41:56.000Z</time>
      </trkpt>
      <trkpt lat="44.87571" lon="5.79825">
        <ele>777.11705</ele>
        <time>2025-07-10T10:41:57.000Z</time>
      </trkpt>
      <trkpt lat="44.87575" lon="5.79826">
        <ele>776.991932</ele>
        <time>2025-07-10T10:41:58.000Z</time>
      </trkpt>
      <trkpt lat="44.87579" lon="5.79826">
        <ele>776.860861</ele>
        <time>2025-07-10T10:41:59.000Z</time>
      </trkpt>
      <trkpt lat="44.87584" lon="5.79828">
        <ele>776.707663</ele>
        <time>2025-07-10T10:42:00.000Z</time>
      </trkpt>
      <trkpt lat="44.87589" lon="5.79829">
        <ele>776.533321</ele>
        <time>2025-07-10T10:42:01.000Z</time>
      </trkpt>
      <trkpt lat="44.87595" lon="5.7983">
        <ele>776.357549</ele>
        <time>2025-07-10T10:42:02.000Z</time>
      </trkpt>
      <trkpt lat="44.876" lon="5.79829">
        <ele>776.244937</ele>
        <time>2025-07-10T10:42:03.000Z</time>
      </trkpt>
      <trkpt lat="44.87606" lon="5.79828">
        <ele>776.146136</ele>
        <time>2025-07-10T10:42:04.000Z</time>
      </trkpt>
      <trkpt lat="44.87611" lon="5.79825">
        <ele>776.047912</ele>
        <time>2025-07-10T10:42:05.000Z</time>
      </trkpt>
      <trkpt lat="44.87616" lon="5.79821">
        <ele>775.950448</ele>
        <time>2025-07-10T10:42:06.000Z</time>
      </trkpt>
      <trkpt lat="44.87621" lon="5.79815">
        <ele>775.848303</ele>
        <time>2025-07-10T10:42:07.000Z</time>
      </trkpt>
      <trkpt lat="44.87626" lon="5.7981">
        <ele>775.746762</ele>
        <time>2025-07-10T10:42:08.000Z</time>
      </trkpt>
      <trkpt lat="44.8763" lon="5.79804">
        <ele>775.65017</ele>
        <time>2025-07-10T10:42:09.000Z</time>
      </trkpt>
      <trkpt lat="44.87634" lon="5.798">
        <ele>775.565285</ele>
        <time>2025-07-10T10:42:10.000Z</time>
      </trkpt>
      <trkpt lat="44.87637" lon="5.79796">
        <ele>775.485597</ele>
        <time>2025-07-10T10:42:11.000Z</time>
      </trkpt>
      <trkpt lat="44.8764" lon="5.79791">
        <ele>775.417282</ele>
        <time>2025-07-10T10:42:12.000Z</time>
      </trkpt>
      <trkpt lat="44.87642" lon="5.79787">
        <ele>775.35303</ele>
        <time>2025-07-10T10:42:13.000Z</time>
      </trkpt>
      <trkpt lat="44.87644" lon="5.79784">
        <ele>775.299915</ele>
        <time>2025-07-10T10:42:14.000Z</time>
      </trkpt>
      <trkpt lat="44.87646" lon="5.79781">
        <ele>775.252862</ele>
        <time>2025-07-10T10:42:15.000Z</time>
      </trkpt>
      <trkpt lat="44.87648" lon="5.79779">
        <ele>775.213399</ele>
        <time>2025-07-10T10:42:16.000Z</time>
      </trkpt>
      <trkpt lat="44.8765" lon="5.79776">
        <ele>775.168406</ele>
        <time>2025-07-10T10:42:17.000Z</time>
      </trkpt>
      <trkpt lat="44.87652" lon="5.79774">
        <ele>775.125296</ele>
        <time>2025-07-10T10:42:18.000Z</time>
      </trkpt>
      <trkpt lat="44.87654" lon="5.79772">
        <ele>775.08705</ele>
        <time>2025-07-10T10:42:19.000Z</time>
      </trkpt>
      <trkpt lat="44.87656" lon="5.79771">
        <ele>775.046023</ele>
        <time>2025-07-10T10:42:20.000Z</time>
      </trkpt>
      <trkpt lat="44.87657" lon="5.79769">
        <ele>775.009892</ele>
        <time>2025-07-10T10:42:21.000Z</time>
      </trkpt>
      <trkpt lat="44.87659" lon="5.79767">
        <ele>774.975157</ele>
        <time>2025-07-10T10:42:22.000Z</time>
      </trkpt>
      <trkpt lat="44.8766" lon="5.79765">
        <ele>774.945027</ele>
        <time>2025-07-10T10:42:23.000Z</time>
      </trkpt>
      <trkpt lat="44.87661" lon="5.79764">
        <ele>774.920417</ele>
        <time>2025-07-10T10:42:24.000Z</time>
      </trkpt>
      <trkpt lat="44.87662" lon="5.79762">
        <ele>774.894413</ele>
        <time>2025-07-10T10:42:25.000Z</time>
      </trkpt>
      <trkpt lat="44.87663" lon="5.7976">
        <ele>774.869803</ele>
        <time>2025-07-10T10:42:26.000Z</time>
      </trkpt>
      <trkpt lat="44.87664" lon="5.79758">
        <ele>774.840238</ele>
        <time>2025-07-10T10:42:27.000Z</time>
      </trkpt>
      <trkpt lat="44.87664" lon="5.79755">
        <ele>774.804283</ele>
        <time>2025-07-10T10:42:28.000Z</time>
      </trkpt>
      <trkpt lat="44.87665" lon="5.79752">
        <ele>774.76363</ele>
        <time>2025-07-10T10:42:29.000Z</time>
      </trkpt>
      <trkpt lat="44.87666" lon="5.79748">
        <ele>774.714218</ele>
        <time>2025-07-10T10:42:30.000Z</time>
      </trkpt>
      <trkpt lat="44.87667" lon="5.79744">
        <ele>774.655397</ele>
        <time>2025-07-10T10:42:31.000Z</time>
      </trkpt>
      <trkpt lat="44.87669" lon="5.79739">
        <ele>774.591255</ele>
        <time>2025-07-10T10:42:32.000Z</time>
      </trkpt>
      <trkpt lat="44.87671" lon="5.79735">
        <ele>774.538006</ele>
        <time>2025-07-10T10:42:33.000Z</time>
      </trkpt>
      <trkpt lat="44.87672" lon="5.79732">
        <ele>774.495452</ele>
        <time>2025-07-10T10:42:34.000Z</time>
      </trkpt>
      <trkpt lat="44.87673" lon="5.7973">
        <ele>774.464849</ele>
        <time>2025-07-10T10:42:35.000Z</time>
      </trkpt>
      <trkpt lat="44.87674" lon="5.79727">
        <ele>774.430761</ele>
        <time>2025-07-10T10:42:36.000Z</time>
      </trkpt>
      <trkpt lat="44.87674" lon="5.79725">
        <ele>774.405405</ele>
        <time>2025-07-10T10:42:37.000Z</time>
      </trkpt>
      <trkpt lat="44.87674" lon="5.79724">
        <ele>774.389652</ele>
        <time>2025-07-10T10:42:38.000Z</time>
      </trkpt>
      <trkpt lat="44.8767" lon="5.79733">
        <ele>774.269478</ele>
        <time>2025-07-10T10:43:20.000Z</time>
      </trkpt>
      <trkpt lat="44.87669" lon="5.79734">
        <ele>774.252755</ele>
        <time>2025-07-10T10:43:21.000Z</time>
      </trkpt>
      <trkpt lat="44.87669" lon="5.79735">
        <ele>774.238556</ele>
        <time>2025-07-10T10:43:22.000Z</time>
      </trkpt>
      <trkpt lat="44.87669" lon="5.79737">
        <ele>774.213257</ele>
        <time>2025-07-10T10:43:23.000Z</time>
      </trkpt>
      <trkpt lat="44.87669" lon="5.79739">
        <ele>774.190378</ele>
        <time>2025-07-10T10:43:24.000Z</time>
      </trkpt>
      <trkpt lat="44.87669" lon="5.7974">
        <ele>774.172559</ele>
        <time>2025-07-10T10:43:25.000Z</time>
      </trkpt>
      <trkpt lat="44.87669" lon="5.79741">
        <ele>774.153783</ele>
        <time>2025-07-10T10:43:26.000Z</time>
      </trkpt>
      <trkpt lat="44.87669" lon="5.79742">
        <ele>774.140985</ele>
        <time>2025-07-10T10:43:27.000Z</time>
      </trkpt>
      <trkpt lat="44.87668" lon="5.79743">
        <ele>774.121137</ele>
        <time>2025-07-10T10:43:28.000Z</time>
      </trkpt>
      <trkpt lat="44.87667" lon="5.79745">
        <ele>774.097547</ele>
        <time>2025-07-10T10:43:29.000Z</time>
      </trkpt>
      <trkpt lat="44.87667" lon="5.79746">
        <ele>774.077836</ele>
        <time>2025-07-10T10:43:30.000Z</time>
      </trkpt>
      <trkpt lat="44.87666" lon="5.79748">
        <ele>774.053958</ele>
        <time>2025-07-10T10:43:31.000Z</time>
      </trkpt>
      <trkpt lat="44.87666" lon="5.79751">
        <ele>774.025785</ele>
        <time>2025-07-10T10:43:32.000Z</time>
      </trkpt>
      <trkpt lat="44.87665" lon="5.79753">
        <ele>773.996733</ele>
        <time>2025-07-10T10:43:33.000Z</time>
      </trkpt>
      <trkpt lat="44.87664" lon="5.79755">
        <ele>773.964038</ele>
        <time>2025-07-10T10:43:34.000Z</time>
      </trkpt>
      <trkpt lat="44.87663" lon="5.79757">
        <ele>773.934473</ele>
        <time>2025-07-10T10:43:35.000Z</time>
      </trkpt>
      <trkpt lat="44.87662" lon="5.79759">
        <ele>773.902037</ele>
        <time>2025-07-10T10:43:36.000Z</time>
      </trkpt>
      <trkpt lat="44.87661" lon="5.79761">
        <ele>773.869538</ele>
        <time>2025-07-10T10:43:37.000Z</time>
      </trkpt>
      <trkpt lat="44.8766" lon="5.79763">
        <ele>773.839038</ele>
        <time>2025-07-10T10:43:38.000Z</time>
      </trkpt>
      <trkpt lat="44.87659" lon="5.79765">
        <ele>773.810316</ele>
        <time>2025-07-10T10:43:39.000Z</time>
      </trkpt>
      <trkpt lat="44.87658" lon="5.79767">
        <ele>773.783691</ele>
        <time>2025-07-10T10:43:40.000Z</time>
      </trkpt>
      <trkpt lat="44.87657" lon="5.79769">
        <ele>773.754366</ele>
        <time>2025-07-10T10:43:41.000Z</time>
      </trkpt>
      <trkpt lat="44.87655" lon="5.79771">
        <ele>773.722968</ele>
        <time>2025-07-10T10:43:42.000Z</time>
      </trkpt>
      <trkpt lat="44.87654" lon="5.79772">
        <ele>773.693643</ele>
        <time>2025-07-10T10:43:43.000Z</time>
      </trkpt>
      <trkpt lat="44.87653" lon="5.79774">
        <ele>773.663759</ele>
        <time>2025-07-10T10:43:44.000Z</time>
      </trkpt>
      <trkpt lat="44.87652" lon="5.79775">
        <ele>773.634853</ele>
        <time>2025-07-10T10:43:45.000Z</time>
      </trkpt>
      <trkpt lat="44.8765" lon="5.79776">
        <ele>773.609682</ele>
        <time>2025-07-10T10:43:46.000Z</time>
      </trkpt>
      <trkpt lat="44.87649" lon="5.79778">
        <ele>773.581616</ele>
        <time>2025-07-10T10:43:47.000Z</time>
      </trkpt>
      <trkpt lat="44.87648" lon="5.79779">
        <ele>773.551691</ele>
        <time>2025-07-10T10:43:48.000Z</time>
      </trkpt>
      <trkpt lat="44.87646" lon="5.79781">
        <ele>773.525221</ele>
        <time>2025-07-10T10:43:49.000Z</time>
      </trkpt>
      <trkpt lat="44.87646" lon="5.79782">
        <ele>773.501631</ele>
        <time>2025-07-10T10:43:50.000Z</time>
      </trkpt>
      <trkpt lat="44.87645" lon="5.79784">
        <ele>773.472909</ele>
        <time>2025-07-10T10:43:51.000Z</time>
      </trkpt>
      <trkpt lat="44.87644" lon="5.79786">
        <ele>773.444397</ele>
        <time>2025-07-10T10:43:52.000Z</time>
      </trkpt>
      <trkpt lat="44.87642" lon="5.79788">
        <ele>773.415849</ele>
        <time>2025-07-10T10:43:53.000Z</time>
      </trkpt>
      <trkpt lat="44.87641" lon="5.79789">
        <ele>773.388763</ele>
        <time>2025-07-10T10:43:54.000Z</time>
      </trkpt>
      <trkpt lat="44.8764" lon="5.7979">
        <ele>773.361522</ele>
        <time>2025-07-10T10:43:55.000Z</time>
      </trkpt>
      <trkpt lat="44.87638" lon="5.79792">
        <ele>773.330268</ele>
        <time>2025-07-10T10:43:56.000Z</time>
      </trkpt>
      <trkpt lat="44.87637" lon="5.79793">
        <ele>773.300943</ele>
        <time>2025-07-10T10:43:57.000Z</time>
      </trkpt>
      <trkpt lat="44.87636" lon="5.79795">
        <ele>773.274326</ele>
        <time>2025-07-10T10:43:58.000Z</time>
      </trkpt>
      <trkpt lat="44.87635" lon="5.79797">
        <ele>773.286953</ele>
        <time>2025-07-10T10:43:59.000Z</time>
      </trkpt>
      <trkpt lat="44.87634" lon="5.79799">
        <ele>773.369509</ele>
        <time>2025-07-10T10:44:00.000Z</time>
      </trkpt>
      <trkpt lat="44.87632" lon="5.79801">
        <ele>773.45842</ele>
        <time>2025-07-10T10:44:01.000Z</time>
      </trkpt>
      <trkpt lat="44.87631" lon="5.79802">
        <ele>773.542573</ele>
        <time>2025-07-10T10:44:02.000Z</time>
      </trkpt>
      <trkpt lat="44.87629" lon="5.79803">
        <ele>773.627084</ele>
        <time>2025-07-10T10:44:03.000Z</time>
      </trkpt>
      <trkpt lat="44.87628" lon="5.79806">
        <ele>773.717534</ele>
        <time>2025-07-10T10:44:04.000Z</time>
      </trkpt>
      <trkpt lat="44.87627" lon="5.79807">
        <ele>773.787553</ele>
        <time>2025-07-10T10:44:05.000Z</time>
      </trkpt>
      <trkpt lat="44.87625" lon="5.79809">
        <ele>773.865386</ele>
        <time>2025-07-10T10:44:06.000Z</time>
      </trkpt>
      <trkpt lat="44.87624" lon="5.79811">
        <ele>773.96084</ele>
        <time>2025-07-10T10:44:07.000Z</time>
      </trkpt>
      <trkpt lat="44.87623" lon="5.79813">
        <ele>774.03761</ele>
        <time>2025-07-10T10:44:08.000Z</time>
      </trkpt>
      <trkpt lat="44.87622" lon="5.79815">
        <ele>774.122615</ele>
        <time>2025-07-10T10:44:09.000Z</time>
      </trkpt>
      <trkpt lat="44.87621" lon="5.79817">
        <ele>774.198185</ele>
        <time>2025-07-10T10:44:10.000Z</time>
      </trkpt>
      <trkpt lat="44.8762" lon="5.79818">
        <ele>774.269292</ele>
        <time>2025-07-10T10:44:11.000Z</time>
      </trkpt>
      <trkpt lat="44.87618" lon="5.79819">
        <ele>774.356301</ele>
        <time>2025-07-10T10:44:12.000Z</time>
      </trkpt>
      <trkpt lat="44.87616" lon="5.79821">
        <ele>774.448076</ele>
        <time>2025-07-10T10:44:13.000Z</time>
      </trkpt>
      <trkpt lat="44.87615" lon="5.79822">
        <ele>774.52479</ele>
        <time>2025-07-10T10:44:14.000Z</time>
      </trkpt>
      <trkpt lat="44.87613" lon="5.79823">
        <ele>774.611799</ele>
        <time>2025-07-10T10:44:15.000Z</time>
      </trkpt>
      <trkpt lat="44.87612" lon="5.79824">
        <ele>774.687737</ele>
        <time>2025-07-10T10:44:16.000Z</time>
      </trkpt>
      <trkpt lat="44.8761" lon="5.79825">
        <ele>774.760055</ele>
        <time>2025-07-10T10:44:17.000Z</time>
      </trkpt>
      <trkpt lat="44.87609" lon="5.79825">
        <ele>774.834435</ele>
        <time>2025-07-10T10:44:18.000Z</time>
      </trkpt>
      <trkpt lat="44.87607" lon="5.79826">
        <ele>774.909448</ele>
        <time>2025-07-10T10:44:19.000Z</time>
      </trkpt>
      <trkpt lat="44.87605" lon="5.79826">
        <ele>774.986126</ele>
        <time>2025-07-10T10:44:20.000Z</time>
      </trkpt>
      <trkpt lat="44.87604" lon="5.79827">
        <ele>775.070101</ele>
        <time>2025-07-10T10:44:21.000Z</time>
      </trkpt>
      <trkpt lat="44.87602" lon="5.79827">
        <ele>775.158035</ele>
        <time>2025-07-10T10:44:22.000Z</time>
      </trkpt>
      <trkpt lat="44.876" lon="5.79828">
        <ele>775.24201</ele>
        <time>2025-07-10T10:44:23.000Z</time>
      </trkpt>
      <trkpt lat="44.87598" lon="5.79828">
        <ele>775.324659</ele>
        <time>2025-07-10T10:44:24.000Z</time>
      </trkpt>
      <trkpt lat="44.87596" lon="5.79828">
        <ele>775.416265</ele>
        <time>2025-07-10T10:44:25.000Z</time>
      </trkpt>
      <trkpt lat="44.87594" lon="5.79829">
        <ele>775.502649</ele>
        <time>2025-07-10T10:44:26.000Z</time>
      </trkpt>
      <trkpt lat="44.87592" lon="5.79829">
        <ele>775.59883</ele>
        <time>2025-07-10T10:44:27.000Z</time>
      </trkpt>
      <trkpt lat="44.8759" lon="5.79829">
        <ele>775.685862</ele>
        <time>2025-07-10T10:44:28.000Z</time>
      </trkpt>
      <trkpt lat="44.87588" lon="5.79829">
        <ele>775.777468</ele>
        <time>2025-07-10T10:44:29.000Z</time>
      </trkpt>
      <trkpt lat="44.87587" lon="5.79829">
        <ele>775.85589</ele>
        <time>2025-07-10T10:44:30.000Z</time>
      </trkpt>
      <trkpt lat="44.87585" lon="5.79829">
        <ele>775.942922</ele>
        <time>2025-07-10T10:44:31.000Z</time>
      </trkpt>
      <trkpt lat="44.87583" lon="5.7983">
        <ele>776.030436</ele>
        <time>2025-07-10T10:44:32.000Z</time>
      </trkpt>
      <trkpt lat="44.87581" lon="5.79829">
        <ele>776.113085</ele>
        <time>2025-07-10T10:44:33.000Z</time>
      </trkpt>
      <trkpt lat="44.87579" lon="5.79829">
        <ele>776.201556</ele>
        <time>2025-07-10T10:44:34.000Z</time>
      </trkpt>
      <trkpt lat="44.87577" lon="5.79829">
        <ele>776.293105</ele>
        <time>2025-07-10T10:44:35.000Z</time>
      </trkpt>
      <trkpt lat="44.87575" lon="5.79828">
        <ele>776.37708</ele>
        <time>2025-07-10T10:44:36.000Z</time>
      </trkpt>
      <trkpt lat="44.87574" lon="5.79828">
        <ele>776.459109</ele>
        <time>2025-07-10T10:44:37.000Z</time>
      </trkpt>
      <trkpt lat="44.87572" lon="5.79827">
        <ele>776.551573</ele>
        <time>2025-07-10T10:44:38.000Z</time>
      </trkpt>
      <trkpt lat="44.8757" lon="5.79827">
        <ele>776.645167</ele>
        <time>2025-07-10T10:44:39.000Z</time>
      </trkpt>
      <trkpt lat="44.87568" lon="5.79827">
        <ele>776.732139</ele>
        <time>2025-07-10T10:44:40.000Z</time>
      </trkpt>
      <trkpt lat="44.87566" lon="5.79827">
        <ele>776.817604</ele>
        <time>2025-07-10T10:44:41.000Z</time>
      </trkpt>
      <trkpt lat="44.87564" lon="5.79827">
        <ele>776.900253</ele>
        <time>2025-07-10T10:44:42.000Z</time>
      </trkpt>
      <trkpt lat="44.87562" lon="5.79827">
        <ele>776.982647</ele>
        <time>2025-07-10T10:44:43.000Z</time>
      </trkpt>
      <trkpt lat="44.87561" lon="5.79827">
        <ele>777.058428</ele>
        <time>2025-07-10T10:44:44.000Z</time>
      </trkpt>
      <trkpt lat="44.87559" lon="5.79826">
        <ele>777.144811</ele>
        <time>2025-07-10T10:44:45.000Z</time>
      </trkpt>
      <trkpt lat="44.87557" lon="5.79825">
        <ele>777.234698</ele>
        <time>2025-07-10T10:44:46.000Z</time>
      </trkpt>
      <trkpt lat="44.87555" lon="5.79824">
        <ele>777.321707</ele>
        <time>2025-07-10T10:44:47.000Z</time>
      </trkpt>
      <trkpt lat="44.87554" lon="5.79823">
        <ele>777.396317</ele>
        <time>2025-07-10T10:44:48.000Z</time>
      </trkpt>
      <trkpt lat="44.87552" lon="5.79823">
        <ele>777.478966</ele>
        <time>2025-07-10T10:44:49.000Z</time>
      </trkpt>
      <trkpt lat="44.87551" lon="5.79822">
        <ele>777.550792</ele>
        <time>2025-07-10T10:44:50.000Z</time>
      </trkpt>
      <trkpt lat="44.87549" lon="5.79821">
        <ele>777.629635</ele>
        <time>2025-07-10T10:44:51.000Z</time>
      </trkpt>
      <trkpt lat="44.87548" lon="5.79821">
        <ele>777.69661</ele>
        <time>2025-07-10T10:44:52.000Z</time>
      </trkpt>
      <trkpt lat="44.87546" lon="5.79821">
        <ele>777.746962</ele>
        <time>2025-07-10T10:44:53.000Z</time>
      </trkpt>
      <trkpt lat="44.87546" lon="5.7982">
        <ele>777.770077</ele>
        <time>2025-07-10T10:44:54.000Z</time>
      </trkpt>
      <trkpt lat="44.87544" lon="5.7982">
        <ele>777.867562</ele>
        <time>2025-07-10T10:45:56.000Z</time>
      </trkpt>
      <trkpt lat="44.87544" lon="5.79819">
        <ele>777.918416</ele>
        <time>2025-07-10T10:46:11.000Z</time>
      </trkpt>
      <trkpt lat="44.87544" lon="5.79817">
        <ele>777.956649</ele>
        <time>2025-07-10T10:46:12.000Z</time>
      </trkpt>
      <trkpt lat="44.87543" lon="5.79817">
        <ele>777.999737</ele>
        <time>2025-07-10T10:46:13.000Z</time>
      </trkpt>
      <trkpt lat="44.87543" lon="5.79816">
        <ele>778.024197</ele>
        <time>2025-07-10T10:46:14.000Z</time>
      </trkpt>
      <trkpt lat="44.87543" lon="5.79817">
        <ele>778.060171</ele>
        <time>2025-07-10T10:47:27.000Z</time>
      </trkpt>
      <trkpt lat="44.87541" lon="5.79817">
        <ele>778.137872</ele>
        <time>2025-07-10T10:47:28.000Z</time>
      </trkpt>
      <trkpt lat="44.87539" lon="5.79816">
        <ele>778.222533</ele>
        <time>2025-07-10T10:47:29.000Z</time>
      </trkpt>
      <trkpt lat="44.87537" lon="5.79815">
        <ele>778.311655</ele>
        <time>2025-07-10T10:47:30.000Z</time>
      </trkpt>
      <trkpt lat="44.87536" lon="5.79815">
        <ele>778.402416</ele>
        <time>2025-07-10T10:47:31.000Z</time>
      </trkpt>
      <trkpt lat="44.87534" lon="5.79813">
        <ele>778.496422</ele>
        <time>2025-07-10T10:47:32.000Z</time>
      </trkpt>
      <trkpt lat="44.87532" lon="5.79813">
        <ele>778.581083</ele>
        <time>2025-07-10T10:47:33.000Z</time>
      </trkpt>
      <trkpt lat="44.87531" lon="5.79812">
        <ele>778.647365</ele>
        <time>2025-07-10T10:47:34.000Z</time>
      </trkpt>
      <trkpt lat="44.87529" lon="5.79811">
        <ele>778.71434</ele>
        <time>2025-07-10T10:47:35.000Z</time>
      </trkpt>
      <trkpt lat="44.87527" lon="5.79811">
        <ele>778.797306</ele>
        <time>2025-07-10T10:47:36.000Z</time>
      </trkpt>
      <trkpt lat="44.87525" lon="5.79811">
        <ele>778.893433</ele>
        <time>2025-07-10T10:47:37.000Z</time>
      </trkpt>
      <trkpt lat="44.87523" lon="5.79811">
        <ele>778.989778</ele>
        <time>2025-07-10T10:47:38.000Z</time>
      </trkpt>
      <trkpt lat="44.87521" lon="5.7981">
        <ele>779.082241</ele>
        <time>2025-07-10T10:47:39.000Z</time>
      </trkpt>
      <trkpt lat="44.87519" lon="5.7981">
        <ele>779.167707</ele>
        <time>2025-07-10T10:47:40.000Z</time>
      </trkpt>
      <trkpt lat="44.87518" lon="5.79809">
        <ele>779.253172</ele>
        <time>2025-07-10T10:47:41.000Z</time>
      </trkpt>
      <trkpt lat="44.87516" lon="5.79808">
        <ele>779.344913</ele>
        <time>2025-07-10T10:47:42.000Z</time>
      </trkpt>
      <trkpt lat="44.87514" lon="5.79807">
        <ele>779.433462</ele>
        <time>2025-07-10T10:47:43.000Z</time>
      </trkpt>
      <trkpt lat="44.87512" lon="5.79806">
        <ele>779.534914</ele>
        <time>2025-07-10T10:47:44.000Z</time>
      </trkpt>
      <trkpt lat="44.8751" lon="5.79805">
        <ele>779.630198</ele>
        <time>2025-07-10T10:47:45.000Z</time>
      </trkpt>
      <trkpt lat="44.87508" lon="5.79803">
        <ele>779.739441</ele>
        <time>2025-07-10T10:47:46.000Z</time>
      </trkpt>
      <trkpt lat="44.87506" lon="5.79801">
        <ele>779.851646</ele>
        <time>2025-07-10T10:47:47.000Z</time>
      </trkpt>
      <trkpt lat="44.87504" lon="5.79799">
        <ele>779.971821</ele>
        <time>2025-07-10T10:47:48.000Z</time>
      </trkpt>
      <trkpt lat="44.87502" lon="5.79796">
        <ele>780.097572</ele>
        <time>2025-07-10T10:47:49.000Z</time>
      </trkpt>
      <trkpt lat="44.875" lon="5.79793">
        <ele>780.225082</ele>
        <time>2025-07-10T10:47:50.000Z</time>
      </trkpt>
      <trkpt lat="44.87498" lon="5.7979">
        <ele>780.354784</ele>
        <time>2025-07-10T10:47:51.000Z</time>
      </trkpt>
      <trkpt lat="44.87497" lon="5.79786">
        <ele>780.483834</ele>
        <time>2025-07-10T10:47:52.000Z</time>
      </trkpt>
      <trkpt lat="44.87496" lon="5.79783">
        <ele>780.611004</ele>
        <time>2025-07-10T10:47:53.000Z</time>
      </trkpt>
      <trkpt lat="44.87495" lon="5.79779">
        <ele>780.741158</ele>
        <time>2025-07-10T10:47:54.000Z</time>
      </trkpt>
      <trkpt lat="44.87494" lon="5.79775">
        <ele>780.879077</ele>
        <time>2025-07-10T10:47:55.000Z</time>
      </trkpt>
      <trkpt lat="44.87493" lon="5.79771">
        <ele>781.019976</ele>
        <time>2025-07-10T10:47:56.000Z</time>
      </trkpt>
      <trkpt lat="44.87491" lon="5.79767">
        <ele>781.160876</ele>
        <time>2025-07-10T10:47:57.000Z</time>
      </trkpt>
      <trkpt lat="44.8749" lon="5.79763">
        <ele>781.304769</ele>
        <time>2025-07-10T10:47:58.000Z</time>
      </trkpt>
      <trkpt lat="44.87489" lon="5.79759">
        <ele>781.439718</ele>
        <time>2025-07-10T10:47:59.000Z</time>
      </trkpt>
      <trkpt lat="44.87488" lon="5.79755">
        <ele>781.513179</ele>
        <time>2025-07-10T10:48:00.000Z</time>
      </trkpt>
      <trkpt lat="44.87487" lon="5.79751">
        <ele>781.55377</ele>
        <time>2025-07-10T10:48:01.000Z</time>
      </trkpt>
      <trkpt lat="44.87485" lon="5.79747">
        <ele>781.59485</ele>
        <time>2025-07-10T10:48:02.000Z</time>
      </trkpt>
      <trkpt lat="44.87484" lon="5.79743">
        <ele>781.63593</ele>
        <time>2025-07-10T10:48:03.000Z</time>
      </trkpt>
      <trkpt lat="44.87483" lon="5.79738">
        <ele>781.678189</ele>
        <time>2025-07-10T10:48:04.000Z</time>
      </trkpt>
      <trkpt lat="44.87482" lon="5.79734">
        <ele>781.719269</ele>
        <time>2025-07-10T10:48:05.000Z</time>
      </trkpt>
      <trkpt lat="44.8748" lon="5.7973">
        <ele>781.761172</ele>
        <time>2025-07-10T10:48:06.000Z</time>
      </trkpt>
      <trkpt lat="44.87479" lon="5.79726">
        <ele>781.802343</ele>
        <time>2025-07-10T10:48:07.000Z</time>
      </trkpt>
      <trkpt lat="44.87477" lon="5.79722">
        <ele>781.8445</ele>
        <time>2025-07-10T10:48:08.000Z</time>
      </trkpt>
      <trkpt lat="44.87476" lon="5.79717">
        <ele>781.886656</ele>
        <time>2025-07-10T10:48:09.000Z</time>
      </trkpt>
      <trkpt lat="44.87474" lon="5.79713">
        <ele>781.92745</ele>
        <time>2025-07-10T10:48:10.000Z</time>
      </trkpt>
      <trkpt lat="44.87473" lon="5.79709">
        <ele>781.968243</ele>
        <time>2025-07-10T10:48:11.000Z</time>
      </trkpt>
      <trkpt lat="44.87471" lon="5.79705">
        <ele>782.009601</ele>
        <time>2025-07-10T10:48:12.000Z</time>
      </trkpt>
      <trkpt lat="44.87469" lon="5.79701">
        <ele>782.050603</ele>
        <time>2025-07-10T10:48:13.000Z</time>
      </trkpt>
      <trkpt lat="44.87467" lon="5.79698">
        <ele>782.092314</ele>
        <time>2025-07-10T10:48:14.000Z</time>
      </trkpt>
      <trkpt lat="44.87465" lon="5.79694">
        <ele>782.134742</ele>
        <time>2025-07-10T10:48:15.000Z</time>
      </trkpt>
      <trkpt lat="44.87463" lon="5.7969">
        <ele>782.178621</ele>
        <time>2025-07-10T10:48:16.000Z</time>
      </trkpt>
      <trkpt lat="44.87461" lon="5.79686">
        <ele>782.224724</ele>
        <time>2025-07-10T10:48:17.000Z</time>
      </trkpt>
      <trkpt lat="44.87459" lon="5.79682">
        <ele>782.269338</ele>
        <time>2025-07-10T10:48:18.000Z</time>
      </trkpt>
      <trkpt lat="44.87457" lon="5.79678">
        <ele>782.31551</ele>
        <time>2025-07-10T10:48:19.000Z</time>
      </trkpt>
      <trkpt lat="44.87455" lon="5.79674">
        <ele>782.362488</ele>
        <time>2025-07-10T10:48:20.000Z</time>
      </trkpt>
      <trkpt lat="44.87453" lon="5.79669">
        <ele>782.407844</ele>
        <time>2025-07-10T10:48:21.000Z</time>
      </trkpt>
      <trkpt lat="44.8745" lon="5.79665">
        <ele>782.453323</ele>
        <time>2025-07-10T10:48:22.000Z</time>
      </trkpt>
      <trkpt lat="44.87448" lon="5.79662">
        <ele>782.498003</ele>
        <time>2025-07-10T10:48:23.000Z</time>
      </trkpt>
      <trkpt lat="44.87446" lon="5.79658">
        <ele>782.542624</ele>
        <time>2025-07-10T10:48:24.000Z</time>
      </trkpt>
      <trkpt lat="44.87444" lon="5.79653">
        <ele>782.58798</ele>
        <time>2025-07-10T10:48:25.000Z</time>
      </trkpt>
      <trkpt lat="44.87442" lon="5.79649">
        <ele>782.632744</ele>
        <time>2025-07-10T10:48:26.000Z</time>
      </trkpt>
      <trkpt lat="44.8744" lon="5.79645">
        <ele>782.677359</ele>
        <time>2025-07-10T10:48:27.000Z</time>
      </trkpt>
      <trkpt lat="44.87438" lon="5.79641">
        <ele>782.724897</ele>
        <time>2025-07-10T10:48:28.000Z</time>
      </trkpt>
      <trkpt lat="44.87436" lon="5.79637">
        <ele>782.771068</ele>
        <time>2025-07-10T10:48:29.000Z</time>
      </trkpt>
      <trkpt lat="44.87434" lon="5.79632">
        <ele>782.818618</ele>
        <time>2025-07-10T10:48:30.000Z</time>
      </trkpt>
      <trkpt lat="44.87432" lon="5.79628">
        <ele>782.867118</ele>
        <time>2025-07-10T10:48:31.000Z</time>
      </trkpt>
      <trkpt lat="44.8743" lon="5.79623">
        <ele>782.917972</ele>
        <time>2025-07-10T10:48:32.000Z</time>
      </trkpt>
      <trkpt lat="44.87428" lon="5.79618">
        <ele>782.964924</ele>
        <time>2025-07-10T10:48:33.000Z</time>
      </trkpt>
      <trkpt lat="44.87426" lon="5.79614">
        <ele>783.01028</ele>
        <time>2025-07-10T10:48:34.000Z</time>
      </trkpt>
      <trkpt lat="44.87424" lon="5.7961">
        <ele>783.052752</ele>
        <time>2025-07-10T10:48:35.000Z</time>
      </trkpt>
      <trkpt lat="44.87422" lon="5.79606">
        <ele>783.096887</ele>
        <time>2025-07-10T10:48:36.000Z</time>
      </trkpt>
      <trkpt lat="44.87421" lon="5.79601">
        <ele>783.142595</ele>
        <time>2025-07-10T10:48:37.000Z</time>
      </trkpt>
      <trkpt lat="44.87419" lon="5.79597">
        <ele>783.188304</ele>
        <time>2025-07-10T10:48:38.000Z</time>
      </trkpt>
      <trkpt lat="44.87417" lon="5.79592">
        <ele>783.237366</ele>
        <time>2025-07-10T10:48:39.000Z</time>
      </trkpt>
      <trkpt lat="44.87414" lon="5.79589">
        <ele>783.281964</ele>
        <time>2025-07-10T10:48:40.000Z</time>
      </trkpt>
      <trkpt lat="44.87411" lon="5.79585">
        <ele>783.329101</ele>
        <time>2025-07-10T10:48:41.000Z</time>
      </trkpt>
      <trkpt lat="44.87408" lon="5.79583">
        <ele>783.375265</ele>
        <time>2025-07-10T10:48:42.000Z</time>
      </trkpt>
      <trkpt lat="44.87404" lon="5.79581">
        <ele>783.426772</ele>
        <time>2025-07-10T10:48:43.000Z</time>
      </trkpt>
      <trkpt lat="44.87401" lon="5.79579">
        <ele>783.469875</ele>
        <time>2025-07-10T10:48:44.000Z</time>
      </trkpt>
      <trkpt lat="44.87398" lon="5.79579">
        <ele>783.513474</ele>
        <time>2025-07-10T10:48:45.000Z</time>
      </trkpt>
      <trkpt lat="44.87395" lon="5.79578">
        <ele>783.554432</ele>
        <time>2025-07-10T10:48:46.000Z</time>
      </trkpt>
      <trkpt lat="44.87391" lon="5.79578">
        <ele>783.601266</ele>
        <time>2025-07-10T10:48:47.000Z</time>
      </trkpt>
      <trkpt lat="44.87387" lon="5.79579">
        <ele>783.650798</ele>
        <time>2025-07-10T10:48:48.000Z</time>
      </trkpt>
      <trkpt lat="44.87383" lon="5.7958">
        <ele>783.703385</ele>
        <time>2025-07-10T10:48:49.000Z</time>
      </trkpt>
      <trkpt lat="44.87379" lon="5.79582">
        <ele>783.758255</ele>
        <time>2025-07-10T10:48:50.000Z</time>
      </trkpt>
      <trkpt lat="44.87375" lon="5.79585">
        <ele>783.82806</ele>
        <time>2025-07-10T10:48:51.000Z</time>
      </trkpt>
      <trkpt lat="44.87371" lon="5.79588">
        <ele>783.90164</ele>
        <time>2025-07-10T10:48:52.000Z</time>
      </trkpt>
      <trkpt lat="44.87368" lon="5.79592">
        <ele>783.970992</ele>
        <time>2025-07-10T10:48:53.000Z</time>
      </trkpt>
      <trkpt lat="44.87365" lon="5.79596">
        <ele>784.040365</ele>
        <time>2025-07-10T10:48:54.000Z</time>
      </trkpt>
      <trkpt lat="44.87363" lon="5.79601">
        <ele>784.101467</ele>
        <time>2025-07-10T10:48:55.000Z</time>
      </trkpt>
      <trkpt lat="44.87361" lon="5.79605">
        <ele>784.166472</ele>
        <time>2025-07-10T10:48:56.000Z</time>
      </trkpt>
      <trkpt lat="44.8736" lon="5.79609">
        <ele>784.221881</ele>
        <time>2025-07-10T10:48:57.000Z</time>
      </trkpt>
      <trkpt lat="44.87358" lon="5.79614">
        <ele>784.282926</ele>
        <time>2025-07-10T10:48:58.000Z</time>
      </trkpt>
      <trkpt lat="44.87357" lon="5.79619">
        <ele>784.346793</ele>
        <time>2025-07-10T10:48:59.000Z</time>
      </trkpt>
      <trkpt lat="44.87356" lon="5.79624">
        <ele>784.408512</ele>
        <time>2025-07-10T10:49:00.000Z</time>
      </trkpt>
      <trkpt lat="44.87355" lon="5.79628">
        <ele>784.463243</ele>
        <time>2025-07-10T10:49:01.000Z</time>
      </trkpt>
      <trkpt lat="44.87355" lon="5.79633">
        <ele>784.522054</ele>
        <time>2025-07-10T10:49:02.000Z</time>
      </trkpt>
      <trkpt lat="44.87354" lon="5.79638">
        <ele>784.582734</ele>
        <time>2025-07-10T10:49:03.000Z</time>
      </trkpt>
      <trkpt lat="44.87354" lon="5.79644">
        <ele>784.647234</ele>
        <time>2025-07-10T10:49:04.000Z</time>
      </trkpt>
      <trkpt lat="44.87353" lon="5.79649">
        <ele>784.709822</ele>
        <time>2025-07-10T10:49:05.000Z</time>
      </trkpt>
      <trkpt lat="44.87353" lon="5.79654">
        <ele>784.772701</ele>
        <time>2025-07-10T10:49:06.000Z</time>
      </trkpt>
      <trkpt lat="44.87351" lon="5.79659">
        <ele>784.833282</ele>
        <time>2025-07-10T10:49:07.000Z</time>
      </trkpt>
      <trkpt lat="44.87349" lon="5.79663">
        <ele>784.892033</ele>
        <time>2025-07-10T10:49:08.000Z</time>
      </trkpt>
      <trkpt lat="44.87348" lon="5.79668">
        <ele>784.952907</ele>
        <time>2025-07-10T10:49:09.000Z</time>
      </trkpt>
      <trkpt lat="44.87346" lon="5.79671">
        <ele>785.009221</ele>
        <time>2025-07-10T10:49:10.000Z</time>
      </trkpt>
      <trkpt lat="44.87343" lon="5.79675">
        <ele>785.067844</ele>
        <time>2025-07-10T10:49:11.000Z</time>
      </trkpt>
      <trkpt lat="44.87341" lon="5.79678">
        <ele>785.124018</ele>
        <time>2025-07-10T10:49:12.000Z</time>
      </trkpt>
      <trkpt lat="44.87338" lon="5.79682">
        <ele>785.182487</ele>
        <time>2025-07-10T10:49:13.000Z</time>
      </trkpt>
      <trkpt lat="44.87336" lon="5.79684">
        <ele>785.235907</ele>
        <time>2025-07-10T10:49:14.000Z</time>
      </trkpt>
      <trkpt lat="44.87333" lon="5.79688">
        <ele>785.291259</ele>
        <time>2025-07-10T10:49:15.000Z</time>
      </trkpt>
      <trkpt lat="44.87331" lon="5.79691">
        <ele>785.348867</ele>
        <time>2025-07-10T10:49:16.000Z</time>
      </trkpt>
      <trkpt lat="44.87328" lon="5.79694">
        <ele>785.407072</ele>
        <time>2025-07-10T10:49:17.000Z</time>
      </trkpt>
      <trkpt lat="44.87326" lon="5.79696">
        <ele>785.458438</ele>
        <time>2025-07-10T10:49:18.000Z</time>
      </trkpt>
      <trkpt lat="44.87323" lon="5.79699">
        <ele>785.515967</ele>
        <time>2025-07-10T10:49:19.000Z</time>
      </trkpt>
      <trkpt lat="44.8732" lon="5.79702">
        <ele>785.576956</ele>
        <time>2025-07-10T10:49:20.000Z</time>
      </trkpt>
      <trkpt lat="44.87317" lon="5.79705">
        <ele>785.633806</ele>
        <time>2025-07-10T10:49:21.000Z</time>
      </trkpt>
      <trkpt lat="44.87314" lon="5.79708">
        <ele>785.69339</ele>
        <time>2025-07-10T10:49:22.000Z</time>
      </trkpt>
      <trkpt lat="44.87311" lon="5.79711">
        <ele>785.755842</ele>
        <time>2025-07-10T10:49:23.000Z</time>
      </trkpt>
      <trkpt lat="44.87309" lon="5.79715">
        <ele>785.820591</ele>
        <time>2025-07-10T10:49:24.000Z</time>
      </trkpt>
      <trkpt lat="44.87306" lon="5.79718">
        <ele>785.878426</ele>
        <time>2025-07-10T10:49:25.000Z</time>
      </trkpt>
      <trkpt lat="44.87303" lon="5.79721">
        <ele>785.934727</ele>
        <time>2025-07-10T10:49:26.000Z</time>
      </trkpt>
      <trkpt lat="44.87301" lon="5.79724">
        <ele>785.986788</ele>
        <time>2025-07-10T10:49:27.000Z</time>
      </trkpt>
      <trkpt lat="44.87299" lon="5.79727">
        <ele>786.040934</ele>
        <time>2025-07-10T10:49:28.000Z</time>
      </trkpt>
      <trkpt lat="44.87296" lon="5.7973">
        <ele>786.099557</ele>
        <time>2025-07-10T10:49:29.000Z</time>
      </trkpt>
      <trkpt lat="44.87293" lon="5.79733">
        <ele>786.16127</ele>
        <time>2025-07-10T10:49:30.000Z</time>
      </trkpt>
      <trkpt lat="44.8729" lon="5.79736">
        <ele>786.218121</ele>
        <time>2025-07-10T10:49:31.000Z</time>
      </trkpt>
      <trkpt lat="44.87287" lon="5.79739">
        <ele>786.278574</ele>
        <time>2025-07-10T10:49:32.000Z</time>
      </trkpt>
      <trkpt lat="44.87284" lon="5.79741">
        <ele>786.337849</ele>
        <time>2025-07-10T10:49:33.000Z</time>
      </trkpt>
      <trkpt lat="44.87281" lon="5.79744">
        <ele>786.399487</ele>
        <time>2025-07-10T10:49:34.000Z</time>
      </trkpt>
      <trkpt lat="44.87278" lon="5.79747">
        <ele>786.459783</ele>
        <time>2025-07-10T10:49:35.000Z</time>
      </trkpt>
      <trkpt lat="44.87275" lon="5.79749">
        <ele>786.519058</ele>
        <time>2025-07-10T10:49:36.000Z</time>
      </trkpt>
      <trkpt lat="44.87272" lon="5.79752">
        <ele>786.581408</ele>
        <time>2025-07-10T10:49:37.000Z</time>
      </trkpt>
      <trkpt lat="44.87269" lon="5.79755">
        <ele>786.645958</ele>
        <time>2025-07-10T10:49:38.000Z</time>
      </trkpt>
      <trkpt lat="44.87265" lon="5.79757">
        <ele>786.708746</ele>
        <time>2025-07-10T10:49:39.000Z</time>
      </trkpt>
      <trkpt lat="44.87262" lon="5.79759">
        <ele>786.764367</ele>
        <time>2025-07-10T10:49:40.000Z</time>
      </trkpt>
      <trkpt lat="44.87259" lon="5.79762">
        <ele>786.820208</ele>
        <time>2025-07-10T10:49:41.000Z</time>
      </trkpt>
      <trkpt lat="44.87256" lon="5.79764">
        <ele>786.873333</ele>
        <time>2025-07-10T10:49:42.000Z</time>
      </trkpt>
      <trkpt lat="44.87252" lon="5.79766">
        <ele>786.926076</ele>
        <time>2025-07-10T10:49:43.000Z</time>
      </trkpt>
      <trkpt lat="44.87249" lon="5.79768">
        <ele>786.981316</ele>
        <time>2025-07-10T10:49:44.000Z</time>
      </trkpt>
      <trkpt lat="44.87246" lon="5.7977">
        <ele>787.033082</ele>
        <time>2025-07-10T10:49:45.000Z</time>
      </trkpt>
      <trkpt lat="44.87242" lon="5.79772">
        <ele>787.084106</ele>
        <time>2025-07-10T10:49:46.000Z</time>
      </trkpt>
      <trkpt lat="44.87239" lon="5.79774">
        <ele>787.139931</ele>
        <time>2025-07-10T10:49:47.000Z</time>
      </trkpt>
      <trkpt lat="44.87235" lon="5.79776">
        <ele>787.192674</ele>
        <time>2025-07-10T10:49:48.000Z</time>
      </trkpt>
      <trkpt lat="44.87232" lon="5.79778">
        <ele>787.247519</ele>
        <time>2025-07-10T10:49:49.000Z</time>
      </trkpt>
      <trkpt lat="44.87228" lon="5.79779">
        <ele>787.298961</ele>
        <time>2025-07-10T10:49:50.000Z</time>
      </trkpt>
      <trkpt lat="44.87225" lon="5.7978">
        <ele>787.346162</ele>
        <time>2025-07-10T10:49:51.000Z</time>
      </trkpt>
      <trkpt lat="44.87222" lon="5.79781">
        <ele>787.393998</ele>
        <time>2025-07-10T10:49:52.000Z</time>
      </trkpt>
      <trkpt lat="44.87219" lon="5.79782">
        <ele>787.443021</ele>
        <time>2025-07-10T10:49:53.000Z</time>
      </trkpt>
      <trkpt lat="44.87215" lon="5.79782">
        <ele>787.492788</ele>
        <time>2025-07-10T10:49:54.000Z</time>
      </trkpt>
      <trkpt lat="44.87212" lon="5.79783">
        <ele>787.539368</ele>
        <time>2025-07-10T10:49:55.000Z</time>
      </trkpt>
      <trkpt lat="44.87209" lon="5.79783">
        <ele>787.590462</ele>
        <time>2025-07-10T10:49:56.000Z</time>
      </trkpt>
      <trkpt lat="44.87205" lon="5.79784">
        <ele>787.640016</ele>
        <time>2025-07-10T10:49:57.000Z</time>
      </trkpt>
      <trkpt lat="44.87202" lon="5.79784">
        <ele>787.686675</ele>
        <time>2025-07-10T10:49:58.000Z</time>
      </trkpt>
      <trkpt lat="44.87199" lon="5.79784">
        <ele>787.7317</ele>
        <time>2025-07-10T10:49:59.000Z</time>
      </trkpt>
      <trkpt lat="44.87196" lon="5.79784">
        <ele>787.77963</ele>
        <time>2025-07-10T10:50:00.000Z</time>
      </trkpt>
      <trkpt lat="44.87192" lon="5.79784">
        <ele>787.827604</ele>
        <time>2025-07-10T10:50:01.000Z</time>
      </trkpt>
      <trkpt lat="44.87189" lon="5.79784">
        <ele>787.877083</ele>
        <time>2025-07-10T10:50:02.000Z</time>
      </trkpt>
      <trkpt lat="44.87185" lon="5.79783">
        <ele>787.928177</ele>
        <time>2025-07-10T10:50:03.000Z</time>
      </trkpt>
      <trkpt lat="44.87182" lon="5.79782">
        <ele>787.976503</ele>
        <time>2025-07-10T10:50:04.000Z</time>
      </trkpt>
      <trkpt lat="44.87179" lon="5.79782">
        <ele>788.023895</ele>
        <time>2025-07-10T10:50:05.000Z</time>
      </trkpt>
      <trkpt lat="44.87175" lon="5.7978">
        <ele>788.075975</ele>
        <time>2025-07-10T10:50:06.000Z</time>
      </trkpt>
      <trkpt lat="44.87172" lon="5.7978">
        <ele>788.124792</ele>
        <time>2025-07-10T10:50:07.000Z</time>
      </trkpt>
      <trkpt lat="44.87169" lon="5.79779">
        <ele>788.174559</ele>
        <time>2025-07-10T10:50:08.000Z</time>
      </trkpt>
      <trkpt lat="44.87165" lon="5.79778">
        <ele>788.223808</ele>
        <time>2025-07-10T10:50:09.000Z</time>
      </trkpt>
      <trkpt lat="44.87162" lon="5.79776">
        <ele>788.273858</ele>
        <time>2025-07-10T10:50:10.000Z</time>
      </trkpt>
      <trkpt lat="44.87159" lon="5.79775">
        <ele>788.321948</ele>
        <time>2025-07-10T10:50:11.000Z</time>
      </trkpt>
      <trkpt lat="44.87156" lon="5.79774">
        <ele>788.372303</ele>
        <time>2025-07-10T10:50:12.000Z</time>
      </trkpt>
      <trkpt lat="44.87152" lon="5.79772">
        <ele>788.423562</ele>
        <time>2025-07-10T10:50:13.000Z</time>
      </trkpt>
      <trkpt lat="44.87149" lon="5.79769">
        <ele>788.475721</ele>
        <time>2025-07-10T10:50:14.000Z</time>
      </trkpt>
      <trkpt lat="44.87146" lon="5.79767">
        <ele>788.531406</ele>
        <time>2025-07-10T10:50:15.000Z</time>
      </trkpt>
      <trkpt lat="44.87142" lon="5.79764">
        <ele>788.586622</ele>
        <time>2025-07-10T10:50:16.000Z</time>
      </trkpt>
      <trkpt lat="44.87139" lon="5.79762">
        <ele>788.642699</ele>
        <time>2025-07-10T10:50:17.000Z</time>
      </trkpt>
      <trkpt lat="44.87135" lon="5.7976">
        <ele>788.697837</ele>
        <time>2025-07-10T10:50:18.000Z</time>
      </trkpt>
      <trkpt lat="44.87132" lon="5.79759">
        <ele>788.750675</ele>
        <time>2025-07-10T10:50:19.000Z</time>
      </trkpt>
      <trkpt lat="44.87128" lon="5.79758">
        <ele>788.805207</ele>
        <time>2025-07-10T10:50:20.000Z</time>
      </trkpt>
      <trkpt lat="44.87124" lon="5.79758">
        <ele>788.860485</ele>
        <time>2025-07-10T10:50:21.000Z</time>
      </trkpt>
      <trkpt lat="44.8712" lon="5.79758">
        <ele>788.918664</ele>
        <time>2025-07-10T10:50:22.000Z</time>
      </trkpt>
      <trkpt lat="44.87116" lon="5.79759">
        <ele>788.976906</ele>
        <time>2025-07-10T10:50:23.000Z</time>
      </trkpt>
      <trkpt lat="44.87112" lon="5.79759">
        <ele>789.033784</ele>
        <time>2025-07-10T10:50:24.000Z</time>
      </trkpt>
      <trkpt lat="44.87108" lon="5.7976">
        <ele>789.092461</ele>
        <time>2025-07-10T10:50:25.000Z</time>
      </trkpt>
      <trkpt lat="44.87104" lon="5.79761">
        <ele>789.152079</ele>
        <time>2025-07-10T10:50:26.000Z</time>
      </trkpt>
      <trkpt lat="44.871" lon="5.79762">
        <ele>789.212695</ele>
        <time>2025-07-10T10:50:27.000Z</time>
      </trkpt>
      <trkpt lat="44.87096" lon="5.79763">
        <ele>789.271697</ele>
        <time>2025-07-10T10:50:28.000Z</time>
      </trkpt>
      <trkpt lat="44.87092" lon="5.79764">
        <ele>789.333252</ele>
        <time>2025-07-10T10:50:29.000Z</time>
      </trkpt>
      <trkpt lat="44.87088" lon="5.79765">
        <ele>789.390531</ele>
        <time>2025-07-10T10:50:30.000Z</time>
      </trkpt>
      <trkpt lat="44.87083" lon="5.79766">
        <ele>789.379196</ele>
        <time>2025-07-10T10:50:31.000Z</time>
      </trkpt>
      <trkpt lat="44.87079" lon="5.79766">
        <ele>789.36914</ele>
        <time>2025-07-10T10:50:32.000Z</time>
      </trkpt>
      <trkpt lat="44.87074" lon="5.79765">
        <ele>789.358106</ele>
        <time>2025-07-10T10:50:33.000Z</time>
      </trkpt>
      <trkpt lat="44.8707" lon="5.79765">
        <ele>789.347284</ele>
        <time>2025-07-10T10:50:34.000Z</time>
      </trkpt>
      <trkpt lat="44.87066" lon="5.79763">
        <ele>789.336755</ele>
        <time>2025-07-10T10:50:35.000Z</time>
      </trkpt>
      <trkpt lat="44.87061" lon="5.79762">
        <ele>789.325255</ele>
        <time>2025-07-10T10:50:36.000Z</time>
      </trkpt>
      <trkpt lat="44.87056" lon="5.79761">
        <ele>789.313082</ele>
        <time>2025-07-10T10:50:37.000Z</time>
      </trkpt>
      <trkpt lat="44.87051" lon="5.79759">
        <ele>789.301347</ele>
        <time>2025-07-10T10:50:38.000Z</time>
      </trkpt>
      <trkpt lat="44.87046" lon="5.79758">
        <ele>789.290004</ele>
        <time>2025-07-10T10:50:39.000Z</time>
      </trkpt>
      <trkpt lat="44.87042" lon="5.79756">
        <ele>789.277923</ele>
        <time>2025-07-10T10:50:40.000Z</time>
      </trkpt>
      <trkpt lat="44.87036" lon="5.79755">
        <ele>789.264834</ele>
        <time>2025-07-10T10:50:41.000Z</time>
      </trkpt>
      <trkpt lat="44.87031" lon="5.79753">
        <ele>789.252559</ele>
        <time>2025-07-10T10:50:42.000Z</time>
      </trkpt>
      <trkpt lat="44.87026" lon="5.79751">
        <ele>789.23984</ele>
        <time>2025-07-10T10:50:43.000Z</time>
      </trkpt>
      <trkpt lat="44.87021" lon="5.79749">
        <ele>789.226792</ele>
        <time>2025-07-10T10:50:44.000Z</time>
      </trkpt>
      <trkpt lat="44.87016" lon="5.79746">
        <ele>789.213627</ele>
        <time>2025-07-10T10:50:45.000Z</time>
      </trkpt>
      <trkpt lat="44.87011" lon="5.79743">
        <ele>789.200525</ele>
        <time>2025-07-10T10:50:46.000Z</time>
      </trkpt>
      <trkpt lat="44.87006" lon="5.7974">
        <ele>789.187737</ele>
        <time>2025-07-10T10:50:47.000Z</time>
      </trkpt>
      <trkpt lat="44.87001" lon="5.79737">
        <ele>789.175203</ele>
        <time>2025-07-10T10:50:48.000Z</time>
      </trkpt>
      <trkpt lat="44.86996" lon="5.79735">
        <ele>789.162324</ele>
        <time>2025-07-10T10:50:49.000Z</time>
      </trkpt>
      <trkpt lat="44.86991" lon="5.79732">
        <ele>789.149315</ele>
        <time>2025-07-10T10:50:50.000Z</time>
      </trkpt>
      <trkpt lat="44.86986" lon="5.79729">
        <ele>789.136746</ele>
        <time>2025-07-10T10:50:51.000Z</time>
      </trkpt>
      <trkpt lat="44.86981" lon="5.79725">
        <ele>789.124107</ele>
        <time>2025-07-10T10:50:52.000Z</time>
      </trkpt>
      <trkpt lat="44.86976" lon="5.79723">
        <ele>789.111385</ele>
        <time>2025-07-10T10:50:53.000Z</time>
      </trkpt>
      <trkpt lat="44.86971" lon="5.7972">
        <ele>789.098506</ele>
        <time>2025-07-10T10:50:54.000Z</time>
      </trkpt>
      <trkpt lat="44.86966" lon="5.79717">
        <ele>789.085015</ele>
        <time>2025-07-10T10:50:55.000Z</time>
      </trkpt>
      <trkpt lat="44.86961" lon="5.79714">
        <ele>789.071564</ele>
        <time>2025-07-10T10:50:56.000Z</time>
      </trkpt>
      <trkpt lat="44.86955" lon="5.79711">
        <ele>789.05779</ele>
        <time>2025-07-10T10:50:57.000Z</time>
      </trkpt>
      <trkpt lat="44.8695" lon="5.79709">
        <ele>789.044007</ele>
        <time>2025-07-10T10:50:58.000Z</time>
      </trkpt>
      <trkpt lat="44.86944" lon="5.79707">
        <ele>789.02967</ele>
        <time>2025-07-10T10:50:59.000Z</time>
      </trkpt>
      <trkpt lat="44.86938" lon="5.79704">
        <ele>789.01515</ele>
        <time>2025-07-10T10:51:00.000Z</time>
      </trkpt>
      <trkpt lat="44.86932" lon="5.79702">
        <ele>789.000582</ele>
        <time>2025-07-10T10:51:01.000Z</time>
      </trkpt>
      <trkpt lat="44.86927" lon="5.797">
        <ele>788.986868</ele>
        <time>2025-07-10T10:51:02.000Z</time>
      </trkpt>
      <trkpt lat="44.86921" lon="5.79699">
        <ele>788.973422</ele>
        <time>2025-07-10T10:51:03.000Z</time>
      </trkpt>
      <trkpt lat="44.86916" lon="5.79697">
        <ele>788.960643</ele>
        <time>2025-07-10T10:51:04.000Z</time>
      </trkpt>
      <trkpt lat="44.86911" lon="5.79696">
        <ele>788.951827</ele>
        <time>2025-07-10T10:51:05.000Z</time>
      </trkpt>
      <trkpt lat="44.86906" lon="5.79695">
        <ele>788.943722</ele>
        <time>2025-07-10T10:51:06.000Z</time>
      </trkpt>
      <trkpt lat="44.86901" lon="5.79693">
        <ele>788.936044</ele>
        <time>2025-07-10T10:51:07.000Z</time>
      </trkpt>
      <trkpt lat="44.86896" lon="5.79693">
        <ele>788.927814</ele>
        <time>2025-07-10T10:51:08.000Z</time>
      </trkpt>
      <trkpt lat="44.86891" lon="5.79692">
        <ele>788.920036</ele>
        <time>2025-07-10T10:51:09.000Z</time>
      </trkpt>
      <trkpt lat="44.86886" lon="5.79691">
        <ele>788.912336</ele>
        <time>2025-07-10T10:51:10.000Z</time>
      </trkpt>
      <trkpt lat="44.86881" lon="5.79691">
        <ele>788.905566</ele>
        <time>2025-07-10T10:51:11.000Z</time>
      </trkpt>
      <trkpt lat="44.86877" lon="5.79691">
        <ele>788.898326</ele>
        <time>2025-07-10T10:51:12.000Z</time>
      </trkpt>
      <trkpt lat="44.86873" lon="5.7969">
        <ele>788.891719</ele>
        <time>2025-07-10T10:51:13.000Z</time>
      </trkpt>
      <trkpt lat="44.86869" lon="5.7969">
        <ele>788.885388</ele>
        <time>2025-07-10T10:51:14.000Z</time>
      </trkpt>
      <trkpt lat="44.86865" lon="5.79689">
        <ele>788.879489</ele>
        <time>2025-07-10T10:51:15.000Z</time>
      </trkpt>
      <trkpt lat="44.86861" lon="5.79688">
        <ele>788.87317</ele>
        <time>2025-07-10T10:51:16.000Z</time>
      </trkpt>
      <trkpt lat="44.86857" lon="5.79687">
        <ele>788.866382</ele>
        <time>2025-07-10T10:51:17.000Z</time>
      </trkpt>
      <trkpt lat="44.86853" lon="5.79687">
        <ele>788.85994</ele>
        <time>2025-07-10T10:51:18.000Z</time>
      </trkpt>
      <trkpt lat="44.86848" lon="5.79688">
        <ele>788.853182</ele>
        <time>2025-07-10T10:51:19.000Z</time>
      </trkpt>
      <trkpt lat="44.86844" lon="5.79688">
        <ele>788.847186</ele>
        <time>2025-07-10T10:51:20.000Z</time>
      </trkpt>
      <trkpt lat="44.86841" lon="5.79688">
        <ele>788.841207</ele>
        <time>2025-07-10T10:51:21.000Z</time>
      </trkpt>
      <trkpt lat="44.86837" lon="5.79689">
        <ele>788.834751</ele>
        <time>2025-07-10T10:51:22.000Z</time>
      </trkpt>
      <trkpt lat="44.86833" lon="5.79689">
        <ele>788.828608</ele>
        <time>2025-07-10T10:51:23.000Z</time>
      </trkpt>
      <trkpt lat="44.86829" lon="5.7969">
        <ele>788.822152</ele>
        <time>2025-07-10T10:51:24.000Z</time>
      </trkpt>
      <trkpt lat="44.86824" lon="5.7969">
        <ele>788.815703</ele>
        <time>2025-07-10T10:51:25.000Z</time>
      </trkpt>
      <trkpt lat="44.86821" lon="5.7969">
        <ele>788.809576</ele>
        <time>2025-07-10T10:51:26.000Z</time>
      </trkpt>
      <trkpt lat="44.86817" lon="5.7969">
        <ele>788.803292</ele>
        <time>2025-07-10T10:51:27.000Z</time>
      </trkpt>
      <trkpt lat="44.86813" lon="5.79689">
        <ele>788.79696</ele>
        <time>2025-07-10T10:51:28.000Z</time>
      </trkpt>
      <trkpt lat="44.86808" lon="5.79689">
        <ele>788.790485</ele>
        <time>2025-07-10T10:51:29.000Z</time>
      </trkpt>
      <trkpt lat="44.86804" lon="5.79687">
        <ele>788.783705</ele>
        <time>2025-07-10T10:51:30.000Z</time>
      </trkpt>
      <trkpt lat="44.868" lon="5.79685">
        <ele>788.776961</ele>
        <time>2025-07-10T10:51:31.000Z</time>
      </trkpt>
      <trkpt lat="44.86797" lon="5.79682">
        <ele>788.770393</ele>
        <time>2025-07-10T10:51:32.000Z</time>
      </trkpt>
      <trkpt lat="44.86793" lon="5.79678">
        <ele>788.763455</ele>
        <time>2025-07-10T10:51:33.000Z</time>
      </trkpt>
      <trkpt lat="44.8679" lon="5.79674">
        <ele>788.756548</ele>
        <time>2025-07-10T10:51:34.000Z</time>
      </trkpt>
      <trkpt lat="44.86787" lon="5.79669">
        <ele>788.749423</ele>
        <time>2025-07-10T10:51:35.000Z</time>
      </trkpt>
      <trkpt lat="44.86784" lon="5.79664">
        <ele>788.742154</ele>
        <time>2025-07-10T10:51:36.000Z</time>
      </trkpt>
      <trkpt lat="44.86782" lon="5.79658">
        <ele>788.734704</ele>
        <time>2025-07-10T10:51:37.000Z</time>
      </trkpt>
      <trkpt lat="44.8678" lon="5.79652">
        <ele>788.727452</ele>
        <time>2025-07-10T10:51:38.000Z</time>
      </trkpt>
      <trkpt lat="44.86778" lon="5.79646">
        <ele>788.720171</ele>
        <time>2025-07-10T10:51:39.000Z</time>
      </trkpt>
      <trkpt lat="44.86776" lon="5.7964">
        <ele>788.71272</ele>
        <time>2025-07-10T10:51:40.000Z</time>
      </trkpt>
      <trkpt lat="44.86774" lon="5.79634">
        <ele>788.705297</ele>
        <time>2025-07-10T10:51:41.000Z</time>
      </trkpt>
      <trkpt lat="44.86772" lon="5.79628">
        <ele>788.697777</ele>
        <time>2025-07-10T10:51:42.000Z</time>
      </trkpt>
      <trkpt lat="44.8677" lon="5.79622">
        <ele>788.69028</ele>
        <time>2025-07-10T10:51:43.000Z</time>
      </trkpt>
      <trkpt lat="44.86767" lon="5.79616">
        <ele>788.682857</ele>
        <time>2025-07-10T10:51:44.000Z</time>
      </trkpt>
      <trkpt lat="44.86765" lon="5.79611">
        <ele>788.74505</ele>
        <time>2025-07-10T10:51:45.000Z</time>
      </trkpt>
      <trkpt lat="44.86762" lon="5.79605">
        <ele>788.939294</ele>
        <time>2025-07-10T10:51:46.000Z</time>
      </trkpt>
      <trkpt lat="44.8676" lon="5.79599">
        <ele>789.137323</ele>
        <time>2025-07-10T10:51:47.000Z</time>
      </trkpt>
      <trkpt lat="44.86756" lon="5.79594">
        <ele>789.337989</ele>
        <time>2025-07-10T10:51:48.000Z</time>
      </trkpt>
      <trkpt lat="44.86753" lon="5.7959">
        <ele>789.5231</ele>
        <time>2025-07-10T10:51:49.000Z</time>
      </trkpt>
      <trkpt lat="44.86748" lon="5.79588">
        <ele>789.710236</ele>
        <time>2025-07-10T10:51:50.000Z</time>
      </trkpt>
      <trkpt lat="44.86744" lon="5.79587">
        <ele>789.896965</ele>
        <time>2025-07-10T10:51:51.000Z</time>
      </trkpt>
      <trkpt lat="44.86739" lon="5.7959">
        <ele>790.086585</ele>
        <time>2025-07-10T10:51:52.000Z</time>
      </trkpt>
      <trkpt lat="44.86736" lon="5.79594">
        <ele>790.277358</ele>
        <time>2025-07-10T10:51:53.000Z</time>
      </trkpt>
      <trkpt lat="44.86733" lon="5.79598">
        <ele>790.448926</ele>
        <time>2025-07-10T10:51:54.000Z</time>
      </trkpt>
      <trkpt lat="44.86731" lon="5.79603">
        <ele>790.609058</ele>
        <time>2025-07-10T10:51:55.000Z</time>
      </trkpt>
      <trkpt lat="44.8673" lon="5.79609">
        <ele>790.769202</ele>
        <time>2025-07-10T10:51:56.000Z</time>
      </trkpt>
      <trkpt lat="44.86729" lon="5.79614">
        <ele>790.931335</ele>
        <time>2025-07-10T10:51:57.000Z</time>
      </trkpt>
      <trkpt lat="44.86729" lon="5.7962">
        <ele>791.094292</ele>
        <time>2025-07-10T10:51:58.000Z</time>
      </trkpt>
      <trkpt lat="44.86728" lon="5.79625">
        <ele>791.23797</ele>
        <time>2025-07-10T10:51:59.000Z</time>
      </trkpt>
      <trkpt lat="44.86728" lon="5.7963">
        <ele>791.369873</ele>
        <time>2025-07-10T10:52:00.000Z</time>
      </trkpt>
      <trkpt lat="44.86727" lon="5.79634">
        <ele>791.497816</ele>
        <time>2025-07-10T10:52:01.000Z</time>
      </trkpt>
      <trkpt lat="44.86727" lon="5.79638">
        <ele>791.613163</ele>
        <time>2025-07-10T10:52:02.000Z</time>
      </trkpt>
      <trkpt lat="44.86726" lon="5.79642">
        <ele>791.723621</ele>
        <time>2025-07-10T10:52:03.000Z</time>
      </trkpt>
      <trkpt lat="44.86725" lon="5.79646">
        <ele>791.840736</ele>
        <time>2025-07-10T10:52:04.000Z</time>
      </trkpt>
      <trkpt lat="44.86724" lon="5.79649">
        <ele>791.957852</ele>
        <time>2025-07-10T10:52:05.000Z</time>
      </trkpt>
      <trkpt lat="44.86723" lon="5.79653">
        <ele>792.061486</ele>
        <time>2025-07-10T10:52:06.000Z</time>
      </trkpt>
      <trkpt lat="44.86722" lon="5.79656">
        <ele>792.156149</ele>
        <time>2025-07-10T10:52:07.000Z</time>
      </trkpt>
      <trkpt lat="44.86721" lon="5.79659">
        <ele>792.26809</ele>
        <time>2025-07-10T10:52:08.000Z</time>
      </trkpt>
      <trkpt lat="44.8672" lon="5.79663">
        <ele>792.377415</ele>
        <time>2025-07-10T10:52:09.000Z</time>
      </trkpt>
      <trkpt lat="44.86719" lon="5.79666">
        <ele>792.484795</ele>
        <time>2025-07-10T10:52:10.000Z</time>
      </trkpt>
      <trkpt lat="44.86717" lon="5.79669">
        <ele>792.589735</ele>
        <time>2025-07-10T10:52:11.000Z</time>
      </trkpt>
      <trkpt lat="44.86715" lon="5.79672">
        <ele>792.700432</ele>
        <time>2025-07-10T10:52:12.000Z</time>
      </trkpt>
      <trkpt lat="44.86713" lon="5.79674">
        <ele>792.807069</ele>
        <time>2025-07-10T10:52:13.000Z</time>
      </trkpt>
      <trkpt lat="44.86711" lon="5.79676">
        <ele>792.919018</ele>
        <time>2025-07-10T10:52:14.000Z</time>
      </trkpt>
      <trkpt lat="44.86708" lon="5.79678">
        <ele>793.031316</ele>
        <time>2025-07-10T10:52:15.000Z</time>
      </trkpt>
      <trkpt lat="44.86706" lon="5.7968">
        <ele>793.13707</ele>
        <time>2025-07-10T10:52:16.000Z</time>
      </trkpt>
      <trkpt lat="44.86704" lon="5.79681">
        <ele>793.239153</ele>
        <time>2025-07-10T10:52:17.000Z</time>
      </trkpt>
      <trkpt lat="44.86701" lon="5.79683">
        <ele>793.346095</ele>
        <time>2025-07-10T10:52:18.000Z</time>
      </trkpt>
      <trkpt lat="44.86699" lon="5.79684">
        <ele>793.449668</ele>
        <time>2025-07-10T10:52:19.000Z</time>
      </trkpt>
      <trkpt lat="44.86697" lon="5.79685">
        <ele>793.545829</ele>
        <time>2025-07-10T10:52:20.000Z</time>
      </trkpt>
      <trkpt lat="44.86694" lon="5.79685">
        <ele>793.634876</ele>
        <time>2025-07-10T10:52:21.000Z</time>
      </trkpt>
      <trkpt lat="44.86692" lon="5.79685">
        <ele>793.723511</ele>
        <time>2025-07-10T10:52:22.000Z</time>
      </trkpt>
      <trkpt lat="44.8669" lon="5.79685">
        <ele>793.820203</ele>
        <time>2025-07-10T10:52:23.000Z</time>
      </trkpt>
      <trkpt lat="44.86688" lon="5.79685">
        <ele>793.913261</ele>
        <time>2025-07-10T10:52:24.000Z</time>
      </trkpt>
      <trkpt lat="44.86685" lon="5.79685">
        <ele>794.009995</ele>
        <time>2025-07-10T10:52:25.000Z</time>
      </trkpt>
      <trkpt lat="44.86683" lon="5.79684">
        <ele>794.104229</ele>
        <time>2025-07-10T10:52:26.000Z</time>
      </trkpt>
      <trkpt lat="44.86681" lon="5.79684">
        <ele>794.187981</ele>
        <time>2025-07-10T10:52:27.000Z</time>
      </trkpt>
      <trkpt lat="44.86679" lon="5.79683">
        <ele>794.271</ele>
        <time>2025-07-10T10:52:28.000Z</time>
      </trkpt>
      <trkpt lat="44.86677" lon="5.79682">
        <ele>794.362281</ele>
        <time>2025-07-10T10:52:29.000Z</time>
      </trkpt>
      <trkpt lat="44.86675" lon="5.79681">
        <ele>794.44131</ele>
        <time>2025-07-10T10:52:30.000Z</time>
      </trkpt>
      <trkpt lat="44.86673" lon="5.7968">
        <ele>794.525886</ele>
        <time>2025-07-10T10:52:31.000Z</time>
      </trkpt>
      <trkpt lat="44.86671" lon="5.79679">
        <ele>794.613446</ele>
        <time>2025-07-10T10:52:32.000Z</time>
      </trkpt>
      <trkpt lat="44.86669" lon="5.79677">
        <ele>794.692475</ele>
        <time>2025-07-10T10:52:33.000Z</time>
      </trkpt>
      <trkpt lat="44.86667" lon="5.79676">
        <ele>794.773255</ele>
        <time>2025-07-10T10:52:34.000Z</time>
      </trkpt>
      <trkpt lat="44.86665" lon="5.79675">
        <ele>794.860815</ele>
        <time>2025-07-10T10:52:35.000Z</time>
      </trkpt>
      <trkpt lat="44.86664" lon="5.79673">
        <ele>794.945889</ele>
        <time>2025-07-10T10:52:36.000Z</time>
      </trkpt>
      <trkpt lat="44.86662" lon="5.79673">
        <ele>795.019042</ele>
        <time>2025-07-10T10:52:37.000Z</time>
      </trkpt>
      <trkpt lat="44.8666" lon="5.79672">
        <ele>795.095074</ele>
        <time>2025-07-10T10:52:38.000Z</time>
      </trkpt>
      <trkpt lat="44.86658" lon="5.79671">
        <ele>795.174103</ele>
        <time>2025-07-10T10:52:39.000Z</time>
      </trkpt>
      <trkpt lat="44.86657" lon="5.79669">
        <ele>795.249954</ele>
        <time>2025-07-10T10:52:40.000Z</time>
      </trkpt>
      <trkpt lat="44.86655" lon="5.79668">
        <ele>795.331654</ele>
        <time>2025-07-10T10:52:41.000Z</time>
      </trkpt>
      <trkpt lat="44.86653" lon="5.79667">
        <ele>795.414462</ele>
        <time>2025-07-10T10:52:42.000Z</time>
      </trkpt>
      <trkpt lat="44.86651" lon="5.79666">
        <ele>795.499948</ele>
        <time>2025-07-10T10:52:43.000Z</time>
      </trkpt>
      <trkpt lat="44.86649" lon="5.79665">
        <ele>795.586431</ele>
        <time>2025-07-10T10:52:44.000Z</time>
      </trkpt>
      <trkpt lat="44.86647" lon="5.79664">
        <ele>795.668131</ele>
        <time>2025-07-10T10:52:45.000Z</time>
      </trkpt>
      <trkpt lat="44.86645" lon="5.79663">
        <ele>795.746069</ele>
        <time>2025-07-10T10:52:46.000Z</time>
      </trkpt>
      <trkpt lat="44.86644" lon="5.79662">
        <ele>795.818269</ele>
        <time>2025-07-10T10:52:47.000Z</time>
      </trkpt>
      <trkpt lat="44.86642" lon="5.79661">
        <ele>795.903755</ele>
        <time>2025-07-10T10:52:48.000Z</time>
      </trkpt>
      <trkpt lat="44.8664" lon="5.7966">
        <ele>795.999113</ele>
        <time>2025-07-10T10:52:49.000Z</time>
      </trkpt>
      <trkpt lat="44.86638" lon="5.79659">
        <ele>796.094151</ele>
        <time>2025-07-10T10:52:50.000Z</time>
      </trkpt>
      <trkpt lat="44.86636" lon="5.79659">
        <ele>796.169071</ele>
        <time>2025-07-10T10:52:51.000Z</time>
      </trkpt>
      <trkpt lat="44.86634" lon="5.79659">
        <ele>796.24706</ele>
        <time>2025-07-10T10:52:52.000Z</time>
      </trkpt>
      <trkpt lat="44.86633" lon="5.79658">
        <ele>796.321578</ele>
        <time>2025-07-10T10:52:53.000Z</time>
      </trkpt>
      <trkpt lat="44.86631" lon="5.79656">
        <ele>796.400028</ele>
        <time>2025-07-10T10:52:54.000Z</time>
      </trkpt>
      <trkpt lat="44.86629" lon="5.79656">
        <ele>796.489039</ele>
        <time>2025-07-10T10:52:55.000Z</time>
      </trkpt>
      <trkpt lat="44.86627" lon="5.79655">
        <ele>796.594707</ele>
        <time>2025-07-10T10:52:56.000Z</time>
      </trkpt>
      <trkpt lat="44.86625" lon="5.79654">
        <ele>796.706815</ele>
        <time>2025-07-10T10:52:57.000Z</time>
      </trkpt>
      <trkpt lat="44.86623" lon="5.79652">
        <ele>796.796839</ele>
        <time>2025-07-10T10:52:58.000Z</time>
      </trkpt>
      <trkpt lat="44.86622" lon="5.7965">
        <ele>796.875706</ele>
        <time>2025-07-10T10:52:59.000Z</time>
      </trkpt>
      <trkpt lat="44.86621" lon="5.79649">
        <ele>796.94604</ele>
        <time>2025-07-10T10:53:00.000Z</time>
      </trkpt>
      <trkpt lat="44.86619" lon="5.79649">
        <ele>797.019352</ele>
        <time>2025-07-10T10:53:01.000Z</time>
      </trkpt>
      <trkpt lat="44.86618" lon="5.79648">
        <ele>797.099465</ele>
        <time>2025-07-10T10:53:02.000Z</time>
      </trkpt>
      <trkpt lat="44.86616" lon="5.79647">
        <ele>797.163079</ele>
        <time>2025-07-10T10:53:03.000Z</time>
      </trkpt>
      <trkpt lat="44.86615" lon="5.79647">
        <ele>797.237999</ele>
        <time>2025-07-10T10:53:04.000Z</time>
      </trkpt>
      <trkpt lat="44.86613" lon="5.79646">
        <ele>797.332204</ele>
        <time>2025-07-10T10:53:05.000Z</time>
      </trkpt>
      <trkpt lat="44.8661" lon="5.79645">
        <ele>797.435307</ele>
        <time>2025-07-10T10:53:06.000Z</time>
      </trkpt>
      <trkpt lat="44.86608" lon="5.79644">
        <ele>797.531279</ele>
        <time>2025-07-10T10:53:07.000Z</time>
      </trkpt>
      <trkpt lat="44.86607" lon="5.79644">
        <ele>797.610669</ele>
        <time>2025-07-10T10:53:08.000Z</time>
      </trkpt>
      <trkpt lat="44.86605" lon="5.79643">
        <ele>797.707675</ele>
        <time>2025-07-10T10:53:09.000Z</time>
      </trkpt>
      <trkpt lat="44.86602" lon="5.79643">
        <ele>797.812824</ele>
        <time>2025-07-10T10:53:10.000Z</time>
      </trkpt>
      <trkpt lat="44.866" lon="5.79643">
        <ele>797.92753</ele>
        <time>2025-07-10T10:53:11.000Z</time>
      </trkpt>
      <trkpt lat="44.86598" lon="5.79644">
        <ele>798.034461</ele>
        <time>2025-07-10T10:53:12.000Z</time>
      </trkpt>
      <trkpt lat="44.86595" lon="5.79644">
        <ele>798.1369</ele>
        <time>2025-07-10T10:53:13.000Z</time>
      </trkpt>
      <trkpt lat="44.86594" lon="5.79644">
        <ele>798.223763</ele>
        <time>2025-07-10T10:53:14.000Z</time>
      </trkpt>
      <trkpt lat="44.86591" lon="5.79645">
        <ele>798.319987</ele>
        <time>2025-07-10T10:53:15.000Z</time>
      </trkpt>
      <trkpt lat="44.86589" lon="5.79645">
        <ele>798.411479</ele>
        <time>2025-07-10T10:53:16.000Z</time>
      </trkpt>
      <trkpt lat="44.86587" lon="5.79645">
        <ele>798.507703</ele>
        <time>2025-07-10T10:53:17.000Z</time>
      </trkpt>
      <trkpt lat="44.86585" lon="5.79645">
        <ele>798.612852</ele>
        <time>2025-07-10T10:53:18.000Z</time>
      </trkpt>
      <trkpt lat="44.86583" lon="5.79645">
        <ele>798.709077</ele>
        <time>2025-07-10T10:53:19.000Z</time>
      </trkpt>
      <trkpt lat="44.86581" lon="5.79645">
        <ele>798.805301</ele>
        <time>2025-07-10T10:53:20.000Z</time>
      </trkpt>
      <trkpt lat="44.86579" lon="5.79646">
        <ele>798.908404</ele>
        <time>2025-07-10T10:53:21.000Z</time>
      </trkpt>
      <trkpt lat="44.86576" lon="5.79647">
        <ele>799.028368</ele>
        <time>2025-07-10T10:53:22.000Z</time>
      </trkpt>
      <trkpt lat="44.86574" lon="5.79646">
        <ele>799.116192</ele>
        <time>2025-07-10T10:53:23.000Z</time>
      </trkpt>
      <trkpt lat="44.86572" lon="5.79646">
        <ele>799.204552</ele>
        <time>2025-07-10T10:53:24.000Z</time>
      </trkpt>
      <trkpt lat="44.8657" lon="5.79645">
        <ele>799.301049</ele>
        <time>2025-07-10T10:53:25.000Z</time>
      </trkpt>
      <trkpt lat="44.86568" lon="5.79646">
        <ele>799.402458</ele>
        <time>2025-07-10T10:53:26.000Z</time>
      </trkpt>
      <trkpt lat="44.86566" lon="5.79646">
        <ele>799.495317</ele>
        <time>2025-07-10T10:53:27.000Z</time>
      </trkpt>
      <trkpt lat="44.86564" lon="5.79647">
        <ele>799.59268</ele>
        <time>2025-07-10T10:53:28.000Z</time>
      </trkpt>
      <trkpt lat="44.86562" lon="5.79647">
        <ele>799.684344</ele>
        <time>2025-07-10T10:53:29.000Z</time>
      </trkpt>
      <trkpt lat="44.8656" lon="5.79647">
        <ele>799.780349</ele>
        <time>2025-07-10T10:53:30.000Z</time>
      </trkpt>
      <trkpt lat="44.86557" lon="5.79647">
        <ele>799.894642</ele>
        <time>2025-07-10T10:53:31.000Z</time>
      </trkpt>
      <trkpt lat="44.86555" lon="5.79647">
        <ele>799.999991</ele>
        <time>2025-07-10T10:53:32.000Z</time>
      </trkpt>
      <trkpt lat="44.86553" lon="5.79647">
        <ele>800.10534</ele>
        <time>2025-07-10T10:53:33.000Z</time>
      </trkpt>
      <trkpt lat="44.8655" lon="5.79648">
        <ele>800.212271</ele>
        <time>2025-07-10T10:53:34.000Z</time>
      </trkpt>
      <trkpt lat="44.86548" lon="5.79649">
        <ele>800.325544</ele>
        <time>2025-07-10T10:53:35.000Z</time>
      </trkpt>
      <trkpt lat="44.86546" lon="5.79651">
        <ele>800.429094</ele>
        <time>2025-07-10T10:53:36.000Z</time>
      </trkpt>
      <trkpt lat="44.86544" lon="5.79652">
        <ele>800.525631</ele>
        <time>2025-07-10T10:53:37.000Z</time>
      </trkpt>
      <trkpt lat="44.86542" lon="5.79654">
        <ele>800.626789</ele>
        <time>2025-07-10T10:53:38.000Z</time>
      </trkpt>
      <trkpt lat="44.8654" lon="5.79655">
        <ele>800.727653</ele>
        <time>2025-07-10T10:53:39.000Z</time>
      </trkpt>
      <trkpt lat="44.86539" lon="5.79658">
        <ele>800.837995</ele>
        <time>2025-07-10T10:53:40.000Z</time>
      </trkpt>
      <trkpt lat="44.86537" lon="5.7966">
        <ele>800.950066</ele>
        <time>2025-07-10T10:53:41.000Z</time>
      </trkpt>
      <trkpt lat="44.86535" lon="5.79661">
        <ele>801.047236</ele>
        <time>2025-07-10T10:53:42.000Z</time>
      </trkpt>
      <trkpt lat="44.86533" lon="5.79663">
        <ele>801.143774</ele>
        <time>2025-07-10T10:53:43.000Z</time>
      </trkpt>
      <trkpt lat="44.86531" lon="5.79664">
        <ele>801.241034</ele>
        <time>2025-07-10T10:53:44.000Z</time>
      </trkpt>
      <trkpt lat="44.86529" lon="5.79666">
        <ele>801.346144</ele>
        <time>2025-07-10T10:53:45.000Z</time>
      </trkpt>
      <trkpt lat="44.86527" lon="5.79667">
        <ele>801.44428</ele>
        <time>2025-07-10T10:53:46.000Z</time>
      </trkpt>
      <trkpt lat="44.86526" lon="5.7967">
        <ele>801.552909</ele>
        <time>2025-07-10T10:53:47.000Z</time>
      </trkpt>
      <trkpt lat="44.86524" lon="5.79672">
        <ele>801.666884</ele>
        <time>2025-07-10T10:53:48.000Z</time>
      </trkpt>
      <trkpt lat="44.86522" lon="5.79673">
        <ele>801.771512</ele>
        <time>2025-07-10T10:53:49.000Z</time>
      </trkpt>
      <trkpt lat="44.8652" lon="5.79676">
        <ele>801.87481</ele>
        <time>2025-07-10T10:53:50.000Z</time>
      </trkpt>
      <trkpt lat="44.86518" lon="5.79677">
        <ele>801.995052</ele>
        <time>2025-07-10T10:53:51.000Z</time>
      </trkpt>
      <trkpt lat="44.86516" lon="5.79679">
        <ele>802.111317</ele>
        <time>2025-07-10T10:53:52.000Z</time>
      </trkpt>
      <trkpt lat="44.86513" lon="5.79681">
        <ele>802.239632</ele>
        <time>2025-07-10T10:53:53.000Z</time>
      </trkpt>
      <trkpt lat="44.86511" lon="5.79682">
        <ele>802.36383</ele>
        <time>2025-07-10T10:53:54.000Z</time>
      </trkpt>
      <trkpt lat="44.86508" lon="5.79684">
        <ele>802.508672</ele>
        <time>2025-07-10T10:53:55.000Z</time>
      </trkpt>
      <trkpt lat="44.86505" lon="5.79686">
        <ele>802.643433</ele>
        <time>2025-07-10T10:53:56.000Z</time>
      </trkpt>
      <trkpt lat="44.86502" lon="5.79686">
        <ele>802.754863</ele>
        <time>2025-07-10T10:53:57.000Z</time>
      </trkpt>
      <trkpt lat="44.865" lon="5.79687">
        <ele>802.874432</ele>
        <time>2025-07-10T10:53:58.000Z</time>
      </trkpt>
      <trkpt lat="44.86497" lon="5.79687">
        <ele>802.998927</ele>
        <time>2025-07-10T10:53:59.000Z</time>
      </trkpt>
      <trkpt lat="44.86495" lon="5.79688">
        <ele>803.114861</ele>
        <time>2025-07-10T10:54:00.000Z</time>
      </trkpt>
      <trkpt lat="44.86492" lon="5.79688">
        <ele>803.230296</ele>
        <time>2025-07-10T10:54:01.000Z</time>
      </trkpt>
      <trkpt lat="44.86489" lon="5.79689">
        <ele>803.361584</ele>
        <time>2025-07-10T10:54:02.000Z</time>
      </trkpt>
      <trkpt lat="44.86487" lon="5.7969">
        <ele>803.477519</ele>
        <time>2025-07-10T10:54:03.000Z</time>
      </trkpt>
      <trkpt lat="44.86484" lon="5.7969">
        <ele>803.592954</ele>
        <time>2025-07-10T10:54:04.000Z</time>
      </trkpt>
      <trkpt lat="44.86482" lon="5.7969">
        <ele>803.70743</ele>
        <time>2025-07-10T10:54:05.000Z</time>
      </trkpt>
      <trkpt lat="44.86479" lon="5.79691">
        <ele>803.835049</ele>
        <time>2025-07-10T10:54:06.000Z</time>
      </trkpt>
      <trkpt lat="44.86477" lon="5.79691">
        <ele>803.940248</ele>
        <time>2025-07-10T10:54:07.000Z</time>
      </trkpt>
      <trkpt lat="44.86475" lon="5.79691">
        <ele>804.041034</ele>
        <time>2025-07-10T10:54:08.000Z</time>
      </trkpt>
      <trkpt lat="44.86472" lon="5.79691">
        <ele>804.15567</ele>
        <time>2025-07-10T10:54:09.000Z</time>
      </trkpt>
      <trkpt lat="44.86469" lon="5.79693">
        <ele>804.291116</ele>
        <time>2025-07-10T10:54:10.000Z</time>
      </trkpt>
      <trkpt lat="44.86466" lon="5.79694">
        <ele>804.417327</ele>
        <time>2025-07-10T10:54:11.000Z</time>
      </trkpt>
      <trkpt lat="44.86463" lon="5.79694">
        <ele>804.544653</ele>
        <time>2025-07-10T10:54:12.000Z</time>
      </trkpt>
      <trkpt lat="44.86461" lon="5.79695">
        <ele>804.673216</ele>
        <time>2025-07-10T10:54:13.000Z</time>
      </trkpt>
      <trkpt lat="44.86458" lon="5.79695">
        <ele>804.80178</ele>
        <time>2025-07-10T10:54:14.000Z</time>
      </trkpt>
      <trkpt lat="44.86455" lon="5.79696">
        <ele>804.930901</ele>
        <time>2025-07-10T10:54:15.000Z</time>
      </trkpt>
      <trkpt lat="44.86452" lon="5.79696">
        <ele>805.057963</ele>
        <time>2025-07-10T10:54:16.000Z</time>
      </trkpt>
      <trkpt lat="44.86449" lon="5.79697">
        <ele>805.182222</ele>
        <time>2025-07-10T10:54:17.000Z</time>
      </trkpt>
      <trkpt lat="44.86446" lon="5.79698">
        <ele>805.312673</ele>
        <time>2025-07-10T10:54:18.000Z</time>
      </trkpt>
      <trkpt lat="44.86443" lon="5.79699">
        <ele>805.450382</ele>
        <time>2025-07-10T10:54:19.000Z</time>
      </trkpt>
      <trkpt lat="44.8644" lon="5.797">
        <ele>805.575218</ele>
        <time>2025-07-10T10:54:20.000Z</time>
      </trkpt>
      <trkpt lat="44.86437" lon="5.797">
        <ele>805.70762</ele>
        <time>2025-07-10T10:54:21.000Z</time>
      </trkpt>
      <trkpt lat="44.86435" lon="5.79701">
        <ele>805.828176</ele>
        <time>2025-07-10T10:54:22.000Z</time>
      </trkpt>
      <trkpt lat="44.86432" lon="5.79702">
        <ele>805.95674</ele>
        <time>2025-07-10T10:54:23.000Z</time>
      </trkpt>
      <trkpt lat="44.86429" lon="5.79703">
        <ele>806.080998</ele>
        <time>2025-07-10T10:54:24.000Z</time>
      </trkpt>
      <trkpt lat="44.86426" lon="5.79703">
        <ele>806.196661</ele>
        <time>2025-07-10T10:54:25.000Z</time>
      </trkpt>
      <trkpt lat="44.86424" lon="5.79704">
        <ele>806.308678</ele>
        <time>2025-07-10T10:54:26.000Z</time>
      </trkpt>
      <trkpt lat="44.86421" lon="5.79705">
        <ele>806.429235</ele>
        <time>2025-07-10T10:54:27.000Z</time>
      </trkpt>
      <trkpt lat="44.86418" lon="5.79706">
        <ele>806.545518</ele>
        <time>2025-07-10T10:54:28.000Z</time>
      </trkpt>
      <trkpt lat="44.86416" lon="5.79706">
        <ele>806.661181</ele>
        <time>2025-07-10T10:54:29.000Z</time>
      </trkpt>
      <trkpt lat="44.86413" lon="5.79708">
        <ele>806.780718</ele>
        <time>2025-07-10T10:54:30.000Z</time>
      </trkpt>
      <trkpt lat="44.86411" lon="5.79709">
        <ele>806.891982</ele>
        <time>2025-07-10T10:54:31.000Z</time>
      </trkpt>
      <trkpt lat="44.86408" lon="5.7971">
        <ele>807.021791</ele>
        <time>2025-07-10T10:54:32.000Z</time>
      </trkpt>
      <trkpt lat="44.86406" lon="5.79711">
        <ele>807.137183</ele>
        <time>2025-07-10T10:54:33.000Z</time>
      </trkpt>
      <trkpt lat="44.86403" lon="5.79713">
        <ele>807.25361</ele>
        <time>2025-07-10T10:54:34.000Z</time>
      </trkpt>
      <trkpt lat="44.864" lon="5.79714">
        <ele>807.37559</ele>
        <time>2025-07-10T10:54:35.000Z</time>
      </trkpt>
      <trkpt lat="44.86398" lon="5.79715">
        <ele>807.496821</ele>
        <time>2025-07-10T10:54:36.000Z</time>
      </trkpt>
      <trkpt lat="44.86395" lon="5.79716">
        <ele>807.619624</ele>
        <time>2025-07-10T10:54:37.000Z</time>
      </trkpt>
      <trkpt lat="44.86392" lon="5.79717">
        <ele>807.732367</ele>
        <time>2025-07-10T10:54:38.000Z</time>
      </trkpt>
      <trkpt lat="44.8639" lon="5.79717">
        <ele>807.840127</ele>
        <time>2025-07-10T10:54:39.000Z</time>
      </trkpt>
      <trkpt lat="44.86388" lon="5.79718">
        <ele>807.946635</ele>
        <time>2025-07-10T10:54:40.000Z</time>
      </trkpt>
      <trkpt lat="44.86385" lon="5.79719">
        <ele>808.058652</ele>
        <time>2025-07-10T10:54:41.000Z</time>
      </trkpt>
      <trkpt lat="44.86383" lon="5.7972">
        <ele>808.17067</ele>
        <time>2025-07-10T10:54:42.000Z</time>
      </trkpt>
      <trkpt lat="44.8638" lon="5.79721">
        <ele>808.29265</ele>
        <time>2025-07-10T10:54:43.000Z</time>
      </trkpt>
      <trkpt lat="44.86377" lon="5.79721">
        <ele>808.405393</ele>
        <time>2025-07-10T10:54:44.000Z</time>
      </trkpt>
      <trkpt lat="44.86375" lon="5.79722">
        <ele>808.518137</ele>
        <time>2025-07-10T10:54:45.000Z</time>
      </trkpt>
      <trkpt lat="44.86372" lon="5.79723">
        <ele>808.640117</ele>
        <time>2025-07-10T10:54:46.000Z</time>
      </trkpt>
      <trkpt lat="44.86369" lon="5.79724">
        <ele>808.765604</ele>
        <time>2025-07-10T10:54:47.000Z</time>
      </trkpt>
      <trkpt lat="44.86367" lon="5.79725">
        <ele>808.887584</ele>
        <time>2025-07-10T10:54:48.000Z</time>
      </trkpt>
      <trkpt lat="44.86364" lon="5.79726">
        <ele>809.013796</ele>
        <time>2025-07-10T10:54:49.000Z</time>
      </trkpt>
      <trkpt lat="44.86361" lon="5.79727">
        <ele>809.141122</ele>
        <time>2025-07-10T10:54:50.000Z</time>
      </trkpt>
      <trkpt lat="44.86358" lon="5.79727">
        <ele>809.259145</ele>
        <time>2025-07-10T10:54:51.000Z</time>
      </trkpt>
      <trkpt lat="44.86355" lon="5.79726">
        <ele>809.386018</ele>
        <time>2025-07-10T10:54:52.000Z</time>
      </trkpt>
      <trkpt lat="44.86353" lon="5.79727">
        <ele>809.512892</ele>
        <time>2025-07-10T10:54:53.000Z</time>
      </trkpt>
      <trkpt lat="44.8635" lon="5.79727">
        <ele>809.626673</ele>
        <time>2025-07-10T10:54:54.000Z</time>
      </trkpt>
      <trkpt lat="44.86347" lon="5.79727">
        <ele>809.73596</ele>
        <time>2025-07-10T10:54:55.000Z</time>
      </trkpt>
      <trkpt lat="44.86345" lon="5.79726">
        <ele>809.850246</ele>
        <time>2025-07-10T10:54:56.000Z</time>
      </trkpt>
      <trkpt lat="44.86343" lon="5.79726">
        <ele>809.951936</ele>
        <time>2025-07-10T10:54:57.000Z</time>
      </trkpt>
      <trkpt lat="44.8634" lon="5.79726">
        <ele>810.043753</ele>
        <time>2025-07-10T10:54:58.000Z</time>
      </trkpt>
      <trkpt lat="44.86338" lon="5.79726">
        <ele>810.132508</ele>
        <time>2025-07-10T10:54:59.000Z</time>
      </trkpt>
      <trkpt lat="44.86336" lon="5.79727">
        <ele>810.225105</ele>
        <time>2025-07-10T10:55:00.000Z</time>
      </trkpt>
      <trkpt lat="44.86334" lon="5.79727">
        <ele>810.312554</ele>
        <time>2025-07-10T10:55:01.000Z</time>
      </trkpt>
      <trkpt lat="44.86332" lon="5.79727">
        <ele>810.400004</ele>
        <time>2025-07-10T10:55:02.000Z</time>
      </trkpt>
      <trkpt lat="44.8633" lon="5.79726">
        <ele>810.492601</ele>
        <time>2025-07-10T10:55:03.000Z</time>
      </trkpt>
      <trkpt lat="44.86328" lon="5.79726">
        <ele>810.580869</ele>
        <time>2025-07-10T10:55:04.000Z</time>
      </trkpt>
      <trkpt lat="44.86326" lon="5.79725">
        <ele>810.665948</ele>
        <time>2025-07-10T10:55:05.000Z</time>
      </trkpt>
      <trkpt lat="44.86325" lon="5.79724">
        <ele>810.746431</ele>
        <time>2025-07-10T10:55:06.000Z</time>
      </trkpt>
      <trkpt lat="44.86323" lon="5.79723">
        <ele>810.825774</ele>
        <time>2025-07-10T10:55:07.000Z</time>
      </trkpt>
      <trkpt lat="44.86321" lon="5.79723">
        <ele>810.896779</ele>
        <time>2025-07-10T10:55:08.000Z</time>
      </trkpt>
      <trkpt lat="44.8632" lon="5.79723">
        <ele>810.975981</ele>
        <time>2025-07-10T10:55:09.000Z</time>
      </trkpt>
      <trkpt lat="44.86318" lon="5.79722">
        <ele>811.055183</ele>
        <time>2025-07-10T10:55:10.000Z</time>
      </trkpt>
      <trkpt lat="44.86316" lon="5.79722">
        <ele>811.131757</ele>
        <time>2025-07-10T10:55:11.000Z</time>
      </trkpt>
      <trkpt lat="44.86314" lon="5.79721">
        <ele>811.208332</ele>
        <time>2025-07-10T10:55:12.000Z</time>
      </trkpt>
      <trkpt lat="44.86313" lon="5.79721">
        <ele>811.283643</ele>
        <time>2025-07-10T10:55:13.000Z</time>
      </trkpt>
      <trkpt lat="44.86311" lon="5.7972">
        <ele>811.362845</ele>
        <time>2025-07-10T10:55:14.000Z</time>
      </trkpt>
      <trkpt lat="44.86309" lon="5.7972">
        <ele>811.435188</ele>
        <time>2025-07-10T10:55:15.000Z</time>
      </trkpt>
      <trkpt lat="44.86308" lon="5.79719">
        <ele>811.505719</ele>
        <time>2025-07-10T10:55:16.000Z</time>
      </trkpt>
      <trkpt lat="44.86306" lon="5.7972">
        <ele>811.588801</ele>
        <time>2025-07-10T10:55:17.000Z</time>
      </trkpt>
      <trkpt lat="44.86304" lon="5.79719">
        <ele>811.664112</ele>
        <time>2025-07-10T10:55:18.000Z</time>
      </trkpt>
      <trkpt lat="44.86302" lon="5.79719">
        <ele>811.736455</ele>
        <time>2025-07-10T10:55:19.000Z</time>
      </trkpt>
      <trkpt lat="44.86301" lon="5.79718">
        <ele>811.803806</ele>
        <time>2025-07-10T10:55:20.000Z</time>
      </trkpt>
      <trkpt lat="44.86299" lon="5.79717">
        <ele>811.877006</ele>
        <time>2025-07-10T10:55:21.000Z</time>
      </trkpt>
      <trkpt lat="44.86298" lon="5.79717">
        <ele>811.947079</ele>
        <time>2025-07-10T10:55:22.000Z</time>
      </trkpt>
      <trkpt lat="44.86296" lon="5.79716">
        <ele>812.035466</ele>
        <time>2025-07-10T10:55:23.000Z</time>
      </trkpt>
      <trkpt lat="44.86294" lon="5.79716">
        <ele>812.169099</ele>
        <time>2025-07-10T10:55:24.000Z</time>
      </trkpt>
      <trkpt lat="44.86293" lon="5.79715">
        <ele>812.304973</ele>
        <time>2025-07-10T10:55:25.000Z</time>
      </trkpt>
      <trkpt lat="44.86291" lon="5.79715">
        <ele>812.42448</ele>
        <time>2025-07-10T10:55:26.000Z</time>
      </trkpt>
      <trkpt lat="44.86289" lon="5.79714">
        <ele>812.565767</ele>
        <time>2025-07-10T10:55:27.000Z</time>
      </trkpt>
      <trkpt lat="44.86288" lon="5.79714">
        <ele>812.698037</ele>
        <time>2025-07-10T10:55:28.000Z</time>
      </trkpt>
      <trkpt lat="44.86286" lon="5.79714">
        <ele>812.829849</ele>
        <time>2025-07-10T10:55:29.000Z</time>
      </trkpt>
      <trkpt lat="44.86284" lon="5.79714">
        <ele>812.970386</ele>
        <time>2025-07-10T10:55:30.000Z</time>
      </trkpt>
      <trkpt lat="44.86282" lon="5.79713">
        <ele>813.112631</ele>
        <time>2025-07-10T10:55:31.000Z</time>
      </trkpt>
      <trkpt lat="44.86281" lon="5.79713">
        <ele>813.259951</ele>
        <time>2025-07-10T10:55:32.000Z</time>
      </trkpt>
      <trkpt lat="44.86279" lon="5.79713">
        <ele>813.391878</ele>
        <time>2025-07-10T10:55:33.000Z</time>
      </trkpt>
      <trkpt lat="44.86277" lon="5.79713">
        <ele>813.524148</ele>
        <time>2025-07-10T10:55:34.000Z</time>
      </trkpt>
      <trkpt lat="44.86275" lon="5.79714">
        <ele>813.656418</ele>
        <time>2025-07-10T10:55:35.000Z</time>
      </trkpt>
      <trkpt lat="44.86274" lon="5.79714">
        <ele>813.780476</ele>
        <time>2025-07-10T10:55:36.000Z</time>
      </trkpt>
      <trkpt lat="44.86272" lon="5.79714">
        <ele>813.904657</ele>
        <time>2025-07-10T10:55:37.000Z</time>
      </trkpt>
      <trkpt lat="44.86271" lon="5.79714">
        <ele>814.036469</ele>
        <time>2025-07-10T10:55:38.000Z</time>
      </trkpt>
      <trkpt lat="44.86269" lon="5.79713">
        <ele>814.16065</ele>
        <time>2025-07-10T10:55:39.000Z</time>
      </trkpt>
      <trkpt lat="44.86267" lon="5.79713">
        <ele>814.284708</ele>
        <time>2025-07-10T10:55:40.000Z</time>
      </trkpt>
      <trkpt lat="44.86266" lon="5.79713">
        <ele>814.416521</ele>
        <time>2025-07-10T10:55:41.000Z</time>
      </trkpt>
      <trkpt lat="44.86264" lon="5.79714">
        <ele>814.550154</ele>
        <time>2025-07-10T10:55:42.000Z</time>
      </trkpt>
      <trkpt lat="44.86262" lon="5.79714">
        <ele>814.682993</ele>
        <time>2025-07-10T10:55:43.000Z</time>
      </trkpt>
      <trkpt lat="44.86261" lon="5.79714">
        <ele>814.807174</ele>
        <time>2025-07-10T10:55:44.000Z</time>
      </trkpt>
      <trkpt lat="44.86259" lon="5.79714">
        <ele>814.931354</ele>
        <time>2025-07-10T10:55:45.000Z</time>
      </trkpt>
      <trkpt lat="44.86257" lon="5.79714">
        <ele>815.063624</ele>
        <time>2025-07-10T10:55:46.000Z</time>
      </trkpt>
      <trkpt lat="44.86256" lon="5.79713">
        <ele>815.196463</ele>
        <time>2025-07-10T10:55:47.000Z</time>
      </trkpt>
      <trkpt lat="44.86254" lon="5.79713">
        <ele>815.329303</ele>
        <time>2025-07-10T10:55:48.000Z</time>
      </trkpt>
      <trkpt lat="44.86252" lon="5.79713">
        <ele>815.461573</ele>
        <time>2025-07-10T10:55:49.000Z</time>
      </trkpt>
      <trkpt lat="44.8625" lon="5.79713">
        <ele>815.601247</ele>
        <time>2025-07-10T10:55:50.000Z</time>
      </trkpt>
      <trkpt lat="44.86249" lon="5.79713">
        <ele>815.740921</ele>
        <time>2025-07-10T10:55:51.000Z</time>
      </trkpt>
      <trkpt lat="44.86247" lon="5.79712">
        <ele>815.890782</ele>
        <time>2025-07-10T10:55:52.000Z</time>
      </trkpt>
      <trkpt lat="44.86245" lon="5.79712">
        <ele>816.031319</ele>
        <time>2025-07-10T10:55:53.000Z</time>
      </trkpt>
      <trkpt lat="44.86243" lon="5.79712">
        <ele>816.164952</ele>
        <time>2025-07-10T10:55:54.000Z</time>
      </trkpt>
      <trkpt lat="44.86241" lon="5.79711">
        <ele>816.309723</ele>
        <time>2025-07-10T10:55:55.000Z</time>
      </trkpt>
      <trkpt lat="44.8624" lon="5.7971">
        <ele>816.438089</ele>
        <time>2025-07-10T10:55:56.000Z</time>
      </trkpt>
      <trkpt lat="44.86238" lon="5.7971">
        <ele>816.570929</ele>
        <time>2025-07-10T10:55:57.000Z</time>
      </trkpt>
      <trkpt lat="44.86236" lon="5.7971">
        <ele>816.703768</ele>
        <time>2025-07-10T10:55:58.000Z</time>
      </trkpt>
      <trkpt lat="44.86235" lon="5.79709">
        <ele>816.821236</ele>
        <time>2025-07-10T10:55:59.000Z</time>
      </trkpt>
      <trkpt lat="44.86233" lon="5.79709">
        <ele>816.949602</ele>
        <time>2025-07-10T10:56:00.000Z</time>
      </trkpt>
      <trkpt lat="44.86232" lon="5.79708">
        <ele>817.075988</ele>
        <time>2025-07-10T10:56:01.000Z</time>
      </trkpt>
      <trkpt lat="44.8623" lon="5.79707">
        <ele>817.207607</ele>
        <time>2025-07-10T10:56:02.000Z</time>
      </trkpt>
      <trkpt lat="44.86229" lon="5.79706">
        <ele>817.326897</ele>
        <time>2025-07-10T10:56:03.000Z</time>
      </trkpt>
      <trkpt lat="44.86227" lon="5.79705">
        <ele>817.451147</ele>
        <time>2025-07-10T10:56:04.000Z</time>
      </trkpt>
      <trkpt lat="44.86226" lon="5.79704">
        <ele>817.582226</ele>
        <time>2025-07-10T10:56:05.000Z</time>
      </trkpt>
      <trkpt lat="44.86225" lon="5.79703">
        <ele>817.709241</ele>
        <time>2025-07-10T10:56:06.000Z</time>
      </trkpt>
      <trkpt lat="44.86223" lon="5.79701">
        <ele>817.842295</ele>
        <time>2025-07-10T10:56:07.000Z</time>
      </trkpt>
      <trkpt lat="44.86222" lon="5.797">
        <ele>817.984853</ele>
        <time>2025-07-10T10:56:08.000Z</time>
      </trkpt>
      <trkpt lat="44.8622" lon="5.79699">
        <ele>818.127664</ele>
        <time>2025-07-10T10:56:09.000Z</time>
      </trkpt>
      <trkpt lat="44.86218" lon="5.79698">
        <ele>818.254729</ele>
        <time>2025-07-10T10:56:10.000Z</time>
      </trkpt>
      <trkpt lat="44.86217" lon="5.79698">
        <ele>818.381795</ele>
        <time>2025-07-10T10:56:11.000Z</time>
      </trkpt>
      <trkpt lat="44.86215" lon="5.79697">
        <ele>818.502684</ele>
        <time>2025-07-10T10:56:12.000Z</time>
      </trkpt>
      <trkpt lat="44.86214" lon="5.79697">
        <ele>818.623574</ele>
        <time>2025-07-10T10:56:13.000Z</time>
      </trkpt>
      <trkpt lat="44.86212" lon="5.79696">
        <ele>818.75194</ele>
        <time>2025-07-10T10:56:14.000Z</time>
      </trkpt>
      <trkpt lat="44.86211" lon="5.79695">
        <ele>818.869057</ele>
        <time>2025-07-10T10:56:15.000Z</time>
      </trkpt>
      <trkpt lat="44.86209" lon="5.79694">
        <ele>818.993395</ele>
        <time>2025-07-10T10:56:16.000Z</time>
      </trkpt>
      <trkpt lat="44.86208" lon="5.79694">
        <ele>819.114285</ele>
        <time>2025-07-10T10:56:17.000Z</time>
      </trkpt>
      <trkpt lat="44.86206" lon="5.79693">
        <ele>819.233792</ele>
        <time>2025-07-10T10:56:18.000Z</time>
      </trkpt>
      <trkpt lat="44.86205" lon="5.79693">
        <ele>819.350909</ele>
        <time>2025-07-10T10:56:19.000Z</time>
      </trkpt>
      <trkpt lat="44.86203" lon="5.79692">
        <ele>819.468027</ele>
        <time>2025-07-10T10:56:20.000Z</time>
      </trkpt>
      <trkpt lat="44.86202" lon="5.79691">
        <ele>819.592365</ele>
        <time>2025-07-10T10:56:21.000Z</time>
      </trkpt>
      <trkpt lat="44.86201" lon="5.7969">
        <ele>819.711654</ele>
        <time>2025-07-10T10:56:22.000Z</time>
      </trkpt>
      <trkpt lat="44.86199" lon="5.79689">
        <ele>819.83804</ele>
        <time>2025-07-10T10:56:23.000Z</time>
      </trkpt>
      <trkpt lat="44.86198" lon="5.79688">
        <ele>819.965055</ele>
        <time>2025-07-10T10:56:24.000Z</time>
      </trkpt>
      <trkpt lat="44.86196" lon="5.79687">
        <ele>820.085792</ele>
        <time>2025-07-10T10:56:25.000Z</time>
      </trkpt>
      <trkpt lat="44.86195" lon="5.79685">
        <ele>820.204411</ele>
        <time>2025-07-10T10:56:26.000Z</time>
      </trkpt>
      <trkpt lat="44.86194" lon="5.79684">
        <ele>820.328722</ele>
        <time>2025-07-10T10:56:27.000Z</time>
      </trkpt>
      <trkpt lat="44.86193" lon="5.79682">
        <ele>820.446032</ele>
        <time>2025-07-10T10:56:28.000Z</time>
      </trkpt>
      <trkpt lat="44.86192" lon="5.79681">
        <ele>820.563343</ele>
        <time>2025-07-10T10:56:29.000Z</time>
      </trkpt>
      <trkpt lat="44.86191" lon="5.79679">
        <ele>820.691365</ele>
        <time>2025-07-10T10:56:30.000Z</time>
      </trkpt>
      <trkpt lat="44.86189" lon="5.79678">
        <ele>820.815676</ele>
        <time>2025-07-10T10:56:31.000Z</time>
      </trkpt>
      <trkpt lat="44.86188" lon="5.79676">
        <ele>820.936412</ele>
        <time>2025-07-10T10:56:32.000Z</time>
      </trkpt>
      <trkpt lat="44.86187" lon="5.79675">
        <ele>821.066628</ele>
        <time>2025-07-10T10:56:33.000Z</time>
      </trkpt>
      <trkpt lat="44.86186" lon="5.79673">
        <ele>821.185247</ele>
        <time>2025-07-10T10:56:34.000Z</time>
      </trkpt>
      <trkpt lat="44.86185" lon="5.79672">
        <ele>821.317105</ele>
        <time>2025-07-10T10:56:35.000Z</time>
      </trkpt>
      <trkpt lat="44.86184" lon="5.7967">
        <ele>821.442796</ele>
        <time>2025-07-10T10:56:36.000Z</time>
      </trkpt>
      <trkpt lat="44.86182" lon="5.79668">
        <ele>821.565298</ele>
        <time>2025-07-10T10:56:37.000Z</time>
      </trkpt>
      <trkpt lat="44.86181" lon="5.79667">
        <ele>821.687801</ele>
        <time>2025-07-10T10:56:38.000Z</time>
      </trkpt>
      <trkpt lat="44.8618" lon="5.79665">
        <ele>821.818418</ele>
        <time>2025-07-10T10:56:39.000Z</time>
      </trkpt>
      <trkpt lat="44.86179" lon="5.79663">
        <ele>821.948479</ele>
        <time>2025-07-10T10:56:40.000Z</time>
      </trkpt>
      <trkpt lat="44.86178" lon="5.79661">
        <ele>822.07417</ele>
        <time>2025-07-10T10:56:41.000Z</time>
      </trkpt>
      <trkpt lat="44.86177" lon="5.79659">
        <ele>822.204231</ele>
        <time>2025-07-10T10:56:42.000Z</time>
      </trkpt>
      <trkpt lat="44.86176" lon="5.79657">
        <ele>822.339058</ele>
        <time>2025-07-10T10:56:43.000Z</time>
      </trkpt>
      <trkpt lat="44.86175" lon="5.79655">
        <ele>822.473571</ele>
        <time>2025-07-10T10:56:44.000Z</time>
      </trkpt>
      <trkpt lat="44.86174" lon="5.79654">
        <ele>822.608398</ele>
        <time>2025-07-10T10:56:45.000Z</time>
      </trkpt>
      <trkpt lat="44.86173" lon="5.79652">
        <ele>822.73409</ele>
        <time>2025-07-10T10:56:46.000Z</time>
      </trkpt>
      <trkpt lat="44.86172" lon="5.7965">
        <ele>822.860595</ele>
        <time>2025-07-10T10:56:47.000Z</time>
      </trkpt>
      <trkpt lat="44.86171" lon="5.79648">
        <ele>823.001827</ele>
        <time>2025-07-10T10:56:48.000Z</time>
      </trkpt>
      <trkpt lat="44.8617" lon="5.79646">
        <ele>823.127519</ele>
        <time>2025-07-10T10:56:49.000Z</time>
      </trkpt>
      <trkpt lat="44.86169" lon="5.79644">
        <ele>823.262032</ele>
        <time>2025-07-10T10:56:50.000Z</time>
      </trkpt>
      <trkpt lat="44.86168" lon="5.79642">
        <ele>823.396545</ele>
        <time>2025-07-10T10:56:51.000Z</time>
      </trkpt>
      <trkpt lat="44.86167" lon="5.79641">
        <ele>823.517608</ele>
        <time>2025-07-10T10:56:52.000Z</time>
      </trkpt>
      <trkpt lat="44.86166" lon="5.79639">
        <ele>823.64563</ele>
        <time>2025-07-10T10:56:53.000Z</time>
      </trkpt>
      <trkpt lat="44.86165" lon="5.79637">
        <ele>823.7805</ele>
        <time>2025-07-10T10:56:54.000Z</time>
      </trkpt>
      <trkpt lat="44.86164" lon="5.79635">
        <ele>823.91537</ele>
        <time>2025-07-10T10:56:55.000Z</time>
      </trkpt>
      <trkpt lat="44.86163" lon="5.79633">
        <ele>824.045569</ele>
        <time>2025-07-10T10:56:56.000Z</time>
      </trkpt>
      <trkpt lat="44.86162" lon="5.79631">
        <ele>824.180082</ele>
        <time>2025-07-10T10:56:57.000Z</time>
      </trkpt>
      <trkpt lat="44.86161" lon="5.79629">
        <ele>824.31921</ele>
        <time>2025-07-10T10:56:58.000Z</time>
      </trkpt>
      <trkpt lat="44.8616" lon="5.79627">
        <ele>824.449408</ele>
        <time>2025-07-10T10:56:59.000Z</time>
      </trkpt>
      <trkpt lat="44.86159" lon="5.79625">
        <ele>824.584236</ele>
        <time>2025-07-10T10:57:00.000Z</time>
      </trkpt>
      <trkpt lat="44.86158" lon="5.79623">
        <ele>824.712258</ele>
        <time>2025-07-10T10:57:01.000Z</time>
      </trkpt>
      <trkpt lat="44.86157" lon="5.79622">
        <ele>824.837949</ele>
        <time>2025-07-10T10:57:02.000Z</time>
      </trkpt>
      <trkpt lat="44.86156" lon="5.7962">
        <ele>824.963641</ele>
        <time>2025-07-10T10:57:03.000Z</time>
      </trkpt>
      <trkpt lat="44.86155" lon="5.79618">
        <ele>825.089332</ele>
        <time>2025-07-10T10:57:04.000Z</time>
      </trkpt>
      <trkpt lat="44.86154" lon="5.79616">
        <ele>825.202505</ele>
        <time>2025-07-10T10:57:05.000Z</time>
      </trkpt>
      <trkpt lat="44.86152" lon="5.79615">
        <ele>825.325008</ele>
        <time>2025-07-10T10:57:06.000Z</time>
      </trkpt>
      <trkpt lat="44.86151" lon="5.79613">
        <ele>825.43818</ele>
        <time>2025-07-10T10:57:07.000Z</time>
      </trkpt>
      <trkpt lat="44.8615" lon="5.79612">
        <ele>825.551353</ele>
        <time>2025-07-10T10:57:08.000Z</time>
      </trkpt>
      <trkpt lat="44.86149" lon="5.7961">
        <ele>825.66859</ele>
        <time>2025-07-10T10:57:09.000Z</time>
      </trkpt>
      <trkpt lat="44.86149" lon="5.79608">
        <ele>825.785355</ele>
        <time>2025-07-10T10:57:10.000Z</time>
      </trkpt>
      <trkpt lat="44.86148" lon="5.79607">
        <ele>825.910948</ele>
        <time>2025-07-10T10:57:11.000Z</time>
      </trkpt>
      <trkpt lat="44.86147" lon="5.79605">
        <ele>826.005291</ele>
        <time>2025-07-10T10:57:12.000Z</time>
      </trkpt>
      <trkpt lat="44.86146" lon="5.79604">
        <ele>826.094106</ele>
        <time>2025-07-10T10:57:13.000Z</time>
      </trkpt>
      <trkpt lat="44.86145" lon="5.79602">
        <ele>826.186566</ele>
        <time>2025-07-10T10:57:14.000Z</time>
      </trkpt>
      <trkpt lat="44.86144" lon="5.796">
        <ele>826.269063</ele>
        <time>2025-07-10T10:57:15.000Z</time>
      </trkpt>
      <trkpt lat="44.86143" lon="5.79599">
        <ele>826.355303</ele>
        <time>2025-07-10T10:57:16.000Z</time>
      </trkpt>
      <trkpt lat="44.86142" lon="5.79597">
        <ele>826.4378</ele>
        <time>2025-07-10T10:57:17.000Z</time>
      </trkpt>
      <trkpt lat="44.86141" lon="5.79595">
        <ele>826.520296</ele>
        <time>2025-07-10T10:57:18.000Z</time>
      </trkpt>
      <trkpt lat="44.8614" lon="5.79594">
        <ele>826.602141</ele>
        <time>2025-07-10T10:57:19.000Z</time>
      </trkpt>
      <trkpt lat="44.86139" lon="5.79592">
        <ele>826.695423</ele>
        <time>2025-07-10T10:57:20.000Z</time>
      </trkpt>
      <trkpt lat="44.86138" lon="5.79591">
        <ele>826.798307</ele>
        <time>2025-07-10T10:57:21.000Z</time>
      </trkpt>
      <trkpt lat="44.86137" lon="5.79589">
        <ele>826.884547</ele>
        <time>2025-07-10T10:57:22.000Z</time>
      </trkpt>
      <trkpt lat="44.86136" lon="5.79587">
        <ele>826.97033</ele>
        <time>2025-07-10T10:57:23.000Z</time>
      </trkpt>
      <trkpt lat="44.86135" lon="5.79586">
        <ele>827.060445</ele>
        <time>2025-07-10T10:57:24.000Z</time>
      </trkpt>
      <trkpt lat="44.86133" lon="5.79584">
        <ele>827.158843</ele>
        <time>2025-07-10T10:57:25.000Z</time>
      </trkpt>
      <trkpt lat="44.86132" lon="5.79582">
        <ele>827.251902</ele>
        <time>2025-07-10T10:57:26.000Z</time>
      </trkpt>
      <trkpt lat="44.86131" lon="5.79581">
        <ele>827.347985</ele>
        <time>2025-07-10T10:57:27.000Z</time>
      </trkpt>
      <trkpt lat="44.8613" lon="5.79579">
        <ele>827.451878</ele>
        <time>2025-07-10T10:57:28.000Z</time>
      </trkpt>
      <trkpt lat="44.86128" lon="5.79577">
        <ele>827.552979</ele>
        <time>2025-07-10T10:57:29.000Z</time>
      </trkpt>
      <trkpt lat="44.86127" lon="5.79575">
        <ele>827.658336</ele>
        <time>2025-07-10T10:57:30.000Z</time>
      </trkpt>
      <trkpt lat="44.86126" lon="5.79574">
        <ele>827.755332</ele>
        <time>2025-07-10T10:57:31.000Z</time>
      </trkpt>
      <trkpt lat="44.86125" lon="5.79572">
        <ele>827.848613</ele>
        <time>2025-07-10T10:57:32.000Z</time>
      </trkpt>
      <trkpt lat="44.86123" lon="5.79571">
        <ele>827.94649</ele>
        <time>2025-07-10T10:57:33.000Z</time>
      </trkpt>
      <trkpt lat="44.86122" lon="5.79569">
        <ele>828.039772</ele>
        <time>2025-07-10T10:57:34.000Z</time>
      </trkpt>
      <trkpt lat="44.8612" lon="5.79568">
        <ele>828.137649</ele>
        <time>2025-07-10T10:57:35.000Z</time>
      </trkpt>
      <trkpt lat="44.86119" lon="5.79567">
        <ele>828.240232</ele>
        <time>2025-07-10T10:57:36.000Z</time>
      </trkpt>
      <trkpt lat="44.86118" lon="5.79565">
        <ele>828.338108</ele>
        <time>2025-07-10T10:57:37.000Z</time>
      </trkpt>
      <trkpt lat="44.86116" lon="5.79564">
        <ele>828.442976</ele>
        <time>2025-07-10T10:57:38.000Z</time>
      </trkpt>
      <trkpt lat="44.86115" lon="5.79563">
        <ele>828.537603</ele>
        <time>2025-07-10T10:57:39.000Z</time>
      </trkpt>
      <trkpt lat="44.86113" lon="5.79562">
        <ele>828.629664</ele>
        <time>2025-07-10T10:57:40.000Z</time>
      </trkpt>
      <trkpt lat="44.86111" lon="5.79562">
        <ele>828.729615</ele>
        <time>2025-07-10T10:57:41.000Z</time>
      </trkpt>
      <trkpt lat="44.8611" lon="5.79561">
        <ele>828.826436</ele>
        <time>2025-07-10T10:57:42.000Z</time>
      </trkpt>
      <trkpt lat="44.86108" lon="5.7956">
        <ele>828.908059</ele>
        <time>2025-07-10T10:57:43.000Z</time>
      </trkpt>
      <trkpt lat="44.86107" lon="5.79559">
        <ele>828.99597</ele>
        <time>2025-07-10T10:57:44.000Z</time>
      </trkpt>
      <trkpt lat="44.86105" lon="5.79559">
        <ele>829.087435</ele>
        <time>2025-07-10T10:57:45.000Z</time>
      </trkpt>
      <trkpt lat="44.86104" lon="5.79558">
        <ele>829.188953</ele>
        <time>2025-07-10T10:57:46.000Z</time>
      </trkpt>
      <trkpt lat="44.86102" lon="5.79557">
        <ele>829.283579</ele>
        <time>2025-07-10T10:57:47.000Z</time>
      </trkpt>
      <trkpt lat="44.86101" lon="5.79556">
        <ele>829.369732</ele>
        <time>2025-07-10T10:57:48.000Z</time>
      </trkpt>
      <trkpt lat="44.86099" lon="5.79555">
        <ele>829.465279</ele>
        <time>2025-07-10T10:57:49.000Z</time>
      </trkpt>
      <trkpt lat="44.86098" lon="5.79554">
        <ele>829.560825</ele>
        <time>2025-07-10T10:57:50.000Z</time>
      </trkpt>
      <trkpt lat="44.86096" lon="5.79553">
        <ele>829.66439</ele>
        <time>2025-07-10T10:57:51.000Z</time>
      </trkpt>
      <trkpt lat="44.86094" lon="5.79552">
        <ele>829.771064</ele>
        <time>2025-07-10T10:57:52.000Z</time>
      </trkpt>
      <trkpt lat="44.86093" lon="5.79551">
        <ele>829.879487</ele>
        <time>2025-07-10T10:57:53.000Z</time>
      </trkpt>
      <trkpt lat="44.86091" lon="5.7955">
        <ele>829.983052</ele>
        <time>2025-07-10T10:57:54.000Z</time>
      </trkpt>
      <trkpt lat="44.86089" lon="5.7955">
        <ele>830.088545</ele>
        <time>2025-07-10T10:57:55.000Z</time>
      </trkpt>
      <trkpt lat="44.86088" lon="5.79549">
        <ele>830.184091</ele>
        <time>2025-07-10T10:57:56.000Z</time>
      </trkpt>
      <trkpt lat="44.86086" lon="5.79548">
        <ele>830.295143</ele>
        <time>2025-07-10T10:57:57.000Z</time>
      </trkpt>
      <trkpt lat="44.86084" lon="5.79548">
        <ele>830.401638</ele>
        <time>2025-07-10T10:57:58.000Z</time>
      </trkpt>
      <trkpt lat="44.86082" lon="5.79547">
        <ele>830.505203</ele>
        <time>2025-07-10T10:57:59.000Z</time>
      </trkpt>
      <trkpt lat="44.86081" lon="5.79546">
        <ele>830.605017</ele>
        <time>2025-07-10T10:58:00.000Z</time>
      </trkpt>
      <trkpt lat="44.86079" lon="5.79545">
        <ele>830.699643</ele>
        <time>2025-07-10T10:58:01.000Z</time>
      </trkpt>
      <trkpt lat="44.86077" lon="5.79544">
        <ele>830.797889</ele>
        <time>2025-07-10T10:58:02.000Z</time>
      </trkpt>
      <trkpt lat="44.86076" lon="5.79543">
        <ele>830.896134</ele>
        <time>2025-07-10T10:58:03.000Z</time>
      </trkpt>
      <trkpt lat="44.86074" lon="5.79542">
        <ele>831.005057</ele>
        <time>2025-07-10T10:58:04.000Z</time>
      </trkpt>
      <trkpt lat="44.86072" lon="5.79541">
        <ele>831.117062</ele>
        <time>2025-07-10T10:58:05.000Z</time>
      </trkpt>
      <trkpt lat="44.8607" lon="5.79541">
        <ele>831.228113</ele>
        <time>2025-07-10T10:58:06.000Z</time>
      </trkpt>
      <trkpt lat="44.86068" lon="5.7954">
        <ele>831.345253</ele>
        <time>2025-07-10T10:58:07.000Z</time>
      </trkpt>
      <trkpt lat="44.86067" lon="5.79538">
        <ele>831.453676</ele>
        <time>2025-07-10T10:58:08.000Z</time>
      </trkpt>
      <trkpt lat="44.86065" lon="5.79537">
        <ele>831.560351</ele>
        <time>2025-07-10T10:58:09.000Z</time>
      </trkpt>
      <trkpt lat="44.86063" lon="5.79536">
        <ele>831.674666</ele>
        <time>2025-07-10T10:58:10.000Z</time>
      </trkpt>
      <trkpt lat="44.86061" lon="5.79535">
        <ele>831.788218</ele>
        <time>2025-07-10T10:58:11.000Z</time>
      </trkpt>
      <trkpt lat="44.86059" lon="5.79534">
        <ele>831.909244</ele>
        <time>2025-07-10T10:58:12.000Z</time>
      </trkpt>
      <trkpt lat="44.86057" lon="5.79533">
        <ele>832.037011</ele>
        <time>2025-07-10T10:58:13.000Z</time>
      </trkpt>
      <trkpt lat="44.86055" lon="5.79532">
        <ele>832.17014</ele>
        <time>2025-07-10T10:58:14.000Z</time>
      </trkpt>
      <trkpt lat="44.86053" lon="5.79531">
        <ele>832.29937</ele>
        <time>2025-07-10T10:58:15.000Z</time>
      </trkpt>
      <trkpt lat="44.86051" lon="5.7953">
        <ele>832.409709</ele>
        <time>2025-07-10T10:58:16.000Z</time>
      </trkpt>
      <trkpt lat="44.86049" lon="5.79529">
        <ele>832.522803</ele>
        <time>2025-07-10T10:58:17.000Z</time>
      </trkpt>
      <trkpt lat="44.86047" lon="5.79528">
        <ele>832.631727</ele>
        <time>2025-07-10T10:58:18.000Z</time>
      </trkpt>
      <trkpt lat="44.86045" lon="5.79527">
        <ele>832.748867</ele>
        <time>2025-07-10T10:58:19.000Z</time>
      </trkpt>
      <trkpt lat="44.86044" lon="5.79526">
        <ele>832.859158</ele>
        <time>2025-07-10T10:58:20.000Z</time>
      </trkpt>
      <trkpt lat="44.86042" lon="5.79524">
        <ele>832.964469</ele>
        <time>2025-07-10T10:58:21.000Z</time>
      </trkpt>
      <trkpt lat="44.8604" lon="5.79523">
        <ele>833.072892</ele>
        <time>2025-07-10T10:58:22.000Z</time>
      </trkpt>
      <trkpt lat="44.86039" lon="5.79522">
        <ele>833.181315</ele>
        <time>2025-07-10T10:58:23.000Z</time>
      </trkpt>
      <trkpt lat="44.86037" lon="5.79521">
        <ele>833.29698</ele>
        <time>2025-07-10T10:58:24.000Z</time>
      </trkpt>
      <trkpt lat="44.86035" lon="5.7952">
        <ele>833.422163</ele>
        <time>2025-07-10T10:58:25.000Z</time>
      </trkpt>
      <trkpt lat="44.86033" lon="5.79519">
        <ele>833.545238</ele>
        <time>2025-07-10T10:58:26.000Z</time>
      </trkpt>
      <trkpt lat="44.86031" lon="5.79519">
        <ele>833.632308</ele>
        <time>2025-07-10T10:58:27.000Z</time>
      </trkpt>
      <trkpt lat="44.8603" lon="5.79518">
        <ele>833.716762</ele>
        <time>2025-07-10T10:58:28.000Z</time>
      </trkpt>
      <trkpt lat="44.86028" lon="5.79517">
        <ele>833.828646</ele>
        <time>2025-07-10T10:58:29.000Z</time>
      </trkpt>
      <trkpt lat="44.86026" lon="5.79516">
        <ele>833.947381</ele>
        <time>2025-07-10T10:58:30.000Z</time>
      </trkpt>
      <trkpt lat="44.86024" lon="5.79515">
        <ele>834.065951</ele>
        <time>2025-07-10T10:58:31.000Z</time>
      </trkpt>
      <trkpt lat="44.86022" lon="5.79514">
        <ele>834.181802</ele>
        <time>2025-07-10T10:58:32.000Z</time>
      </trkpt>
      <trkpt lat="44.8602" lon="5.79513">
        <ele>834.313635</ele>
        <time>2025-07-10T10:58:33.000Z</time>
      </trkpt>
      <trkpt lat="44.86018" lon="5.79513">
        <ele>834.448748</ele>
        <time>2025-07-10T10:58:34.000Z</time>
      </trkpt>
      <trkpt lat="44.86016" lon="5.79511">
        <ele>834.57271</ele>
        <time>2025-07-10T10:58:35.000Z</time>
      </trkpt>
      <trkpt lat="44.86014" lon="5.7951">
        <ele>834.700477</ele>
        <time>2025-07-10T10:58:36.000Z</time>
      </trkpt>
      <trkpt lat="44.86011" lon="5.79509">
        <ele>834.836521</ele>
        <time>2025-07-10T10:58:37.000Z</time>
      </trkpt>
      <trkpt lat="44.86009" lon="5.79508">
        <ele>834.968354</ele>
        <time>2025-07-10T10:58:38.000Z</time>
      </trkpt>
      <trkpt lat="44.86007" lon="5.79507">
        <ele>835.096158</ele>
        <time>2025-07-10T10:58:39.000Z</time>
      </trkpt>
      <trkpt lat="44.86005" lon="5.79506">
        <ele>835.218594</ele>
        <time>2025-07-10T10:58:40.000Z</time>
      </trkpt>
      <trkpt lat="44.86003" lon="5.79505">
        <ele>835.340855</ele>
        <time>2025-07-10T10:58:41.000Z</time>
      </trkpt>
      <trkpt lat="44.86001" lon="5.79504">
        <ele>835.471657</ele>
        <time>2025-07-10T10:58:42.000Z</time>
      </trkpt>
      <trkpt lat="44.85999" lon="5.79502">
        <ele>835.602458</ele>
        <time>2025-07-10T10:58:43.000Z</time>
      </trkpt>
      <trkpt lat="44.85997" lon="5.79501">
        <ele>835.734291</ele>
        <time>2025-07-10T10:58:44.000Z</time>
      </trkpt>
      <trkpt lat="44.85995" lon="5.795">
        <ele>835.840966</ele>
        <time>2025-07-10T10:58:45.000Z</time>
      </trkpt>
      <trkpt lat="44.85993" lon="5.795">
        <ele>835.963176</ele>
        <time>2025-07-10T10:58:46.000Z</time>
      </trkpt>
      <trkpt lat="44.85991" lon="5.79499">
        <ele>836.085385</ele>
        <time>2025-07-10T10:58:47.000Z</time>
      </trkpt>
      <trkpt lat="44.85989" lon="5.79498">
        <ele>836.207594</ele>
        <time>2025-07-10T10:58:48.000Z</time>
      </trkpt>
      <trkpt lat="44.85986" lon="5.79497">
        <ele>836.314443</ele>
        <time>2025-07-10T10:58:49.000Z</time>
      </trkpt>
      <trkpt lat="44.85984" lon="5.79496">
        <ele>836.416114</ele>
        <time>2025-07-10T10:58:50.000Z</time>
      </trkpt>
      <trkpt lat="44.85982" lon="5.79496">
        <ele>836.510639</ele>
        <time>2025-07-10T10:58:51.000Z</time>
      </trkpt>
      <trkpt lat="44.8598" lon="5.79495">
        <ele>836.605165</ele>
        <time>2025-07-10T10:58:52.000Z</time>
      </trkpt>
      <trkpt lat="44.85978" lon="5.79494">
        <ele>836.709382</ele>
        <time>2025-07-10T10:58:53.000Z</time>
      </trkpt>
      <trkpt lat="44.85976" lon="5.79494">
        <ele>836.816133</ele>
        <time>2025-07-10T10:58:54.000Z</time>
      </trkpt>
      <trkpt lat="44.85974" lon="5.79493">
        <ele>836.922089</ele>
        <time>2025-07-10T10:58:55.000Z</time>
      </trkpt>
      <trkpt lat="44.85971" lon="5.79493">
        <ele>837.028393</ele>
        <time>2025-07-10T10:58:56.000Z</time>
      </trkpt>
      <trkpt lat="44.85969" lon="5.79492">
        <ele>837.129072</ele>
        <time>2025-07-10T10:58:57.000Z</time>
      </trkpt>
      <trkpt lat="44.85967" lon="5.79491">
        <ele>837.232525</ele>
        <time>2025-07-10T10:58:58.000Z</time>
      </trkpt>
      <trkpt lat="44.85965" lon="5.79491">
        <ele>837.336742</ele>
        <time>2025-07-10T10:58:59.000Z</time>
      </trkpt>
      <trkpt lat="44.85963" lon="5.7949">
        <ele>837.436524</ele>
        <time>2025-07-10T10:59:00.000Z</time>
      </trkpt>
      <trkpt lat="44.8596" lon="5.79489">
        <ele>837.547811</ele>
        <time>2025-07-10T10:59:01.000Z</time>
      </trkpt>
      <trkpt lat="44.85958" lon="5.7949">
        <ele>837.65867</ele>
        <time>2025-07-10T10:59:02.000Z</time>
      </trkpt>
      <trkpt lat="44.85955" lon="5.7949">
        <ele>837.768954</ele>
        <time>2025-07-10T10:59:03.000Z</time>
      </trkpt>
      <trkpt lat="44.85953" lon="5.7949">
        <ele>837.883635</ele>
        <time>2025-07-10T10:59:04.000Z</time>
      </trkpt>
      <trkpt lat="44.85951" lon="5.7949">
        <ele>837.985388</ele>
        <time>2025-07-10T10:59:05.000Z</time>
      </trkpt>
      <trkpt lat="44.85949" lon="5.79489">
        <ele>838.087141</ele>
        <time>2025-07-10T10:59:06.000Z</time>
      </trkpt>
      <trkpt lat="44.85946" lon="5.79489">
        <ele>838.188269</ele>
        <time>2025-07-10T10:59:07.000Z</time>
      </trkpt>
      <trkpt lat="44.85944" lon="5.79489">
        <ele>838.303134</ele>
        <time>2025-07-10T10:59:08.000Z</time>
      </trkpt>
      <trkpt lat="44.85942" lon="5.79488">
        <ele>838.409438</ele>
        <time>2025-07-10T10:59:09.000Z</time>
      </trkpt>
      <trkpt lat="44.85939" lon="5.79488">
        <ele>838.512225</ele>
        <time>2025-07-10T10:59:10.000Z</time>
      </trkpt>
      <trkpt lat="44.85937" lon="5.79487">
        <ele>838.604887</ele>
        <time>2025-07-10T10:59:11.000Z</time>
      </trkpt>
      <trkpt lat="44.85935" lon="5.79487">
        <ele>838.706276</ele>
        <time>2025-07-10T10:59:12.000Z</time>
      </trkpt>
      <trkpt lat="44.85933" lon="5.79487">
        <ele>838.808029</ele>
        <time>2025-07-10T10:59:13.000Z</time>
      </trkpt>
      <trkpt lat="44.85931" lon="5.79486">
        <ele>838.918314</ele>
        <time>2025-07-10T10:59:14.000Z</time>
      </trkpt>
      <trkpt lat="44.85928" lon="5.79486">
        <ele>839.02427</ele>
        <time>2025-07-10T10:59:15.000Z</time>
      </trkpt>
      <trkpt lat="44.85926" lon="5.79486">
        <ele>839.131021</ele>
        <time>2025-07-10T10:59:16.000Z</time>
      </trkpt>
      <trkpt lat="44.85924" lon="5.79485">
        <ele>839.239686</ele>
        <time>2025-07-10T10:59:17.000Z</time>
      </trkpt>
      <trkpt lat="44.85921" lon="5.79484">
        <ele>839.346437</ele>
        <time>2025-07-10T10:59:18.000Z</time>
      </trkpt>
      <trkpt lat="44.85919" lon="5.79484">
        <ele>839.44819</ele>
        <time>2025-07-10T10:59:19.000Z</time>
      </trkpt>
      <trkpt lat="44.85917" lon="5.79484">
        <ele>839.558715</ele>
        <time>2025-07-10T10:59:20.000Z</time>
      </trkpt>
      <trkpt lat="44.85914" lon="5.79483">
        <ele>839.666648</ele>
        <time>2025-07-10T10:59:21.000Z</time>
      </trkpt>
      <trkpt lat="44.85912" lon="5.79482">
        <ele>839.770865</ele>
        <time>2025-07-10T10:59:22.000Z</time>
      </trkpt>
      <trkpt lat="44.8591" lon="5.79481">
        <ele>839.875082</ele>
        <time>2025-07-10T10:59:23.000Z</time>
      </trkpt>
      <trkpt lat="44.85908" lon="5.79481">
        <ele>839.979299</ele>
        <time>2025-07-10T10:59:24.000Z</time>
      </trkpt>
      <trkpt lat="44.85906" lon="5.7948">
        <ele>840.078283</ele>
        <time>2025-07-10T10:59:25.000Z</time>
      </trkpt>
      <trkpt lat="44.85904" lon="5.79479">
        <ele>840.180037</ele>
        <time>2025-07-10T10:59:26.000Z</time>
      </trkpt>
      <trkpt lat="44.85901" lon="5.79479">
        <ele>840.27773</ele>
        <time>2025-07-10T10:59:27.000Z</time>
      </trkpt>
      <trkpt lat="44.85899" lon="5.79478">
        <ele>840.384481</ele>
        <time>2025-07-10T10:59:28.000Z</time>
      </trkpt>
      <trkpt lat="44.85897" lon="5.79478">
        <ele>840.490187</ele>
        <time>2025-07-10T10:59:29.000Z</time>
      </trkpt>
      <trkpt lat="44.85895" lon="5.79478">
        <ele>840.592975</ele>
        <time>2025-07-10T10:59:30.000Z</time>
      </trkpt>
      <trkpt lat="44.85893" lon="5.79477">
        <ele>840.695732</ele>
        <time>2025-07-10T10:59:31.000Z</time>
      </trkpt>
      <trkpt lat="44.8589" lon="5.79476">
        <ele>840.800808</ele>
        <time>2025-07-10T10:59:32.000Z</time>
      </trkpt>
      <trkpt lat="44.85888" lon="5.79475">
        <ele>840.901486</ele>
        <time>2025-07-10T10:59:33.000Z</time>
      </trkpt>
      <trkpt lat="44.85886" lon="5.79474">
        <ele>840.996979</ele>
        <time>2025-07-10T10:59:34.000Z</time>
      </trkpt>
      <trkpt lat="44.85884" lon="5.79472">
        <ele>841.098483</ele>
        <time>2025-07-10T10:59:35.000Z</time>
      </trkpt>
      <trkpt lat="44.85883" lon="5.7947">
        <ele>841.205316</ele>
        <time>2025-07-10T10:59:36.000Z</time>
      </trkpt>
      <trkpt lat="44.85881" lon="5.79468">
        <ele>841.299993</ele>
        <time>2025-07-10T10:59:37.000Z</time>
      </trkpt>
      <trkpt lat="44.8588" lon="5.79466">
        <ele>841.396127</ele>
        <time>2025-07-10T10:59:38.000Z</time>
      </trkpt>
      <trkpt lat="44.85878" lon="5.79463">
        <ele>841.496945</ele>
        <time>2025-07-10T10:59:39.000Z</time>
      </trkpt>
      <trkpt lat="44.85877" lon="5.79461">
        <ele>841.603338</ele>
        <time>2025-07-10T10:59:40.000Z</time>
      </trkpt>
      <trkpt lat="44.85876" lon="5.79457">
        <ele>841.71819</ele>
        <time>2025-07-10T10:59:41.000Z</time>
      </trkpt>
      <trkpt lat="44.85875" lon="5.79454">
        <ele>841.830915</ele>
        <time>2025-07-10T10:59:42.000Z</time>
      </trkpt>
      <trkpt lat="44.85874" lon="5.79451">
        <ele>841.93684</ele>
        <time>2025-07-10T10:59:43.000Z</time>
      </trkpt>
      <trkpt lat="44.85873" lon="5.79448">
        <ele>842.042632</ele>
        <time>2025-07-10T10:59:44.000Z</time>
      </trkpt>
      <trkpt lat="44.85873" lon="5.79445">
        <ele>842.147123</ele>
        <time>2025-07-10T10:59:45.000Z</time>
      </trkpt>
      <trkpt lat="44.85872" lon="5.79442">
        <ele>842.24958</ele>
        <time>2025-07-10T10:59:46.000Z</time>
      </trkpt>
      <trkpt lat="44.85872" lon="5.79439">
        <ele>842.364216</ele>
        <time>2025-07-10T10:59:47.000Z</time>
      </trkpt>
      <trkpt lat="44.85872" lon="5.79435">
        <ele>842.478392</ele>
        <time>2025-07-10T10:59:48.000Z</time>
      </trkpt>
      <trkpt lat="44.85872" lon="5.79432">
        <ele>842.592569</ele>
        <time>2025-07-10T10:59:49.000Z</time>
      </trkpt>
      <trkpt lat="44.85871" lon="5.79428">
        <ele>842.700264</ele>
        <time>2025-07-10T10:59:50.000Z</time>
      </trkpt>
      <trkpt lat="44.85871" lon="5.79425">
        <ele>842.80796</ele>
        <time>2025-07-10T10:59:51.000Z</time>
      </trkpt>
      <trkpt lat="44.85871" lon="5.79422">
        <ele>842.908865</ele>
        <time>2025-07-10T10:59:52.000Z</time>
      </trkpt>
      <trkpt lat="44.85871" lon="5.79418">
        <ele>843.026013</ele>
        <time>2025-07-10T10:59:53.000Z</time>
      </trkpt>
      <trkpt lat="44.85871" lon="5.79414">
        <ele>843.149575</ele>
        <time>2025-07-10T10:59:54.000Z</time>
      </trkpt>
      <trkpt lat="44.85871" lon="5.79411">
        <ele>843.273223</ele>
        <time>2025-07-10T10:59:55.000Z</time>
      </trkpt>
      <trkpt lat="44.85871" lon="5.79407">
        <ele>843.390641</ele>
        <time>2025-07-10T10:59:56.000Z</time>
      </trkpt>
      <trkpt lat="44.85871" lon="5.79404">
        <ele>843.502049</ele>
        <time>2025-07-10T10:59:57.000Z</time>
      </trkpt>
      <trkpt lat="44.85871" lon="5.79401">
        <ele>843.593095</ele>
        <time>2025-07-10T10:59:58.000Z</time>
      </trkpt>
      <trkpt lat="44.85871" lon="5.79398">
        <ele>843.685175</ele>
        <time>2025-07-10T10:59:59.000Z</time>
      </trkpt>
      <trkpt lat="44.85871" lon="5.79395">
        <ele>843.781241</ele>
        <time>2025-07-10T11:00:00.000Z</time>
      </trkpt>
      <trkpt lat="44.8587" lon="5.79392">
        <ele>843.879473</ele>
        <time>2025-07-10T11:00:01.000Z</time>
      </trkpt>
      <trkpt lat="44.8587" lon="5.79389">
        <ele>843.978733</ele>
        <time>2025-07-10T11:00:02.000Z</time>
      </trkpt>
      <trkpt lat="44.85869" lon="5.79386">
        <ele>844.077248</ele>
        <time>2025-07-10T11:00:03.000Z</time>
      </trkpt>
      <trkpt lat="44.85869" lon="5.79383">
        <ele>844.189316</ele>
        <time>2025-07-10T11:00:04.000Z</time>
      </trkpt>
      <trkpt lat="44.85869" lon="5.7938">
        <ele>844.288576</ele>
        <time>2025-07-10T11:00:05.000Z</time>
      </trkpt>
      <trkpt lat="44.85868" lon="5.79377">
        <ele>844.369916</ele>
        <time>2025-07-10T11:00:06.000Z</time>
      </trkpt>
      <trkpt lat="44.85867" lon="5.79375">
        <ele>844.4663</ele>
        <time>2025-07-10T11:00:07.000Z</time>
      </trkpt>
      <trkpt lat="44.85865" lon="5.79373">
        <ele>844.568783</ele>
        <time>2025-07-10T11:00:08.000Z</time>
      </trkpt>
      <trkpt lat="44.85864" lon="5.79371">
        <ele>844.665492</ele>
        <time>2025-07-10T11:00:09.000Z</time>
      </trkpt>
      <trkpt lat="44.85863" lon="5.79368">
        <ele>844.765649</ele>
        <time>2025-07-10T11:00:10.000Z</time>
      </trkpt>
      <trkpt lat="44.85862" lon="5.79366">
        <ele>844.869511</ele>
        <time>2025-07-10T11:00:11.000Z</time>
      </trkpt>
      <trkpt lat="44.8586" lon="5.79364">
        <ele>844.974576</ele>
        <time>2025-07-10T11:00:12.000Z</time>
      </trkpt>
      <trkpt lat="44.85859" lon="5.79362">
        <ele>845.081982</ele>
        <time>2025-07-10T11:00:13.000Z</time>
      </trkpt>
      <trkpt lat="44.85857" lon="5.79361">
        <ele>845.177019</ele>
        <time>2025-07-10T11:00:14.000Z</time>
      </trkpt>
      <trkpt lat="44.85856" lon="5.79359">
        <ele>845.265414</ele>
        <time>2025-07-10T11:00:15.000Z</time>
      </trkpt>
      <trkpt lat="44.85854" lon="5.79358">
        <ele>845.358841</ele>
        <time>2025-07-10T11:00:16.000Z</time>
      </trkpt>
      <trkpt lat="44.85852" lon="5.79357">
        <ele>845.464343</ele>
        <time>2025-07-10T11:00:17.000Z</time>
      </trkpt>
      <trkpt lat="44.8585" lon="5.79356">
        <ele>845.565281</ele>
        <time>2025-07-10T11:00:18.000Z</time>
      </trkpt>
      <trkpt lat="44.85848" lon="5.79355">
        <ele>845.68573</ele>
        <time>2025-07-10T11:00:19.000Z</time>
      </trkpt>
      <trkpt lat="44.85845" lon="5.79355">
        <ele>845.799626</ele>
        <time>2025-07-10T11:00:20.000Z</time>
      </trkpt>
      <trkpt lat="44.85843" lon="5.79354">
        <ele>845.908557</ele>
        <time>2025-07-10T11:00:21.000Z</time>
      </trkpt>
      <trkpt lat="44.85841" lon="5.79353">
        <ele>846.014059</ele>
        <time>2025-07-10T11:00:22.000Z</time>
      </trkpt>
      <trkpt lat="44.85839" lon="5.79353">
        <ele>846.12224</ele>
        <time>2025-07-10T11:00:23.000Z</time>
      </trkpt>
      <trkpt lat="44.85837" lon="5.79353">
        <ele>846.225685</ele>
        <time>2025-07-10T11:00:24.000Z</time>
      </trkpt>
      <trkpt lat="44.85835" lon="5.79353">
        <ele>846.324227</ele>
        <time>2025-07-10T11:00:25.000Z</time>
      </trkpt>
      <trkpt lat="44.85833" lon="5.79353">
        <ele>846.417608</ele>
        <time>2025-07-10T11:00:26.000Z</time>
      </trkpt>
      <trkpt lat="44.85831" lon="5.79353">
        <ele>846.521755</ele>
        <time>2025-07-10T11:00:27.000Z</time>
      </trkpt>
      <trkpt lat="44.85828" lon="5.79354">
        <ele>846.648561</ele>
        <time>2025-07-10T11:00:28.000Z</time>
      </trkpt>
      <trkpt lat="44.85826" lon="5.79355">
        <ele>846.78301</ele>
        <time>2025-07-10T11:00:29.000Z</time>
      </trkpt>
      <trkpt lat="44.85823" lon="5.79356">
        <ele>846.906667</ele>
        <time>2025-07-10T11:00:30.000Z</time>
      </trkpt>
      <trkpt lat="44.85821" lon="5.79356">
        <ele>847.025442</ele>
        <time>2025-07-10T11:00:31.000Z</time>
      </trkpt>
      <trkpt lat="44.85819" lon="5.79357">
        <ele>847.131495</ele>
        <time>2025-07-10T11:00:32.000Z</time>
      </trkpt>
      <trkpt lat="44.85817" lon="5.79358">
        <ele>847.240426</ele>
        <time>2025-07-10T11:00:33.000Z</time>
      </trkpt>
      <trkpt lat="44.85815" lon="5.79359">
        <ele>847.341365</ele>
        <time>2025-07-10T11:00:34.000Z</time>
      </trkpt>
      <trkpt lat="44.85813" lon="5.7936">
        <ele>847.441803</ele>
        <time>2025-07-10T11:00:35.000Z</time>
      </trkpt>
      <trkpt lat="44.85811" lon="5.79362">
        <ele>847.560309</ele>
        <time>2025-07-10T11:00:36.000Z</time>
      </trkpt>
      <trkpt lat="44.85809" lon="5.79364">
        <ele>847.682922</ele>
        <time>2025-07-10T11:00:37.000Z</time>
      </trkpt>
      <trkpt lat="44.85807" lon="5.79366">
        <ele>847.794245</ele>
        <time>2025-07-10T11:00:38.000Z</time>
      </trkpt>
      <trkpt lat="44.85805" lon="5.79367">
        <ele>847.905569</ele>
        <time>2025-07-10T11:00:39.000Z</time>
      </trkpt>
      <trkpt lat="44.85803" lon="5.79369">
        <ele>848.002314</ele>
        <time>2025-07-10T11:00:40.000Z</time>
      </trkpt>
      <trkpt lat="44.85802" lon="5.79369">
        <ele>848.090391</ele>
        <time>2025-07-10T11:00:41.000Z</time>
      </trkpt>
      <trkpt lat="44.858" lon="5.7937">
        <ele>848.164895</ele>
        <time>2025-07-10T11:00:42.000Z</time>
      </trkpt>
      <trkpt lat="44.85799" lon="5.79372">
        <ele>848.247437</ele>
        <time>2025-07-10T11:00:43.000Z</time>
      </trkpt>
      <trkpt lat="44.85798" lon="5.79373">
        <ele>848.326196</ele>
        <time>2025-07-10T11:00:44.000Z</time>
      </trkpt>
      <trkpt lat="44.85796" lon="5.79375">
        <ele>848.413316</ele>
        <time>2025-07-10T11:00:45.000Z</time>
      </trkpt>
      <trkpt lat="44.85795" lon="5.79376">
        <ele>848.492075</ele>
        <time>2025-07-10T11:00:46.000Z</time>
      </trkpt>
      <trkpt lat="44.85793" lon="5.79377">
        <ele>848.587112</ele>
        <time>2025-07-10T11:00:47.000Z</time>
      </trkpt>
      <trkpt lat="44.85791" lon="5.79379">
        <ele>848.707203</ele>
        <time>2025-07-10T11:00:48.000Z</time>
      </trkpt>
      <trkpt lat="44.85789" lon="5.7938">
        <ele>848.80505</ele>
        <time>2025-07-10T11:00:49.000Z</time>
      </trkpt>
      <trkpt lat="44.85788" lon="5.79381">
        <ele>848.893602</ele>
        <time>2025-07-10T11:00:50.000Z</time>
      </trkpt>
      <trkpt lat="44.85786" lon="5.79383">
        <ele>848.986137</ele>
        <time>2025-07-10T11:00:51.000Z</time>
      </trkpt>
      <trkpt lat="44.85785" lon="5.79384">
        <ele>849.078671</ele>
        <time>2025-07-10T11:00:52.000Z</time>
      </trkpt>
      <trkpt lat="44.85783" lon="5.79386">
        <ele>849.177116</ele>
        <time>2025-07-10T11:00:53.000Z</time>
      </trkpt>
      <trkpt lat="44.85781" lon="5.79387">
        <ele>849.273526</ele>
        <time>2025-07-10T11:00:54.000Z</time>
      </trkpt>
      <trkpt lat="44.85779" lon="5.79388">
        <ele>849.36405</ele>
        <time>2025-07-10T11:00:55.000Z</time>
      </trkpt>
      <trkpt lat="44.85778" lon="5.79389">
        <ele>849.457908</ele>
        <time>2025-07-10T11:00:56.000Z</time>
      </trkpt>
      <trkpt lat="44.85776" lon="5.7939">
        <ele>849.551766</ele>
        <time>2025-07-10T11:00:57.000Z</time>
      </trkpt>
      <trkpt lat="44.85774" lon="5.79391">
        <ele>849.635195</ele>
        <time>2025-07-10T11:00:58.000Z</time>
      </trkpt>
      <trkpt lat="44.85772" lon="5.79391">
        <ele>849.730187</ele>
        <time>2025-07-10T11:00:59.000Z</time>
      </trkpt>
      <trkpt lat="44.8577" lon="5.79391">
        <ele>849.823827</ele>
        <time>2025-07-10T11:01:00.000Z</time>
      </trkpt>
      <trkpt lat="44.85768" lon="5.79391">
        <ele>849.927096</ele>
        <time>2025-07-10T11:01:01.000Z</time>
      </trkpt>
      <trkpt lat="44.85766" lon="5.79392">
        <ele>850.035277</ele>
        <time>2025-07-10T11:01:02.000Z</time>
      </trkpt>
      <trkpt lat="44.85764" lon="5.79391">
        <ele>850.138546</ele>
        <time>2025-07-10T11:01:03.000Z</time>
      </trkpt>
      <trkpt lat="44.85762" lon="5.79391">
        <ele>850.231927</ele>
        <time>2025-07-10T11:01:04.000Z</time>
      </trkpt>
      <trkpt lat="44.8576" lon="5.79391">
        <ele>850.330469</ele>
        <time>2025-07-10T11:01:05.000Z</time>
      </trkpt>
      <trkpt lat="44.85758" lon="5.79391">
        <ele>850.433679</ele>
        <time>2025-07-10T11:01:06.000Z</time>
      </trkpt>
      <trkpt lat="44.85756" lon="5.79391">
        <ele>850.52732</ele>
        <time>2025-07-10T11:01:07.000Z</time>
      </trkpt>
      <trkpt lat="44.85754" lon="5.79391">
        <ele>850.631466</ele>
        <time>2025-07-10T11:01:08.000Z</time>
      </trkpt>
      <trkpt lat="44.85752" lon="5.7939">
        <ele>850.744988</ele>
        <time>2025-07-10T11:01:09.000Z</time>
      </trkpt>
      <trkpt lat="44.85749" lon="5.7939">
        <ele>850.863763</ele>
        <time>2025-07-10T11:01:10.000Z</time>
      </trkpt>
      <trkpt lat="44.85747" lon="5.79389">
        <ele>850.969815</ele>
        <time>2025-07-10T11:01:11.000Z</time>
      </trkpt>
      <trkpt lat="44.85745" lon="5.79389">
        <ele>851.069094</ele>
        <time>2025-07-10T11:01:12.000Z</time>
      </trkpt>
      <trkpt lat="44.85743" lon="5.79388">
        <ele>851.188328</ele>
        <time>2025-07-10T11:01:13.000Z</time>
      </trkpt>
      <trkpt lat="44.8574" lon="5.79388">
        <ele>851.308777</ele>
        <time>2025-07-10T11:01:14.000Z</time>
      </trkpt>
      <trkpt lat="44.85738" lon="5.79387">
        <ele>851.420436</ele>
        <time>2025-07-10T11:01:15.000Z</time>
      </trkpt>
      <trkpt lat="44.85736" lon="5.79387">
        <ele>851.529065</ele>
        <time>2025-07-10T11:01:16.000Z</time>
      </trkpt>
      <trkpt lat="44.85734" lon="5.79387">
        <ele>851.632276</ele>
        <time>2025-07-10T11:01:17.000Z</time>
      </trkpt>
      <trkpt lat="44.85732" lon="5.79387">
        <ele>851.752725</ele>
        <time>2025-07-10T11:01:18.000Z</time>
      </trkpt>
      <trkpt lat="44.85729" lon="5.79388">
        <ele>851.865304</ele>
        <time>2025-07-10T11:01:19.000Z</time>
      </trkpt>
      <trkpt lat="44.85727" lon="5.79388">
        <ele>851.963662</ele>
        <time>2025-07-10T11:01:20.000Z</time>
      </trkpt>
      <trkpt lat="44.85725" lon="5.79388">
        <ele>852.071843</ele>
        <time>2025-07-10T11:01:21.000Z</time>
      </trkpt>
      <trkpt lat="44.85723" lon="5.79388">
        <ele>852.175112</ele>
        <time>2025-07-10T11:01:22.000Z</time>
      </trkpt>
      <trkpt lat="44.85721" lon="5.79388">
        <ele>852.278322</ele>
        <time>2025-07-10T11:01:23.000Z</time>
      </trkpt>
      <trkpt lat="44.85719" lon="5.79388">
        <ele>852.386671</ele>
        <time>2025-07-10T11:01:24.000Z</time>
      </trkpt>
      <trkpt lat="44.85716" lon="5.79389">
        <ele>852.500567</ele>
        <time>2025-07-10T11:01:25.000Z</time>
      </trkpt>
      <trkpt lat="44.85714" lon="5.7939">
        <ele>852.615282</ele>
        <time>2025-07-10T11:01:26.000Z</time>
      </trkpt>
      <trkpt lat="44.85712" lon="5.79391">
        <ele>852.716221</ele>
        <time>2025-07-10T11:01:27.000Z</time>
      </trkpt>
      <trkpt lat="44.8571" lon="5.79392">
        <ele>852.824449</ele>
        <time>2025-07-10T11:01:28.000Z</time>
      </trkpt>
      <trkpt lat="44.85708" lon="5.79394">
        <ele>852.931458</ele>
        <time>2025-07-10T11:01:29.000Z</time>
      </trkpt>
      <trkpt lat="44.85707" lon="5.79395">
        <ele>853.031897</ele>
        <time>2025-07-10T11:01:30.000Z</time>
      </trkpt>
      <trkpt lat="44.85705" lon="5.79397">
        <ele>853.131283</ele>
        <time>2025-07-10T11:01:31.000Z</time>
      </trkpt>
      <trkpt lat="44.85703" lon="5.79398">
        <ele>853.242639</ele>
        <time>2025-07-10T11:01:32.000Z</time>
      </trkpt>
      <trkpt lat="44.85701" lon="5.79399">
        <ele>853.322931</ele>
        <time>2025-07-10T11:01:33.000Z</time>
      </trkpt>
      <trkpt lat="44.85699" lon="5.794">
        <ele>853.371594</ele>
        <time>2025-07-10T11:01:34.000Z</time>
      </trkpt>
      <trkpt lat="44.85697" lon="5.79402">
        <ele>853.420256</ele>
        <time>2025-07-10T11:01:35.000Z</time>
      </trkpt>
      <trkpt lat="44.85696" lon="5.79403">
        <ele>853.466698</ele>
        <time>2025-07-10T11:01:36.000Z</time>
      </trkpt>
      <trkpt lat="44.85694" lon="5.79404">
        <ele>853.516398</ele>
        <time>2025-07-10T11:01:37.000Z</time>
      </trkpt>
      <trkpt lat="44.85692" lon="5.79405">
        <ele>853.565614</ele>
        <time>2025-07-10T11:01:38.000Z</time>
      </trkpt>
      <trkpt lat="44.85689" lon="5.79405">
        <ele>853.617575</ele>
        <time>2025-07-10T11:01:39.000Z</time>
      </trkpt>
      <trkpt lat="44.85687" lon="5.79406">
        <ele>853.670968</ele>
        <time>2025-07-10T11:01:40.000Z</time>
      </trkpt>
      <trkpt lat="44.85685" lon="5.79407">
        <ele>853.728989</ele>
        <time>2025-07-10T11:01:41.000Z</time>
      </trkpt>
      <trkpt lat="44.85683" lon="5.79408">
        <ele>853.785497</ele>
        <time>2025-07-10T11:01:42.000Z</time>
      </trkpt>
      <trkpt lat="44.8568" lon="5.79409">
        <ele>853.845241</ele>
        <time>2025-07-10T11:01:43.000Z</time>
      </trkpt>
      <trkpt lat="44.85678" lon="5.7941">
        <ele>853.899471</ele>
        <time>2025-07-10T11:01:44.000Z</time>
      </trkpt>
      <trkpt lat="44.85676" lon="5.7941">
        <ele>853.955176</ele>
        <time>2025-07-10T11:01:45.000Z</time>
      </trkpt>
      <trkpt lat="44.85673" lon="5.79411">
        <ele>854.014743</ele>
        <time>2025-07-10T11:01:46.000Z</time>
      </trkpt>
      <trkpt lat="44.85671" lon="5.79412">
        <ele>854.077744</ele>
        <time>2025-07-10T11:01:47.000Z</time>
      </trkpt>
      <trkpt lat="44.85668" lon="5.79412">
        <ele>854.135765</ele>
        <time>2025-07-10T11:01:48.000Z</time>
      </trkpt>
      <trkpt lat="44.85666" lon="5.79413">
        <ele>854.191848</ele>
        <time>2025-07-10T11:01:49.000Z</time>
      </trkpt>
      <trkpt lat="44.85663" lon="5.79414">
        <ele>854.254368</ele>
        <time>2025-07-10T11:01:50.000Z</time>
      </trkpt>
      <trkpt lat="44.85661" lon="5.79415">
        <ele>854.314709</ele>
        <time>2025-07-10T11:01:51.000Z</time>
      </trkpt>
      <trkpt lat="44.85658" lon="5.79416">
        <ele>854.376833</ele>
        <time>2025-07-10T11:01:52.000Z</time>
      </trkpt>
      <trkpt lat="44.85656" lon="5.79416">
        <ele>854.439206</ele>
        <time>2025-07-10T11:01:53.000Z</time>
      </trkpt>
      <trkpt lat="44.85653" lon="5.79417">
        <ele>854.499897</ele>
        <time>2025-07-10T11:01:54.000Z</time>
      </trkpt>
      <trkpt lat="44.85651" lon="5.79418">
        <ele>854.55964</ele>
        <time>2025-07-10T11:01:55.000Z</time>
      </trkpt>
      <trkpt lat="44.85648" lon="5.79419">
        <ele>854.619383</ele>
        <time>2025-07-10T11:01:56.000Z</time>
      </trkpt>
      <trkpt lat="44.85646" lon="5.7942">
        <ele>854.682385</ele>
        <time>2025-07-10T11:01:57.000Z</time>
      </trkpt>
      <trkpt lat="44.85643" lon="5.79421">
        <ele>854.748473</ele>
        <time>2025-07-10T11:01:58.000Z</time>
      </trkpt>
      <trkpt lat="44.85641" lon="5.79422">
        <ele>854.808511</ele>
        <time>2025-07-10T11:01:59.000Z</time>
      </trkpt>
      <trkpt lat="44.85638" lon="5.79422">
        <ele>854.865947</ele>
        <time>2025-07-10T11:02:00.000Z</time>
      </trkpt>
      <trkpt lat="44.85636" lon="5.79423">
        <ele>854.928612</ele>
        <time>2025-07-10T11:02:01.000Z</time>
      </trkpt>
      <trkpt lat="44.85633" lon="5.79423">
        <ele>854.990985</ele>
        <time>2025-07-10T11:02:02.000Z</time>
      </trkpt>
      <trkpt lat="44.8563" lon="5.79424">
        <ele>855.053109</ele>
        <time>2025-07-10T11:02:03.000Z</time>
      </trkpt>
      <trkpt lat="44.85628" lon="5.79425">
        <ele>855.118425</ele>
        <time>2025-07-10T11:02:04.000Z</time>
      </trkpt>
      <trkpt lat="44.85625" lon="5.79425">
        <ele>855.180798</ele>
        <time>2025-07-10T11:02:05.000Z</time>
      </trkpt>
      <trkpt lat="44.85622" lon="5.79426">
        <ele>855.2438</ele>
        <time>2025-07-10T11:02:06.000Z</time>
      </trkpt>
      <trkpt lat="44.8562" lon="5.79427">
        <ele>855.308565</ele>
        <time>2025-07-10T11:02:07.000Z</time>
      </trkpt>
      <trkpt lat="44.85617" lon="5.79429">
        <ele>855.376669</ele>
        <time>2025-07-10T11:02:08.000Z</time>
      </trkpt>
      <trkpt lat="44.85614" lon="5.7943">
        <ele>855.44595</ele>
        <time>2025-07-10T11:02:09.000Z</time>
      </trkpt>
      <trkpt lat="44.85612" lon="5.79431">
        <ele>855.515283</ele>
        <time>2025-07-10T11:02:10.000Z</time>
      </trkpt>
      <trkpt lat="44.85609" lon="5.79433">
        <ele>855.591705</ele>
        <time>2025-07-10T11:02:11.000Z</time>
      </trkpt>
      <trkpt lat="44.85606" lon="5.79435">
        <ele>855.665426</ele>
        <time>2025-07-10T11:02:12.000Z</time>
      </trkpt>
      <trkpt lat="44.85603" lon="5.79436">
        <ele>855.735757</ele>
        <time>2025-07-10T11:02:13.000Z</time>
      </trkpt>
      <trkpt lat="44.856" lon="5.79438">
        <ele>855.803299</ele>
        <time>2025-07-10T11:02:14.000Z</time>
      </trkpt>
      <trkpt lat="44.85598" lon="5.79439">
        <ele>855.872</ele>
        <time>2025-07-10T11:02:15.000Z</time>
      </trkpt>
      <trkpt lat="44.85595" lon="5.79441">
        <ele>855.941333</ele>
        <time>2025-07-10T11:02:16.000Z</time>
      </trkpt>
      <trkpt lat="44.85592" lon="5.79442">
        <ele>856.006639</ele>
        <time>2025-07-10T11:02:17.000Z</time>
      </trkpt>
      <trkpt lat="44.8559" lon="5.79443">
        <ele>856.07002</ele>
        <time>2025-07-10T11:02:18.000Z</time>
      </trkpt>
      <trkpt lat="44.85587" lon="5.79444">
        <ele>856.133821</ele>
        <time>2025-07-10T11:02:19.000Z</time>
      </trkpt>
      <trkpt lat="44.85585" lon="5.79445">
        <ele>856.195821</ele>
        <time>2025-07-10T11:02:20.000Z</time>
      </trkpt>
      <trkpt lat="44.85582" lon="5.79446">
        <ele>856.258901</ele>
        <time>2025-07-10T11:02:21.000Z</time>
      </trkpt>
      <trkpt lat="44.8558" lon="5.79448">
        <ele>856.323666</ele>
        <time>2025-07-10T11:02:22.000Z</time>
      </trkpt>
      <trkpt lat="44.85577" lon="5.79449">
        <ele>856.395188</ele>
        <time>2025-07-10T11:02:23.000Z</time>
      </trkpt>
      <trkpt lat="44.85574" lon="5.7945">
        <ele>856.459953</ele>
        <time>2025-07-10T11:02:24.000Z</time>
      </trkpt>
      <trkpt lat="44.85571" lon="5.79452">
        <ele>856.530283</ele>
        <time>2025-07-10T11:02:25.000Z</time>
      </trkpt>
      <trkpt lat="44.85569" lon="5.79454">
        <ele>856.602452</ele>
        <time>2025-07-10T11:02:26.000Z</time>
      </trkpt>
      <trkpt lat="44.85566" lon="5.79455">
        <ele>856.676173</ele>
        <time>2025-07-10T11:02:27.000Z</time>
      </trkpt>
      <trkpt lat="44.85563" lon="5.79456">
        <ele>856.743193</ele>
        <time>2025-07-10T11:02:28.000Z</time>
      </trkpt>
      <trkpt lat="44.8556" lon="5.79457">
        <ele>856.805858</ele>
        <time>2025-07-10T11:02:29.000Z</time>
      </trkpt>
      <trkpt lat="44.85558" lon="5.79458">
        <ele>856.870569</ele>
        <time>2025-07-10T11:02:30.000Z</time>
      </trkpt>
      <trkpt lat="44.85555" lon="5.79458">
        <ele>856.939736</ele>
        <time>2025-07-10T11:02:31.000Z</time>
      </trkpt>
      <trkpt lat="44.85552" lon="5.79459">
        <ele>857.014346</ele>
        <time>2025-07-10T11:02:32.000Z</time>
      </trkpt>
      <trkpt lat="44.85549" lon="5.7946">
        <ele>857.088956</ele>
        <time>2025-07-10T11:02:33.000Z</time>
      </trkpt>
      <trkpt lat="44.85545" lon="5.79461">
        <ele>857.164243</ele>
        <time>2025-07-10T11:02:34.000Z</time>
      </trkpt>
      <trkpt lat="44.85542" lon="5.79462">
        <ele>857.242219</ele>
        <time>2025-07-10T11:02:35.000Z</time>
      </trkpt>
      <trkpt lat="44.85539" lon="5.79463">
        <ele>857.317897</ele>
        <time>2025-07-10T11:02:36.000Z</time>
      </trkpt>
      <trkpt lat="44.85536" lon="5.79464">
        <ele>857.391282</ele>
        <time>2025-07-10T11:02:37.000Z</time>
      </trkpt>
      <trkpt lat="44.85533" lon="5.79465">
        <ele>857.470554</ele>
        <time>2025-07-10T11:02:38.000Z</time>
      </trkpt>
      <trkpt lat="44.8553" lon="5.79465">
        <ele>857.546979</ele>
        <time>2025-07-10T11:02:39.000Z</time>
      </trkpt>
      <trkpt lat="44.85526" lon="5.79466">
        <ele>857.596909</ele>
        <time>2025-07-10T11:02:40.000Z</time>
      </trkpt>
      <trkpt lat="44.85523" lon="5.79467">
        <ele>857.639336</ele>
        <time>2025-07-10T11:02:41.000Z</time>
      </trkpt>
      <trkpt lat="44.8552" lon="5.79467">
        <ele>857.68329</ele>
        <time>2025-07-10T11:02:42.000Z</time>
      </trkpt>
      <trkpt lat="44.85516" lon="5.79468">
        <ele>857.727104</ele>
        <time>2025-07-10T11:02:43.000Z</time>
      </trkpt>
      <trkpt lat="44.85513" lon="5.79469">
        <ele>857.771391</ele>
        <time>2025-07-10T11:02:44.000Z</time>
      </trkpt>
      <trkpt lat="44.85509" lon="5.7947">
        <ele>857.81425</ele>
        <time>2025-07-10T11:02:45.000Z</time>
      </trkpt>
      <trkpt lat="44.85506" lon="5.79471">
        <ele>857.85873</ele>
        <time>2025-07-10T11:02:46.000Z</time>
      </trkpt>
      <trkpt lat="44.85503" lon="5.79472">
        <ele>857.90177</ele>
        <time>2025-07-10T11:02:47.000Z</time>
      </trkpt>
      <trkpt lat="44.855" lon="5.79473">
        <ele>857.943377</ele>
        <time>2025-07-10T11:02:48.000Z</time>
      </trkpt>
      <trkpt lat="44.85496" lon="5.79474">
        <ele>857.985376</ele>
        <time>2025-07-10T11:02:49.000Z</time>
      </trkpt>
      <trkpt lat="44.85493" lon="5.79475">
        <ele>858.027838</ele>
        <time>2025-07-10T11:02:50.000Z</time>
      </trkpt>
      <trkpt lat="44.8549" lon="5.79477">
        <ele>858.07178</ele>
        <time>2025-07-10T11:02:51.000Z</time>
      </trkpt>
      <trkpt lat="44.85487" lon="5.79478">
        <ele>858.11599</ele>
        <time>2025-07-10T11:02:52.000Z</time>
      </trkpt>
      <trkpt lat="44.85483" lon="5.79479">
        <ele>858.156751</ele>
        <time>2025-07-10T11:02:53.000Z</time>
      </trkpt>
      <trkpt lat="44.8548" lon="5.79481">
        <ele>858.19799</ele>
        <time>2025-07-10T11:02:54.000Z</time>
      </trkpt>
      <trkpt lat="44.85477" lon="5.79482">
        <ele>858.237752</ele>
        <time>2025-07-10T11:02:55.000Z</time>
      </trkpt>
      <trkpt lat="44.85474" lon="5.79483">
        <ele>858.277514</ele>
        <time>2025-07-10T11:02:56.000Z</time>
      </trkpt>
      <trkpt lat="44.85471" lon="5.79484">
        <ele>858.316624</ele>
        <time>2025-07-10T11:02:57.000Z</time>
      </trkpt>
      <trkpt lat="44.85468" lon="5.79485">
        <ele>858.357385</ele>
        <time>2025-07-10T11:02:58.000Z</time>
      </trkpt>
      <trkpt lat="44.85465" lon="5.79486">
        <ele>858.397403</ele>
        <time>2025-07-10T11:02:59.000Z</time>
      </trkpt>
      <trkpt lat="44.85462" lon="5.79488">
        <ele>858.437696</ele>
        <time>2025-07-10T11:03:00.000Z</time>
      </trkpt>
      <trkpt lat="44.85459" lon="5.79489">
        <ele>858.480694</ele>
        <time>2025-07-10T11:03:01.000Z</time>
      </trkpt>
      <trkpt lat="44.85456" lon="5.79491">
        <ele>858.521934</ele>
        <time>2025-07-10T11:03:02.000Z</time>
      </trkpt>
      <trkpt lat="44.85453" lon="5.79492">
        <ele>858.561459</ele>
        <time>2025-07-10T11:03:03.000Z</time>
      </trkpt>
      <trkpt lat="44.8545" lon="5.79493">
        <ele>858.602008</ele>
        <time>2025-07-10T11:03:04.000Z</time>
      </trkpt>
      <trkpt lat="44.85447" lon="5.79494">
        <ele>858.642366</ele>
        <time>2025-07-10T11:03:05.000Z</time>
      </trkpt>
      <trkpt lat="44.85444" lon="5.79495">
        <ele>858.68416</ele>
        <time>2025-07-10T11:03:06.000Z</time>
      </trkpt>
      <trkpt lat="44.8544" lon="5.79496">
        <ele>858.725954</ele>
        <time>2025-07-10T11:03:07.000Z</time>
      </trkpt>
      <trkpt lat="44.85437" lon="5.79497">
        <ele>858.768175</ele>
        <time>2025-07-10T11:03:08.000Z</time>
      </trkpt>
      <trkpt lat="44.85434" lon="5.79498">
        <ele>858.810638</ele>
        <time>2025-07-10T11:03:09.000Z</time>
      </trkpt>
      <trkpt lat="44.85431" lon="5.79499">
        <ele>858.85336</ele>
        <time>2025-07-10T11:03:10.000Z</time>
      </trkpt>
      <trkpt lat="44.85428" lon="5.79501">
        <ele>858.896082</ele>
        <time>2025-07-10T11:03:11.000Z</time>
      </trkpt>
      <trkpt lat="44.85424" lon="5.79502">
        <ele>858.93908</ele>
        <time>2025-07-10T11:03:12.000Z</time>
      </trkpt>
      <trkpt lat="44.85421" lon="5.79504">
        <ele>858.983022</ele>
        <time>2025-07-10T11:03:13.000Z</time>
      </trkpt>
      <trkpt lat="44.85418" lon="5.79505">
        <ele>859.027713</ele>
        <time>2025-07-10T11:03:14.000Z</time>
      </trkpt>
      <trkpt lat="44.85414" lon="5.79506">
        <ele>859.071402</ele>
        <time>2025-07-10T11:03:15.000Z</time>
      </trkpt>
      <trkpt lat="44.85411" lon="5.79507">
        <ele>859.113624</ele>
        <time>2025-07-10T11:03:16.000Z</time>
      </trkpt>
      <trkpt lat="44.85408" lon="5.79508">
        <ele>859.155418</ele>
        <time>2025-07-10T11:03:17.000Z</time>
      </trkpt>
      <trkpt lat="44.85405" lon="5.7951">
        <ele>859.198656</ele>
        <time>2025-07-10T11:03:18.000Z</time>
      </trkpt>
      <trkpt lat="44.85401" lon="5.79511">
        <ele>859.241895</ele>
        <time>2025-07-10T11:03:19.000Z</time>
      </trkpt>
      <trkpt lat="44.85398" lon="5.79512">
        <ele>859.284616</ele>
        <time>2025-07-10T11:03:20.000Z</time>
      </trkpt>
      <trkpt lat="44.85395" lon="5.79513">
        <ele>859.326615</ele>
        <time>2025-07-10T11:03:21.000Z</time>
      </trkpt>
      <trkpt lat="44.85392" lon="5.79514">
        <ele>859.368613</ele>
        <time>2025-07-10T11:03:22.000Z</time>
      </trkpt>
      <trkpt lat="44.85389" lon="5.79515">
        <ele>859.409604</ele>
        <time>2025-07-10T11:03:23.000Z</time>
      </trkpt>
      <trkpt lat="44.85386" lon="5.79517">
        <ele>859.450595</ele>
        <time>2025-07-10T11:03:24.000Z</time>
      </trkpt>
      <trkpt lat="44.85382" lon="5.79518">
        <ele>859.491585</ele>
        <time>2025-07-10T11:03:25.000Z</time>
      </trkpt>
      <trkpt lat="44.85379" lon="5.79519">
        <ele>859.532135</ele>
        <time>2025-07-10T11:03:26.000Z</time>
      </trkpt>
      <trkpt lat="44.85376" lon="5.7952">
        <ele>859.574357</ele>
        <time>2025-07-10T11:03:27.000Z</time>
      </trkpt>
      <trkpt lat="44.85373" lon="5.79521">
        <ele>859.617812</ele>
        <time>2025-07-10T11:03:28.000Z</time>
      </trkpt>
      <trkpt lat="44.8537" lon="5.79522">
        <ele>859.658573</ele>
        <time>2025-07-10T11:03:29.000Z</time>
      </trkpt>
      <trkpt lat="44.85366" lon="5.79523">
        <ele>859.701269</ele>
        <time>2025-07-10T11:03:30.000Z</time>
      </trkpt>
      <trkpt lat="44.85363" lon="5.79524">
        <ele>859.74226</ele>
        <time>2025-07-10T11:03:31.000Z</time>
      </trkpt>
      <trkpt lat="44.8536" lon="5.79526">
        <ele>859.785552</ele>
        <time>2025-07-10T11:03:32.000Z</time>
      </trkpt>
      <trkpt lat="44.85357" lon="5.79527">
        <ele>859.827342</ele>
        <time>2025-07-10T11:03:33.000Z</time>
      </trkpt>
      <trkpt lat="44.85354" lon="5.79529">
        <ele>859.868421</ele>
        <time>2025-07-10T11:03:34.000Z</time>
      </trkpt>
      <trkpt lat="44.85351" lon="5.7953">
        <ele>859.907815</ele>
        <time>2025-07-10T11:03:35.000Z</time>
      </trkpt>
      <trkpt lat="44.85347" lon="5.79531">
        <ele>859.946864</ele>
        <time>2025-07-10T11:03:36.000Z</time>
      </trkpt>
      <trkpt lat="44.85344" lon="5.79532">
        <ele>859.985764</ele>
        <time>2025-07-10T11:03:37.000Z</time>
      </trkpt>
      <trkpt lat="44.85341" lon="5.79532">
        <ele>860.023268</ele>
        <time>2025-07-10T11:03:38.000Z</time>
      </trkpt>
      <trkpt lat="44.85338" lon="5.79533">
        <ele>860.061024</ele>
        <time>2025-07-10T11:03:39.000Z</time>
      </trkpt>
      <trkpt lat="44.85334" lon="5.79534">
        <ele>860.098781</ele>
        <time>2025-07-10T11:03:40.000Z</time>
      </trkpt>
      <trkpt lat="44.85331" lon="5.79535">
        <ele>860.136689</ele>
        <time>2025-07-10T11:03:41.000Z</time>
      </trkpt>
      <trkpt lat="44.85328" lon="5.79536">
        <ele>860.175738</ele>
        <time>2025-07-10T11:03:42.000Z</time>
      </trkpt>
      <trkpt lat="44.85325" lon="5.79537">
        <ele>860.214951</ele>
        <time>2025-07-10T11:03:43.000Z</time>
      </trkpt>
      <trkpt lat="44.85321" lon="5.79537">
        <ele>860.254</ele>
        <time>2025-07-10T11:03:44.000Z</time>
      </trkpt>
      <trkpt lat="44.85318" lon="5.79538">
        <ele>860.292479</ele>
        <time>2025-07-10T11:03:45.000Z</time>
      </trkpt>
      <trkpt lat="44.85314" lon="5.79538">
        <ele>860.333275</ele>
        <time>2025-07-10T11:03:46.000Z</time>
      </trkpt>
      <trkpt lat="44.85311" lon="5.79539">
        <ele>860.372912</ele>
        <time>2025-07-10T11:03:47.000Z</time>
      </trkpt>
      <trkpt lat="44.85308" lon="5.79539">
        <ele>860.413874</ele>
        <time>2025-07-10T11:03:48.000Z</time>
      </trkpt>
      <trkpt lat="44.85304" lon="5.7954">
        <ele>860.453588</ele>
        <time>2025-07-10T11:03:49.000Z</time>
      </trkpt>
      <trkpt lat="44.85301" lon="5.7954">
        <ele>860.494458</ele>
        <time>2025-07-10T11:03:50.000Z</time>
      </trkpt>
      <trkpt lat="44.85297" lon="5.79541">
        <ele>860.537641</ele>
        <time>2025-07-10T11:03:51.000Z</time>
      </trkpt>
      <trkpt lat="44.85293" lon="5.79541">
        <ele>860.578436</ele>
        <time>2025-07-10T11:03:52.000Z</time>
      </trkpt>
      <trkpt lat="44.8529" lon="5.79541">
        <ele>860.621493</ele>
        <time>2025-07-10T11:03:53.000Z</time>
      </trkpt>
      <trkpt lat="44.85286" lon="5.79542">
        <ele>860.663519</ele>
        <time>2025-07-10T11:03:54.000Z</time>
      </trkpt>
      <trkpt lat="44.85283" lon="5.79542">
        <ele>860.705351</ele>
        <time>2025-07-10T11:03:55.000Z</time>
      </trkpt>
      <trkpt lat="44.85279" lon="5.79542">
        <ele>860.747248</ele>
        <time>2025-07-10T11:03:56.000Z</time>
      </trkpt>
      <trkpt lat="44.85275" lon="5.79543">
        <ele>860.789274</ele>
        <time>2025-07-10T11:03:57.000Z</time>
      </trkpt>
      <trkpt lat="44.85272" lon="5.79543">
        <ele>860.83233</ele>
        <time>2025-07-10T11:03:58.000Z</time>
      </trkpt>
      <trkpt lat="44.85268" lon="5.79543">
        <ele>860.874162</ele>
        <time>2025-07-10T11:03:59.000Z</time>
      </trkpt>
      <trkpt lat="44.85264" lon="5.79544">
        <ele>860.916116</ele>
        <time>2025-07-10T11:04:00.000Z</time>
      </trkpt>
      <trkpt lat="44.85261" lon="5.79544">
        <ele>860.958231</ele>
        <time>2025-07-10T11:04:01.000Z</time>
      </trkpt>
      <trkpt lat="44.85257" lon="5.79545">
        <ele>861.000346</ele>
        <time>2025-07-10T11:04:02.000Z</time>
      </trkpt>
      <trkpt lat="44.85254" lon="5.79546">
        <ele>861.041833</ele>
        <time>2025-07-10T11:04:03.000Z</time>
      </trkpt>
      <trkpt lat="44.8525" lon="5.79547">
        <ele>861.084173</ele>
        <time>2025-07-10T11:04:04.000Z</time>
      </trkpt>
      <trkpt lat="44.85247" lon="5.79547">
        <ele>861.125366</ele>
        <time>2025-07-10T11:04:05.000Z</time>
      </trkpt>
      <trkpt lat="44.85243" lon="5.79548">
        <ele>861.166236</ele>
        <time>2025-07-10T11:04:06.000Z</time>
      </trkpt>
      <trkpt lat="44.8524" lon="5.79548">
        <ele>861.208189</ele>
        <time>2025-07-10T11:04:07.000Z</time>
      </trkpt>
      <trkpt lat="44.85236" lon="5.79549">
        <ele>861.247998</ele>
        <time>2025-07-10T11:04:08.000Z</time>
      </trkpt>
      <trkpt lat="44.85233" lon="5.7955">
        <ele>861.289066</ele>
        <time>2025-07-10T11:04:09.000Z</time>
      </trkpt>
      <trkpt lat="44.85229" lon="5.7955">
        <ele>861.329113</ele>
        <time>2025-07-10T11:04:10.000Z</time>
      </trkpt>
      <trkpt lat="44.85226" lon="5.79551">
        <ele>861.368326</ele>
        <time>2025-07-10T11:04:11.000Z</time>
      </trkpt>
      <trkpt lat="44.85223" lon="5.79552">
        <ele>861.40804</ele>
        <time>2025-07-10T11:04:12.000Z</time>
      </trkpt>
      <trkpt lat="44.85219" lon="5.79552">
        <ele>861.44891</ele>
        <time>2025-07-10T11:04:13.000Z</time>
      </trkpt>
      <trkpt lat="44.85215" lon="5.79553">
        <ele>861.490807</ele>
        <time>2025-07-10T11:04:14.000Z</time>
      </trkpt>
      <trkpt lat="44.85212" lon="5.79553">
        <ele>861.531677</ele>
        <time>2025-07-10T11:04:15.000Z</time>
      </trkpt>
      <trkpt lat="44.85208" lon="5.79554">
        <ele>861.572746</ele>
        <time>2025-07-10T11:04:16.000Z</time>
      </trkpt>
      <trkpt lat="44.85205" lon="5.79555">
        <ele>861.614861</ele>
        <time>2025-07-10T11:04:17.000Z</time>
      </trkpt>
      <trkpt lat="44.85201" lon="5.79555">
        <ele>861.655822</ele>
        <time>2025-07-10T11:04:18.000Z</time>
      </trkpt>
      <trkpt lat="44.85198" lon="5.79556">
        <ele>861.698934</ele>
        <time>2025-07-10T11:04:19.000Z</time>
      </trkpt>
      <trkpt lat="44.85194" lon="5.79556">
        <ele>861.742117</ele>
        <time>2025-07-10T11:04:20.000Z</time>
      </trkpt>
      <trkpt lat="44.8519" lon="5.79557">
        <ele>861.786456</ele>
        <time>2025-07-10T11:04:21.000Z</time>
      </trkpt>
      <trkpt lat="44.85186" lon="5.79557">
        <ele>861.831952</ele>
        <time>2025-07-10T11:04:22.000Z</time>
      </trkpt>
      <trkpt lat="44.85182" lon="5.79558">
        <ele>861.87753</ele>
        <time>2025-07-10T11:04:23.000Z</time>
      </trkpt>
      <trkpt lat="44.85179" lon="5.79558">
        <ele>861.921953</ele>
        <time>2025-07-10T11:04:24.000Z</time>
      </trkpt>
      <trkpt lat="44.85175" lon="5.79559">
        <ele>861.975122</ele>
        <time>2025-07-10T11:04:25.000Z</time>
      </trkpt>
      <trkpt lat="44.85171" lon="5.79559">
        <ele>862.037031</ele>
        <time>2025-07-10T11:04:26.000Z</time>
      </trkpt>
      <trkpt lat="44.85167" lon="5.7956">
        <ele>862.099078</ele>
        <time>2025-07-10T11:04:27.000Z</time>
      </trkpt>
      <trkpt lat="44.85164" lon="5.79561">
        <ele>862.156485</ele>
        <time>2025-07-10T11:04:28.000Z</time>
      </trkpt>
      <trkpt lat="44.8516" lon="5.79562">
        <ele>862.21549</ele>
        <time>2025-07-10T11:04:29.000Z</time>
      </trkpt>
      <trkpt lat="44.85156" lon="5.79562">
        <ele>862.274182</ele>
        <time>2025-07-10T11:04:30.000Z</time>
      </trkpt>
      <trkpt lat="44.85153" lon="5.79563">
        <ele>862.33275</ele>
        <time>2025-07-10T11:04:31.000Z</time>
      </trkpt>
      <trkpt lat="44.85149" lon="5.79564">
        <ele>862.391755</ele>
        <time>2025-07-10T11:04:32.000Z</time>
      </trkpt>
      <trkpt lat="44.85146" lon="5.79564">
        <ele>862.450593</ele>
        <time>2025-07-10T11:04:33.000Z</time>
      </trkpt>
      <trkpt lat="44.85142" lon="5.79565">
        <ele>862.512289</ele>
        <time>2025-07-10T11:04:34.000Z</time>
      </trkpt>
      <trkpt lat="44.85138" lon="5.79565">
        <ele>862.572293</ele>
        <time>2025-07-10T11:04:35.000Z</time>
      </trkpt>
      <trkpt lat="44.85134" lon="5.79565">
        <ele>862.634084</ele>
        <time>2025-07-10T11:04:36.000Z</time>
      </trkpt>
      <trkpt lat="44.85131" lon="5.79566">
        <ele>862.695876</ele>
        <time>2025-07-10T11:04:37.000Z</time>
      </trkpt>
      <trkpt lat="44.85127" lon="5.79566">
        <ele>862.757668</ele>
        <time>2025-07-10T11:04:38.000Z</time>
      </trkpt>
      <trkpt lat="44.85123" lon="5.79567">
        <ele>862.821186</ele>
        <time>2025-07-10T11:04:39.000Z</time>
      </trkpt>
      <trkpt lat="44.85119" lon="5.79568">
        <ele>862.884704</ele>
        <time>2025-07-10T11:04:40.000Z</time>
      </trkpt>
      <trkpt lat="44.85115" lon="5.79568">
        <ele>862.948222</ele>
        <time>2025-07-10T11:04:41.000Z</time>
      </trkpt>
      <trkpt lat="44.85111" lon="5.79569">
        <ele>863.011875</ele>
        <time>2025-07-10T11:04:42.000Z</time>
      </trkpt>
      <trkpt lat="44.85107" lon="5.79569">
        <ele>863.0768</ele>
        <time>2025-07-10T11:04:43.000Z</time>
      </trkpt>
      <trkpt lat="44.85103" lon="5.7957">
        <ele>863.141816</ele>
        <time>2025-07-10T11:04:44.000Z</time>
      </trkpt>
      <trkpt lat="44.85099" lon="5.79571">
        <ele>863.205624</ele>
        <time>2025-07-10T11:04:45.000Z</time>
      </trkpt>
      <trkpt lat="44.85095" lon="5.79571">
        <ele>863.269277</ele>
        <time>2025-07-10T11:04:46.000Z</time>
      </trkpt>
      <trkpt lat="44.85091" lon="5.79572">
        <ele>863.333085</ele>
        <time>2025-07-10T11:04:47.000Z</time>
      </trkpt>
      <trkpt lat="44.85087" lon="5.79573">
        <ele>863.398495</ele>
        <time>2025-07-10T11:04:48.000Z</time>
      </trkpt>
      <trkpt lat="44.85084" lon="5.79574">
        <ele>863.460542</ele>
        <time>2025-07-10T11:04:49.000Z</time>
      </trkpt>
      <trkpt lat="44.8508" lon="5.79574">
        <ele>863.523852</ele>
        <time>2025-07-10T11:04:50.000Z</time>
      </trkpt>
      <trkpt lat="44.85076" lon="5.79575">
        <ele>863.584294</ele>
        <time>2025-07-10T11:04:51.000Z</time>
      </trkpt>
      <trkpt lat="44.85072" lon="5.79575">
        <ele>863.644594</ele>
        <time>2025-07-10T11:04:52.000Z</time>
      </trkpt>
      <trkpt lat="44.85069" lon="5.79576">
        <ele>863.704675</ele>
        <time>2025-07-10T11:04:53.000Z</time>
      </trkpt>
      <trkpt lat="44.85065" lon="5.79576">
        <ele>863.766296</ele>
        <time>2025-07-10T11:04:54.000Z</time>
      </trkpt>
      <trkpt lat="44.85061" lon="5.79576">
        <ele>863.826377</ele>
        <time>2025-07-10T11:04:55.000Z</time>
      </trkpt>
      <trkpt lat="44.85057" lon="5.79577">
        <ele>863.886459</ele>
        <time>2025-07-10T11:04:56.000Z</time>
      </trkpt>
      <trkpt lat="44.85054" lon="5.79577">
        <ele>863.946638</ele>
        <time>2025-07-10T11:04:57.000Z</time>
      </trkpt>
      <trkpt lat="44.8505" lon="5.79578">
        <ele>864.00533</ele>
        <time>2025-07-10T11:04:58.000Z</time>
      </trkpt>
      <trkpt lat="44.85047" lon="5.79579">
        <ele>864.064022</ele>
        <time>2025-07-10T11:04:59.000Z</time>
      </trkpt>
      <trkpt lat="44.85043" lon="5.79579">
        <ele>864.122714</ele>
        <time>2025-07-10T11:05:00.000Z</time>
      </trkpt>
      <trkpt lat="44.85039" lon="5.7958">
        <ele>864.181406</ele>
        <time>2025-07-10T11:05:01.000Z</time>
      </trkpt>
      <trkpt lat="44.85036" lon="5.7958">
        <ele>864.239974</ele>
        <time>2025-07-10T11:05:02.000Z</time>
      </trkpt>
      <trkpt lat="44.85032" lon="5.79581">
        <ele>864.300274</ele>
        <time>2025-07-10T11:05:03.000Z</time>
      </trkpt>
      <trkpt lat="44.85028" lon="5.79582">
        <ele>864.359112</ele>
        <time>2025-07-10T11:05:04.000Z</time>
      </trkpt>
      <trkpt lat="44.85025" lon="5.79582">
        <ele>864.419554</ele>
        <time>2025-07-10T11:05:05.000Z</time>
      </trkpt>
      <trkpt lat="44.85021" lon="5.79583">
        <ele>864.478391</ele>
        <time>2025-07-10T11:05:06.000Z</time>
      </trkpt>
      <trkpt lat="44.85018" lon="5.79583">
        <ele>864.53696</ele>
        <time>2025-07-10T11:05:07.000Z</time>
      </trkpt>
      <trkpt lat="44.85014" lon="5.79584">
        <ele>864.597401</ele>
        <time>2025-07-10T11:05:08.000Z</time>
      </trkpt>
      <trkpt lat="44.8501" lon="5.79585">
        <ele>864.656407</ele>
        <time>2025-07-10T11:05:09.000Z</time>
      </trkpt>
      <trkpt lat="44.85007" lon="5.79586">
        <ele>864.713491</ele>
        <time>2025-07-10T11:05:10.000Z</time>
      </trkpt>
      <trkpt lat="44.85003" lon="5.79586">
        <ele>864.772059</ele>
        <time>2025-07-10T11:05:11.000Z</time>
      </trkpt>
      <trkpt lat="44.85" lon="5.79586">
        <ele>864.827156</ele>
        <time>2025-07-10T11:05:12.000Z</time>
      </trkpt>
      <trkpt lat="44.84996" lon="5.79587">
        <ele>864.954631</ele>
        <time>2025-07-10T11:05:13.000Z</time>
      </trkpt>
      <trkpt lat="44.84993" lon="5.79587">
        <ele>865.150464</ele>
        <time>2025-07-10T11:05:14.000Z</time>
      </trkpt>
      <trkpt lat="44.84989" lon="5.79588">
        <ele>865.345835</ele>
        <time>2025-07-10T11:05:15.000Z</time>
      </trkpt>
      <trkpt lat="44.84986" lon="5.79588">
        <ele>865.535998</ele>
        <time>2025-07-10T11:05:16.000Z</time>
      </trkpt>
      <trkpt lat="44.84983" lon="5.79588">
        <ele>865.724774</ele>
        <time>2025-07-10T11:05:17.000Z</time>
      </trkpt>
      <trkpt lat="44.8498" lon="5.79588">
        <ele>865.897946</ele>
        <time>2025-07-10T11:05:18.000Z</time>
      </trkpt>
      <trkpt lat="44.84977" lon="5.79586">
        <ele>866.047974</ele>
        <time>2025-07-10T11:05:19.000Z</time>
      </trkpt>
      <trkpt lat="44.84976" lon="5.79584">
        <ele>866.18593</ele>
        <time>2025-07-10T11:05:20.000Z</time>
      </trkpt>
      <trkpt lat="44.84975" lon="5.79582">
        <ele>866.302237</ele>
        <time>2025-07-10T11:05:21.000Z</time>
      </trkpt>
      <trkpt lat="44.84974" lon="5.79579">
        <ele>866.410038</ele>
        <time>2025-07-10T11:05:22.000Z</time>
      </trkpt>
      <trkpt lat="44.84974" lon="5.79577">
        <ele>866.515541</ele>
        <time>2025-07-10T11:05:23.000Z</time>
      </trkpt>
      <trkpt lat="44.84975" lon="5.79574">
        <ele>866.632537</ele>
        <time>2025-07-10T11:05:24.000Z</time>
      </trkpt>
      <trkpt lat="44.84975" lon="5.79571">
        <ele>866.754942</ele>
        <time>2025-07-10T11:05:25.000Z</time>
      </trkpt>
      <trkpt lat="44.84976" lon="5.79568">
        <ele>866.881028</ele>
        <time>2025-07-10T11:05:26.000Z</time>
      </trkpt>
      <trkpt lat="44.84977" lon="5.79565">
        <ele>867.010735</ele>
        <time>2025-07-10T11:05:27.000Z</time>
      </trkpt>
      <trkpt lat="44.84978" lon="5.79562">
        <ele>867.134164</ele>
        <time>2025-07-10T11:05:28.000Z</time>
      </trkpt>
      <trkpt lat="44.84979" lon="5.7956">
        <ele>867.26483</ele>
        <time>2025-07-10T11:05:29.000Z</time>
      </trkpt>
      <trkpt lat="44.8498" lon="5.79557">
        <ele>867.398095</ele>
        <time>2025-07-10T11:05:30.000Z</time>
      </trkpt>
      <trkpt lat="44.84981" lon="5.79554">
        <ele>867.531359</ele>
        <time>2025-07-10T11:05:31.000Z</time>
      </trkpt>
      <trkpt lat="44.84983" lon="5.79551">
        <ele>867.664624</ele>
        <time>2025-07-10T11:05:32.000Z</time>
      </trkpt>
      <trkpt lat="44.84984" lon="5.79548">
        <ele>867.798945</ele>
        <time>2025-07-10T11:05:33.000Z</time>
      </trkpt>
      <trkpt lat="44.84984" lon="5.79545">
        <ele>867.934677</ele>
        <time>2025-07-10T11:05:34.000Z</time>
      </trkpt>
      <trkpt lat="44.84985" lon="5.79542">
        <ele>868.068998</ele>
        <time>2025-07-10T11:05:35.000Z</time>
      </trkpt>
      <trkpt lat="44.84986" lon="5.79539">
        <ele>868.199664</ele>
        <time>2025-07-10T11:05:36.000Z</time>
      </trkpt>
      <trkpt lat="44.84987" lon="5.79536">
        <ele>868.327933</ele>
        <time>2025-07-10T11:05:37.000Z</time>
      </trkpt>
      <trkpt lat="44.84988" lon="5.79533">
        <ele>868.459923</ele>
        <time>2025-07-10T11:05:38.000Z</time>
      </trkpt>
      <trkpt lat="44.84989" lon="5.7953">
        <ele>868.595655</ele>
        <time>2025-07-10T11:05:39.000Z</time>
      </trkpt>
      <trkpt lat="44.8499" lon="5.79527">
        <ele>868.733139</ele>
        <time>2025-07-10T11:05:40.000Z</time>
      </trkpt>
      <trkpt lat="44.84991" lon="5.79524">
        <ele>868.864964</ele>
        <time>2025-07-10T11:05:41.000Z</time>
      </trkpt>
      <trkpt lat="44.84991" lon="5.79521">
        <ele>868.994834</ele>
        <time>2025-07-10T11:05:42.000Z</time>
      </trkpt>
      <trkpt lat="44.84992" lon="5.79518">
        <ele>869.122804</ele>
        <time>2025-07-10T11:05:43.000Z</time>
      </trkpt>
      <trkpt lat="44.84993" lon="5.79515">
        <ele>869.250774</ele>
        <time>2025-07-10T11:05:44.000Z</time>
      </trkpt>
      <trkpt lat="44.84994" lon="5.79512">
        <ele>869.382765</ele>
        <time>2025-07-10T11:05:45.000Z</time>
      </trkpt>
      <trkpt lat="44.84995" lon="5.79509">
        <ele>869.514755</ele>
        <time>2025-07-10T11:05:46.000Z</time>
      </trkpt>
      <trkpt lat="44.84996" lon="5.79506">
        <ele>869.646746</ele>
        <time>2025-07-10T11:05:47.000Z</time>
      </trkpt>
      <trkpt lat="44.84996" lon="5.79503">
        <ele>869.778736</ele>
        <time>2025-07-10T11:05:48.000Z</time>
      </trkpt>
      <trkpt lat="44.84997" lon="5.795">
        <ele>869.909402</ele>
        <time>2025-07-10T11:05:49.000Z</time>
      </trkpt>
      <trkpt lat="44.84998" lon="5.79497">
        <ele>870.036436</ele>
        <time>2025-07-10T11:05:50.000Z</time>
      </trkpt>
      <trkpt lat="44.85" lon="5.79494">
        <ele>870.162141</ele>
        <time>2025-07-10T11:05:51.000Z</time>
      </trkpt>
      <trkpt lat="44.85001" lon="5.79492">
        <ele>870.287764</ele>
        <time>2025-07-10T11:05:52.000Z</time>
      </trkpt>
      <trkpt lat="44.85002" lon="5.7949">
        <ele>870.393558</ele>
        <time>2025-07-10T11:05:53.000Z</time>
      </trkpt>
      <trkpt lat="44.85003" lon="5.79487">
        <ele>870.509267</ele>
        <time>2025-07-10T11:05:54.000Z</time>
      </trkpt>
      <trkpt lat="44.85005" lon="5.79485">
        <ele>870.623149</ele>
        <time>2025-07-10T11:05:55.000Z</time>
      </trkpt>
      <trkpt lat="44.85006" lon="5.79483">
        <ele>870.73309</ele>
        <time>2025-07-10T11:05:56.000Z</time>
      </trkpt>
      <trkpt lat="44.85007" lon="5.79482">
        <ele>870.834406</ele>
        <time>2025-07-10T11:05:57.000Z</time>
      </trkpt>
      <trkpt lat="44.85009" lon="5.7948">
        <ele>870.951372</ele>
        <time>2025-07-10T11:05:58.000Z</time>
      </trkpt>
      <trkpt lat="44.8501" lon="5.79478">
        <ele>871.061345</ele>
        <time>2025-07-10T11:05:59.000Z</time>
      </trkpt>
      <trkpt lat="44.85012" lon="5.79476">
        <ele>871.16961</ele>
        <time>2025-07-10T11:06:00.000Z</time>
      </trkpt>
      <trkpt lat="44.85013" lon="5.79475">
        <ele>871.273723</ele>
        <time>2025-07-10T11:06:01.000Z</time>
      </trkpt>
      <trkpt lat="44.85014" lon="5.79473">
        <ele>871.379301</ele>
        <time>2025-07-10T11:06:02.000Z</time>
      </trkpt>
      <trkpt lat="44.85016" lon="5.79471">
        <ele>871.484388</ele>
        <time>2025-07-10T11:06:03.000Z</time>
      </trkpt>
      <trkpt lat="44.85018" lon="5.7947">
        <ele>871.589918</ele>
        <time>2025-07-10T11:06:04.000Z</time>
      </trkpt>
      <trkpt lat="44.85019" lon="5.79469">
        <ele>871.680993</ele>
        <time>2025-07-10T11:06:05.000Z</time>
      </trkpt>
      <trkpt lat="44.8502" lon="5.79467">
        <ele>871.776788</ele>
        <time>2025-07-10T11:06:06.000Z</time>
      </trkpt>
      <trkpt lat="44.85022" lon="5.79466">
        <ele>871.876806</ele>
        <time>2025-07-10T11:06:07.000Z</time>
      </trkpt>
      <trkpt lat="44.85023" lon="5.79466">
        <ele>871.973825</ele>
        <time>2025-07-10T11:06:08.000Z</time>
      </trkpt>
      <trkpt lat="44.85025" lon="5.79465">
        <ele>872.075553</ele>
        <time>2025-07-10T11:06:09.000Z</time>
      </trkpt>
      <trkpt lat="44.85027" lon="5.79464">
        <ele>872.172571</ele>
        <time>2025-07-10T11:06:10.000Z</time>
      </trkpt>
      <trkpt lat="44.85028" lon="5.79463">
        <ele>872.260661</ele>
        <time>2025-07-10T11:06:11.000Z</time>
      </trkpt>
      <trkpt lat="44.8503" lon="5.79463">
        <ele>872.35096</ele>
        <time>2025-07-10T11:06:12.000Z</time>
      </trkpt>
      <trkpt lat="44.85031" lon="5.79462">
        <ele>872.449406</ele>
        <time>2025-07-10T11:06:13.000Z</time>
      </trkpt>
      <trkpt lat="44.85033" lon="5.79461">
        <ele>872.547853</ele>
        <time>2025-07-10T11:06:14.000Z</time>
      </trkpt>
      <trkpt lat="44.85035" lon="5.7946">
        <ele>872.659131</ele>
        <time>2025-07-10T11:06:15.000Z</time>
      </trkpt>
      <trkpt lat="44.85037" lon="5.79459">
        <ele>872.768277</ele>
        <time>2025-07-10T11:06:16.000Z</time>
      </trkpt>
      <trkpt lat="44.85039" lon="5.79459">
        <ele>872.890734</ele>
        <time>2025-07-10T11:06:17.000Z</time>
      </trkpt>
      <trkpt lat="44.8504" lon="5.79458">
        <ele>872.986475</ele>
        <time>2025-07-10T11:06:18.000Z</time>
      </trkpt>
      <trkpt lat="44.85042" lon="5.79457">
        <ele>873.075584</ele>
        <time>2025-07-10T11:06:19.000Z</time>
      </trkpt>
      <trkpt lat="44.85043" lon="5.79457">
        <ele>873.171326</ele>
        <time>2025-07-10T11:06:20.000Z</time>
      </trkpt>
      <trkpt lat="44.85045" lon="5.79456">
        <ele>873.260434</ele>
        <time>2025-07-10T11:06:21.000Z</time>
      </trkpt>
      <trkpt lat="44.85046" lon="5.79455">
        <ele>873.350733</ele>
        <time>2025-07-10T11:06:22.000Z</time>
      </trkpt>
      <trkpt lat="44.85048" lon="5.79455">
        <ele>873.451947</ele>
        <time>2025-07-10T11:06:23.000Z</time>
      </trkpt>
      <trkpt lat="44.8505" lon="5.79454">
        <ele>873.553161</ele>
        <time>2025-07-10T11:06:24.000Z</time>
      </trkpt>
      <trkpt lat="44.85051" lon="5.79453">
        <ele>873.655585</ele>
        <time>2025-07-10T11:06:25.000Z</time>
      </trkpt>
      <trkpt lat="44.85053" lon="5.79452">
        <ele>873.748747</ele>
        <time>2025-07-10T11:06:26.000Z</time>
      </trkpt>
      <trkpt lat="44.85054" lon="5.79451">
        <ele>873.840399</ele>
        <time>2025-07-10T11:06:27.000Z</time>
      </trkpt>
      <trkpt lat="44.85056" lon="5.79451">
        <ele>873.942822</ele>
        <time>2025-07-10T11:06:28.000Z</time>
      </trkpt>
      <trkpt lat="44.85058" lon="5.7945">
        <ele>874.039841</ele>
        <time>2025-07-10T11:06:29.000Z</time>
      </trkpt>
      <trkpt lat="44.85059" lon="5.79449">
        <ele>874.123466</ele>
        <time>2025-07-10T11:06:30.000Z</time>
      </trkpt>
      <trkpt lat="44.85061" lon="5.79448">
        <ele>874.221913</ele>
        <time>2025-07-10T11:06:31.000Z</time>
      </trkpt>
      <trkpt lat="44.85062" lon="5.79447">
        <ele>874.327182</ele>
        <time>2025-07-10T11:06:32.000Z</time>
      </trkpt>
      <trkpt lat="44.85064" lon="5.79446">
        <ele>874.430748</ele>
        <time>2025-07-10T11:06:33.000Z</time>
      </trkpt>
      <trkpt lat="44.85066" lon="5.79445">
        <ele>874.52737</ele>
        <time>2025-07-10T11:06:34.000Z</time>
      </trkpt>
      <trkpt lat="44.85067" lon="5.79444">
        <ele>874.632639</ele>
        <time>2025-07-10T11:06:35.000Z</time>
      </trkpt>
      <trkpt lat="44.85069" lon="5.79443">
        <ele>874.722327</ele>
        <time>2025-07-10T11:06:36.000Z</time>
      </trkpt>
      <trkpt lat="44.8507" lon="5.79442">
        <ele>874.806955</ele>
        <time>2025-07-10T11:06:37.000Z</time>
      </trkpt>
      <trkpt lat="44.85071" lon="5.79441">
        <ele>874.900583</ele>
        <time>2025-07-10T11:06:38.000Z</time>
      </trkpt>
      <trkpt lat="44.85073" lon="5.7944">
        <ele>874.999139</ele>
        <time>2025-07-10T11:06:39.000Z</time>
      </trkpt>
      <trkpt lat="44.85074" lon="5.79438">
        <ele>875.094934</ele>
        <time>2025-07-10T11:06:40.000Z</time>
      </trkpt>
      <trkpt lat="44.85076" lon="5.79437">
        <ele>875.236385</ele>
        <time>2025-07-10T11:06:41.000Z</time>
      </trkpt>
      <trkpt lat="44.85078" lon="5.79436">
        <ele>875.389965</ele>
        <time>2025-07-10T11:06:42.000Z</time>
      </trkpt>
      <trkpt lat="44.85079" lon="5.79435">
        <ele>875.53917</ele>
        <time>2025-07-10T11:06:43.000Z</time>
      </trkpt>
      <trkpt lat="44.8508" lon="5.79433">
        <ele>875.678012</ele>
        <time>2025-07-10T11:06:44.000Z</time>
      </trkpt>
      <trkpt lat="44.85082" lon="5.79432">
        <ele>875.824162</ele>
        <time>2025-07-10T11:06:45.000Z</time>
      </trkpt>
      <trkpt lat="44.85083" lon="5.79431">
        <ele>875.973368</ele>
        <time>2025-07-10T11:06:46.000Z</time>
      </trkpt>
      <trkpt lat="44.85085" lon="5.7943">
        <ele>876.108423</ele>
        <time>2025-07-10T11:06:47.000Z</time>
      </trkpt>
      <trkpt lat="44.85086" lon="5.79428">
        <ele>876.240095</ele>
        <time>2025-07-10T11:06:48.000Z</time>
      </trkpt>
      <trkpt lat="44.85087" lon="5.79427">
        <ele>876.378936</ele>
        <time>2025-07-10T11:06:49.000Z</time>
      </trkpt>
      <trkpt lat="44.85089" lon="5.79426">
        <ele>876.528142</ele>
        <time>2025-07-10T11:06:50.000Z</time>
      </trkpt>
      <trkpt lat="44.8509" lon="5.79425">
        <ele>876.670196</ele>
        <time>2025-07-10T11:06:51.000Z</time>
      </trkpt>
      <trkpt lat="44.85092" lon="5.79423">
        <ele>876.81564</ele>
        <time>2025-07-10T11:06:52.000Z</time>
      </trkpt>
      <trkpt lat="44.85093" lon="5.79422">
        <ele>876.975024</ele>
        <time>2025-07-10T11:06:53.000Z</time>
      </trkpt>
      <trkpt lat="44.85095" lon="5.7942">
        <ele>877.130857</ele>
        <time>2025-07-10T11:06:54.000Z</time>
      </trkpt>
      <trkpt lat="44.85096" lon="5.79419">
        <ele>877.283295</ele>
        <time>2025-07-10T11:06:55.000Z</time>
      </trkpt>
      <trkpt lat="44.85098" lon="5.79418">
        <ele>877.436874</ele>
        <time>2025-07-10T11:06:56.000Z</time>
      </trkpt>
      <trkpt lat="44.85099" lon="5.79416">
        <ele>877.596447</ele>
        <time>2025-07-10T11:06:57.000Z</time>
      </trkpt>
      <trkpt lat="44.85101" lon="5.79415">
        <ele>877.75228</ele>
        <time>2025-07-10T11:06:58.000Z</time>
      </trkpt>
      <trkpt lat="44.85102" lon="5.79413">
        <ele>877.90499</ele>
        <time>2025-07-10T11:06:59.000Z</time>
      </trkpt>
      <trkpt lat="44.85104" lon="5.79411">
        <ele>878.057699</ele>
        <time>2025-07-10T11:07:00.000Z</time>
      </trkpt>
      <trkpt lat="44.85105" lon="5.7941">
        <ele>878.19654</ele>
        <time>2025-07-10T11:07:01.000Z</time>
      </trkpt>
      <trkpt lat="44.85107" lon="5.79409">
        <ele>878.341984</ele>
        <time>2025-07-10T11:07:02.000Z</time>
      </trkpt>
      <trkpt lat="44.85108" lon="5.79407">
        <ele>878.480601</ele>
        <time>2025-07-10T11:07:03.000Z</time>
      </trkpt>
      <trkpt lat="44.85109" lon="5.79406">
        <ele>878.619218</ele>
        <time>2025-07-10T11:07:04.000Z</time>
      </trkpt>
      <trkpt lat="44.8511" lon="5.79405">
        <ele>878.755107</ele>
        <time>2025-07-10T11:07:05.000Z</time>
      </trkpt>
      <trkpt lat="44.85112" lon="5.79403">
        <ele>878.907544</ele>
        <time>2025-07-10T11:07:06.000Z</time>
      </trkpt>
      <trkpt lat="44.85113" lon="5.79402">
        <ele>879.05675</ele>
        <time>2025-07-10T11:07:07.000Z</time>
      </trkpt>
      <trkpt lat="44.85115" lon="5.79401">
        <ele>879.192568</ele>
        <time>2025-07-10T11:07:08.000Z</time>
      </trkpt>
      <trkpt lat="44.85116" lon="5.79399">
        <ele>879.341774</ele>
        <time>2025-07-10T11:07:09.000Z</time>
      </trkpt>
      <trkpt lat="44.85118" lon="5.79398">
        <ele>879.497607</ele>
        <time>2025-07-10T11:07:10.000Z</time>
      </trkpt>
      <trkpt lat="44.85119" lon="5.79396">
        <ele>879.650316</ele>
        <time>2025-07-10T11:07:11.000Z</time>
      </trkpt>
      <trkpt lat="44.8512" lon="5.79395">
        <ele>879.804703</ele>
        <time>2025-07-10T11:07:12.000Z</time>
      </trkpt>
      <trkpt lat="44.85122" lon="5.79393">
        <ele>879.950147</ele>
        <time>2025-07-10T11:07:13.000Z</time>
      </trkpt>
      <trkpt lat="44.85123" lon="5.79392">
        <ele>880.088764</ele>
        <time>2025-07-10T11:07:14.000Z</time>
      </trkpt>
      <trkpt lat="44.85124" lon="5.7939">
        <ele>880.227381</ele>
        <time>2025-07-10T11:07:15.000Z</time>
      </trkpt>
      <trkpt lat="44.85126" lon="5.79389">
        <ele>880.373603</ele>
        <time>2025-07-10T11:07:16.000Z</time>
      </trkpt>
      <trkpt lat="44.85127" lon="5.79387">
        <ele>880.509492</ele>
        <time>2025-07-10T11:07:17.000Z</time>
      </trkpt>
      <trkpt lat="44.85128" lon="5.79386">
        <ele>880.642216</ele>
        <time>2025-07-10T11:07:18.000Z</time>
      </trkpt>
      <trkpt lat="44.85129" lon="5.79384">
        <ele>880.780833</ele>
        <time>2025-07-10T11:07:19.000Z</time>
      </trkpt>
      <trkpt lat="44.85131" lon="5.79383">
        <ele>880.940217</ele>
        <time>2025-07-10T11:07:20.000Z</time>
      </trkpt>
      <trkpt lat="44.85132" lon="5.79381">
        <ele>881.085661</ele>
        <time>2025-07-10T11:07:21.000Z</time>
      </trkpt>
      <trkpt lat="44.85133" lon="5.7938">
        <ele>881.228004</ele>
        <time>2025-07-10T11:07:22.000Z</time>
      </trkpt>
      <trkpt lat="44.85135" lon="5.79378">
        <ele>881.378243</ele>
        <time>2025-07-10T11:07:23.000Z</time>
      </trkpt>
      <trkpt lat="44.85136" lon="5.79376">
        <ele>881.522383</ele>
        <time>2025-07-10T11:07:24.000Z</time>
      </trkpt>
      <trkpt lat="44.85137" lon="5.79375">
        <ele>881.668604</ele>
        <time>2025-07-10T11:07:25.000Z</time>
      </trkpt>
      <trkpt lat="44.85139" lon="5.79373">
        <ele>881.824437</ele>
        <time>2025-07-10T11:07:26.000Z</time>
      </trkpt>
      <trkpt lat="44.8514" lon="5.79372">
        <ele>881.966491</ele>
        <time>2025-07-10T11:07:27.000Z</time>
      </trkpt>
      <trkpt lat="44.85142" lon="5.7937">
        <ele>882.11549</ele>
        <time>2025-07-10T11:07:28.000Z</time>
      </trkpt>
      <trkpt lat="44.85143" lon="5.79369">
        <ele>882.26449</ele>
        <time>2025-07-10T11:07:29.000Z</time>
      </trkpt>
      <trkpt lat="44.85144" lon="5.79367">
        <ele>882.410711</ele>
        <time>2025-07-10T11:07:30.000Z</time>
      </trkpt>
      <trkpt lat="44.85145" lon="5.79366">
        <ele>882.540379</ele>
        <time>2025-07-10T11:07:31.000Z</time>
      </trkpt>
      <trkpt lat="44.85147" lon="5.79364">
        <ele>882.680325</ele>
        <time>2025-07-10T11:07:32.000Z</time>
      </trkpt>
      <trkpt lat="44.85148" lon="5.79363">
        <ele>882.826546</ele>
        <time>2025-07-10T11:07:33.000Z</time>
      </trkpt>
      <trkpt lat="44.85149" lon="5.79361">
        <ele>882.97199</ele>
        <time>2025-07-10T11:07:34.000Z</time>
      </trkpt>
      <trkpt lat="44.85151" lon="5.7936">
        <ele>883.110607</ele>
        <time>2025-07-10T11:07:35.000Z</time>
      </trkpt>
      <trkpt lat="44.85152" lon="5.79358">
        <ele>883.256828</ele>
        <time>2025-07-10T11:07:36.000Z</time>
      </trkpt>
      <trkpt lat="44.85153" lon="5.79357">
        <ele>883.41266</ele>
        <time>2025-07-10T11:07:37.000Z</time>
      </trkpt>
      <trkpt lat="44.85155" lon="5.79355">
        <ele>883.555003</ele>
        <time>2025-07-10T11:07:38.000Z</time>
      </trkpt>
      <trkpt lat="44.85156" lon="5.79354">
        <ele>883.694949</ele>
        <time>2025-07-10T11:07:39.000Z</time>
      </trkpt>
      <trkpt lat="44.85157" lon="5.79352">
        <ele>883.837292</ele>
        <time>2025-07-10T11:07:40.000Z</time>
      </trkpt>
      <trkpt lat="44.85158" lon="5.79351">
        <ele>883.975908</ele>
        <time>2025-07-10T11:07:41.000Z</time>
      </trkpt>
      <trkpt lat="44.8516" lon="5.79349">
        <ele>884.114525</ele>
        <time>2025-07-10T11:07:42.000Z</time>
      </trkpt>
      <trkpt lat="44.85161" lon="5.79348">
        <ele>884.240091</ele>
        <time>2025-07-10T11:07:43.000Z</time>
      </trkpt>
      <trkpt lat="44.85162" lon="5.79347">
        <ele>884.364757</ele>
        <time>2025-07-10T11:07:44.000Z</time>
      </trkpt>
      <trkpt lat="44.85163" lon="5.79346">
        <ele>884.490252</ele>
        <time>2025-07-10T11:07:45.000Z</time>
      </trkpt>
      <trkpt lat="44.85165" lon="5.79344">
        <ele>884.621923</ele>
        <time>2025-07-10T11:07:46.000Z</time>
      </trkpt>
      <trkpt lat="44.85166" lon="5.79343">
        <ele>884.767367</ele>
        <time>2025-07-10T11:07:47.000Z</time>
      </trkpt>
      <trkpt lat="44.85167" lon="5.79342">
        <ele>884.90971</ele>
        <time>2025-07-10T11:07:48.000Z</time>
      </trkpt>
      <trkpt lat="44.85169" lon="5.7934">
        <ele>885.04169</ele>
        <time>2025-07-10T11:07:49.000Z</time>
      </trkpt>
      <trkpt lat="44.8517" lon="5.79339">
        <ele>885.183744</ele>
        <time>2025-07-10T11:07:50.000Z</time>
      </trkpt>
      <trkpt lat="44.85171" lon="5.79338">
        <ele>885.305366</ele>
        <time>2025-07-10T11:07:51.000Z</time>
      </trkpt>
      <trkpt lat="44.85172" lon="5.79336">
        <ele>885.429081</ele>
        <time>2025-07-10T11:07:52.000Z</time>
      </trkpt>
      <trkpt lat="44.85173" lon="5.79334">
        <ele>885.575302</ele>
        <time>2025-07-10T11:07:53.000Z</time>
      </trkpt>
      <trkpt lat="44.85175" lon="5.79333">
        <ele>885.713918</ele>
        <time>2025-07-10T11:07:54.000Z</time>
      </trkpt>
      <trkpt lat="44.85176" lon="5.79332">
        <ele>885.855972</ele>
        <time>2025-07-10T11:07:55.000Z</time>
      </trkpt>
      <trkpt lat="44.85177" lon="5.7933">
        <ele>885.998025</ele>
        <time>2025-07-10T11:07:56.000Z</time>
      </trkpt>
      <trkpt lat="44.85179" lon="5.79329">
        <ele>886.140078</ele>
        <time>2025-07-10T11:07:57.000Z</time>
      </trkpt>
      <trkpt lat="44.8518" lon="5.79328">
        <ele>886.275896</ele>
        <time>2025-07-10T11:07:58.000Z</time>
      </trkpt>
      <trkpt lat="44.85182" lon="5.79327">
        <ele>886.410951</ele>
        <time>2025-07-10T11:07:59.000Z</time>
      </trkpt>
      <trkpt lat="44.85183" lon="5.79325">
        <ele>886.542931</ele>
        <time>2025-07-10T11:08:00.000Z</time>
      </trkpt>
      <trkpt lat="44.85184" lon="5.79324">
        <ele>886.671166</ele>
        <time>2025-07-10T11:08:01.000Z</time>
      </trkpt>
      <trkpt lat="44.85185" lon="5.79323">
        <ele>886.820165</ele>
        <time>2025-07-10T11:08:02.000Z</time>
      </trkpt>
      <trkpt lat="44.85187" lon="5.79321">
        <ele>886.96011</ele>
        <time>2025-07-10T11:08:03.000Z</time>
      </trkpt>
      <trkpt lat="44.85188" lon="5.79319">
        <ele>887.097512</ele>
        <time>2025-07-10T11:08:04.000Z</time>
      </trkpt>
      <trkpt lat="44.85189" lon="5.79318">
        <ele>887.231425</ele>
        <time>2025-07-10T11:08:05.000Z</time>
      </trkpt>
      <trkpt lat="44.8519" lon="5.79316">
        <ele>887.359659</ele>
        <time>2025-07-10T11:08:06.000Z</time>
      </trkpt>
      <trkpt lat="44.85191" lon="5.79315">
        <ele>887.487894</ele>
        <time>2025-07-10T11:08:07.000Z</time>
      </trkpt>
      <trkpt lat="44.85192" lon="5.79314">
        <ele>887.633337</ele>
        <time>2025-07-10T11:08:08.000Z</time>
      </trkpt>
      <trkpt lat="44.85194" lon="5.79312">
        <ele>887.761817</ele>
        <time>2025-07-10T11:08:09.000Z</time>
      </trkpt>
      <trkpt lat="44.85195" lon="5.79311">
        <ele>887.905098</ele>
        <time>2025-07-10T11:08:10.000Z</time>
      </trkpt>
      <trkpt lat="44.85197" lon="5.7931">
        <ele>888.030592</ele>
        <time>2025-07-10T11:08:11.000Z</time>
      </trkpt>
      <trkpt lat="44.85198" lon="5.79309">
        <ele>888.158827</ele>
        <time>2025-07-10T11:08:12.000Z</time>
      </trkpt>
      <trkpt lat="44.85199" lon="5.79308">
        <ele>888.287061</ele>
        <time>2025-07-10T11:08:13.000Z</time>
      </trkpt>
      <trkpt lat="44.852" lon="5.79307">
        <ele>888.397972</ele>
        <time>2025-07-10T11:08:14.000Z</time>
      </trkpt>
      <trkpt lat="44.85201" lon="5.79306">
        <ele>888.529643</ele>
        <time>2025-07-10T11:08:15.000Z</time>
      </trkpt>
      <trkpt lat="44.85203" lon="5.79304">
        <ele>888.668483</ele>
        <time>2025-07-10T11:08:16.000Z</time>
      </trkpt>
      <trkpt lat="44.85204" lon="5.79303">
        <ele>888.814633</ele>
        <time>2025-07-10T11:08:17.000Z</time>
      </trkpt>
      <trkpt lat="44.85206" lon="5.79302">
        <ele>888.953473</ele>
        <time>2025-07-10T11:08:18.000Z</time>
      </trkpt>
      <trkpt lat="44.85207" lon="5.79301">
        <ele>889.085144</ele>
        <time>2025-07-10T11:08:19.000Z</time>
      </trkpt>
      <trkpt lat="44.85208" lon="5.79299">
        <ele>889.220199</ele>
        <time>2025-07-10T11:08:20.000Z</time>
      </trkpt>
      <trkpt lat="44.85209" lon="5.79298">
        <ele>889.356087</ele>
        <time>2025-07-10T11:08:21.000Z</time>
      </trkpt>
      <trkpt lat="44.85211" lon="5.79297">
        <ele>889.494703</ele>
        <time>2025-07-10T11:08:22.000Z</time>
      </trkpt>
      <trkpt lat="44.85212" lon="5.79295">
        <ele>889.616325</ele>
        <time>2025-07-10T11:08:23.000Z</time>
      </trkpt>
      <trkpt lat="44.85213" lon="5.79294">
        <ele>889.748305</ele>
        <time>2025-07-10T11:08:24.000Z</time>
      </trkpt>
      <trkpt lat="44.85214" lon="5.79292">
        <ele>889.880285</ele>
        <time>2025-07-10T11:08:25.000Z</time>
      </trkpt>
      <trkpt lat="44.85215" lon="5.79291">
        <ele>890.016174</ele>
        <time>2025-07-10T11:08:26.000Z</time>
      </trkpt>
      <trkpt lat="44.85217" lon="5.79289">
        <ele>890.145841</ele>
        <time>2025-07-10T11:08:27.000Z</time>
      </trkpt>
      <trkpt lat="44.85218" lon="5.79288">
        <ele>890.284457</ele>
        <time>2025-07-10T11:08:28.000Z</time>
      </trkpt>
      <trkpt lat="44.85219" lon="5.79287">
        <ele>890.434731</ele>
        <time>2025-07-10T11:08:29.000Z</time>
      </trkpt>
      <trkpt lat="44.85221" lon="5.79285">
        <ele>890.581436</ele>
        <time>2025-07-10T11:08:30.000Z</time>
      </trkpt>
      <trkpt lat="44.85222" lon="5.79284">
        <ele>890.711413</ele>
        <time>2025-07-10T11:08:31.000Z</time>
      </trkpt>
      <trkpt lat="44.85223" lon="5.79283">
        <ele>890.838133</ele>
        <time>2025-07-10T11:08:32.000Z</time>
      </trkpt>
      <trkpt lat="44.85225" lon="5.79282">
        <ele>890.961782</ele>
        <time>2025-07-10T11:08:33.000Z</time>
      </trkpt>
      <trkpt lat="44.85226" lon="5.7928">
        <ele>891.088503</ele>
        <time>2025-07-10T11:08:34.000Z</time>
      </trkpt>
      <trkpt lat="44.85227" lon="5.79279">
        <ele>891.21552</ele>
        <time>2025-07-10T11:08:35.000Z</time>
      </trkpt>
      <trkpt lat="44.85229" lon="5.79278">
        <ele>891.345497</ele>
        <time>2025-07-10T11:08:36.000Z</time>
      </trkpt>
      <trkpt lat="44.8523" lon="5.79277">
        <ele>891.472218</ele>
        <time>2025-07-10T11:08:37.000Z</time>
      </trkpt>
      <trkpt lat="44.85231" lon="5.79275">
        <ele>891.595866</ele>
        <time>2025-07-10T11:08:38.000Z</time>
      </trkpt>
      <trkpt lat="44.85232" lon="5.79274">
        <ele>891.705847</ele>
        <time>2025-07-10T11:08:39.000Z</time>
      </trkpt>
      <trkpt lat="44.85233" lon="5.79273">
        <ele>891.819269</ele>
        <time>2025-07-10T11:08:40.000Z</time>
      </trkpt>
      <trkpt lat="44.85235" lon="5.79272">
        <ele>891.939248</ele>
        <time>2025-07-10T11:08:41.000Z</time>
      </trkpt>
      <trkpt lat="44.85236" lon="5.79271">
        <ele>892.05293</ele>
        <time>2025-07-10T11:08:42.000Z</time>
      </trkpt>
      <trkpt lat="44.85237" lon="5.7927">
        <ele>892.166612</ele>
        <time>2025-07-10T11:08:43.000Z</time>
      </trkpt>
      <trkpt lat="44.85238" lon="5.79269">
        <ele>892.283662</ele>
        <time>2025-07-10T11:08:44.000Z</time>
      </trkpt>
      <trkpt lat="44.85239" lon="5.79267">
        <ele>892.397084</ele>
        <time>2025-07-10T11:08:45.000Z</time>
      </trkpt>
      <trkpt lat="44.8524" lon="5.79266">
        <ele>892.507064</ele>
        <time>2025-07-10T11:08:46.000Z</time>
      </trkpt>
      <trkpt lat="44.85241" lon="5.79265">
        <ele>892.620487</ele>
        <time>2025-07-10T11:08:47.000Z</time>
      </trkpt>
      <trkpt lat="44.85243" lon="5.79264">
        <ele>892.740465</ele>
        <time>2025-07-10T11:08:48.000Z</time>
      </trkpt>
      <trkpt lat="44.85244" lon="5.79263">
        <ele>892.854148</ele>
        <time>2025-07-10T11:08:49.000Z</time>
      </trkpt>
      <trkpt lat="44.85245" lon="5.79262">
        <ele>892.96783</ele>
        <time>2025-07-10T11:08:50.000Z</time>
      </trkpt>
      <trkpt lat="44.85246" lon="5.79261">
        <ele>893.07781</ele>
        <time>2025-07-10T11:08:51.000Z</time>
      </trkpt>
      <trkpt lat="44.85247" lon="5.7926">
        <ele>893.188731</ele>
        <time>2025-07-10T11:08:52.000Z</time>
      </trkpt>
      <trkpt lat="44.85248" lon="5.79258">
        <ele>893.30578</ele>
        <time>2025-07-10T11:08:53.000Z</time>
      </trkpt>
      <trkpt lat="44.85249" lon="5.79257">
        <ele>893.42251</ele>
        <time>2025-07-10T11:08:54.000Z</time>
      </trkpt>
      <trkpt lat="44.8525" lon="5.79256">
        <ele>893.53249</ele>
        <time>2025-07-10T11:08:55.000Z</time>
      </trkpt>
      <trkpt lat="44.85252" lon="5.79255">
        <ele>893.64247</ele>
        <time>2025-07-10T11:08:56.000Z</time>
      </trkpt>
      <trkpt lat="44.85253" lon="5.79254">
        <ele>893.75245</ele>
        <time>2025-07-10T11:08:57.000Z</time>
      </trkpt>
      <trkpt lat="44.85254" lon="5.79253">
        <ele>893.86243</ele>
        <time>2025-07-10T11:08:58.000Z</time>
      </trkpt>
      <trkpt lat="44.85255" lon="5.79252">
        <ele>893.969517</ele>
        <time>2025-07-10T11:08:59.000Z</time>
      </trkpt>
      <trkpt lat="44.85256" lon="5.7925">
        <ele>894.082939</ele>
        <time>2025-07-10T11:09:00.000Z</time>
      </trkpt>
      <trkpt lat="44.85257" lon="5.79249">
        <ele>894.21365</ele>
        <time>2025-07-10T11:09:01.000Z</time>
      </trkpt>
      <trkpt lat="44.85259" lon="5.79248">
        <ele>894.341646</ele>
        <time>2025-07-10T11:09:02.000Z</time>
      </trkpt>
      <trkpt lat="44.8526" lon="5.79247">
        <ele>894.467137</ele>
        <time>2025-07-10T11:09:03.000Z</time>
      </trkpt>
      <trkpt lat="44.85261" lon="5.79247">
        <ele>894.590342</ele>
        <time>2025-07-10T11:09:04.000Z</time>
      </trkpt>
      <trkpt lat="44.85263" lon="5.79246">
        <ele>894.715832</ele>
        <time>2025-07-10T11:09:05.000Z</time>
      </trkpt>
      <trkpt lat="44.85264" lon="5.79245">
        <ele>894.843829</ele>
        <time>2025-07-10T11:09:06.000Z</time>
      </trkpt>
      <trkpt lat="44.85266" lon="5.79244">
        <ele>894.979152</ele>
        <time>2025-07-10T11:09:07.000Z</time>
      </trkpt>
      <trkpt lat="44.85267" lon="5.79242">
        <ele>895.112772</ele>
        <time>2025-07-10T11:09:08.000Z</time>
      </trkpt>
      <trkpt lat="44.85269" lon="5.79241">
        <ele>895.259476</ele>
        <time>2025-07-10T11:09:09.000Z</time>
      </trkpt>
      <trkpt lat="44.8527" lon="5.7924">
        <ele>895.396188</ele>
        <time>2025-07-10T11:09:10.000Z</time>
      </trkpt>
      <trkpt lat="44.85272" lon="5.79239">
        <ele>895.534082</ele>
        <time>2025-07-10T11:09:11.000Z</time>
      </trkpt>
      <trkpt lat="44.85273" lon="5.79238">
        <ele>895.669405</ele>
        <time>2025-07-10T11:09:12.000Z</time>
      </trkpt>
      <trkpt lat="44.85275" lon="5.79237">
        <ele>895.80236</ele>
        <time>2025-07-10T11:09:13.000Z</time>
      </trkpt>
      <trkpt lat="44.85276" lon="5.79236">
        <ele>895.952594</ele>
        <time>2025-07-10T11:09:14.000Z</time>
      </trkpt>
      <trkpt lat="44.85278" lon="5.79235">
        <ele>896.091054</ele>
        <time>2025-07-10T11:09:15.000Z</time>
      </trkpt>
      <trkpt lat="44.8528" lon="5.79234">
        <ele>896.235502</ele>
        <time>2025-07-10T11:09:16.000Z</time>
      </trkpt>
      <trkpt lat="44.85281" lon="5.79233">
        <ele>896.375999</ele>
        <time>2025-07-10T11:09:17.000Z</time>
      </trkpt>
      <trkpt lat="44.85283" lon="5.79232">
        <ele>896.518739</ele>
        <time>2025-07-10T11:09:18.000Z</time>
      </trkpt>
      <trkpt lat="44.85284" lon="5.79231">
        <ele>896.668973</ele>
        <time>2025-07-10T11:09:19.000Z</time>
      </trkpt>
      <trkpt lat="44.85286" lon="5.7923">
        <ele>896.811713</ele>
        <time>2025-07-10T11:09:20.000Z</time>
      </trkpt>
      <trkpt lat="44.85288" lon="5.79229">
        <ele>896.947037</ele>
        <time>2025-07-10T11:09:21.000Z</time>
      </trkpt>
      <trkpt lat="44.85289" lon="5.79228">
        <ele>897.089777</ele>
        <time>2025-07-10T11:09:22.000Z</time>
      </trkpt>
      <trkpt lat="44.85291" lon="5.79227">
        <ele>897.237882</ele>
        <time>2025-07-10T11:09:23.000Z</time>
      </trkpt>
      <trkpt lat="44.85292" lon="5.79227">
        <ele>897.378379</ele>
        <time>2025-07-10T11:09:24.000Z</time>
      </trkpt>
      <trkpt lat="44.85294" lon="5.79226">
        <ele>897.507248</ele>
        <time>2025-07-10T11:09:25.000Z</time>
      </trkpt>
      <trkpt lat="44.85295" lon="5.79225">
        <ele>897.638048</ele>
        <time>2025-07-10T11:09:26.000Z</time>
      </trkpt>
      <trkpt lat="44.85297" lon="5.79224">
        <ele>897.773372</ele>
        <time>2025-07-10T11:09:27.000Z</time>
      </trkpt>
      <trkpt lat="44.85298" lon="5.79223">
        <ele>897.914026</ele>
        <time>2025-07-10T11:09:28.000Z</time>
      </trkpt>
      <trkpt lat="44.853" lon="5.79222">
        <ele>898.054679</ele>
        <time>2025-07-10T11:09:29.000Z</time>
      </trkpt>
      <trkpt lat="44.85302" lon="5.79221">
        <ele>898.199858</ele>
        <time>2025-07-10T11:09:30.000Z</time>
      </trkpt>
      <trkpt lat="44.85303" lon="5.7922">
        <ele>898.342599</ele>
        <time>2025-07-10T11:09:31.000Z</time>
      </trkpt>
      <trkpt lat="44.85305" lon="5.79219">
        <ele>898.483096</ele>
        <time>2025-07-10T11:09:32.000Z</time>
      </trkpt>
      <trkpt lat="44.85306" lon="5.79217">
        <ele>898.616715</ele>
        <time>2025-07-10T11:09:33.000Z</time>
      </trkpt>
      <trkpt lat="44.85308" lon="5.79216">
        <ele>898.76031</ele>
        <time>2025-07-10T11:09:34.000Z</time>
      </trkpt>
      <trkpt lat="44.85309" lon="5.79215">
        <ele>898.88703</ele>
        <time>2025-07-10T11:09:35.000Z</time>
      </trkpt>
      <trkpt lat="44.8531" lon="5.79214">
        <ele>899.017006</ele>
        <time>2025-07-10T11:09:36.000Z</time>
      </trkpt>
      <trkpt lat="44.85312" lon="5.79212">
        <ele>899.1606</ele>
        <time>2025-07-10T11:09:37.000Z</time>
      </trkpt>
      <trkpt lat="44.85313" lon="5.79211">
        <ele>899.29422</ele>
        <time>2025-07-10T11:09:38.000Z</time>
      </trkpt>
      <trkpt lat="44.85315" lon="5.7921">
        <ele>899.427839</ele>
        <time>2025-07-10T11:09:39.000Z</time>
      </trkpt>
      <trkpt lat="44.85316" lon="5.79209">
        <ele>899.568493</ele>
        <time>2025-07-10T11:09:40.000Z</time>
      </trkpt>
      <trkpt lat="44.85318" lon="5.79208">
        <ele>899.711233</ele>
        <time>2025-07-10T11:09:41.000Z</time>
      </trkpt>
      <trkpt lat="44.85319" lon="5.79207">
        <ele>899.849127</ele>
        <time>2025-07-10T11:09:42.000Z</time>
      </trkpt>
      <trkpt lat="44.85321" lon="5.79206">
        <ele>899.977123</ele>
        <time>2025-07-10T11:09:43.000Z</time>
      </trkpt>
      <trkpt lat="44.85322" lon="5.79204">
        <ele>900.120717</ele>
        <time>2025-07-10T11:09:44.000Z</time>
      </trkpt>
      <trkpt lat="44.85324" lon="5.79203">
        <ele>900.264312</ele>
        <time>2025-07-10T11:09:45.000Z</time>
      </trkpt>
      <trkpt lat="44.85325" lon="5.79202">
        <ele>900.397931</ele>
        <time>2025-07-10T11:09:46.000Z</time>
      </trkpt>
      <trkpt lat="44.85326" lon="5.79201">
        <ele>900.534643</ele>
        <time>2025-07-10T11:09:47.000Z</time>
      </trkpt>
      <trkpt lat="44.85328" lon="5.79199">
        <ele>900.678237</ele>
        <time>2025-07-10T11:09:48.000Z</time>
      </trkpt>
      <trkpt lat="44.85329" lon="5.79198">
        <ele>900.823416</ele>
        <time>2025-07-10T11:09:49.000Z</time>
      </trkpt>
      <trkpt lat="44.85331" lon="5.79197">
        <ele>900.957035</ele>
        <time>2025-07-10T11:09:50.000Z</time>
      </trkpt>
      <trkpt lat="44.85332" lon="5.79196">
        <ele>901.093746</ele>
        <time>2025-07-10T11:09:51.000Z</time>
      </trkpt>
      <trkpt lat="44.85334" lon="5.79194">
        <ele>901.233721</ele>
        <time>2025-07-10T11:09:52.000Z</time>
      </trkpt>
      <trkpt lat="44.85335" lon="5.79193">
        <ele>901.364431</ele>
        <time>2025-07-10T11:09:53.000Z</time>
      </trkpt>
      <trkpt lat="44.85336" lon="5.79192">
        <ele>901.49805</ele>
        <time>2025-07-10T11:09:54.000Z</time>
      </trkpt>
      <trkpt lat="44.85338" lon="5.79191">
        <ele>901.631669</ele>
        <time>2025-07-10T11:09:55.000Z</time>
      </trkpt>
      <trkpt lat="44.85339" lon="5.79189">
        <ele>901.765073</ele>
        <time>2025-07-10T11:09:56.000Z</time>
      </trkpt>
      <trkpt lat="44.85341" lon="5.79188">
        <ele>901.905047</ele>
        <time>2025-07-10T11:09:57.000Z</time>
      </trkpt>
      <trkpt lat="44.85342" lon="5.79187">
        <ele>902.045701</ele>
        <time>2025-07-10T11:09:58.000Z</time>
      </trkpt>
      <trkpt lat="44.85343" lon="5.79186">
        <ele>902.17932</ele>
        <time>2025-07-10T11:09:59.000Z</time>
      </trkpt>
      <trkpt lat="44.85345" lon="5.79184">
        <ele>902.316031</ele>
        <time>2025-07-10T11:10:00.000Z</time>
      </trkpt>
      <trkpt lat="44.85346" lon="5.79183">
        <ele>902.462735</ele>
        <time>2025-07-10T11:10:01.000Z</time>
      </trkpt>
      <trkpt lat="44.85348" lon="5.79181">
        <ele>902.612707</ele>
        <time>2025-07-10T11:10:02.000Z</time>
      </trkpt>
      <trkpt lat="44.85349" lon="5.7918">
        <ele>902.762679</ele>
        <time>2025-07-10T11:10:03.000Z</time>
      </trkpt>
      <trkpt lat="44.85351" lon="5.79179">
        <ele>902.913284</ele>
        <time>2025-07-10T11:10:04.000Z</time>
      </trkpt>
      <trkpt lat="44.85353" lon="5.79177">
        <ele>903.058462</ele>
        <time>2025-07-10T11:10:05.000Z</time>
      </trkpt>
      <trkpt lat="44.85354" lon="5.79176">
        <ele>903.202056</ele>
        <time>2025-07-10T11:10:06.000Z</time>
      </trkpt>
      <trkpt lat="44.85356" lon="5.79175">
        <ele>903.355629</ele>
        <time>2025-07-10T11:10:07.000Z</time>
      </trkpt>
      <trkpt lat="44.85357" lon="5.79173">
        <ele>903.509201</ele>
        <time>2025-07-10T11:10:08.000Z</time>
      </trkpt>
      <trkpt lat="44.85359" lon="5.79172">
        <ele>903.664253</ele>
        <time>2025-07-10T11:10:09.000Z</time>
      </trkpt>
      <trkpt lat="44.85361" lon="5.79171">
        <ele>903.812056</ele>
        <time>2025-07-10T11:10:10.000Z</time>
      </trkpt>
      <trkpt lat="44.85362" lon="5.7917">
        <ele>903.95876</ele>
        <time>2025-07-10T11:10:11.000Z</time>
      </trkpt>
      <trkpt lat="44.85364" lon="5.79168">
        <ele>904.108732</ele>
        <time>2025-07-10T11:10:12.000Z</time>
      </trkpt>
      <trkpt lat="44.85365" lon="5.79166">
        <ele>904.262121</ele>
        <time>2025-07-10T11:10:13.000Z</time>
      </trkpt>
      <trkpt lat="44.85366" lon="5.79165">
        <ele>904.39574</ele>
        <time>2025-07-10T11:10:14.000Z</time>
      </trkpt>
      <trkpt lat="44.85368" lon="5.79164">
        <ele>904.536393</ele>
        <time>2025-07-10T11:10:15.000Z</time>
      </trkpt>
      <trkpt lat="44.85369" lon="5.79163">
        <ele>904.679789</ele>
        <time>2025-07-10T11:10:16.000Z</time>
      </trkpt>
      <trkpt lat="44.85371" lon="5.79161">
        <ele>904.814471</ele>
        <time>2025-07-10T11:10:17.000Z</time>
      </trkpt>
      <trkpt lat="44.85372" lon="5.79159">
        <ele>904.961436</ele>
        <time>2025-07-10T11:10:18.000Z</time>
      </trkpt>
      <trkpt lat="44.85374" lon="5.79158">
        <ele>905.105759</ele>
        <time>2025-07-10T11:10:19.000Z</time>
      </trkpt>
      <trkpt lat="44.85375" lon="5.79157">
        <ele>905.226706</ele>
        <time>2025-07-10T11:10:20.000Z</time>
      </trkpt>
      <trkpt lat="44.85377" lon="5.79155">
        <ele>905.341247</ele>
        <time>2025-07-10T11:10:21.000Z</time>
      </trkpt>
      <trkpt lat="44.85378" lon="5.79154">
        <ele>905.463969</ele>
        <time>2025-07-10T11:10:22.000Z</time>
      </trkpt>
      <trkpt lat="44.8538" lon="5.79152">
        <ele>905.597804</ele>
        <time>2025-07-10T11:10:23.000Z</time>
      </trkpt>
      <trkpt lat="44.85381" lon="5.7915">
        <ele>905.729246</ele>
        <time>2025-07-10T11:10:24.000Z</time>
      </trkpt>
      <trkpt lat="44.85383" lon="5.79149">
        <ele>905.857673</ele>
        <time>2025-07-10T11:10:25.000Z</time>
      </trkpt>
      <trkpt lat="44.85384" lon="5.79147">
        <ele>905.98734</ele>
        <time>2025-07-10T11:10:26.000Z</time>
      </trkpt>
      <trkpt lat="44.85386" lon="5.79145">
        <ele>906.104681</ele>
        <time>2025-07-10T11:10:27.000Z</time>
      </trkpt>
      <trkpt lat="44.85387" lon="5.79144">
        <ele>906.222021</ele>
        <time>2025-07-10T11:10:28.000Z</time>
      </trkpt>
      <trkpt lat="44.85388" lon="5.79143">
        <ele>906.333892</ele>
        <time>2025-07-10T11:10:29.000Z</time>
      </trkpt>
      <trkpt lat="44.8539" lon="5.79141">
        <ele>906.454839</ele>
        <time>2025-07-10T11:10:30.000Z</time>
      </trkpt>
      <trkpt lat="44.85392" lon="5.7914">
        <ele>906.581718</ele>
        <time>2025-07-10T11:10:31.000Z</time>
      </trkpt>
      <trkpt lat="44.85393" lon="5.79139">
        <ele>906.707681</ele>
        <time>2025-07-10T11:10:32.000Z</time>
      </trkpt>
      <trkpt lat="44.85395" lon="5.79138">
        <ele>906.82265</ele>
        <time>2025-07-10T11:10:33.000Z</time>
      </trkpt>
      <trkpt lat="44.85397" lon="5.79137">
        <ele>906.935487</ele>
        <time>2025-07-10T11:10:34.000Z</time>
      </trkpt>
      <trkpt lat="44.85398" lon="5.79136">
        <ele>907.046222</ele>
        <time>2025-07-10T11:10:35.000Z</time>
      </trkpt>
      <trkpt lat="44.854" lon="5.79135">
        <ele>907.17189</ele>
        <time>2025-07-10T11:10:36.000Z</time>
      </trkpt>
      <trkpt lat="44.85401" lon="5.79134">
        <ele>907.295129</ele>
        <time>2025-07-10T11:10:37.000Z</time>
      </trkpt>
      <trkpt lat="44.85403" lon="5.79132">
        <ele>907.418369</ele>
        <time>2025-07-10T11:10:38.000Z</time>
      </trkpt>
      <trkpt lat="44.85405" lon="5.79131">
        <ele>907.541305</ele>
        <time>2025-07-10T11:10:39.000Z</time>
      </trkpt>
      <trkpt lat="44.85406" lon="5.7913">
        <ele>907.675078</ele>
        <time>2025-07-10T11:10:40.000Z</time>
      </trkpt>
      <trkpt lat="44.85408" lon="5.7913">
        <ele>907.801041</ele>
        <time>2025-07-10T11:10:41.000Z</time>
      </trkpt>
      <trkpt lat="44.8541" lon="5.79129">
        <ele>907.909838</ele>
        <time>2025-07-10T11:10:42.000Z</time>
      </trkpt>
      <trkpt lat="44.85411" lon="5.79128">
        <ele>908.019178</ele>
        <time>2025-07-10T11:10:43.000Z</time>
      </trkpt>
      <trkpt lat="44.85413" lon="5.79126">
        <ele>908.1419</ele>
        <time>2025-07-10T11:10:44.000Z</time>
      </trkpt>
      <trkpt lat="44.85414" lon="5.79124">
        <ele>908.25797</ele>
        <time>2025-07-10T11:10:45.000Z</time>
      </trkpt>
      <trkpt lat="44.85415" lon="5.79123">
        <ele>908.370068</ele>
        <time>2025-07-10T11:10:46.000Z</time>
      </trkpt>
      <trkpt lat="44.85417" lon="5.79121">
        <ele>908.487571</ele>
        <time>2025-07-10T11:10:47.000Z</time>
      </trkpt>
      <trkpt lat="44.85418" lon="5.7912">
        <ele>908.614003</ele>
        <time>2025-07-10T11:10:48.000Z</time>
      </trkpt>
      <trkpt lat="44.85419" lon="5.79118">
        <ele>908.725971</ele>
        <time>2025-07-10T11:10:49.000Z</time>
      </trkpt>
      <trkpt lat="44.8542" lon="5.79116">
        <ele>908.838058</ele>
        <time>2025-07-10T11:10:50.000Z</time>
      </trkpt>
      <trkpt lat="44.85421" lon="5.79114">
        <ele>908.957757</ele>
        <time>2025-07-10T11:10:51.000Z</time>
      </trkpt>
      <trkpt lat="44.85422" lon="5.79111">
        <ele>909.07794</ele>
        <time>2025-07-10T11:10:52.000Z</time>
      </trkpt>
      <trkpt lat="44.85422" lon="5.79109">
        <ele>909.202579</ele>
        <time>2025-07-10T11:10:53.000Z</time>
      </trkpt>
      <trkpt lat="44.85422" lon="5.79106">
        <ele>909.326322</ele>
        <time>2025-07-10T11:10:54.000Z</time>
      </trkpt>
      <trkpt lat="44.85421" lon="5.79104">
        <ele>909.447586</ele>
        <time>2025-07-10T11:10:55.000Z</time>
      </trkpt>
      <trkpt lat="44.85421" lon="5.79102">
        <ele>909.548108</ele>
        <time>2025-07-10T11:10:56.000Z</time>
      </trkpt>
      <trkpt lat="44.85419" lon="5.791">
        <ele>909.66326</ele>
        <time>2025-07-10T11:10:57.000Z</time>
      </trkpt>
      <trkpt lat="44.85418" lon="5.79099">
        <ele>909.790724</ele>
        <time>2025-07-10T11:10:58.000Z</time>
      </trkpt>
      <trkpt lat="44.85416" lon="5.79099">
        <ele>909.918943</ele>
        <time>2025-07-10T11:10:59.000Z</time>
      </trkpt>
      <trkpt lat="44.85414" lon="5.79099">
        <ele>910.046111</ele>
        <time>2025-07-10T11:11:00.000Z</time>
      </trkpt>
      <trkpt lat="44.85412" lon="5.79099">
        <ele>910.179935</ele>
        <time>2025-07-10T11:11:01.000Z</time>
      </trkpt>
      <trkpt lat="44.8541" lon="5.791">
        <ele>910.323959</ele>
        <time>2025-07-10T11:11:02.000Z</time>
      </trkpt>
      <trkpt lat="44.85408" lon="5.79101">
        <ele>910.453081</ele>
        <time>2025-07-10T11:11:03.000Z</time>
      </trkpt>
      <trkpt lat="44.85406" lon="5.79102">
        <ele>910.576017</ele>
        <time>2025-07-10T11:11:04.000Z</time>
      </trkpt>
      <trkpt lat="44.85404" lon="5.79103">
        <ele>910.71909</ele>
        <time>2025-07-10T11:11:05.000Z</time>
      </trkpt>
      <trkpt lat="44.85402" lon="5.79104">
        <ele>910.85002</ele>
        <time>2025-07-10T11:11:06.000Z</time>
      </trkpt>
      <trkpt lat="44.85401" lon="5.79105">
        <ele>910.988965</ele>
        <time>2025-07-10T11:11:07.000Z</time>
      </trkpt>
      <trkpt lat="44.85399" lon="5.79107">
        <ele>911.121847</ele>
        <time>2025-07-10T11:11:08.000Z</time>
      </trkpt>
      <trkpt lat="44.85397" lon="5.79108">
        <ele>911.236944</ele>
        <time>2025-07-10T11:11:09.000Z</time>
      </trkpt>
      <trkpt lat="44.85396" lon="5.79109">
        <ele>911.355743</ele>
        <time>2025-07-10T11:11:10.000Z</time>
      </trkpt>
      <trkpt lat="44.85394" lon="5.7911">
        <ele>911.490715</ele>
        <time>2025-07-10T11:11:11.000Z</time>
      </trkpt>
      <trkpt lat="44.85392" lon="5.79111">
        <ele>911.613651</ele>
        <time>2025-07-10T11:11:12.000Z</time>
      </trkpt>
      <trkpt lat="44.8539" lon="5.79112">
        <ele>911.734845</ele>
        <time>2025-07-10T11:11:13.000Z</time>
      </trkpt>
      <trkpt lat="44.85389" lon="5.79113">
        <ele>911.862309</ele>
        <time>2025-07-10T11:11:14.000Z</time>
      </trkpt>
      <trkpt lat="44.85387" lon="5.79114">
        <ele>911.994652</ele>
        <time>2025-07-10T11:11:15.000Z</time>
      </trkpt>
      <trkpt lat="44.85385" lon="5.79114">
        <ele>912.132189</ele>
        <time>2025-07-10T11:11:16.000Z</time>
      </trkpt>
      <trkpt lat="44.85383" lon="5.79115">
        <ele>912.261192</ele>
        <time>2025-07-10T11:11:17.000Z</time>
      </trkpt>
      <trkpt lat="44.85381" lon="5.79115">
        <ele>912.395016</ele>
        <time>2025-07-10T11:11:18.000Z</time>
      </trkpt>
      <trkpt lat="44.85379" lon="5.79115">
        <ele>912.51525</ele>
        <time>2025-07-10T11:11:19.000Z</time>
      </trkpt>
      <trkpt lat="44.85377" lon="5.79115">
        <ele>912.642153</ele>
        <time>2025-07-10T11:11:20.000Z</time>
      </trkpt>
      <trkpt lat="44.85375" lon="5.79115">
        <ele>912.76932</ele>
        <time>2025-07-10T11:11:21.000Z</time>
      </trkpt>
      <trkpt lat="44.85373" lon="5.79114">
        <ele>912.898323</ele>
        <time>2025-07-10T11:11:22.000Z</time>
      </trkpt>
      <trkpt lat="44.85372" lon="5.79113">
        <ele>913.027445</ele>
        <time>2025-07-10T11:11:23.000Z</time>
      </trkpt>
      <trkpt lat="44.8537" lon="5.79111">
        <ele>913.158787</ele>
        <time>2025-07-10T11:11:24.000Z</time>
      </trkpt>
      <trkpt lat="44.8537" lon="5.79108">
        <ele>913.29267</ele>
        <time>2025-07-10T11:11:25.000Z</time>
      </trkpt>
      <trkpt lat="44.85369" lon="5.79105">
        <ele>913.43134</ele>
        <time>2025-07-10T11:11:26.000Z</time>
      </trkpt>
      <trkpt lat="44.8537" lon="5.79103">
        <ele>913.564495</ele>
        <time>2025-07-10T11:11:27.000Z</time>
      </trkpt>
      <trkpt lat="44.8537" lon="5.791">
        <ele>913.680456</ele>
        <time>2025-07-10T11:11:28.000Z</time>
      </trkpt>
      <trkpt lat="44.85371" lon="5.79099">
        <ele>913.792902</ele>
        <time>2025-07-10T11:11:29.000Z</time>
      </trkpt>
      <trkpt lat="44.85373" lon="5.79097">
        <ele>913.91857</ele>
        <time>2025-07-10T11:11:30.000Z</time>
      </trkpt>
      <trkpt lat="44.85375" lon="5.79096">
        <ele>914.033539</ele>
        <time>2025-07-10T11:11:31.000Z</time>
      </trkpt>
      <trkpt lat="44.85376" lon="5.79096">
        <ele>914.149445</ele>
        <time>2025-07-10T11:11:32.000Z</time>
      </trkpt>
      <trkpt lat="44.85378" lon="5.79095">
        <ele>914.264479</ele>
        <time>2025-07-10T11:11:33.000Z</time>
      </trkpt>
      <trkpt lat="44.85379" lon="5.79095">
        <ele>914.365597</ele>
        <time>2025-07-10T11:11:34.000Z</time>
      </trkpt>
      <trkpt lat="44.85381" lon="5.79095">
        <ele>914.487219</ele>
        <time>2025-07-10T11:11:35.000Z</time>
      </trkpt>
      <trkpt lat="44.85383" lon="5.79094">
        <ele>914.613181</ele>
        <time>2025-07-10T11:11:36.000Z</time>
      </trkpt>
      <trkpt lat="44.85385" lon="5.79093">
        <ele>914.731382</ele>
        <time>2025-07-10T11:11:37.000Z</time>
      </trkpt>
      <trkpt lat="44.85386" lon="5.79093">
        <ele>914.841883</ele>
        <time>2025-07-10T11:11:38.000Z</time>
      </trkpt>
      <trkpt lat="44.85388" lon="5.79092">
        <ele>914.958847</ele>
        <time>2025-07-10T11:11:39.000Z</time>
      </trkpt>
      <trkpt lat="44.8539" lon="5.79092">
        <ele>915.07388</ele>
        <time>2025-07-10T11:11:40.000Z</time>
      </trkpt>
      <trkpt lat="44.85391" lon="5.79091">
        <ele>915.183261</ele>
        <time>2025-07-10T11:11:41.000Z</time>
      </trkpt>
      <trkpt lat="44.85393" lon="5.79091">
        <ele>915.305708</ele>
        <time>2025-07-10T11:11:42.000Z</time>
      </trkpt>
      <trkpt lat="44.85395" lon="5.7909">
        <ele>915.430331</ele>
        <time>2025-07-10T11:11:43.000Z</time>
      </trkpt>
      <trkpt lat="44.85397" lon="5.79089">
        <ele>915.546237</ele>
        <time>2025-07-10T11:11:44.000Z</time>
      </trkpt>
      <trkpt lat="44.85398" lon="5.79089">
        <ele>915.658046</ele>
        <time>2025-07-10T11:11:45.000Z</time>
      </trkpt>
      <trkpt lat="44.854" lon="5.79088">
        <ele>915.77766</ele>
        <time>2025-07-10T11:11:46.000Z</time>
      </trkpt>
      <trkpt lat="44.85402" lon="5.79087">
        <ele>915.892628</ele>
        <time>2025-07-10T11:11:47.000Z</time>
      </trkpt>
      <trkpt lat="44.85403" lon="5.79086">
        <ele>916.001425</ele>
        <time>2025-07-10T11:11:48.000Z</time>
      </trkpt>
      <trkpt lat="44.85405" lon="5.79085">
        <ele>916.118389</ele>
        <time>2025-07-10T11:11:49.000Z</time>
      </trkpt>
      <trkpt lat="44.85407" lon="5.79085">
        <ele>916.245853</ele>
        <time>2025-07-10T11:11:50.000Z</time>
      </trkpt>
      <trkpt lat="44.85408" lon="5.79084">
        <ele>916.367047</ele>
        <time>2025-07-10T11:11:51.000Z</time>
      </trkpt>
      <trkpt lat="44.8541" lon="5.79083">
        <ele>916.475844</ele>
        <time>2025-07-10T11:11:52.000Z</time>
      </trkpt>
      <trkpt lat="44.85411" lon="5.79082">
        <ele>916.573504</ele>
        <time>2025-07-10T11:11:53.000Z</time>
      </trkpt>
      <trkpt lat="44.85413" lon="5.79082">
        <ele>916.684004</ele>
        <time>2025-07-10T11:11:54.000Z</time>
      </trkpt>
      <trkpt lat="44.85414" lon="5.79081">
        <ele>916.795814</ele>
        <time>2025-07-10T11:11:55.000Z</time>
      </trkpt>
      <trkpt lat="44.85416" lon="5.7908">
        <ele>916.910783</ele>
        <time>2025-07-10T11:11:56.000Z</time>
      </trkpt>
      <trkpt lat="44.85418" lon="5.79079">
        <ele>917.034232</ele>
        <time>2025-07-10T11:11:57.000Z</time>
      </trkpt>
      <trkpt lat="44.85419" lon="5.79079">
        <ele>917.156098</ele>
        <time>2025-07-10T11:11:58.000Z</time>
      </trkpt>
      <trkpt lat="44.85421" lon="5.79079">
        <ele>917.279104</ele>
        <time>2025-07-10T11:11:59.000Z</time>
      </trkpt>
      <trkpt lat="44.85423" lon="5.79078">
        <ele>917.410496</ele>
        <time>2025-07-10T11:12:00.000Z</time>
      </trkpt>
      <trkpt lat="44.85425" lon="5.79078">
        <ele>917.529872</ele>
        <time>2025-07-10T11:12:01.000Z</time>
      </trkpt>
      <trkpt lat="44.85426" lon="5.79077">
        <ele>917.660801</ele>
        <time>2025-07-10T11:12:02.000Z</time>
      </trkpt>
      <trkpt lat="44.85428" lon="5.79076">
        <ele>917.796882</ele>
        <time>2025-07-10T11:12:03.000Z</time>
      </trkpt>
      <trkpt lat="44.8543" lon="5.79075">
        <ele>917.929693</ele>
        <time>2025-07-10T11:12:04.000Z</time>
      </trkpt>
      <trkpt lat="44.85432" lon="5.79074">
        <ele>918.064326</ele>
        <time>2025-07-10T11:12:05.000Z</time>
      </trkpt>
      <trkpt lat="44.85433" lon="5.79074">
        <ele>918.195019</ele>
        <time>2025-07-10T11:12:06.000Z</time>
      </trkpt>
      <trkpt lat="44.85435" lon="5.79074">
        <ele>918.332876</ele>
        <time>2025-07-10T11:12:07.000Z</time>
      </trkpt>
      <trkpt lat="44.85437" lon="5.79073">
        <ele>918.473269</ele>
        <time>2025-07-10T11:12:08.000Z</time>
      </trkpt>
      <trkpt lat="44.85439" lon="5.79073">
        <ele>918.598485</ele>
        <time>2025-07-10T11:12:09.000Z</time>
      </trkpt>
      <trkpt lat="44.8544" lon="5.79072">
        <ele>918.720888</ele>
        <time>2025-07-10T11:12:10.000Z</time>
      </trkpt>
      <trkpt lat="44.85442" lon="5.79071">
        <ele>918.841679</ele>
        <time>2025-07-10T11:12:11.000Z</time>
      </trkpt>
      <trkpt lat="44.85444" lon="5.79071">
        <ele>918.968038</ele>
        <time>2025-07-10T11:12:12.000Z</time>
      </trkpt>
      <trkpt lat="44.85446" lon="5.7907">
        <ele>919.100321</ele>
        <time>2025-07-10T11:12:13.000Z</time>
      </trkpt>
      <trkpt lat="44.85447" lon="5.7907">
        <ele>919.231712</ele>
        <time>2025-07-10T11:12:14.000Z</time>
      </trkpt>
      <trkpt lat="44.85449" lon="5.7907">
        <ele>919.354293</ele>
        <time>2025-07-10T11:12:15.000Z</time>
      </trkpt>
      <trkpt lat="44.85451" lon="5.79069">
        <ele>919.494685</ele>
        <time>2025-07-10T11:12:16.000Z</time>
      </trkpt>
      <trkpt lat="44.85452" lon="5.79069">
        <ele>919.605823</ele>
        <time>2025-07-10T11:12:17.000Z</time>
      </trkpt>
      <trkpt lat="44.85454" lon="5.79068">
        <ele>919.719747</ele>
        <time>2025-07-10T11:12:18.000Z</time>
      </trkpt>
      <trkpt lat="44.85455" lon="5.79067">
        <ele>919.830885</ele>
        <time>2025-07-10T11:12:19.000Z</time>
      </trkpt>
      <trkpt lat="44.85457" lon="5.79067">
        <ele>919.943308</ele>
        <time>2025-07-10T11:12:20.000Z</time>
      </trkpt>
      <trkpt lat="44.85459" lon="5.79066">
        <ele>920.062685</ele>
        <time>2025-07-10T11:12:21.000Z</time>
      </trkpt>
      <trkpt lat="44.8546" lon="5.79066">
        <ele>920.169787</ele>
        <time>2025-07-10T11:12:22.000Z</time>
      </trkpt>
      <trkpt lat="44.85461" lon="5.79065">
        <ele>920.276889</ele>
        <time>2025-07-10T11:12:23.000Z</time>
      </trkpt>
      <trkpt lat="44.85463" lon="5.79064">
        <ele>920.39768</ele>
        <time>2025-07-10T11:12:24.000Z</time>
      </trkpt>
      <trkpt lat="44.85464" lon="5.79063">
        <ele>920.511604</ele>
        <time>2025-07-10T11:12:25.000Z</time>
      </trkpt>
      <trkpt lat="44.85466" lon="5.79063">
        <ele>920.605898</ele>
        <time>2025-07-10T11:12:26.000Z</time>
      </trkpt>
      <trkpt lat="44.85467" lon="5.79063">
        <ele>920.708896</ele>
        <time>2025-07-10T11:12:27.000Z</time>
      </trkpt>
      <trkpt lat="44.85469" lon="5.79062">
        <ele>920.828525</ele>
        <time>2025-07-10T11:12:28.000Z</time>
      </trkpt>
      <trkpt lat="44.8547" lon="5.79061">
        <ele>920.946649</ele>
        <time>2025-07-10T11:12:29.000Z</time>
      </trkpt>
      <trkpt lat="44.85472" lon="5.7906">
        <ele>921.084351</ele>
        <time>2025-07-10T11:12:30.000Z</time>
      </trkpt>
      <trkpt lat="44.85474" lon="5.79059">
        <ele>921.218984</ele>
        <time>2025-07-10T11:12:31.000Z</time>
      </trkpt>
      <trkpt lat="44.85475" lon="5.79058">
        <ele>921.356687</ele>
        <time>2025-07-10T11:12:32.000Z</time>
      </trkpt>
      <trkpt lat="44.85477" lon="5.79057">
        <ele>921.489498</ele>
        <time>2025-07-10T11:12:33.000Z</time>
      </trkpt>
      <trkpt lat="44.85479" lon="5.79056">
        <ele>921.615684</ele>
        <time>2025-07-10T11:12:34.000Z</time>
      </trkpt>
      <trkpt lat="44.8548" lon="5.79055">
        <ele>921.744905</ele>
        <time>2025-07-10T11:12:35.000Z</time>
      </trkpt>
      <trkpt lat="44.85482" lon="5.79055">
        <ele>921.871264</ele>
        <time>2025-07-10T11:12:36.000Z</time>
      </trkpt>
      <trkpt lat="44.85484" lon="5.79054">
        <ele>921.988432</ele>
        <time>2025-07-10T11:12:37.000Z</time>
      </trkpt>
      <trkpt lat="44.85485" lon="5.79054">
        <ele>922.098506</ele>
        <time>2025-07-10T11:12:38.000Z</time>
      </trkpt>
      <trkpt lat="44.85487" lon="5.79053">
        <ele>922.195666</ele>
        <time>2025-07-10T11:12:39.000Z</time>
      </trkpt>
      <trkpt lat="44.85488" lon="5.79053">
        <ele>922.315043</ele>
        <time>2025-07-10T11:12:40.000Z</time>
      </trkpt>
      <trkpt lat="44.8549" lon="5.79052">
        <ele>922.441401</ele>
        <time>2025-07-10T11:12:41.000Z</time>
      </trkpt>
      <trkpt lat="44.85492" lon="5.79052">
        <ele>922.56776</ele>
        <time>2025-07-10T11:12:42.000Z</time>
      </trkpt>
      <trkpt lat="44.85493" lon="5.79051">
        <ele>922.677835</ele>
        <time>2025-07-10T11:12:43.000Z</time>
      </trkpt>
      <trkpt lat="44.85495" lon="5.79051">
        <ele>922.802109</ele>
        <time>2025-07-10T11:12:44.000Z</time>
      </trkpt>
      <trkpt lat="44.85496" lon="5.7905">
        <ele>922.924511</ele>
        <time>2025-07-10T11:12:45.000Z</time>
      </trkpt>
      <trkpt lat="44.85498" lon="5.79049">
        <ele>923.052207</ele>
        <time>2025-07-10T11:12:46.000Z</time>
      </trkpt>
      <trkpt lat="44.855" lon="5.79049">
        <ele>923.172998</ele>
        <time>2025-07-10T11:12:47.000Z</time>
      </trkpt>
      <trkpt lat="44.85501" lon="5.79048">
        <ele>923.30763</ele>
        <time>2025-07-10T11:12:48.000Z</time>
      </trkpt>
      <trkpt lat="44.85503" lon="5.79047">
        <ele>923.423261</ele>
        <time>2025-07-10T11:12:49.000Z</time>
      </trkpt>
      <trkpt lat="44.85504" lon="5.79046">
        <ele>923.547603</ele>
        <time>2025-07-10T11:12:50.000Z</time>
      </trkpt>
      <trkpt lat="44.85506" lon="5.79045">
        <ele>923.671807</ele>
        <time>2025-07-10T11:12:51.000Z</time>
      </trkpt>
      <trkpt lat="44.85508" lon="5.79044">
        <ele>923.798165</ele>
        <time>2025-07-10T11:12:52.000Z</time>
      </trkpt>
      <trkpt lat="44.8551" lon="5.79043">
        <ele>923.937659</ele>
        <time>2025-07-10T11:12:53.000Z</time>
      </trkpt>
      <trkpt lat="44.85511" lon="5.79043">
        <ele>924.068587</ele>
        <time>2025-07-10T11:12:54.000Z</time>
      </trkpt>
      <trkpt lat="44.85513" lon="5.79042">
        <ele>924.187964</ele>
        <time>2025-07-10T11:12:55.000Z</time>
      </trkpt>
      <trkpt lat="44.85514" lon="5.79041">
        <ele>924.310366</ele>
        <time>2025-07-10T11:12:56.000Z</time>
      </trkpt>
      <trkpt lat="44.85516" lon="5.7904">
        <ele>924.43457</ele>
        <time>2025-07-10T11:12:57.000Z</time>
      </trkpt>
      <trkpt lat="44.85518" lon="5.79039">
        <ele>924.563791</ele>
        <time>2025-07-10T11:12:58.000Z</time>
      </trkpt>
      <trkpt lat="44.85519" lon="5.79039">
        <ele>924.686194</ele>
        <time>2025-07-10T11:12:59.000Z</time>
      </trkpt>
      <trkpt lat="44.85521" lon="5.79038">
        <ele>924.797331</ele>
        <time>2025-07-10T11:13:00.000Z</time>
      </trkpt>
      <trkpt lat="44.85522" lon="5.79038">
        <ele>924.909754</ele>
        <time>2025-07-10T11:13:01.000Z</time>
      </trkpt>
      <trkpt lat="44.85524" lon="5.79037">
        <ele>925.030545</ele>
        <time>2025-07-10T11:13:02.000Z</time>
      </trkpt>
      <trkpt lat="44.85526" lon="5.79036">
        <ele>925.154749</ele>
        <time>2025-07-10T11:13:03.000Z</time>
      </trkpt>
      <trkpt lat="44.85527" lon="5.79035">
        <ele>925.27554</ele>
        <time>2025-07-10T11:13:04.000Z</time>
      </trkpt>
      <trkpt lat="44.85529" lon="5.79035">
        <ele>925.403235</ele>
        <time>2025-07-10T11:13:05.000Z</time>
      </trkpt>
      <trkpt lat="44.8553" lon="5.79034">
        <ele>925.518866</ele>
        <time>2025-07-10T11:13:06.000Z</time>
      </trkpt>
      <trkpt lat="44.85532" lon="5.79033">
        <ele>925.63279</ele>
        <time>2025-07-10T11:13:07.000Z</time>
      </trkpt>
      <trkpt lat="44.85533" lon="5.79032">
        <ele>925.745214</ele>
        <time>2025-07-10T11:13:08.000Z</time>
      </trkpt>
      <trkpt lat="44.85535" lon="5.79032">
        <ele>925.849347</ele>
        <time>2025-07-10T11:13:09.000Z</time>
      </trkpt>
      <trkpt lat="44.85536" lon="5.79031">
        <ele>925.946507</ele>
        <time>2025-07-10T11:13:10.000Z</time>
      </trkpt>
      <trkpt lat="44.85537" lon="5.79031">
        <ele>926.046841</ele>
        <time>2025-07-10T11:13:11.000Z</time>
      </trkpt>
      <trkpt lat="44.85539" lon="5.7903">
        <ele>926.145469</ele>
        <time>2025-07-10T11:13:12.000Z</time>
      </trkpt>
      <trkpt lat="44.8554" lon="5.79029">
        <ele>926.26626</ele>
        <time>2025-07-10T11:13:13.000Z</time>
      </trkpt>
      <trkpt lat="44.85542" lon="5.79029">
        <ele>926.390463</ele>
        <time>2025-07-10T11:13:14.000Z</time>
      </trkpt>
      <trkpt lat="44.85543" lon="5.79028">
        <ele>926.510092</ele>
        <time>2025-07-10T11:13:15.000Z</time>
      </trkpt>
      <trkpt lat="44.85545" lon="5.79027">
        <ele>926.621029</ele>
        <time>2025-07-10T11:13:16.000Z</time>
      </trkpt>
      <trkpt lat="44.85546" lon="5.79026">
        <ele>926.738565</ele>
        <time>2025-07-10T11:13:17.000Z</time>
      </trkpt>
      <trkpt lat="44.85548" lon="5.79025">
        <ele>926.862906</ele>
        <time>2025-07-10T11:13:18.000Z</time>
      </trkpt>
      <trkpt lat="44.85549" lon="5.79023">
        <ele>926.980837</ele>
        <time>2025-07-10T11:13:19.000Z</time>
      </trkpt>
      <trkpt lat="44.8555" lon="5.79022">
        <ele>927.09896</ele>
        <time>2025-07-10T11:13:20.000Z</time>
      </trkpt>
      <trkpt lat="44.85552" lon="5.79021">
        <ele>927.227302</ele>
        <time>2025-07-10T11:13:21.000Z</time>
      </trkpt>
      <trkpt lat="44.85554" lon="5.7902">
        <ele>927.353488</ele>
        <time>2025-07-10T11:13:22.000Z</time>
      </trkpt>
      <trkpt lat="44.85555" lon="5.79019">
        <ele>927.464424</ele>
        <time>2025-07-10T11:13:23.000Z</time>
      </trkpt>
      <trkpt lat="44.85557" lon="5.79018">
        <ele>927.578348</ele>
        <time>2025-07-10T11:13:24.000Z</time>
      </trkpt>
      <trkpt lat="44.85558" lon="5.79017">
        <ele>927.70075</ele>
        <time>2025-07-10T11:13:25.000Z</time>
      </trkpt>
      <trkpt lat="44.8556" lon="5.79017">
        <ele>927.824954</ele>
        <time>2025-07-10T11:13:26.000Z</time>
      </trkpt>
      <trkpt lat="44.85561" lon="5.79016">
        <ele>927.949157</ele>
        <time>2025-07-10T11:13:27.000Z</time>
      </trkpt>
      <trkpt lat="44.85563" lon="5.79015">
        <ele>928.064708</ele>
        <time>2025-07-10T11:13:28.000Z</time>
      </trkpt>
      <trkpt lat="44.85564" lon="5.79013">
        <ele>928.182831</ele>
        <time>2025-07-10T11:13:29.000Z</time>
      </trkpt>
      <trkpt lat="44.85566" lon="5.79012">
        <ele>928.307172</ele>
        <time>2025-07-10T11:13:30.000Z</time>
      </trkpt>
      <trkpt lat="44.85567" lon="5.79011">
        <ele>928.420324</ele>
        <time>2025-07-10T11:13:31.000Z</time>
      </trkpt>
      <trkpt lat="44.85569" lon="5.7901">
        <ele>928.539953</ele>
        <time>2025-07-10T11:13:32.000Z</time>
      </trkpt>
      <trkpt lat="44.8557" lon="5.79009">
        <ele>928.660809</ele>
        <time>2025-07-10T11:13:33.000Z</time>
      </trkpt>
      <trkpt lat="44.85571" lon="5.79007">
        <ele>928.784549</ele>
        <time>2025-07-10T11:13:34.000Z</time>
      </trkpt>
      <trkpt lat="44.85573" lon="5.79006">
        <ele>928.914469</ele>
        <time>2025-07-10T11:13:35.000Z</time>
      </trkpt>
      <trkpt lat="44.85574" lon="5.79005">
        <ele>929.047606</ele>
        <time>2025-07-10T11:13:36.000Z</time>
      </trkpt>
      <trkpt lat="44.85576" lon="5.79003">
        <ele>929.175948</ele>
        <time>2025-07-10T11:13:37.000Z</time>
      </trkpt>
      <trkpt lat="44.85577" lon="5.79003">
        <ele>929.291579</ele>
        <time>2025-07-10T11:13:38.000Z</time>
      </trkpt>
      <trkpt lat="44.85579" lon="5.79002">
        <ele>929.419921</ele>
        <time>2025-07-10T11:13:39.000Z</time>
      </trkpt>
      <trkpt lat="44.8558" lon="5.79">
        <ele>929.547739</ele>
        <time>2025-07-10T11:13:40.000Z</time>
      </trkpt>
      <trkpt lat="44.85582" lon="5.78998">
        <ele>929.683338</ele>
        <time>2025-07-10T11:13:41.000Z</time>
      </trkpt>
      <trkpt lat="44.85583" lon="5.78997">
        <ele>929.810278</ele>
        <time>2025-07-10T11:13:42.000Z</time>
      </trkpt>
      <trkpt lat="44.85585" lon="5.78996">
        <ele>929.952218</ele>
        <time>2025-07-10T11:13:43.000Z</time>
      </trkpt>
      <trkpt lat="44.85587" lon="5.78994">
        <ele>930.040903</ele>
        <time>2025-07-10T11:13:44.000Z</time>
      </trkpt>
      <trkpt lat="44.85588" lon="5.78993">
        <ele>930.080174</ele>
        <time>2025-07-10T11:13:45.000Z</time>
      </trkpt>
      <trkpt lat="44.8559" lon="5.78991">
        <ele>930.122438</ele>
        <time>2025-07-10T11:13:46.000Z</time>
      </trkpt>
      <trkpt lat="44.85592" lon="5.78989">
        <ele>930.164668</ele>
        <time>2025-07-10T11:13:47.000Z</time>
      </trkpt>
      <trkpt lat="44.85594" lon="5.78987">
        <ele>930.206114</ele>
        <time>2025-07-10T11:13:48.000Z</time>
      </trkpt>
      <trkpt lat="44.85596" lon="5.78985">
        <ele>930.249106</ele>
        <time>2025-07-10T11:13:49.000Z</time>
      </trkpt>
      <trkpt lat="44.85598" lon="5.78984">
        <ele>930.29597</ele>
        <time>2025-07-10T11:13:50.000Z</time>
      </trkpt>
      <trkpt lat="44.856" lon="5.78982">
        <ele>930.342021</ele>
        <time>2025-07-10T11:13:51.000Z</time>
      </trkpt>
      <trkpt lat="44.85602" lon="5.78979">
        <ele>930.390374</ele>
        <time>2025-07-10T11:13:52.000Z</time>
      </trkpt>
      <trkpt lat="44.85604" lon="5.78977">
        <ele>930.441127</ele>
        <time>2025-07-10T11:13:53.000Z</time>
      </trkpt>
      <trkpt lat="44.85607" lon="5.78975">
        <ele>930.493488</ele>
        <time>2025-07-10T11:13:54.000Z</time>
      </trkpt>
      <trkpt lat="44.85609" lon="5.78974">
        <ele>930.543555</ele>
        <time>2025-07-10T11:13:55.000Z</time>
      </trkpt>
      <trkpt lat="44.85611" lon="5.78971">
        <ele>930.595019</ele>
        <time>2025-07-10T11:13:56.000Z</time>
      </trkpt>
      <trkpt lat="44.85614" lon="5.78969">
        <ele>930.647381</ele>
        <time>2025-07-10T11:13:57.000Z</time>
      </trkpt>
      <trkpt lat="44.85616" lon="5.78968">
        <ele>930.698439</ele>
        <time>2025-07-10T11:13:58.000Z</time>
      </trkpt>
      <trkpt lat="44.85619" lon="5.78966">
        <ele>930.752426</ele>
        <time>2025-07-10T11:13:59.000Z</time>
      </trkpt>
      <trkpt lat="44.85621" lon="5.78963">
        <ele>930.809378</ele>
        <time>2025-07-10T11:14:00.000Z</time>
      </trkpt>
      <trkpt lat="44.85624" lon="5.78961">
        <ele>930.865443</ele>
        <time>2025-07-10T11:14:01.000Z</time>
      </trkpt>
      <trkpt lat="44.85626" lon="5.78959">
        <ele>930.922395</ele>
        <time>2025-07-10T11:14:02.000Z</time>
      </trkpt>
      <trkpt lat="44.85629" lon="5.78957">
        <ele>930.981963</ele>
        <time>2025-07-10T11:14:03.000Z</time>
      </trkpt>
      <trkpt lat="44.85632" lon="5.78955">
        <ele>931.043196</ele>
        <time>2025-07-10T11:14:04.000Z</time>
      </trkpt>
      <trkpt lat="44.85635" lon="5.78953">
        <ele>931.106105</ele>
        <time>2025-07-10T11:14:05.000Z</time>
      </trkpt>
      <trkpt lat="44.85638" lon="5.78951">
        <ele>931.170138</ele>
        <time>2025-07-10T11:14:06.000Z</time>
      </trkpt>
      <trkpt lat="44.85641" lon="5.78949">
        <ele>931.232468</ele>
        <time>2025-07-10T11:14:07.000Z</time>
      </trkpt>
      <trkpt lat="44.85644" lon="5.78947">
        <ele>931.294797</ele>
        <time>2025-07-10T11:14:08.000Z</time>
      </trkpt>
      <trkpt lat="44.85647" lon="5.78945">
        <ele>931.357126</ele>
        <time>2025-07-10T11:14:09.000Z</time>
      </trkpt>
      <trkpt lat="44.8565" lon="5.78942">
        <ele>931.422578</ele>
        <time>2025-07-10T11:14:10.000Z</time>
      </trkpt>
      <trkpt lat="44.85653" lon="5.7894">
        <ele>931.48661</ele>
        <time>2025-07-10T11:14:11.000Z</time>
      </trkpt>
      <trkpt lat="44.85656" lon="5.78939">
        <ele>931.548808</ele>
        <time>2025-07-10T11:14:12.000Z</time>
      </trkpt>
      <trkpt lat="44.8566" lon="5.78938">
        <ele>931.611006</ele>
        <time>2025-07-10T11:14:13.000Z</time>
      </trkpt>
      <trkpt lat="44.85663" lon="5.78936">
        <ele>931.671736</ele>
        <time>2025-07-10T11:14:14.000Z</time>
      </trkpt>
      <trkpt lat="44.85666" lon="5.78934">
        <ele>931.734065</ele>
        <time>2025-07-10T11:14:15.000Z</time>
      </trkpt>
      <trkpt lat="44.85668" lon="5.78932">
        <ele>931.791866</ele>
        <time>2025-07-10T11:14:16.000Z</time>
      </trkpt>
      <trkpt lat="44.85671" lon="5.78931">
        <ele>931.849127</ele>
        <time>2025-07-10T11:14:17.000Z</time>
      </trkpt>
      <trkpt lat="44.85674" lon="5.78929">
        <ele>931.903162</ele>
        <time>2025-07-10T11:14:18.000Z</time>
      </trkpt>
      <trkpt lat="44.85677" lon="5.78928">
        <ele>931.958534</ele>
        <time>2025-07-10T11:14:19.000Z</time>
      </trkpt>
      <trkpt lat="44.8568" lon="5.78927">
        <ele>932.015304</ele>
        <time>2025-07-10T11:14:20.000Z</time>
      </trkpt>
      <trkpt lat="44.85682" lon="5.78925">
        <ele>932.066691</ele>
        <time>2025-07-10T11:14:21.000Z</time>
      </trkpt>
      <trkpt lat="44.85685" lon="5.78924">
        <ele>932.118508</ele>
        <time>2025-07-10T11:14:22.000Z</time>
      </trkpt>
      <trkpt lat="44.85687" lon="5.78923">
        <ele>932.170784</ele>
        <time>2025-07-10T11:14:23.000Z</time>
      </trkpt>
      <trkpt lat="44.8569" lon="5.78921">
        <ele>932.220648</ele>
        <time>2025-07-10T11:14:24.000Z</time>
      </trkpt>
      <trkpt lat="44.85692" lon="5.78919">
        <ele>932.27278</ele>
        <time>2025-07-10T11:14:25.000Z</time>
      </trkpt>
      <trkpt lat="44.85695" lon="5.78918">
        <ele>932.323306</ele>
        <time>2025-07-10T11:14:26.000Z</time>
      </trkpt>
      <trkpt lat="44.85697" lon="5.78917">
        <ele>932.372118</ele>
        <time>2025-07-10T11:14:27.000Z</time>
      </trkpt>
      <trkpt lat="44.857" lon="5.78916">
        <ele>932.418767</ele>
        <time>2025-07-10T11:14:28.000Z</time>
      </trkpt>
      <trkpt lat="44.85702" lon="5.78915">
        <ele>932.466921</ele>
        <time>2025-07-10T11:14:29.000Z</time>
      </trkpt>
      <trkpt lat="44.85705" lon="5.78915">
        <ele>932.514798</ele>
        <time>2025-07-10T11:14:30.000Z</time>
      </trkpt>
      <trkpt lat="44.85707" lon="5.78914">
        <ele>932.564519</ele>
        <time>2025-07-10T11:14:31.000Z</time>
      </trkpt>
      <trkpt lat="44.8571" lon="5.78913">
        <ele>932.612985</ele>
        <time>2025-07-10T11:14:32.000Z</time>
      </trkpt>
      <trkpt lat="44.85712" lon="5.78912">
        <ele>932.662177</ele>
        <time>2025-07-10T11:14:33.000Z</time>
      </trkpt>
      <trkpt lat="44.85715" lon="5.78911">
        <ele>932.710469</ele>
        <time>2025-07-10T11:14:34.000Z</time>
      </trkpt>
      <trkpt lat="44.85717" lon="5.78909">
        <ele>932.7583</ele>
        <time>2025-07-10T11:14:35.000Z</time>
      </trkpt>
      <trkpt lat="44.8572" lon="5.78908">
        <ele>932.810116</ele>
        <time>2025-07-10T11:14:36.000Z</time>
      </trkpt>
      <trkpt lat="44.85722" lon="5.78907">
        <ele>932.858408</ele>
        <time>2025-07-10T11:14:37.000Z</time>
      </trkpt>
      <trkpt lat="44.85725" lon="5.78906">
        <ele>932.906239</ele>
        <time>2025-07-10T11:14:38.000Z</time>
      </trkpt>
      <trkpt lat="44.85727" lon="5.78904">
        <ele>932.955844</ele>
        <time>2025-07-10T11:14:39.000Z</time>
      </trkpt>
      <trkpt lat="44.8573" lon="5.78903">
        <ele>933.006833</ele>
        <time>2025-07-10T11:14:40.000Z</time>
      </trkpt>
      <trkpt lat="44.85732" lon="5.78902">
        <ele>933.056883</ele>
        <time>2025-07-10T11:14:41.000Z</time>
      </trkpt>
      <trkpt lat="44.85735" lon="5.78901">
        <ele>933.109159</ele>
        <time>2025-07-10T11:14:42.000Z</time>
      </trkpt>
      <trkpt lat="44.85738" lon="5.78899">
        <ele>933.16542</ele>
        <time>2025-07-10T11:14:43.000Z</time>
      </trkpt>
      <trkpt lat="44.8574" lon="5.78898">
        <ele>933.220792</ele>
        <time>2025-07-10T11:14:44.000Z</time>
      </trkpt>
      <trkpt lat="44.85743" lon="5.78897">
        <ele>933.281176</ele>
        <time>2025-07-10T11:14:45.000Z</time>
      </trkpt>
      <trkpt lat="44.85747" lon="5.78896">
        <ele>933.346417</ele>
        <time>2025-07-10T11:14:46.000Z</time>
      </trkpt>
      <trkpt lat="44.8575" lon="5.78895">
        <ele>933.364551</ele>
        <time>2025-07-10T11:14:47.000Z</time>
      </trkpt>
      <trkpt lat="44.85754" lon="5.78893">
        <ele>933.137414</ele>
        <time>2025-07-10T11:14:48.000Z</time>
      </trkpt>
      <trkpt lat="44.85759" lon="5.78893">
        <ele>932.895375</ele>
        <time>2025-07-10T11:14:49.000Z</time>
      </trkpt>
      <trkpt lat="44.85763" lon="5.78892">
        <ele>932.625862</ele>
        <time>2025-07-10T11:14:50.000Z</time>
      </trkpt>
      <trkpt lat="44.85768" lon="5.78891">
        <ele>932.344592</ele>
        <time>2025-07-10T11:14:51.000Z</time>
      </trkpt>
      <trkpt lat="44.85773" lon="5.78891">
        <ele>932.051536</ele>
        <time>2025-07-10T11:14:52.000Z</time>
      </trkpt>
      <trkpt lat="44.85779" lon="5.7889">
        <ele>931.731618</ele>
        <time>2025-07-10T11:14:53.000Z</time>
      </trkpt>
      <trkpt lat="44.85785" lon="5.7889">
        <ele>931.400355</ele>
        <time>2025-07-10T11:14:54.000Z</time>
      </trkpt>
      <trkpt lat="44.85791" lon="5.78891">
        <ele>931.0576</ele>
        <time>2025-07-10T11:14:55.000Z</time>
      </trkpt>
      <trkpt lat="44.85797" lon="5.78891">
        <ele>930.692074</ele>
        <time>2025-07-10T11:14:56.000Z</time>
      </trkpt>
      <trkpt lat="44.85804" lon="5.78891">
        <ele>930.309352</ele>
        <time>2025-07-10T11:14:57.000Z</time>
      </trkpt>
      <trkpt lat="44.85811" lon="5.78891">
        <ele>929.915293</ele>
        <time>2025-07-10T11:14:58.000Z</time>
      </trkpt>
      <trkpt lat="44.85818" lon="5.7889">
        <ele>929.509086</ele>
        <time>2025-07-10T11:14:59.000Z</time>
      </trkpt>
      <trkpt lat="44.85825" lon="5.78889">
        <ele>929.076478</ele>
        <time>2025-07-10T11:15:00.000Z</time>
      </trkpt>
      <trkpt lat="44.85833" lon="5.78887">
        <ele>928.623722</ele>
        <time>2025-07-10T11:15:01.000Z</time>
      </trkpt>
      <trkpt lat="44.85841" lon="5.78884">
        <ele>928.164069</ele>
        <time>2025-07-10T11:15:02.000Z</time>
      </trkpt>
      <trkpt lat="44.85849" lon="5.7888">
        <ele>927.668159</ele>
        <time>2025-07-10T11:15:03.000Z</time>
      </trkpt>
      <trkpt lat="44.85858" lon="5.78876">
        <ele>927.152081</ele>
        <time>2025-07-10T11:15:04.000Z</time>
      </trkpt>
      <trkpt lat="44.85866" lon="5.7887">
        <ele>926.61802</ele>
        <time>2025-07-10T11:15:05.000Z</time>
      </trkpt>
      <trkpt lat="44.85875" lon="5.78865">
        <ele>926.06834</ele>
        <time>2025-07-10T11:15:06.000Z</time>
      </trkpt>
      <trkpt lat="44.85884" lon="5.78859">
        <ele>925.50326</ele>
        <time>2025-07-10T11:15:07.000Z</time>
      </trkpt>
      <trkpt lat="44.85893" lon="5.78853">
        <ele>924.922559</ele>
        <time>2025-07-10T11:15:08.000Z</time>
      </trkpt>
      <trkpt lat="44.85902" lon="5.78846">
        <ele>924.343652</ele>
        <time>2025-07-10T11:15:09.000Z</time>
      </trkpt>
      <trkpt lat="44.85911" lon="5.78841">
        <ele>923.769804</ele>
        <time>2025-07-10T11:15:10.000Z</time>
      </trkpt>
      <trkpt lat="44.85921" lon="5.78836">
        <ele>923.190732</ele>
        <time>2025-07-10T11:15:11.000Z</time>
      </trkpt>
      <trkpt lat="44.8593" lon="5.78831">
        <ele>922.570191</ele>
        <time>2025-07-10T11:15:12.000Z</time>
      </trkpt>
      <trkpt lat="44.8594" lon="5.78828">
        <ele>921.944938</ele>
        <time>2025-07-10T11:15:13.000Z</time>
      </trkpt>
      <trkpt lat="44.8595" lon="5.78823">
        <ele>921.278245</ele>
        <time>2025-07-10T11:15:14.000Z</time>
      </trkpt>
      <trkpt lat="44.8596" lon="5.78818">
        <ele>920.58069</ele>
        <time>2025-07-10T11:15:15.000Z</time>
      </trkpt>
      <trkpt lat="44.85971" lon="5.78813">
        <ele>919.897902</ele>
        <time>2025-07-10T11:15:16.000Z</time>
      </trkpt>
      <trkpt lat="44.85981" lon="5.78808">
        <ele>919.203994</ele>
        <time>2025-07-10T11:15:17.000Z</time>
      </trkpt>
      <trkpt lat="44.85991" lon="5.78803">
        <ele>918.535169</ele>
        <time>2025-07-10T11:15:18.000Z</time>
      </trkpt>
      <trkpt lat="44.86001" lon="5.788">
        <ele>917.892561</ele>
        <time>2025-07-10T11:15:19.000Z</time>
      </trkpt>
      <trkpt lat="44.86011" lon="5.78799">
        <ele>917.28355</ele>
        <time>2025-07-10T11:15:20.000Z</time>
      </trkpt>
      <trkpt lat="44.8602" lon="5.78799">
        <ele>916.685558</ele>
        <time>2025-07-10T11:15:21.000Z</time>
      </trkpt>
      <trkpt lat="44.8603" lon="5.78799">
        <ele>916.081025</ele>
        <time>2025-07-10T11:15:22.000Z</time>
      </trkpt>
      <trkpt lat="44.8604" lon="5.78799">
        <ele>915.470445</ele>
        <time>2025-07-10T11:15:23.000Z</time>
      </trkpt>
      <trkpt lat="44.8605" lon="5.78799">
        <ele>914.840855</ele>
        <time>2025-07-10T11:15:24.000Z</time>
      </trkpt>
      <trkpt lat="44.86059" lon="5.78797">
        <ele>914.219351</ele>
        <time>2025-07-10T11:15:25.000Z</time>
      </trkpt>
      <trkpt lat="44.86069" lon="5.78794">
        <ele>913.582907</ele>
        <time>2025-07-10T11:15:26.000Z</time>
      </trkpt>
      <trkpt lat="44.86079" lon="5.78791">
        <ele>912.94767</ele>
        <time>2025-07-10T11:15:27.000Z</time>
      </trkpt>
      <trkpt lat="44.86088" lon="5.78786">
        <ele>912.319929</ele>
        <time>2025-07-10T11:15:28.000Z</time>
      </trkpt>
      <trkpt lat="44.86098" lon="5.78781">
        <ele>911.669397</ele>
        <time>2025-07-10T11:15:29.000Z</time>
      </trkpt>
      <trkpt lat="44.86107" lon="5.78775">
        <ele>910.904106</ele>
        <time>2025-07-10T11:15:30.000Z</time>
      </trkpt>
      <trkpt lat="44.86115" lon="5.78769">
        <ele>910.196635</ele>
        <time>2025-07-10T11:15:31.000Z</time>
      </trkpt>
      <trkpt lat="44.86122" lon="5.78764">
        <ele>909.60255</ele>
        <time>2025-07-10T11:15:32.000Z</time>
      </trkpt>
      <trkpt lat="44.86126" lon="5.78758">
        <ele>909.133332</ele>
        <time>2025-07-10T11:15:33.000Z</time>
      </trkpt>
      <trkpt lat="44.86129" lon="5.78751">
        <ele>908.694389</ele>
        <time>2025-07-10T11:15:34.000Z</time>
      </trkpt>
      <trkpt lat="44.86129" lon="5.78742">
        <ele>908.232576</ele>
        <time>2025-07-10T11:15:35.000Z</time>
      </trkpt>
      <trkpt lat="44.86127" lon="5.78734">
        <ele>907.742331</ele>
        <time>2025-07-10T11:15:36.000Z</time>
      </trkpt>
      <trkpt lat="44.86124" lon="5.78724">
        <ele>907.188958</ele>
        <time>2025-07-10T11:15:37.000Z</time>
      </trkpt>
      <trkpt lat="44.8612" lon="5.78715">
        <ele>906.596381</ele>
        <time>2025-07-10T11:15:38.000Z</time>
      </trkpt>
      <trkpt lat="44.86116" lon="5.78705">
        <ele>905.992754</ele>
        <time>2025-07-10T11:15:39.000Z</time>
      </trkpt>
      <trkpt lat="44.86111" lon="5.78695">
        <ele>905.326199</ele>
        <time>2025-07-10T11:15:40.000Z</time>
      </trkpt>
      <trkpt lat="44.86108" lon="5.78683">
        <ele>904.609058</ele>
        <time>2025-07-10T11:15:41.000Z</time>
      </trkpt>
      <trkpt lat="44.86105" lon="5.7867">
        <ele>903.880503</ele>
        <time>2025-07-10T11:15:42.000Z</time>
      </trkpt>
      <trkpt lat="44.86104" lon="5.78656">
        <ele>903.101258</ele>
        <time>2025-07-10T11:15:43.000Z</time>
      </trkpt>
      <trkpt lat="44.86104" lon="5.78641">
        <ele>902.308131</ele>
        <time>2025-07-10T11:15:44.000Z</time>
      </trkpt>
      <trkpt lat="44.86103" lon="5.78626">
        <ele>901.486091</ele>
        <time>2025-07-10T11:15:45.000Z</time>
      </trkpt>
      <trkpt lat="44.86101" lon="5.78611">
        <ele>900.652387</ele>
        <time>2025-07-10T11:15:46.000Z</time>
      </trkpt>
      <trkpt lat="44.86097" lon="5.78596">
        <ele>899.789173</ele>
        <time>2025-07-10T11:15:47.000Z</time>
      </trkpt>
      <trkpt lat="44.86092" lon="5.78582">
        <ele>898.918081</ele>
        <time>2025-07-10T11:15:48.000Z</time>
      </trkpt>
      <trkpt lat="44.86087" lon="5.78567">
        <ele>898.05331</ele>
        <time>2025-07-10T11:15:49.000Z</time>
      </trkpt>
      <trkpt lat="44.86082" lon="5.78553">
        <ele>897.217229</ele>
        <time>2025-07-10T11:15:50.000Z</time>
      </trkpt>
      <trkpt lat="44.86076" lon="5.78539">
        <ele>896.390697</ele>
        <time>2025-07-10T11:15:51.000Z</time>
      </trkpt>
      <trkpt lat="44.86071" lon="5.78525">
        <ele>895.570907</ele>
        <time>2025-07-10T11:15:52.000Z</time>
      </trkpt>
      <trkpt lat="44.86066" lon="5.78511">
        <ele>894.75567</ele>
        <time>2025-07-10T11:15:53.000Z</time>
      </trkpt>
      <trkpt lat="44.8606" lon="5.78497">
        <ele>893.919505</ele>
        <time>2025-07-10T11:15:54.000Z</time>
      </trkpt>
      <trkpt lat="44.86055" lon="5.78483">
        <ele>893.114464</ele>
        <time>2025-07-10T11:15:55.000Z</time>
      </trkpt>
      <trkpt lat="44.8605" lon="5.78469">
        <ele>892.318426</ele>
        <time>2025-07-10T11:15:56.000Z</time>
      </trkpt>
      <trkpt lat="44.86044" lon="5.78456">
        <ele>891.534885</ele>
        <time>2025-07-10T11:15:57.000Z</time>
      </trkpt>
      <trkpt lat="44.86037" lon="5.78444">
        <ele>890.752367</ele>
        <time>2025-07-10T11:15:58.000Z</time>
      </trkpt>
      <trkpt lat="44.86031" lon="5.78432">
        <ele>889.97288</ele>
        <time>2025-07-10T11:15:59.000Z</time>
      </trkpt>
      <trkpt lat="44.86024" lon="5.7842">
        <ele>889.187575</ele>
        <time>2025-07-10T11:16:00.000Z</time>
      </trkpt>
      <trkpt lat="44.86017" lon="5.78409">
        <ele>888.406182</ele>
        <time>2025-07-10T11:16:01.000Z</time>
      </trkpt>
      <trkpt lat="44.8601" lon="5.78397">
        <ele>887.624789</ele>
        <time>2025-07-10T11:16:02.000Z</time>
      </trkpt>
      <trkpt lat="44.86003" lon="5.78386">
        <ele>886.84256</ele>
        <time>2025-07-10T11:16:03.000Z</time>
      </trkpt>
      <trkpt lat="44.85995" lon="5.78374">
        <ele>886.058362</ele>
        <time>2025-07-10T11:16:04.000Z</time>
      </trkpt>
      <trkpt lat="44.85988" lon="5.78363">
        <ele>885.281638</ele>
        <time>2025-07-10T11:16:05.000Z</time>
      </trkpt>
      <trkpt lat="44.85983" lon="5.7835">
        <ele>884.476754</ele>
        <time>2025-07-10T11:16:06.000Z</time>
      </trkpt>
      <trkpt lat="44.85978" lon="5.78337">
        <ele>883.657638</ele>
        <time>2025-07-10T11:16:07.000Z</time>
      </trkpt>
      <trkpt lat="44.85975" lon="5.78323">
        <ele>882.855048</ele>
        <time>2025-07-10T11:16:08.000Z</time>
      </trkpt>
      <trkpt lat="44.85973" lon="5.78309">
        <ele>882.054758</ele>
        <time>2025-07-10T11:16:09.000Z</time>
      </trkpt>
      <trkpt lat="44.85971" lon="5.78295">
        <ele>881.249118</ele>
        <time>2025-07-10T11:16:10.000Z</time>
      </trkpt>
      <trkpt lat="44.8597" lon="5.78281">
        <ele>880.451023</ele>
        <time>2025-07-10T11:16:11.000Z</time>
      </trkpt>
      <trkpt lat="44.85969" lon="5.78266">
        <ele>879.644261</ele>
        <time>2025-07-10T11:16:12.000Z</time>
      </trkpt>
      <trkpt lat="44.85968" lon="5.78252">
        <ele>878.836768</ele>
        <time>2025-07-10T11:16:13.000Z</time>
      </trkpt>
      <trkpt lat="44.85966" lon="5.78238">
        <ele>878.028792</ele>
        <time>2025-07-10T11:16:14.000Z</time>
      </trkpt>
      <trkpt lat="44.85963" lon="5.78224">
        <ele>877.196508</ele>
        <time>2025-07-10T11:16:15.000Z</time>
      </trkpt>
      <trkpt lat="44.85959" lon="5.78209">
        <ele>876.348924</ele>
        <time>2025-07-10T11:16:16.000Z</time>
      </trkpt>
      <trkpt lat="44.85955" lon="5.78195">
        <ele>875.491024</ele>
        <time>2025-07-10T11:16:17.000Z</time>
      </trkpt>
      <trkpt lat="44.8595" lon="5.78181">
        <ele>874.615891</ele>
        <time>2025-07-10T11:16:18.000Z</time>
      </trkpt>
      <trkpt lat="44.85946" lon="5.78166">
        <ele>873.716253</ele>
        <time>2025-07-10T11:16:19.000Z</time>
      </trkpt>
      <trkpt lat="44.85943" lon="5.78151">
        <ele>872.8137</ele>
        <time>2025-07-10T11:16:20.000Z</time>
      </trkpt>
      <trkpt lat="44.8594" lon="5.78135">
        <ele>871.914888</ele>
        <time>2025-07-10T11:16:21.000Z</time>
      </trkpt>
      <trkpt lat="44.85937" lon="5.78119">
        <ele>871.000551</ele>
        <time>2025-07-10T11:16:22.000Z</time>
      </trkpt>
      <trkpt lat="44.85934" lon="5.78103">
        <ele>870.097359</ele>
        <time>2025-07-10T11:16:23.000Z</time>
      </trkpt>
      <trkpt lat="44.85932" lon="5.78087">
        <ele>869.20202</ele>
        <time>2025-07-10T11:16:24.000Z</time>
      </trkpt>
      <trkpt lat="44.8593" lon="5.78071">
        <ele>868.310403</ele>
        <time>2025-07-10T11:16:25.000Z</time>
      </trkpt>
      <trkpt lat="44.85929" lon="5.78055">
        <ele>867.452026</ele>
        <time>2025-07-10T11:16:26.000Z</time>
      </trkpt>
      <trkpt lat="44.8593" lon="5.7804">
        <ele>866.663988</ele>
        <time>2025-07-10T11:16:27.000Z</time>
      </trkpt>
      <trkpt lat="44.85931" lon="5.78027">
        <ele>865.94721</ele>
        <time>2025-07-10T11:16:28.000Z</time>
      </trkpt>
      <trkpt lat="44.85932" lon="5.78016">
        <ele>865.301883</ele>
        <time>2025-07-10T11:16:29.000Z</time>
      </trkpt>
      <trkpt lat="44.85932" lon="5.78006">
        <ele>864.779951</ele>
        <time>2025-07-10T11:16:30.000Z</time>
      </trkpt>
      <trkpt lat="44.85928" lon="5.77998">
        <ele>864.249059</ele>
        <time>2025-07-10T11:16:31.000Z</time>
      </trkpt>
      <trkpt lat="44.85922" lon="5.77994">
        <ele>863.727558</ele>
        <time>2025-07-10T11:16:32.000Z</time>
      </trkpt>
      <trkpt lat="44.85915" lon="5.77994">
        <ele>863.199752</ele>
        <time>2025-07-10T11:16:33.000Z</time>
      </trkpt>
      <trkpt lat="44.85908" lon="5.77998">
        <ele>862.637007</ele>
        <time>2025-07-10T11:16:34.000Z</time>
      </trkpt>
      <trkpt lat="44.85903" lon="5.78006">
        <ele>862.048466</ele>
        <time>2025-07-10T11:16:35.000Z</time>
      </trkpt>
      <trkpt lat="44.85899" lon="5.78016">
        <ele>861.429594</ele>
        <time>2025-07-10T11:16:36.000Z</time>
      </trkpt>
      <trkpt lat="44.85895" lon="5.78027">
        <ele>860.78388</ele>
        <time>2025-07-10T11:16:37.000Z</time>
      </trkpt>
      <trkpt lat="44.85892" lon="5.78038">
        <ele>860.113262</ele>
        <time>2025-07-10T11:16:38.000Z</time>
      </trkpt>
      <trkpt lat="44.85889" lon="5.7805">
        <ele>859.420398</ele>
        <time>2025-07-10T11:16:39.000Z</time>
      </trkpt>
      <trkpt lat="44.85885" lon="5.78062">
        <ele>858.702801</ele>
        <time>2025-07-10T11:16:40.000Z</time>
      </trkpt>
      <trkpt lat="44.85881" lon="5.78074">
        <ele>857.970709</ele>
        <time>2025-07-10T11:16:41.000Z</time>
      </trkpt>
      <trkpt lat="44.85876" lon="5.78086">
        <ele>857.219805</ele>
        <time>2025-07-10T11:16:42.000Z</time>
      </trkpt>
      <trkpt lat="44.8587" lon="5.78098">
        <ele>856.347466</ele>
        <time>2025-07-10T11:16:43.000Z</time>
      </trkpt>
      <trkpt lat="44.85863" lon="5.78109">
        <ele>855.422919</ele>
        <time>2025-07-10T11:16:44.000Z</time>
      </trkpt>
      <trkpt lat="44.85855" lon="5.78119">
        <ele>854.494273</ele>
        <time>2025-07-10T11:16:45.000Z</time>
      </trkpt>
      <trkpt lat="44.85846" lon="5.78128">
        <ele>853.561112</ele>
        <time>2025-07-10T11:16:46.000Z</time>
      </trkpt>
      <trkpt lat="44.85837" lon="5.78136">
        <ele>852.613726</ele>
        <time>2025-07-10T11:16:47.000Z</time>
      </trkpt>
      <trkpt lat="44.85828" lon="5.78143">
        <ele>851.623633</ele>
        <time>2025-07-10T11:16:48.000Z</time>
      </trkpt>
      <trkpt lat="44.85817" lon="5.7815">
        <ele>850.6429</ele>
        <time>2025-07-10T11:16:49.000Z</time>
      </trkpt>
      <trkpt lat="44.85807" lon="5.78155">
        <ele>849.634932</ele>
        <time>2025-07-10T11:16:50.000Z</time>
      </trkpt>
      <trkpt lat="44.85795" lon="5.78158">
        <ele>848.629299</ele>
        <time>2025-07-10T11:16:51.000Z</time>
      </trkpt>
      <trkpt lat="44.85784" lon="5.7816">
        <ele>847.628025</ele>
        <time>2025-07-10T11:16:52.000Z</time>
      </trkpt>
      <trkpt lat="44.85773" lon="5.7816">
        <ele>846.614601</ele>
        <time>2025-07-10T11:16:53.000Z</time>
      </trkpt>
      <trkpt lat="44.85761" lon="5.78159">
        <ele>845.606884</ele>
        <time>2025-07-10T11:16:54.000Z</time>
      </trkpt>
      <trkpt lat="44.8575" lon="5.78156">
        <ele>844.587334</ele>
        <time>2025-07-10T11:16:55.000Z</time>
      </trkpt>
      <trkpt lat="44.85738" lon="5.78153">
        <ele>843.560692</ele>
        <time>2025-07-10T11:16:56.000Z</time>
      </trkpt>
      <trkpt lat="44.85727" lon="5.78149">
        <ele>842.542741</ele>
        <time>2025-07-10T11:16:57.000Z</time>
      </trkpt>
      <trkpt lat="44.85716" lon="5.78144">
        <ele>841.516086</ele>
        <time>2025-07-10T11:16:58.000Z</time>
      </trkpt>
      <trkpt lat="44.85706" lon="5.78137">
        <ele>840.796421</ele>
        <time>2025-07-10T11:16:59.000Z</time>
      </trkpt>
      <trkpt lat="44.85696" lon="5.78129">
        <ele>840.181807</ele>
        <time>2025-07-10T11:17:00.000Z</time>
      </trkpt>
      <trkpt lat="44.85687" lon="5.78119">
        <ele>839.564623</ele>
        <time>2025-07-10T11:17:01.000Z</time>
      </trkpt>
      <trkpt lat="44.85678" lon="5.78109">
        <ele>838.953252</ele>
        <time>2025-07-10T11:17:02.000Z</time>
      </trkpt>
      <trkpt lat="44.8567" lon="5.78098">
        <ele>838.33566</ele>
        <time>2025-07-10T11:17:03.000Z</time>
      </trkpt>
      <trkpt lat="44.85661" lon="5.78087">
        <ele>837.721755</ele>
        <time>2025-07-10T11:17:04.000Z</time>
      </trkpt>
      <trkpt lat="44.85653" lon="5.78077">
        <ele>837.111893</ele>
        <time>2025-07-10T11:17:05.000Z</time>
      </trkpt>
      <trkpt lat="44.85645" lon="5.78067">
        <ele>836.518755</ele>
        <time>2025-07-10T11:17:06.000Z</time>
      </trkpt>
      <trkpt lat="44.85637" lon="5.78057">
        <ele>835.937812</ele>
        <time>2025-07-10T11:17:07.000Z</time>
      </trkpt>
      <trkpt lat="44.85629" lon="5.78046">
        <ele>835.359493</ele>
        <time>2025-07-10T11:17:08.000Z</time>
      </trkpt>
      <trkpt lat="44.85622" lon="5.78035">
        <ele>834.79247</ele>
        <time>2025-07-10T11:17:09.000Z</time>
      </trkpt>
      <trkpt lat="44.85615" lon="5.78024">
        <ele>834.242592</ele>
        <time>2025-07-10T11:17:10.000Z</time>
      </trkpt>
      <trkpt lat="44.85609" lon="5.78013">
        <ele>833.70263</ele>
        <time>2025-07-10T11:17:11.000Z</time>
      </trkpt>
      <trkpt lat="44.85603" lon="5.78003">
        <ele>833.174957</ele>
        <time>2025-07-10T11:17:12.000Z</time>
      </trkpt>
      <trkpt lat="44.85597" lon="5.77992">
        <ele>832.666991</ele>
        <time>2025-07-10T11:17:13.000Z</time>
      </trkpt>
      <trkpt lat="44.85591" lon="5.77982">
        <ele>832.171367</ele>
        <time>2025-07-10T11:17:14.000Z</time>
      </trkpt>
      <trkpt lat="44.85585" lon="5.77973">
        <ele>831.688522</ele>
        <time>2025-07-10T11:17:15.000Z</time>
      </trkpt>
      <trkpt lat="44.8558" lon="5.77963">
        <ele>831.444249</ele>
        <time>2025-07-10T11:17:16.000Z</time>
      </trkpt>
      <trkpt lat="44.85575" lon="5.77953">
        <ele>831.341227</ele>
        <time>2025-07-10T11:17:17.000Z</time>
      </trkpt>
      <trkpt lat="44.8557" lon="5.77944">
        <ele>831.241588</ele>
        <time>2025-07-10T11:17:18.000Z</time>
      </trkpt>
      <trkpt lat="44.85564" lon="5.77935">
        <ele>831.14121</ele>
        <time>2025-07-10T11:17:19.000Z</time>
      </trkpt>
      <trkpt lat="44.85559" lon="5.77926">
        <ele>831.044285</ele>
        <time>2025-07-10T11:17:20.000Z</time>
      </trkpt>
      <trkpt lat="44.85554" lon="5.77917">
        <ele>830.948096</ele>
        <time>2025-07-10T11:17:21.000Z</time>
      </trkpt>
      <trkpt lat="44.85549" lon="5.77908">
        <ele>830.853301</ele>
        <time>2025-07-10T11:17:22.000Z</time>
      </trkpt>
      <trkpt lat="44.85544" lon="5.77899">
        <ele>830.760486</ele>
        <time>2025-07-10T11:17:23.000Z</time>
      </trkpt>
      <trkpt lat="44.8554" lon="5.77891">
        <ele>830.67186</ele>
        <time>2025-07-10T11:17:24.000Z</time>
      </trkpt>
      <trkpt lat="44.85535" lon="5.77882">
        <ele>830.583233</ele>
        <time>2025-07-10T11:17:25.000Z</time>
      </trkpt>
      <trkpt lat="44.85531" lon="5.77874">
        <ele>830.496582</ele>
        <time>2025-07-10T11:17:26.000Z</time>
      </trkpt>
      <trkpt lat="44.85526" lon="5.77867">
        <ele>830.411105</ele>
        <time>2025-07-10T11:17:27.000Z</time>
      </trkpt>
      <trkpt lat="44.85521" lon="5.77859">
        <ele>830.327158</ele>
        <time>2025-07-10T11:17:28.000Z</time>
      </trkpt>
      <trkpt lat="44.85517" lon="5.77852">
        <ele>830.245264</ele>
        <time>2025-07-10T11:17:29.000Z</time>
      </trkpt>
      <trkpt lat="44.85513" lon="5.77844">
        <ele>830.162066</ele>
        <time>2025-07-10T11:17:30.000Z</time>
      </trkpt>
      <trkpt lat="44.85508" lon="5.77836">
        <ele>830.079704</ele>
        <time>2025-07-10T11:17:31.000Z</time>
      </trkpt>
      <trkpt lat="44.85504" lon="5.77828">
        <ele>829.999364</ele>
        <time>2025-07-10T11:17:32.000Z</time>
      </trkpt>
      <trkpt lat="44.855" lon="5.77821">
        <ele>829.919692</ele>
        <time>2025-07-10T11:17:33.000Z</time>
      </trkpt>
      <trkpt lat="44.85496" lon="5.77814">
        <ele>829.841255</ele>
        <time>2025-07-10T11:17:34.000Z</time>
      </trkpt>
      <trkpt lat="44.85492" lon="5.77807">
        <ele>829.762555</ele>
        <time>2025-07-10T11:17:35.000Z</time>
      </trkpt>
      <trkpt lat="44.85487" lon="5.778">
        <ele>829.687318</ele>
        <time>2025-07-10T11:17:36.000Z</time>
      </trkpt>
      <trkpt lat="44.85483" lon="5.77793">
        <ele>829.613631</ele>
        <time>2025-07-10T11:17:37.000Z</time>
      </trkpt>
      <trkpt lat="44.85479" lon="5.77786">
        <ele>829.538536</ele>
        <time>2025-07-10T11:17:38.000Z</time>
      </trkpt>
      <trkpt lat="44.85475" lon="5.7778">
        <ele>829.46203</ele>
        <time>2025-07-10T11:17:39.000Z</time>
      </trkpt>
      <trkpt lat="44.85471" lon="5.77773">
        <ele>829.389102</ele>
        <time>2025-07-10T11:17:40.000Z</time>
      </trkpt>
      <trkpt lat="44.85467" lon="5.77767">
        <ele>829.376195</ele>
        <time>2025-07-10T11:17:41.000Z</time>
      </trkpt>
      <trkpt lat="44.85463" lon="5.77761">
        <ele>829.377666</ele>
        <time>2025-07-10T11:17:42.000Z</time>
      </trkpt>
      <trkpt lat="44.85459" lon="5.77755">
        <ele>829.37909</ele>
        <time>2025-07-10T11:17:43.000Z</time>
      </trkpt>
      <trkpt lat="44.85456" lon="5.77749">
        <ele>829.380487</ele>
        <time>2025-07-10T11:17:44.000Z</time>
      </trkpt>
      <trkpt lat="44.85452" lon="5.77743">
        <ele>829.381881</ele>
        <time>2025-07-10T11:17:45.000Z</time>
      </trkpt>
      <trkpt lat="44.85448" lon="5.77738">
        <ele>829.383201</ele>
        <time>2025-07-10T11:17:46.000Z</time>
      </trkpt>
      <trkpt lat="44.85445" lon="5.77732">
        <ele>829.384538</ele>
        <time>2025-07-10T11:17:47.000Z</time>
      </trkpt>
      <trkpt lat="44.85441" lon="5.77727">
        <ele>829.385901</ele>
        <time>2025-07-10T11:17:48.000Z</time>
      </trkpt>
      <trkpt lat="44.85438" lon="5.77721">
        <ele>829.387208</ele>
        <time>2025-07-10T11:17:49.000Z</time>
      </trkpt>
      <trkpt lat="44.85435" lon="5.77716">
        <ele>829.388424</ele>
        <time>2025-07-10T11:17:50.000Z</time>
      </trkpt>
      <trkpt lat="44.85431" lon="5.77711">
        <ele>829.38961</ele>
        <time>2025-07-10T11:17:51.000Z</time>
      </trkpt>
      <trkpt lat="44.85428" lon="5.77706">
        <ele>829.390787</ele>
        <time>2025-07-10T11:17:52.000Z</time>
      </trkpt>
      <trkpt lat="44.85425" lon="5.77701">
        <ele>829.391977</ele>
        <time>2025-07-10T11:17:53.000Z</time>
      </trkpt>
      <trkpt lat="44.85422" lon="5.77696">
        <ele>829.393191</ele>
        <time>2025-07-10T11:17:54.000Z</time>
      </trkpt>
      <trkpt lat="44.85419" lon="5.77691">
        <ele>829.394374</ele>
        <time>2025-07-10T11:17:55.000Z</time>
      </trkpt>
      <trkpt lat="44.85416" lon="5.77686">
        <ele>829.39554</ele>
        <time>2025-07-10T11:17:56.000Z</time>
      </trkpt>
      <trkpt lat="44.85414" lon="5.7768">
        <ele>829.396678</ele>
        <time>2025-07-10T11:17:57.000Z</time>
      </trkpt>
      <trkpt lat="44.85411" lon="5.77675">
        <ele>829.397829</ele>
        <time>2025-07-10T11:17:58.000Z</time>
      </trkpt>
      <trkpt lat="44.85408" lon="5.7767">
        <ele>829.398995</ele>
        <time>2025-07-10T11:17:59.000Z</time>
      </trkpt>
      <trkpt lat="44.85406" lon="5.77664">
        <ele>829.40016</ele>
        <time>2025-07-10T11:18:00.000Z</time>
      </trkpt>
      <trkpt lat="44.85403" lon="5.77659">
        <ele>829.401329</ele>
        <time>2025-07-10T11:18:01.000Z</time>
      </trkpt>
      <trkpt lat="44.85401" lon="5.77653">
        <ele>829.402488</ele>
        <time>2025-07-10T11:18:02.000Z</time>
      </trkpt>
      <trkpt lat="44.85399" lon="5.77647">
        <ele>829.403675</ele>
        <time>2025-07-10T11:18:03.000Z</time>
      </trkpt>
      <trkpt lat="44.85397" lon="5.77642">
        <ele>829.404862</ele>
        <time>2025-07-10T11:18:04.000Z</time>
      </trkpt>
      <trkpt lat="44.85395" lon="5.77636">
        <ele>829.405993</ele>
        <time>2025-07-10T11:18:05.000Z</time>
      </trkpt>
      <trkpt lat="44.85393" lon="5.7763">
        <ele>829.407145</ele>
        <time>2025-07-10T11:18:06.000Z</time>
      </trkpt>
      <trkpt lat="44.85391" lon="5.77624">
        <ele>829.408352</ele>
        <time>2025-07-10T11:18:07.000Z</time>
      </trkpt>
      <trkpt lat="44.85389" lon="5.77618">
        <ele>829.409473</ele>
        <time>2025-07-10T11:18:08.000Z</time>
      </trkpt>
      <trkpt lat="44.85387" lon="5.77612">
        <ele>829.410593</ele>
        <time>2025-07-10T11:18:09.000Z</time>
      </trkpt>
      <trkpt lat="44.85385" lon="5.77607">
        <ele>829.411724</ele>
        <time>2025-07-10T11:18:10.000Z</time>
      </trkpt>
      <trkpt lat="44.85384" lon="5.77601">
        <ele>829.412817</ele>
        <time>2025-07-10T11:18:11.000Z</time>
      </trkpt>
      <trkpt lat="44.85382" lon="5.77596">
        <ele>829.413888</ele>
        <time>2025-07-10T11:18:12.000Z</time>
      </trkpt>
      <trkpt lat="44.8538" lon="5.7759">
        <ele>829.414983</ele>
        <time>2025-07-10T11:18:13.000Z</time>
      </trkpt>
      <trkpt lat="44.85379" lon="5.77584">
        <ele>829.416001</ele>
        <time>2025-07-10T11:18:14.000Z</time>
      </trkpt>
      <trkpt lat="44.85378" lon="5.77579">
        <ele>829.417011</ele>
        <time>2025-07-10T11:18:15.000Z</time>
      </trkpt>
      <trkpt lat="44.85376" lon="5.77574">
        <ele>829.417997</ele>
        <time>2025-07-10T11:18:16.000Z</time>
      </trkpt>
      <trkpt lat="44.85375" lon="5.77569">
        <ele>829.418983</ele>
        <time>2025-07-10T11:18:17.000Z</time>
      </trkpt>
      <trkpt lat="44.85373" lon="5.77564">
        <ele>829.420022</ele>
        <time>2025-07-10T11:18:18.000Z</time>
      </trkpt>
      <trkpt lat="44.85371" lon="5.77558">
        <ele>829.445205</ele>
        <time>2025-07-10T11:18:19.000Z</time>
      </trkpt>
      <trkpt lat="44.8537" lon="5.77553">
        <ele>829.480066</ele>
        <time>2025-07-10T11:18:20.000Z</time>
      </trkpt>
      <trkpt lat="44.85368" lon="5.77548">
        <ele>829.514928</ele>
        <time>2025-07-10T11:18:21.000Z</time>
      </trkpt>
      <trkpt lat="44.85366" lon="5.77542">
        <ele>829.55347</ele>
        <time>2025-07-10T11:18:22.000Z</time>
      </trkpt>
      <trkpt lat="44.85365" lon="5.77536">
        <ele>829.590893</ele>
        <time>2025-07-10T11:18:23.000Z</time>
      </trkpt>
      <trkpt lat="44.85363" lon="5.77531">
        <ele>829.626312</ele>
        <time>2025-07-10T11:18:24.000Z</time>
      </trkpt>
      <trkpt lat="44.85362" lon="5.77525">
        <ele>829.663107</ele>
        <time>2025-07-10T11:18:25.000Z</time>
      </trkpt>
      <trkpt lat="44.8536" lon="5.77519">
        <ele>829.70047</ele>
        <time>2025-07-10T11:18:26.000Z</time>
      </trkpt>
      <trkpt lat="44.85359" lon="5.77513">
        <ele>829.737832</ele>
        <time>2025-07-10T11:18:27.000Z</time>
      </trkpt>
      <trkpt lat="44.85357" lon="5.77508">
        <ele>829.773495</ele>
        <time>2025-07-10T11:18:28.000Z</time>
      </trkpt>
      <trkpt lat="44.85355" lon="5.77502">
        <ele>829.810361</ele>
        <time>2025-07-10T11:18:29.000Z</time>
      </trkpt>
      <trkpt lat="44.85354" lon="5.77497">
        <ele>829.845727</ele>
        <time>2025-07-10T11:18:30.000Z</time>
      </trkpt>
      <trkpt lat="44.85353" lon="5.77492">
        <ele>829.879095</ele>
        <time>2025-07-10T11:18:31.000Z</time>
      </trkpt>
      <trkpt lat="44.85351" lon="5.77487">
        <ele>829.911395</ele>
        <time>2025-07-10T11:18:32.000Z</time>
      </trkpt>
      <trkpt lat="44.8535" lon="5.77482">
        <ele>829.943495</ele>
        <time>2025-07-10T11:18:33.000Z</time>
      </trkpt>
      <trkpt lat="44.85348" lon="5.77477">
        <ele>829.974687</ele>
        <time>2025-07-10T11:18:34.000Z</time>
      </trkpt>
      <trkpt lat="44.85347" lon="5.77473">
        <ele>830.004919</ele>
        <time>2025-07-10T11:18:35.000Z</time>
      </trkpt>
      <trkpt lat="44.85346" lon="5.77468">
        <ele>830.034015</ele>
        <time>2025-07-10T11:18:36.000Z</time>
      </trkpt>
      <trkpt lat="44.85344" lon="5.77464">
        <ele>830.062863</ele>
        <time>2025-07-10T11:18:37.000Z</time>
      </trkpt>
      <trkpt lat="44.85343" lon="5.77459">
        <ele>830.091393</ele>
        <time>2025-07-10T11:18:38.000Z</time>
      </trkpt>
      <trkpt lat="44.85342" lon="5.77455">
        <ele>830.120856</ele>
        <time>2025-07-10T11:18:39.000Z</time>
      </trkpt>
      <trkpt lat="44.85341" lon="5.7745">
        <ele>830.149152</ele>
        <time>2025-07-10T11:18:40.000Z</time>
      </trkpt>
      <trkpt lat="44.8534" lon="5.77446">
        <ele>830.177114</ele>
        <time>2025-07-10T11:18:41.000Z</time>
      </trkpt>
      <trkpt lat="44.85339" lon="5.77441">
        <ele>830.205654</ele>
        <time>2025-07-10T11:18:42.000Z</time>
      </trkpt>
      <trkpt lat="44.85339" lon="5.77437">
        <ele>830.233368</ele>
        <time>2025-07-10T11:18:43.000Z</time>
      </trkpt>
      <trkpt lat="44.85338" lon="5.77432">
        <ele>830.260857</ele>
        <time>2025-07-10T11:18:44.000Z</time>
      </trkpt>
      <trkpt lat="44.85337" lon="5.77428">
        <ele>830.288934</ele>
        <time>2025-07-10T11:18:45.000Z</time>
      </trkpt>
      <trkpt lat="44.85336" lon="5.77423">
        <ele>830.316224</ele>
        <time>2025-07-10T11:18:46.000Z</time>
      </trkpt>
      <trkpt lat="44.85336" lon="5.77419">
        <ele>830.342923</ele>
        <time>2025-07-10T11:18:47.000Z</time>
      </trkpt>
      <trkpt lat="44.85335" lon="5.77415">
        <ele>830.369445</ele>
        <time>2025-07-10T11:18:48.000Z</time>
      </trkpt>
      <trkpt lat="44.85335" lon="5.77411">
        <ele>830.395091</ele>
        <time>2025-07-10T11:18:49.000Z</time>
      </trkpt>
      <trkpt lat="44.85334" lon="5.77406">
        <ele>830.421337</ele>
        <time>2025-07-10T11:18:50.000Z</time>
      </trkpt>
      <trkpt lat="44.85334" lon="5.77402">
        <ele>830.446983</ele>
        <time>2025-07-10T11:18:51.000Z</time>
      </trkpt>
      <trkpt lat="44.85333" lon="5.77398">
        <ele>830.473353</ele>
        <time>2025-07-10T11:18:52.000Z</time>
      </trkpt>
      <trkpt lat="44.85333" lon="5.77394">
        <ele>830.499463</ele>
        <time>2025-07-10T11:18:53.000Z</time>
      </trkpt>
      <trkpt lat="44.85332" lon="5.77389">
        <ele>830.527029</ele>
        <time>2025-07-10T11:18:54.000Z</time>
      </trkpt>
      <trkpt lat="44.85332" lon="5.77385">
        <ele>830.554919</ele>
        <time>2025-07-10T11:18:55.000Z</time>
      </trkpt>
      <trkpt lat="44.85332" lon="5.7738">
        <ele>830.583478</ele>
        <time>2025-07-10T11:18:56.000Z</time>
      </trkpt>
      <trkpt lat="44.85331" lon="5.77375">
        <ele>830.613327</ele>
        <time>2025-07-10T11:18:57.000Z</time>
      </trkpt>
      <trkpt lat="44.85331" lon="5.7737">
        <ele>830.644485</ele>
        <time>2025-07-10T11:18:58.000Z</time>
      </trkpt>
      <trkpt lat="44.8533" lon="5.77364">
        <ele>830.677342</ele>
        <time>2025-07-10T11:18:59.000Z</time>
      </trkpt>
      <trkpt lat="44.8533" lon="5.77359">
        <ele>830.708996</ele>
        <time>2025-07-10T11:19:00.000Z</time>
      </trkpt>
      <trkpt lat="44.85329" lon="5.77354">
        <ele>830.74065</ele>
        <time>2025-07-10T11:19:01.000Z</time>
      </trkpt>
      <trkpt lat="44.85329" lon="5.77349">
        <ele>830.773607</ele>
        <time>2025-07-10T11:19:02.000Z</time>
      </trkpt>
      <trkpt lat="44.85329" lon="5.77343">
        <ele>830.806465</ele>
        <time>2025-07-10T11:19:03.000Z</time>
      </trkpt>
      <trkpt lat="44.85328" lon="5.77338">
        <ele>830.841129</ele>
        <time>2025-07-10T11:19:04.000Z</time>
      </trkpt>
      <trkpt lat="44.85328" lon="5.77332">
        <ele>830.876394</ele>
        <time>2025-07-10T11:19:05.000Z</time>
      </trkpt>
      <trkpt lat="44.85327" lon="5.77326">
        <ele>830.912263</ele>
        <time>2025-07-10T11:19:06.000Z</time>
      </trkpt>
      <trkpt lat="44.85327" lon="5.7732">
        <ele>830.948734</ele>
        <time>2025-07-10T11:19:07.000Z</time>
      </trkpt>
      <trkpt lat="44.85327" lon="5.77314">
        <ele>830.945428</ele>
        <time>2025-07-10T11:19:08.000Z</time>
      </trkpt>
      <trkpt lat="44.85326" lon="5.77308">
        <ele>830.932643</ele>
        <time>2025-07-10T11:19:09.000Z</time>
      </trkpt>
      <trkpt lat="44.85326" lon="5.77302">
        <ele>830.91946</ele>
        <time>2025-07-10T11:19:10.000Z</time>
      </trkpt>
      <trkpt lat="44.85325" lon="5.77295">
        <ele>830.906011</ele>
        <time>2025-07-10T11:19:11.000Z</time>
      </trkpt>
      <trkpt lat="44.85325" lon="5.77289">
        <ele>830.892106</ele>
        <time>2025-07-10T11:19:12.000Z</time>
      </trkpt>
      <trkpt lat="44.85324" lon="5.77282">
        <ele>830.878265</ele>
        <time>2025-07-10T11:19:13.000Z</time>
      </trkpt>
      <trkpt lat="44.85324" lon="5.77276">
        <ele>830.864395</ele>
        <time>2025-07-10T11:19:14.000Z</time>
      </trkpt>
      <trkpt lat="44.85323" lon="5.77269">
        <ele>830.850314</ele>
        <time>2025-07-10T11:19:15.000Z</time>
      </trkpt>
      <trkpt lat="44.85323" lon="5.77263">
        <ele>830.836198</ele>
        <time>2025-07-10T11:19:16.000Z</time>
      </trkpt>
      <trkpt lat="44.85322" lon="5.77256">
        <ele>830.822251</ele>
        <time>2025-07-10T11:19:17.000Z</time>
      </trkpt>
      <trkpt lat="44.85322" lon="5.7725">
        <ele>830.80817</ele>
        <time>2025-07-10T11:19:18.000Z</time>
      </trkpt>
      <trkpt lat="44.85321" lon="5.77243">
        <ele>830.794329</ele>
        <time>2025-07-10T11:19:19.000Z</time>
      </trkpt>
      <trkpt lat="44.85321" lon="5.77237">
        <ele>830.780423</ele>
        <time>2025-07-10T11:19:20.000Z</time>
      </trkpt>
      <trkpt lat="44.8532" lon="5.7723">
        <ele>830.766342</ele>
        <time>2025-07-10T11:19:21.000Z</time>
      </trkpt>
      <trkpt lat="44.85319" lon="5.77223">
        <ele>830.752437</ele>
        <time>2025-07-10T11:19:22.000Z</time>
      </trkpt>
      <trkpt lat="44.85319" lon="5.77217">
        <ele>830.738778</ele>
        <time>2025-07-10T11:19:23.000Z</time>
      </trkpt>
      <trkpt lat="44.85319" lon="5.77211">
        <ele>830.724937</ele>
        <time>2025-07-10T11:19:24.000Z</time>
      </trkpt>
      <trkpt lat="44.85318" lon="5.77204">
        <ele>830.711307</ele>
        <time>2025-07-10T11:19:25.000Z</time>
      </trkpt>
      <trkpt lat="44.85318" lon="5.77198">
        <ele>830.698069</ele>
        <time>2025-07-10T11:19:26.000Z</time>
      </trkpt>
      <trkpt lat="44.85317" lon="5.77192">
        <ele>830.684651</ele>
        <time>2025-07-10T11:19:27.000Z</time>
      </trkpt>
      <trkpt lat="44.85317" lon="5.77185">
        <ele>830.670956</ele>
        <time>2025-07-10T11:19:28.000Z</time>
      </trkpt>
      <trkpt lat="44.85316" lon="5.77179">
        <ele>830.657508</ele>
        <time>2025-07-10T11:19:29.000Z</time>
      </trkpt>
      <trkpt lat="44.85316" lon="5.77173">
        <ele>830.644023</ele>
        <time>2025-07-10T11:19:30.000Z</time>
      </trkpt>
      <trkpt lat="44.85315" lon="5.77166">
        <ele>830.630704</ele>
        <time>2025-07-10T11:19:31.000Z</time>
      </trkpt>
      <trkpt lat="44.85314" lon="5.7716">
        <ele>830.61764</ele>
        <time>2025-07-10T11:19:32.000Z</time>
      </trkpt>
      <trkpt lat="44.85314" lon="5.77154">
        <ele>830.604155</ele>
        <time>2025-07-10T11:19:33.000Z</time>
      </trkpt>
      <trkpt lat="44.85313" lon="5.77148">
        <ele>830.590948</ele>
        <time>2025-07-10T11:19:34.000Z</time>
      </trkpt>
      <trkpt lat="44.85313" lon="5.77142">
        <ele>830.577499</ele>
        <time>2025-07-10T11:19:35.000Z</time>
      </trkpt>
      <trkpt lat="44.85312" lon="5.77135">
        <ele>830.564435</ele>
        <time>2025-07-10T11:19:36.000Z</time>
      </trkpt>
      <trkpt lat="44.85312" lon="5.77129">
        <ele>830.55116</ele>
        <time>2025-07-10T11:19:37.000Z</time>
      </trkpt>
      <trkpt lat="44.85311" lon="5.77123">
        <ele>830.537886</ele>
        <time>2025-07-10T11:19:38.000Z</time>
      </trkpt>
      <trkpt lat="44.85311" lon="5.77117">
        <ele>830.524467</ele>
        <time>2025-07-10T11:19:39.000Z</time>
      </trkpt>
      <trkpt lat="44.8531" lon="5.77111">
        <ele>830.51144</ele>
        <time>2025-07-10T11:19:40.000Z</time>
      </trkpt>
      <trkpt lat="44.85309" lon="5.77104">
        <ele>830.498166</ele>
        <time>2025-07-10T11:19:41.000Z</time>
      </trkpt>
      <trkpt lat="44.85309" lon="5.77098">
        <ele>830.484891</ele>
        <time>2025-07-10T11:19:42.000Z</time>
      </trkpt>
      <trkpt lat="44.85308" lon="5.77092">
        <ele>830.471443</ele>
        <time>2025-07-10T11:19:43.000Z</time>
      </trkpt>
      <trkpt lat="44.85308" lon="5.77086">
        <ele>830.458236</ele>
        <time>2025-07-10T11:19:44.000Z</time>
      </trkpt>
      <trkpt lat="44.85307" lon="5.77079">
        <ele>830.444576</ele>
        <time>2025-07-10T11:19:45.000Z</time>
      </trkpt>
      <trkpt lat="44.85307" lon="5.77073">
        <ele>830.431258</ele>
        <time>2025-07-10T11:19:46.000Z</time>
      </trkpt>
      <trkpt lat="44.85306" lon="5.77067">
        <ele>830.417983</ele>
        <time>2025-07-10T11:19:47.000Z</time>
      </trkpt>
      <trkpt lat="44.85306" lon="5.77061">
        <ele>830.367207</ele>
        <time>2025-07-10T11:19:48.000Z</time>
      </trkpt>
      <trkpt lat="44.85305" lon="5.77055">
        <ele>830.31672</ele>
        <time>2025-07-10T11:19:49.000Z</time>
      </trkpt>
      <trkpt lat="44.85305" lon="5.77048">
        <ele>830.266087</ele>
        <time>2025-07-10T11:19:50.000Z</time>
      </trkpt>
      <trkpt lat="44.85304" lon="5.77042">
        <ele>830.214639</ele>
        <time>2025-07-10T11:19:51.000Z</time>
      </trkpt>
      <trkpt lat="44.85303" lon="5.77036">
        <ele>830.163021</ele>
        <time>2025-07-10T11:19:52.000Z</time>
      </trkpt>
      <trkpt lat="44.85302" lon="5.7703">
        <ele>830.111209</ele>
        <time>2025-07-10T11:19:53.000Z</time>
      </trkpt>
      <trkpt lat="44.85302" lon="5.77024">
        <ele>830.059761</ele>
        <time>2025-07-10T11:19:54.000Z</time>
      </trkpt>
      <trkpt lat="44.85301" lon="5.77017">
        <ele>830.008313</ele>
        <time>2025-07-10T11:19:55.000Z</time>
      </trkpt>
      <trkpt lat="44.85301" lon="5.77011">
        <ele>829.955236</ele>
        <time>2025-07-10T11:19:56.000Z</time>
      </trkpt>
      <trkpt lat="44.853" lon="5.77005">
        <ele>829.902297</ele>
        <time>2025-07-10T11:19:57.000Z</time>
      </trkpt>
      <trkpt lat="44.853" lon="5.76998">
        <ele>829.850035</ele>
        <time>2025-07-10T11:19:58.000Z</time>
      </trkpt>
      <trkpt lat="44.85299" lon="5.76992">
        <ele>829.797605</ele>
        <time>2025-07-10T11:19:59.000Z</time>
      </trkpt>
      <trkpt lat="44.85298" lon="5.76986">
        <ele>829.744174</ele>
        <time>2025-07-10T11:20:00.000Z</time>
      </trkpt>
      <trkpt lat="44.85297" lon="5.76979">
        <ele>829.688915</ele>
        <time>2025-07-10T11:20:01.000Z</time>
      </trkpt>
      <trkpt lat="44.85297" lon="5.76972">
        <ele>829.633392</ele>
        <time>2025-07-10T11:20:02.000Z</time>
      </trkpt>
      <trkpt lat="44.85296" lon="5.76965">
        <ele>829.576472</ele>
        <time>2025-07-10T11:20:03.000Z</time>
      </trkpt>
      <trkpt lat="44.85296" lon="5.76958">
        <ele>829.517684</ele>
        <time>2025-07-10T11:20:04.000Z</time>
      </trkpt>
      <trkpt lat="44.85295" lon="5.76951">
        <ele>829.460375</ele>
        <time>2025-07-10T11:20:05.000Z</time>
      </trkpt>
      <trkpt lat="44.85294" lon="5.76945">
        <ele>829.403067</ele>
        <time>2025-07-10T11:20:06.000Z</time>
      </trkpt>
      <trkpt lat="44.85293" lon="5.76938">
        <ele>829.344945</ele>
        <time>2025-07-10T11:20:07.000Z</time>
      </trkpt>
      <trkpt lat="44.85293" lon="5.7693">
        <ele>829.285193</ele>
        <time>2025-07-10T11:20:08.000Z</time>
      </trkpt>
      <trkpt lat="44.85292" lon="5.76923">
        <ele>829.225274</ele>
        <time>2025-07-10T11:20:09.000Z</time>
      </trkpt>
      <trkpt lat="44.85291" lon="5.76916">
        <ele>829.165973</ele>
        <time>2025-07-10T11:20:10.000Z</time>
      </trkpt>
      <trkpt lat="44.8529" lon="5.76909">
        <ele>829.106866</ele>
        <time>2025-07-10T11:20:11.000Z</time>
      </trkpt>
      <trkpt lat="44.8529" lon="5.76902">
        <ele>829.049557</ele>
        <time>2025-07-10T11:20:12.000Z</time>
      </trkpt>
      <trkpt lat="44.85289" lon="5.76895">
        <ele>828.992249</ele>
        <time>2025-07-10T11:20:13.000Z</time>
      </trkpt>
      <trkpt lat="44.85288" lon="5.76888">
        <ele>828.934126</ele>
        <time>2025-07-10T11:20:14.000Z</time>
      </trkpt>
      <trkpt lat="44.85287" lon="5.76881">
        <ele>828.878445</ele>
        <time>2025-07-10T11:20:15.000Z</time>
      </trkpt>
      <trkpt lat="44.85287" lon="5.76875">
        <ele>828.822237</ele>
        <time>2025-07-10T11:20:16.000Z</time>
      </trkpt>
      <trkpt lat="44.85287" lon="5.76868">
        <ele>828.765317</ele>
        <time>2025-07-10T11:20:17.000Z</time>
      </trkpt>
      <trkpt lat="44.85286" lon="5.76861">
        <ele>828.708291</ele>
        <time>2025-07-10T11:20:18.000Z</time>
      </trkpt>
      <trkpt lat="44.85286" lon="5.76854">
        <ele>828.652083</ele>
        <time>2025-07-10T11:20:19.000Z</time>
      </trkpt>
      <trkpt lat="44.85285" lon="5.76847">
        <ele>828.595245</ele>
        <time>2025-07-10T11:20:20.000Z</time>
      </trkpt>
      <trkpt lat="44.85285" lon="5.7684">
        <ele>828.539289</ele>
        <time>2025-07-10T11:20:21.000Z</time>
      </trkpt>
      <trkpt lat="44.85285" lon="5.76834">
        <ele>828.484093</ele>
        <time>2025-07-10T11:20:22.000Z</time>
      </trkpt>
      <trkpt lat="44.85285" lon="5.76827">
        <ele>828.428958</ele>
        <time>2025-07-10T11:20:23.000Z</time>
      </trkpt>
      <trkpt lat="44.85284" lon="5.7682">
        <ele>828.374682</ele>
        <time>2025-07-10T11:20:24.000Z</time>
      </trkpt>
      <trkpt lat="44.85285" lon="5.76814">
        <ele>828.322113</ele>
        <time>2025-07-10T11:20:25.000Z</time>
      </trkpt>
      <trkpt lat="44.85284" lon="5.76807">
        <ele>828.276754</ele>
        <time>2025-07-10T11:20:26.000Z</time>
      </trkpt>
      <trkpt lat="44.85285" lon="5.768">
        <ele>828.230748</ele>
        <time>2025-07-10T11:20:27.000Z</time>
      </trkpt>
      <trkpt lat="44.85285" lon="5.76793">
        <ele>828.18539</ele>
        <time>2025-07-10T11:20:28.000Z</time>
      </trkpt>
      <trkpt lat="44.85285" lon="5.76785">
        <ele>828.139384</ele>
        <time>2025-07-10T11:20:29.000Z</time>
      </trkpt>
      <trkpt lat="44.85285" lon="5.76779">
        <ele>828.094674</ele>
        <time>2025-07-10T11:20:30.000Z</time>
      </trkpt>
      <trkpt lat="44.85285" lon="5.76771">
        <ele>828.04802</ele>
        <time>2025-07-10T11:20:31.000Z</time>
      </trkpt>
      <trkpt lat="44.85285" lon="5.76764">
        <ele>828.002014</ele>
        <time>2025-07-10T11:20:32.000Z</time>
      </trkpt>
      <trkpt lat="44.85285" lon="5.76757">
        <ele>827.957304</ele>
        <time>2025-07-10T11:20:33.000Z</time>
      </trkpt>
      <trkpt lat="44.85285" lon="5.7675">
        <ele>827.912593</ele>
        <time>2025-07-10T11:20:34.000Z</time>
      </trkpt>
      <trkpt lat="44.85285" lon="5.76743">
        <ele>827.867235</ele>
        <time>2025-07-10T11:20:35.000Z</time>
      </trkpt>
      <trkpt lat="44.85285" lon="5.76736">
        <ele>827.821886</ele>
        <time>2025-07-10T11:20:36.000Z</time>
      </trkpt>
      <trkpt lat="44.85285" lon="5.7673">
        <ele>827.777833</ele>
        <time>2025-07-10T11:20:37.000Z</time>
      </trkpt>
      <trkpt lat="44.85285" lon="5.76723">
        <ele>827.733094</ele>
        <time>2025-07-10T11:20:38.000Z</time>
      </trkpt>
      <trkpt lat="44.85285" lon="5.76716">
        <ele>827.688955</ele>
        <time>2025-07-10T11:20:39.000Z</time>
      </trkpt>
      <trkpt lat="44.85285" lon="5.76709">
        <ele>827.644245</ele>
        <time>2025-07-10T11:20:40.000Z</time>
      </trkpt>
      <trkpt lat="44.85285" lon="5.76702">
        <ele>827.599534</ele>
        <time>2025-07-10T11:20:41.000Z</time>
      </trkpt>
      <trkpt lat="44.85285" lon="5.76695">
        <ele>827.555481</ele>
        <time>2025-07-10T11:20:42.000Z</time>
      </trkpt>
      <trkpt lat="44.85285" lon="5.76688">
        <ele>827.51078</ele>
        <time>2025-07-10T11:20:43.000Z</time>
      </trkpt>
      <trkpt lat="44.85285" lon="5.76682">
        <ele>827.466717</ele>
        <time>2025-07-10T11:20:44.000Z</time>
      </trkpt>
      <trkpt lat="44.85285" lon="5.76675">
        <ele>827.422654</ele>
        <time>2025-07-10T11:20:45.000Z</time>
      </trkpt>
      <trkpt lat="44.85286" lon="5.76668">
        <ele>827.377916</ele>
        <time>2025-07-10T11:20:46.000Z</time>
      </trkpt>
      <trkpt lat="44.85286" lon="5.76661">
        <ele>827.332558</ele>
        <time>2025-07-10T11:20:47.000Z</time>
      </trkpt>
      <trkpt lat="44.85286" lon="5.76654">
        <ele>827.287847</ele>
        <time>2025-07-10T11:20:48.000Z</time>
      </trkpt>
      <trkpt lat="44.85286" lon="5.76647">
        <ele>827.243784</ele>
        <time>2025-07-10T11:20:49.000Z</time>
      </trkpt>
      <trkpt lat="44.85286" lon="5.7664">
        <ele>827.199731</ele>
        <time>2025-07-10T11:20:50.000Z</time>
      </trkpt>
      <trkpt lat="44.85286" lon="5.76634">
        <ele>827.155592</ele>
        <time>2025-07-10T11:20:51.000Z</time>
      </trkpt>
      <trkpt lat="44.85285" lon="5.76627">
        <ele>827.110658</ele>
        <time>2025-07-10T11:20:52.000Z</time>
      </trkpt>
      <trkpt lat="44.85285" lon="5.7662">
        <ele>827.066567</ele>
        <time>2025-07-10T11:20:53.000Z</time>
      </trkpt>
      <trkpt lat="44.85285" lon="5.76613">
        <ele>827.021866</ele>
        <time>2025-07-10T11:20:54.000Z</time>
      </trkpt>
      <trkpt lat="44.85285" lon="5.76606">
        <ele>826.977156</ele>
        <time>2025-07-10T11:20:55.000Z</time>
      </trkpt>
      <trkpt lat="44.85285" lon="5.76599">
        <ele>826.931807</ele>
        <time>2025-07-10T11:20:56.000Z</time>
      </trkpt>
      <trkpt lat="44.85285" lon="5.76592">
        <ele>826.887744</ele>
        <time>2025-07-10T11:20:57.000Z</time>
      </trkpt>
      <trkpt lat="44.85285" lon="5.76586">
        <ele>826.844338</ele>
        <time>2025-07-10T11:20:58.000Z</time>
      </trkpt>
      <trkpt lat="44.85285" lon="5.76579">
        <ele>826.801571</ele>
        <time>2025-07-10T11:20:59.000Z</time>
      </trkpt>
      <trkpt lat="44.85285" lon="5.76573">
        <ele>826.760109</ele>
        <time>2025-07-10T11:21:00.000Z</time>
      </trkpt>
      <trkpt lat="44.85285" lon="5.76566">
        <ele>826.717959</ele>
        <time>2025-07-10T11:21:01.000Z</time>
      </trkpt>
      <trkpt lat="44.85286" lon="5.7656">
        <ele>826.685631</ele>
        <time>2025-07-10T11:21:02.000Z</time>
      </trkpt>
      <trkpt lat="44.85286" lon="5.76553">
        <ele>826.677795</ele>
        <time>2025-07-10T11:21:03.000Z</time>
      </trkpt>
      <trkpt lat="44.85287" lon="5.76547">
        <ele>826.670018</ele>
        <time>2025-07-10T11:21:04.000Z</time>
      </trkpt>
      <trkpt lat="44.85288" lon="5.7654">
        <ele>826.662182</ele>
        <time>2025-07-10T11:21:05.000Z</time>
      </trkpt>
      <trkpt lat="44.85289" lon="5.76533">
        <ele>826.654368</ele>
        <time>2025-07-10T11:21:06.000Z</time>
      </trkpt>
      <trkpt lat="44.85289" lon="5.76527">
        <ele>826.646458</ele>
        <time>2025-07-10T11:21:07.000Z</time>
      </trkpt>
      <trkpt lat="44.85289" lon="5.7652">
        <ele>826.638692</ele>
        <time>2025-07-10T11:21:08.000Z</time>
      </trkpt>
      <trkpt lat="44.8529" lon="5.76514">
        <ele>826.631031</ele>
        <time>2025-07-10T11:21:09.000Z</time>
      </trkpt>
      <trkpt lat="44.8529" lon="5.76507">
        <ele>826.62337</ele>
        <time>2025-07-10T11:21:10.000Z</time>
      </trkpt>
      <trkpt lat="44.8529" lon="5.76501">
        <ele>826.615838</ele>
        <time>2025-07-10T11:21:11.000Z</time>
      </trkpt>
      <trkpt lat="44.85291" lon="5.76494">
        <ele>826.608316</ele>
        <time>2025-07-10T11:21:12.000Z</time>
      </trkpt>
      <trkpt lat="44.85291" lon="5.76488">
        <ele>826.600772</ele>
        <time>2025-07-10T11:21:13.000Z</time>
      </trkpt>
      <trkpt lat="44.85292" lon="5.76482">
        <ele>826.5934</ele>
        <time>2025-07-10T11:21:14.000Z</time>
      </trkpt>
      <trkpt lat="44.85292" lon="5.76476">
        <ele>826.586285</ele>
        <time>2025-07-10T11:21:15.000Z</time>
      </trkpt>
      <trkpt lat="44.85293" lon="5.76469">
        <ele>826.578937</ele>
        <time>2025-07-10T11:21:16.000Z</time>
      </trkpt>
      <trkpt lat="44.85293" lon="5.76463">
        <ele>826.571727</ele>
        <time>2025-07-10T11:21:17.000Z</time>
      </trkpt>
      <trkpt lat="44.85294" lon="5.76457">
        <ele>826.564611</ele>
        <time>2025-07-10T11:21:18.000Z</time>
      </trkpt>
      <trkpt lat="44.85295" lon="5.76451">
        <ele>826.557443</ele>
        <time>2025-07-10T11:21:19.000Z</time>
      </trkpt>
      <trkpt lat="44.85296" lon="5.76445">
        <ele>826.550011</ele>
        <time>2025-07-10T11:21:20.000Z</time>
      </trkpt>
      <trkpt lat="44.85297" lon="5.76439">
        <ele>826.54258</ele>
        <time>2025-07-10T11:21:21.000Z</time>
      </trkpt>
      <trkpt lat="44.85297" lon="5.76433">
        <ele>826.535324</ele>
        <time>2025-07-10T11:21:22.000Z</time>
      </trkpt>
      <trkpt lat="44.85298" lon="5.76427">
        <ele>826.528114</ele>
        <time>2025-07-10T11:21:23.000Z</time>
      </trkpt>
      <trkpt lat="44.85298" lon="5.7642">
        <ele>826.52057</ele>
        <time>2025-07-10T11:21:24.000Z</time>
      </trkpt>
      <trkpt lat="44.85299" lon="5.76414">
        <ele>826.512756</ele>
        <time>2025-07-10T11:21:25.000Z</time>
      </trkpt>
      <trkpt lat="44.853" lon="5.76407">
        <ele>826.504864</ele>
        <time>2025-07-10T11:21:26.000Z</time>
      </trkpt>
      <trkpt lat="44.853" lon="5.76401">
        <ele>826.497284</ele>
        <time>2025-07-10T11:21:27.000Z</time>
      </trkpt>
      <trkpt lat="44.85301" lon="5.76394">
        <ele>826.48949</ele>
        <time>2025-07-10T11:21:28.000Z</time>
      </trkpt>
      <trkpt lat="44.85301" lon="5.76388">
        <ele>826.481793</ele>
        <time>2025-07-10T11:21:29.000Z</time>
      </trkpt>
      <trkpt lat="44.85302" lon="5.76381">
        <ele>826.473781</ele>
        <time>2025-07-10T11:21:30.000Z</time>
      </trkpt>
      <trkpt lat="44.85302" lon="5.76374">
        <ele>826.466015</ele>
        <time>2025-07-10T11:21:31.000Z</time>
      </trkpt>
      <trkpt lat="44.85302" lon="5.76367">
        <ele>826.458024</ele>
        <time>2025-07-10T11:21:32.000Z</time>
      </trkpt>
      <trkpt lat="44.85303" lon="5.7636">
        <ele>826.449789</ele>
        <time>2025-07-10T11:21:33.000Z</time>
      </trkpt>
      <trkpt lat="44.85303" lon="5.76354">
        <ele>826.441626</ele>
        <time>2025-07-10T11:21:34.000Z</time>
      </trkpt>
      <trkpt lat="44.85304" lon="5.76347">
        <ele>826.433442</ele>
        <time>2025-07-10T11:21:35.000Z</time>
      </trkpt>
      <trkpt lat="44.85305" lon="5.7634">
        <ele>826.425257</ele>
        <time>2025-07-10T11:21:36.000Z</time>
      </trkpt>
      <trkpt lat="44.85306" lon="5.76333">
        <ele>826.417134</ele>
        <time>2025-07-10T11:21:37.000Z</time>
      </trkpt>
      <trkpt lat="44.85306" lon="5.76326">
        <ele>826.409012</ele>
        <time>2025-07-10T11:21:38.000Z</time>
      </trkpt>
      <trkpt lat="44.85307" lon="5.76319">
        <ele>826.401034</ele>
        <time>2025-07-10T11:21:39.000Z</time>
      </trkpt>
      <trkpt lat="44.85308" lon="5.76313">
        <ele>826.393026</ele>
        <time>2025-07-10T11:21:40.000Z</time>
      </trkpt>
      <trkpt lat="44.85309" lon="5.76306">
        <ele>826.386829</ele>
        <time>2025-07-10T11:21:41.000Z</time>
      </trkpt>
      <trkpt lat="44.8531" lon="5.76299">
        <ele>826.381775</ele>
        <time>2025-07-10T11:21:42.000Z</time>
      </trkpt>
      <trkpt lat="44.85311" lon="5.76292">
        <ele>826.376565</ele>
        <time>2025-07-10T11:21:43.000Z</time>
      </trkpt>
      <trkpt lat="44.85312" lon="5.76285">
        <ele>826.37137</ele>
        <time>2025-07-10T11:21:44.000Z</time>
      </trkpt>
      <trkpt lat="44.85312" lon="5.76278">
        <ele>826.366247</ele>
        <time>2025-07-10T11:21:45.000Z</time>
      </trkpt>
      <trkpt lat="44.85313" lon="5.76272">
        <ele>826.361139</ele>
        <time>2025-07-10T11:21:46.000Z</time>
      </trkpt>
      <trkpt lat="44.85313" lon="5.76265">
        <ele>826.356051</ele>
        <time>2025-07-10T11:21:47.000Z</time>
      </trkpt>
      <trkpt lat="44.85314" lon="5.76258">
        <ele>826.351123</ele>
        <time>2025-07-10T11:21:48.000Z</time>
      </trkpt>
      <trkpt lat="44.85314" lon="5.76251">
        <ele>826.346108</ele>
        <time>2025-07-10T11:21:49.000Z</time>
      </trkpt>
      <trkpt lat="44.85314" lon="5.76244">
        <ele>826.341038</ele>
        <time>2025-07-10T11:21:50.000Z</time>
      </trkpt>
      <trkpt lat="44.85314" lon="5.76237">
        <ele>826.336039</ele>
        <time>2025-07-10T11:21:51.000Z</time>
      </trkpt>
      <trkpt lat="44.85314" lon="5.76231">
        <ele>826.331041</ele>
        <time>2025-07-10T11:21:52.000Z</time>
      </trkpt>
      <trkpt lat="44.85315" lon="5.76224">
        <ele>826.326078</ele>
        <time>2025-07-10T11:21:53.000Z</time>
      </trkpt>
      <trkpt lat="44.85317" lon="5.76218">
        <ele>826.321292</ele>
        <time>2025-07-10T11:21:54.000Z</time>
      </trkpt>
      <trkpt lat="44.8532" lon="5.76214">
        <ele>826.316655</ele>
        <time>2025-07-10T11:21:55.000Z</time>
      </trkpt>
      <trkpt lat="44.85324" lon="5.76211">
        <ele>826.312176</ele>
        <time>2025-07-10T11:21:56.000Z</time>
      </trkpt>
      <trkpt lat="44.85328" lon="5.76209">
        <ele>826.307766</ele>
        <time>2025-07-10T11:21:57.000Z</time>
      </trkpt>
      <trkpt lat="44.85332" lon="5.76206">
        <ele>826.3032</ele>
        <time>2025-07-10T11:21:58.000Z</time>
      </trkpt>
      <trkpt lat="44.85336" lon="5.76204">
        <ele>826.299066</ele>
        <time>2025-07-10T11:21:59.000Z</time>
      </trkpt>
      <trkpt lat="44.85339" lon="5.76202">
        <ele>826.29491</ele>
        <time>2025-07-10T11:22:00.000Z</time>
      </trkpt>
      <trkpt lat="44.85343" lon="5.76201">
        <ele>826.290991</ele>
        <time>2025-07-10T11:22:01.000Z</time>
      </trkpt>
      <trkpt lat="44.85347" lon="5.76201">
        <ele>826.286924</ele>
        <time>2025-07-10T11:22:02.000Z</time>
      </trkpt>
      <trkpt lat="44.85351" lon="5.762">
        <ele>826.282878</ele>
        <time>2025-07-10T11:22:03.000Z</time>
      </trkpt>
      <trkpt lat="44.85355" lon="5.762">
        <ele>826.278731</ele>
        <time>2025-07-10T11:22:04.000Z</time>
      </trkpt>
      <trkpt lat="44.85359" lon="5.76201">
        <ele>826.274362</ele>
        <time>2025-07-10T11:22:05.000Z</time>
      </trkpt>
      <trkpt lat="44.85363" lon="5.76202">
        <ele>826.269875</ele>
        <time>2025-07-10T11:22:06.000Z</time>
      </trkpt>
      <trkpt lat="44.85368" lon="5.76202">
        <ele>826.265505</ele>
        <time>2025-07-10T11:22:07.000Z</time>
      </trkpt>
      <trkpt lat="44.85372" lon="5.76203">
        <ele>826.261192</ele>
        <time>2025-07-10T11:22:08.000Z</time>
      </trkpt>
      <trkpt lat="44.85376" lon="5.76205">
        <ele>826.256801</ele>
        <time>2025-07-10T11:22:09.000Z</time>
      </trkpt>
      <trkpt lat="44.8538" lon="5.76207">
        <ele>826.251884</ele>
        <time>2025-07-10T11:22:10.000Z</time>
      </trkpt>
      <trkpt lat="44.85385" lon="5.7621">
        <ele>826.246994</ele>
        <time>2025-07-10T11:22:11.000Z</time>
      </trkpt>
      <trkpt lat="44.85389" lon="5.76212">
        <ele>826.242048</ele>
        <time>2025-07-10T11:22:12.000Z</time>
      </trkpt>
      <trkpt lat="44.85393" lon="5.76215">
        <ele>826.237326</ele>
        <time>2025-07-10T11:22:13.000Z</time>
      </trkpt>
      <trkpt lat="44.85397" lon="5.76218">
        <ele>826.23263</ele>
        <time>2025-07-10T11:22:14.000Z</time>
      </trkpt>
      <trkpt lat="44.85401" lon="5.76221">
        <ele>826.227916</ele>
        <time>2025-07-10T11:22:15.000Z</time>
      </trkpt>
      <trkpt lat="44.85405" lon="5.76224">
        <ele>826.223437</ele>
        <time>2025-07-10T11:22:16.000Z</time>
      </trkpt>
      <trkpt lat="44.85409" lon="5.76226">
        <ele>826.219055</ele>
        <time>2025-07-10T11:22:17.000Z</time>
      </trkpt>
      <trkpt lat="44.85413" lon="5.76228">
        <ele>826.214581</ele>
        <time>2025-07-10T11:22:18.000Z</time>
      </trkpt>
      <trkpt lat="44.85417" lon="5.7623">
        <ele>826.210084</ele>
        <time>2025-07-10T11:22:19.000Z</time>
      </trkpt>
      <trkpt lat="44.85421" lon="5.76233">
        <ele>826.205826</ele>
        <time>2025-07-10T11:22:20.000Z</time>
      </trkpt>
      <trkpt lat="44.85425" lon="5.76235">
        <ele>826.200492</ele>
        <time>2025-07-10T11:22:21.000Z</time>
      </trkpt>
      <trkpt lat="44.85428" lon="5.76238">
        <ele>826.194408</ele>
        <time>2025-07-10T11:22:22.000Z</time>
      </trkpt>
      <trkpt lat="44.85432" lon="5.7624">
        <ele>826.188134</ele>
        <time>2025-07-10T11:22:23.000Z</time>
      </trkpt>
      <trkpt lat="44.85436" lon="5.76242">
        <ele>826.181781</ele>
        <time>2025-07-10T11:22:24.000Z</time>
      </trkpt>
      <trkpt lat="44.8544" lon="5.76244">
        <ele>826.175604</ele>
        <time>2025-07-10T11:22:25.000Z</time>
      </trkpt>
      <trkpt lat="44.85444" lon="5.76246">
        <ele>826.16954</ele>
        <time>2025-07-10T11:22:26.000Z</time>
      </trkpt>
      <trkpt lat="44.85448" lon="5.76248">
        <ele>826.163233</ele>
        <time>2025-07-10T11:22:27.000Z</time>
      </trkpt>
      <trkpt lat="44.85452" lon="5.7625">
        <ele>826.156859</ele>
        <time>2025-07-10T11:22:28.000Z</time>
      </trkpt>
      <trkpt lat="44.85456" lon="5.76253">
        <ele>826.150484</ele>
        <time>2025-07-10T11:22:29.000Z</time>
      </trkpt>
      <trkpt lat="44.85461" lon="5.76254">
        <ele>826.144209</ele>
        <time>2025-07-10T11:22:30.000Z</time>
      </trkpt>
      <trkpt lat="44.85465" lon="5.76256">
        <ele>826.137902</ele>
        <time>2025-07-10T11:22:31.000Z</time>
      </trkpt>
      <trkpt lat="44.85469" lon="5.76258">
        <ele>826.131802</ele>
        <time>2025-07-10T11:22:32.000Z</time>
      </trkpt>
      <trkpt lat="44.85472" lon="5.76261">
        <ele>826.125664</ele>
        <time>2025-07-10T11:22:33.000Z</time>
      </trkpt>
      <trkpt lat="44.85476" lon="5.76263">
        <ele>826.119478</ele>
        <time>2025-07-10T11:22:34.000Z</time>
      </trkpt>
      <trkpt lat="44.8548" lon="5.76267">
        <ele>826.113383</ele>
        <time>2025-07-10T11:22:35.000Z</time>
      </trkpt>
      <trkpt lat="44.85484" lon="5.7627">
        <ele>826.10668</ele>
        <time>2025-07-10T11:22:36.000Z</time>
      </trkpt>
      <trkpt lat="44.85488" lon="5.76272">
        <ele>826.10042</ele>
        <time>2025-07-10T11:22:37.000Z</time>
      </trkpt>
      <trkpt lat="44.85492" lon="5.76274">
        <ele>826.09401</ele>
        <time>2025-07-10T11:22:38.000Z</time>
      </trkpt>
      <trkpt lat="44.85496" lon="5.76277">
        <ele>826.087562</ele>
        <time>2025-07-10T11:22:39.000Z</time>
      </trkpt>
      <trkpt lat="44.855" lon="5.76279">
        <ele>826.081014</ele>
        <time>2025-07-10T11:22:40.000Z</time>
      </trkpt>
      <trkpt lat="44.85504" lon="5.76281">
        <ele>826.074502</ele>
        <time>2025-07-10T11:22:41.000Z</time>
      </trkpt>
      <trkpt lat="44.85508" lon="5.76283">
        <ele>826.068054</ele>
        <time>2025-07-10T11:22:42.000Z</time>
      </trkpt>
      <trkpt lat="44.85512" lon="5.76285">
        <ele>826.061742</ele>
        <time>2025-07-10T11:22:43.000Z</time>
      </trkpt>
      <trkpt lat="44.85516" lon="5.76288">
        <ele>826.055255</ele>
        <time>2025-07-10T11:22:44.000Z</time>
      </trkpt>
      <trkpt lat="44.8552" lon="5.7629">
        <ele>826.048995</ele>
        <time>2025-07-10T11:22:45.000Z</time>
      </trkpt>
      <trkpt lat="44.85524" lon="5.76293">
        <ele>826.042856</ele>
        <time>2025-07-10T11:22:46.000Z</time>
      </trkpt>
      <trkpt lat="44.85528" lon="5.76295">
        <ele>826.036446</ele>
        <time>2025-07-10T11:22:47.000Z</time>
      </trkpt>
      <trkpt lat="44.85533" lon="5.76297">
        <ele>826.029968</ele>
        <time>2025-07-10T11:22:48.000Z</time>
      </trkpt>
      <trkpt lat="44.85537" lon="5.76299">
        <ele>826.023693</ele>
        <time>2025-07-10T11:22:49.000Z</time>
      </trkpt>
      <trkpt lat="44.85541" lon="5.763">
        <ele>826.017307</ele>
        <time>2025-07-10T11:22:50.000Z</time>
      </trkpt>
      <trkpt lat="44.85545" lon="5.76302">
        <ele>826.010968</ele>
        <time>2025-07-10T11:22:51.000Z</time>
      </trkpt>
      <trkpt lat="44.85549" lon="5.76305">
        <ele>826.004655</ele>
        <time>2025-07-10T11:22:52.000Z</time>
      </trkpt>
      <trkpt lat="44.85553" lon="5.76307">
        <ele>825.998528</ele>
        <time>2025-07-10T11:22:53.000Z</time>
      </trkpt>
      <trkpt lat="44.85557" lon="5.7631">
        <ele>825.99231</ele>
        <time>2025-07-10T11:22:54.000Z</time>
      </trkpt>
      <trkpt lat="44.8556" lon="5.76312">
        <ele>825.985961</ele>
        <time>2025-07-10T11:22:55.000Z</time>
      </trkpt>
      <trkpt lat="44.85564" lon="5.76315">
        <ele>825.979649</ele>
        <time>2025-07-10T11:22:56.000Z</time>
      </trkpt>
      <trkpt lat="44.85569" lon="5.76317">
        <ele>825.973065</ele>
        <time>2025-07-10T11:22:57.000Z</time>
      </trkpt>
      <trkpt lat="44.85573" lon="5.7632">
        <ele>825.966403</ele>
        <time>2025-07-10T11:22:58.000Z</time>
      </trkpt>
      <trkpt lat="44.85577" lon="5.76322">
        <ele>825.959682</ele>
        <time>2025-07-10T11:22:59.000Z</time>
      </trkpt>
      <trkpt lat="44.85581" lon="5.76324">
        <ele>825.952924</ele>
        <time>2025-07-10T11:23:00.000Z</time>
      </trkpt>
      <trkpt lat="44.85586" lon="5.76327">
        <ele>825.946128</ele>
        <time>2025-07-10T11:23:01.000Z</time>
      </trkpt>
      <trkpt lat="44.8559" lon="5.76329">
        <ele>825.928991</ele>
        <time>2025-07-10T11:23:02.000Z</time>
      </trkpt>
      <trkpt lat="44.85595" lon="5.76332">
        <ele>825.871091</ele>
        <time>2025-07-10T11:23:03.000Z</time>
      </trkpt>
      <trkpt lat="44.85599" lon="5.76335">
        <ele>825.813191</ele>
        <time>2025-07-10T11:23:04.000Z</time>
      </trkpt>
      <trkpt lat="44.85604" lon="5.76337">
        <ele>825.755886</ele>
        <time>2025-07-10T11:23:05.000Z</time>
      </trkpt>
      <trkpt lat="44.85609" lon="5.7634">
        <ele>825.6969</ele>
        <time>2025-07-10T11:23:06.000Z</time>
      </trkpt>
      <trkpt lat="44.85613" lon="5.76342">
        <ele>825.639303</ele>
        <time>2025-07-10T11:23:07.000Z</time>
      </trkpt>
      <trkpt lat="44.85618" lon="5.76345">
        <ele>825.580317</ele>
        <time>2025-07-10T11:23:08.000Z</time>
      </trkpt>
      <trkpt lat="44.85623" lon="5.76347">
        <ele>825.51994</ele>
        <time>2025-07-10T11:23:09.000Z</time>
      </trkpt>
      <trkpt lat="44.85628" lon="5.7635">
        <ele>825.458772</ele>
        <time>2025-07-10T11:23:10.000Z</time>
      </trkpt>
      <trkpt lat="44.85632" lon="5.76352">
        <ele>825.40037</ele>
        <time>2025-07-10T11:23:11.000Z</time>
      </trkpt>
      <trkpt lat="44.85637" lon="5.76355">
        <ele>825.341384</ele>
        <time>2025-07-10T11:23:12.000Z</time>
      </trkpt>
      <trkpt lat="44.85642" lon="5.76358">
        <ele>825.283919</ele>
        <time>2025-07-10T11:23:13.000Z</time>
      </trkpt>
      <trkpt lat="44.85646" lon="5.7636">
        <ele>825.226783</ele>
        <time>2025-07-10T11:23:14.000Z</time>
      </trkpt>
      <trkpt lat="44.85651" lon="5.76363">
        <ele>825.167489</ele>
        <time>2025-07-10T11:23:15.000Z</time>
      </trkpt>
      <trkpt lat="44.85655" lon="5.76366">
        <ele>825.108196</ele>
        <time>2025-07-10T11:23:16.000Z</time>
      </trkpt>
      <trkpt lat="44.8566" lon="5.76368">
        <ele>825.048412</ele>
        <time>2025-07-10T11:23:17.000Z</time>
      </trkpt>
      <trkpt lat="44.85665" lon="5.76371">
        <ele>824.989426</ele>
        <time>2025-07-10T11:23:18.000Z</time>
      </trkpt>
      <trkpt lat="44.8567" lon="5.76374">
        <ele>824.929049</ele>
        <time>2025-07-10T11:23:19.000Z</time>
      </trkpt>
      <trkpt lat="44.85675" lon="5.76376">
        <ele>824.867585</ele>
        <time>2025-07-10T11:23:20.000Z</time>
      </trkpt>
      <trkpt lat="44.8568" lon="5.76379">
        <ele>824.806417</ele>
        <time>2025-07-10T11:23:21.000Z</time>
      </trkpt>
      <trkpt lat="44.85684" lon="5.76382">
        <ele>824.74604</ele>
        <time>2025-07-10T11:23:22.000Z</time>
      </trkpt>
      <trkpt lat="44.85689" lon="5.76384">
        <ele>824.686746</ele>
        <time>2025-07-10T11:23:23.000Z</time>
      </trkpt>
      <trkpt lat="44.85694" lon="5.76387">
        <ele>824.626057</ele>
        <time>2025-07-10T11:23:24.000Z</time>
      </trkpt>
      <trkpt lat="44.85699" lon="5.7639">
        <ele>824.563795</ele>
        <time>2025-07-10T11:23:25.000Z</time>
      </trkpt>
      <trkpt lat="44.85704" lon="5.76393">
        <ele>824.502025</ele>
        <time>2025-07-10T11:23:26.000Z</time>
      </trkpt>
      <trkpt lat="44.85709" lon="5.76395">
        <ele>824.440255</ele>
        <time>2025-07-10T11:23:27.000Z</time>
      </trkpt>
      <trkpt lat="44.85714" lon="5.76398">
        <ele>824.37709</ele>
        <time>2025-07-10T11:23:28.000Z</time>
      </trkpt>
      <trkpt lat="44.85719" lon="5.76401">
        <ele>824.314536</ele>
        <time>2025-07-10T11:23:29.000Z</time>
      </trkpt>
      <trkpt lat="44.85724" lon="5.76404">
        <ele>824.251982</ele>
        <time>2025-07-10T11:23:30.000Z</time>
      </trkpt>
      <trkpt lat="44.85729" lon="5.76406">
        <ele>824.189428</ele>
        <time>2025-07-10T11:23:31.000Z</time>
      </trkpt>
      <trkpt lat="44.85734" lon="5.76409">
        <ele>824.125782</ele>
        <time>2025-07-10T11:23:32.000Z</time>
      </trkpt>
      <trkpt lat="44.85739" lon="5.76412">
        <ele>824.061041</ele>
        <time>2025-07-10T11:23:33.000Z</time>
      </trkpt>
      <trkpt lat="44.85744" lon="5.76415">
        <ele>823.995824</ele>
        <time>2025-07-10T11:23:34.000Z</time>
      </trkpt>
      <trkpt lat="44.85749" lon="5.76418">
        <ele>823.929559</ele>
        <time>2025-07-10T11:23:35.000Z</time>
      </trkpt>
      <trkpt lat="44.85754" lon="5.76422">
        <ele>823.862804</ele>
        <time>2025-07-10T11:23:36.000Z</time>
      </trkpt>
      <trkpt lat="44.85759" lon="5.76427">
        <ele>823.621042</ele>
        <time>2025-07-10T11:23:37.000Z</time>
      </trkpt>
      <trkpt lat="44.85763" lon="5.76434">
        <ele>823.284523</ele>
        <time>2025-07-10T11:23:38.000Z</time>
      </trkpt>
      <trkpt lat="44.85767" lon="5.76441">
        <ele>822.923505</ele>
        <time>2025-07-10T11:23:39.000Z</time>
      </trkpt>
      <trkpt lat="44.8577" lon="5.7645">
        <ele>822.552265</ele>
        <time>2025-07-10T11:23:40.000Z</time>
      </trkpt>
      <trkpt lat="44.85773" lon="5.7646">
        <ele>822.1587</ele>
        <time>2025-07-10T11:23:41.000Z</time>
      </trkpt>
      <trkpt lat="44.85774" lon="5.7647">
        <ele>821.750328</ele>
        <time>2025-07-10T11:23:42.000Z</time>
      </trkpt>
      <trkpt lat="44.85775" lon="5.76481">
        <ele>821.320435</ele>
        <time>2025-07-10T11:23:43.000Z</time>
      </trkpt>
      <trkpt lat="44.85776" lon="5.76493">
        <ele>820.875811</ele>
        <time>2025-07-10T11:23:44.000Z</time>
      </trkpt>
      <trkpt lat="44.85777" lon="5.76504">
        <ele>820.415323</ele>
        <time>2025-07-10T11:23:45.000Z</time>
      </trkpt>
      <trkpt lat="44.85778" lon="5.76517">
        <ele>819.942762</ele>
        <time>2025-07-10T11:23:46.000Z</time>
      </trkpt>
      <trkpt lat="44.85779" lon="5.76529">
        <ele>819.458736</ele>
        <time>2025-07-10T11:23:47.000Z</time>
      </trkpt>
      <trkpt lat="44.85781" lon="5.76541">
        <ele>818.974348</ele>
        <time>2025-07-10T11:23:48.000Z</time>
      </trkpt>
      <trkpt lat="44.85784" lon="5.76554">
        <ele>818.480473</ele>
        <time>2025-07-10T11:23:49.000Z</time>
      </trkpt>
      <trkpt lat="44.85787" lon="5.76566">
        <ele>817.969881</ele>
        <time>2025-07-10T11:23:50.000Z</time>
      </trkpt>
      <trkpt lat="44.85792" lon="5.76578">
        <ele>817.453445</ele>
        <time>2025-07-10T11:23:51.000Z</time>
      </trkpt>
      <trkpt lat="44.85796" lon="5.7659">
        <ele>816.934476</ele>
        <time>2025-07-10T11:23:52.000Z</time>
      </trkpt>
      <trkpt lat="44.85801" lon="5.76602">
        <ele>816.401611</ele>
        <time>2025-07-10T11:23:53.000Z</time>
      </trkpt>
      <trkpt lat="44.85806" lon="5.76613">
        <ele>815.866984</ele>
        <time>2025-07-10T11:23:54.000Z</time>
      </trkpt>
      <trkpt lat="44.85812" lon="5.76625">
        <ele>815.326961</ele>
        <time>2025-07-10T11:23:55.000Z</time>
      </trkpt>
      <trkpt lat="44.85818" lon="5.76636">
        <ele>814.782358</ele>
        <time>2025-07-10T11:23:56.000Z</time>
      </trkpt>
      <trkpt lat="44.85826" lon="5.76646">
        <ele>814.231199</ele>
        <time>2025-07-10T11:23:57.000Z</time>
      </trkpt>
      <trkpt lat="44.85834" lon="5.76655">
        <ele>813.665127</ele>
        <time>2025-07-10T11:23:58.000Z</time>
      </trkpt>
      <trkpt lat="44.85843" lon="5.76663">
        <ele>813.09283</ele>
        <time>2025-07-10T11:23:59.000Z</time>
      </trkpt>
      <trkpt lat="44.85852" lon="5.76669">
        <ele>812.512256</ele>
        <time>2025-07-10T11:24:00.000Z</time>
      </trkpt>
      <trkpt lat="44.85862" lon="5.76674">
        <ele>811.934239</ele>
        <time>2025-07-10T11:24:01.000Z</time>
      </trkpt>
      <trkpt lat="44.85872" lon="5.76678">
        <ele>811.352383</ele>
        <time>2025-07-10T11:24:02.000Z</time>
      </trkpt>
      <trkpt lat="44.85882" lon="5.76681">
        <ele>810.763817</ele>
        <time>2025-07-10T11:24:03.000Z</time>
      </trkpt>
      <trkpt lat="44.85893" lon="5.76685">
        <ele>810.176185</ele>
        <time>2025-07-10T11:24:04.000Z</time>
      </trkpt>
      <trkpt lat="44.85903" lon="5.76688">
        <ele>809.588552</ele>
        <time>2025-07-10T11:24:05.000Z</time>
      </trkpt>
      <trkpt lat="44.85913" lon="5.76692">
        <ele>809.006311</ele>
        <time>2025-07-10T11:24:06.000Z</time>
      </trkpt>
      <trkpt lat="44.85923" lon="5.76695">
        <ele>808.414184</ele>
        <time>2025-07-10T11:24:07.000Z</time>
      </trkpt>
      <trkpt lat="44.85934" lon="5.76698">
        <ele>807.824609</ele>
        <time>2025-07-10T11:24:08.000Z</time>
      </trkpt>
      <trkpt lat="44.85944" lon="5.76702">
        <ele>807.238768</ele>
        <time>2025-07-10T11:24:09.000Z</time>
      </trkpt>
      <trkpt lat="44.85954" lon="5.76705">
        <ele>806.656527</ele>
        <time>2025-07-10T11:24:10.000Z</time>
      </trkpt>
      <trkpt lat="44.85964" lon="5.76708">
        <ele>806.081499</ele>
        <time>2025-07-10T11:24:11.000Z</time>
      </trkpt>
      <trkpt lat="44.85975" lon="5.76711">
        <ele>805.506591</ele>
        <time>2025-07-10T11:24:12.000Z</time>
      </trkpt>
      <trkpt lat="44.85985" lon="5.76713">
        <ele>804.930931</ele>
        <time>2025-07-10T11:24:13.000Z</time>
      </trkpt>
      <trkpt lat="44.85995" lon="5.76714">
        <ele>804.353007</ele>
        <time>2025-07-10T11:24:14.000Z</time>
      </trkpt>
      <trkpt lat="44.86006" lon="5.76714">
        <ele>803.779519</ele>
        <time>2025-07-10T11:24:15.000Z</time>
      </trkpt>
      <trkpt lat="44.86016" lon="5.76714">
        <ele>803.207702</ele>
        <time>2025-07-10T11:24:16.000Z</time>
      </trkpt>
      <trkpt lat="44.86027" lon="5.76714">
        <ele>802.630439</ele>
        <time>2025-07-10T11:24:17.000Z</time>
      </trkpt>
      <trkpt lat="44.86038" lon="5.76714">
        <ele>802.0639</ele>
        <time>2025-07-10T11:24:18.000Z</time>
      </trkpt>
      <trkpt lat="44.86048" lon="5.76713">
        <ele>801.502403</ele>
        <time>2025-07-10T11:24:19.000Z</time>
      </trkpt>
      <trkpt lat="44.86058" lon="5.76712">
        <ele>800.950254</ele>
        <time>2025-07-10T11:24:20.000Z</time>
      </trkpt>
      <trkpt lat="44.86068" lon="5.76709">
        <ele>800.407023</ele>
        <time>2025-07-10T11:24:21.000Z</time>
      </trkpt>
      <trkpt lat="44.86078" lon="5.76705">
        <ele>799.875116</ele>
        <time>2025-07-10T11:24:22.000Z</time>
      </trkpt>
      <trkpt lat="44.86086" lon="5.76699">
        <ele>799.347868</ele>
        <time>2025-07-10T11:24:23.000Z</time>
      </trkpt>
      <trkpt lat="44.86094" lon="5.76691">
        <ele>798.838661</ele>
        <time>2025-07-10T11:24:24.000Z</time>
      </trkpt>
      <trkpt lat="44.86101" lon="5.76683">
        <ele>798.332209</ele>
        <time>2025-07-10T11:24:25.000Z</time>
      </trkpt>
      <trkpt lat="44.86108" lon="5.76674">
        <ele>797.830503</ele>
        <time>2025-07-10T11:24:26.000Z</time>
      </trkpt>
      <trkpt lat="44.86114" lon="5.76665">
        <ele>797.33487</ele>
        <time>2025-07-10T11:24:27.000Z</time>
      </trkpt>
      <trkpt lat="44.86121" lon="5.76656">
        <ele>796.848188</ele>
        <time>2025-07-10T11:24:28.000Z</time>
      </trkpt>
      <trkpt lat="44.86129" lon="5.7665">
        <ele>796.357629</ele>
        <time>2025-07-10T11:24:29.000Z</time>
      </trkpt>
      <trkpt lat="44.86138" lon="5.76648">
        <ele>795.863527</ele>
        <time>2025-07-10T11:24:30.000Z</time>
      </trkpt>
      <trkpt lat="44.86148" lon="5.76649">
        <ele>795.355738</ele>
        <time>2025-07-10T11:24:31.000Z</time>
      </trkpt>
      <trkpt lat="44.86157" lon="5.76652">
        <ele>794.834483</ele>
        <time>2025-07-10T11:24:32.000Z</time>
      </trkpt>
      <trkpt lat="44.86165" lon="5.7666">
        <ele>794.307721</ele>
        <time>2025-07-10T11:24:33.000Z</time>
      </trkpt>
      <trkpt lat="44.86169" lon="5.76671">
        <ele>793.728129</ele>
        <time>2025-07-10T11:24:34.000Z</time>
      </trkpt>
      <trkpt lat="44.86172" lon="5.76685">
        <ele>793.124572</ele>
        <time>2025-07-10T11:24:35.000Z</time>
      </trkpt>
      <trkpt lat="44.86172" lon="5.76699">
        <ele>792.515995</ele>
        <time>2025-07-10T11:24:36.000Z</time>
      </trkpt>
      <trkpt lat="44.86171" lon="5.76712">
        <ele>791.927105</ele>
        <time>2025-07-10T11:24:37.000Z</time>
      </trkpt>
      <trkpt lat="44.8617" lon="5.76726">
        <ele>791.330563</ele>
        <time>2025-07-10T11:24:38.000Z</time>
      </trkpt>
      <trkpt lat="44.86168" lon="5.7674">
        <ele>790.706661</ele>
        <time>2025-07-10T11:24:39.000Z</time>
      </trkpt>
      <trkpt lat="44.86166" lon="5.76755">
        <ele>790.067583</ele>
        <time>2025-07-10T11:24:40.000Z</time>
      </trkpt>
      <trkpt lat="44.86164" lon="5.76769">
        <ele>789.42659</ele>
        <time>2025-07-10T11:24:41.000Z</time>
      </trkpt>
      <trkpt lat="44.86162" lon="5.76784">
        <ele>788.780186</ele>
        <time>2025-07-10T11:24:42.000Z</time>
      </trkpt>
      <trkpt lat="44.8616" lon="5.76798">
        <ele>788.143466</ele>
        <time>2025-07-10T11:24:43.000Z</time>
      </trkpt>
      <trkpt lat="44.86158" lon="5.76813">
        <ele>787.494993</ele>
        <time>2025-07-10T11:24:44.000Z</time>
      </trkpt>
      <trkpt lat="44.86156" lon="5.76827">
        <ele>786.858273</ele>
        <time>2025-07-10T11:24:45.000Z</time>
      </trkpt>
      <trkpt lat="44.86154" lon="5.76842">
        <ele>786.215105</ele>
        <time>2025-07-10T11:24:46.000Z</time>
      </trkpt>
      <trkpt lat="44.86153" lon="5.76856">
        <ele>785.570915</ele>
        <time>2025-07-10T11:24:47.000Z</time>
      </trkpt>
      <trkpt lat="44.86152" lon="5.76871">
        <ele>784.92897</ele>
        <time>2025-07-10T11:24:48.000Z</time>
      </trkpt>
      <trkpt lat="44.86153" lon="5.76886">
        <ele>784.283251</ele>
        <time>2025-07-10T11:24:49.000Z</time>
      </trkpt>
      <trkpt lat="44.86156" lon="5.769">
        <ele>783.650147</ele>
        <time>2025-07-10T11:24:50.000Z</time>
      </trkpt>
      <trkpt lat="44.86162" lon="5.76912">
        <ele>783.048584</ele>
        <time>2025-07-10T11:24:51.000Z</time>
      </trkpt>
      <trkpt lat="44.86169" lon="5.76922">
        <ele>782.483002</ele>
        <time>2025-07-10T11:24:52.000Z</time>
      </trkpt>
      <trkpt lat="44.86176" lon="5.76932">
        <ele>781.908567</ele>
        <time>2025-07-10T11:24:53.000Z</time>
      </trkpt>
      <trkpt lat="44.86184" lon="5.76942">
        <ele>781.332692</ele>
        <time>2025-07-10T11:24:54.000Z</time>
      </trkpt>
      <trkpt lat="44.86192" lon="5.76952">
        <ele>780.766286</ele>
        <time>2025-07-10T11:24:55.000Z</time>
      </trkpt>
      <trkpt lat="44.86199" lon="5.76963">
        <ele>780.204285</ele>
        <time>2025-07-10T11:24:56.000Z</time>
      </trkpt>
      <trkpt lat="44.86203" lon="5.76975">
        <ele>779.665503</ele>
        <time>2025-07-10T11:24:57.000Z</time>
      </trkpt>
      <trkpt lat="44.86206" lon="5.76989">
        <ele>779.112697</ele>
        <time>2025-07-10T11:24:58.000Z</time>
      </trkpt>
      <trkpt lat="44.86206" lon="5.77004">
        <ele>778.540696</ele>
        <time>2025-07-10T11:24:59.000Z</time>
      </trkpt>
      <trkpt lat="44.86205" lon="5.77018">
        <ele>777.960505</ele>
        <time>2025-07-10T11:25:00.000Z</time>
      </trkpt>
      <trkpt lat="44.86203" lon="5.77033">
        <ele>777.36873</ele>
        <time>2025-07-10T11:25:01.000Z</time>
      </trkpt>
      <trkpt lat="44.86202" lon="5.77049">
        <ele>776.770966</ele>
        <time>2025-07-10T11:25:02.000Z</time>
      </trkpt>
      <trkpt lat="44.86202" lon="5.77064">
        <ele>776.174109</ele>
        <time>2025-07-10T11:25:03.000Z</time>
      </trkpt>
      <trkpt lat="44.86202" lon="5.77079">
        <ele>775.578769</ele>
        <time>2025-07-10T11:25:04.000Z</time>
      </trkpt>
      <trkpt lat="44.86204" lon="5.77094">
        <ele>774.991898</ele>
        <time>2025-07-10T11:25:05.000Z</time>
      </trkpt>
      <trkpt lat="44.86209" lon="5.77108">
        <ele>774.399759</ele>
        <time>2025-07-10T11:25:06.000Z</time>
      </trkpt>
      <trkpt lat="44.86215" lon="5.7712">
        <ele>773.805991</ele>
        <time>2025-07-10T11:25:07.000Z</time>
      </trkpt>
      <trkpt lat="44.86223" lon="5.77131">
        <ele>773.17389</ele>
        <time>2025-07-10T11:25:08.000Z</time>
      </trkpt>
      <trkpt lat="44.8623" lon="5.77141">
        <ele>772.480574</ele>
        <time>2025-07-10T11:25:09.000Z</time>
      </trkpt>
      <trkpt lat="44.86238" lon="5.77152">
        <ele>771.787257</ele>
        <time>2025-07-10T11:25:10.000Z</time>
      </trkpt>
      <trkpt lat="44.86245" lon="5.77164">
        <ele>771.08173</ele>
        <time>2025-07-10T11:25:11.000Z</time>
      </trkpt>
      <trkpt lat="44.86251" lon="5.77177">
        <ele>770.369486</ele>
        <time>2025-07-10T11:25:12.000Z</time>
      </trkpt>
      <trkpt lat="44.86256" lon="5.77191">
        <ele>769.662761</ele>
        <time>2025-07-10T11:25:13.000Z</time>
      </trkpt>
      <trkpt lat="44.8626" lon="5.77205">
        <ele>768.957337</ele>
        <time>2025-07-10T11:25:14.000Z</time>
      </trkpt>
      <trkpt lat="44.86265" lon="5.77219">
        <ele>768.240879</ele>
        <time>2025-07-10T11:25:15.000Z</time>
      </trkpt>
      <trkpt lat="44.86269" lon="5.77233">
        <ele>767.540704</ele>
        <time>2025-07-10T11:25:16.000Z</time>
      </trkpt>
      <trkpt lat="44.86273" lon="5.77247">
        <ele>766.846311</ele>
        <time>2025-07-10T11:25:17.000Z</time>
      </trkpt>
      <trkpt lat="44.86278" lon="5.7726">
        <ele>766.161344</ele>
        <time>2025-07-10T11:25:18.000Z</time>
      </trkpt>
      <trkpt lat="44.86282" lon="5.77274">
        <ele>765.480586</ele>
        <time>2025-07-10T11:25:19.000Z</time>
      </trkpt>
      <trkpt lat="44.86287" lon="5.77288">
        <ele>764.787507</ele>
        <time>2025-07-10T11:25:20.000Z</time>
      </trkpt>
      <trkpt lat="44.86293" lon="5.773">
        <ele>764.098533</ele>
        <time>2025-07-10T11:25:21.000Z</time>
      </trkpt>
      <trkpt lat="44.86299" lon="5.77312">
        <ele>763.423964</ele>
        <time>2025-07-10T11:25:22.000Z</time>
      </trkpt>
      <trkpt lat="44.86306" lon="5.77322">
        <ele>762.763534</ele>
        <time>2025-07-10T11:25:23.000Z</time>
      </trkpt>
      <trkpt lat="44.86313" lon="5.77332">
        <ele>762.085907</ele>
        <time>2025-07-10T11:25:24.000Z</time>
      </trkpt>
      <trkpt lat="44.86321" lon="5.77342">
        <ele>761.376376</ele>
        <time>2025-07-10T11:25:25.000Z</time>
      </trkpt>
      <trkpt lat="44.86329" lon="5.77352">
        <ele>760.653365</ele>
        <time>2025-07-10T11:25:26.000Z</time>
      </trkpt>
      <trkpt lat="44.86337" lon="5.77362">
        <ele>759.923232</ele>
        <time>2025-07-10T11:25:27.000Z</time>
      </trkpt>
      <trkpt lat="44.86345" lon="5.77372">
        <ele>759.198281</ele>
        <time>2025-07-10T11:25:28.000Z</time>
      </trkpt>
      <trkpt lat="44.86353" lon="5.77382">
        <ele>758.463709</ele>
        <time>2025-07-10T11:25:29.000Z</time>
      </trkpt>
      <trkpt lat="44.86361" lon="5.77393">
        <ele>757.73246</ele>
        <time>2025-07-10T11:25:30.000Z</time>
      </trkpt>
      <trkpt lat="44.86368" lon="5.77404">
        <ele>757.00095</ele>
        <time>2025-07-10T11:25:31.000Z</time>
      </trkpt>
      <trkpt lat="44.86374" lon="5.77416">
        <ele>756.26847</ele>
        <time>2025-07-10T11:25:32.000Z</time>
      </trkpt>
      <trkpt lat="44.86381" lon="5.77428">
        <ele>755.524592</ele>
        <time>2025-07-10T11:25:33.000Z</time>
      </trkpt>
      <trkpt lat="44.86387" lon="5.77441">
        <ele>754.768844</ele>
        <time>2025-07-10T11:25:34.000Z</time>
      </trkpt>
      <trkpt lat="44.86394" lon="5.77454">
        <ele>754.001169</ele>
        <time>2025-07-10T11:25:35.000Z</time>
      </trkpt>
      <trkpt lat="44.864" lon="5.77467">
        <ele>753.241242</ele>
        <time>2025-07-10T11:25:36.000Z</time>
      </trkpt>
      <trkpt lat="44.86406" lon="5.7748">
        <ele>752.481316</ele>
        <time>2025-07-10T11:25:37.000Z</time>
      </trkpt>
      <trkpt lat="44.86412" lon="5.77493">
        <ele>751.713323</ele>
        <time>2025-07-10T11:25:38.000Z</time>
      </trkpt>
      <trkpt lat="44.86418" lon="5.77507">
        <ele>750.939389</ele>
        <time>2025-07-10T11:25:39.000Z</time>
      </trkpt>
      <trkpt lat="44.86423" lon="5.77521">
        <ele>750.164502</ele>
        <time>2025-07-10T11:25:40.000Z</time>
      </trkpt>
      <trkpt lat="44.86426" lon="5.77537">
        <ele>749.403884</ele>
        <time>2025-07-10T11:25:41.000Z</time>
      </trkpt>
      <trkpt lat="44.86429" lon="5.77553">
        <ele>748.743355</ele>
        <time>2025-07-10T11:25:42.000Z</time>
      </trkpt>
      <trkpt lat="44.86432" lon="5.77569">
        <ele>748.08702</ele>
        <time>2025-07-10T11:25:43.000Z</time>
      </trkpt>
      <trkpt lat="44.86437" lon="5.77584">
        <ele>747.428963</ele>
        <time>2025-07-10T11:25:44.000Z</time>
      </trkpt>
      <trkpt lat="44.86443" lon="5.77598">
        <ele>746.780096</ele>
        <time>2025-07-10T11:25:45.000Z</time>
      </trkpt>
      <trkpt lat="44.8645" lon="5.7761">
        <ele>746.12911</ele>
        <time>2025-07-10T11:25:46.000Z</time>
      </trkpt>
      <trkpt lat="44.86459" lon="5.77621">
        <ele>745.475563</ele>
        <time>2025-07-10T11:25:47.000Z</time>
      </trkpt>
      <trkpt lat="44.86467" lon="5.77633">
        <ele>744.825769</ele>
        <time>2025-07-10T11:25:48.000Z</time>
      </trkpt>
      <trkpt lat="44.86474" lon="5.77645">
        <ele>744.195629</ele>
        <time>2025-07-10T11:25:49.000Z</time>
      </trkpt>
      <trkpt lat="44.8648" lon="5.77658">
        <ele>743.56742</ele>
        <time>2025-07-10T11:25:50.000Z</time>
      </trkpt>
      <trkpt lat="44.86485" lon="5.77672">
        <ele>742.932026</ele>
        <time>2025-07-10T11:25:51.000Z</time>
      </trkpt>
      <trkpt lat="44.86488" lon="5.77687">
        <ele>742.295473</ele>
        <time>2025-07-10T11:25:52.000Z</time>
      </trkpt>
      <trkpt lat="44.86492" lon="5.77702">
        <ele>741.654498</ele>
        <time>2025-07-10T11:25:53.000Z</time>
      </trkpt>
      <trkpt lat="44.86495" lon="5.77718">
        <ele>741.013954</ele>
        <time>2025-07-10T11:25:54.000Z</time>
      </trkpt>
      <trkpt lat="44.86499" lon="5.77733">
        <ele>740.379293</ele>
        <time>2025-07-10T11:25:55.000Z</time>
      </trkpt>
      <trkpt lat="44.86503" lon="5.77747">
        <ele>739.767206</ele>
        <time>2025-07-10T11:25:56.000Z</time>
      </trkpt>
      <trkpt lat="44.86507" lon="5.7776">
        <ele>739.20593</ele>
        <time>2025-07-10T11:25:57.000Z</time>
      </trkpt>
      <trkpt lat="44.86513" lon="5.77772">
        <ele>738.724987</ele>
        <time>2025-07-10T11:25:58.000Z</time>
      </trkpt>
      <trkpt lat="44.86519" lon="5.77782">
        <ele>738.277464</ele>
        <time>2025-07-10T11:25:59.000Z</time>
      </trkpt>
      <trkpt lat="44.86526" lon="5.7779">
        <ele>737.822404</ele>
        <time>2025-07-10T11:26:00.000Z</time>
      </trkpt>
      <trkpt lat="44.86535" lon="5.77796">
        <ele>737.341745</ele>
        <time>2025-07-10T11:26:01.000Z</time>
      </trkpt>
      <trkpt lat="44.86545" lon="5.77801">
        <ele>736.876681</ele>
        <time>2025-07-10T11:26:02.000Z</time>
      </trkpt>
      <trkpt lat="44.86553" lon="5.77805">
        <ele>736.439606</ele>
        <time>2025-07-10T11:26:03.000Z</time>
      </trkpt>
      <trkpt lat="44.86562" lon="5.77808">
        <ele>735.981419</ele>
        <time>2025-07-10T11:26:04.000Z</time>
      </trkpt>
      <trkpt lat="44.86572" lon="5.77812">
        <ele>735.511199</ele>
        <time>2025-07-10T11:26:05.000Z</time>
      </trkpt>
      <trkpt lat="44.86581" lon="5.77816">
        <ele>735.041927</ele>
        <time>2025-07-10T11:26:06.000Z</time>
      </trkpt>
      <trkpt lat="44.86591" lon="5.7782">
        <ele>734.577268</ele>
        <time>2025-07-10T11:26:07.000Z</time>
      </trkpt>
      <trkpt lat="44.86599" lon="5.77824">
        <ele>734.125697</ele>
        <time>2025-07-10T11:26:08.000Z</time>
      </trkpt>
      <trkpt lat="44.86609" lon="5.77831">
        <ele>733.626098</ele>
        <time>2025-07-10T11:26:09.000Z</time>
      </trkpt>
      <trkpt lat="44.86616" lon="5.77841">
        <ele>733.145599</ele>
        <time>2025-07-10T11:26:10.000Z</time>
      </trkpt>
      <trkpt lat="44.8662" lon="5.77854">
        <ele>732.659034</ele>
        <time>2025-07-10T11:26:11.000Z</time>
      </trkpt>
      <trkpt lat="44.86623" lon="5.77867">
        <ele>732.174554</ele>
        <time>2025-07-10T11:26:12.000Z</time>
      </trkpt>
      <trkpt lat="44.86627" lon="5.77881">
        <ele>731.682409</ele>
        <time>2025-07-10T11:26:13.000Z</time>
      </trkpt>
      <trkpt lat="44.8663" lon="5.77894">
        <ele>731.194991</ele>
        <time>2025-07-10T11:26:14.000Z</time>
      </trkpt>
      <trkpt lat="44.86634" lon="5.77907">
        <ele>730.704834</ele>
        <time>2025-07-10T11:26:15.000Z</time>
      </trkpt>
      <trkpt lat="44.86639" lon="5.7792">
        <ele>730.080082</ele>
        <time>2025-07-10T11:26:16.000Z</time>
      </trkpt>
      <trkpt lat="44.86644" lon="5.77932">
        <ele>729.442457</ele>
        <time>2025-07-10T11:26:17.000Z</time>
      </trkpt>
      <trkpt lat="44.8665" lon="5.77943">
        <ele>728.812411</ele>
        <time>2025-07-10T11:26:18.000Z</time>
      </trkpt>
      <trkpt lat="44.86655" lon="5.77955">
        <ele>728.206368</ele>
        <time>2025-07-10T11:26:19.000Z</time>
      </trkpt>
      <trkpt lat="44.8666" lon="5.77967">
        <ele>727.589908</ele>
        <time>2025-07-10T11:26:20.000Z</time>
      </trkpt>
      <trkpt lat="44.86665" lon="5.77979">
        <ele>726.953569</ele>
        <time>2025-07-10T11:26:21.000Z</time>
      </trkpt>
      <trkpt lat="44.86668" lon="5.77993">
        <ele>726.305168</ele>
        <time>2025-07-10T11:26:22.000Z</time>
      </trkpt>
      <trkpt lat="44.86674" lon="5.78005">
        <ele>725.659749</ele>
        <time>2025-07-10T11:26:23.000Z</time>
      </trkpt>
      <trkpt lat="44.86681" lon="5.78016">
        <ele>724.994313</ele>
        <time>2025-07-10T11:26:24.000Z</time>
      </trkpt>
      <trkpt lat="44.86691" lon="5.78022">
        <ele>724.317456</ele>
        <time>2025-07-10T11:26:25.000Z</time>
      </trkpt>
      <trkpt lat="44.86701" lon="5.78023">
        <ele>723.71315</ele>
        <time>2025-07-10T11:26:26.000Z</time>
      </trkpt>
      <trkpt lat="44.86711" lon="5.78023">
        <ele>723.101642</ele>
        <time>2025-07-10T11:26:27.000Z</time>
      </trkpt>
      <trkpt lat="44.86721" lon="5.78021">
        <ele>722.461532</ele>
        <time>2025-07-10T11:26:28.000Z</time>
      </trkpt>
      <trkpt lat="44.86731" lon="5.78018">
        <ele>721.817637</ele>
        <time>2025-07-10T11:26:29.000Z</time>
      </trkpt>
      <trkpt lat="44.8674" lon="5.78013">
        <ele>721.193444</ele>
        <time>2025-07-10T11:26:30.000Z</time>
      </trkpt>
      <trkpt lat="44.86748" lon="5.78006">
        <ele>720.589828</ele>
        <time>2025-07-10T11:26:31.000Z</time>
      </trkpt>
      <trkpt lat="44.86757" lon="5.77999">
        <ele>719.953075</ele>
        <time>2025-07-10T11:26:32.000Z</time>
      </trkpt>
      <trkpt lat="44.86765" lon="5.77991">
        <ele>719.336789</ele>
        <time>2025-07-10T11:26:33.000Z</time>
      </trkpt>
      <trkpt lat="44.86774" lon="5.77983">
        <ele>718.739073</ele>
        <time>2025-07-10T11:26:34.000Z</time>
      </trkpt>
      <trkpt lat="44.86782" lon="5.77976">
        <ele>718.137309</ele>
        <time>2025-07-10T11:26:35.000Z</time>
      </trkpt>
      <trkpt lat="44.86791" lon="5.77969">
        <ele>717.530288</ele>
        <time>2025-07-10T11:26:36.000Z</time>
      </trkpt>
      <trkpt lat="44.868" lon="5.77963">
        <ele>716.93366</ele>
        <time>2025-07-10T11:26:37.000Z</time>
      </trkpt>
      <trkpt lat="44.8681" lon="5.77956">
        <ele>716.329094</ele>
        <time>2025-07-10T11:26:38.000Z</time>
      </trkpt>
      <trkpt lat="44.86819" lon="5.77951">
        <ele>715.731387</ele>
        <time>2025-07-10T11:26:39.000Z</time>
      </trkpt>
      <trkpt lat="44.86829" lon="5.77948">
        <ele>715.133363</ele>
        <time>2025-07-10T11:26:40.000Z</time>
      </trkpt>
      <trkpt lat="44.86839" lon="5.77945">
        <ele>714.537324</ele>
        <time>2025-07-10T11:26:41.000Z</time>
      </trkpt>
      <trkpt lat="44.86849" lon="5.77942">
        <ele>713.935513</ele>
        <time>2025-07-10T11:26:42.000Z</time>
      </trkpt>
      <trkpt lat="44.86859" lon="5.77939">
        <ele>713.340606</ele>
        <time>2025-07-10T11:26:43.000Z</time>
      </trkpt>
      <trkpt lat="44.86868" lon="5.77935">
        <ele>712.774328</ele>
        <time>2025-07-10T11:26:44.000Z</time>
      </trkpt>
      <trkpt lat="44.86877" lon="5.7793">
        <ele>712.214198</ele>
        <time>2025-07-10T11:26:45.000Z</time>
      </trkpt>
      <trkpt lat="44.86885" lon="5.77925">
        <ele>711.664281</ele>
        <time>2025-07-10T11:26:46.000Z</time>
      </trkpt>
      <trkpt lat="44.86894" lon="5.77919">
        <ele>711.105867</ele>
        <time>2025-07-10T11:26:47.000Z</time>
      </trkpt>
      <trkpt lat="44.86903" lon="5.77914">
        <ele>710.550974</ele>
        <time>2025-07-10T11:26:48.000Z</time>
      </trkpt>
      <trkpt lat="44.86911" lon="5.77908">
        <ele>709.990869</ele>
        <time>2025-07-10T11:26:49.000Z</time>
      </trkpt>
      <trkpt lat="44.8692" lon="5.77903">
        <ele>709.427169</ele>
        <time>2025-07-10T11:26:50.000Z</time>
      </trkpt>
      <trkpt lat="44.86929" lon="5.77898">
        <ele>708.871814</ele>
        <time>2025-07-10T11:26:51.000Z</time>
      </trkpt>
      <trkpt lat="44.86938" lon="5.77893">
        <ele>708.300255</ele>
        <time>2025-07-10T11:26:52.000Z</time>
      </trkpt>
      <trkpt lat="44.86948" lon="5.77892">
        <ele>707.718416</ele>
        <time>2025-07-10T11:26:53.000Z</time>
      </trkpt>
      <trkpt lat="44.86957" lon="5.77893">
        <ele>707.136576</ele>
        <time>2025-07-10T11:26:54.000Z</time>
      </trkpt>
      <trkpt lat="44.86967" lon="5.77898">
        <ele>706.549615</ele>
        <time>2025-07-10T11:26:55.000Z</time>
      </trkpt>
      <trkpt lat="44.86975" lon="5.77906">
        <ele>705.952035</ele>
        <time>2025-07-10T11:26:56.000Z</time>
      </trkpt>
      <trkpt lat="44.86982" lon="5.77917">
        <ele>705.347329</ele>
        <time>2025-07-10T11:26:57.000Z</time>
      </trkpt>
      <trkpt lat="44.86988" lon="5.77929">
        <ele>704.73684</ele>
        <time>2025-07-10T11:26:58.000Z</time>
      </trkpt>
      <trkpt lat="44.86994" lon="5.77941">
        <ele>704.122997</ele>
        <time>2025-07-10T11:26:59.000Z</time>
      </trkpt>
      <trkpt lat="44.87" lon="5.77953">
        <ele>703.515878</ele>
        <time>2025-07-10T11:27:00.000Z</time>
      </trkpt>
      <trkpt lat="44.87006" lon="5.77964">
        <ele>702.90539</ele>
        <time>2025-07-10T11:27:01.000Z</time>
      </trkpt>
      <trkpt lat="44.87013" lon="5.77976">
        <ele>702.297075</ele>
        <time>2025-07-10T11:27:02.000Z</time>
      </trkpt>
      <trkpt lat="44.87019" lon="5.77987">
        <ele>701.695229</ele>
        <time>2025-07-10T11:27:03.000Z</time>
      </trkpt>
      <trkpt lat="44.87026" lon="5.77998">
        <ele>701.090155</ele>
        <time>2025-07-10T11:27:04.000Z</time>
      </trkpt>
      <trkpt lat="44.87032" lon="5.78009">
        <ele>700.470539</ele>
        <time>2025-07-10T11:27:05.000Z</time>
      </trkpt>
      <trkpt lat="44.87038" lon="5.78021">
        <ele>699.8771</ele>
        <time>2025-07-10T11:27:06.000Z</time>
      </trkpt>
      <trkpt lat="44.87044" lon="5.78032">
        <ele>699.292911</ele>
        <time>2025-07-10T11:27:07.000Z</time>
      </trkpt>
      <trkpt lat="44.87052" lon="5.78041">
        <ele>698.700049</ele>
        <time>2025-07-10T11:27:08.000Z</time>
      </trkpt>
      <trkpt lat="44.87059" lon="5.78049">
        <ele>698.168537</ele>
        <time>2025-07-10T11:27:09.000Z</time>
      </trkpt>
      <trkpt lat="44.87068" lon="5.78054">
        <ele>697.699198</ele>
        <time>2025-07-10T11:27:10.000Z</time>
      </trkpt>
      <trkpt lat="44.87078" lon="5.78059">
        <ele>697.190538</ele>
        <time>2025-07-10T11:27:11.000Z</time>
      </trkpt>
      <trkpt lat="44.87087" lon="5.78063">
        <ele>696.67962</ele>
        <time>2025-07-10T11:27:12.000Z</time>
      </trkpt>
      <trkpt lat="44.87097" lon="5.78066">
        <ele>696.194536</ele>
        <time>2025-07-10T11:27:13.000Z</time>
      </trkpt>
      <trkpt lat="44.87107" lon="5.7807">
        <ele>695.686358</ele>
        <time>2025-07-10T11:27:14.000Z</time>
      </trkpt>
      <trkpt lat="44.87117" lon="5.78073">
        <ele>695.175875</ele>
        <time>2025-07-10T11:27:15.000Z</time>
      </trkpt>
      <trkpt lat="44.87126" lon="5.78077">
        <ele>694.683017</ele>
        <time>2025-07-10T11:27:16.000Z</time>
      </trkpt>
      <trkpt lat="44.87136" lon="5.7808">
        <ele>694.18221</ele>
        <time>2025-07-10T11:27:17.000Z</time>
      </trkpt>
      <trkpt lat="44.87145" lon="5.78083">
        <ele>693.711621</ele>
        <time>2025-07-10T11:27:18.000Z</time>
      </trkpt>
      <trkpt lat="44.87155" lon="5.78085">
        <ele>693.235483</ele>
        <time>2025-07-10T11:27:19.000Z</time>
      </trkpt>
      <trkpt lat="44.87164" lon="5.78087">
        <ele>692.754101</ele>
        <time>2025-07-10T11:27:20.000Z</time>
      </trkpt>
      <trkpt lat="44.87174" lon="5.78087">
        <ele>692.271828</ele>
        <time>2025-07-10T11:27:21.000Z</time>
      </trkpt>
      <trkpt lat="44.87184" lon="5.78086">
        <ele>691.79307</ele>
        <time>2025-07-10T11:27:22.000Z</time>
      </trkpt>
      <trkpt lat="44.87193" lon="5.78084">
        <ele>691.312712</ele>
        <time>2025-07-10T11:27:23.000Z</time>
      </trkpt>
      <trkpt lat="44.87203" lon="5.78081">
        <ele>690.828033</ele>
        <time>2025-07-10T11:27:24.000Z</time>
      </trkpt>
      <trkpt lat="44.87213" lon="5.78078">
        <ele>690.330308</ele>
        <time>2025-07-10T11:27:25.000Z</time>
      </trkpt>
      <trkpt lat="44.87222" lon="5.78073">
        <ele>689.832194</ele>
        <time>2025-07-10T11:27:26.000Z</time>
      </trkpt>
      <trkpt lat="44.87232" lon="5.78069">
        <ele>689.332949</ele>
        <time>2025-07-10T11:27:27.000Z</time>
      </trkpt>
      <trkpt lat="44.87241" lon="5.78064">
        <ele>688.801614</ele>
        <time>2025-07-10T11:27:28.000Z</time>
      </trkpt>
      <trkpt lat="44.87251" lon="5.78059">
        <ele>688.25247</ele>
        <time>2025-07-10T11:27:29.000Z</time>
      </trkpt>
      <trkpt lat="44.87261" lon="5.78056">
        <ele>687.703438</ele>
        <time>2025-07-10T11:27:30.000Z</time>
      </trkpt>
      <trkpt lat="44.87271" lon="5.78054">
        <ele>687.146471</ele>
        <time>2025-07-10T11:27:31.000Z</time>
      </trkpt>
      <trkpt lat="44.87282" lon="5.78053">
        <ele>686.578905</ele>
        <time>2025-07-10T11:27:32.000Z</time>
      </trkpt>
      <trkpt lat="44.87292" lon="5.78052">
        <ele>686.025395</ele>
        <time>2025-07-10T11:27:33.000Z</time>
      </trkpt>
      <trkpt lat="44.87302" lon="5.7805">
        <ele>685.492648</ele>
        <time>2025-07-10T11:27:34.000Z</time>
      </trkpt>
      <trkpt lat="44.87312" lon="5.7805">
        <ele>684.994312</ele>
        <time>2025-07-10T11:27:35.000Z</time>
      </trkpt>
      <trkpt lat="44.8732" lon="5.78054">
        <ele>684.552446</ele>
        <time>2025-07-10T11:27:36.000Z</time>
      </trkpt>
      <trkpt lat="44.87326" lon="5.7806">
        <ele>684.155069</ele>
        <time>2025-07-10T11:27:37.000Z</time>
      </trkpt>
      <trkpt lat="44.87328" lon="5.78069">
        <ele>683.797392</ele>
        <time>2025-07-10T11:27:38.000Z</time>
      </trkpt>
      <trkpt lat="44.87327" lon="5.78079">
        <ele>683.412642</ele>
        <time>2025-07-10T11:27:39.000Z</time>
      </trkpt>
      <trkpt lat="44.87325" lon="5.78089">
        <ele>683.020796</ele>
        <time>2025-07-10T11:27:40.000Z</time>
      </trkpt>
      <trkpt lat="44.87323" lon="5.781">
        <ele>682.62464</ele>
        <time>2025-07-10T11:27:41.000Z</time>
      </trkpt>
      <trkpt lat="44.87322" lon="5.7811">
        <ele>682.221771</ele>
        <time>2025-07-10T11:27:42.000Z</time>
      </trkpt>
      <trkpt lat="44.87323" lon="5.78121">
        <ele>681.814324</ele>
        <time>2025-07-10T11:27:43.000Z</time>
      </trkpt>
      <trkpt lat="44.87324" lon="5.78132">
        <ele>681.404401</ele>
        <time>2025-07-10T11:27:44.000Z</time>
      </trkpt>
      <trkpt lat="44.87326" lon="5.78143">
        <ele>680.976599</ele>
        <time>2025-07-10T11:27:45.000Z</time>
      </trkpt>
      <trkpt lat="44.87329" lon="5.78154">
        <ele>680.548072</ele>
        <time>2025-07-10T11:27:46.000Z</time>
      </trkpt>
      <trkpt lat="44.87333" lon="5.78164">
        <ele>680.10751</ele>
        <time>2025-07-10T11:27:47.000Z</time>
      </trkpt>
      <trkpt lat="44.87337" lon="5.78174">
        <ele>679.651145</ele>
        <time>2025-07-10T11:27:48.000Z</time>
      </trkpt>
      <trkpt lat="44.87341" lon="5.78185">
        <ele>679.138948</ele>
        <time>2025-07-10T11:27:49.000Z</time>
      </trkpt>
      <trkpt lat="44.87344" lon="5.78196">
        <ele>678.624109</ele>
        <time>2025-07-10T11:27:50.000Z</time>
      </trkpt>
      <trkpt lat="44.87347" lon="5.78208">
        <ele>678.10336</ele>
        <time>2025-07-10T11:27:51.000Z</time>
      </trkpt>
      <trkpt lat="44.87351" lon="5.78219">
        <ele>677.583618</ele>
        <time>2025-07-10T11:27:52.000Z</time>
      </trkpt>
      <trkpt lat="44.87356" lon="5.78228">
        <ele>677.057106</ele>
        <time>2025-07-10T11:27:53.000Z</time>
      </trkpt>
      <trkpt lat="44.87363" lon="5.78237">
        <ele>676.500207</ele>
        <time>2025-07-10T11:27:54.000Z</time>
      </trkpt>
      <trkpt lat="44.87369" lon="5.78246">
        <ele>675.978226</ele>
        <time>2025-07-10T11:27:55.000Z</time>
      </trkpt>
      <trkpt lat="44.87375" lon="5.78255">
        <ele>675.434615</ele>
        <time>2025-07-10T11:27:56.000Z</time>
      </trkpt>
      <trkpt lat="44.87381" lon="5.78265">
        <ele>674.887268</ele>
        <time>2025-07-10T11:27:57.000Z</time>
      </trkpt>
      <trkpt lat="44.87386" lon="5.78275">
        <ele>674.351053</ele>
        <time>2025-07-10T11:27:58.000Z</time>
      </trkpt>
      <trkpt lat="44.87392" lon="5.78284">
        <ele>673.835363</ele>
        <time>2025-07-10T11:27:59.000Z</time>
      </trkpt>
      <trkpt lat="44.87398" lon="5.78291">
        <ele>673.341093</ele>
        <time>2025-07-10T11:28:00.000Z</time>
      </trkpt>
      <trkpt lat="44.87406" lon="5.78298">
        <ele>672.817958</ele>
        <time>2025-07-10T11:28:01.000Z</time>
      </trkpt>
      <trkpt lat="44.87413" lon="5.78302">
        <ele>672.349066</ele>
        <time>2025-07-10T11:28:02.000Z</time>
      </trkpt>
      <trkpt lat="44.8742" lon="5.78305">
        <ele>671.918985</ele>
        <time>2025-07-10T11:28:03.000Z</time>
      </trkpt>
      <trkpt lat="44.87426" lon="5.78306">
        <ele>671.525909</ele>
        <time>2025-07-10T11:28:04.000Z</time>
      </trkpt>
      <trkpt lat="44.87432" lon="5.78305">
        <ele>671.170412</ele>
        <time>2025-07-10T11:28:05.000Z</time>
      </trkpt>
      <trkpt lat="44.87437" lon="5.78304">
        <ele>670.875421</ele>
        <time>2025-07-10T11:28:06.000Z</time>
      </trkpt>
      <trkpt lat="44.87442" lon="5.78304">
        <ele>670.609753</ele>
        <time>2025-07-10T11:28:07.000Z</time>
      </trkpt>
      <trkpt lat="44.87445" lon="5.78305">
        <ele>670.37629</ele>
        <time>2025-07-10T11:28:08.000Z</time>
      </trkpt>
      <trkpt lat="44.87448" lon="5.78307">
        <ele>670.17081</ele>
        <time>2025-07-10T11:28:09.000Z</time>
      </trkpt>
      <trkpt lat="44.87451" lon="5.7831">
        <ele>669.976526</ele>
        <time>2025-07-10T11:28:10.000Z</time>
      </trkpt>
      <trkpt lat="44.87453" lon="5.78313">
        <ele>669.795338</ele>
        <time>2025-07-10T11:28:11.000Z</time>
      </trkpt>
      <trkpt lat="44.87455" lon="5.78315">
        <ele>669.625781</ele>
        <time>2025-07-10T11:28:12.000Z</time>
      </trkpt>
      <trkpt lat="44.87457" lon="5.78318">
        <ele>669.478917</ele>
        <time>2025-07-10T11:28:13.000Z</time>
      </trkpt>
      <trkpt lat="44.87458" lon="5.7832">
        <ele>669.342435</ele>
        <time>2025-07-10T11:28:14.000Z</time>
      </trkpt>
      <trkpt lat="44.87459" lon="5.78322">
        <ele>669.257656</ele>
        <time>2025-07-10T11:28:15.000Z</time>
      </trkpt>
      <trkpt lat="44.87459" lon="5.78322">
        <ele>669.240089</ele>
        <time>2025-07-10T11:28:16.000Z</time>
      </trkpt>
      <trkpt lat="44.8746" lon="5.78323">
        <ele>669.199862</ele>
        <time>2025-07-10T11:30:26.000Z</time>
      </trkpt>
      <trkpt lat="44.87459" lon="5.78325">
        <ele>669.093171</ele>
        <time>2025-07-10T11:30:27.000Z</time>
      </trkpt>
      <trkpt lat="44.87459" lon="5.78328">
        <ele>668.972394</ele>
        <time>2025-07-10T11:30:28.000Z</time>
      </trkpt>
      <trkpt lat="44.87459" lon="5.78332">
        <ele>668.839701</ele>
        <time>2025-07-10T11:30:29.000Z</time>
      </trkpt>
      <trkpt lat="44.8746" lon="5.78336">
        <ele>668.701295</ele>
        <time>2025-07-10T11:30:30.000Z</time>
      </trkpt>
      <trkpt lat="44.87461" lon="5.7834">
        <ele>668.538717</ele>
        <time>2025-07-10T11:30:31.000Z</time>
      </trkpt>
      <trkpt lat="44.87462" lon="5.78345">
        <ele>668.355246</ele>
        <time>2025-07-10T11:30:32.000Z</time>
      </trkpt>
      <trkpt lat="44.87464" lon="5.7835">
        <ele>668.153133</ele>
        <time>2025-07-10T11:30:33.000Z</time>
      </trkpt>
      <trkpt lat="44.87467" lon="5.78356">
        <ele>667.92935</ele>
        <time>2025-07-10T11:30:34.000Z</time>
      </trkpt>
      <trkpt lat="44.8747" lon="5.78361">
        <ele>667.687343</ele>
        <time>2025-07-10T11:30:35.000Z</time>
      </trkpt>
      <trkpt lat="44.87475" lon="5.78366">
        <ele>667.431616</ele>
        <time>2025-07-10T11:30:36.000Z</time>
      </trkpt>
      <trkpt lat="44.87479" lon="5.7837">
        <ele>667.166156</ele>
        <time>2025-07-10T11:30:37.000Z</time>
      </trkpt>
      <trkpt lat="44.87484" lon="5.78375">
        <ele>666.889013</ele>
        <time>2025-07-10T11:30:38.000Z</time>
      </trkpt>
      <trkpt lat="44.87489" lon="5.78381">
        <ele>666.582802</ele>
        <time>2025-07-10T11:30:39.000Z</time>
      </trkpt>
      <trkpt lat="44.87493" lon="5.78388">
        <ele>666.271091</ele>
        <time>2025-07-10T11:30:40.000Z</time>
      </trkpt>
      <trkpt lat="44.87497" lon="5.78395">
        <ele>665.949754</ele>
        <time>2025-07-10T11:30:41.000Z</time>
      </trkpt>
      <trkpt lat="44.87502" lon="5.78403">
        <ele>665.615227</ele>
        <time>2025-07-10T11:30:42.000Z</time>
      </trkpt>
      <trkpt lat="44.87506" lon="5.78411">
        <ele>665.275091</ele>
        <time>2025-07-10T11:30:43.000Z</time>
      </trkpt>
      <trkpt lat="44.87511" lon="5.78418">
        <ele>664.938645</ele>
        <time>2025-07-10T11:30:44.000Z</time>
      </trkpt>
      <trkpt lat="44.87517" lon="5.78424">
        <ele>664.60277</ele>
        <time>2025-07-10T11:30:45.000Z</time>
      </trkpt>
      <trkpt lat="44.87523" lon="5.78429">
        <ele>664.269912</ele>
        <time>2025-07-10T11:30:46.000Z</time>
      </trkpt>
      <trkpt lat="44.8753" lon="5.78433">
        <ele>663.911642</ele>
        <time>2025-07-10T11:30:47.000Z</time>
      </trkpt>
      <trkpt lat="44.87537" lon="5.78435">
        <ele>663.547361</ele>
        <time>2025-07-10T11:30:48.000Z</time>
      </trkpt>
      <trkpt lat="44.87545" lon="5.78437">
        <ele>663.179785</ele>
        <time>2025-07-10T11:30:49.000Z</time>
      </trkpt>
      <trkpt lat="44.87552" lon="5.7844">
        <ele>662.811048</ele>
        <time>2025-07-10T11:30:50.000Z</time>
      </trkpt>
      <trkpt lat="44.87559" lon="5.78445">
        <ele>662.430663</ele>
        <time>2025-07-10T11:30:51.000Z</time>
      </trkpt>
      <trkpt lat="44.87567" lon="5.78449">
        <ele>662.047664</ele>
        <time>2025-07-10T11:30:52.000Z</time>
      </trkpt>
      <trkpt lat="44.87575" lon="5.7845">
        <ele>661.657845</ele>
        <time>2025-07-10T11:30:53.000Z</time>
      </trkpt>
      <trkpt lat="44.87583" lon="5.78448">
        <ele>661.265039</ele>
        <time>2025-07-10T11:30:54.000Z</time>
      </trkpt>
      <trkpt lat="44.87591" lon="5.78445">
        <ele>660.860385</ele>
        <time>2025-07-10T11:30:55.000Z</time>
      </trkpt>
      <trkpt lat="44.87599" lon="5.78444">
        <ele>660.481179</ele>
        <time>2025-07-10T11:30:56.000Z</time>
      </trkpt>
      <trkpt lat="44.87607" lon="5.78446">
        <ele>660.066088</ele>
        <time>2025-07-10T11:30:57.000Z</time>
      </trkpt>
      <trkpt lat="44.87615" lon="5.78452">
        <ele>659.624969</ele>
        <time>2025-07-10T11:30:58.000Z</time>
      </trkpt>
      <trkpt lat="44.87621" lon="5.78459">
        <ele>659.19011</ele>
        <time>2025-07-10T11:30:59.000Z</time>
      </trkpt>
      <trkpt lat="44.87628" lon="5.78465">
        <ele>658.76118</ele>
        <time>2025-07-10T11:31:00.000Z</time>
      </trkpt>
      <trkpt lat="44.87636" lon="5.7847">
        <ele>658.335366</ele>
        <time>2025-07-10T11:31:01.000Z</time>
      </trkpt>
      <trkpt lat="44.87644" lon="5.78473">
        <ele>657.900739</ele>
        <time>2025-07-10T11:31:02.000Z</time>
      </trkpt>
      <trkpt lat="44.87652" lon="5.78474">
        <ele>657.467324</ele>
        <time>2025-07-10T11:31:03.000Z</time>
      </trkpt>
      <trkpt lat="44.87661" lon="5.78476">
        <ele>657.018025</ele>
        <time>2025-07-10T11:31:04.000Z</time>
      </trkpt>
      <trkpt lat="44.87669" lon="5.78478">
        <ele>656.565052</ele>
        <time>2025-07-10T11:31:05.000Z</time>
      </trkpt>
      <trkpt lat="44.87678" lon="5.78479">
        <ele>656.10544</ele>
        <time>2025-07-10T11:31:06.000Z</time>
      </trkpt>
      <trkpt lat="44.87687" lon="5.7848">
        <ele>655.641762</ele>
        <time>2025-07-10T11:31:07.000Z</time>
      </trkpt>
      <trkpt lat="44.87696" lon="5.78484">
        <ele>655.160064</ele>
        <time>2025-07-10T11:31:08.000Z</time>
      </trkpt>
      <trkpt lat="44.87704" lon="5.78491">
        <ele>654.676332</ele>
        <time>2025-07-10T11:31:09.000Z</time>
      </trkpt>
      <trkpt lat="44.8771" lon="5.785">
        <ele>654.201345</ele>
        <time>2025-07-10T11:31:10.000Z</time>
      </trkpt>
      <trkpt lat="44.87716" lon="5.7851">
        <ele>653.733328</ele>
        <time>2025-07-10T11:31:11.000Z</time>
      </trkpt>
      <trkpt lat="44.87723" lon="5.78517">
        <ele>653.264467</ele>
        <time>2025-07-10T11:31:12.000Z</time>
      </trkpt>
      <trkpt lat="44.87731" lon="5.78524">
        <ele>652.783377</ele>
        <time>2025-07-10T11:31:13.000Z</time>
      </trkpt>
      <trkpt lat="44.8774" lon="5.78529">
        <ele>652.315001</ele>
        <time>2025-07-10T11:31:14.000Z</time>
      </trkpt>
      <trkpt lat="44.87748" lon="5.78533">
        <ele>651.838967</ele>
        <time>2025-07-10T11:31:15.000Z</time>
      </trkpt>
      <trkpt lat="44.87757" lon="5.78537">
        <ele>651.350736</ele>
        <time>2025-07-10T11:31:16.000Z</time>
      </trkpt>
      <trkpt lat="44.87766" lon="5.78542">
        <ele>650.836457</ele>
        <time>2025-07-10T11:31:17.000Z</time>
      </trkpt>
      <trkpt lat="44.87775" lon="5.78547">
        <ele>650.275976</ele>
        <time>2025-07-10T11:31:18.000Z</time>
      </trkpt>
      <trkpt lat="44.87785" lon="5.78552">
        <ele>649.707429</ele>
        <time>2025-07-10T11:31:19.000Z</time>
      </trkpt>
      <trkpt lat="44.87794" lon="5.78556">
        <ele>649.142946</ele>
        <time>2025-07-10T11:31:20.000Z</time>
      </trkpt>
      <trkpt lat="44.87803" lon="5.78561">
        <ele>648.570225</ele>
        <time>2025-07-10T11:31:21.000Z</time>
      </trkpt>
      <trkpt lat="44.87813" lon="5.78566">
        <ele>647.99464</ele>
        <time>2025-07-10T11:31:22.000Z</time>
      </trkpt>
      <trkpt lat="44.87822" lon="5.78568">
        <ele>647.416953</ele>
        <time>2025-07-10T11:31:23.000Z</time>
      </trkpt>
      <trkpt lat="44.87833" lon="5.78571">
        <ele>646.818222</ele>
        <time>2025-07-10T11:31:24.000Z</time>
      </trkpt>
      <trkpt lat="44.87843" lon="5.78574">
        <ele>646.210621</ele>
        <time>2025-07-10T11:31:25.000Z</time>
      </trkpt>
      <trkpt lat="44.87853" lon="5.78577">
        <ele>645.585239</ele>
        <time>2025-07-10T11:31:26.000Z</time>
      </trkpt>
      <trkpt lat="44.87864" lon="5.7858">
        <ele>644.970902</ele>
        <time>2025-07-10T11:31:27.000Z</time>
      </trkpt>
      <trkpt lat="44.87874" lon="5.78584">
        <ele>644.343326</ele>
        <time>2025-07-10T11:31:28.000Z</time>
      </trkpt>
      <trkpt lat="44.87884" lon="5.78591">
        <ele>643.715082</ele>
        <time>2025-07-10T11:31:29.000Z</time>
      </trkpt>
      <trkpt lat="44.87893" lon="5.786">
        <ele>643.076329</ele>
        <time>2025-07-10T11:31:30.000Z</time>
      </trkpt>
      <trkpt lat="44.87901" lon="5.7861">
        <ele>642.445706</ele>
        <time>2025-07-10T11:31:31.000Z</time>
      </trkpt>
      <trkpt lat="44.87907" lon="5.78623">
        <ele>641.841955</ele>
        <time>2025-07-10T11:31:32.000Z</time>
      </trkpt>
      <trkpt lat="44.87911" lon="5.78636">
        <ele>641.242583</ele>
        <time>2025-07-10T11:31:33.000Z</time>
      </trkpt>
      <trkpt lat="44.87913" lon="5.78651">
        <ele>640.647569</ele>
        <time>2025-07-10T11:31:34.000Z</time>
      </trkpt>
      <trkpt lat="44.87913" lon="5.78665">
        <ele>640.123473</ele>
        <time>2025-07-10T11:31:35.000Z</time>
      </trkpt>
      <trkpt lat="44.87916" lon="5.78679">
        <ele>639.627137</ele>
        <time>2025-07-10T11:31:36.000Z</time>
      </trkpt>
      <trkpt lat="44.8792" lon="5.78691">
        <ele>639.1456</ele>
        <time>2025-07-10T11:31:37.000Z</time>
      </trkpt>
      <trkpt lat="44.87925" lon="5.78703">
        <ele>638.667242</ele>
        <time>2025-07-10T11:31:38.000Z</time>
      </trkpt>
      <trkpt lat="44.87928" lon="5.78715">
        <ele>638.224892</ele>
        <time>2025-07-10T11:31:39.000Z</time>
      </trkpt>
      <trkpt lat="44.87932" lon="5.78726">
        <ele>637.794313</ele>
        <time>2025-07-10T11:31:40.000Z</time>
      </trkpt>
      <trkpt lat="44.87937" lon="5.78736">
        <ele>637.368649</ele>
        <time>2025-07-10T11:31:41.000Z</time>
      </trkpt>
      <trkpt lat="44.87943" lon="5.78744">
        <ele>636.947546</ele>
        <time>2025-07-10T11:31:42.000Z</time>
      </trkpt>
      <trkpt lat="44.87949" lon="5.78753">
        <ele>636.52888</ele>
        <time>2025-07-10T11:31:43.000Z</time>
      </trkpt>
      <trkpt lat="44.87954" lon="5.78763">
        <ele>636.119737</ele>
        <time>2025-07-10T11:31:44.000Z</time>
      </trkpt>
      <trkpt lat="44.87956" lon="5.78774">
        <ele>635.722143</ele>
        <time>2025-07-10T11:31:45.000Z</time>
      </trkpt>
      <trkpt lat="44.87956" lon="5.78785">
        <ele>635.328904</ele>
        <time>2025-07-10T11:31:46.000Z</time>
      </trkpt>
      <trkpt lat="44.87956" lon="5.78796">
        <ele>634.933005</ele>
        <time>2025-07-10T11:31:47.000Z</time>
      </trkpt>
      <trkpt lat="44.87957" lon="5.78808">
        <ele>634.519613</ele>
        <time>2025-07-10T11:31:48.000Z</time>
      </trkpt>
      <trkpt lat="44.87958" lon="5.7882">
        <ele>634.1046</ele>
        <time>2025-07-10T11:31:49.000Z</time>
      </trkpt>
      <trkpt lat="44.87958" lon="5.78831">
        <ele>633.705478</ele>
        <time>2025-07-10T11:31:50.000Z</time>
      </trkpt>
      <trkpt lat="44.87955" lon="5.78842">
        <ele>633.317355</ele>
        <time>2025-07-10T11:31:51.000Z</time>
      </trkpt>
      <trkpt lat="44.87952" lon="5.78851">
        <ele>632.95609</ele>
        <time>2025-07-10T11:31:52.000Z</time>
      </trkpt>
      <trkpt lat="44.87946" lon="5.78858">
        <ele>632.599814</ele>
        <time>2025-07-10T11:31:53.000Z</time>
      </trkpt>
      <trkpt lat="44.87941" lon="5.78863">
        <ele>632.262714</ele>
        <time>2025-07-10T11:31:54.000Z</time>
      </trkpt>
      <trkpt lat="44.87936" lon="5.78867">
        <ele>631.989708</ele>
        <time>2025-07-10T11:31:55.000Z</time>
      </trkpt>
      <trkpt lat="44.87932" lon="5.7887">
        <ele>631.789175</ele>
        <time>2025-07-10T11:31:56.000Z</time>
      </trkpt>
      <trkpt lat="44.87931" lon="5.78873">
        <ele>631.666583</ele>
        <time>2025-07-10T11:31:57.000Z</time>
      </trkpt>
      <trkpt lat="44.87929" lon="5.78875">
        <ele>631.581638</ele>
        <time>2025-07-10T11:31:58.000Z</time>
      </trkpt>
      <trkpt lat="44.8793" lon="5.78876">
        <ele>631.540489</ele>
        <time>2025-07-10T11:31:59.000Z</time>
      </trkpt>
      <trkpt lat="44.87931" lon="5.78876">
        <ele>631.495609</ele>
        <time>2025-07-10T11:32:00.000Z</time>
      </trkpt>
      <trkpt lat="44.87933" lon="5.78875">
        <ele>631.412506</ele>
        <time>2025-07-10T11:32:01.000Z</time>
      </trkpt>
      <trkpt lat="44.87934" lon="5.78873">
        <ele>631.335887</ele>
        <time>2025-07-10T11:32:02.000Z</time>
      </trkpt>
      <trkpt lat="44.87935" lon="5.78872">
        <ele>631.270097</ele>
        <time>2025-07-10T11:32:03.000Z</time>
      </trkpt>
      <trkpt lat="44.87937" lon="5.78871">
        <ele>631.194981</ele>
        <time>2025-07-10T11:32:04.000Z</time>
      </trkpt>
      <trkpt lat="44.87938" lon="5.7887">
        <ele>631.136652</ele>
        <time>2025-07-10T11:32:05.000Z</time>
      </trkpt>
      <trkpt lat="44.87939" lon="5.78869">
        <ele>631.089164</ele>
        <time>2025-07-10T11:32:06.000Z</time>
      </trkpt>
      <trkpt lat="44.87939" lon="5.78868">
        <ele>631.050627</ele>
        <time>2025-07-10T11:32:07.000Z</time>
      </trkpt>
      <trkpt lat="44.8794" lon="5.78867">
        <ele>631.024869</ele>
        <time>2025-07-10T11:32:08.000Z</time>
      </trkpt>
      <trkpt lat="44.8794" lon="5.78867">
        <ele>630.990276</ele>
        <time>2025-07-10T11:32:09.000Z</time>
      </trkpt>
      <trkpt lat="44.87941" lon="5.78866">
        <ele>630.953883</ele>
        <time>2025-07-10T11:32:10.000Z</time>
      </trkpt>
      <trkpt lat="44.87942" lon="5.78865">
        <ele>630.894769</ele>
        <time>2025-07-10T11:32:53.000Z</time>
      </trkpt>
      <trkpt lat="44.87941" lon="5.78865">
        <ele>630.850539</ele>
        <time>2025-07-10T11:32:54.000Z</time>
      </trkpt>
      <trkpt lat="44.87939" lon="5.78867">
        <ele>630.753798</ele>
        <time>2025-07-10T11:32:55.000Z</time>
      </trkpt>
      <trkpt lat="44.87936" lon="5.78869">
        <ele>630.626629</ele>
        <time>2025-07-10T11:32:56.000Z</time>
      </trkpt>
      <trkpt lat="44.87934" lon="5.78871">
        <ele>630.494077</ele>
        <time>2025-07-10T11:32:57.000Z</time>
      </trkpt>
      <trkpt lat="44.87931" lon="5.78874">
        <ele>630.334253</ele>
        <time>2025-07-10T11:32:58.000Z</time>
      </trkpt>
      <trkpt lat="44.87929" lon="5.78878">
        <ele>630.168661</ele>
        <time>2025-07-10T11:32:59.000Z</time>
      </trkpt>
      <trkpt lat="44.87927" lon="5.78883">
        <ele>629.99333</ele>
        <time>2025-07-10T11:33:00.000Z</time>
      </trkpt>
      <trkpt lat="44.87925" lon="5.78888">
        <ele>629.80635</ele>
        <time>2025-07-10T11:33:01.000Z</time>
      </trkpt>
      <trkpt lat="44.87925" lon="5.78895">
        <ele>629.599954</ele>
        <time>2025-07-10T11:33:02.000Z</time>
      </trkpt>
      <trkpt lat="44.87924" lon="5.78902">
        <ele>629.3795</ele>
        <time>2025-07-10T11:33:03.000Z</time>
      </trkpt>
      <trkpt lat="44.87925" lon="5.7891">
        <ele>629.13386</ele>
        <time>2025-07-10T11:33:04.000Z</time>
      </trkpt>
      <trkpt lat="44.87924" lon="5.78918">
        <ele>628.884953</ele>
        <time>2025-07-10T11:33:05.000Z</time>
      </trkpt>
      <trkpt lat="44.87923" lon="5.78925">
        <ele>628.635366</ele>
        <time>2025-07-10T11:33:06.000Z</time>
      </trkpt>
      <trkpt lat="44.87922" lon="5.78933">
        <ele>628.388742</ele>
        <time>2025-07-10T11:33:07.000Z</time>
      </trkpt>
      <trkpt lat="44.8792" lon="5.7894">
        <ele>628.140666</ele>
        <time>2025-07-10T11:33:08.000Z</time>
      </trkpt>
      <trkpt lat="44.87917" lon="5.78948">
        <ele>627.874401</ele>
        <time>2025-07-10T11:33:09.000Z</time>
      </trkpt>
      <trkpt lat="44.87914" lon="5.78956">
        <ele>627.601973</ele>
        <time>2025-07-10T11:33:10.000Z</time>
      </trkpt>
      <trkpt lat="44.87913" lon="5.78963">
        <ele>627.37038</ele>
        <time>2025-07-10T11:33:11.000Z</time>
      </trkpt>
      <trkpt lat="44.8791" lon="5.78972">
        <ele>627.049841</ele>
        <time>2025-07-10T11:33:12.000Z</time>
      </trkpt>
      <trkpt lat="44.8791" lon="5.78981">
        <ele>626.756169</ele>
        <time>2025-07-10T11:33:13.000Z</time>
      </trkpt>
      <trkpt lat="44.87911" lon="5.78992">
        <ele>626.41689</ele>
        <time>2025-07-10T11:33:14.000Z</time>
      </trkpt>
      <trkpt lat="44.87913" lon="5.79002">
        <ele>626.0915</ele>
        <time>2025-07-10T11:33:15.000Z</time>
      </trkpt>
      <trkpt lat="44.87916" lon="5.79012">
        <ele>625.754596</ele>
        <time>2025-07-10T11:33:16.000Z</time>
      </trkpt>
      <trkpt lat="44.87917" lon="5.79022">
        <ele>625.423502</ele>
        <time>2025-07-10T11:33:17.000Z</time>
      </trkpt>
      <trkpt lat="44.87919" lon="5.79033">
        <ele>625.07416</ele>
        <time>2025-07-10T11:33:18.000Z</time>
      </trkpt>
      <trkpt lat="44.87921" lon="5.79043">
        <ele>624.731344</ele>
        <time>2025-07-10T11:33:19.000Z</time>
      </trkpt>
      <trkpt lat="44.87922" lon="5.79053">
        <ele>624.419337</ele>
        <time>2025-07-10T11:33:20.000Z</time>
      </trkpt>
      <trkpt lat="44.87923" lon="5.79063">
        <ele>624.108182</ele>
        <time>2025-07-10T11:33:21.000Z</time>
      </trkpt>
      <trkpt lat="44.87928" lon="5.79072">
        <ele>623.715701</ele>
        <time>2025-07-10T11:33:22.000Z</time>
      </trkpt>
      <trkpt lat="44.87933" lon="5.79081">
        <ele>623.347382</ele>
        <time>2025-07-10T11:33:23.000Z</time>
      </trkpt>
      <trkpt lat="44.87935" lon="5.7909">
        <ele>623.017693</ele>
        <time>2025-07-10T11:33:24.000Z</time>
      </trkpt>
      <trkpt lat="44.8794" lon="5.79098">
        <ele>622.641958</ele>
        <time>2025-07-10T11:33:25.000Z</time>
      </trkpt>
      <trkpt lat="44.87944" lon="5.79106">
        <ele>622.276509</ele>
        <time>2025-07-10T11:33:26.000Z</time>
      </trkpt>
      <trkpt lat="44.87949" lon="5.79116">
        <ele>621.870725</ele>
        <time>2025-07-10T11:33:27.000Z</time>
      </trkpt>
      <trkpt lat="44.87953" lon="5.79127">
        <ele>621.432512</ele>
        <time>2025-07-10T11:33:28.000Z</time>
      </trkpt>
      <trkpt lat="44.87957" lon="5.79138">
        <ele>620.99922</ele>
        <time>2025-07-10T11:33:29.000Z</time>
      </trkpt>
      <trkpt lat="44.87962" lon="5.79148">
        <ele>620.565412</ele>
        <time>2025-07-10T11:33:30.000Z</time>
      </trkpt>
      <trkpt lat="44.87969" lon="5.79158">
        <ele>620.111098</ele>
        <time>2025-07-10T11:33:31.000Z</time>
      </trkpt>
      <trkpt lat="44.87975" lon="5.79167">
        <ele>619.654193</ele>
        <time>2025-07-10T11:33:32.000Z</time>
      </trkpt>
      <trkpt lat="44.87978" lon="5.79177">
        <ele>619.258756</ele>
        <time>2025-07-10T11:33:33.000Z</time>
      </trkpt>
      <trkpt lat="44.87982" lon="5.79188">
        <ele>618.850598</ele>
        <time>2025-07-10T11:33:34.000Z</time>
      </trkpt>
      <trkpt lat="44.87984" lon="5.79199">
        <ele>618.440123</ele>
        <time>2025-07-10T11:33:35.000Z</time>
      </trkpt>
      <trkpt lat="44.87986" lon="5.79211">
        <ele>618.031614</ele>
        <time>2025-07-10T11:33:36.000Z</time>
      </trkpt>
      <trkpt lat="44.8799" lon="5.79221">
        <ele>617.633935</ele>
        <time>2025-07-10T11:33:37.000Z</time>
      </trkpt>
      <trkpt lat="44.87994" lon="5.79229">
        <ele>617.257062</ele>
        <time>2025-07-10T11:33:38.000Z</time>
      </trkpt>
      <trkpt lat="44.88002" lon="5.79236">
        <ele>616.831544</ele>
        <time>2025-07-10T11:33:39.000Z</time>
      </trkpt>
      <trkpt lat="44.88009" lon="5.79242">
        <ele>616.410284</ele>
        <time>2025-07-10T11:33:40.000Z</time>
      </trkpt>
      <trkpt lat="44.88016" lon="5.79248">
        <ele>615.995764</ele>
        <time>2025-07-10T11:33:41.000Z</time>
      </trkpt>
      <trkpt lat="44.88023" lon="5.79255">
        <ele>615.570063</ele>
        <time>2025-07-10T11:33:42.000Z</time>
      </trkpt>
      <trkpt lat="44.8803" lon="5.79263">
        <ele>615.153026</ele>
        <time>2025-07-10T11:33:43.000Z</time>
      </trkpt>
      <trkpt lat="44.88034" lon="5.79273">
        <ele>614.806185</ele>
        <time>2025-07-10T11:33:44.000Z</time>
      </trkpt>
      <trkpt lat="44.88037" lon="5.79283">
        <ele>614.666261</ele>
        <time>2025-07-10T11:33:45.000Z</time>
      </trkpt>
      <trkpt lat="44.8804" lon="5.79294">
        <ele>614.53086</ele>
        <time>2025-07-10T11:33:46.000Z</time>
      </trkpt>
      <trkpt lat="44.88044" lon="5.79304">
        <ele>614.394256</ele>
        <time>2025-07-10T11:33:47.000Z</time>
      </trkpt>
      <trkpt lat="44.88048" lon="5.79313">
        <ele>614.256943</ele>
        <time>2025-07-10T11:33:48.000Z</time>
      </trkpt>
      <trkpt lat="44.88053" lon="5.79322">
        <ele>614.121041</ele>
        <time>2025-07-10T11:33:49.000Z</time>
      </trkpt>
      <trkpt lat="44.88058" lon="5.79329">
        <ele>613.98751</ele>
        <time>2025-07-10T11:33:50.000Z</time>
      </trkpt>
      <trkpt lat="44.88065" lon="5.79336">
        <ele>613.851565</ele>
        <time>2025-07-10T11:33:51.000Z</time>
      </trkpt>
      <trkpt lat="44.88071" lon="5.79342">
        <ele>613.716303</ele>
        <time>2025-07-10T11:33:52.000Z</time>
      </trkpt>
      <trkpt lat="44.88078" lon="5.79348">
        <ele>613.578837</ele>
        <time>2025-07-10T11:33:53.000Z</time>
      </trkpt>
      <trkpt lat="44.88085" lon="5.79354">
        <ele>613.443323</ele>
        <time>2025-07-10T11:33:54.000Z</time>
      </trkpt>
      <trkpt lat="44.88091" lon="5.7936">
        <ele>613.3143</ele>
        <time>2025-07-10T11:33:55.000Z</time>
      </trkpt>
      <trkpt lat="44.88097" lon="5.79365">
        <ele>613.188688</ele>
        <time>2025-07-10T11:33:56.000Z</time>
      </trkpt>
      <trkpt lat="44.88103" lon="5.7937">
        <ele>613.066449</ele>
        <time>2025-07-10T11:33:57.000Z</time>
      </trkpt>
      <trkpt lat="44.88109" lon="5.79375">
        <ele>612.946315</ele>
        <time>2025-07-10T11:33:58.000Z</time>
      </trkpt>
      <trkpt lat="44.88115" lon="5.7938">
        <ele>612.831246</ele>
        <time>2025-07-10T11:33:59.000Z</time>
      </trkpt>
      <trkpt lat="44.8812" lon="5.79385">
        <ele>612.721217</ele>
        <time>2025-07-10T11:34:00.000Z</time>
      </trkpt>
      <trkpt lat="44.88126" lon="5.7939">
        <ele>612.613298</ele>
        <time>2025-07-10T11:34:01.000Z</time>
      </trkpt>
      <trkpt lat="44.88131" lon="5.79394">
        <ele>612.505177</ele>
        <time>2025-07-10T11:34:02.000Z</time>
      </trkpt>
      <trkpt lat="44.88136" lon="5.79399">
        <ele>612.397258</ele>
        <time>2025-07-10T11:34:03.000Z</time>
      </trkpt>
      <trkpt lat="44.88142" lon="5.79404">
        <ele>612.290131</ele>
        <time>2025-07-10T11:34:04.000Z</time>
      </trkpt>
      <trkpt lat="44.88147" lon="5.79408">
        <ele>612.181558</ele>
        <time>2025-07-10T11:34:05.000Z</time>
      </trkpt>
      <trkpt lat="44.88152" lon="5.79413">
        <ele>612.072811</ele>
        <time>2025-07-10T11:34:06.000Z</time>
      </trkpt>
      <trkpt lat="44.88158" lon="5.79418">
        <ele>611.963203</ele>
        <time>2025-07-10T11:34:07.000Z</time>
      </trkpt>
      <trkpt lat="44.88163" lon="5.79422">
        <ele>611.852518</ele>
        <time>2025-07-10T11:34:08.000Z</time>
      </trkpt>
      <trkpt lat="44.88169" lon="5.79428">
        <ele>611.740494</ele>
        <time>2025-07-10T11:34:09.000Z</time>
      </trkpt>
      <trkpt lat="44.88174" lon="5.79433">
        <ele>611.926768</ele>
        <time>2025-07-10T11:34:10.000Z</time>
      </trkpt>
      <trkpt lat="44.8818" lon="5.79437">
        <ele>612.121338</ele>
        <time>2025-07-10T11:34:11.000Z</time>
      </trkpt>
      <trkpt lat="44.88185" lon="5.79442">
        <ele>612.312228</ele>
        <time>2025-07-10T11:34:12.000Z</time>
      </trkpt>
      <trkpt lat="44.8819" lon="5.79447">
        <ele>612.500563</ele>
        <time>2025-07-10T11:34:13.000Z</time>
      </trkpt>
      <trkpt lat="44.88196" lon="5.79451">
        <ele>612.685575</ele>
        <time>2025-07-10T11:34:14.000Z</time>
      </trkpt>
      <trkpt lat="44.88201" lon="5.79455">
        <ele>612.860103</ele>
        <time>2025-07-10T11:34:15.000Z</time>
      </trkpt>
      <trkpt lat="44.88206" lon="5.79458">
        <ele>613.029812</ele>
        <time>2025-07-10T11:34:16.000Z</time>
      </trkpt>
      <trkpt lat="44.88211" lon="5.79461">
        <ele>613.195249</ele>
        <time>2025-07-10T11:34:17.000Z</time>
      </trkpt>
      <trkpt lat="44.88216" lon="5.79464">
        <ele>613.34777</ele>
        <time>2025-07-10T11:34:18.000Z</time>
      </trkpt>
      <trkpt lat="44.8822" lon="5.79466">
        <ele>613.497766</ele>
        <time>2025-07-10T11:34:19.000Z</time>
      </trkpt>
      <trkpt lat="44.88225" lon="5.79468">
        <ele>613.637519</ele>
        <time>2025-07-10T11:34:20.000Z</time>
      </trkpt>
      <trkpt lat="44.88229" lon="5.7947">
        <ele>613.770889</ele>
        <time>2025-07-10T11:34:21.000Z</time>
      </trkpt>
      <trkpt lat="44.88233" lon="5.79471">
        <ele>613.902354</ele>
        <time>2025-07-10T11:34:22.000Z</time>
      </trkpt>
      <trkpt lat="44.88237" lon="5.79473">
        <ele>614.028046</ele>
        <time>2025-07-10T11:34:23.000Z</time>
      </trkpt>
      <trkpt lat="44.88241" lon="5.79475">
        <ele>614.157239</ele>
        <time>2025-07-10T11:34:24.000Z</time>
      </trkpt>
      <trkpt lat="44.88245" lon="5.79476">
        <ele>614.281768</ele>
        <time>2025-07-10T11:34:25.000Z</time>
      </trkpt>
      <trkpt lat="44.88249" lon="5.79478">
        <ele>614.402848</ele>
        <time>2025-07-10T11:34:26.000Z</time>
      </trkpt>
      <trkpt lat="44.88253" lon="5.79479">
        <ele>614.520494</ele>
        <time>2025-07-10T11:34:27.000Z</time>
      </trkpt>
      <trkpt lat="44.88257" lon="5.7948">
        <ele>614.632301</ele>
        <time>2025-07-10T11:34:28.000Z</time>
      </trkpt>
      <trkpt lat="44.8826" lon="5.79482">
        <ele>614.742359</ele>
        <time>2025-07-10T11:34:29.000Z</time>
      </trkpt>
      <trkpt lat="44.88264" lon="5.79483">
        <ele>614.850196</ele>
        <time>2025-07-10T11:34:30.000Z</time>
      </trkpt>
      <trkpt lat="44.88267" lon="5.79485">
        <ele>614.956183</ele>
        <time>2025-07-10T11:34:31.000Z</time>
      </trkpt>
      <trkpt lat="44.8827" lon="5.79486">
        <ele>615.061634</ele>
        <time>2025-07-10T11:34:32.000Z</time>
      </trkpt>
      <trkpt lat="44.88274" lon="5.79487">
        <ele>615.168199</ele>
        <time>2025-07-10T11:34:33.000Z</time>
      </trkpt>
      <trkpt lat="44.88277" lon="5.79489">
        <ele>615.271285</ele>
        <time>2025-07-10T11:34:34.000Z</time>
      </trkpt>
      <trkpt lat="44.8828" lon="5.7949">
        <ele>615.377273</ele>
        <time>2025-07-10T11:34:35.000Z</time>
      </trkpt>
      <trkpt lat="44.88283" lon="5.79491">
        <ele>615.473035</ele>
        <time>2025-07-10T11:34:36.000Z</time>
      </trkpt>
      <trkpt lat="44.88286" lon="5.79493">
        <ele>615.564586</ele>
        <time>2025-07-10T11:34:37.000Z</time>
      </trkpt>
      <trkpt lat="44.88289" lon="5.79493">
        <ele>615.656076</ele>
        <time>2025-07-10T11:34:38.000Z</time>
      </trkpt>
      <trkpt lat="44.88292" lon="5.79494">
        <ele>615.740995</ele>
        <time>2025-07-10T11:34:39.000Z</time>
      </trkpt>
      <trkpt lat="44.88295" lon="5.79494">
        <ele>615.825673</ele>
        <time>2025-07-10T11:34:40.000Z</time>
      </trkpt>
      <trkpt lat="44.88298" lon="5.79495">
        <ele>615.916038</ele>
        <time>2025-07-10T11:34:41.000Z</time>
      </trkpt>
      <trkpt lat="44.88301" lon="5.79495">
        <ele>616.006705</ele>
        <time>2025-07-10T11:34:42.000Z</time>
      </trkpt>
      <trkpt lat="44.88304" lon="5.79495">
        <ele>616.096994</ele>
        <time>2025-07-10T11:34:43.000Z</time>
      </trkpt>
      <trkpt lat="44.88307" lon="5.79495">
        <ele>616.187259</ele>
        <time>2025-07-10T11:34:44.000Z</time>
      </trkpt>
      <trkpt lat="44.8831" lon="5.79495">
        <ele>616.277926</ele>
        <time>2025-07-10T11:34:45.000Z</time>
      </trkpt>
      <trkpt lat="44.88313" lon="5.79494">
        <ele>616.363484</ele>
        <time>2025-07-10T11:34:46.000Z</time>
      </trkpt>
      <trkpt lat="44.88316" lon="5.79493">
        <ele>616.460916</ele>
        <time>2025-07-10T11:34:47.000Z</time>
      </trkpt>
      <trkpt lat="44.88319" lon="5.79492">
        <ele>616.553198</ele>
        <time>2025-07-10T11:34:48.000Z</time>
      </trkpt>
      <trkpt lat="44.88322" lon="5.79491">
        <ele>616.6401</ele>
        <time>2025-07-10T11:34:49.000Z</time>
      </trkpt>
      <trkpt lat="44.88324" lon="5.7949">
        <ele>616.719076</ele>
        <time>2025-07-10T11:34:50.000Z</time>
      </trkpt>
      <trkpt lat="44.88326" lon="5.79488">
        <ele>616.79088</ele>
        <time>2025-07-10T11:34:51.000Z</time>
      </trkpt>
      <trkpt lat="44.88329" lon="5.79487">
        <ele>616.868033</ele>
        <time>2025-07-10T11:34:52.000Z</time>
      </trkpt>
      <trkpt lat="44.88331" lon="5.79485">
        <ele>616.942499</ele>
        <time>2025-07-10T11:34:53.000Z</time>
      </trkpt>
      <trkpt lat="44.88333" lon="5.79484">
        <ele>617.006989</ele>
        <time>2025-07-10T11:34:54.000Z</time>
      </trkpt>
      <trkpt lat="44.88335" lon="5.79482">
        <ele>617.073241</ele>
        <time>2025-07-10T11:34:55.000Z</time>
      </trkpt>
      <trkpt lat="44.88337" lon="5.79481">
        <ele>617.139492</ele>
        <time>2025-07-10T11:34:56.000Z</time>
      </trkpt>
      <trkpt lat="44.88339" lon="5.7948">
        <ele>617.259991</ele>
        <time>2025-07-10T11:34:57.000Z</time>
      </trkpt>
      <trkpt lat="44.8834" lon="5.79478">
        <ele>617.38279</ele>
        <time>2025-07-10T11:34:58.000Z</time>
      </trkpt>
      <trkpt lat="44.88342" lon="5.79476">
        <ele>617.506225</ele>
        <time>2025-07-10T11:34:59.000Z</time>
      </trkpt>
      <trkpt lat="44.88344" lon="5.79475">
        <ele>617.619094</ele>
        <time>2025-07-10T11:35:00.000Z</time>
      </trkpt>
      <trkpt lat="44.88346" lon="5.79474">
        <ele>617.725831</ele>
        <time>2025-07-10T11:35:01.000Z</time>
      </trkpt>
      <trkpt lat="44.88348" lon="5.79473">
        <ele>617.839462</ele>
        <time>2025-07-10T11:35:02.000Z</time>
      </trkpt>
      <trkpt lat="44.8835" lon="5.79473">
        <ele>617.958596</ele>
        <time>2025-07-10T11:35:03.000Z</time>
      </trkpt>
      <trkpt lat="44.88352" lon="5.79474">
        <ele>618.096789</ele>
        <time>2025-07-10T11:35:04.000Z</time>
      </trkpt>
      <trkpt lat="44.88355" lon="5.79474">
        <ele>618.233101</ele>
        <time>2025-07-10T11:35:05.000Z</time>
      </trkpt>
      <trkpt lat="44.88357" lon="5.79474">
        <ele>618.374903</ele>
        <time>2025-07-10T11:35:06.000Z</time>
      </trkpt>
      <trkpt lat="44.8836" lon="5.79475">
        <ele>618.51941</ele>
        <time>2025-07-10T11:35:07.000Z</time>
      </trkpt>
      <trkpt lat="44.88361" lon="5.79477">
        <ele>618.656239</ele>
        <time>2025-07-10T11:35:08.000Z</time>
      </trkpt>
      <trkpt lat="44.88363" lon="5.79479">
        <ele>618.804371</ele>
        <time>2025-07-10T11:35:09.000Z</time>
      </trkpt>
      <trkpt lat="44.88364" lon="5.79482">
        <ele>618.93241</ele>
        <time>2025-07-10T11:35:10.000Z</time>
      </trkpt>
      <trkpt lat="44.88366" lon="5.79485">
        <ele>619.060975</ele>
        <time>2025-07-10T11:35:11.000Z</time>
      </trkpt>
      <trkpt lat="44.88367" lon="5.79487">
        <ele>619.205216</ele>
        <time>2025-07-10T11:35:12.000Z</time>
      </trkpt>
      <trkpt lat="44.88369" lon="5.7949">
        <ele>619.336404</ele>
        <time>2025-07-10T11:35:13.000Z</time>
      </trkpt>
      <trkpt lat="44.8837" lon="5.79493">
        <ele>619.470813</ele>
        <time>2025-07-10T11:35:14.000Z</time>
      </trkpt>
      <trkpt lat="44.88372" lon="5.79495">
        <ele>619.605222</ele>
        <time>2025-07-10T11:35:15.000Z</time>
      </trkpt>
      <trkpt lat="44.88373" lon="5.79498">
        <ele>619.740559</ele>
        <time>2025-07-10T11:35:16.000Z</time>
      </trkpt>
      <trkpt lat="44.88375" lon="5.79501">
        <ele>619.881961</ele>
        <time>2025-07-10T11:35:17.000Z</time>
      </trkpt>
      <trkpt lat="44.88376" lon="5.79503">
        <ele>620.013149</ele>
        <time>2025-07-10T11:35:18.000Z</time>
      </trkpt>
      <trkpt lat="44.88378" lon="5.79506">
        <ele>620.15082</ele>
        <time>2025-07-10T11:35:19.000Z</time>
      </trkpt>
      <trkpt lat="44.88379" lon="5.79509">
        <ele>620.285514</ele>
        <time>2025-07-10T11:35:20.000Z</time>
      </trkpt>
      <trkpt lat="44.8838" lon="5.79511">
        <ele>620.416703</ele>
        <time>2025-07-10T11:35:21.000Z</time>
      </trkpt>
      <trkpt lat="44.88382" lon="5.79514">
        <ele>620.551111</ele>
        <time>2025-07-10T11:35:22.000Z</time>
      </trkpt>
      <trkpt lat="44.88383" lon="5.79517">
        <ele>620.695352</ele>
        <time>2025-07-10T11:35:23.000Z</time>
      </trkpt>
      <trkpt lat="44.88385" lon="5.79519">
        <ele>620.833696</ele>
        <time>2025-07-10T11:35:24.000Z</time>
      </trkpt>
      <trkpt lat="44.88387" lon="5.79522">
        <ele>620.961788</ele>
        <time>2025-07-10T11:35:25.000Z</time>
      </trkpt>
      <trkpt lat="44.88388" lon="5.79524">
        <ele>621.097125</ele>
        <time>2025-07-10T11:35:26.000Z</time>
      </trkpt>
      <trkpt lat="44.8839" lon="5.79527">
        <ele>621.241365</ele>
        <time>2025-07-10T11:35:27.000Z</time>
      </trkpt>
      <trkpt lat="44.88391" lon="5.7953">
        <ele>621.375847</ele>
        <time>2025-07-10T11:35:28.000Z</time>
      </trkpt>
      <trkpt lat="44.88392" lon="5.79533">
        <ele>621.51076</ele>
        <time>2025-07-10T11:35:29.000Z</time>
      </trkpt>
      <trkpt lat="44.88393" lon="5.79535">
        <ele>621.639377</ele>
        <time>2025-07-10T11:35:30.000Z</time>
      </trkpt>
      <trkpt lat="44.88394" lon="5.79539">
        <ele>621.778656</ele>
        <time>2025-07-10T11:35:31.000Z</time>
      </trkpt>
      <trkpt lat="44.88396" lon="5.79542">
        <ele>621.914355</ele>
        <time>2025-07-10T11:35:32.000Z</time>
      </trkpt>
      <trkpt lat="44.88396" lon="5.79545">
        <ele>622.052665</ele>
        <time>2025-07-10T11:35:33.000Z</time>
      </trkpt>
      <trkpt lat="44.88397" lon="5.79548">
        <ele>622.196099</ele>
        <time>2025-07-10T11:35:34.000Z</time>
      </trkpt>
      <trkpt lat="44.88397" lon="5.79552">
        <ele>622.334556</ele>
        <time>2025-07-10T11:35:35.000Z</time>
      </trkpt>
      <trkpt lat="44.88398" lon="5.79555">
        <ele>622.483626</ele>
        <time>2025-07-10T11:35:36.000Z</time>
      </trkpt>
      <trkpt lat="44.88397" lon="5.79559">
        <ele>622.648431</ele>
        <time>2025-07-10T11:35:37.000Z</time>
      </trkpt>
      <trkpt lat="44.88397" lon="5.79563">
        <ele>622.805515</ele>
        <time>2025-07-10T11:35:38.000Z</time>
      </trkpt>
      <trkpt lat="44.88397" lon="5.79567">
        <ele>622.959115</ele>
        <time>2025-07-10T11:35:39.000Z</time>
      </trkpt>
      <trkpt lat="44.88397" lon="5.79571">
        <ele>623.113447</ele>
        <time>2025-07-10T11:35:40.000Z</time>
      </trkpt>
      <trkpt lat="44.88396" lon="5.79575">
        <ele>623.267778</ele>
        <time>2025-07-10T11:35:41.000Z</time>
      </trkpt>
      <trkpt lat="44.88396" lon="5.79578">
        <ele>623.40542</ele>
        <time>2025-07-10T11:35:42.000Z</time>
      </trkpt>
      <trkpt lat="44.88395" lon="5.79581">
        <ele>623.539915</ele>
        <time>2025-07-10T11:35:43.000Z</time>
      </trkpt>
      <trkpt lat="44.88395" lon="5.79585">
        <ele>623.686014</ele>
        <time>2025-07-10T11:35:44.000Z</time>
      </trkpt>
      <trkpt lat="44.88394" lon="5.79588">
        <ele>623.826128</ele>
        <time>2025-07-10T11:35:45.000Z</time>
      </trkpt>
      <trkpt lat="44.88393" lon="5.79591">
        <ele>623.951356</ele>
        <time>2025-07-10T11:35:46.000Z</time>
      </trkpt>
      <trkpt lat="44.88393" lon="5.79594">
        <ele>624.079077</ele>
        <time>2025-07-10T11:35:47.000Z</time>
      </trkpt>
      <trkpt lat="44.88392" lon="5.79597">
        <ele>624.185959</ele>
        <time>2025-07-10T11:35:48.000Z</time>
      </trkpt>
      <trkpt lat="44.88392" lon="5.79599">
        <ele>624.287821</ele>
        <time>2025-07-10T11:35:49.000Z</time>
      </trkpt>
      <trkpt lat="44.88392" lon="5.79602">
        <ele>624.380912</ele>
        <time>2025-07-10T11:35:50.000Z</time>
      </trkpt>
      <trkpt lat="44.88392" lon="5.79604">
        <ele>624.491723</ele>
        <time>2025-07-10T11:35:51.000Z</time>
      </trkpt>
      <trkpt lat="44.88391" lon="5.79607">
        <ele>624.603833</ele>
        <time>2025-07-10T11:35:52.000Z</time>
      </trkpt>
      <trkpt lat="44.88391" lon="5.79609">
        <ele>624.689893</ele>
        <time>2025-07-10T11:35:53.000Z</time>
      </trkpt>
      <trkpt lat="44.8839" lon="5.79611">
        <ele>624.782708</ele>
        <time>2025-07-10T11:35:54.000Z</time>
      </trkpt>
      <trkpt lat="44.8839" lon="5.79614">
        <ele>624.875279</ele>
        <time>2025-07-10T11:35:55.000Z</time>
      </trkpt>
      <trkpt lat="44.8839" lon="5.79617">
        <ele>624.990026</ele>
        <time>2025-07-10T11:35:56.000Z</time>
      </trkpt>
      <trkpt lat="44.88389" lon="5.79619">
        <ele>625.096909</ele>
        <time>2025-07-10T11:35:57.000Z</time>
      </trkpt>
      <trkpt lat="44.88389" lon="5.79622">
        <ele>625.199149</ele>
        <time>2025-07-10T11:35:58.000Z</time>
      </trkpt>
      <trkpt lat="44.88388" lon="5.79624">
        <ele>625.298195</ele>
        <time>2025-07-10T11:35:59.000Z</time>
      </trkpt>
      <trkpt lat="44.88388" lon="5.79626">
        <ele>625.399265</ele>
        <time>2025-07-10T11:36:00.000Z</time>
      </trkpt>
      <trkpt lat="44.88388" lon="5.79629">
        <ele>625.494405</ele>
        <time>2025-07-10T11:36:01.000Z</time>
      </trkpt>
      <trkpt lat="44.88387" lon="5.79631">
        <ele>625.592308</ele>
        <time>2025-07-10T11:36:02.000Z</time>
      </trkpt>
      <trkpt lat="44.88387" lon="5.79634">
        <ele>625.689387</ele>
        <time>2025-07-10T11:36:03.000Z</time>
      </trkpt>
      <trkpt lat="44.88387" lon="5.79636">
        <ele>625.799236</ele>
        <time>2025-07-10T11:36:04.000Z</time>
      </trkpt>
      <trkpt lat="44.88386" lon="5.79639">
        <ele>625.899732</ele>
        <time>2025-07-10T11:36:05.000Z</time>
      </trkpt>
      <trkpt lat="44.88386" lon="5.79641">
        <ele>625.993682</ele>
        <time>2025-07-10T11:36:06.000Z</time>
      </trkpt>
      <trkpt lat="44.88385" lon="5.79643">
        <ele>626.084645</ele>
        <time>2025-07-10T11:36:07.000Z</time>
      </trkpt>
      <trkpt lat="44.88385" lon="5.79645">
        <ele>626.187606</ele>
        <time>2025-07-10T11:36:08.000Z</time>
      </trkpt>
      <trkpt lat="44.88384" lon="5.79648">
        <ele>626.294489</ele>
        <time>2025-07-10T11:36:09.000Z</time>
      </trkpt>
      <trkpt lat="44.88384" lon="5.7965">
        <ele>626.38706</ele>
        <time>2025-07-10T11:36:10.000Z</time>
      </trkpt>
      <trkpt lat="44.88385" lon="5.79652">
        <ele>626.468201</ele>
        <time>2025-07-10T11:36:11.000Z</time>
      </trkpt>
      <trkpt lat="44.88385" lon="5.79655">
        <ele>626.561292</ele>
        <time>2025-07-10T11:36:12.000Z</time>
      </trkpt>
      <trkpt lat="44.88385" lon="5.79657">
        <ele>626.653863</ele>
        <time>2025-07-10T11:36:13.000Z</time>
      </trkpt>
      <trkpt lat="44.88385" lon="5.79659">
        <ele>626.743865</ele>
        <time>2025-07-10T11:36:14.000Z</time>
      </trkpt>
      <trkpt lat="44.88384" lon="5.79662">
        <ele>626.841768</ele>
        <time>2025-07-10T11:36:15.000Z</time>
      </trkpt>
      <trkpt lat="44.88384" lon="5.79664">
        <ele>626.934339</ele>
        <time>2025-07-10T11:36:16.000Z</time>
      </trkpt>
      <trkpt lat="44.88384" lon="5.79666">
        <ele>627.0328</ele>
        <time>2025-07-10T11:36:17.000Z</time>
      </trkpt>
      <trkpt lat="44.88383" lon="5.79668">
        <ele>627.125615</ele>
        <time>2025-07-10T11:36:18.000Z</time>
      </trkpt>
      <trkpt lat="44.88383" lon="5.7967">
        <ele>627.207741</ele>
        <time>2025-07-10T11:36:19.000Z</time>
      </trkpt>
      <trkpt lat="44.88382" lon="5.79672">
        <ele>627.289164</ele>
        <time>2025-07-10T11:36:20.000Z</time>
      </trkpt>
      <trkpt lat="44.88382" lon="5.79674">
        <ele>627.398121</ele>
        <time>2025-07-10T11:36:21.000Z</time>
      </trkpt>
      <trkpt lat="44.88382" lon="5.79676">
        <ele>627.53236</ele>
        <time>2025-07-10T11:36:22.000Z</time>
      </trkpt>
      <trkpt lat="44.88381" lon="5.79679">
        <ele>627.698266</ele>
        <time>2025-07-10T11:36:23.000Z</time>
      </trkpt>
      <trkpt lat="44.88381" lon="5.79681">
        <ele>627.863771</ele>
        <time>2025-07-10T11:36:24.000Z</time>
      </trkpt>
      <trkpt lat="44.88381" lon="5.79683">
        <ele>628.015796</ele>
        <time>2025-07-10T11:36:25.000Z</time>
      </trkpt>
      <trkpt lat="44.88381" lon="5.79685">
        <ele>628.153717</ele>
        <time>2025-07-10T11:36:26.000Z</time>
      </trkpt>
      <trkpt lat="44.88381" lon="5.79687">
        <ele>628.278226</ele>
        <time>2025-07-10T11:36:27.000Z</time>
      </trkpt>
      <trkpt lat="44.88381" lon="5.79689">
        <ele>628.41649</ele>
        <time>2025-07-10T11:36:28.000Z</time>
      </trkpt>
      <trkpt lat="44.88381" lon="5.79691">
        <ele>628.570987</ele>
        <time>2025-07-10T11:36:29.000Z</time>
      </trkpt>
      <trkpt lat="44.8838" lon="5.79693">
        <ele>628.727615</ele>
        <time>2025-07-10T11:36:30.000Z</time>
      </trkpt>
      <trkpt lat="44.8838" lon="5.79696">
        <ele>628.886224</ele>
        <time>2025-07-10T11:36:31.000Z</time>
      </trkpt>
      <trkpt lat="44.8838" lon="5.79698">
        <ele>629.031367</ele>
        <time>2025-07-10T11:36:32.000Z</time>
      </trkpt>
      <trkpt lat="44.88381" lon="5.797">
        <ele>629.170655</ele>
        <time>2025-07-10T11:36:33.000Z</time>
      </trkpt>
      <trkpt lat="44.88381" lon="5.79702">
        <ele>629.333972</ele>
        <time>2025-07-10T11:36:34.000Z</time>
      </trkpt>
      <trkpt lat="44.88381" lon="5.79704">
        <ele>629.499763</ele>
        <time>2025-07-10T11:36:35.000Z</time>
      </trkpt>
      <trkpt lat="44.88381" lon="5.79707">
        <ele>629.665553</ele>
        <time>2025-07-10T11:36:36.000Z</time>
      </trkpt>
      <trkpt lat="44.88381" lon="5.79709">
        <ele>629.826827</ele>
        <time>2025-07-10T11:36:37.000Z</time>
      </trkpt>
      <trkpt lat="44.8838" lon="5.79711">
        <ele>629.979784</ele>
        <time>2025-07-10T11:36:38.000Z</time>
      </trkpt>
      <trkpt lat="44.88381" lon="5.79713">
        <ele>630.125903</ele>
        <time>2025-07-10T11:36:39.000Z</time>
      </trkpt>
      <trkpt lat="44.88381" lon="5.79716">
        <ele>630.278859</ele>
        <time>2025-07-10T11:36:40.000Z</time>
      </trkpt>
      <trkpt lat="44.88381" lon="5.79718">
        <ele>630.431816</ele>
        <time>2025-07-10T11:36:41.000Z</time>
      </trkpt>
      <trkpt lat="44.88381" lon="5.7972">
        <ele>630.584772</ele>
        <time>2025-07-10T11:36:42.000Z</time>
      </trkpt>
      <trkpt lat="44.88381" lon="5.79722">
        <ele>630.717235</ele>
        <time>2025-07-10T11:36:43.000Z</time>
      </trkpt>
      <trkpt lat="44.88382" lon="5.79724">
        <ele>630.857005</ele>
        <time>2025-07-10T11:36:44.000Z</time>
      </trkpt>
      <trkpt lat="44.88382" lon="5.79726">
        <ele>631.009029</ele>
        <time>2025-07-10T11:36:45.000Z</time>
      </trkpt>
      <trkpt lat="44.88382" lon="5.79728">
        <ele>631.161054</ele>
        <time>2025-07-10T11:36:46.000Z</time>
      </trkpt>
      <trkpt lat="44.88382" lon="5.79731">
        <ele>631.320853</ele>
        <time>2025-07-10T11:36:47.000Z</time>
      </trkpt>
      <trkpt lat="44.88383" lon="5.79733">
        <ele>631.493475</ele>
        <time>2025-07-10T11:36:48.000Z</time>
      </trkpt>
      <trkpt lat="44.88383" lon="5.79735">
        <ele>631.656038</ele>
        <time>2025-07-10T11:36:49.000Z</time>
      </trkpt>
      <trkpt lat="44.88384" lon="5.79737">
        <ele>631.792724</ele>
        <time>2025-07-10T11:36:50.000Z</time>
      </trkpt>
      <trkpt lat="44.88384" lon="5.79739">
        <ele>631.911562</ele>
        <time>2025-07-10T11:36:51.000Z</time>
      </trkpt>
      <trkpt lat="44.88384" lon="5.7974">
        <ele>632.036071</ele>
        <time>2025-07-10T11:36:52.000Z</time>
      </trkpt>
      <trkpt lat="44.88384" lon="5.79742">
        <ele>632.156885</ele>
        <time>2025-07-10T11:36:53.000Z</time>
      </trkpt>
      <trkpt lat="44.88385" lon="5.79744">
        <ele>632.280413</ele>
        <time>2025-07-10T11:36:54.000Z</time>
      </trkpt>
      <trkpt lat="44.88386" lon="5.79745">
        <ele>632.410089</ele>
        <time>2025-07-10T11:36:55.000Z</time>
      </trkpt>
      <trkpt lat="44.88386" lon="5.79747">
        <ele>632.550968</ele>
        <time>2025-07-10T11:36:56.000Z</time>
      </trkpt>
      <trkpt lat="44.88387" lon="5.79749">
        <ele>632.691847</ele>
        <time>2025-07-10T11:36:57.000Z</time>
      </trkpt>
      <trkpt lat="44.88388" lon="5.7975">
        <ele>632.838375</ele>
        <time>2025-07-10T11:36:58.000Z</time>
      </trkpt>
      <trkpt lat="44.88389" lon="5.79752">
        <ele>632.973966</ele>
        <time>2025-07-10T11:36:59.000Z</time>
      </trkpt>
      <trkpt lat="44.8839" lon="5.79754">
        <ele>633.120494</ele>
        <time>2025-07-10T11:37:00.000Z</time>
      </trkpt>
      <trkpt lat="44.8839" lon="5.79756">
        <ele>633.255537</ele>
        <time>2025-07-10T11:37:01.000Z</time>
      </trkpt>
      <trkpt lat="44.88391" lon="5.79757">
        <ele>633.39058</ele>
        <time>2025-07-10T11:37:02.000Z</time>
      </trkpt>
      <trkpt lat="44.88392" lon="5.79759">
        <ele>633.526126</ele>
        <time>2025-07-10T11:37:03.000Z</time>
      </trkpt>
      <trkpt lat="44.88393" lon="5.7976">
        <ele>633.673254</ele>
        <time>2025-07-10T11:37:04.000Z</time>
      </trkpt>
      <trkpt lat="44.88394" lon="5.79762">
        <ele>633.819597</ele>
        <time>2025-07-10T11:37:05.000Z</time>
      </trkpt>
      <trkpt lat="44.88395" lon="5.79764">
        <ele>633.96594</ele>
        <time>2025-07-10T11:37:06.000Z</time>
      </trkpt>
      <trkpt lat="44.88396" lon="5.79766">
        <ele>634.134744</ele>
        <time>2025-07-10T11:37:07.000Z</time>
      </trkpt>
      <trkpt lat="44.88397" lon="5.79767">
        <ele>634.286667</ele>
        <time>2025-07-10T11:37:08.000Z</time>
      </trkpt>
      <trkpt lat="44.88398" lon="5.79769">
        <ele>634.416137</ele>
        <time>2025-07-10T11:37:09.000Z</time>
      </trkpt>
      <trkpt lat="44.88398" lon="5.7977">
        <ele>634.534877</ele>
        <time>2025-07-10T11:37:10.000Z</time>
      </trkpt>
      <trkpt lat="44.88399" lon="5.79772">
        <ele>634.664347</ele>
        <time>2025-07-10T11:37:11.000Z</time>
      </trkpt>
      <trkpt lat="44.884" lon="5.79773">
        <ele>634.805226</ele>
        <time>2025-07-10T11:37:12.000Z</time>
      </trkpt>
      <trkpt lat="44.88401" lon="5.79775">
        <ele>634.946105</ele>
        <time>2025-07-10T11:37:13.000Z</time>
      </trkpt>
      <trkpt lat="44.88402" lon="5.79776">
        <ele>635.102119</ele>
        <time>2025-07-10T11:37:14.000Z</time>
      </trkpt>
      <trkpt lat="44.88403" lon="5.79778">
        <ele>635.234443</ele>
        <time>2025-07-10T11:37:15.000Z</time>
      </trkpt>
      <trkpt lat="44.88404" lon="5.79779">
        <ele>635.358472</ele>
        <time>2025-07-10T11:37:16.000Z</time>
      </trkpt>
      <trkpt lat="44.88405" lon="5.79781">
        <ele>635.510885</ele>
        <time>2025-07-10T11:37:17.000Z</time>
      </trkpt>
      <trkpt lat="44.88406" lon="5.79783">
        <ele>635.652481</ele>
        <time>2025-07-10T11:37:18.000Z</time>
      </trkpt>
      <trkpt lat="44.88407" lon="5.79785">
        <ele>635.815699</ele>
        <time>2025-07-10T11:37:19.000Z</time>
      </trkpt>
      <trkpt lat="44.88407" lon="5.79787">
        <ele>635.961952</ele>
        <time>2025-07-10T11:37:20.000Z</time>
      </trkpt>
      <trkpt lat="44.88407" lon="5.79789">
        <ele>636.105261</ele>
        <time>2025-07-10T11:37:21.000Z</time>
      </trkpt>
      <trkpt lat="44.88408" lon="5.79791">
        <ele>636.235351</ele>
        <time>2025-07-10T11:37:22.000Z</time>
      </trkpt>
      <trkpt lat="44.88408" lon="5.79793">
        <ele>636.38147</ele>
        <time>2025-07-10T11:37:23.000Z</time>
      </trkpt>
      <trkpt lat="44.88408" lon="5.79795">
        <ele>636.515708</ele>
        <time>2025-07-10T11:37:24.000Z</time>
      </trkpt>
      <trkpt lat="44.88409" lon="5.79796">
        <ele>636.655477</ele>
        <time>2025-07-10T11:37:25.000Z</time>
      </trkpt>
      <trkpt lat="44.88409" lon="5.79799">
        <ele>636.801596</ele>
        <time>2025-07-10T11:37:26.000Z</time>
      </trkpt>
      <trkpt lat="44.88409" lon="5.798">
        <ele>636.931686</ele>
        <time>2025-07-10T11:37:27.000Z</time>
      </trkpt>
      <trkpt lat="44.8841" lon="5.79802">
        <ele>637.064148</ele>
        <time>2025-07-10T11:37:28.000Z</time>
      </trkpt>
      <trkpt lat="44.8841" lon="5.79804">
        <ele>637.202068</ele>
        <time>2025-07-10T11:37:29.000Z</time>
      </trkpt>
      <trkpt lat="44.8841" lon="5.79806">
        <ele>637.333453</ele>
        <time>2025-07-10T11:37:30.000Z</time>
      </trkpt>
      <trkpt lat="44.88409" lon="5.79808">
        <ele>637.460969</ele>
        <time>2025-07-10T11:37:31.000Z</time>
      </trkpt>
      <trkpt lat="44.88409" lon="5.7981">
        <ele>637.595207</ele>
        <time>2025-07-10T11:37:32.000Z</time>
      </trkpt>
      <trkpt lat="44.88409" lon="5.79812">
        <ele>637.738516</ele>
        <time>2025-07-10T11:37:33.000Z</time>
      </trkpt>
      <trkpt lat="44.88408" lon="5.79814">
        <ele>637.878285</ele>
        <time>2025-07-10T11:37:34.000Z</time>
      </trkpt>
      <trkpt lat="44.88408" lon="5.79816">
        <ele>638.014971</ele>
        <time>2025-07-10T11:37:35.000Z</time>
      </trkpt>
      <trkpt lat="44.88407" lon="5.79818">
        <ele>638.151656</ele>
        <time>2025-07-10T11:37:36.000Z</time>
      </trkpt>
      <trkpt lat="44.88406" lon="5.79819">
        <ele>638.314874</ele>
        <time>2025-07-10T11:37:37.000Z</time>
      </trkpt>
      <trkpt lat="44.88405" lon="5.79821">
        <ele>638.466797</ele>
        <time>2025-07-10T11:37:38.000Z</time>
      </trkpt>
      <trkpt lat="44.88404" lon="5.79823">
        <ele>638.624404</ele>
        <time>2025-07-10T11:37:39.000Z</time>
      </trkpt>
      <trkpt lat="44.88403" lon="5.79825">
        <ele>638.778144</ele>
        <time>2025-07-10T11:37:40.000Z</time>
      </trkpt>
      <trkpt lat="44.88402" lon="5.79826">
        <ele>638.924487</ele>
        <time>2025-07-10T11:37:41.000Z</time>
      </trkpt>
      <trkpt lat="44.88402" lon="5.79828">
        <ele>639.05953</ele>
        <time>2025-07-10T11:37:42.000Z</time>
      </trkpt>
      <trkpt lat="44.884" lon="5.7983">
        <ele>639.222958</ele>
        <time>2025-07-10T11:37:43.000Z</time>
      </trkpt>
      <trkpt lat="44.88399" lon="5.79831">
        <ele>639.376698</ele>
        <time>2025-07-10T11:37:44.000Z</time>
      </trkpt>
      <trkpt lat="44.88398" lon="5.79833">
        <ele>639.506167</ele>
        <time>2025-07-10T11:37:45.000Z</time>
      </trkpt>
      <trkpt lat="44.88398" lon="5.79834">
        <ele>639.647046</ele>
        <time>2025-07-10T11:37:46.000Z</time>
      </trkpt>
      <trkpt lat="44.88397" lon="5.79836">
        <ele>639.794175</ele>
        <time>2025-07-10T11:37:47.000Z</time>
      </trkpt>
      <trkpt lat="44.88396" lon="5.79838">
        <ele>639.946098</ele>
        <time>2025-07-10T11:37:48.000Z</time>
      </trkpt>
      <trkpt lat="44.88395" lon="5.79839">
        <ele>640.086831</ele>
        <time>2025-07-10T11:37:49.000Z</time>
      </trkpt>
      <trkpt lat="44.88394" lon="5.79841">
        <ele>640.228427</ele>
        <time>2025-07-10T11:37:50.000Z</time>
      </trkpt>
      <trkpt lat="44.88393" lon="5.79843">
        <ele>640.380841</ele>
        <time>2025-07-10T11:37:51.000Z</time>
      </trkpt>
      <trkpt lat="44.88393" lon="5.79845">
        <ele>640.533254</ele>
        <time>2025-07-10T11:37:52.000Z</time>
      </trkpt>
      <trkpt lat="44.88392" lon="5.79847">
        <ele>640.674851</ele>
        <time>2025-07-10T11:37:53.000Z</time>
      </trkpt>
      <trkpt lat="44.88391" lon="5.79848">
        <ele>640.821194</ele>
        <time>2025-07-10T11:37:54.000Z</time>
      </trkpt>
      <trkpt lat="44.8839" lon="5.7985">
        <ele>640.973607</ele>
        <time>2025-07-10T11:37:55.000Z</time>
      </trkpt>
      <trkpt lat="44.8839" lon="5.79852">
        <ele>641.116917</ele>
        <time>2025-07-10T11:37:56.000Z</time>
      </trkpt>
      <trkpt lat="44.88389" lon="5.79854">
        <ele>641.253603</ele>
        <time>2025-07-10T11:37:57.000Z</time>
      </trkpt>
      <trkpt lat="44.88389" lon="5.79856">
        <ele>641.374417</ele>
        <time>2025-07-10T11:37:58.000Z</time>
      </trkpt>
      <trkpt lat="44.88389" lon="5.79858">
        <ele>641.522147</ele>
        <time>2025-07-10T11:37:59.000Z</time>
      </trkpt>
      <trkpt lat="44.88388" lon="5.7986">
        <ele>641.665457</ele>
        <time>2025-07-10T11:38:00.000Z</time>
      </trkpt>
      <trkpt lat="44.88388" lon="5.79862">
        <ele>641.808767</ele>
        <time>2025-07-10T11:38:01.000Z</time>
      </trkpt>
      <trkpt lat="44.88388" lon="5.79864">
        <ele>641.948054</ele>
        <time>2025-07-10T11:38:02.000Z</time>
      </trkpt>
      <trkpt lat="44.88388" lon="5.79866">
        <ele>642.094173</ele>
        <time>2025-07-10T11:38:03.000Z</time>
      </trkpt>
      <trkpt lat="44.88387" lon="5.79868">
        <ele>642.24713</ele>
        <time>2025-07-10T11:38:04.000Z</time>
      </trkpt>
      <trkpt lat="44.88387" lon="5.79871">
        <ele>642.405738</ele>
        <time>2025-07-10T11:38:05.000Z</time>
      </trkpt>
      <trkpt lat="44.88387" lon="5.79873">
        <ele>642.578413</ele>
        <time>2025-07-10T11:38:06.000Z</time>
      </trkpt>
      <trkpt lat="44.88387" lon="5.79875">
        <ele>642.737022</ele>
        <time>2025-07-10T11:38:07.000Z</time>
      </trkpt>
      <trkpt lat="44.88387" lon="5.79878">
        <ele>642.896821</ele>
        <time>2025-07-10T11:38:08.000Z</time>
      </trkpt>
      <trkpt lat="44.88388" lon="5.7988">
        <ele>643.060137</ele>
        <time>2025-07-10T11:38:09.000Z</time>
      </trkpt>
      <trkpt lat="44.88388" lon="5.79882">
        <ele>643.230159</ele>
        <time>2025-07-10T11:38:10.000Z</time>
      </trkpt>
      <trkpt lat="44.88389" lon="5.79885">
        <ele>643.389485</ele>
        <time>2025-07-10T11:38:11.000Z</time>
      </trkpt>
      <trkpt lat="44.88389" lon="5.79887">
        <ele>643.562107</ele>
        <time>2025-07-10T11:38:12.000Z</time>
      </trkpt>
      <trkpt lat="44.8839" lon="5.79889">
        <ele>643.745012</ele>
        <time>2025-07-10T11:38:13.000Z</time>
      </trkpt>
      <trkpt lat="44.88391" lon="5.79891">
        <ele>643.903393</ele>
        <time>2025-07-10T11:38:14.000Z</time>
      </trkpt>
      <trkpt lat="44.88392" lon="5.79893">
        <ele>644.07799</ele>
        <time>2025-07-10T11:38:15.000Z</time>
      </trkpt>
      <trkpt lat="44.88393" lon="5.79896">
        <ele>644.26935</ele>
        <time>2025-07-10T11:38:16.000Z</time>
      </trkpt>
      <trkpt lat="44.88394" lon="5.79898">
        <ele>644.450539</ele>
        <time>2025-07-10T11:38:17.000Z</time>
      </trkpt>
      <trkpt lat="44.88395" lon="5.799">
        <ele>644.637704</ele>
        <time>2025-07-10T11:38:18.000Z</time>
      </trkpt>
      <trkpt lat="44.88397" lon="5.79902">
        <ele>644.835252</ele>
        <time>2025-07-10T11:38:19.000Z</time>
      </trkpt>
      <trkpt lat="44.88398" lon="5.79904">
        <ele>645.000974</ele>
        <time>2025-07-10T11:38:20.000Z</time>
      </trkpt>
      <trkpt lat="44.884" lon="5.79906">
        <ele>645.15247</ele>
        <time>2025-07-10T11:38:21.000Z</time>
      </trkpt>
      <trkpt lat="44.88401" lon="5.79908">
        <ele>645.310183</ele>
        <time>2025-07-10T11:38:22.000Z</time>
      </trkpt>
      <trkpt lat="44.88403" lon="5.79909">
        <ele>645.461678</ele>
        <time>2025-07-10T11:38:23.000Z</time>
      </trkpt>
      <trkpt lat="44.88405" lon="5.79911">
        <ele>645.623527</ele>
        <time>2025-07-10T11:38:24.000Z</time>
      </trkpt>
      <trkpt lat="44.88406" lon="5.79912">
        <ele>645.782757</ele>
        <time>2025-07-10T11:38:25.000Z</time>
      </trkpt>
      <trkpt lat="44.88408" lon="5.79913">
        <ele>645.9542</ele>
        <time>2025-07-10T11:38:26.000Z</time>
      </trkpt>
      <trkpt lat="44.8841" lon="5.79915">
        <ele>646.122988</ele>
        <time>2025-07-10T11:38:27.000Z</time>
      </trkpt>
      <trkpt lat="44.88412" lon="5.79916">
        <ele>646.280815</ele>
        <time>2025-07-10T11:38:28.000Z</time>
      </trkpt>
      <trkpt lat="44.88414" lon="5.79916">
        <ele>646.464075</ele>
        <time>2025-07-10T11:38:29.000Z</time>
      </trkpt>
      <trkpt lat="44.88417" lon="5.79917">
        <ele>646.635368</ele>
        <time>2025-07-10T11:38:30.000Z</time>
      </trkpt>
      <trkpt lat="44.88419" lon="5.79918">
        <ele>646.796386</ele>
        <time>2025-07-10T11:38:31.000Z</time>
      </trkpt>
      <trkpt lat="44.8842" lon="5.79919">
        <ele>646.954213</ele>
        <time>2025-07-10T11:38:32.000Z</time>
      </trkpt>
      <trkpt lat="44.88422" lon="5.7992">
        <ele>647.106548</ele>
        <time>2025-07-10T11:38:33.000Z</time>
      </trkpt>
      <trkpt lat="44.88424" lon="5.79921">
        <ele>647.270471</ele>
        <time>2025-07-10T11:38:34.000Z</time>
      </trkpt>
      <trkpt lat="44.88426" lon="5.79922">
        <ele>647.435782</ele>
        <time>2025-07-10T11:38:35.000Z</time>
      </trkpt>
      <trkpt lat="44.88428" lon="5.79923">
        <ele>647.583056</ele>
        <time>2025-07-10T11:38:36.000Z</time>
      </trkpt>
      <trkpt lat="44.88429" lon="5.79924">
        <ele>647.73432</ele>
        <time>2025-07-10T11:38:37.000Z</time>
      </trkpt>
      <trkpt lat="44.88431" lon="5.79926">
        <ele>647.892032</ele>
        <time>2025-07-10T11:38:38.000Z</time>
      </trkpt>
      <trkpt lat="44.88433" lon="5.79928">
        <ele>648.047082</ele>
        <time>2025-07-10T11:38:39.000Z</time>
      </trkpt>
      <trkpt lat="44.88434" lon="5.7993">
        <ele>648.203952</ele>
        <time>2025-07-10T11:38:40.000Z</time>
      </trkpt>
      <trkpt lat="44.88435" lon="5.79932">
        <ele>648.356902</ele>
        <time>2025-07-10T11:38:41.000Z</time>
      </trkpt>
      <trkpt lat="44.88437" lon="5.79934">
        <ele>648.511817</ele>
        <time>2025-07-10T11:38:42.000Z</time>
      </trkpt>
      <trkpt lat="44.88438" lon="5.79936">
        <ele>648.667413</ele>
        <time>2025-07-10T11:38:43.000Z</time>
      </trkpt>
      <trkpt lat="44.88439" lon="5.79938">
        <ele>648.80943</ele>
        <time>2025-07-10T11:38:44.000Z</time>
      </trkpt>
      <trkpt lat="44.8844" lon="5.7994">
        <ele>648.959671</ele>
        <time>2025-07-10T11:38:45.000Z</time>
      </trkpt>
      <trkpt lat="44.88441" lon="5.79942">
        <ele>649.110202</ele>
        <time>2025-07-10T11:38:46.000Z</time>
      </trkpt>
      <trkpt lat="44.88443" lon="5.79944">
        <ele>649.268923</ele>
        <time>2025-07-10T11:38:47.000Z</time>
      </trkpt>
      <trkpt lat="44.88444" lon="5.79946">
        <ele>649.414361</ele>
        <time>2025-07-10T11:38:48.000Z</time>
      </trkpt>
      <trkpt lat="44.88445" lon="5.79948">
        <ele>649.564892</ele>
        <time>2025-07-10T11:38:49.000Z</time>
      </trkpt>
      <trkpt lat="44.88447" lon="5.7995">
        <ele>649.716331</ele>
        <time>2025-07-10T11:38:50.000Z</time>
      </trkpt>
      <trkpt lat="44.88448" lon="5.79952">
        <ele>649.871927</ele>
        <time>2025-07-10T11:38:51.000Z</time>
      </trkpt>
      <trkpt lat="44.88449" lon="5.79954">
        <ele>650.017365</ele>
        <time>2025-07-10T11:38:52.000Z</time>
      </trkpt>
      <trkpt lat="44.88451" lon="5.79956">
        <ele>650.16474</ele>
        <time>2025-07-10T11:38:53.000Z</time>
      </trkpt>
      <trkpt lat="44.88452" lon="5.79958">
        <ele>650.310581</ele>
        <time>2025-07-10T11:38:54.000Z</time>
      </trkpt>
      <trkpt lat="44.88453" lon="5.7996">
        <ele>650.447163</ele>
        <time>2025-07-10T11:38:55.000Z</time>
      </trkpt>
      <trkpt lat="44.88454" lon="5.79962">
        <ele>650.588432</ele>
        <time>2025-07-10T11:38:56.000Z</time>
      </trkpt>
      <trkpt lat="44.88455" lon="5.79964">
        <ele>650.726334</ele>
        <time>2025-07-10T11:38:57.000Z</time>
      </trkpt>
      <trkpt lat="44.88456" lon="5.79965">
        <ele>650.875472</ele>
        <time>2025-07-10T11:38:58.000Z</time>
      </trkpt>
      <trkpt lat="44.88458" lon="5.79968">
        <ele>651.035311</ele>
        <time>2025-07-10T11:38:59.000Z</time>
      </trkpt>
      <trkpt lat="44.88459" lon="5.7997">
        <ele>651.204277</ele>
        <time>2025-07-10T11:39:00.000Z</time>
      </trkpt>
      <trkpt lat="44.8846" lon="5.79973">
        <ele>651.374269</ele>
        <time>2025-07-10T11:39:01.000Z</time>
      </trkpt>
      <trkpt lat="44.88461" lon="5.79975">
        <ele>651.543234</ele>
        <time>2025-07-10T11:39:02.000Z</time>
      </trkpt>
      <trkpt lat="44.88462" lon="5.79977">
        <ele>651.684503</ele>
        <time>2025-07-10T11:39:03.000Z</time>
      </trkpt>
      <trkpt lat="44.88463" lon="5.79979">
        <ele>651.808969</ele>
        <time>2025-07-10T11:39:04.000Z</time>
      </trkpt>
      <trkpt lat="44.88463" lon="5.79982">
        <ele>651.932727</ele>
        <time>2025-07-10T11:39:05.000Z</time>
      </trkpt>
      <trkpt lat="44.88463" lon="5.79984">
        <ele>652.063215</ele>
        <time>2025-07-10T11:39:06.000Z</time>
      </trkpt>
      <trkpt lat="44.88464" lon="5.79987">
        <ele>652.213535</ele>
        <time>2025-07-10T11:39:07.000Z</time>
      </trkpt>
      <trkpt lat="44.88464" lon="5.79989">
        <ele>652.368726</ele>
        <time>2025-07-10T11:39:08.000Z</time>
      </trkpt>
      <trkpt lat="44.88465" lon="5.79992">
        <ele>652.509103</ele>
        <time>2025-07-10T11:39:09.000Z</time>
      </trkpt>
      <trkpt lat="44.88465" lon="5.79994">
        <ele>652.64334</ele>
        <time>2025-07-10T11:39:10.000Z</time>
      </trkpt>
      <trkpt lat="44.88466" lon="5.79996">
        <ele>652.775481</ele>
        <time>2025-07-10T11:39:11.000Z</time>
      </trkpt>
      <trkpt lat="44.88466" lon="5.79999">
        <ele>652.920765</ele>
        <time>2025-07-10T11:39:12.000Z</time>
      </trkpt>
      <trkpt lat="44.88466" lon="5.80001">
        <ele>653.06605</ele>
        <time>2025-07-10T11:39:13.000Z</time>
      </trkpt>
      <trkpt lat="44.88466" lon="5.80004">
        <ele>653.205763</ele>
        <time>2025-07-10T11:39:14.000Z</time>
      </trkpt>
      <trkpt lat="44.88466" lon="5.80006">
        <ele>653.341742</ele>
        <time>2025-07-10T11:39:15.000Z</time>
      </trkpt>
      <trkpt lat="44.88466" lon="5.80009">
        <ele>653.503552</ele>
        <time>2025-07-10T11:39:16.000Z</time>
      </trkpt>
      <trkpt lat="44.88466" lon="5.80012">
        <ele>653.665553</ele>
        <time>2025-07-10T11:39:17.000Z</time>
      </trkpt>
      <trkpt lat="44.88466" lon="5.80015">
        <ele>653.816409</ele>
        <time>2025-07-10T11:39:18.000Z</time>
      </trkpt>
      <trkpt lat="44.88467" lon="5.80017">
        <ele>653.940168</ele>
        <time>2025-07-10T11:39:19.000Z</time>
      </trkpt>
      <trkpt lat="44.88467" lon="5.80019">
        <ele>654.074079</ele>
        <time>2025-07-10T11:39:20.000Z</time>
      </trkpt>
      <trkpt lat="44.88466" lon="5.80022">
        <ele>654.226571</ele>
        <time>2025-07-10T11:39:21.000Z</time>
      </trkpt>
      <trkpt lat="44.88466" lon="5.80025">
        <ele>654.371641</ele>
        <time>2025-07-10T11:39:22.000Z</time>
      </trkpt>
      <trkpt lat="44.88466" lon="5.80027">
        <ele>654.516712</ele>
        <time>2025-07-10T11:39:23.000Z</time>
      </trkpt>
      <trkpt lat="44.88466" lon="5.8003">
        <ele>654.673734</ele>
        <time>2025-07-10T11:39:24.000Z</time>
      </trkpt>
      <trkpt lat="44.88466" lon="5.80033">
        <ele>654.830756</ele>
        <time>2025-07-10T11:39:25.000Z</time>
      </trkpt>
      <trkpt lat="44.88466" lon="5.80035">
        <ele>654.965591</ele>
        <time>2025-07-10T11:39:26.000Z</time>
      </trkpt>
      <trkpt lat="44.88466" lon="5.80038">
        <ele>655.088343</ele>
        <time>2025-07-10T11:39:27.000Z</time>
      </trkpt>
      <trkpt lat="44.88466" lon="5.8004">
        <ele>655.216916</ele>
        <time>2025-07-10T11:39:28.000Z</time>
      </trkpt>
      <trkpt lat="44.88465" lon="5.80042">
        <ele>655.351059</ele>
        <time>2025-07-10T11:39:29.000Z</time>
      </trkpt>
      <trkpt lat="44.88465" lon="5.80045">
        <ele>655.515906</ele>
        <time>2025-07-10T11:39:30.000Z</time>
      </trkpt>
      <trkpt lat="44.88465" lon="5.80048">
        <ele>655.67528</ele>
        <time>2025-07-10T11:39:31.000Z</time>
      </trkpt>
      <trkpt lat="44.88464" lon="5.80051">
        <ele>655.830991</ele>
        <time>2025-07-10T11:39:32.000Z</time>
      </trkpt>
      <trkpt lat="44.88464" lon="5.80053">
        <ele>655.983563</ele>
        <time>2025-07-10T11:39:33.000Z</time>
      </trkpt>
      <trkpt lat="44.88463" lon="5.80056">
        <ele>656.114051</ele>
        <time>2025-07-10T11:39:34.000Z</time>
      </trkpt>
      <trkpt lat="44.88463" lon="5.80058">
        <ele>656.257055</ele>
        <time>2025-07-10T11:39:35.000Z</time>
      </trkpt>
      <trkpt lat="44.88463" lon="5.80061">
        <ele>656.398532</ele>
        <time>2025-07-10T11:39:36.000Z</time>
      </trkpt>
      <trkpt lat="44.88462" lon="5.80063">
        <ele>656.534512</ele>
        <time>2025-07-10T11:39:37.000Z</time>
      </trkpt>
      <trkpt lat="44.88462" lon="5.80065">
        <ele>656.666653</ele>
        <time>2025-07-10T11:39:38.000Z</time>
      </trkpt>
      <trkpt lat="44.88461" lon="5.80068">
        <ele>656.806233</ele>
        <time>2025-07-10T11:39:39.000Z</time>
      </trkpt>
      <trkpt lat="44.88461" lon="5.8007">
        <ele>656.9438</ele>
        <time>2025-07-10T11:39:40.000Z</time>
      </trkpt>
      <trkpt lat="44.8846" lon="5.80072">
        <ele>657.072713</ele>
        <time>2025-07-10T11:39:41.000Z</time>
      </trkpt>
      <trkpt lat="44.8846" lon="5.80075">
        <ele>657.212293</ele>
        <time>2025-07-10T11:39:42.000Z</time>
      </trkpt>
      <trkpt lat="44.8846" lon="5.80077">
        <ele>657.337298</ele>
        <time>2025-07-10T11:39:43.000Z</time>
      </trkpt>
      <trkpt lat="44.88459" lon="5.80079">
        <ele>657.464028</ele>
        <time>2025-07-10T11:39:44.000Z</time>
      </trkpt>
      <trkpt lat="44.88459" lon="5.80082">
        <ele>657.607031</ele>
        <time>2025-07-10T11:39:45.000Z</time>
      </trkpt>
      <trkpt lat="44.88458" lon="5.80084">
        <ele>657.741268</ele>
        <time>2025-07-10T11:39:46.000Z</time>
      </trkpt>
      <trkpt lat="44.88458" lon="5.80086">
        <ele>657.875505</ele>
        <time>2025-07-10T11:39:47.000Z</time>
      </trkpt>
      <trkpt lat="44.88457" lon="5.80089">
        <ele>658.013071</ele>
        <time>2025-07-10T11:39:48.000Z</time>
      </trkpt>
      <trkpt lat="44.88457" lon="5.80091">
        <ele>658.156075</ele>
        <time>2025-07-10T11:39:49.000Z</time>
      </trkpt>
      <trkpt lat="44.88457" lon="5.80093">
        <ele>658.292055</ele>
        <time>2025-07-10T11:39:50.000Z</time>
      </trkpt>
      <trkpt lat="44.88456" lon="5.80096">
        <ele>658.429621</ele>
        <time>2025-07-10T11:39:51.000Z</time>
      </trkpt>
      <trkpt lat="44.88456" lon="5.80098">
        <ele>658.574563</ele>
        <time>2025-07-10T11:39:52.000Z</time>
      </trkpt>
      <trkpt lat="44.88456" lon="5.80101">
        <ele>658.716041</ele>
        <time>2025-07-10T11:39:53.000Z</time>
      </trkpt>
      <trkpt lat="44.88455" lon="5.80103">
        <ele>658.852021</ele>
        <time>2025-07-10T11:39:54.000Z</time>
      </trkpt>
      <trkpt lat="44.88455" lon="5.80106">
        <ele>658.996963</ele>
        <time>2025-07-10T11:39:55.000Z</time>
      </trkpt>
      <trkpt lat="44.88454" lon="5.80108">
        <ele>659.143597</ele>
        <time>2025-07-10T11:39:56.000Z</time>
      </trkpt>
      <trkpt lat="44.88454" lon="5.80111">
        <ele>659.281778</ele>
        <time>2025-07-10T11:39:57.000Z</time>
      </trkpt>
      <trkpt lat="44.88453" lon="5.80113">
        <ele>659.414478</ele>
        <time>2025-07-10T11:39:58.000Z</time>
      </trkpt>
      <trkpt lat="44.88453" lon="5.80115">
        <ele>659.547571</ele>
        <time>2025-07-10T11:39:59.000Z</time>
      </trkpt>
      <trkpt lat="44.88453" lon="5.80118">
        <ele>659.696904</ele>
        <time>2025-07-10T11:40:00.000Z</time>
      </trkpt>
      <trkpt lat="44.88453" lon="5.8012">
        <ele>659.8357</ele>
        <time>2025-07-10T11:40:01.000Z</time>
      </trkpt>
      <trkpt lat="44.88453" lon="5.80122">
        <ele>659.970022</ele>
        <time>2025-07-10T11:40:02.000Z</time>
      </trkpt>
      <trkpt lat="44.88452" lon="5.80125">
        <ele>660.124758</ele>
        <time>2025-07-10T11:40:03.000Z</time>
      </trkpt>
      <trkpt lat="44.88452" lon="5.80128">
        <ele>660.277571</ele>
        <time>2025-07-10T11:40:04.000Z</time>
      </trkpt>
      <trkpt lat="44.88452" lon="5.8013">
        <ele>660.432859</ele>
        <time>2025-07-10T11:40:05.000Z</time>
      </trkpt>
      <trkpt lat="44.88452" lon="5.80133">
        <ele>660.59962</ele>
        <time>2025-07-10T11:40:06.000Z</time>
      </trkpt>
      <trkpt lat="44.88452" lon="5.80136">
        <ele>660.746825</ele>
        <time>2025-07-10T11:40:07.000Z</time>
      </trkpt>
      <trkpt lat="44.88453" lon="5.80138">
        <ele>660.899638</ele>
        <time>2025-07-10T11:40:08.000Z</time>
      </trkpt>
      <trkpt lat="44.88453" lon="5.80141">
        <ele>661.041246</ele>
        <time>2025-07-10T11:40:09.000Z</time>
      </trkpt>
      <trkpt lat="44.88453" lon="5.80143">
        <ele>661.185748</ele>
        <time>2025-07-10T11:40:10.000Z</time>
      </trkpt>
      <trkpt lat="44.88454" lon="5.80146">
        <ele>661.346034</ele>
        <time>2025-07-10T11:40:11.000Z</time>
      </trkpt>
      <trkpt lat="44.88454" lon="5.80148">
        <ele>661.498373</ele>
        <time>2025-07-10T11:40:12.000Z</time>
      </trkpt>
      <trkpt lat="44.88455" lon="5.80151">
        <ele>661.655927</ele>
        <time>2025-07-10T11:40:13.000Z</time>
      </trkpt>
      <trkpt lat="44.88456" lon="5.80153">
        <ele>661.796699</ele>
        <time>2025-07-10T11:40:14.000Z</time>
      </trkpt>
      <trkpt lat="44.88457" lon="5.80155">
        <ele>661.924822</ele>
        <time>2025-07-10T11:40:15.000Z</time>
      </trkpt>
      <trkpt lat="44.88458" lon="5.80157">
        <ele>662.065416</ele>
        <time>2025-07-10T11:40:16.000Z</time>
      </trkpt>
      <trkpt lat="44.88458" lon="5.80159">
        <ele>662.197329</ele>
        <time>2025-07-10T11:40:17.000Z</time>
      </trkpt>
      <trkpt lat="44.88459" lon="5.80161">
        <ele>662.323863</ele>
        <time>2025-07-10T11:40:18.000Z</time>
      </trkpt>
      <trkpt lat="44.8846" lon="5.80162">
        <ele>662.432438</ele>
        <time>2025-07-10T11:40:19.000Z</time>
      </trkpt>
      <trkpt lat="44.88461" lon="5.80164">
        <ele>662.560486</ele>
        <time>2025-07-10T11:40:20.000Z</time>
      </trkpt>
      <trkpt lat="44.88463" lon="5.80165">
        <ele>662.720038</ele>
        <time>2025-07-10T11:40:21.000Z</time>
      </trkpt>
      <trkpt lat="44.88465" lon="5.80167">
        <ele>662.898531</ele>
        <time>2025-07-10T11:40:22.000Z</time>
      </trkpt>
      <trkpt lat="44.88467" lon="5.80168">
        <ele>663.058083</ele>
        <time>2025-07-10T11:40:23.000Z</time>
      </trkpt>
      <trkpt lat="44.88468" lon="5.80169">
        <ele>663.205266</ele>
        <time>2025-07-10T11:40:24.000Z</time>
      </trkpt>
      <trkpt lat="44.8847" lon="5.80169">
        <ele>663.375596</ele>
        <time>2025-07-10T11:40:25.000Z</time>
      </trkpt>
      <trkpt lat="44.88472" lon="5.80169">
        <ele>663.537723</ele>
        <time>2025-07-10T11:40:26.000Z</time>
      </trkpt>
      <trkpt lat="44.88475" lon="5.80169">
        <ele>663.716892</ele>
        <time>2025-07-10T11:40:27.000Z</time>
      </trkpt>
      <trkpt lat="44.88477" lon="5.8017">
        <ele>663.879932</ele>
        <time>2025-07-10T11:40:28.000Z</time>
      </trkpt>
      <trkpt lat="44.88478" lon="5.8017">
        <ele>664.026859</ele>
        <time>2025-07-10T11:40:29.000Z</time>
      </trkpt>
      <trkpt lat="44.8848" lon="5.8017">
        <ele>664.189088</ele>
        <time>2025-07-10T11:40:30.000Z</time>
      </trkpt>
      <trkpt lat="44.88483" lon="5.80169">
        <ele>664.361726</ele>
        <time>2025-07-10T11:40:31.000Z</time>
      </trkpt>
      <trkpt lat="44.88485" lon="5.80169">
        <ele>664.525472</ele>
        <time>2025-07-10T11:40:32.000Z</time>
      </trkpt>
      <trkpt lat="44.88486" lon="5.80169">
        <ele>664.67992</ele>
        <time>2025-07-10T11:40:33.000Z</time>
      </trkpt>
      <trkpt lat="44.88488" lon="5.80168">
        <ele>664.84457</ele>
        <time>2025-07-10T11:40:34.000Z</time>
      </trkpt>
      <trkpt lat="44.8849" lon="5.80167">
        <ele>665.008951</ele>
        <time>2025-07-10T11:40:35.000Z</time>
      </trkpt>
      <trkpt lat="44.88492" lon="5.80166">
        <ele>665.182952</ele>
        <time>2025-07-10T11:40:36.000Z</time>
      </trkpt>
      <trkpt lat="44.88494" lon="5.80165">
        <ele>665.341957</ele>
        <time>2025-07-10T11:40:37.000Z</time>
      </trkpt>
      <trkpt lat="44.88496" lon="5.80164">
        <ele>665.498768</ele>
        <time>2025-07-10T11:40:38.000Z</time>
      </trkpt>
      <trkpt lat="44.88498" lon="5.80163">
        <ele>665.674936</ele>
        <time>2025-07-10T11:40:39.000Z</time>
      </trkpt>
      <trkpt lat="44.885" lon="5.80161">
        <ele>665.85343</ele>
        <time>2025-07-10T11:40:40.000Z</time>
      </trkpt>
      <trkpt lat="44.88502" lon="5.8016">
        <ele>666.003087</ele>
        <time>2025-07-10T11:40:41.000Z</time>
      </trkpt>
      <trkpt lat="44.88503" lon="5.80159">
        <ele>666.142857</ele>
        <time>2025-07-10T11:40:42.000Z</time>
      </trkpt>
      <trkpt lat="44.88505" lon="5.80158">
        <ele>666.316859</ele>
        <time>2025-07-10T11:40:43.000Z</time>
      </trkpt>
      <trkpt lat="44.88507" lon="5.80157">
        <ele>666.508053</ele>
        <time>2025-07-10T11:40:44.000Z</time>
      </trkpt>
      <trkpt lat="44.88509" lon="5.80155">
        <ele>666.670574</ele>
        <time>2025-07-10T11:40:45.000Z</time>
      </trkpt>
      <trkpt lat="44.88511" lon="5.80154">
        <ele>666.827309</ele>
        <time>2025-07-10T11:40:46.000Z</time>
      </trkpt>
      <trkpt lat="44.88513" lon="5.80152">
        <ele>667.019593</ele>
        <time>2025-07-10T11:40:47.000Z</time>
      </trkpt>
      <trkpt lat="44.88514" lon="5.80151">
        <ele>667.182115</ele>
        <time>2025-07-10T11:40:48.000Z</time>
      </trkpt>
      <trkpt lat="44.88516" lon="5.80149">
        <ele>667.321202</ele>
        <time>2025-07-10T11:40:49.000Z</time>
      </trkpt>
      <trkpt lat="44.88517" lon="5.80147">
        <ele>667.482679</ele>
        <time>2025-07-10T11:40:50.000Z</time>
      </trkpt>
      <trkpt lat="44.88519" lon="5.80145">
        <ele>667.655935</ele>
        <time>2025-07-10T11:40:51.000Z</time>
      </trkpt>
      <trkpt lat="44.88521" lon="5.80144">
        <ele>667.829681</ele>
        <time>2025-07-10T11:40:52.000Z</time>
      </trkpt>
      <trkpt lat="44.88522" lon="5.80143">
        <ele>667.976558</ele>
        <time>2025-07-10T11:40:53.000Z</time>
      </trkpt>
      <trkpt lat="44.88524" lon="5.80142">
        <ele>668.125855</ele>
        <time>2025-07-10T11:40:54.000Z</time>
      </trkpt>
      <trkpt lat="44.88526" lon="5.80141">
        <ele>668.294367</ele>
        <time>2025-07-10T11:40:55.000Z</time>
      </trkpt>
      <trkpt lat="44.88528" lon="5.8014">
        <ele>668.462879</ele>
        <time>2025-07-10T11:40:56.000Z</time>
      </trkpt>
      <trkpt lat="44.8853" lon="5.80139">
        <ele>668.65361</ele>
        <time>2025-07-10T11:40:57.000Z</time>
      </trkpt>
      <trkpt lat="44.88532" lon="5.80139">
        <ele>668.800537</ele>
        <time>2025-07-10T11:40:58.000Z</time>
      </trkpt>
      <trkpt lat="44.88534" lon="5.80138">
        <ele>668.934738</ele>
        <time>2025-07-10T11:40:59.000Z</time>
      </trkpt>
      <trkpt lat="44.88536" lon="5.80138">
        <ele>669.090463</ele>
        <time>2025-07-10T11:41:00.000Z</time>
      </trkpt>
      <trkpt lat="44.88538" lon="5.80138">
        <ele>669.252691</ele>
        <time>2025-07-10T11:41:01.000Z</time>
      </trkpt>
      <trkpt lat="44.8854" lon="5.80138">
        <ele>669.414919</ele>
        <time>2025-07-10T11:41:02.000Z</time>
      </trkpt>
      <trkpt lat="44.88542" lon="5.80138">
        <ele>669.578665</ele>
        <time>2025-07-10T11:41:03.000Z</time>
      </trkpt>
      <trkpt lat="44.88543" lon="5.80139">
        <ele>669.739393</ele>
        <time>2025-07-10T11:41:04.000Z</time>
      </trkpt>
      <trkpt lat="44.88545" lon="5.80139">
        <ele>669.862203</ele>
        <time>2025-07-10T11:41:05.000Z</time>
      </trkpt>
      <trkpt lat="44.88547" lon="5.80141">
        <ele>670.02611</ele>
        <time>2025-07-10T11:41:06.000Z</time>
      </trkpt>
      <trkpt lat="44.88548" lon="5.80142">
        <ele>670.171376</ele>
        <time>2025-07-10T11:41:07.000Z</time>
      </trkpt>
      <trkpt lat="44.8855" lon="5.80143">
        <ele>670.315646</ele>
        <time>2025-07-10T11:41:08.000Z</time>
      </trkpt>
      <trkpt lat="44.88552" lon="5.80144">
        <ele>670.484384</ele>
        <time>2025-07-10T11:41:09.000Z</time>
      </trkpt>
      <trkpt lat="44.88554" lon="5.80145">
        <ele>670.646847</ele>
        <time>2025-07-10T11:41:10.000Z</time>
      </trkpt>
      <trkpt lat="44.88556" lon="5.80146">
        <ele>670.838041</ele>
        <time>2025-07-10T11:41:11.000Z</time>
      </trkpt>
      <trkpt lat="44.88558" lon="5.80148">
        <ele>671.016867</ele>
        <time>2025-07-10T11:41:12.000Z</time>
      </trkpt>
      <trkpt lat="44.88559" lon="5.80149">
        <ele>671.162643</ele>
        <time>2025-07-10T11:41:13.000Z</time>
      </trkpt>
      <trkpt lat="44.88561" lon="5.80151">
        <ele>671.332145</ele>
        <time>2025-07-10T11:41:14.000Z</time>
      </trkpt>
      <trkpt lat="44.88562" lon="5.80153">
        <ele>671.475807</ele>
        <time>2025-07-10T11:41:15.000Z</time>
      </trkpt>
      <trkpt lat="44.88564" lon="5.80155">
        <ele>671.637284</ele>
        <time>2025-07-10T11:41:16.000Z</time>
      </trkpt>
      <trkpt lat="44.88565" lon="5.80157">
        <ele>671.773809</ele>
        <time>2025-07-10T11:41:17.000Z</time>
      </trkpt>
      <trkpt lat="44.88566" lon="5.80159">
        <ele>671.923933</ele>
        <time>2025-07-10T11:41:18.000Z</time>
      </trkpt>
      <trkpt lat="44.88567" lon="5.80161">
        <ele>672.088466</ele>
        <time>2025-07-10T11:41:19.000Z</time>
      </trkpt>
      <trkpt lat="44.88568" lon="5.80163">
        <ele>672.233789</ele>
        <time>2025-07-10T11:41:20.000Z</time>
      </trkpt>
      <trkpt lat="44.88569" lon="5.80165">
        <ele>672.370731</ele>
        <time>2025-07-10T11:41:21.000Z</time>
      </trkpt>
      <trkpt lat="44.8857" lon="5.80168">
        <ele>672.523067</ele>
        <time>2025-07-10T11:41:22.000Z</time>
      </trkpt>
      <trkpt lat="44.8857" lon="5.8017">
        <ele>672.663836</ele>
        <time>2025-07-10T11:41:23.000Z</time>
      </trkpt>
      <trkpt lat="44.88571" lon="5.80172">
        <ele>672.778088</ele>
        <time>2025-07-10T11:41:24.000Z</time>
      </trkpt>
      <trkpt lat="44.88571" lon="5.80174">
        <ele>672.908138</ele>
        <time>2025-07-10T11:41:25.000Z</time>
      </trkpt>
      <trkpt lat="44.88573" lon="5.80176">
        <ele>673.077123</ele>
        <time>2025-07-10T11:41:26.000Z</time>
      </trkpt>
      <trkpt lat="44.88574" lon="5.80178">
        <ele>673.22254</ele>
        <time>2025-07-10T11:41:27.000Z</time>
      </trkpt>
      <trkpt lat="44.88575" lon="5.8018">
        <ele>673.387073</ele>
        <time>2025-07-10T11:41:28.000Z</time>
      </trkpt>
      <trkpt lat="44.88577" lon="5.80182">
        <ele>673.554346</ele>
        <time>2025-07-10T11:41:29.000Z</time>
      </trkpt>
      <trkpt lat="44.88578" lon="5.80184">
        <ele>673.700939</ele>
        <time>2025-07-10T11:41:30.000Z</time>
      </trkpt>
      <trkpt lat="44.88579" lon="5.80186">
        <ele>673.836997</ele>
        <time>2025-07-10T11:41:31.000Z</time>
      </trkpt>
      <trkpt lat="44.88581" lon="5.80187">
        <ele>673.973055</ele>
        <time>2025-07-10T11:41:32.000Z</time>
      </trkpt>
      <trkpt lat="44.88582" lon="5.80189">
        <ele>674.12069</ele>
        <time>2025-07-10T11:41:33.000Z</time>
      </trkpt>
      <trkpt lat="44.88583" lon="5.80191">
        <ele>674.273619</ele>
        <time>2025-07-10T11:41:34.000Z</time>
      </trkpt>
      <trkpt lat="44.88585" lon="5.80193">
        <ele>674.430702</ele>
        <time>2025-07-10T11:41:35.000Z</time>
      </trkpt>
      <trkpt lat="44.88587" lon="5.80195">
        <ele>674.571836</ele>
        <time>2025-07-10T11:41:36.000Z</time>
      </trkpt>
      <trkpt lat="44.88588" lon="5.80196">
        <ele>674.729621</ele>
        <time>2025-07-10T11:41:37.000Z</time>
      </trkpt>
      <trkpt lat="44.8859" lon="5.80197">
        <ele>674.88354</ele>
        <time>2025-07-10T11:41:38.000Z</time>
      </trkpt>
      <trkpt lat="44.88592" lon="5.80199">
        <ele>675.034645</ele>
        <time>2025-07-10T11:41:39.000Z</time>
      </trkpt>
      <trkpt lat="44.88593" lon="5.802">
        <ele>675.188564</ele>
        <time>2025-07-10T11:41:40.000Z</time>
      </trkpt>
      <trkpt lat="44.88595" lon="5.80201">
        <ele>675.339153</ele>
        <time>2025-07-10T11:41:41.000Z</time>
      </trkpt>
      <trkpt lat="44.88597" lon="5.80202">
        <ele>675.485758</ele>
        <time>2025-07-10T11:41:42.000Z</time>
      </trkpt>
      <trkpt lat="44.88599" lon="5.80203">
        <ele>675.623335</ele>
        <time>2025-07-10T11:41:43.000Z</time>
      </trkpt>
      <trkpt lat="44.88601" lon="5.80204">
        <ele>675.779015</ele>
        <time>2025-07-10T11:41:44.000Z</time>
      </trkpt>
      <trkpt lat="44.88602" lon="5.80205">
        <ele>675.929604</ele>
        <time>2025-07-10T11:41:45.000Z</time>
      </trkpt>
      <trkpt lat="44.88604" lon="5.80206">
        <ele>676.085284</ele>
        <time>2025-07-10T11:41:46.000Z</time>
      </trkpt>
      <trkpt lat="44.88606" lon="5.80207">
        <ele>676.233794</ele>
        <time>2025-07-10T11:41:47.000Z</time>
      </trkpt>
      <trkpt lat="44.88608" lon="5.80208">
        <ele>676.378675</ele>
        <time>2025-07-10T11:41:48.000Z</time>
      </trkpt>
      <trkpt lat="44.8861" lon="5.80209">
        <ele>676.52007</ele>
        <time>2025-07-10T11:41:49.000Z</time>
      </trkpt>
      <trkpt lat="44.88611" lon="5.8021">
        <ele>676.670658</ele>
        <time>2025-07-10T11:41:50.000Z</time>
      </trkpt>
      <trkpt lat="44.88613" lon="5.80211">
        <ele>676.81265</ele>
        <time>2025-07-10T11:41:51.000Z</time>
      </trkpt>
      <trkpt lat="44.88615" lon="5.80212">
        <ele>676.972243</ele>
        <time>2025-07-10T11:41:52.000Z</time>
      </trkpt>
      <trkpt lat="44.88617" lon="5.80212">
        <ele>677.133404</ele>
        <time>2025-07-10T11:41:53.000Z</time>
      </trkpt>
      <trkpt lat="44.88619" lon="5.80213">
        <ele>677.292996</ele>
        <time>2025-07-10T11:41:54.000Z</time>
      </trkpt>
      <trkpt lat="44.88621" lon="5.80214">
        <ele>677.450659</ele>
        <time>2025-07-10T11:41:55.000Z</time>
      </trkpt>
      <trkpt lat="44.88623" lon="5.80216">
        <ele>677.60349</ele>
        <time>2025-07-10T11:41:56.000Z</time>
      </trkpt>
      <trkpt lat="44.88625" lon="5.80217">
        <ele>677.766385</ele>
        <time>2025-07-10T11:41:57.000Z</time>
      </trkpt>
      <trkpt lat="44.88627" lon="5.80218">
        <ele>677.919216</ele>
        <time>2025-07-10T11:41:58.000Z</time>
      </trkpt>
      <trkpt lat="44.88628" lon="5.80219">
        <ele>678.076086</ele>
        <time>2025-07-10T11:41:59.000Z</time>
      </trkpt>
      <trkpt lat="44.8863" lon="5.80221">
        <ele>678.208457</ele>
        <time>2025-07-10T11:42:00.000Z</time>
      </trkpt>
      <trkpt lat="44.88632" lon="5.80222">
        <ele>678.356968</ele>
        <time>2025-07-10T11:42:01.000Z</time>
      </trkpt>
      <trkpt lat="44.88634" lon="5.80223">
        <ele>678.528936</ele>
        <time>2025-07-10T11:42:02.000Z</time>
      </trkpt>
      <trkpt lat="44.88636" lon="5.80223">
        <ele>678.677318</ele>
        <time>2025-07-10T11:42:03.000Z</time>
      </trkpt>
      <trkpt lat="44.88637" lon="5.80225">
        <ele>678.821844</ele>
        <time>2025-07-10T11:42:04.000Z</time>
      </trkpt>
      <trkpt lat="44.88639" lon="5.80226">
        <ele>678.970355</ele>
        <time>2025-07-10T11:42:05.000Z</time>
      </trkpt>
      <trkpt lat="44.88641" lon="5.80226">
        <ele>679.124218</ele>
        <time>2025-07-10T11:42:06.000Z</time>
      </trkpt>
      <trkpt lat="44.88643" lon="5.80228">
        <ele>679.281881</ele>
        <time>2025-07-10T11:42:07.000Z</time>
      </trkpt>
      <trkpt lat="44.88645" lon="5.80228">
        <ele>679.425222</ele>
        <time>2025-07-10T11:42:08.000Z</time>
      </trkpt>
      <trkpt lat="44.88647" lon="5.8023">
        <ele>679.594267</ele>
        <time>2025-07-10T11:42:09.000Z</time>
      </trkpt>
      <trkpt lat="44.88649" lon="5.8023">
        <ele>679.743742</ele>
        <time>2025-07-10T11:42:10.000Z</time>
      </trkpt>
      <trkpt lat="44.8865" lon="5.80231">
        <ele>679.89433</ele>
        <time>2025-07-10T11:42:11.000Z</time>
      </trkpt>
      <trkpt lat="44.88652" lon="5.80233">
        <ele>680.042768</ele>
        <time>2025-07-10T11:42:12.000Z</time>
      </trkpt>
      <trkpt lat="44.88654" lon="5.80234">
        <ele>680.200552</ele>
        <time>2025-07-10T11:42:13.000Z</time>
      </trkpt>
      <trkpt lat="44.88656" lon="5.80235">
        <ele>680.361032</ele>
        <time>2025-07-10T11:42:14.000Z</time>
      </trkpt>
      <trkpt lat="44.88657" lon="5.80237">
        <ele>680.502768</ele>
        <time>2025-07-10T11:42:15.000Z</time>
      </trkpt>
      <trkpt lat="44.88659" lon="5.80238">
        <ele>680.640344</ele>
        <time>2025-07-10T11:42:16.000Z</time>
      </trkpt>
      <trkpt lat="44.88661" lon="5.80239">
        <ele>680.811736</ele>
        <time>2025-07-10T11:42:17.000Z</time>
      </trkpt>
      <trkpt lat="44.88663" lon="5.8024">
        <ele>681.004034</ele>
        <time>2025-07-10T11:42:18.000Z</time>
      </trkpt>
      <trkpt lat="44.88665" lon="5.80242">
        <ele>681.17308</ele>
        <time>2025-07-10T11:42:19.000Z</time>
      </trkpt>
      <trkpt lat="44.88667" lon="5.80243">
        <ele>681.298829</ele>
        <time>2025-07-10T11:42:20.000Z</time>
      </trkpt>
      <trkpt lat="44.88668" lon="5.80245">
        <ele>681.457247</ele>
        <time>2025-07-10T11:42:21.000Z</time>
      </trkpt>
      <trkpt lat="44.8867" lon="5.80246">
        <ele>681.60779</ele>
        <time>2025-07-10T11:42:22.000Z</time>
      </trkpt>
      <trkpt lat="44.88671" lon="5.80248">
        <ele>681.749525</ele>
        <time>2025-07-10T11:42:23.000Z</time>
      </trkpt>
      <trkpt lat="44.88673" lon="5.80249">
        <ele>681.8793</ele>
        <time>2025-07-10T11:42:24.000Z</time>
      </trkpt>
      <trkpt lat="44.88675" lon="5.8025">
        <ele>682.022875</ele>
        <time>2025-07-10T11:42:25.000Z</time>
      </trkpt>
      <trkpt lat="44.88677" lon="5.80251">
        <ele>682.184979</ele>
        <time>2025-07-10T11:42:26.000Z</time>
      </trkpt>
      <trkpt lat="44.88678" lon="5.80252">
        <ele>682.330905</ele>
        <time>2025-07-10T11:42:27.000Z</time>
      </trkpt>
      <trkpt lat="44.8868" lon="5.80254">
        <ele>682.479343</ele>
        <time>2025-07-10T11:42:28.000Z</time>
      </trkpt>
      <trkpt lat="44.88681" lon="5.80255">
        <ele>682.598597</ele>
        <time>2025-07-10T11:42:29.000Z</time>
      </trkpt>
      <trkpt lat="44.88683" lon="5.80256">
        <ele>682.733733</ele>
        <time>2025-07-10T11:42:30.000Z</time>
      </trkpt>
      <trkpt lat="44.88684" lon="5.80258">
        <ele>682.874866</ele>
        <time>2025-07-10T11:42:31.000Z</time>
      </trkpt>
      <trkpt lat="44.88686" lon="5.80259">
        <ele>683.010002</ele>
        <time>2025-07-10T11:42:32.000Z</time>
      </trkpt>
      <trkpt lat="44.88687" lon="5.8026">
        <ele>683.151738</ele>
        <time>2025-07-10T11:42:33.000Z</time>
      </trkpt>
      <trkpt lat="44.88689" lon="5.80262">
        <ele>683.304666</ele>
        <time>2025-07-10T11:42:34.000Z</time>
      </trkpt>
      <trkpt lat="44.8869" lon="5.80264">
        <ele>683.45213</ele>
        <time>2025-07-10T11:42:35.000Z</time>
      </trkpt>
      <trkpt lat="44.88692" lon="5.80265">
        <ele>683.588764</ele>
        <time>2025-07-10T11:42:36.000Z</time>
      </trkpt>
      <trkpt lat="44.88694" lon="5.80266">
        <ele>683.727865</ele>
        <time>2025-07-10T11:42:37.000Z</time>
      </trkpt>
      <trkpt lat="44.88695" lon="5.80267">
        <ele>683.85018</ele>
        <time>2025-07-10T11:42:38.000Z</time>
      </trkpt>
      <trkpt lat="44.88696" lon="5.80269">
        <ele>683.99787</ele>
        <time>2025-07-10T11:42:39.000Z</time>
      </trkpt>
      <trkpt lat="44.88697" lon="5.80271">
        <ele>684.113922</ele>
        <time>2025-07-10T11:42:40.000Z</time>
      </trkpt>
      <trkpt lat="44.88698" lon="5.80272">
        <ele>684.227636</ele>
        <time>2025-07-10T11:42:41.000Z</time>
      </trkpt>
      <trkpt lat="44.887" lon="5.80274">
        <ele>684.374384</ele>
        <time>2025-07-10T11:42:42.000Z</time>
      </trkpt>
      <trkpt lat="44.88701" lon="5.80277">
        <ele>684.534457</ele>
        <time>2025-07-10T11:42:43.000Z</time>
      </trkpt>
      <trkpt lat="44.88702" lon="5.80279">
        <ele>684.688641</ele>
        <time>2025-07-10T11:42:44.000Z</time>
      </trkpt>
      <trkpt lat="44.88703" lon="5.80282">
        <ele>684.85336</ele>
        <time>2025-07-10T11:42:45.000Z</time>
      </trkpt>
      <trkpt lat="44.88703" lon="5.80284">
        <ele>684.979596</ele>
        <time>2025-07-10T11:42:46.000Z</time>
      </trkpt>
      <trkpt lat="44.88704" lon="5.80287">
        <ele>685.13378</ele>
        <time>2025-07-10T11:42:47.000Z</time>
      </trkpt>
      <trkpt lat="44.88705" lon="5.80289">
        <ele>685.295285</ele>
        <time>2025-07-10T11:42:48.000Z</time>
      </trkpt>
      <trkpt lat="44.88706" lon="5.80292">
        <ele>685.451671</ele>
        <time>2025-07-10T11:42:49.000Z</time>
      </trkpt>
      <trkpt lat="44.88706" lon="5.80295">
        <ele>685.600407</ele>
        <time>2025-07-10T11:42:50.000Z</time>
      </trkpt>
      <trkpt lat="44.88707" lon="5.80298">
        <ele>685.764626</ele>
        <time>2025-07-10T11:42:51.000Z</time>
      </trkpt>
      <trkpt lat="44.88708" lon="5.803">
        <ele>685.899132</ele>
        <time>2025-07-10T11:42:52.000Z</time>
      </trkpt>
      <trkpt lat="44.88708" lon="5.80302">
        <ele>686.040306</ele>
        <time>2025-07-10T11:42:53.000Z</time>
      </trkpt>
      <trkpt lat="44.88709" lon="5.80305">
        <ele>686.181479</ele>
        <time>2025-07-10T11:42:54.000Z</time>
      </trkpt>
      <trkpt lat="44.8871" lon="5.80307">
        <ele>686.31755</ele>
        <time>2025-07-10T11:42:55.000Z</time>
      </trkpt>
      <trkpt lat="44.8871" lon="5.8031">
        <ele>686.476737</ele>
        <time>2025-07-10T11:42:56.000Z</time>
      </trkpt>
      <trkpt lat="44.88711" lon="5.80313">
        <ele>686.643381</ele>
        <time>2025-07-10T11:42:57.000Z</time>
      </trkpt>
      <trkpt lat="44.88712" lon="5.80315">
        <ele>686.789845</ele>
        <time>2025-07-10T11:42:58.000Z</time>
      </trkpt>
      <trkpt lat="44.88713" lon="5.80317">
        <ele>686.923343</ele>
        <time>2025-07-10T11:42:59.000Z</time>
      </trkpt>
      <trkpt lat="44.88714" lon="5.80319">
        <ele>687.057849</ele>
        <time>2025-07-10T11:43:00.000Z</time>
      </trkpt>
      <trkpt lat="44.88715" lon="5.80321">
        <ele>687.186724</ele>
        <time>2025-07-10T11:43:01.000Z</time>
      </trkpt>
      <trkpt lat="44.88716" lon="5.80323">
        <ele>687.311042</ele>
        <time>2025-07-10T11:43:02.000Z</time>
      </trkpt>
      <trkpt lat="44.88717" lon="5.80325">
        <ele>687.459307</ele>
        <time>2025-07-10T11:43:03.000Z</time>
      </trkpt>
      <trkpt lat="44.88718" lon="5.80327">
        <ele>687.592627</ele>
        <time>2025-07-10T11:43:04.000Z</time>
      </trkpt>
      <trkpt lat="44.8872" lon="5.80328">
        <ele>687.72056</ele>
        <time>2025-07-10T11:43:05.000Z</time>
      </trkpt>
      <trkpt lat="44.88721" lon="5.8033">
        <ele>687.846972</ele>
        <time>2025-07-10T11:43:06.000Z</time>
      </trkpt>
      <trkpt lat="44.88722" lon="5.80332">
        <ele>687.952314</ele>
        <time>2025-07-10T11:43:07.000Z</time>
      </trkpt>
      <trkpt lat="44.88723" lon="5.80334">
        <ele>688.083777</ele>
        <time>2025-07-10T11:43:08.000Z</time>
      </trkpt>
      <trkpt lat="44.88725" lon="5.80335">
        <ele>688.219505</ele>
        <time>2025-07-10T11:43:09.000Z</time>
      </trkpt>
      <trkpt lat="44.88726" lon="5.80337">
        <ele>688.364077</ele>
        <time>2025-07-10T11:43:10.000Z</time>
      </trkpt>
      <trkpt lat="44.88728" lon="5.80339">
        <ele>688.508648</ele>
        <time>2025-07-10T11:43:11.000Z</time>
      </trkpt>
      <trkpt lat="44.8873" lon="5.8034">
        <ele>688.650202</ele>
        <time>2025-07-10T11:43:12.000Z</time>
      </trkpt>
      <trkpt lat="44.88731" lon="5.80342">
        <ele>688.786912</ele>
        <time>2025-07-10T11:43:13.000Z</time>
      </trkpt>
      <trkpt lat="44.88732" lon="5.80344">
        <ele>688.930709</ele>
        <time>2025-07-10T11:43:14.000Z</time>
      </trkpt>
      <trkpt lat="44.88734" lon="5.80346">
        <ele>689.060892</ele>
        <time>2025-07-10T11:43:15.000Z</time>
      </trkpt>
      <trkpt lat="44.88735" lon="5.80348">
        <ele>689.186387</ele>
        <time>2025-07-10T11:43:16.000Z</time>
      </trkpt>
      <trkpt lat="44.88736" lon="5.8035">
        <ele>689.320431</ele>
        <time>2025-07-10T11:43:17.000Z</time>
      </trkpt>
      <trkpt lat="44.88737" lon="5.80352">
        <ele>689.455525</ele>
        <time>2025-07-10T11:43:18.000Z</time>
      </trkpt>
      <trkpt lat="44.88738" lon="5.80354">
        <ele>689.585708</ele>
        <time>2025-07-10T11:43:19.000Z</time>
      </trkpt>
      <trkpt lat="44.88739" lon="5.80356">
        <ele>689.71512</ele>
        <time>2025-07-10T11:43:20.000Z</time>
      </trkpt>
      <trkpt lat="44.8874" lon="5.80358">
        <ele>689.845051</ele>
        <time>2025-07-10T11:43:21.000Z</time>
      </trkpt>
      <trkpt lat="44.88741" lon="5.8036">
        <ele>689.976097</ele>
        <time>2025-07-10T11:43:22.000Z</time>
      </trkpt>
      <trkpt lat="44.88742" lon="5.80362">
        <ele>690.113816</ele>
        <time>2025-07-10T11:43:23.000Z</time>
      </trkpt>
      <trkpt lat="44.88743" lon="5.80364">
        <ele>690.243228</ele>
        <time>2025-07-10T11:43:24.000Z</time>
      </trkpt>
      <trkpt lat="44.88744" lon="5.80367">
        <ele>690.375972</ele>
        <time>2025-07-10T11:43:25.000Z</time>
      </trkpt>
      <trkpt lat="44.88745" lon="5.80369">
        <ele>690.494671</ele>
        <time>2025-07-10T11:43:26.000Z</time>
      </trkpt>
      <trkpt lat="44.88745" lon="5.80371">
        <ele>690.621147</ele>
        <time>2025-07-10T11:43:27.000Z</time>
      </trkpt>
      <trkpt lat="44.88746" lon="5.80374">
        <ele>690.760928</ele>
        <time>2025-07-10T11:43:28.000Z</time>
      </trkpt>
      <trkpt lat="44.88746" lon="5.80376">
        <ele>690.895659</ele>
        <time>2025-07-10T11:43:29.000Z</time>
      </trkpt>
      <trkpt lat="44.88746" lon="5.80379">
        <ele>691.050617</ele>
        <time>2025-07-10T11:43:30.000Z</time>
      </trkpt>
      <trkpt lat="44.88746" lon="5.80382">
        <ele>691.194006</ele>
        <time>2025-07-10T11:43:31.000Z</time>
      </trkpt>
      <trkpt lat="44.88747" lon="5.80385">
        <ele>691.322683</ele>
        <time>2025-07-10T11:43:32.000Z</time>
      </trkpt>
      <trkpt lat="44.88747" lon="5.80387">
        <ele>691.440851</ele>
        <time>2025-07-10T11:43:33.000Z</time>
      </trkpt>
      <trkpt lat="44.88747" lon="5.8039">
        <ele>691.575582</ele>
        <time>2025-07-10T11:43:34.000Z</time>
      </trkpt>
      <trkpt lat="44.88748" lon="5.80392">
        <ele>691.706666</ele>
        <time>2025-07-10T11:43:35.000Z</time>
      </trkpt>
      <trkpt lat="44.88749" lon="5.80394">
        <ele>691.833141</ele>
        <time>2025-07-10T11:43:36.000Z</time>
      </trkpt>
      <trkpt lat="44.8875" lon="5.80397">
        <ele>691.993515</ele>
        <time>2025-07-10T11:43:37.000Z</time>
      </trkpt>
      <trkpt lat="44.8875" lon="5.804">
        <ele>692.146128</ele>
        <time>2025-07-10T11:43:38.000Z</time>
      </trkpt>
      <trkpt lat="44.88751" lon="5.80402">
        <ele>692.297438</ele>
        <time>2025-07-10T11:43:39.000Z</time>
      </trkpt>
      <trkpt lat="44.88753" lon="5.80405">
        <ele>692.447677</ele>
        <time>2025-07-10T11:43:40.000Z</time>
      </trkpt>
      <trkpt lat="44.88754" lon="5.80407">
        <ele>692.607562</ele>
        <time>2025-07-10T11:43:41.000Z</time>
      </trkpt>
      <trkpt lat="44.88755" lon="5.80409">
        <ele>692.758045</ele>
        <time>2025-07-10T11:43:42.000Z</time>
      </trkpt>
      <trkpt lat="44.88757" lon="5.80412">
        <ele>692.900049</ele>
        <time>2025-07-10T11:43:43.000Z</time>
      </trkpt>
      <trkpt lat="44.88758" lon="5.80413">
        <ele>693.056586</ele>
        <time>2025-07-10T11:43:44.000Z</time>
      </trkpt>
      <trkpt lat="44.8876" lon="5.80415">
        <ele>693.204089</ele>
        <time>2025-07-10T11:43:45.000Z</time>
      </trkpt>
      <trkpt lat="44.88762" lon="5.80416">
        <ele>693.346173</ele>
        <time>2025-07-10T11:43:46.000Z</time>
      </trkpt>
      <trkpt lat="44.88764" lon="5.80418">
        <ele>693.500898</ele>
        <time>2025-07-10T11:43:47.000Z</time>
      </trkpt>
      <trkpt lat="44.88765" lon="5.80419">
        <ele>693.639557</ele>
        <time>2025-07-10T11:43:48.000Z</time>
      </trkpt>
      <trkpt lat="44.88767" lon="5.80421">
        <ele>693.763417</ele>
        <time>2025-07-10T11:43:49.000Z</time>
      </trkpt>
      <trkpt lat="44.88768" lon="5.80422">
        <ele>693.908145</ele>
        <time>2025-07-10T11:43:50.000Z</time>
      </trkpt>
      <trkpt lat="44.8877" lon="5.80424">
        <ele>694.040852</ele>
        <time>2025-07-10T11:43:51.000Z</time>
      </trkpt>
      <trkpt lat="44.88771" lon="5.80425">
        <ele>694.173559</ele>
        <time>2025-07-10T11:43:52.000Z</time>
      </trkpt>
      <trkpt lat="44.88773" lon="5.80427">
        <ele>694.318287</ele>
        <time>2025-07-10T11:43:53.000Z</time>
      </trkpt>
      <trkpt lat="44.88775" lon="5.80428">
        <ele>694.457863</ele>
        <time>2025-07-10T11:43:54.000Z</time>
      </trkpt>
      <trkpt lat="44.88776" lon="5.80429">
        <ele>694.599946</ele>
        <time>2025-07-10T11:43:55.000Z</time>
      </trkpt>
      <trkpt lat="44.88778" lon="5.80431">
        <ele>694.735843</ele>
        <time>2025-07-10T11:43:56.000Z</time>
      </trkpt>
      <trkpt lat="44.8878" lon="5.80432">
        <ele>694.889405</ele>
        <time>2025-07-10T11:43:57.000Z</time>
      </trkpt>
      <trkpt lat="44.88782" lon="5.80434">
        <ele>695.042966</ele>
        <time>2025-07-10T11:43:58.000Z</time>
      </trkpt>
      <trkpt lat="44.88783" lon="5.80435">
        <ele>695.172783</ele>
        <time>2025-07-10T11:43:59.000Z</time>
      </trkpt>
      <trkpt lat="44.88785" lon="5.80437">
        <ele>695.311443</ele>
        <time>2025-07-10T11:44:00.000Z</time>
      </trkpt>
      <trkpt lat="44.88786" lon="5.80438">
        <ele>695.44734</ele>
        <time>2025-07-10T11:44:01.000Z</time>
      </trkpt>
      <trkpt lat="44.88788" lon="5.8044">
        <ele>695.598238</ele>
        <time>2025-07-10T11:44:02.000Z</time>
      </trkpt>
      <trkpt lat="44.8879" lon="5.80441">
        <ele>695.736897</ele>
        <time>2025-07-10T11:44:03.000Z</time>
      </trkpt>
      <trkpt lat="44.88791" lon="5.80443">
        <ele>695.866714</ele>
        <time>2025-07-10T11:44:04.000Z</time>
      </trkpt>
      <trkpt lat="44.88793" lon="5.80444">
        <ele>696.017612</ele>
        <time>2025-07-10T11:44:05.000Z</time>
      </trkpt>
      <trkpt lat="44.88795" lon="5.80445">
        <ele>696.154825</ele>
        <time>2025-07-10T11:44:06.000Z</time>
      </trkpt>
      <trkpt lat="44.88797" lon="5.80447">
        <ele>696.298531</ele>
        <time>2025-07-10T11:44:07.000Z</time>
      </trkpt>
      <trkpt lat="44.88798" lon="5.80448">
        <ele>696.438175</ele>
        <time>2025-07-10T11:44:08.000Z</time>
      </trkpt>
      <trkpt lat="44.888" lon="5.80449">
        <ele>696.579772</ele>
        <time>2025-07-10T11:44:09.000Z</time>
      </trkpt>
      <trkpt lat="44.88802" lon="5.8045">
        <ele>696.728021</ele>
        <time>2025-07-10T11:44:10.000Z</time>
      </trkpt>
      <trkpt lat="44.88804" lon="5.80451">
        <ele>696.865874</ele>
        <time>2025-07-10T11:44:11.000Z</time>
      </trkpt>
      <trkpt lat="44.88806" lon="5.80452">
        <ele>696.998827</ele>
        <time>2025-07-10T11:44:12.000Z</time>
      </trkpt>
      <trkpt lat="44.88807" lon="5.80453">
        <ele>697.145212</ele>
        <time>2025-07-10T11:44:13.000Z</time>
      </trkpt>
      <trkpt lat="44.8881" lon="5.80454">
        <ele>697.302234</ele>
        <time>2025-07-10T11:44:14.000Z</time>
      </trkpt>
      <trkpt lat="44.88812" lon="5.80454">
        <ele>697.458001</ele>
        <time>2025-07-10T11:44:15.000Z</time>
      </trkpt>
      <trkpt lat="44.88814" lon="5.80455">
        <ele>697.620803</ele>
        <time>2025-07-10T11:44:16.000Z</time>
      </trkpt>
      <trkpt lat="44.88816" lon="5.80455">
        <ele>697.758343</ele>
        <time>2025-07-10T11:44:17.000Z</time>
      </trkpt>
      <trkpt lat="44.88818" lon="5.80456">
        <ele>697.913015</ele>
        <time>2025-07-10T11:44:18.000Z</time>
      </trkpt>
      <trkpt lat="44.8882" lon="5.80456">
        <ele>698.068783</ele>
        <time>2025-07-10T11:44:19.000Z</time>
      </trkpt>
      <trkpt lat="44.88822" lon="5.80457">
        <ele>698.223455</ele>
        <time>2025-07-10T11:44:20.000Z</time>
      </trkpt>
      <trkpt lat="44.88824" lon="5.80457">
        <ele>698.376427</ele>
        <time>2025-07-10T11:44:21.000Z</time>
      </trkpt>
      <trkpt lat="44.88826" lon="5.80458">
        <ele>698.521618</ele>
        <time>2025-07-10T11:44:22.000Z</time>
      </trkpt>
      <trkpt lat="44.88828" lon="5.80458">
        <ele>698.661141</ele>
        <time>2025-07-10T11:44:23.000Z</time>
      </trkpt>
      <trkpt lat="44.8883" lon="5.80458">
        <ele>698.805881</ele>
        <time>2025-07-10T11:44:24.000Z</time>
      </trkpt>
      <trkpt lat="44.88832" lon="5.80459">
        <ele>698.951702</ele>
        <time>2025-07-10T11:44:25.000Z</time>
      </trkpt>
      <trkpt lat="44.88834" lon="5.80459">
        <ele>699.088862</ele>
        <time>2025-07-10T11:44:26.000Z</time>
      </trkpt>
      <trkpt lat="44.88836" lon="5.80459">
        <ele>699.219705</ele>
        <time>2025-07-10T11:44:27.000Z</time>
      </trkpt>
      <trkpt lat="44.88838" lon="5.8046">
        <ele>699.385057</ele>
        <time>2025-07-10T11:44:28.000Z</time>
      </trkpt>
      <trkpt lat="44.8884" lon="5.80461">
        <ele>699.531683</ele>
        <time>2025-07-10T11:44:29.000Z</time>
      </trkpt>
      <trkpt lat="44.88842" lon="5.80462">
        <ele>699.698531</ele>
        <time>2025-07-10T11:44:30.000Z</time>
      </trkpt>
      <trkpt lat="44.88844" lon="5.80462">
        <ele>699.855553</ele>
        <time>2025-07-10T11:44:31.000Z</time>
      </trkpt>
      <trkpt lat="44.88846" lon="5.80463">
        <ele>700.013985</ele>
        <time>2025-07-10T11:44:32.000Z</time>
      </trkpt>
      <trkpt lat="44.88848" lon="5.80464">
        <ele>700.168937</ele>
        <time>2025-07-10T11:44:33.000Z</time>
      </trkpt>
      <trkpt lat="44.88851" lon="5.80465">
        <ele>700.33429</ele>
        <time>2025-07-10T11:44:34.000Z</time>
      </trkpt>
      <trkpt lat="44.88853" lon="5.80466">
        <ele>700.474263</ele>
        <time>2025-07-10T11:44:35.000Z</time>
      </trkpt>
      <trkpt lat="44.88855" lon="5.80467">
        <ele>700.609645</ele>
        <time>2025-07-10T11:44:36.000Z</time>
      </trkpt>
      <trkpt lat="44.88857" lon="5.80468">
        <ele>700.745027</ele>
        <time>2025-07-10T11:44:37.000Z</time>
      </trkpt>
      <trkpt lat="44.88858" lon="5.80469">
        <ele>700.875804</ele>
        <time>2025-07-10T11:44:38.000Z</time>
      </trkpt>
      <trkpt lat="44.8886" lon="5.8047">
        <ele>701.014236</ele>
        <time>2025-07-10T11:44:39.000Z</time>
      </trkpt>
      <trkpt lat="44.88862" lon="5.80471">
        <ele>701.142108</ele>
        <time>2025-07-10T11:44:40.000Z</time>
      </trkpt>
      <trkpt lat="44.88864" lon="5.80472">
        <ele>701.263813</ele>
        <time>2025-07-10T11:44:41.000Z</time>
      </trkpt>
      <trkpt lat="44.88866" lon="5.80473">
        <ele>701.382591</ele>
        <time>2025-07-10T11:44:42.000Z</time>
      </trkpt>
      <trkpt lat="44.88868" lon="5.80474">
        <ele>701.507346</ele>
        <time>2025-07-10T11:44:43.000Z</time>
      </trkpt>
      <trkpt lat="44.8887" lon="5.80475">
        <ele>701.641589</ele>
        <time>2025-07-10T11:44:44.000Z</time>
      </trkpt>
      <trkpt lat="44.88871" lon="5.80476">
        <ele>701.766284</ele>
        <time>2025-07-10T11:44:45.000Z</time>
      </trkpt>
      <trkpt lat="44.88873" lon="5.80477">
        <ele>701.902457</ele>
        <time>2025-07-10T11:44:46.000Z</time>
      </trkpt>
      <trkpt lat="44.88875" lon="5.80478">
        <ele>702.01547</ele>
        <time>2025-07-10T11:44:47.000Z</time>
      </trkpt>
      <trkpt lat="44.88877" lon="5.80478">
        <ele>702.125961</ele>
        <time>2025-07-10T11:44:48.000Z</time>
      </trkpt>
      <trkpt lat="44.88878" lon="5.80479">
        <ele>702.246373</ele>
        <time>2025-07-10T11:44:49.000Z</time>
      </trkpt>
      <trkpt lat="44.8888" lon="5.8048">
        <ele>702.378816</ele>
        <time>2025-07-10T11:44:50.000Z</time>
      </trkpt>
      <trkpt lat="44.88882" lon="5.80481">
        <ele>702.5072</ele>
        <time>2025-07-10T11:44:51.000Z</time>
      </trkpt>
      <trkpt lat="44.88884" lon="5.80483">
        <ele>702.626263</ele>
        <time>2025-07-10T11:44:52.000Z</time>
      </trkpt>
      <trkpt lat="44.88885" lon="5.80483">
        <ele>702.743359</ele>
        <time>2025-07-10T11:44:53.000Z</time>
      </trkpt>
      <trkpt lat="44.88887" lon="5.80484">
        <ele>702.860455</ele>
        <time>2025-07-10T11:44:54.000Z</time>
      </trkpt>
      <trkpt lat="44.88889" lon="5.80485">
        <ele>702.974662</ele>
        <time>2025-07-10T11:44:55.000Z</time>
      </trkpt>
      <trkpt lat="44.88891" lon="5.80486">
        <ele>703.116667</ele>
        <time>2025-07-10T11:44:56.000Z</time>
      </trkpt>
      <trkpt lat="44.88893" lon="5.80488">
        <ele>703.266448</ele>
        <time>2025-07-10T11:44:57.000Z</time>
      </trkpt>
      <trkpt lat="44.88895" lon="5.80489">
        <ele>703.388154</ele>
        <time>2025-07-10T11:44:58.000Z</time>
      </trkpt>
      <trkpt lat="44.88896" lon="5.8049">
        <ele>703.512909</ele>
        <time>2025-07-10T11:44:59.000Z</time>
      </trkpt>
      <trkpt lat="44.88898" lon="5.80491">
        <ele>703.637603</ele>
        <time>2025-07-10T11:45:00.000Z</time>
      </trkpt>
      <trkpt lat="44.889" lon="5.80492">
        <ele>703.7669</ele>
        <time>2025-07-10T11:45:01.000Z</time>
      </trkpt>
      <trkpt lat="44.88901" lon="5.80494">
        <ele>703.890775</ele>
        <time>2025-07-10T11:45:02.000Z</time>
      </trkpt>
      <trkpt lat="44.88903" lon="5.80495">
        <ele>704.012031</ele>
        <time>2025-07-10T11:45:03.000Z</time>
      </trkpt>
      <trkpt lat="44.88904" lon="5.80497">
        <ele>704.120107</ele>
        <time>2025-07-10T11:45:04.000Z</time>
      </trkpt>
      <trkpt lat="44.88906" lon="5.80498">
        <ele>704.222856</ele>
        <time>2025-07-10T11:45:05.000Z</time>
      </trkpt>
      <trkpt lat="44.88907" lon="5.805">
        <ele>704.352153</ele>
        <time>2025-07-10T11:45:06.000Z</time>
      </trkpt>
      <trkpt lat="44.88909" lon="5.80501">
        <ele>704.476028</ele>
        <time>2025-07-10T11:45:07.000Z</time>
      </trkpt>
      <trkpt lat="44.88911" lon="5.80502">
        <ele>704.595091</ele>
        <time>2025-07-10T11:45:08.000Z</time>
      </trkpt>
      <trkpt lat="44.88912" lon="5.80504">
        <ele>704.70861</ele>
        <time>2025-07-10T11:45:09.000Z</time>
      </trkpt>
      <trkpt lat="44.88914" lon="5.80505">
        <ele>704.827388</ele>
        <time>2025-07-10T11:45:10.000Z</time>
      </trkpt>
      <trkpt lat="44.88916" lon="5.80506">
        <ele>704.950543</ele>
        <time>2025-07-10T11:45:11.000Z</time>
      </trkpt>
      <trkpt lat="44.88917" lon="5.80507">
        <ele>705.061739</ele>
        <time>2025-07-10T11:45:12.000Z</time>
      </trkpt>
      <trkpt lat="44.88919" lon="5.80508">
        <ele>705.180516</ele>
        <time>2025-07-10T11:45:13.000Z</time>
      </trkpt>
      <trkpt lat="44.8892" lon="5.80509">
        <ele>705.291597</ele>
        <time>2025-07-10T11:45:14.000Z</time>
      </trkpt>
      <trkpt lat="44.88922" lon="5.8051">
        <ele>705.41066</ele>
        <time>2025-07-10T11:45:15.000Z</time>
      </trkpt>
      <trkpt lat="44.88923" lon="5.80511">
        <ele>705.517646</ele>
        <time>2025-07-10T11:45:16.000Z</time>
      </trkpt>
      <trkpt lat="44.88925" lon="5.80512">
        <ele>705.630498</ele>
        <time>2025-07-10T11:45:17.000Z</time>
      </trkpt>
      <trkpt lat="44.88927" lon="5.80513">
        <ele>705.755191</ele>
        <time>2025-07-10T11:45:18.000Z</time>
      </trkpt>
      <trkpt lat="44.88928" lon="5.80515">
        <ele>705.876598</ele>
        <time>2025-07-10T11:45:19.000Z</time>
      </trkpt>
      <trkpt lat="44.8893" lon="5.80516">
        <ele>705.993449</ele>
        <time>2025-07-10T11:45:20.000Z</time>
      </trkpt>
      <trkpt lat="44.88932" lon="5.80517">
        <ele>706.125993</ele>
        <time>2025-07-10T11:45:21.000Z</time>
      </trkpt>
      <trkpt lat="44.88933" lon="5.80519">
        <ele>706.252927</ele>
        <time>2025-07-10T11:45:22.000Z</time>
      </trkpt>
      <trkpt lat="44.88935" lon="5.8052">
        <ele>706.37551</ele>
        <time>2025-07-10T11:45:23.000Z</time>
      </trkpt>
      <trkpt lat="44.88937" lon="5.80521">
        <ele>706.486163</ele>
        <time>2025-07-10T11:45:24.000Z</time>
      </trkpt>
      <trkpt lat="44.88938" lon="5.80523">
        <ele>706.60757</ele>
        <time>2025-07-10T11:45:25.000Z</time>
      </trkpt>
      <trkpt lat="44.8894" lon="5.80524">
        <ele>706.728178</ele>
        <time>2025-07-10T11:45:26.000Z</time>
      </trkpt>
      <trkpt lat="44.88942" lon="5.80525">
        <ele>706.850761</ele>
        <time>2025-07-10T11:45:27.000Z</time>
      </trkpt>
      <trkpt lat="44.88943" lon="5.80526">
        <ele>706.979145</ele>
        <time>2025-07-10T11:45:28.000Z</time>
      </trkpt>
      <trkpt lat="44.88945" lon="5.80527">
        <ele>707.103839</ele>
        <time>2025-07-10T11:45:29.000Z</time>
      </trkpt>
      <trkpt lat="44.88947" lon="5.80529">
        <ele>707.225245</ele>
        <time>2025-07-10T11:45:30.000Z</time>
      </trkpt>
      <trkpt lat="44.88948" lon="5.8053">
        <ele>707.343802</ele>
        <time>2025-07-10T11:45:31.000Z</time>
      </trkpt>
      <trkpt lat="44.8895" lon="5.80532">
        <ele>707.454998</ele>
        <time>2025-07-10T11:45:32.000Z</time>
      </trkpt>
      <trkpt lat="44.88951" lon="5.80533">
        <ele>707.571849</ele>
        <time>2025-07-10T11:45:33.000Z</time>
      </trkpt>
      <trkpt lat="44.88953" lon="5.80534">
        <ele>707.706092</ele>
        <time>2025-07-10T11:45:34.000Z</time>
      </trkpt>
      <trkpt lat="44.88955" lon="5.80535">
        <ele>707.840336</ele>
        <time>2025-07-10T11:45:35.000Z</time>
      </trkpt>
      <trkpt lat="44.88957" lon="5.80536">
        <ele>707.957186</ele>
        <time>2025-07-10T11:45:36.000Z</time>
      </trkpt>
      <trkpt lat="44.88958" lon="5.80538">
        <ele>708.078593</ele>
        <time>2025-07-10T11:45:37.000Z</time>
      </trkpt>
      <trkpt lat="44.8896" lon="5.80539">
        <ele>708.207748</ele>
        <time>2025-07-10T11:45:38.000Z</time>
      </trkpt>
      <trkpt lat="44.88962" lon="5.80541">
        <ele>708.345976</ele>
        <time>2025-07-10T11:45:39.000Z</time>
      </trkpt>
      <trkpt lat="44.88964" lon="5.80542">
        <ele>708.470731</ele>
        <time>2025-07-10T11:45:40.000Z</time>
      </trkpt>
      <trkpt lat="44.88965" lon="5.80543">
        <ele>708.59723</ele>
        <time>2025-07-10T11:45:41.000Z</time>
      </trkpt>
      <trkpt lat="44.88967" lon="5.80544">
        <ele>708.729673</ele>
        <time>2025-07-10T11:45:42.000Z</time>
      </trkpt>
      <trkpt lat="44.88969" lon="5.80545">
        <ele>708.865055</ele>
        <time>2025-07-10T11:45:43.000Z</time>
      </trkpt>
      <trkpt lat="44.88971" lon="5.80546">
        <ele>709.004214</ele>
        <time>2025-07-10T11:45:44.000Z</time>
      </trkpt>
      <trkpt lat="44.88973" lon="5.80546">
        <ele>709.143374</ele>
        <time>2025-07-10T11:45:45.000Z</time>
      </trkpt>
      <trkpt lat="44.88976" lon="5.80547">
        <ele>709.287882</ele>
        <time>2025-07-10T11:45:46.000Z</time>
      </trkpt>
      <trkpt lat="44.88978" lon="5.80547">
        <ele>709.436847</ele>
        <time>2025-07-10T11:45:47.000Z</time>
      </trkpt>
      <trkpt lat="44.8898" lon="5.80547">
        <ele>709.579025</ele>
        <time>2025-07-10T11:45:48.000Z</time>
      </trkpt>
      <trkpt lat="44.88982" lon="5.80548">
        <ele>709.727639</ele>
        <time>2025-07-10T11:45:49.000Z</time>
      </trkpt>
      <trkpt lat="44.88985" lon="5.80547">
        <ele>709.87772</ele>
        <time>2025-07-10T11:45:50.000Z</time>
      </trkpt>
      <trkpt lat="44.88987" lon="5.80547">
        <ele>710.027175</ele>
        <time>2025-07-10T11:45:51.000Z</time>
      </trkpt>
      <trkpt lat="44.88989" lon="5.80546">
        <ele>710.157449</ele>
        <time>2025-07-10T11:45:52.000Z</time>
      </trkpt>
      <trkpt lat="44.88991" lon="5.80546">
        <ele>710.293191</ele>
        <time>2025-07-10T11:45:53.000Z</time>
      </trkpt>
      <trkpt lat="44.88993" lon="5.80546">
        <ele>710.429317</ele>
        <time>2025-07-10T11:45:54.000Z</time>
      </trkpt>
      <trkpt lat="44.88995" lon="5.80545">
        <ele>710.565979</ele>
        <time>2025-07-10T11:45:55.000Z</time>
      </trkpt>
      <trkpt lat="44.88998" lon="5.80545">
        <ele>710.710487</ele>
        <time>2025-07-10T11:45:56.000Z</time>
      </trkpt>
      <trkpt lat="44.89" lon="5.80544">
        <ele>710.865697</ele>
        <time>2025-07-10T11:45:57.000Z</time>
      </trkpt>
      <trkpt lat="44.89002" lon="5.80543">
        <ele>711.022314</ele>
        <time>2025-07-10T11:45:58.000Z</time>
      </trkpt>
      <trkpt lat="44.89004" lon="5.80542">
        <ele>711.157695</ele>
        <time>2025-07-10T11:45:59.000Z</time>
      </trkpt>
      <trkpt lat="44.89006" lon="5.80541">
        <ele>711.309437</ele>
        <time>2025-07-10T11:46:00.000Z</time>
      </trkpt>
      <trkpt lat="44.89009" lon="5.8054">
        <ele>711.455954</ele>
        <time>2025-07-10T11:46:01.000Z</time>
      </trkpt>
      <trkpt lat="44.89011" lon="5.8054">
        <ele>711.596234</ele>
        <time>2025-07-10T11:46:02.000Z</time>
      </trkpt>
      <trkpt lat="44.89013" lon="5.80539">
        <ele>711.740742</ele>
        <time>2025-07-10T11:46:03.000Z</time>
      </trkpt>
      <trkpt lat="44.89015" lon="5.80538">
        <ele>711.886185</ele>
        <time>2025-07-10T11:46:04.000Z</time>
      </trkpt>
      <trkpt lat="44.89017" lon="5.80537">
        <ele>712.040367</ele>
        <time>2025-07-10T11:46:05.000Z</time>
      </trkpt>
      <trkpt lat="44.8902" lon="5.80536">
        <ele>712.188583</ele>
        <time>2025-07-10T11:46:06.000Z</time>
      </trkpt>
      <trkpt lat="44.89022" lon="5.80534">
        <ele>712.324072</ele>
        <time>2025-07-10T11:46:07.000Z</time>
      </trkpt>
      <trkpt lat="44.89024" lon="5.80533">
        <ele>712.452293</ele>
        <time>2025-07-10T11:46:08.000Z</time>
      </trkpt>
      <trkpt lat="44.89025" lon="5.80532">
        <ele>712.571382</ele>
        <time>2025-07-10T11:46:09.000Z</time>
      </trkpt>
      <trkpt lat="44.89027" lon="5.80531">
        <ele>712.688724</ele>
        <time>2025-07-10T11:46:10.000Z</time>
      </trkpt>
      <trkpt lat="44.89029" lon="5.8053">
        <ele>712.821311</ele>
        <time>2025-07-10T11:46:11.000Z</time>
      </trkpt>
      <trkpt lat="44.89031" lon="5.80528">
        <ele>712.949721</ele>
        <time>2025-07-10T11:46:12.000Z</time>
      </trkpt>
      <trkpt lat="44.89033" lon="5.80527">
        <ele>713.07973</ele>
        <time>2025-07-10T11:46:13.000Z</time>
      </trkpt>
      <trkpt lat="44.89036" lon="5.80526">
        <ele>713.227946</ele>
        <time>2025-07-10T11:46:14.000Z</time>
      </trkpt>
      <trkpt lat="44.89038" lon="5.80525">
        <ele>713.366883</ele>
        <time>2025-07-10T11:46:15.000Z</time>
      </trkpt>
      <trkpt lat="44.8904" lon="5.80523">
        <ele>713.511253</ele>
        <time>2025-07-10T11:46:16.000Z</time>
      </trkpt>
      <trkpt lat="44.89042" lon="5.80522">
        <ele>713.641262</ele>
        <time>2025-07-10T11:46:17.000Z</time>
      </trkpt>
      <trkpt lat="44.89044" lon="5.80521">
        <ele>713.77127</ele>
        <time>2025-07-10T11:46:18.000Z</time>
      </trkpt>
      <trkpt lat="44.89046" lon="5.80519">
        <ele>713.908799</ele>
        <time>2025-07-10T11:46:19.000Z</time>
      </trkpt>
      <trkpt lat="44.89048" lon="5.80518">
        <ele>714.051562</ele>
        <time>2025-07-10T11:46:20.000Z</time>
      </trkpt>
      <trkpt lat="44.8905" lon="5.80516">
        <ele>714.186139</ele>
        <time>2025-07-10T11:46:21.000Z</time>
      </trkpt>
      <trkpt lat="44.89052" lon="5.80514">
        <ele>714.310776</ele>
        <time>2025-07-10T11:46:22.000Z</time>
      </trkpt>
      <trkpt lat="44.89053" lon="5.80512">
        <ele>714.428557</ele>
        <time>2025-07-10T11:46:23.000Z</time>
      </trkpt>
      <trkpt lat="44.89055" lon="5.80511">
        <ele>714.565451</ele>
        <time>2025-07-10T11:46:24.000Z</time>
      </trkpt>
      <trkpt lat="44.89057" lon="5.80509">
        <ele>714.695172</ele>
        <time>2025-07-10T11:46:25.000Z</time>
      </trkpt>
      <trkpt lat="44.89059" lon="5.80506">
        <ele>714.837613</ele>
        <time>2025-07-10T11:46:26.000Z</time>
      </trkpt>
      <trkpt lat="44.8906" lon="5.80504">
        <ele>714.969375</ele>
        <time>2025-07-10T11:46:27.000Z</time>
      </trkpt>
      <trkpt lat="44.89062" lon="5.80502">
        <ele>715.111167</ele>
        <time>2025-07-10T11:46:28.000Z</time>
      </trkpt>
      <trkpt lat="44.89064" lon="5.805">
        <ele>715.24821</ele>
        <time>2025-07-10T11:46:29.000Z</time>
      </trkpt>
      <trkpt lat="44.89066" lon="5.80498">
        <ele>715.387877</ele>
        <time>2025-07-10T11:46:30.000Z</time>
      </trkpt>
      <trkpt lat="44.89067" lon="5.80497">
        <ele>715.515133</ele>
        <time>2025-07-10T11:46:31.000Z</time>
      </trkpt>
      <trkpt lat="44.89069" lon="5.80495">
        <ele>715.642266</ele>
        <time>2025-07-10T11:46:32.000Z</time>
      </trkpt>
      <trkpt lat="44.89071" lon="5.80493">
        <ele>715.784058</ele>
        <time>2025-07-10T11:46:33.000Z</time>
      </trkpt>
      <trkpt lat="44.89072" lon="5.80491">
        <ele>715.912576</ele>
        <time>2025-07-10T11:46:34.000Z</time>
      </trkpt>
      <trkpt lat="44.89074" lon="5.80489">
        <ele>716.054368</ele>
        <time>2025-07-10T11:46:35.000Z</time>
      </trkpt>
      <trkpt lat="44.89076" lon="5.80486">
        <ele>716.190985</ele>
        <time>2025-07-10T11:46:36.000Z</time>
      </trkpt>
      <trkpt lat="44.89078" lon="5.80485">
        <ele>716.318118</ele>
        <time>2025-07-10T11:46:37.000Z</time>
      </trkpt>
      <trkpt lat="44.8908" lon="5.80483">
        <ele>716.457785</ele>
        <time>2025-07-10T11:46:38.000Z</time>
      </trkpt>
      <trkpt lat="44.89081" lon="5.80481">
        <ele>716.584173</ele>
        <time>2025-07-10T11:46:39.000Z</time>
      </trkpt>
      <trkpt lat="44.89083" lon="5.80479">
        <ele>716.713581</ele>
        <time>2025-07-10T11:46:40.000Z</time>
      </trkpt>
      <trkpt lat="44.89084" lon="5.80476">
        <ele>716.854455</ele>
        <time>2025-07-10T11:46:41.000Z</time>
      </trkpt>
      <trkpt lat="44.89086" lon="5.80474">
        <ele>716.98231</ele>
        <time>2025-07-10T11:46:42.000Z</time>
      </trkpt>
      <trkpt lat="44.89088" lon="5.80473">
        <ele>717.104545</ele>
        <time>2025-07-10T11:46:43.000Z</time>
      </trkpt>
      <trkpt lat="44.8909" lon="5.80471">
        <ele>717.245345</ele>
        <time>2025-07-10T11:46:44.000Z</time>
      </trkpt>
      <trkpt lat="44.89092" lon="5.80469">
        <ele>717.390169</ele>
        <time>2025-07-10T11:46:45.000Z</time>
      </trkpt>
      <trkpt lat="44.89094" lon="5.80468">
        <ele>717.527697</ele>
        <time>2025-07-10T11:46:46.000Z</time>
      </trkpt>
      <trkpt lat="44.89096" lon="5.80466">
        <ele>717.652746</ele>
        <time>2025-07-10T11:46:47.000Z</time>
      </trkpt>
      <trkpt lat="44.89097" lon="5.80465">
        <ele>717.770051</ele>
        <time>2025-07-10T11:46:48.000Z</time>
      </trkpt>
      <trkpt lat="44.89099" lon="5.80463">
        <ele>717.892286</ele>
        <time>2025-07-10T11:46:49.000Z</time>
      </trkpt>
      <trkpt lat="44.89101" lon="5.80462">
        <ele>718.02782</ele>
        <time>2025-07-10T11:46:50.000Z</time>
      </trkpt>
      <trkpt lat="44.89103" lon="5.80461">
        <ele>718.165001</ele>
        <time>2025-07-10T11:46:51.000Z</time>
      </trkpt>
      <trkpt lat="44.89105" lon="5.80459">
        <ele>718.273392</ele>
        <time>2025-07-10T11:46:52.000Z</time>
      </trkpt>
      <trkpt lat="44.89106" lon="5.80458">
        <ele>718.37986</ele>
        <time>2025-07-10T11:46:53.000Z</time>
      </trkpt>
      <trkpt lat="44.89108" lon="5.80458">
        <ele>718.503131</ele>
        <time>2025-07-10T11:46:54.000Z</time>
      </trkpt>
      <trkpt lat="44.89111" lon="5.80457">
        <ele>718.63904</ele>
        <time>2025-07-10T11:46:55.000Z</time>
      </trkpt>
      <trkpt lat="44.89113" lon="5.80456">
        <ele>718.788742</ele>
        <time>2025-07-10T11:46:56.000Z</time>
      </trkpt>
      <trkpt lat="44.89115" lon="5.80455">
        <ele>718.920035</ele>
        <time>2025-07-10T11:46:57.000Z</time>
      </trkpt>
      <trkpt lat="44.89117" lon="5.80454">
        <ele>719.03865</ele>
        <time>2025-07-10T11:46:58.000Z</time>
      </trkpt>
      <trkpt lat="44.89119" lon="5.80453">
        <ele>719.180361</ele>
        <time>2025-07-10T11:46:59.000Z</time>
      </trkpt>
      <trkpt lat="44.89121" lon="5.80453">
        <ele>719.31627</ele>
        <time>2025-07-10T11:47:00.000Z</time>
      </trkpt>
      <trkpt lat="44.89124" lon="5.80452">
        <ele>719.443675</ele>
        <time>2025-07-10T11:47:01.000Z</time>
      </trkpt>
      <trkpt lat="44.89126" lon="5.80452">
        <ele>719.569376</ele>
        <time>2025-07-10T11:47:02.000Z</time>
      </trkpt>
      <trkpt lat="44.89128" lon="5.80452">
        <ele>719.707037</ele>
        <time>2025-07-10T11:47:03.000Z</time>
      </trkpt>
      <trkpt lat="44.8913" lon="5.80452">
        <ele>719.850864</ele>
        <time>2025-07-10T11:47:04.000Z</time>
      </trkpt>
      <trkpt lat="44.89133" lon="5.80452">
        <ele>719.995003</ele>
        <time>2025-07-10T11:47:05.000Z</time>
      </trkpt>
      <trkpt lat="44.89135" lon="5.80453">
        <ele>720.14935</ele>
        <time>2025-07-10T11:47:06.000Z</time>
      </trkpt>
      <trkpt lat="44.89137" lon="5.80454">
        <ele>720.281575</ele>
        <time>2025-07-10T11:47:07.000Z</time>
      </trkpt>
      <trkpt lat="44.8914" lon="5.80454">
        <ele>720.407277</ele>
        <time>2025-07-10T11:47:08.000Z</time>
      </trkpt>
      <trkpt lat="44.89142" lon="5.80454">
        <ele>720.534682</ele>
        <time>2025-07-10T11:47:09.000Z</time>
      </trkpt>
      <trkpt lat="44.89144" lon="5.80455">
        <ele>720.688036</ele>
        <time>2025-07-10T11:47:10.000Z</time>
      </trkpt>
      <trkpt lat="44.89147" lon="5.80456">
        <ele>720.838993</ele>
        <time>2025-07-10T11:47:11.000Z</time>
      </trkpt>
      <trkpt lat="44.89149" lon="5.80457">
        <ele>720.964573</ele>
        <time>2025-07-10T11:47:12.000Z</time>
      </trkpt>
      <trkpt lat="44.89151" lon="5.80458">
        <ele>721.091506</ele>
        <time>2025-07-10T11:47:13.000Z</time>
      </trkpt>
      <trkpt lat="44.89153" lon="5.80459">
        <ele>721.217086</ele>
        <time>2025-07-10T11:47:14.000Z</time>
      </trkpt>
      <trkpt lat="44.89155" lon="5.8046">
        <ele>721.379597</ele>
        <time>2025-07-10T11:47:15.000Z</time>
      </trkpt>
      <trkpt lat="44.89157" lon="5.80461">
        <ele>721.496072</ele>
        <time>2025-07-10T11:47:16.000Z</time>
      </trkpt>
      <trkpt lat="44.89159" lon="5.80462">
        <ele>721.610311</ele>
        <time>2025-07-10T11:47:17.000Z</time>
      </trkpt>
      <trkpt lat="44.89161" lon="5.80463">
        <ele>721.73162</ele>
        <time>2025-07-10T11:47:18.000Z</time>
      </trkpt>
      <trkpt lat="44.89163" lon="5.80464">
        <ele>721.862913</ele>
        <time>2025-07-10T11:47:19.000Z</time>
      </trkpt>
      <trkpt lat="44.89165" lon="5.80465">
        <ele>721.989845</ele>
        <time>2025-07-10T11:47:20.000Z</time>
      </trkpt>
      <trkpt lat="44.89167" lon="5.80466">
        <ele>722.1127</ele>
        <time>2025-07-10T11:47:21.000Z</time>
      </trkpt>
      <trkpt lat="44.89169" lon="5.80467">
        <ele>722.260226</ele>
        <time>2025-07-10T11:47:22.000Z</time>
      </trkpt>
      <trkpt lat="44.89171" lon="5.80467">
        <ele>722.37585</ele>
        <time>2025-07-10T11:47:23.000Z</time>
      </trkpt>
      <trkpt lat="44.89173" lon="5.80469">
        <ele>722.516649</ele>
        <time>2025-07-10T11:47:24.000Z</time>
      </trkpt>
      <trkpt lat="44.89175" lon="5.8047">
        <ele>722.645058</ele>
        <time>2025-07-10T11:47:25.000Z</time>
      </trkpt>
      <trkpt lat="44.89177" lon="5.80471">
        <ele>722.76426</ele>
        <time>2025-07-10T11:47:26.000Z</time>
      </trkpt>
      <trkpt lat="44.89178" lon="5.80473">
        <ele>722.869409</ele>
        <time>2025-07-10T11:47:27.000Z</time>
      </trkpt>
      <trkpt lat="44.8918" lon="5.80475">
        <ele>722.985903</ele>
        <time>2025-07-10T11:47:28.000Z</time>
      </trkpt>
      <trkpt lat="44.89182" lon="5.80476">
        <ele>723.104918</ele>
        <time>2025-07-10T11:47:29.000Z</time>
      </trkpt>
      <trkpt lat="44.89183" lon="5.80478">
        <ele>723.233001</ele>
        <time>2025-07-10T11:47:30.000Z</time>
      </trkpt>
      <trkpt lat="44.89185" lon="5.8048">
        <ele>723.363431</ele>
        <time>2025-07-10T11:47:31.000Z</time>
      </trkpt>
      <trkpt lat="44.89187" lon="5.80482">
        <ele>723.480915</ele>
        <time>2025-07-10T11:47:32.000Z</time>
      </trkpt>
      <trkpt lat="44.89188" lon="5.80484">
        <ele>723.592559</ele>
        <time>2025-07-10T11:47:33.000Z</time>
      </trkpt>
      <trkpt lat="44.8919" lon="5.80485">
        <ele>723.699608</ele>
        <time>2025-07-10T11:47:34.000Z</time>
      </trkpt>
      <trkpt lat="44.89192" lon="5.80487">
        <ele>723.827582</ele>
        <time>2025-07-10T11:47:35.000Z</time>
      </trkpt>
      <trkpt lat="44.89193" lon="5.8049">
        <ele>723.977131</ele>
        <time>2025-07-10T11:47:36.000Z</time>
      </trkpt>
      <trkpt lat="44.89195" lon="5.80492">
        <ele>724.109279</ele>
        <time>2025-07-10T11:47:37.000Z</time>
      </trkpt>
      <trkpt lat="44.89196" lon="5.80495">
        <ele>724.247519</ele>
        <time>2025-07-10T11:47:38.000Z</time>
      </trkpt>
      <trkpt lat="44.89198" lon="5.80498">
        <ele>724.382987</ele>
        <time>2025-07-10T11:47:39.000Z</time>
      </trkpt>
      <trkpt lat="44.89199" lon="5.80501">
        <ele>724.531782</ele>
        <time>2025-07-10T11:47:40.000Z</time>
      </trkpt>
      <trkpt lat="44.892" lon="5.80504">
        <ele>724.686935</ele>
        <time>2025-07-10T11:47:41.000Z</time>
      </trkpt>
      <trkpt lat="44.89202" lon="5.80507">
        <ele>724.831772</ele>
        <time>2025-07-10T11:47:42.000Z</time>
      </trkpt>
      <trkpt lat="44.89203" lon="5.8051">
        <ele>724.957872</ele>
        <time>2025-07-10T11:47:43.000Z</time>
      </trkpt>
      <trkpt lat="44.89204" lon="5.80512">
        <ele>725.060004</ele>
        <time>2025-07-10T11:47:44.000Z</time>
      </trkpt>
      <trkpt lat="44.89205" lon="5.80514">
        <ele>725.186486</ele>
        <time>2025-07-10T11:47:45.000Z</time>
      </trkpt>
      <trkpt lat="44.89206" lon="5.80518">
        <ele>725.323883</ele>
        <time>2025-07-10T11:47:46.000Z</time>
      </trkpt>
      <trkpt lat="44.89207" lon="5.80521">
        <ele>725.461279</ele>
        <time>2025-07-10T11:47:47.000Z</time>
      </trkpt>
      <trkpt lat="44.89208" lon="5.80523">
        <ele>725.581641</ele>
        <time>2025-07-10T11:47:48.000Z</time>
      </trkpt>
      <trkpt lat="44.89209" lon="5.80527">
        <ele>725.716732</ele>
        <time>2025-07-10T11:47:49.000Z</time>
      </trkpt>
      <trkpt lat="44.8921" lon="5.8053">
        <ele>725.85955</ele>
        <time>2025-07-10T11:47:50.000Z</time>
      </trkpt>
      <trkpt lat="44.89211" lon="5.80533">
        <ele>725.996946</ele>
        <time>2025-07-10T11:47:51.000Z</time>
      </trkpt>
      <trkpt lat="44.89212" lon="5.80536">
        <ele>726.124654</ele>
        <time>2025-07-10T11:47:52.000Z</time>
      </trkpt>
      <trkpt lat="44.89212" lon="5.80539">
        <ele>726.253953</ele>
        <time>2025-07-10T11:47:53.000Z</time>
      </trkpt>
      <trkpt lat="44.89213" lon="5.80542">
        <ele>726.396587</ele>
        <time>2025-07-10T11:47:54.000Z</time>
      </trkpt>
      <trkpt lat="44.89214" lon="5.80546">
        <ele>726.537275</ele>
        <time>2025-07-10T11:47:55.000Z</time>
      </trkpt>
      <trkpt lat="44.89215" lon="5.80549">
        <ele>726.6747</ele>
        <time>2025-07-10T11:47:56.000Z</time>
      </trkpt>
      <trkpt lat="44.89215" lon="5.80552">
        <ele>726.796481</ele>
        <time>2025-07-10T11:47:57.000Z</time>
      </trkpt>
      <trkpt lat="44.89216" lon="5.80555">
        <ele>726.920061</ele>
        <time>2025-07-10T11:47:58.000Z</time>
      </trkpt>
      <trkpt lat="44.89217" lon="5.80557">
        <ele>727.032629</ele>
        <time>2025-07-10T11:47:59.000Z</time>
      </trkpt>
      <trkpt lat="44.89217" lon="5.8056">
        <ele>727.152397</ele>
        <time>2025-07-10T11:48:00.000Z</time>
      </trkpt>
      <trkpt lat="44.89218" lon="5.80563">
        <ele>727.268872</ele>
        <time>2025-07-10T11:48:01.000Z</time>
      </trkpt>
      <trkpt lat="44.89218" lon="5.80566">
        <ele>727.383013</ele>
        <time>2025-07-10T11:48:02.000Z</time>
      </trkpt>
      <trkpt lat="44.89219" lon="5.80569">
        <ele>727.516095</ele>
        <time>2025-07-10T11:48:03.000Z</time>
      </trkpt>
      <trkpt lat="44.8922" lon="5.80571">
        <ele>727.628288</ele>
        <time>2025-07-10T11:48:04.000Z</time>
      </trkpt>
      <trkpt lat="44.89221" lon="5.80574">
        <ele>727.752311</ele>
        <time>2025-07-10T11:48:05.000Z</time>
      </trkpt>
      <trkpt lat="44.89222" lon="5.80576">
        <ele>727.864307</ele>
        <time>2025-07-10T11:48:06.000Z</time>
      </trkpt>
      <trkpt lat="44.89223" lon="5.80579">
        <ele>727.986116</ele>
        <time>2025-07-10T11:48:07.000Z</time>
      </trkpt>
      <trkpt lat="44.89225" lon="5.80582">
        <ele>728.127669</ele>
        <time>2025-07-10T11:48:08.000Z</time>
      </trkpt>
      <trkpt lat="44.89226" lon="5.80584">
        <ele>728.256815</ele>
        <time>2025-07-10T11:48:09.000Z</time>
      </trkpt>
      <trkpt lat="44.89227" lon="5.80587">
        <ele>728.379709</ele>
        <time>2025-07-10T11:48:10.000Z</time>
      </trkpt>
      <trkpt lat="44.89228" lon="5.8059">
        <ele>728.527974</ele>
        <time>2025-07-10T11:48:11.000Z</time>
      </trkpt>
      <trkpt lat="44.8923" lon="5.80593">
        <ele>728.656516</ele>
        <time>2025-07-10T11:48:12.000Z</time>
      </trkpt>
      <trkpt lat="44.89231" lon="5.80595">
        <ele>728.804781</ele>
        <time>2025-07-10T11:48:13.000Z</time>
      </trkpt>
      <trkpt lat="44.89233" lon="5.80598">
        <ele>728.937713</ele>
        <time>2025-07-10T11:48:14.000Z</time>
      </trkpt>
      <trkpt lat="44.89235" lon="5.806">
        <ele>729.074609</ele>
        <time>2025-07-10T11:48:15.000Z</time>
      </trkpt>
      <trkpt lat="44.89237" lon="5.80603">
        <ele>729.224072</ele>
        <time>2025-07-10T11:48:16.000Z</time>
      </trkpt>
      <trkpt lat="44.89239" lon="5.80605">
        <ele>729.366586</ele>
        <time>2025-07-10T11:48:17.000Z</time>
      </trkpt>
      <trkpt lat="44.8924" lon="5.80607">
        <ele>729.506507</ele>
        <time>2025-07-10T11:48:18.000Z</time>
      </trkpt>
      <trkpt lat="44.89242" lon="5.80609">
        <ele>729.644748</ele>
        <time>2025-07-10T11:48:19.000Z</time>
      </trkpt>
      <trkpt lat="44.89244" lon="5.80612">
        <ele>729.79163</ele>
        <time>2025-07-10T11:48:20.000Z</time>
      </trkpt>
      <trkpt lat="44.89246" lon="5.80614">
        <ele>729.935999</ele>
        <time>2025-07-10T11:48:21.000Z</time>
      </trkpt>
      <trkpt lat="44.89248" lon="5.80616">
        <ele>730.077924</ele>
        <time>2025-07-10T11:48:22.000Z</time>
      </trkpt>
      <trkpt lat="44.8925" lon="5.80618">
        <ele>730.217478</ele>
        <time>2025-07-10T11:48:23.000Z</time>
      </trkpt>
      <trkpt lat="44.89252" lon="5.8062">
        <ele>730.35253</ele>
        <time>2025-07-10T11:48:24.000Z</time>
      </trkpt>
      <trkpt lat="44.89254" lon="5.80621">
        <ele>730.473645</ele>
        <time>2025-07-10T11:48:25.000Z</time>
      </trkpt>
      <trkpt lat="44.89256" lon="5.80623">
        <ele>730.606222</ele>
        <time>2025-07-10T11:48:26.000Z</time>
      </trkpt>
      <trkpt lat="44.89258" lon="5.80626">
        <ele>730.755123</ele>
        <time>2025-07-10T11:48:27.000Z</time>
      </trkpt>
      <trkpt lat="44.8926" lon="5.80628">
        <ele>730.895044</ele>
        <time>2025-07-10T11:48:28.000Z</time>
      </trkpt>
      <trkpt lat="44.89262" lon="5.8063">
        <ele>731.039412</ele>
        <time>2025-07-10T11:48:29.000Z</time>
      </trkpt>
      <trkpt lat="44.89264" lon="5.80632">
        <ele>731.186295</ele>
        <time>2025-07-10T11:48:30.000Z</time>
      </trkpt>
      <trkpt lat="44.89266" lon="5.80634">
        <ele>731.325849</ele>
        <time>2025-07-10T11:48:31.000Z</time>
      </trkpt>
      <trkpt lat="44.89268" lon="5.80636">
        <ele>731.46577</ele>
        <time>2025-07-10T11:48:32.000Z</time>
      </trkpt>
      <trkpt lat="44.8927" lon="5.80639">
        <ele>731.605691</ele>
        <time>2025-07-10T11:48:33.000Z</time>
      </trkpt>
      <trkpt lat="44.89272" lon="5.80641">
        <ele>731.74064</ele>
        <time>2025-07-10T11:48:34.000Z</time>
      </trkpt>
      <trkpt lat="44.89274" lon="5.80642">
        <ele>731.868723</ele>
        <time>2025-07-10T11:48:35.000Z</time>
      </trkpt>
      <trkpt lat="44.89275" lon="5.80644">
        <ele>731.992034</ele>
        <time>2025-07-10T11:48:36.000Z</time>
      </trkpt>
      <trkpt lat="44.89277" lon="5.80646">
        <ele>732.106182</ele>
        <time>2025-07-10T11:48:37.000Z</time>
      </trkpt>
      <trkpt lat="44.89279" lon="5.80647">
        <ele>732.227297</ele>
        <time>2025-07-10T11:48:38.000Z</time>
      </trkpt>
      <trkpt lat="44.89281" lon="5.80649">
        <ele>732.367183</ele>
        <time>2025-07-10T11:48:39.000Z</time>
      </trkpt>
      <trkpt lat="44.89283" lon="5.80651">
        <ele>732.511966</ele>
        <time>2025-07-10T11:48:40.000Z</time>
      </trkpt>
      <trkpt lat="44.89285" lon="5.80653">
        <ele>732.653988</ele>
        <time>2025-07-10T11:48:41.000Z</time>
      </trkpt>
      <trkpt lat="44.89287" lon="5.80655">
        <ele>732.796009</ele>
        <time>2025-07-10T11:48:42.000Z</time>
      </trkpt>
      <trkpt lat="44.89289" lon="5.80656">
        <ele>732.931061</ele>
        <time>2025-07-10T11:48:43.000Z</time>
      </trkpt>
      <trkpt lat="44.89291" lon="5.80658">
        <ele>733.051891</ele>
        <time>2025-07-10T11:48:44.000Z</time>
      </trkpt>
      <trkpt lat="44.89293" lon="5.80661">
        <ele>733.167835</ele>
        <time>2025-07-10T11:48:45.000Z</time>
      </trkpt>
      <trkpt lat="44.89295" lon="5.80663">
        <ele>733.285187</ele>
        <time>2025-07-10T11:48:46.000Z</time>
      </trkpt>
      <trkpt lat="44.89297" lon="5.80664">
        <ele>733.396674</ele>
        <time>2025-07-10T11:48:47.000Z</time>
      </trkpt>
      <trkpt lat="44.89299" lon="5.80666">
        <ele>733.513998</ele>
        <time>2025-07-10T11:48:48.000Z</time>
      </trkpt>
      <trkpt lat="44.89301" lon="5.80668">
        <ele>733.623389</ele>
        <time>2025-07-10T11:48:49.000Z</time>
      </trkpt>
      <trkpt lat="44.89303" lon="5.8067">
        <ele>733.734583</ele>
        <time>2025-07-10T11:48:50.000Z</time>
      </trkpt>
      <trkpt lat="44.89305" lon="5.80672">
        <ele>733.846069</ele>
        <time>2025-07-10T11:48:51.000Z</time>
      </trkpt>
      <trkpt lat="44.89306" lon="5.80673">
        <ele>733.941806</ele>
        <time>2025-07-10T11:48:52.000Z</time>
      </trkpt>
      <trkpt lat="44.89308" lon="5.80675">
        <ele>734.041295</ele>
        <time>2025-07-10T11:48:53.000Z</time>
      </trkpt>
      <trkpt lat="44.8931" lon="5.80677">
        <ele>734.137537</ele>
        <time>2025-07-10T11:48:54.000Z</time>
      </trkpt>
      <trkpt lat="44.89312" lon="5.80679">
        <ele>734.243188</ele>
        <time>2025-07-10T11:48:55.000Z</time>
      </trkpt>
      <trkpt lat="44.89313" lon="5.8068">
        <ele>734.344018</ele>
        <time>2025-07-10T11:48:56.000Z</time>
      </trkpt>
      <trkpt lat="44.89315" lon="5.80681">
        <ele>734.422233</ele>
        <time>2025-07-10T11:48:57.000Z</time>
      </trkpt>
      <trkpt lat="44.89316" lon="5.80682">
        <ele>734.512128</ele>
        <time>2025-07-10T11:48:58.000Z</time>
      </trkpt>
      <trkpt lat="44.89318" lon="5.80684">
        <ele>734.600288</ele>
        <time>2025-07-10T11:48:59.000Z</time>
      </trkpt>
      <trkpt lat="44.8932" lon="5.80685">
        <ele>734.698429</ele>
        <time>2025-07-10T11:49:00.000Z</time>
      </trkpt>
      <trkpt lat="44.89321" lon="5.80687">
        <ele>734.784302</ele>
        <time>2025-07-10T11:49:01.000Z</time>
      </trkpt>
      <trkpt lat="44.89323" lon="5.80688">
        <ele>734.876024</ele>
        <time>2025-07-10T11:49:02.000Z</time>
      </trkpt>
      <trkpt lat="44.89325" lon="5.8069">
        <ele>734.971761</ele>
        <time>2025-07-10T11:49:03.000Z</time>
      </trkpt>
      <trkpt lat="44.89326" lon="5.80691">
        <ele>735.065428</ele>
        <time>2025-07-10T11:49:04.000Z</time>
      </trkpt>
      <trkpt lat="44.89328" lon="5.80692">
        <ele>735.164828</ele>
        <time>2025-07-10T11:49:05.000Z</time>
      </trkpt>
      <trkpt lat="44.8933" lon="5.80693">
        <ele>735.268605</ele>
        <time>2025-07-10T11:49:06.000Z</time>
      </trkpt>
      <trkpt lat="44.89332" lon="5.80694">
        <ele>735.36098</ele>
        <time>2025-07-10T11:49:07.000Z</time>
      </trkpt>
      <trkpt lat="44.89334" lon="5.80695">
        <ele>735.467945</ele>
        <time>2025-07-10T11:49:08.000Z</time>
      </trkpt>
      <trkpt lat="44.89337" lon="5.80696">
        <ele>735.581921</ele>
        <time>2025-07-10T11:49:09.000Z</time>
      </trkpt>
      <trkpt lat="44.89339" lon="5.80697">
        <ele>735.692292</ele>
        <time>2025-07-10T11:49:10.000Z</time>
      </trkpt>
      <trkpt lat="44.89341" lon="5.80698">
        <ele>735.797096</ele>
        <time>2025-07-10T11:49:11.000Z</time>
      </trkpt>
      <trkpt lat="44.89343" lon="5.80699">
        <ele>735.900137</ele>
        <time>2025-07-10T11:49:12.000Z</time>
      </trkpt>
      <trkpt lat="44.89345" lon="5.80699">
        <ele>736.007832</ele>
        <time>2025-07-10T11:49:13.000Z</time>
      </trkpt>
      <trkpt lat="44.89347" lon="5.807">
        <ele>736.110148</ele>
        <time>2025-07-10T11:49:14.000Z</time>
      </trkpt>
      <trkpt lat="44.89349" lon="5.807">
        <ele>736.215696</ele>
        <time>2025-07-10T11:49:15.000Z</time>
      </trkpt>
      <trkpt lat="44.89352" lon="5.80701">
        <ele>736.316492</ele>
        <time>2025-07-10T11:49:16.000Z</time>
      </trkpt>
      <trkpt lat="44.89354" lon="5.80701">
        <ele>736.422418</ele>
        <time>2025-07-10T11:49:17.000Z</time>
      </trkpt>
      <trkpt lat="44.89356" lon="5.80701">
        <ele>736.527695</ele>
        <time>2025-07-10T11:49:18.000Z</time>
      </trkpt>
      <trkpt lat="44.89358" lon="5.80701">
        <ele>736.623262</ele>
        <time>2025-07-10T11:49:19.000Z</time>
      </trkpt>
      <trkpt lat="44.8936" lon="5.80701">
        <ele>736.714247</ele>
        <time>2025-07-10T11:49:20.000Z</time>
      </trkpt>
      <trkpt lat="44.89362" lon="5.80701">
        <ele>736.809755</ele>
        <time>2025-07-10T11:49:21.000Z</time>
      </trkpt>
      <trkpt lat="44.89364" lon="5.80702">
        <ele>736.910266</ele>
        <time>2025-07-10T11:49:22.000Z</time>
      </trkpt>
      <trkpt lat="44.89366" lon="5.80702">
        <ele>737.015813</ele>
        <time>2025-07-10T11:49:23.000Z</time>
      </trkpt>
      <trkpt lat="44.89368" lon="5.80702">
        <ele>737.116325</ele>
        <time>2025-07-10T11:49:24.000Z</time>
      </trkpt>
      <trkpt lat="44.8937" lon="5.80701">
        <ele>737.213319</ele>
        <time>2025-07-10T11:49:25.000Z</time>
      </trkpt>
      <trkpt lat="44.89372" lon="5.80701">
        <ele>737.309781</ele>
        <time>2025-07-10T11:49:26.000Z</time>
      </trkpt>
      <trkpt lat="44.89374" lon="5.80701">
        <ele>737.410121</ele>
        <time>2025-07-10T11:49:27.000Z</time>
      </trkpt>
      <trkpt lat="44.89377" lon="5.80701">
        <ele>737.515397</ele>
        <time>2025-07-10T11:49:28.000Z</time>
      </trkpt>
      <trkpt lat="44.89379" lon="5.807">
        <ele>737.621809</ele>
        <time>2025-07-10T11:49:29.000Z</time>
      </trkpt>
      <trkpt lat="44.89381" lon="5.807">
        <ele>737.73766</ele>
        <time>2025-07-10T11:49:30.000Z</time>
      </trkpt>
      <trkpt lat="44.89384" lon="5.80699">
        <ele>737.858237</ele>
        <time>2025-07-10T11:49:31.000Z</time>
      </trkpt>
      <trkpt lat="44.89386" lon="5.80698">
        <ele>737.978736</ele>
        <time>2025-07-10T11:49:32.000Z</time>
      </trkpt>
      <trkpt lat="44.89389" lon="5.80697">
        <ele>738.103786</ele>
        <time>2025-07-10T11:49:33.000Z</time>
      </trkpt>
      <trkpt lat="44.89391" lon="5.80696">
        <ele>738.231625</ele>
        <time>2025-07-10T11:49:34.000Z</time>
      </trkpt>
      <trkpt lat="44.89394" lon="5.80695">
        <ele>738.35021</ele>
        <time>2025-07-10T11:49:35.000Z</time>
      </trkpt>
      <trkpt lat="44.89396" lon="5.80694">
        <ele>738.479827</ele>
        <time>2025-07-10T11:49:36.000Z</time>
      </trkpt>
      <trkpt lat="44.89399" lon="5.80693">
        <ele>738.600326</ele>
        <time>2025-07-10T11:49:37.000Z</time>
      </trkpt>
      <trkpt lat="44.89401" lon="5.80692">
        <ele>738.717422</ele>
        <time>2025-07-10T11:49:38.000Z</time>
      </trkpt>
      <trkpt lat="44.89403" lon="5.80691">
        <ele>738.827793</ele>
        <time>2025-07-10T11:49:39.000Z</time>
      </trkpt>
      <trkpt lat="44.89405" lon="5.8069">
        <ele>738.94938</ele>
        <time>2025-07-10T11:49:40.000Z</time>
      </trkpt>
      <trkpt lat="44.89408" lon="5.80688">
        <ele>739.06899</ele>
        <time>2025-07-10T11:49:41.000Z</time>
      </trkpt>
      <trkpt lat="44.8941" lon="5.80687">
        <ele>739.181619</ele>
        <time>2025-07-10T11:49:42.000Z</time>
      </trkpt>
      <trkpt lat="44.89412" lon="5.80686">
        <ele>739.286766</ele>
        <time>2025-07-10T11:49:43.000Z</time>
      </trkpt>
      <trkpt lat="44.89414" lon="5.80684">
        <ele>739.400658</ele>
        <time>2025-07-10T11:49:44.000Z</time>
      </trkpt>
      <trkpt lat="44.89416" lon="5.80683">
        <ele>739.51455</ele>
        <time>2025-07-10T11:49:45.000Z</time>
      </trkpt>
      <trkpt lat="44.89419" lon="5.80682">
        <ele>739.642986</ele>
        <time>2025-07-10T11:49:46.000Z</time>
      </trkpt>
      <trkpt lat="44.89421" lon="5.8068">
        <ele>739.766996</ele>
        <time>2025-07-10T11:49:47.000Z</time>
      </trkpt>
      <trkpt lat="44.89424" lon="5.80679">
        <ele>739.888582</ele>
        <time>2025-07-10T11:49:48.000Z</time>
      </trkpt>
      <trkpt lat="44.89426" lon="5.80678">
        <ele>739.996734</ele>
        <time>2025-07-10T11:49:49.000Z</time>
      </trkpt>
      <trkpt lat="44.89428" lon="5.80676">
        <ele>740.110692</ele>
        <time>2025-07-10T11:49:50.000Z</time>
      </trkpt>
      <trkpt lat="44.8943" lon="5.80675">
        <ele>740.248051</ele>
        <time>2025-07-10T11:49:51.000Z</time>
      </trkpt>
      <trkpt lat="44.89433" lon="5.80674">
        <ele>740.377668</ele>
        <time>2025-07-10T11:49:52.000Z</time>
      </trkpt>
      <trkpt lat="44.89435" lon="5.80673">
        <ele>740.483503</ele>
        <time>2025-07-10T11:49:53.000Z</time>
      </trkpt>
      <trkpt lat="44.89437" lon="5.80672">
        <ele>740.593874</ele>
        <time>2025-07-10T11:49:54.000Z</time>
      </trkpt>
      <trkpt lat="44.8944" lon="5.8067">
        <ele>740.709115</ele>
        <time>2025-07-10T11:49:55.000Z</time>
      </trkpt>
      <trkpt lat="44.89441" lon="5.80669">
        <ele>740.813073</ele>
        <time>2025-07-10T11:49:56.000Z</time>
      </trkpt>
      <trkpt lat="44.89444" lon="5.80667">
        <ele>740.941509</ele>
        <time>2025-07-10T11:49:57.000Z</time>
      </trkpt>
      <trkpt lat="44.89446" lon="5.80666">
        <ele>741.062008</ele>
        <time>2025-07-10T11:49:58.000Z</time>
      </trkpt>
      <trkpt lat="44.89448" lon="5.80665">
        <ele>741.154383</ele>
        <time>2025-07-10T11:49:59.000Z</time>
      </trkpt>
      <trkpt lat="44.8945" lon="5.80664">
        <ele>741.256732</ele>
        <time>2025-07-10T11:50:00.000Z</time>
      </trkpt>
      <trkpt lat="44.89452" lon="5.80663">
        <ele>741.363697</ele>
        <time>2025-07-10T11:50:01.000Z</time>
      </trkpt>
      <trkpt lat="44.89455" lon="5.80662">
        <ele>741.488592</ele>
        <time>2025-07-10T11:50:02.000Z</time>
      </trkpt>
      <trkpt lat="44.89457" lon="5.80663">
        <ele>741.625399</ele>
        <time>2025-07-10T11:50:03.000Z</time>
      </trkpt>
      <trkpt lat="44.8946" lon="5.80663">
        <ele>741.757144</ele>
        <time>2025-07-10T11:50:04.000Z</time>
      </trkpt>
      <trkpt lat="44.89462" lon="5.80662">
        <ele>741.900209</ele>
        <time>2025-07-10T11:50:05.000Z</time>
      </trkpt>
      <trkpt lat="44.89464" lon="5.80661">
        <ele>742.026573</ele>
        <time>2025-07-10T11:50:06.000Z</time>
      </trkpt>
      <trkpt lat="44.89467" lon="5.80661">
        <ele>742.164025</ele>
        <time>2025-07-10T11:50:07.000Z</time>
      </trkpt>
      <trkpt lat="44.89469" lon="5.8066">
        <ele>742.28533</ele>
        <time>2025-07-10T11:50:08.000Z</time>
      </trkpt>
      <trkpt lat="44.89471" lon="5.8066">
        <ele>742.392073</ele>
        <time>2025-07-10T11:50:09.000Z</time>
      </trkpt>
      <trkpt lat="44.89473" lon="5.80659">
        <ele>742.513222</ele>
        <time>2025-07-10T11:50:10.000Z</time>
      </trkpt>
      <trkpt lat="44.89475" lon="5.80659">
        <ele>742.62821</ele>
        <time>2025-07-10T11:50:11.000Z</time>
      </trkpt>
      <trkpt lat="44.89476" lon="5.80658">
        <ele>742.732387</ele>
        <time>2025-07-10T11:50:12.000Z</time>
      </trkpt>
      <trkpt lat="44.89479" lon="5.80658">
        <ele>742.852516</ele>
        <time>2025-07-10T11:50:13.000Z</time>
      </trkpt>
      <trkpt lat="44.89481" lon="5.80658">
        <ele>742.989789</ele>
        <time>2025-07-10T11:50:14.000Z</time>
      </trkpt>
      <trkpt lat="44.89483" lon="5.80658">
        <ele>743.127061</ele>
        <time>2025-07-10T11:50:15.000Z</time>
      </trkpt>
      <trkpt lat="44.89485" lon="5.80658">
        <ele>743.247396</ele>
        <time>2025-07-10T11:50:16.000Z</time>
      </trkpt>
      <trkpt lat="44.89488" lon="5.80658">
        <ele>743.385145</ele>
        <time>2025-07-10T11:50:17.000Z</time>
      </trkpt>
      <trkpt lat="44.8949" lon="5.80659">
        <ele>743.506294</ele>
        <time>2025-07-10T11:50:18.000Z</time>
      </trkpt>
      <trkpt lat="44.89492" lon="5.80659">
        <ele>743.609284</ele>
        <time>2025-07-10T11:50:19.000Z</time>
      </trkpt>
      <trkpt lat="44.89494" lon="5.80659">
        <ele>743.741339</ele>
        <time>2025-07-10T11:50:20.000Z</time>
      </trkpt>
      <trkpt lat="44.89496" lon="5.8066">
        <ele>743.879089</ele>
        <time>2025-07-10T11:50:21.000Z</time>
      </trkpt>
      <trkpt lat="44.89499" lon="5.8066">
        <ele>744.005906</ele>
        <time>2025-07-10T11:50:22.000Z</time>
      </trkpt>
      <trkpt lat="44.89501" lon="5.80661">
        <ele>744.127211</ele>
        <time>2025-07-10T11:50:23.000Z</time>
      </trkpt>
      <trkpt lat="44.89502" lon="5.80661">
        <ele>744.226491</ele>
        <time>2025-07-10T11:50:24.000Z</time>
      </trkpt>
      <trkpt lat="44.89504" lon="5.80662">
        <ele>744.335193</ele>
        <time>2025-07-10T11:50:25.000Z</time>
      </trkpt>
      <trkpt lat="44.89506" lon="5.80661">
        <ele>744.449609</ele>
        <time>2025-07-10T11:50:26.000Z</time>
      </trkpt>
      <trkpt lat="44.89509" lon="5.80661">
        <ele>744.586821</ele>
        <time>2025-07-10T11:50:27.000Z</time>
      </trkpt>
      <trkpt lat="44.89511" lon="5.80662">
        <ele>744.701237</ele>
        <time>2025-07-10T11:50:28.000Z</time>
      </trkpt>
      <trkpt lat="44.89513" lon="5.80662">
        <ele>744.811735</ele>
        <time>2025-07-10T11:50:29.000Z</time>
      </trkpt>
      <trkpt lat="44.89515" lon="5.80663">
        <ele>744.935098</ele>
        <time>2025-07-10T11:50:30.000Z</time>
      </trkpt>
      <trkpt lat="44.89517" lon="5.80663">
        <ele>745.061916</ele>
        <time>2025-07-10T11:50:31.000Z</time>
      </trkpt>
      <trkpt lat="44.89519" lon="5.80664">
        <ele>745.20942</ele>
        <time>2025-07-10T11:50:32.000Z</time>
      </trkpt>
      <trkpt lat="44.89521" lon="5.80665">
        <ele>745.333776</ele>
        <time>2025-07-10T11:50:33.000Z</time>
      </trkpt>
      <trkpt lat="44.89524" lon="5.80665">
        <ele>745.455533</ele>
        <time>2025-07-10T11:50:34.000Z</time>
      </trkpt>
      <trkpt lat="44.89526" lon="5.80666">
        <ele>745.582932</ele>
        <time>2025-07-10T11:50:35.000Z</time>
      </trkpt>
      <trkpt lat="44.89528" lon="5.80666">
        <ele>745.704081</ele>
        <time>2025-07-10T11:50:36.000Z</time>
      </trkpt>
      <trkpt lat="44.8953" lon="5.80667">
        <ele>745.829553</ele>
        <time>2025-07-10T11:50:37.000Z</time>
      </trkpt>
      <trkpt lat="44.89532" lon="5.80668">
        <ele>745.959078</ele>
        <time>2025-07-10T11:50:38.000Z</time>
      </trkpt>
      <trkpt lat="44.89534" lon="5.80669">
        <ele>746.068252</ele>
        <time>2025-07-10T11:50:39.000Z</time>
      </trkpt>
      <trkpt lat="44.89536" lon="5.8067">
        <ele>746.174995</ele>
        <time>2025-07-10T11:50:40.000Z</time>
      </trkpt>
      <trkpt lat="44.89538" lon="5.80671">
        <ele>746.292802</ele>
        <time>2025-07-10T11:50:41.000Z</time>
      </trkpt>
      <trkpt lat="44.8954" lon="5.80672">
        <ele>746.41951</ele>
        <time>2025-07-10T11:50:42.000Z</time>
      </trkpt>
      <trkpt lat="44.89542" lon="5.80673">
        <ele>746.56436</ele>
        <time>2025-07-10T11:50:43.000Z</time>
      </trkpt>
      <trkpt lat="44.89544" lon="5.80674">
        <ele>746.707426</ele>
        <time>2025-07-10T11:50:44.000Z</time>
      </trkpt>
      <trkpt lat="44.89547" lon="5.80675">
        <ele>746.84388</ele>
        <time>2025-07-10T11:50:45.000Z</time>
      </trkpt>
      <trkpt lat="44.89549" lon="5.80676">
        <ele>746.969352</ele>
        <time>2025-07-10T11:50:46.000Z</time>
      </trkpt>
      <trkpt lat="44.89551" lon="5.80677">
        <ele>747.092068</ele>
        <time>2025-07-10T11:50:47.000Z</time>
      </trkpt>
      <trkpt lat="44.89553" lon="5.80678">
        <ele>747.212081</ele>
        <time>2025-07-10T11:50:48.000Z</time>
      </trkpt>
      <trkpt lat="44.89555" lon="5.80679">
        <ele>747.324347</ele>
        <time>2025-07-10T11:50:49.000Z</time>
      </trkpt>
      <trkpt lat="44.89557" lon="5.8068">
        <ele>747.441754</ele>
        <time>2025-07-10T11:50:50.000Z</time>
      </trkpt>
      <trkpt lat="44.89559" lon="5.80681">
        <ele>747.571235</ele>
        <time>2025-07-10T11:50:51.000Z</time>
      </trkpt>
      <trkpt lat="44.89561" lon="5.80683">
        <ele>747.691948</ele>
        <time>2025-07-10T11:50:52.000Z</time>
      </trkpt>
      <trkpt lat="44.89562" lon="5.80684">
        <ele>747.812662</ele>
        <time>2025-07-10T11:50:53.000Z</time>
      </trkpt>
      <trkpt lat="44.89564" lon="5.80685">
        <ele>747.940293</ele>
        <time>2025-07-10T11:50:54.000Z</time>
      </trkpt>
      <trkpt lat="44.89566" lon="5.80687">
        <ele>748.062827</ele>
        <time>2025-07-10T11:50:55.000Z</time>
      </trkpt>
      <trkpt lat="44.89568" lon="5.80688">
        <ele>748.184439</ele>
        <time>2025-07-10T11:50:56.000Z</time>
      </trkpt>
      <trkpt lat="44.8957" lon="5.8069">
        <ele>748.313048</ele>
        <time>2025-07-10T11:50:57.000Z</time>
      </trkpt>
      <trkpt lat="44.89572" lon="5.80692">
        <ele>748.441656</ele>
        <time>2025-07-10T11:50:58.000Z</time>
      </trkpt>
      <trkpt lat="44.89574" lon="5.80693">
        <ele>748.56315</ele>
        <time>2025-07-10T11:50:59.000Z</time>
      </trkpt>
      <trkpt lat="44.89575" lon="5.80695">
        <ele>748.685333</ele>
        <time>2025-07-10T11:51:00.000Z</time>
      </trkpt>
      <trkpt lat="44.89577" lon="5.80697">
        <ele>748.806828</ele>
        <time>2025-07-10T11:51:01.000Z</time>
      </trkpt>
      <trkpt lat="44.89578" lon="5.80699">
        <ele>748.914315</ele>
        <time>2025-07-10T11:51:02.000Z</time>
      </trkpt>
      <trkpt lat="44.8958" lon="5.80701">
        <ele>749.040429</ele>
        <time>2025-07-10T11:51:03.000Z</time>
      </trkpt>
      <trkpt lat="44.89582" lon="5.80702">
        <ele>749.157243</ele>
        <time>2025-07-10T11:51:04.000Z</time>
      </trkpt>
      <trkpt lat="44.89584" lon="5.80704">
        <ele>749.279777</ele>
        <time>2025-07-10T11:51:05.000Z</time>
      </trkpt>
      <trkpt lat="44.89586" lon="5.80705">
        <ele>749.39928</ele>
        <time>2025-07-10T11:51:06.000Z</time>
      </trkpt>
      <trkpt lat="44.89587" lon="5.80707">
        <ele>749.499765</ele>
        <time>2025-07-10T11:51:07.000Z</time>
      </trkpt>
      <trkpt lat="44.89588" lon="5.80708">
        <ele>749.597853</ele>
        <time>2025-07-10T11:51:08.000Z</time>
      </trkpt>
      <trkpt lat="44.8959" lon="5.8071">
        <ele>749.698338</ele>
        <time>2025-07-10T11:51:09.000Z</time>
      </trkpt>
      <trkpt lat="44.89592" lon="5.80711">
        <ele>749.817841</ele>
        <time>2025-07-10T11:51:10.000Z</time>
      </trkpt>
      <trkpt lat="44.89593" lon="5.80713">
        <ele>749.934654</ele>
        <time>2025-07-10T11:51:11.000Z</time>
      </trkpt>
      <trkpt lat="44.89595" lon="5.80714">
        <ele>750.056148</ele>
        <time>2025-07-10T11:51:12.000Z</time>
      </trkpt>
      <trkpt lat="44.89597" lon="5.80716">
        <ele>750.175256</ele>
        <time>2025-07-10T11:51:13.000Z</time>
      </trkpt>
      <trkpt lat="44.89598" lon="5.80718">
        <ele>750.287358</ele>
        <time>2025-07-10T11:51:14.000Z</time>
      </trkpt>
      <trkpt lat="44.896" lon="5.8072">
        <ele>750.398388</ele>
        <time>2025-07-10T11:51:15.000Z</time>
      </trkpt>
      <trkpt lat="44.89601" lon="5.80722">
        <ele>750.509419</ele>
        <time>2025-07-10T11:51:16.000Z</time>
      </trkpt>
      <trkpt lat="44.89602" lon="5.80723">
        <ele>750.616402</ele>
        <time>2025-07-10T11:51:17.000Z</time>
      </trkpt>
      <trkpt lat="44.89604" lon="5.80725">
        <ele>750.734366</ele>
        <time>2025-07-10T11:51:18.000Z</time>
      </trkpt>
      <trkpt lat="44.89606" lon="5.80727">
        <ele>750.853473</ele>
        <time>2025-07-10T11:51:19.000Z</time>
      </trkpt>
      <trkpt lat="44.89607" lon="5.80729">
        <ele>750.981971</ele>
        <time>2025-07-10T11:51:20.000Z</time>
      </trkpt>
      <trkpt lat="44.89609" lon="5.80731">
        <ele>751.091947</ele>
        <time>2025-07-10T11:51:21.000Z</time>
      </trkpt>
      <trkpt lat="44.89611" lon="5.80732">
        <ele>751.206437</ele>
        <time>2025-07-10T11:51:22.000Z</time>
      </trkpt>
      <trkpt lat="44.89612" lon="5.80734">
        <ele>751.320928</ele>
        <time>2025-07-10T11:51:23.000Z</time>
      </trkpt>
      <trkpt lat="44.89614" lon="5.80736">
        <ele>751.433029</ele>
        <time>2025-07-10T11:51:24.000Z</time>
      </trkpt>
      <trkpt lat="44.89615" lon="5.80737">
        <ele>751.547519</ele>
        <time>2025-07-10T11:51:25.000Z</time>
      </trkpt>
      <trkpt lat="44.89617" lon="5.80739">
        <ele>751.657495</ele>
        <time>2025-07-10T11:51:26.000Z</time>
      </trkpt>
      <trkpt lat="44.89619" lon="5.80741">
        <ele>751.781462</ele>
        <time>2025-07-10T11:51:27.000Z</time>
      </trkpt>
      <trkpt lat="44.8962" lon="5.80743">
        <ele>751.895886</ele>
        <time>2025-07-10T11:51:28.000Z</time>
      </trkpt>
      <trkpt lat="44.89622" lon="5.80744">
        <ele>752.012465</ele>
        <time>2025-07-10T11:51:29.000Z</time>
      </trkpt>
      <trkpt lat="44.89624" lon="5.80746">
        <ele>752.129045</ele>
        <time>2025-07-10T11:51:30.000Z</time>
      </trkpt>
      <trkpt lat="44.89625" lon="5.80748">
        <ele>752.247914</ele>
        <time>2025-07-10T11:51:31.000Z</time>
      </trkpt>
      <trkpt lat="44.89627" lon="5.8075">
        <ele>752.371631</ele>
        <time>2025-07-10T11:51:32.000Z</time>
      </trkpt>
      <trkpt lat="44.89629" lon="5.80751">
        <ele>752.485892</ele>
        <time>2025-07-10T11:51:33.000Z</time>
      </trkpt>
      <trkpt lat="44.8963" lon="5.80753">
        <ele>752.598222</ele>
        <time>2025-07-10T11:51:34.000Z</time>
      </trkpt>
      <trkpt lat="44.89632" lon="5.80755">
        <ele>752.713211</ele>
        <time>2025-07-10T11:51:35.000Z</time>
      </trkpt>
      <trkpt lat="44.89633" lon="5.80757">
        <ele>752.829947</ele>
        <time>2025-07-10T11:51:36.000Z</time>
      </trkpt>
      <trkpt lat="44.89635" lon="5.80758">
        <ele>752.939537</ele>
        <time>2025-07-10T11:51:37.000Z</time>
      </trkpt>
      <trkpt lat="44.89636" lon="5.8076">
        <ele>753.058406</ele>
        <time>2025-07-10T11:51:38.000Z</time>
      </trkpt>
      <trkpt lat="44.89638" lon="5.80762">
        <ele>753.179656</ele>
        <time>2025-07-10T11:51:39.000Z</time>
      </trkpt>
      <trkpt lat="44.8964" lon="5.80764">
        <ele>753.300906</ele>
        <time>2025-07-10T11:51:40.000Z</time>
      </trkpt>
      <trkpt lat="44.89642" lon="5.80765">
        <ele>753.419775</ele>
        <time>2025-07-10T11:51:41.000Z</time>
      </trkpt>
      <trkpt lat="44.89643" lon="5.80767">
        <ele>753.534161</ele>
        <time>2025-07-10T11:51:42.000Z</time>
      </trkpt>
      <trkpt lat="44.89645" lon="5.80768">
        <ele>753.65303</ele>
        <time>2025-07-10T11:51:43.000Z</time>
      </trkpt>
      <trkpt lat="44.89647" lon="5.8077">
        <ele>753.764907</ele>
        <time>2025-07-10T11:51:44.000Z</time>
      </trkpt>
      <trkpt lat="44.89648" lon="5.80772">
        <ele>753.879293</ele>
        <time>2025-07-10T11:51:45.000Z</time>
      </trkpt>
      <trkpt lat="44.8965" lon="5.80773">
        <ele>753.994282</ele>
        <time>2025-07-10T11:51:46.000Z</time>
      </trkpt>
      <trkpt lat="44.89651" lon="5.80775">
        <ele>754.109271</ele>
        <time>2025-07-10T11:51:47.000Z</time>
      </trkpt>
      <trkpt lat="44.89653" lon="5.80777">
        <ele>754.228568</ele>
        <time>2025-07-10T11:51:48.000Z</time>
      </trkpt>
      <trkpt lat="44.89655" lon="5.80779">
        <ele>754.349818</ele>
        <time>2025-07-10T11:51:49.000Z</time>
      </trkpt>
      <trkpt lat="44.89656" lon="5.80781">
        <ele>754.475679</ele>
        <time>2025-07-10T11:51:50.000Z</time>
      </trkpt>
      <trkpt lat="44.89658" lon="5.80783">
        <ele>754.594548</ele>
        <time>2025-07-10T11:51:51.000Z</time>
      </trkpt>
      <trkpt lat="44.8966" lon="5.80784">
        <ele>754.715798</ele>
        <time>2025-07-10T11:51:52.000Z</time>
      </trkpt>
      <trkpt lat="44.89662" lon="5.80786">
        <ele>754.839366</ele>
        <time>2025-07-10T11:51:53.000Z</time>
      </trkpt>
      <trkpt lat="44.89663" lon="5.80788">
        <ele>754.958629</ele>
        <time>2025-07-10T11:51:54.000Z</time>
      </trkpt>
      <trkpt lat="44.89665" lon="5.80789">
        <ele>755.075889</ele>
        <time>2025-07-10T11:51:55.000Z</time>
      </trkpt>
      <trkpt lat="44.89667" lon="5.8079">
        <ele>755.190276</ele>
        <time>2025-07-10T11:51:56.000Z</time>
      </trkpt>
      <trkpt lat="44.89669" lon="5.80792">
        <ele>755.304662</ele>
        <time>2025-07-10T11:51:57.000Z</time>
      </trkpt>
      <trkpt lat="44.8967" lon="5.80793">
        <ele>755.412068</ele>
        <time>2025-07-10T11:51:58.000Z</time>
      </trkpt>
      <trkpt lat="44.89672" lon="5.80795">
        <ele>755.521658</ele>
        <time>2025-07-10T11:51:59.000Z</time>
      </trkpt>
      <trkpt lat="44.89673" lon="5.80796">
        <ele>755.631248</ele>
        <time>2025-07-10T11:52:00.000Z</time>
      </trkpt>
      <trkpt lat="44.89675" lon="5.80798">
        <ele>755.736581</ele>
        <time>2025-07-10T11:52:01.000Z</time>
      </trkpt>
      <trkpt lat="44.89677" lon="5.80799">
        <ele>755.839957</ele>
        <time>2025-07-10T11:52:02.000Z</time>
      </trkpt>
      <trkpt lat="44.89678" lon="5.808">
        <ele>755.950272</ele>
        <time>2025-07-10T11:52:03.000Z</time>
      </trkpt>
      <trkpt lat="44.8968" lon="5.80801">
        <ele>756.060642</ele>
        <time>2025-07-10T11:52:04.000Z</time>
      </trkpt>
      <trkpt lat="44.89682" lon="5.80802">
        <ele>756.169597</ele>
        <time>2025-07-10T11:52:05.000Z</time>
      </trkpt>
      <trkpt lat="44.89684" lon="5.80803">
        <ele>756.27727</ele>
        <time>2025-07-10T11:52:06.000Z</time>
      </trkpt>
      <trkpt lat="44.89685" lon="5.80804">
        <ele>756.39453</ele>
        <time>2025-07-10T11:52:07.000Z</time>
      </trkpt>
      <trkpt lat="44.89687" lon="5.80806">
        <ele>756.499863</ele>
        <time>2025-07-10T11:52:08.000Z</time>
      </trkpt>
      <trkpt lat="44.89689" lon="5.80807">
        <ele>756.601406</ele>
        <time>2025-07-10T11:52:09.000Z</time>
      </trkpt>
      <trkpt lat="44.8969" lon="5.80808">
        <ele>756.702948</ele>
        <time>2025-07-10T11:52:10.000Z</time>
      </trkpt>
      <trkpt lat="44.89692" lon="5.80809">
        <ele>756.816077</ele>
        <time>2025-07-10T11:52:11.000Z</time>
      </trkpt>
      <trkpt lat="44.89694" lon="5.80809">
        <ele>756.926353</ele>
        <time>2025-07-10T11:52:12.000Z</time>
      </trkpt>
      <trkpt lat="44.89696" lon="5.8081">
        <ele>757.042244</ele>
        <time>2025-07-10T11:52:13.000Z</time>
      </trkpt>
      <trkpt lat="44.89698" lon="5.8081">
        <ele>757.146917</ele>
        <time>2025-07-10T11:52:14.000Z</time>
      </trkpt>
      <trkpt lat="44.897" lon="5.80811">
        <ele>757.257193</ele>
        <time>2025-07-10T11:52:15.000Z</time>
      </trkpt>
      <trkpt lat="44.89702" lon="5.80811">
        <ele>757.373084</ele>
        <time>2025-07-10T11:52:16.000Z</time>
      </trkpt>
      <trkpt lat="44.89704" lon="5.80812">
        <ele>757.495334</ele>
        <time>2025-07-10T11:52:17.000Z</time>
      </trkpt>
      <trkpt lat="44.89706" lon="5.80812">
        <ele>757.604942</ele>
        <time>2025-07-10T11:52:18.000Z</time>
      </trkpt>
      <trkpt lat="44.89708" lon="5.80812">
        <ele>757.725374</ele>
        <time>2025-07-10T11:52:19.000Z</time>
      </trkpt>
      <trkpt lat="44.8971" lon="5.80813">
        <ele>757.845467</ele>
        <time>2025-07-10T11:52:20.000Z</time>
      </trkpt>
      <trkpt lat="44.89712" lon="5.80813">
        <ele>757.959653</ele>
        <time>2025-07-10T11:52:21.000Z</time>
      </trkpt>
      <trkpt lat="44.89714" lon="5.80812">
        <ele>758.06307</ele>
        <time>2025-07-10T11:52:22.000Z</time>
      </trkpt>
      <trkpt lat="44.89716" lon="5.80812">
        <ele>758.166486</ele>
        <time>2025-07-10T11:52:23.000Z</time>
      </trkpt>
      <trkpt lat="44.89717" lon="5.80812">
        <ele>758.269269</ele>
        <time>2025-07-10T11:52:24.000Z</time>
      </trkpt>
      <trkpt lat="44.89719" lon="5.80812">
        <ele>758.373237</ele>
        <time>2025-07-10T11:52:25.000Z</time>
      </trkpt>
      <trkpt lat="44.89721" lon="5.80811">
        <ele>758.485277</ele>
        <time>2025-07-10T11:52:26.000Z</time>
      </trkpt>
      <trkpt lat="44.89723" lon="5.8081">
        <ele>758.60454</ele>
        <time>2025-07-10T11:52:27.000Z</time>
      </trkpt>
      <trkpt lat="44.89725" lon="5.80808">
        <ele>758.7218</ele>
        <time>2025-07-10T11:52:28.000Z</time>
      </trkpt>
      <trkpt lat="44.89727" lon="5.80807">
        <ele>758.856085</ele>
        <time>2025-07-10T11:52:29.000Z</time>
      </trkpt>
      <trkpt lat="44.89729" lon="5.80804">
        <ele>759.012286</ele>
        <time>2025-07-10T11:52:30.000Z</time>
      </trkpt>
      <trkpt lat="44.89731" lon="5.80802">
        <ele>759.187389</ele>
        <time>2025-07-10T11:52:31.000Z</time>
      </trkpt>
      <trkpt lat="44.89734" lon="5.80799">
        <ele>759.374604</ele>
        <time>2025-07-10T11:52:32.000Z</time>
      </trkpt>
      <trkpt lat="44.89736" lon="5.80796">
        <ele>759.556045</ele>
        <time>2025-07-10T11:52:33.000Z</time>
      </trkpt>
      <trkpt lat="44.89738" lon="5.80793">
        <ele>759.727787</ele>
        <time>2025-07-10T11:52:34.000Z</time>
      </trkpt>
      <trkpt lat="44.8974" lon="5.8079">
        <ele>759.880209</ele>
        <time>2025-07-10T11:52:35.000Z</time>
      </trkpt>
      <trkpt lat="44.89742" lon="5.80788">
        <ele>760.011796</ele>
        <time>2025-07-10T11:52:36.000Z</time>
      </trkpt>
      <trkpt lat="44.89743" lon="5.80786">
        <ele>760.124517</ele>
        <time>2025-07-10T11:52:37.000Z</time>
      </trkpt>
      <trkpt lat="44.89745" lon="5.80784">
        <ele>760.230453</ele>
        <time>2025-07-10T11:52:38.000Z</time>
      </trkpt>
      <trkpt lat="44.89746" lon="5.80782">
        <ele>760.33435</ele>
        <time>2025-07-10T11:52:39.000Z</time>
      </trkpt>
      <trkpt lat="44.89747" lon="5.8078">
        <ele>760.442395</ele>
        <time>2025-07-10T11:52:40.000Z</time>
      </trkpt>
      <trkpt lat="44.89749" lon="5.80778">
        <ele>760.55044</ele>
        <time>2025-07-10T11:52:41.000Z</time>
      </trkpt>
      <trkpt lat="44.8975" lon="5.80777">
        <ele>760.642822</ele>
        <time>2025-07-10T11:52:42.000Z</time>
      </trkpt>
      <trkpt lat="44.89751" lon="5.80775">
        <ele>760.735882</ele>
        <time>2025-07-10T11:52:43.000Z</time>
      </trkpt>
      <trkpt lat="44.89752" lon="5.80773">
        <ele>760.835786</ele>
        <time>2025-07-10T11:52:44.000Z</time>
      </trkpt>
      <trkpt lat="44.89753" lon="5.80771">
        <ele>760.942553</ele>
        <time>2025-07-10T11:52:45.000Z</time>
      </trkpt>
      <trkpt lat="44.89754" lon="5.80769">
        <ele>761.042457</ele>
        <time>2025-07-10T11:52:46.000Z</time>
      </trkpt>
      <trkpt lat="44.89756" lon="5.80768">
        <ele>761.139458</ele>
        <time>2025-07-10T11:52:47.000Z</time>
      </trkpt>
      <trkpt lat="44.89757" lon="5.80766">
        <ele>761.239362</ele>
        <time>2025-07-10T11:52:48.000Z</time>
      </trkpt>
      <trkpt lat="44.89758" lon="5.80764">
        <ele>761.342247</ele>
        <time>2025-07-10T11:52:49.000Z</time>
      </trkpt>
      <trkpt lat="44.89759" lon="5.80762">
        <ele>761.454576</ele>
        <time>2025-07-10T11:52:50.000Z</time>
      </trkpt>
      <trkpt lat="44.89761" lon="5.8076">
        <ele>761.561342</ele>
        <time>2025-07-10T11:52:51.000Z</time>
      </trkpt>
      <trkpt lat="44.89762" lon="5.80759">
        <ele>761.666708</ele>
        <time>2025-07-10T11:52:52.000Z</time>
      </trkpt>
      <trkpt lat="44.89763" lon="5.80757">
        <ele>761.756826</ele>
        <time>2025-07-10T11:52:53.000Z</time>
      </trkpt>
      <trkpt lat="44.89765" lon="5.80755">
        <ele>761.862192</ele>
        <time>2025-07-10T11:52:54.000Z</time>
      </trkpt>
      <trkpt lat="44.89766" lon="5.80754">
        <ele>761.956372</ele>
        <time>2025-07-10T11:52:55.000Z</time>
      </trkpt>
      <trkpt lat="44.89767" lon="5.80752">
        <ele>762.056276</ele>
        <time>2025-07-10T11:52:56.000Z</time>
      </trkpt>
      <trkpt lat="44.89768" lon="5.8075">
        <ele>762.150646</ele>
        <time>2025-07-10T11:52:57.000Z</time>
      </trkpt>
      <trkpt lat="44.89769" lon="5.80748">
        <ele>762.272475</ele>
        <time>2025-07-10T11:52:58.000Z</time>
      </trkpt>
      <trkpt lat="44.89771" lon="5.80747">
        <ele>762.402966</ele>
        <time>2025-07-10T11:52:59.000Z</time>
      </trkpt>
      <trkpt lat="44.89772" lon="5.80745">
        <ele>762.544047</ele>
        <time>2025-07-10T11:53:00.000Z</time>
      </trkpt>
      <trkpt lat="44.89773" lon="5.80743">
        <ele>762.664724</ele>
        <time>2025-07-10T11:53:01.000Z</time>
      </trkpt>
      <trkpt lat="44.89774" lon="5.80741">
        <ele>762.795216</ele>
        <time>2025-07-10T11:53:02.000Z</time>
      </trkpt>
      <trkpt lat="44.89776" lon="5.8074">
        <ele>762.929944</ele>
        <time>2025-07-10T11:53:03.000Z</time>
      </trkpt>
      <trkpt lat="44.89777" lon="5.80738">
        <ele>763.054508</ele>
        <time>2025-07-10T11:53:04.000Z</time>
      </trkpt>
      <trkpt lat="44.89779" lon="5.80736">
        <ele>763.211068</ele>
        <time>2025-07-10T11:53:05.000Z</time>
      </trkpt>
      <trkpt lat="44.8978" lon="5.80734">
        <ele>763.334662</ele>
        <time>2025-07-10T11:53:06.000Z</time>
      </trkpt>
      <trkpt lat="44.89781" lon="5.80732">
        <ele>763.463745</ele>
        <time>2025-07-10T11:53:07.000Z</time>
      </trkpt>
      <trkpt lat="44.89783" lon="5.80731">
        <ele>763.594236</ele>
        <time>2025-07-10T11:53:08.000Z</time>
      </trkpt>
      <trkpt lat="44.89784" lon="5.80729">
        <ele>763.721224</ele>
        <time>2025-07-10T11:53:09.000Z</time>
      </trkpt>
      <trkpt lat="44.89785" lon="5.80727">
        <ele>763.850307</ele>
        <time>2025-07-10T11:53:10.000Z</time>
      </trkpt>
      <trkpt lat="44.89787" lon="5.80726">
        <ele>763.986007</ele>
        <time>2025-07-10T11:53:11.000Z</time>
      </trkpt>
      <trkpt lat="44.89788" lon="5.80724">
        <ele>764.132621</ele>
        <time>2025-07-10T11:53:12.000Z</time>
      </trkpt>
      <trkpt lat="44.8979" lon="5.80722">
        <ele>764.25961</ele>
        <time>2025-07-10T11:53:13.000Z</time>
      </trkpt>
      <trkpt lat="44.89791" lon="5.8072">
        <ele>764.40069</ele>
        <time>2025-07-10T11:53:14.000Z</time>
      </trkpt>
      <trkpt lat="44.89792" lon="5.80719">
        <ele>764.527679</ele>
        <time>2025-07-10T11:53:15.000Z</time>
      </trkpt>
      <trkpt lat="44.89794" lon="5.80717">
        <ele>764.653629</ele>
        <time>2025-07-10T11:53:16.000Z</time>
      </trkpt>
      <trkpt lat="44.89795" lon="5.80715">
        <ele>764.791476</ele>
        <time>2025-07-10T11:53:17.000Z</time>
      </trkpt>
      <trkpt lat="44.89797" lon="5.80714">
        <ele>764.94376</ele>
        <time>2025-07-10T11:53:18.000Z</time>
      </trkpt>
      <trkpt lat="44.89798" lon="5.80712">
        <ele>765.070748</ele>
        <time>2025-07-10T11:53:19.000Z</time>
      </trkpt>
      <trkpt lat="44.898" lon="5.8071">
        <ele>765.208539</ele>
        <time>2025-07-10T11:53:20.000Z</time>
      </trkpt>
      <trkpt lat="44.89801" lon="5.80708">
        <ele>765.350112</ele>
        <time>2025-07-10T11:53:21.000Z</time>
      </trkpt>
      <trkpt lat="44.89802" lon="5.80706">
        <ele>765.482693</ele>
        <time>2025-07-10T11:53:22.000Z</time>
      </trkpt>
      <trkpt lat="44.89803" lon="5.80704">
        <ele>765.616788</ele>
        <time>2025-07-10T11:53:23.000Z</time>
      </trkpt>
      <trkpt lat="44.89805" lon="5.80702">
        <ele>765.747279</ele>
        <time>2025-07-10T11:53:24.000Z</time>
      </trkpt>
      <trkpt lat="44.89806" lon="5.807">
        <ele>765.886447</ele>
        <time>2025-07-10T11:53:25.000Z</time>
      </trkpt>
      <trkpt lat="44.89807" lon="5.80698">
        <ele>766.008276</ele>
        <time>2025-07-10T11:53:26.000Z</time>
      </trkpt>
      <trkpt lat="44.89808" lon="5.80697">
        <ele>766.112838</ele>
        <time>2025-07-10T11:53:27.000Z</time>
      </trkpt>
      <trkpt lat="44.89809" lon="5.80695">
        <ele>766.229719</ele>
        <time>2025-07-10T11:53:28.000Z</time>
      </trkpt>
      <trkpt lat="44.89811" lon="5.80693">
        <ele>766.355194</ele>
        <time>2025-07-10T11:53:29.000Z</time>
      </trkpt>
      <trkpt lat="44.89812" lon="5.80692">
        <ele>766.482182</ele>
        <time>2025-07-10T11:53:30.000Z</time>
      </trkpt>
      <trkpt lat="44.89813" lon="5.8069">
        <ele>766.599062</ele>
        <time>2025-07-10T11:53:31.000Z</time>
      </trkpt>
      <trkpt lat="44.89814" lon="5.80688">
        <ele>766.72605</ele>
        <time>2025-07-10T11:53:32.000Z</time>
      </trkpt>
      <trkpt lat="44.89815" lon="5.80686">
        <ele>766.846208</ele>
        <time>2025-07-10T11:53:33.000Z</time>
      </trkpt>
      <trkpt lat="44.89816" lon="5.80684">
        <ele>766.975426</ele>
        <time>2025-07-10T11:53:34.000Z</time>
      </trkpt>
      <trkpt lat="44.89817" lon="5.80683">
        <ele>767.091453</ele>
        <time>2025-07-10T11:53:35.000Z</time>
      </trkpt>
      <trkpt lat="44.89819" lon="5.80681">
        <ele>767.220671</ele>
        <time>2025-07-10T11:53:36.000Z</time>
      </trkpt>
      <trkpt lat="44.8982" lon="5.80679">
        <ele>767.344266</ele>
        <time>2025-07-10T11:53:37.000Z</time>
      </trkpt>
      <trkpt lat="44.89821" lon="5.80678">
        <ele>767.458431</ele>
        <time>2025-07-10T11:53:38.000Z</time>
      </trkpt>
      <trkpt lat="44.89822" lon="5.80676">
        <ele>767.566828</ele>
        <time>2025-07-10T11:53:39.000Z</time>
      </trkpt>
      <trkpt lat="44.89823" lon="5.80675">
        <ele>767.67867</ele>
        <time>2025-07-10T11:53:40.000Z</time>
      </trkpt>
      <trkpt lat="44.89824" lon="5.80673">
        <ele>767.796485</ele>
        <time>2025-07-10T11:53:41.000Z</time>
      </trkpt>
      <trkpt lat="44.89825" lon="5.80671">
        <ele>767.92196</ele>
        <time>2025-07-10T11:53:42.000Z</time>
      </trkpt>
      <trkpt lat="44.89826" lon="5.80669">
        <ele>768.038082</ele>
        <time>2025-07-10T11:53:43.000Z</time>
      </trkpt>
      <trkpt lat="44.89827" lon="5.80667">
        <ele>768.137899</ele>
        <time>2025-07-10T11:53:44.000Z</time>
      </trkpt>
      <trkpt lat="44.89828" lon="5.80666">
        <ele>768.245634</ele>
        <time>2025-07-10T11:53:45.000Z</time>
      </trkpt>
      <trkpt lat="44.89829" lon="5.80664">
        <ele>768.378684</ele>
        <time>2025-07-10T11:53:46.000Z</time>
      </trkpt>
      <trkpt lat="44.8983" lon="5.80661">
        <ele>768.524117</ele>
        <time>2025-07-10T11:53:47.000Z</time>
      </trkpt>
      <trkpt lat="44.89831" lon="5.80659">
        <ele>768.660813</ele>
        <time>2025-07-10T11:53:48.000Z</time>
      </trkpt>
      <trkpt lat="44.89832" lon="5.80657">
        <ele>768.810208</ele>
        <time>2025-07-10T11:53:49.000Z</time>
      </trkpt>
      <trkpt lat="44.89833" lon="5.80655">
        <ele>768.938658</ele>
        <time>2025-07-10T11:53:50.000Z</time>
      </trkpt>
      <trkpt lat="44.89835" lon="5.80652">
        <ele>769.108876</ele>
        <time>2025-07-10T11:53:51.000Z</time>
      </trkpt>
      <trkpt lat="44.89836" lon="5.8065">
        <ele>769.266698</ele>
        <time>2025-07-10T11:53:52.000Z</time>
      </trkpt>
      <trkpt lat="44.89838" lon="5.80647">
        <ele>769.44153</ele>
        <time>2025-07-10T11:53:53.000Z</time>
      </trkpt>
      <trkpt lat="44.89839" lon="5.80644">
        <ele>769.60406</ele>
        <time>2025-07-10T11:53:54.000Z</time>
      </trkpt>
      <trkpt lat="44.8984" lon="5.80641">
        <ele>769.771048</ele>
        <time>2025-07-10T11:53:55.000Z</time>
      </trkpt>
      <trkpt lat="44.89841" lon="5.80638">
        <ele>769.934775</ele>
        <time>2025-07-10T11:53:56.000Z</time>
      </trkpt>
      <trkpt lat="44.89842" lon="5.80636">
        <ele>770.084171</ele>
        <time>2025-07-10T11:53:57.000Z</time>
      </trkpt>
      <trkpt lat="44.89844" lon="5.80634">
        <ele>770.233537</ele>
        <time>2025-07-10T11:53:58.000Z</time>
      </trkpt>
      <trkpt lat="44.89845" lon="5.80631">
        <ele>770.399322</ele>
        <time>2025-07-10T11:53:59.000Z</time>
      </trkpt>
      <trkpt lat="44.89846" lon="5.80629">
        <ele>770.55326</ele>
        <time>2025-07-10T11:54:00.000Z</time>
      </trkpt>
      <trkpt lat="44.89847" lon="5.80626">
        <ele>770.71579</ele>
        <time>2025-07-10T11:54:01.000Z</time>
      </trkpt>
      <trkpt lat="44.89848" lon="5.80623">
        <ele>770.870453</ele>
        <time>2025-07-10T11:54:02.000Z</time>
      </trkpt>
      <trkpt lat="44.8985" lon="5.80621">
        <ele>771.024183</ele>
        <time>2025-07-10T11:54:03.000Z</time>
      </trkpt>
      <trkpt lat="44.89851" lon="5.80618">
        <ele>771.182294</ele>
        <time>2025-07-10T11:54:04.000Z</time>
      </trkpt>
      <trkpt lat="44.89852" lon="5.80615">
        <ele>771.352511</ele>
        <time>2025-07-10T11:54:05.000Z</time>
      </trkpt>
      <trkpt lat="44.89853" lon="5.80613">
        <ele>771.514314</ele>
        <time>2025-07-10T11:54:06.000Z</time>
      </trkpt>
      <trkpt lat="44.89854" lon="5.8061">
        <ele>771.672424</ele>
        <time>2025-07-10T11:54:07.000Z</time>
      </trkpt>
      <trkpt lat="44.89856" lon="5.80607">
        <ele>771.826154</ele>
        <time>2025-07-10T11:54:08.000Z</time>
      </trkpt>
      <trkpt lat="44.89857" lon="5.80605">
        <ele>771.971896</ele>
        <time>2025-07-10T11:54:09.000Z</time>
      </trkpt>
      <trkpt lat="44.89858" lon="5.80602">
        <ele>772.134426</ele>
        <time>2025-07-10T11:54:10.000Z</time>
      </trkpt>
      <trkpt lat="44.89858" lon="5.80599">
        <ele>772.275619</ele>
        <time>2025-07-10T11:54:11.000Z</time>
      </trkpt>
      <trkpt lat="44.89859" lon="5.80597">
        <ele>772.407372</ele>
        <time>2025-07-10T11:54:12.000Z</time>
      </trkpt>
      <trkpt lat="44.8986" lon="5.80595">
        <ele>772.54522</ele>
        <time>2025-07-10T11:54:13.000Z</time>
      </trkpt>
      <trkpt lat="44.89861" lon="5.80592">
        <ele>772.675289</ele>
        <time>2025-07-10T11:54:14.000Z</time>
      </trkpt>
      <trkpt lat="44.89862" lon="5.8059">
        <ele>772.808672</ele>
        <time>2025-07-10T11:54:15.000Z</time>
      </trkpt>
      <trkpt lat="44.89863" lon="5.80588">
        <ele>772.937121</ele>
        <time>2025-07-10T11:54:16.000Z</time>
      </trkpt>
      <trkpt lat="44.89863" lon="5.80585">
        <ele>773.071765</ele>
        <time>2025-07-10T11:54:17.000Z</time>
      </trkpt>
      <trkpt lat="44.89864" lon="5.80583">
        <ele>773.208225</ele>
        <time>2025-07-10T11:54:18.000Z</time>
      </trkpt>
      <trkpt lat="44.89865" lon="5.8058">
        <ele>773.352121</ele>
        <time>2025-07-10T11:54:19.000Z</time>
      </trkpt>
      <trkpt lat="44.89866" lon="5.80578">
        <ele>773.486765</ele>
        <time>2025-07-10T11:54:20.000Z</time>
      </trkpt>
      <trkpt lat="44.89867" lon="5.80576">
        <ele>773.619457</ele>
        <time>2025-07-10T11:54:21.000Z</time>
      </trkpt>
      <trkpt lat="44.89868" lon="5.80573">
        <ele>773.757305</ele>
        <time>2025-07-10T11:54:22.000Z</time>
      </trkpt>
      <trkpt lat="44.89869" lon="5.80571">
        <ele>773.899659</ele>
        <time>2025-07-10T11:54:23.000Z</time>
      </trkpt>
      <trkpt lat="44.89869" lon="5.80568">
        <ele>774.034303</ele>
        <time>2025-07-10T11:54:24.000Z</time>
      </trkpt>
      <trkpt lat="44.8987" lon="5.80566">
        <ele>774.161376</ele>
        <time>2025-07-10T11:54:25.000Z</time>
      </trkpt>
      <trkpt lat="44.89871" lon="5.80564">
        <ele>774.285795</ele>
        <time>2025-07-10T11:54:26.000Z</time>
      </trkpt>
      <trkpt lat="44.89871" lon="5.80562">
        <ele>774.412868</ele>
        <time>2025-07-10T11:54:27.000Z</time>
      </trkpt>
      <trkpt lat="44.89872" lon="5.80559">
        <ele>774.535294</ele>
        <time>2025-07-10T11:54:28.000Z</time>
      </trkpt>
      <trkpt lat="44.89873" lon="5.80557">
        <ele>774.651887</ele>
        <time>2025-07-10T11:54:29.000Z</time>
      </trkpt>
      <trkpt lat="44.89873" lon="5.80555">
        <ele>774.783753</ele>
        <time>2025-07-10T11:54:30.000Z</time>
      </trkpt>
      <trkpt lat="44.89874" lon="5.80552">
        <ele>774.920512</ele>
        <time>2025-07-10T11:54:31.000Z</time>
      </trkpt>
      <trkpt lat="44.89874" lon="5.8055">
        <ele>775.045978</ele>
        <time>2025-07-10T11:54:32.000Z</time>
      </trkpt>
      <trkpt lat="44.89875" lon="5.80547">
        <ele>775.179188</ele>
        <time>2025-07-10T11:54:33.000Z</time>
      </trkpt>
      <trkpt lat="44.89875" lon="5.80545">
        <ele>775.309699</ele>
        <time>2025-07-10T11:54:34.000Z</time>
      </trkpt>
      <trkpt lat="44.89876" lon="5.80543">
        <ele>775.440209</ele>
        <time>2025-07-10T11:54:35.000Z</time>
      </trkpt>
      <trkpt lat="44.89876" lon="5.8054">
        <ele>775.568492</ele>
        <time>2025-07-10T11:54:36.000Z</time>
      </trkpt>
      <trkpt lat="44.89877" lon="5.80538">
        <ele>775.696774</ele>
        <time>2025-07-10T11:54:37.000Z</time>
      </trkpt>
      <trkpt lat="44.89877" lon="5.80535">
        <ele>775.820146</ele>
        <time>2025-07-10T11:54:38.000Z</time>
      </trkpt>
      <trkpt lat="44.89878" lon="5.80533">
        <ele>775.943518</ele>
        <time>2025-07-10T11:54:39.000Z</time>
      </trkpt>
      <trkpt lat="44.89878" lon="5.80531">
        <ele>776.066889</ele>
        <time>2025-07-10T11:54:40.000Z</time>
      </trkpt>
      <trkpt lat="44.89879" lon="5.80529">
        <ele>776.192576</ele>
        <time>2025-07-10T11:54:41.000Z</time>
      </trkpt>
      <trkpt lat="44.8988" lon="5.80526">
        <ele>776.328591</ele>
        <time>2025-07-10T11:54:42.000Z</time>
      </trkpt>
      <trkpt lat="44.89881" lon="5.80524">
        <ele>776.473952</ele>
        <time>2025-07-10T11:54:43.000Z</time>
      </trkpt>
      <trkpt lat="44.89881" lon="5.80521">
        <ele>776.607163</ele>
        <time>2025-07-10T11:54:44.000Z</time>
      </trkpt>
      <trkpt lat="44.89882" lon="5.80519">
        <ele>776.732849</ele>
        <time>2025-07-10T11:54:45.000Z</time>
      </trkpt>
      <trkpt lat="44.89882" lon="5.80516">
        <ele>776.852774</ele>
        <time>2025-07-10T11:54:46.000Z</time>
      </trkpt>
      <trkpt lat="44.89882" lon="5.80514">
        <ele>776.987857</ele>
        <time>2025-07-10T11:54:47.000Z</time>
      </trkpt>
      <trkpt lat="44.89883" lon="5.80511">
        <ele>777.124292</ele>
        <time>2025-07-10T11:54:48.000Z</time>
      </trkpt>
      <trkpt lat="44.89883" lon="5.80509">
        <ele>777.265741</ele>
        <time>2025-07-10T11:54:49.000Z</time>
      </trkpt>
      <trkpt lat="44.89884" lon="5.80506">
        <ele>777.413815</ele>
        <time>2025-07-10T11:54:50.000Z</time>
      </trkpt>
      <trkpt lat="44.89884" lon="5.80503">
        <ele>777.560288</ele>
        <time>2025-07-10T11:54:51.000Z</time>
      </trkpt>
      <trkpt lat="44.89885" lon="5.805">
        <ele>777.713339</ele>
        <time>2025-07-10T11:54:52.000Z</time>
      </trkpt>
      <trkpt lat="44.89885" lon="5.80497">
        <ele>777.863347</ele>
        <time>2025-07-10T11:54:53.000Z</time>
      </trkpt>
      <trkpt lat="44.89886" lon="5.80495">
        <ele>778.006454</ele>
        <time>2025-07-10T11:54:54.000Z</time>
      </trkpt>
      <trkpt lat="44.89886" lon="5.80492">
        <ele>778.158716</ele>
        <time>2025-07-10T11:54:55.000Z</time>
      </trkpt>
      <trkpt lat="44.89887" lon="5.80489">
        <ele>778.297925</ele>
        <time>2025-07-10T11:54:56.000Z</time>
      </trkpt>
      <trkpt lat="44.89887" lon="5.80487">
        <ele>778.424356</ele>
        <time>2025-07-10T11:54:57.000Z</time>
      </trkpt>
      <trkpt lat="44.89887" lon="5.80484">
        <ele>778.557566</ele>
        <time>2025-07-10T11:54:58.000Z</time>
      </trkpt>
      <trkpt lat="44.89888" lon="5.80482">
        <ele>778.688994</ele>
        <time>2025-07-10T11:54:59.000Z</time>
      </trkpt>
      <trkpt lat="44.89888" lon="5.80479">
        <ele>778.823103</ele>
        <time>2025-07-10T11:55:00.000Z</time>
      </trkpt>
      <trkpt lat="44.89888" lon="5.80476">
        <ele>778.97339</ele>
        <time>2025-07-10T11:55:01.000Z</time>
      </trkpt>
      <trkpt lat="44.89889" lon="5.80473">
        <ele>779.123678</ele>
        <time>2025-07-10T11:55:02.000Z</time>
      </trkpt>
      <trkpt lat="44.89889" lon="5.8047">
        <ele>779.27518</ele>
        <time>2025-07-10T11:55:03.000Z</time>
      </trkpt>
      <trkpt lat="44.89889" lon="5.80468">
        <ele>779.421653</ele>
        <time>2025-07-10T11:55:04.000Z</time>
      </trkpt>
      <trkpt lat="44.8989" lon="5.80465">
        <ele>779.5618</ele>
        <time>2025-07-10T11:55:05.000Z</time>
      </trkpt>
      <trkpt lat="44.8989" lon="5.80462">
        <ele>779.713302</ele>
        <time>2025-07-10T11:55:06.000Z</time>
      </trkpt>
      <trkpt lat="44.89891" lon="5.80459">
        <ele>779.868225</ele>
        <time>2025-07-10T11:55:07.000Z</time>
      </trkpt>
      <trkpt lat="44.89891" lon="5.80456">
        <ele>780.009675</ele>
        <time>2025-07-10T11:55:08.000Z</time>
      </trkpt>
      <trkpt lat="44.89892" lon="5.80454">
        <ele>780.141103</ele>
        <time>2025-07-10T11:55:09.000Z</time>
      </trkpt>
      <trkpt lat="44.89891" lon="5.80451">
        <ele>780.266074</ele>
        <time>2025-07-10T11:55:10.000Z</time>
      </trkpt>
      <trkpt lat="44.89891" lon="5.80449">
        <ele>780.389144</ele>
        <time>2025-07-10T11:55:11.000Z</time>
      </trkpt>
      <trkpt lat="44.89892" lon="5.80446">
        <ele>780.529291</ele>
        <time>2025-07-10T11:55:12.000Z</time>
      </trkpt>
      <trkpt lat="44.89892" lon="5.80444">
        <ele>780.665725</ele>
        <time>2025-07-10T11:55:13.000Z</time>
      </trkpt>
      <trkpt lat="44.89892" lon="5.80441">
        <ele>780.795749</ele>
        <time>2025-07-10T11:55:14.000Z</time>
      </trkpt>
      <trkpt lat="44.89892" lon="5.80439">
        <ele>780.924762</ele>
        <time>2025-07-10T11:55:15.000Z</time>
      </trkpt>
      <trkpt lat="44.89893" lon="5.80436">
        <ele>781.064909</ele>
        <time>2025-07-10T11:55:16.000Z</time>
      </trkpt>
      <trkpt lat="44.89893" lon="5.80433">
        <ele>781.204118</ele>
        <time>2025-07-10T11:55:17.000Z</time>
      </trkpt>
      <trkpt lat="44.89893" lon="5.80431">
        <ele>781.348428</ele>
        <time>2025-07-10T11:55:18.000Z</time>
      </trkpt>
      <trkpt lat="44.89893" lon="5.80428">
        <ele>781.502435</ele>
        <time>2025-07-10T11:55:19.000Z</time>
      </trkpt>
      <trkpt lat="44.89893" lon="5.80425">
        <ele>781.646199</ele>
        <time>2025-07-10T11:55:20.000Z</time>
      </trkpt>
      <trkpt lat="44.89893" lon="5.80422">
        <ele>781.784842</ele>
        <time>2025-07-10T11:55:21.000Z</time>
      </trkpt>
      <trkpt lat="44.89893" lon="5.80419">
        <ele>781.93885</ele>
        <time>2025-07-10T11:55:22.000Z</time>
      </trkpt>
      <trkpt lat="44.89893" lon="5.80416">
        <ele>782.072372</ele>
        <time>2025-07-10T11:55:23.000Z</time>
      </trkpt>
      <trkpt lat="44.89894" lon="5.80414">
        <ele>782.200774</ele>
        <time>2025-07-10T11:55:24.000Z</time>
      </trkpt>
      <trkpt lat="44.89894" lon="5.80411">
        <ele>782.344356</ele>
        <time>2025-07-10T11:55:25.000Z</time>
      </trkpt>
      <trkpt lat="44.89894" lon="5.80408">
        <ele>782.498193</ele>
        <time>2025-07-10T11:55:26.000Z</time>
      </trkpt>
      <trkpt lat="44.89894" lon="5.80405">
        <ele>782.636647</ele>
        <time>2025-07-10T11:55:27.000Z</time>
      </trkpt>
      <trkpt lat="44.89894" lon="5.80403">
        <ele>782.754589</ele>
        <time>2025-07-10T11:55:28.000Z</time>
      </trkpt>
      <trkpt lat="44.89893" lon="5.80401">
        <ele>782.879561</ele>
        <time>2025-07-10T11:55:29.000Z</time>
      </trkpt>
      <trkpt lat="44.89893" lon="5.80398">
        <ele>783.013083</ele>
        <time>2025-07-10T11:55:30.000Z</time>
      </trkpt>
      <trkpt lat="44.89893" lon="5.80395">
        <ele>783.151726</ele>
        <time>2025-07-10T11:55:31.000Z</time>
      </trkpt>
      <trkpt lat="44.89893" lon="5.80393">
        <ele>783.290179</ele>
        <time>2025-07-10T11:55:32.000Z</time>
      </trkpt>
      <trkpt lat="44.89893" lon="5.8039">
        <ele>783.433943</ele>
        <time>2025-07-10T11:55:33.000Z</time>
      </trkpt>
      <trkpt lat="44.89893" lon="5.80387">
        <ele>783.573152</ele>
        <time>2025-07-10T11:55:34.000Z</time>
      </trkpt>
      <trkpt lat="44.89893" lon="5.80385">
        <ele>783.706478</ele>
        <time>2025-07-10T11:55:35.000Z</time>
      </trkpt>
      <trkpt lat="44.89893" lon="5.80382">
        <ele>783.850242</ele>
        <time>2025-07-10T11:55:36.000Z</time>
      </trkpt>
      <trkpt lat="44.89893" lon="5.80379">
        <ele>783.999655</ele>
        <time>2025-07-10T11:55:37.000Z</time>
      </trkpt>
      <trkpt lat="44.89892" lon="5.80376">
        <ele>784.138863</ele>
        <time>2025-07-10T11:55:38.000Z</time>
      </trkpt>
      <trkpt lat="44.89893" lon="5.80374">
        <ele>784.267266</ele>
        <time>2025-07-10T11:55:39.000Z</time>
      </trkpt>
      <trkpt lat="44.89893" lon="5.80371">
        <ele>784.38543</ele>
        <time>2025-07-10T11:55:40.000Z</time>
      </trkpt>
      <trkpt lat="44.89892" lon="5.80369">
        <ele>784.524638</ele>
        <time>2025-07-10T11:55:41.000Z</time>
      </trkpt>
      <trkpt lat="44.89892" lon="5.80366">
        <ele>784.673524</ele>
        <time>2025-07-10T11:55:42.000Z</time>
      </trkpt>
      <trkpt lat="44.89893" lon="5.80363">
        <ele>784.817834</ele>
        <time>2025-07-10T11:55:43.000Z</time>
      </trkpt>
      <trkpt lat="44.89893" lon="5.8036">
        <ele>784.957043</ele>
        <time>2025-07-10T11:55:44.000Z</time>
      </trkpt>
      <trkpt lat="44.89892" lon="5.80358">
        <ele>785.08847</ele>
        <time>2025-07-10T11:55:45.000Z</time>
      </trkpt>
      <trkpt lat="44.89892" lon="5.80355">
        <ele>785.219898</ele>
        <time>2025-07-10T11:55:46.000Z</time>
      </trkpt>
      <trkpt lat="44.89892" lon="5.80352">
        <ele>785.373906</ele>
        <time>2025-07-10T11:55:47.000Z</time>
      </trkpt>
      <trkpt lat="44.89892" lon="5.8035">
        <ele>785.51912</ele>
        <time>2025-07-10T11:55:48.000Z</time>
      </trkpt>
      <trkpt lat="44.89893" lon="5.80347">
        <ele>785.665593</ele>
        <time>2025-07-10T11:55:49.000Z</time>
      </trkpt>
      <trkpt lat="44.89893" lon="5.80344">
        <ele>785.800676</ele>
        <time>2025-07-10T11:55:50.000Z</time>
      </trkpt>
      <trkpt lat="44.89893" lon="5.80341">
        <ele>785.942125</ele>
        <time>2025-07-10T11:55:51.000Z</time>
      </trkpt>
      <trkpt lat="44.89894" lon="5.80339">
        <ele>786.077208</ele>
        <time>2025-07-10T11:55:52.000Z</time>
      </trkpt>
      <trkpt lat="44.89894" lon="5.80336">
        <ele>786.221518</ele>
        <time>2025-07-10T11:55:53.000Z</time>
      </trkpt>
      <trkpt lat="44.89894" lon="5.80333">
        <ele>786.365282</ele>
        <time>2025-07-10T11:55:54.000Z</time>
      </trkpt>
      <trkpt lat="44.89894" lon="5.8033">
        <ele>786.515569</ele>
        <time>2025-07-10T11:55:55.000Z</time>
      </trkpt>
      <trkpt lat="44.89895" lon="5.80328">
        <ele>786.657019</ele>
        <time>2025-07-10T11:55:56.000Z</time>
      </trkpt>
      <trkpt lat="44.89895" lon="5.80325">
        <ele>786.803491</ele>
        <time>2025-07-10T11:55:57.000Z</time>
      </trkpt>
      <trkpt lat="44.89895" lon="5.80322">
        <ele>786.943638</ele>
        <time>2025-07-10T11:55:58.000Z</time>
      </trkpt>
      <trkpt lat="44.89895" lon="5.80319">
        <ele>787.092523</ele>
        <time>2025-07-10T11:55:59.000Z</time>
      </trkpt>
      <trkpt lat="44.89896" lon="5.80316">
        <ele>787.241936</ele>
        <time>2025-07-10T11:56:00.000Z</time>
      </trkpt>
      <trkpt lat="44.89896" lon="5.80313">
        <ele>787.392223</ele>
        <time>2025-07-10T11:56:01.000Z</time>
      </trkpt>
      <trkpt lat="44.89896" lon="5.8031">
        <ele>787.547586</ele>
        <time>2025-07-10T11:56:02.000Z</time>
      </trkpt>
      <trkpt lat="44.89896" lon="5.80308">
        <ele>787.691895</ele>
        <time>2025-07-10T11:56:03.000Z</time>
      </trkpt>
      <trkpt lat="44.89897" lon="5.80305">
        <ele>787.839969</ele>
        <time>2025-07-10T11:56:04.000Z</time>
      </trkpt>
      <trkpt lat="44.89897" lon="5.80302">
        <ele>787.978121</ele>
        <time>2025-07-10T11:56:05.000Z</time>
      </trkpt>
      <trkpt lat="44.89898" lon="5.803">
        <ele>788.108615</ele>
        <time>2025-07-10T11:56:06.000Z</time>
      </trkpt>
      <trkpt lat="44.89898" lon="5.80297">
        <ele>788.23341</ele>
        <time>2025-07-10T11:56:07.000Z</time>
      </trkpt>
      <trkpt lat="44.89899" lon="5.80294">
        <ele>788.365404</ele>
        <time>2025-07-10T11:56:08.000Z</time>
      </trkpt>
      <trkpt lat="44.899" lon="5.80291">
        <ele>788.5034</ele>
        <time>2025-07-10T11:56:09.000Z</time>
      </trkpt>
      <trkpt lat="44.899" lon="5.80288">
        <ele>788.629559</ele>
        <time>2025-07-10T11:56:10.000Z</time>
      </trkpt>
      <trkpt lat="44.899" lon="5.80285">
        <ele>788.757603</ele>
        <time>2025-07-10T11:56:11.000Z</time>
      </trkpt>
      <trkpt lat="44.89901" lon="5.80282">
        <ele>788.888002</ele>
        <time>2025-07-10T11:56:12.000Z</time>
      </trkpt>
      <trkpt lat="44.89902" lon="5.80279">
        <ele>789.028917</ele>
        <time>2025-07-10T11:56:13.000Z</time>
      </trkpt>
      <trkpt lat="44.89903" lon="5.80277">
        <ele>789.14877</ele>
        <time>2025-07-10T11:56:14.000Z</time>
      </trkpt>
      <trkpt lat="44.89903" lon="5.80274">
        <ele>789.276636</ele>
        <time>2025-07-10T11:56:15.000Z</time>
      </trkpt>
      <trkpt lat="44.89904" lon="5.80272">
        <ele>789.400483</ele>
        <time>2025-07-10T11:56:16.000Z</time>
      </trkpt>
      <trkpt lat="44.89905" lon="5.80269">
        <ele>789.52433</ele>
        <time>2025-07-10T11:56:17.000Z</time>
      </trkpt>
      <trkpt lat="44.89906" lon="5.80266">
        <ele>789.656237</ele>
        <time>2025-07-10T11:56:18.000Z</time>
      </trkpt>
      <trkpt lat="44.89907" lon="5.80263">
        <ele>789.784103</ele>
        <time>2025-07-10T11:56:19.000Z</time>
      </trkpt>
      <trkpt lat="44.89907" lon="5.80261">
        <ele>789.90155</ele>
        <time>2025-07-10T11:56:20.000Z</time>
      </trkpt>
      <trkpt lat="44.89909" lon="5.80259">
        <ele>790.033549</ele>
        <time>2025-07-10T11:56:21.000Z</time>
      </trkpt>
      <trkpt lat="44.8991" lon="5.80256">
        <ele>790.154795</ele>
        <time>2025-07-10T11:56:22.000Z</time>
      </trkpt>
      <trkpt lat="44.89911" lon="5.80254">
        <ele>790.269594</ele>
        <time>2025-07-10T11:56:23.000Z</time>
      </trkpt>
      <trkpt lat="44.89912" lon="5.80252">
        <ele>790.384393</ele>
        <time>2025-07-10T11:56:24.000Z</time>
      </trkpt>
      <trkpt lat="44.89912" lon="5.80249">
        <ele>790.503035</ele>
        <time>2025-07-10T11:56:25.000Z</time>
      </trkpt>
      <trkpt lat="44.89913" lon="5.80247">
        <ele>790.624556</ele>
        <time>2025-07-10T11:56:26.000Z</time>
      </trkpt>
      <trkpt lat="44.89914" lon="5.80244">
        <ele>790.744408</ele>
        <time>2025-07-10T11:56:27.000Z</time>
      </trkpt>
      <trkpt lat="44.89915" lon="5.80242">
        <ele>790.866058</ele>
        <time>2025-07-10T11:56:28.000Z</time>
      </trkpt>
      <trkpt lat="44.89916" lon="5.8024">
        <ele>790.976611</ele>
        <time>2025-07-10T11:56:29.000Z</time>
      </trkpt>
      <trkpt lat="44.89917" lon="5.80237">
        <ele>791.097922</ele>
        <time>2025-07-10T11:56:30.000Z</time>
      </trkpt>
      <trkpt lat="44.89918" lon="5.80235">
        <ele>791.219572</ele>
        <time>2025-07-10T11:56:31.000Z</time>
      </trkpt>
      <trkpt lat="44.89919" lon="5.80233">
        <ele>791.339424</ele>
        <time>2025-07-10T11:56:32.000Z</time>
      </trkpt>
      <trkpt lat="44.8992" lon="5.8023">
        <ele>791.463271</ele>
        <time>2025-07-10T11:56:33.000Z</time>
      </trkpt>
      <trkpt lat="44.89921" lon="5.80227">
        <ele>791.592529</ele>
        <time>2025-07-10T11:56:34.000Z</time>
      </trkpt>
      <trkpt lat="44.89922" lon="5.80225">
        <ele>791.715049</ele>
        <time>2025-07-10T11:56:35.000Z</time>
      </trkpt>
      <trkpt lat="44.89922" lon="5.80222">
        <ele>791.834901</ele>
        <time>2025-07-10T11:56:36.000Z</time>
      </trkpt>
      <trkpt lat="44.89923" lon="5.8022">
        <ele>791.953543</ele>
        <time>2025-07-10T11:56:37.000Z</time>
      </trkpt>
      <trkpt lat="44.89924" lon="5.80218">
        <ele>792.075193</ele>
        <time>2025-07-10T11:56:38.000Z</time>
      </trkpt>
      <trkpt lat="44.89925" lon="5.80215">
        <ele>792.195045</ele>
        <time>2025-07-10T11:56:39.000Z</time>
      </trkpt>
      <trkpt lat="44.89926" lon="5.80213">
        <ele>792.317565</ele>
        <time>2025-07-10T11:56:40.000Z</time>
      </trkpt>
      <trkpt lat="44.89927" lon="5.80211">
        <ele>792.424519</ele>
        <time>2025-07-10T11:56:41.000Z</time>
      </trkpt>
      <trkpt lat="44.89928" lon="5.80208">
        <ele>792.531753</ele>
        <time>2025-07-10T11:56:42.000Z</time>
      </trkpt>
      <trkpt lat="44.89929" lon="5.80206">
        <ele>792.656643</ele>
        <time>2025-07-10T11:56:43.000Z</time>
      </trkpt>
      <trkpt lat="44.8993" lon="5.80204">
        <ele>792.781533</ele>
        <time>2025-07-10T11:56:44.000Z</time>
      </trkpt>
      <trkpt lat="44.89931" lon="5.80201">
        <ele>792.899183</ele>
        <time>2025-07-10T11:56:45.000Z</time>
      </trkpt>
      <trkpt lat="44.89932" lon="5.80199">
        <ele>793.023984</ele>
        <time>2025-07-10T11:56:46.000Z</time>
      </trkpt>
      <trkpt lat="44.89933" lon="5.80197">
        <ele>793.145634</ele>
        <time>2025-07-10T11:56:47.000Z</time>
      </trkpt>
      <trkpt lat="44.89935" lon="5.80195">
        <ele>793.270804</ele>
        <time>2025-07-10T11:56:48.000Z</time>
      </trkpt>
      <trkpt lat="44.89936" lon="5.80192">
        <ele>793.395605</ele>
        <time>2025-07-10T11:56:49.000Z</time>
      </trkpt>
      <trkpt lat="44.89937" lon="5.8019">
        <ele>793.534864</ele>
        <time>2025-07-10T11:56:50.000Z</time>
      </trkpt>
      <trkpt lat="44.89938" lon="5.80187">
        <ele>793.663444</ele>
        <time>2025-07-10T11:56:51.000Z</time>
      </trkpt>
      <trkpt lat="44.89939" lon="5.80185">
        <ele>793.795382</ele>
        <time>2025-07-10T11:56:52.000Z</time>
      </trkpt>
      <trkpt lat="44.8994" lon="5.80182">
        <ele>793.920817</ele>
        <time>2025-07-10T11:56:53.000Z</time>
      </trkpt>
      <trkpt lat="44.89941" lon="5.80179">
        <ele>794.044663</ele>
        <time>2025-07-10T11:56:54.000Z</time>
      </trkpt>
      <trkpt lat="44.89942" lon="5.80177">
        <ele>794.178999</ele>
        <time>2025-07-10T11:56:55.000Z</time>
      </trkpt>
      <trkpt lat="44.89943" lon="5.80174">
        <ele>794.294883</ele>
        <time>2025-07-10T11:56:56.000Z</time>
      </trkpt>
      <trkpt lat="44.89944" lon="5.80172">
        <ele>794.413525</ele>
        <time>2025-07-10T11:56:57.000Z</time>
      </trkpt>
      <trkpt lat="44.89945" lon="5.8017">
        <ele>794.528323</ele>
        <time>2025-07-10T11:56:58.000Z</time>
      </trkpt>
      <trkpt lat="44.89946" lon="5.80167">
        <ele>794.646965</ele>
        <time>2025-07-10T11:56:59.000Z</time>
      </trkpt>
      <trkpt lat="44.89947" lon="5.80165">
        <ele>794.761763</ele>
        <time>2025-07-10T11:57:00.000Z</time>
      </trkpt>
      <trkpt lat="44.89948" lon="5.80162">
        <ele>794.897844</ele>
        <time>2025-07-10T11:57:01.000Z</time>
      </trkpt>
      <trkpt lat="44.89949" lon="5.80159">
        <ele>795.033924</ele>
        <time>2025-07-10T11:57:02.000Z</time>
      </trkpt>
      <trkpt lat="44.8995" lon="5.80157">
        <ele>795.152566</ele>
        <time>2025-07-10T11:57:03.000Z</time>
      </trkpt>
      <trkpt lat="44.89951" lon="5.80155">
        <ele>795.271207</ele>
        <time>2025-07-10T11:57:04.000Z</time>
      </trkpt>
      <trkpt lat="44.89951" lon="5.80152">
        <ele>795.3824</ele>
        <time>2025-07-10T11:57:05.000Z</time>
      </trkpt>
      <trkpt lat="44.89952" lon="5.8015">
        <ele>795.485395</ele>
        <time>2025-07-10T11:57:06.000Z</time>
      </trkpt>
      <trkpt lat="44.89953" lon="5.80148">
        <ele>795.601279</ele>
        <time>2025-07-10T11:57:07.000Z</time>
      </trkpt>
      <trkpt lat="44.89953" lon="5.80145">
        <ele>795.717163</ele>
        <time>2025-07-10T11:57:08.000Z</time>
      </trkpt>
      <trkpt lat="44.89954" lon="5.80143">
        <ele>795.826531</ele>
        <time>2025-07-10T11:57:09.000Z</time>
      </trkpt>
      <trkpt lat="44.89955" lon="5.80141">
        <ele>795.935899</ele>
        <time>2025-07-10T11:57:10.000Z</time>
      </trkpt>
      <trkpt lat="44.89956" lon="5.80138">
        <ele>796.050697</ele>
        <time>2025-07-10T11:57:11.000Z</time>
      </trkpt>
      <trkpt lat="44.89957" lon="5.80136">
        <ele>796.171942</ele>
        <time>2025-07-10T11:57:12.000Z</time>
      </trkpt>
      <trkpt lat="44.89958" lon="5.80134">
        <ele>796.301149</ele>
        <time>2025-07-10T11:57:13.000Z</time>
      </trkpt>
      <trkpt lat="44.8996" lon="5.80132">
        <ele>796.432958</ele>
        <time>2025-07-10T11:57:14.000Z</time>
      </trkpt>
      <trkpt lat="44.89961" lon="5.8013">
        <ele>796.552736</ele>
        <time>2025-07-10T11:57:15.000Z</time>
      </trkpt>
      <trkpt lat="44.89962" lon="5.80128">
        <ele>796.667248</ele>
        <time>2025-07-10T11:57:16.000Z</time>
      </trkpt>
      <trkpt lat="44.89963" lon="5.80126">
        <ele>796.777874</ele>
        <time>2025-07-10T11:57:17.000Z</time>
      </trkpt>
      <trkpt lat="44.89965" lon="5.80124">
        <ele>796.903043</ele>
        <time>2025-07-10T11:57:18.000Z</time>
      </trkpt>
      <trkpt lat="44.89966" lon="5.80122">
        <ele>797.029034</ele>
        <time>2025-07-10T11:57:19.000Z</time>
      </trkpt>
      <trkpt lat="44.89967" lon="5.8012">
        <ele>797.140248</ele>
        <time>2025-07-10T11:57:20.000Z</time>
      </trkpt>
      <trkpt lat="44.89969" lon="5.80118">
        <ele>797.269456</ele>
        <time>2025-07-10T11:57:21.000Z</time>
      </trkpt>
      <trkpt lat="44.8997" lon="5.80116">
        <ele>797.393753</ele>
        <time>2025-07-10T11:57:22.000Z</time>
      </trkpt>
      <trkpt lat="44.89972" lon="5.80114">
        <ele>797.519771</ele>
        <time>2025-07-10T11:57:23.000Z</time>
      </trkpt>
      <trkpt lat="44.89974" lon="5.80112">
        <ele>797.640705</ele>
        <time>2025-07-10T11:57:24.000Z</time>
      </trkpt>
      <trkpt lat="44.89975" lon="5.80111">
        <ele>797.759952</ele>
        <time>2025-07-10T11:57:25.000Z</time>
      </trkpt>
      <trkpt lat="44.89977" lon="5.8011">
        <ele>797.86097</ele>
        <time>2025-07-10T11:57:26.000Z</time>
      </trkpt>
      <trkpt lat="44.89978" lon="5.80109">
        <ele>797.972717</ele>
        <time>2025-07-10T11:57:27.000Z</time>
      </trkpt>
      <trkpt lat="44.8998" lon="5.80107">
        <ele>798.091963</ele>
        <time>2025-07-10T11:57:28.000Z</time>
      </trkpt>
      <trkpt lat="44.89982" lon="5.80106">
        <ele>798.209192</ele>
        <time>2025-07-10T11:57:29.000Z</time>
      </trkpt>
      <trkpt lat="44.89983" lon="5.80105">
        <ele>798.324534</ele>
        <time>2025-07-10T11:57:30.000Z</time>
      </trkpt>
      <trkpt lat="44.89985" lon="5.80104">
        <ele>798.455398</ele>
        <time>2025-07-10T11:57:31.000Z</time>
      </trkpt>
      <trkpt lat="44.89987" lon="5.80103">
        <ele>798.583778</ele>
        <time>2025-07-10T11:57:32.000Z</time>
      </trkpt>
      <trkpt lat="44.89989" lon="5.80102">
        <ele>798.708845</ele>
        <time>2025-07-10T11:57:33.000Z</time>
      </trkpt>
      <trkpt lat="44.89991" lon="5.80101">
        <ele>798.837226</ele>
        <time>2025-07-10T11:57:34.000Z</time>
      </trkpt>
      <trkpt lat="44.89993" lon="5.801">
        <ele>798.971261</ele>
        <time>2025-07-10T11:57:35.000Z</time>
      </trkpt>
      <trkpt lat="44.89995" lon="5.80099">
        <ele>799.102125</ele>
        <time>2025-07-10T11:57:36.000Z</time>
      </trkpt>
      <trkpt lat="44.89997" lon="5.80098">
        <ele>799.216794</ele>
        <time>2025-07-10T11:57:37.000Z</time>
      </trkpt>
      <trkpt lat="44.89999" lon="5.80097">
        <ele>799.333705</ele>
        <time>2025-07-10T11:57:38.000Z</time>
      </trkpt>
      <trkpt lat="44.90001" lon="5.80096">
        <ele>799.448247</ele>
        <time>2025-07-10T11:57:39.000Z</time>
      </trkpt>
      <trkpt lat="44.90003" lon="5.80095">
        <ele>799.556323</ele>
        <time>2025-07-10T11:57:40.000Z</time>
      </trkpt>
      <trkpt lat="44.90005" lon="5.80094">
        <ele>799.66291</ele>
        <time>2025-07-10T11:57:41.000Z</time>
      </trkpt>
      <trkpt lat="44.90007" lon="5.80093">
        <ele>799.778577</ele>
        <time>2025-07-10T11:57:42.000Z</time>
      </trkpt>
      <trkpt lat="44.90009" lon="5.80092">
        <ele>799.891241</ele>
        <time>2025-07-10T11:57:43.000Z</time>
      </trkpt>
      <trkpt lat="44.9001" lon="5.80091">
        <ele>799.99272</ele>
        <time>2025-07-10T11:57:44.000Z</time>
      </trkpt>
      <trkpt lat="44.90012" lon="5.8009">
        <ele>800.101971</ele>
        <time>2025-07-10T11:57:45.000Z</time>
      </trkpt>
      <trkpt lat="44.90014" lon="5.80089">
        <ele>800.2124</ele>
        <time>2025-07-10T11:57:46.000Z</time>
      </trkpt>
      <trkpt lat="44.90016" lon="5.80088">
        <ele>800.320477</ele>
        <time>2025-07-10T11:57:47.000Z</time>
      </trkpt>
      <trkpt lat="44.90018" lon="5.80087">
        <ele>800.427064</ele>
        <time>2025-07-10T11:57:48.000Z</time>
      </trkpt>
      <trkpt lat="44.90019" lon="5.80086">
        <ele>800.537528</ele>
        <time>2025-07-10T11:57:49.000Z</time>
      </trkpt>
      <trkpt lat="44.90021" lon="5.80085">
        <ele>800.618558</ele>
        <time>2025-07-10T11:57:50.000Z</time>
      </trkpt>
      <trkpt lat="44.90022" lon="5.80084">
        <ele>800.718601</ele>
        <time>2025-07-10T11:57:51.000Z</time>
      </trkpt>
      <trkpt lat="44.90025" lon="5.80083">
        <ele>800.851209</ele>
        <time>2025-07-10T11:57:52.000Z</time>
      </trkpt>
      <trkpt lat="44.90027" lon="5.80082">
        <ele>800.972137</ele>
        <time>2025-07-10T11:57:53.000Z</time>
      </trkpt>
      <trkpt lat="44.90028" lon="5.80081">
        <ele>801.07218</ele>
        <time>2025-07-10T11:57:54.000Z</time>
      </trkpt>
      <trkpt lat="44.9003" lon="5.8008">
        <ele>801.176162</ele>
        <time>2025-07-10T11:57:55.000Z</time>
      </trkpt>
      <trkpt lat="44.90032" lon="5.80079">
        <ele>801.262616</ele>
        <time>2025-07-10T11:57:56.000Z</time>
      </trkpt>
      <trkpt lat="44.90033" lon="5.80078">
        <ele>801.356145</ele>
        <time>2025-07-10T11:57:57.000Z</time>
      </trkpt>
      <trkpt lat="44.90035" lon="5.80077">
        <ele>801.462732</ele>
        <time>2025-07-10T11:57:58.000Z</time>
      </trkpt>
      <trkpt lat="44.90037" lon="5.80076">
        <ele>801.567952</ele>
        <time>2025-07-10T11:57:59.000Z</time>
      </trkpt>
      <trkpt lat="44.90039" lon="5.80076">
        <ele>801.678381</ele>
        <time>2025-07-10T11:58:00.000Z</time>
      </trkpt>
      <trkpt lat="44.9004" lon="5.80075">
        <ele>801.778424</ele>
        <time>2025-07-10T11:58:01.000Z</time>
      </trkpt>
      <trkpt lat="44.90042" lon="5.80074">
        <ele>801.879903</ele>
        <time>2025-07-10T11:58:02.000Z</time>
      </trkpt>
      <trkpt lat="44.90044" lon="5.80073">
        <ele>801.98649</ele>
        <time>2025-07-10T11:58:03.000Z</time>
      </trkpt>
      <trkpt lat="44.90045" lon="5.80072">
        <ele>802.077895</ele>
        <time>2025-07-10T11:58:04.000Z</time>
      </trkpt>
      <trkpt lat="44.90047" lon="5.80071">
        <ele>802.1693</ele>
        <time>2025-07-10T11:58:05.000Z</time>
      </trkpt>
      <trkpt lat="44.90049" lon="5.80069">
        <ele>802.274029</ele>
        <time>2025-07-10T11:58:06.000Z</time>
      </trkpt>
      <trkpt lat="44.9005" lon="5.80068">
        <ele>802.375509</ele>
        <time>2025-07-10T11:58:07.000Z</time>
      </trkpt>
      <trkpt lat="44.90052" lon="5.80067">
        <ele>802.487241</ele>
        <time>2025-07-10T11:58:08.000Z</time>
      </trkpt>
      <trkpt lat="44.90054" lon="5.80067">
        <ele>802.587284</ele>
        <time>2025-07-10T11:58:09.000Z</time>
      </trkpt>
      <trkpt lat="44.90055" lon="5.80066">
        <ele>802.673738</ele>
        <time>2025-07-10T11:58:10.000Z</time>
      </trkpt>
      <trkpt lat="44.90057" lon="5.80064">
        <ele>802.771799</ele>
        <time>2025-07-10T11:58:11.000Z</time>
      </trkpt>
      <trkpt lat="44.90058" lon="5.80063">
        <ele>802.862047</ele>
        <time>2025-07-10T11:58:12.000Z</time>
      </trkpt>
      <trkpt lat="44.9006" lon="5.80061">
        <ele>802.974778</ele>
        <time>2025-07-10T11:58:13.000Z</time>
      </trkpt>
      <trkpt lat="44.90062" lon="5.8006">
        <ele>803.089952</ele>
        <time>2025-07-10T11:58:14.000Z</time>
      </trkpt>
      <trkpt lat="44.90063" lon="5.80059">
        <ele>803.188013</ele>
        <time>2025-07-10T11:58:15.000Z</time>
      </trkpt>
      <trkpt lat="44.90065" lon="5.80058">
        <ele>803.297698</ele>
        <time>2025-07-10T11:58:16.000Z</time>
      </trkpt>
      <trkpt lat="44.90067" lon="5.80056">
        <ele>803.404231</ele>
        <time>2025-07-10T11:58:17.000Z</time>
      </trkpt>
      <trkpt lat="44.90069" lon="5.80055">
        <ele>803.519404</ele>
        <time>2025-07-10T11:58:18.000Z</time>
      </trkpt>
      <trkpt lat="44.9007" lon="5.80053">
        <ele>803.634577</ele>
        <time>2025-07-10T11:58:19.000Z</time>
      </trkpt>
      <trkpt lat="44.90072" lon="5.80052">
        <ele>803.747816</ele>
        <time>2025-07-10T11:58:20.000Z</time>
      </trkpt>
      <trkpt lat="44.90074" lon="5.80051">
        <ele>803.842351</ele>
        <time>2025-07-10T11:58:21.000Z</time>
      </trkpt>
      <trkpt lat="44.90075" lon="5.80049">
        <ele>803.943638</ele>
        <time>2025-07-10T11:58:22.000Z</time>
      </trkpt>
      <trkpt lat="44.90077" lon="5.80048">
        <ele>804.047361</ele>
        <time>2025-07-10T11:58:23.000Z</time>
      </trkpt>
      <trkpt lat="44.90079" lon="5.80046">
        <ele>804.165456</ele>
        <time>2025-07-10T11:58:24.000Z</time>
      </trkpt>
      <trkpt lat="44.9008" lon="5.80045">
        <ele>804.271288</ele>
        <time>2025-07-10T11:58:25.000Z</time>
      </trkpt>
      <trkpt lat="44.90082" lon="5.80043">
        <ele>804.377278</ele>
        <time>2025-07-10T11:58:26.000Z</time>
      </trkpt>
      <trkpt lat="44.90083" lon="5.80041">
        <ele>804.483268</ele>
        <time>2025-07-10T11:58:27.000Z</time>
      </trkpt>
      <trkpt lat="44.90085" lon="5.8004">
        <ele>804.589259</ele>
        <time>2025-07-10T11:58:28.000Z</time>
      </trkpt>
      <trkpt lat="44.90086" lon="5.80038">
        <ele>804.69509</ele>
        <time>2025-07-10T11:58:29.000Z</time>
      </trkpt>
      <trkpt lat="44.90088" lon="5.80036">
        <ele>804.801081</ele>
        <time>2025-07-10T11:58:30.000Z</time>
      </trkpt>
      <trkpt lat="44.90089" lon="5.80035">
        <ele>804.909557</ele>
        <time>2025-07-10T11:58:31.000Z</time>
      </trkpt>
      <trkpt lat="44.90091" lon="5.80033">
        <ele>805.007198</ele>
        <time>2025-07-10T11:58:32.000Z</time>
      </trkpt>
      <trkpt lat="44.90092" lon="5.80031">
        <ele>805.111537</ele>
        <time>2025-07-10T11:58:33.000Z</time>
      </trkpt>
      <trkpt lat="44.90093" lon="5.80029">
        <ele>805.217527</ele>
        <time>2025-07-10T11:58:34.000Z</time>
      </trkpt>
      <trkpt lat="44.90095" lon="5.80028">
        <ele>805.328571</ele>
        <time>2025-07-10T11:58:35.000Z</time>
      </trkpt>
      <trkpt lat="44.90096" lon="5.80026">
        <ele>805.422244</ele>
        <time>2025-07-10T11:58:36.000Z</time>
      </trkpt>
      <trkpt lat="44.90097" lon="5.80024">
        <ele>805.518721</ele>
        <time>2025-07-10T11:58:37.000Z</time>
      </trkpt>
      <trkpt lat="44.90099" lon="5.80022">
        <ele>805.629765</ele>
        <time>2025-07-10T11:58:38.000Z</time>
      </trkpt>
      <trkpt lat="44.901" lon="5.8002">
        <ele>805.739512</ele>
        <time>2025-07-10T11:58:39.000Z</time>
      </trkpt>
      <trkpt lat="44.90102" lon="5.80018">
        <ele>805.850556</ele>
        <time>2025-07-10T11:58:40.000Z</time>
      </trkpt>
      <trkpt lat="44.90103" lon="5.80016">
        <ele>805.957562</ele>
        <time>2025-07-10T11:58:41.000Z</time>
      </trkpt>
      <trkpt lat="44.90105" lon="5.80014">
        <ele>806.064568</ele>
        <time>2025-07-10T11:58:42.000Z</time>
      </trkpt>
      <trkpt lat="44.90106" lon="5.80012">
        <ele>806.178255</ele>
        <time>2025-07-10T11:58:43.000Z</time>
      </trkpt>
      <trkpt lat="44.90108" lon="5.80011">
        <ele>806.290986</ele>
        <time>2025-07-10T11:58:44.000Z</time>
      </trkpt>
      <trkpt lat="44.90109" lon="5.80009">
        <ele>806.403718</ele>
        <time>2025-07-10T11:58:45.000Z</time>
      </trkpt>
      <trkpt lat="44.90111" lon="5.80007">
        <ele>806.514762</ele>
        <time>2025-07-10T11:58:46.000Z</time>
      </trkpt>
      <trkpt lat="44.90112" lon="5.80005">
        <ele>806.628449</ele>
        <time>2025-07-10T11:58:47.000Z</time>
      </trkpt>
      <trkpt lat="44.90114" lon="5.80003">
        <ele>806.74554</ele>
        <time>2025-07-10T11:58:48.000Z</time>
      </trkpt>
      <trkpt lat="44.90116" lon="5.80001">
        <ele>806.855881</ele>
        <time>2025-07-10T11:58:49.000Z</time>
      </trkpt>
      <trkpt lat="44.90117" lon="5.8">
        <ele>806.96392</ele>
        <time>2025-07-10T11:58:50.000Z</time>
      </trkpt>
      <trkpt lat="44.90119" lon="5.79998">
        <ele>807.076651</ele>
        <time>2025-07-10T11:58:51.000Z</time>
      </trkpt>
      <trkpt lat="44.9012" lon="5.79996">
        <ele>807.183657</ele>
        <time>2025-07-10T11:58:52.000Z</time>
      </trkpt>
      <trkpt lat="44.90122" lon="5.79994">
        <ele>807.294701</ele>
        <time>2025-07-10T11:58:53.000Z</time>
      </trkpt>
      <trkpt lat="44.90123" lon="5.79992">
        <ele>807.408388</ele>
        <time>2025-07-10T11:58:54.000Z</time>
      </trkpt>
      <trkpt lat="44.90125" lon="5.7999">
        <ele>807.530323</ele>
        <time>2025-07-10T11:58:55.000Z</time>
      </trkpt>
      <trkpt lat="44.90127" lon="5.79988">
        <ele>807.654792</ele>
        <time>2025-07-10T11:58:56.000Z</time>
      </trkpt>
      <trkpt lat="44.90128" lon="5.79986">
        <ele>807.779261</ele>
        <time>2025-07-10T11:58:57.000Z</time>
      </trkpt>
      <trkpt lat="44.9013" lon="5.79984">
        <ele>807.905477</ele>
        <time>2025-07-10T11:58:58.000Z</time>
      </trkpt>
      <trkpt lat="44.90132" lon="5.79982">
        <ele>808.027412</ele>
        <time>2025-07-10T11:58:59.000Z</time>
      </trkpt>
      <trkpt lat="44.90133" lon="5.7998">
        <ele>808.142841</ele>
        <time>2025-07-10T11:59:00.000Z</time>
      </trkpt>
      <trkpt lat="44.90135" lon="5.79978">
        <ele>808.262023</ele>
        <time>2025-07-10T11:59:01.000Z</time>
      </trkpt>
      <trkpt lat="44.90136" lon="5.79975">
        <ele>808.387845</ele>
        <time>2025-07-10T11:59:02.000Z</time>
      </trkpt>
      <trkpt lat="44.90138" lon="5.79973">
        <ele>808.509869</ele>
        <time>2025-07-10T11:59:03.000Z</time>
      </trkpt>
      <trkpt lat="44.90139" lon="5.79971">
        <ele>808.639611</ele>
        <time>2025-07-10T11:59:04.000Z</time>
      </trkpt>
      <trkpt lat="44.90141" lon="5.79969">
        <ele>808.762679</ele>
        <time>2025-07-10T11:59:05.000Z</time>
      </trkpt>
      <trkpt lat="44.90143" lon="5.79966">
        <ele>808.891314</ele>
        <time>2025-07-10T11:59:06.000Z</time>
      </trkpt>
      <trkpt lat="44.90144" lon="5.79964">
        <ele>809.017136</ele>
        <time>2025-07-10T11:59:07.000Z</time>
      </trkpt>
      <trkpt lat="44.90146" lon="5.79962">
        <ele>809.111899</ele>
        <time>2025-07-10T11:59:08.000Z</time>
      </trkpt>
      <trkpt lat="44.90148" lon="5.79959">
        <ele>809.206151</ele>
        <time>2025-07-10T11:59:09.000Z</time>
      </trkpt>
      <trkpt lat="44.90149" lon="5.79957">
        <ele>809.293199</ele>
        <time>2025-07-10T11:59:10.000Z</time>
      </trkpt>
      <trkpt lat="44.9015" lon="5.79954">
        <ele>809.375675</ele>
        <time>2025-07-10T11:59:11.000Z</time>
      </trkpt>
      <trkpt lat="44.90152" lon="5.79952">
        <ele>809.458723</ele>
        <time>2025-07-10T11:59:12.000Z</time>
      </trkpt>
      <trkpt lat="44.90153" lon="5.7995">
        <ele>809.540893</ele>
        <time>2025-07-10T11:59:13.000Z</time>
      </trkpt>
      <trkpt lat="44.90155" lon="5.79947">
        <ele>809.623369</ele>
        <time>2025-07-10T11:59:14.000Z</time>
      </trkpt>
      <trkpt lat="44.90156" lon="5.79945">
        <ele>809.701288</ele>
        <time>2025-07-10T11:59:15.000Z</time>
      </trkpt>
      <trkpt lat="44.90157" lon="5.79943">
        <ele>809.788336</ele>
        <time>2025-07-10T11:59:16.000Z</time>
      </trkpt>
      <trkpt lat="44.90159" lon="5.7994">
        <ele>809.872734</ele>
        <time>2025-07-10T11:59:17.000Z</time>
      </trkpt>
      <trkpt lat="44.9016" lon="5.79938">
        <ele>809.954866</ele>
        <time>2025-07-10T11:59:18.000Z</time>
      </trkpt>
      <trkpt lat="44.90161" lon="5.79935">
        <ele>810.034908</ele>
        <time>2025-07-10T11:59:19.000Z</time>
      </trkpt>
      <trkpt lat="44.90162" lon="5.79933">
        <ele>810.119306</ele>
        <time>2025-07-10T11:59:20.000Z</time>
      </trkpt>
      <trkpt lat="44.90163" lon="5.7993">
        <ele>810.199347</ele>
        <time>2025-07-10T11:59:21.000Z</time>
      </trkpt>
      <trkpt lat="44.90164" lon="5.79928">
        <ele>810.281479</ele>
        <time>2025-07-10T11:59:22.000Z</time>
      </trkpt>
      <trkpt lat="44.90166" lon="5.79925">
        <ele>810.363649</ele>
        <time>2025-07-10T11:59:23.000Z</time>
      </trkpt>
      <trkpt lat="44.90167" lon="5.79923">
        <ele>810.448677</ele>
        <time>2025-07-10T11:59:24.000Z</time>
      </trkpt>
      <trkpt lat="44.90169" lon="5.79921">
        <ele>810.52911</ele>
        <time>2025-07-10T11:59:25.000Z</time>
      </trkpt>
      <trkpt lat="44.9017" lon="5.79918">
        <ele>810.607194</ele>
        <time>2025-07-10T11:59:26.000Z</time>
      </trkpt>
      <trkpt lat="44.90171" lon="5.79916">
        <ele>810.685277</ele>
        <time>2025-07-10T11:59:27.000Z</time>
      </trkpt>
      <trkpt lat="44.90172" lon="5.79913">
        <ele>810.769988</ele>
        <time>2025-07-10T11:59:28.000Z</time>
      </trkpt>
      <trkpt lat="44.90173" lon="5.79911">
        <ele>810.852157</ele>
        <time>2025-07-10T11:59:29.000Z</time>
      </trkpt>
      <trkpt lat="44.90174" lon="5.79908">
        <ele>810.934327</ele>
        <time>2025-07-10T11:59:30.000Z</time>
      </trkpt>
      <trkpt lat="44.90176" lon="5.79906">
        <ele>811.024733</ele>
        <time>2025-07-10T11:59:31.000Z</time>
      </trkpt>
      <trkpt lat="44.90178" lon="5.79904">
        <ele>811.119083</ele>
        <time>2025-07-10T11:59:32.000Z</time>
      </trkpt>
      <trkpt lat="44.9018" lon="5.79902">
        <ele>811.205452</ele>
        <time>2025-07-10T11:59:33.000Z</time>
      </trkpt>
      <trkpt lat="44.90182" lon="5.79901">
        <ele>811.285371</ele>
        <time>2025-07-10T11:59:34.000Z</time>
      </trkpt>
      <trkpt lat="44.90184" lon="5.799">
        <ele>811.380055</ele>
        <time>2025-07-10T11:59:35.000Z</time>
      </trkpt>
      <trkpt lat="44.90187" lon="5.799">
        <ele>811.476199</ele>
        <time>2025-07-10T11:59:36.000Z</time>
      </trkpt>
      <trkpt lat="44.90189" lon="5.799">
        <ele>811.576065</ele>
        <time>2025-07-10T11:59:37.000Z</time>
      </trkpt>
      <trkpt lat="44.90192" lon="5.79899">
        <ele>811.66587</ele>
        <time>2025-07-10T11:59:38.000Z</time>
      </trkpt>
      <trkpt lat="44.90194" lon="5.79898">
        <ele>811.759966</ele>
        <time>2025-07-10T11:59:39.000Z</time>
      </trkpt>
      <trkpt lat="44.90196" lon="5.79897">
        <ele>811.852622</ele>
        <time>2025-07-10T11:59:40.000Z</time>
      </trkpt>
      <trkpt lat="44.90198" lon="5.79895">
        <ele>811.940476</ele>
        <time>2025-07-10T11:59:41.000Z</time>
      </trkpt>
      <trkpt lat="44.902" lon="5.79893">
        <ele>812.03189</ele>
        <time>2025-07-10T11:59:42.000Z</time>
      </trkpt>
      <trkpt lat="44.90202" lon="5.79891">
        <ele>812.132673</ele>
        <time>2025-07-10T11:59:43.000Z</time>
      </trkpt>
      <trkpt lat="44.90203" lon="5.79888">
        <ele>812.232645</ele>
        <time>2025-07-10T11:59:44.000Z</time>
      </trkpt>
      <trkpt lat="44.90205" lon="5.79885">
        <ele>812.329381</ele>
        <time>2025-07-10T11:59:45.000Z</time>
      </trkpt>
      <trkpt lat="44.90206" lon="5.79881">
        <ele>812.431037</ele>
        <time>2025-07-10T11:59:46.000Z</time>
      </trkpt>
      <trkpt lat="44.90207" lon="5.79878">
        <ele>812.529014</ele>
        <time>2025-07-10T11:59:47.000Z</time>
      </trkpt>
      <trkpt lat="44.90208" lon="5.79875">
        <ele>812.624491</ele>
        <time>2025-07-10T11:59:48.000Z</time>
      </trkpt>
      <trkpt lat="44.9021" lon="5.79873">
        <ele>812.724214</ele>
        <time>2025-07-10T11:59:49.000Z</time>
      </trkpt>
      <trkpt lat="44.90212" lon="5.79871">
        <ele>812.824619</ele>
        <time>2025-07-10T11:59:50.000Z</time>
      </trkpt>
      <trkpt lat="44.90215" lon="5.79869">
        <ele>812.920915</ele>
        <time>2025-07-10T11:59:51.000Z</time>
      </trkpt>
      <trkpt lat="44.90217" lon="5.79868">
        <ele>813.023209</ele>
        <time>2025-07-10T11:59:52.000Z</time>
      </trkpt>
      <trkpt lat="44.9022" lon="5.79866">
        <ele>813.121908</ele>
        <time>2025-07-10T11:59:53.000Z</time>
      </trkpt>
      <trkpt lat="44.90222" lon="5.79865">
        <ele>813.229751</ele>
        <time>2025-07-10T11:59:54.000Z</time>
      </trkpt>
      <trkpt lat="44.90225" lon="5.79864">
        <ele>813.341344</ele>
        <time>2025-07-10T11:59:55.000Z</time>
      </trkpt>
      <trkpt lat="44.90228" lon="5.79863">
        <ele>813.451604</ele>
        <time>2025-07-10T11:59:56.000Z</time>
      </trkpt>
      <trkpt lat="44.9023" lon="5.79862">
        <ele>813.556549</ele>
        <time>2025-07-10T11:59:57.000Z</time>
      </trkpt>
      <trkpt lat="44.90233" lon="5.79862">
        <ele>813.668195</ele>
        <time>2025-07-10T11:59:58.000Z</time>
      </trkpt>
      <trkpt lat="44.90236" lon="5.79861">
        <ele>813.768946</ele>
        <time>2025-07-10T11:59:59.000Z</time>
      </trkpt>
      <trkpt lat="44.90238" lon="5.7986">
        <ele>813.86949</ele>
        <time>2025-07-10T12:00:00.000Z</time>
      </trkpt>
      <trkpt lat="44.90241" lon="5.79859">
        <ele>813.979021</ele>
        <time>2025-07-10T12:00:01.000Z</time>
      </trkpt>
      <trkpt lat="44.90244" lon="5.79858">
        <ele>814.085865</ele>
        <time>2025-07-10T12:00:02.000Z</time>
      </trkpt>
      <trkpt lat="44.90246" lon="5.79856">
        <ele>814.184314</ele>
        <time>2025-07-10T12:00:03.000Z</time>
      </trkpt>
      <trkpt lat="44.90248" lon="5.79854">
        <ele>814.291319</ele>
        <time>2025-07-10T12:00:04.000Z</time>
      </trkpt>
      <trkpt lat="44.90251" lon="5.79852">
        <ele>814.396488</ele>
        <time>2025-07-10T12:00:05.000Z</time>
      </trkpt>
      <trkpt lat="44.90253" lon="5.7985">
        <ele>814.504239</ele>
        <time>2025-07-10T12:00:06.000Z</time>
      </trkpt>
      <trkpt lat="44.90256" lon="5.79848">
        <ele>814.614255</ele>
        <time>2025-07-10T12:00:07.000Z</time>
      </trkpt>
      <trkpt lat="44.90258" lon="5.79847">
        <ele>814.717353</ele>
        <time>2025-07-10T12:00:08.000Z</time>
      </trkpt>
      <trkpt lat="44.90261" lon="5.79845">
        <ele>814.823896</ele>
        <time>2025-07-10T12:00:09.000Z</time>
      </trkpt>
      <trkpt lat="44.90263" lon="5.79843">
        <ele>814.924672</ele>
        <time>2025-07-10T12:00:10.000Z</time>
      </trkpt>
      <trkpt lat="44.90265" lon="5.79842">
        <ele>815.024353</ele>
        <time>2025-07-10T12:00:11.000Z</time>
      </trkpt>
      <trkpt lat="44.90268" lon="5.7984">
        <ele>815.127451</ele>
        <time>2025-07-10T12:00:12.000Z</time>
      </trkpt>
      <trkpt lat="44.9027" lon="5.79838">
        <ele>815.232842</ele>
        <time>2025-07-10T12:00:13.000Z</time>
      </trkpt>
      <trkpt lat="44.90273" lon="5.79837">
        <ele>815.334749</ele>
        <time>2025-07-10T12:00:14.000Z</time>
      </trkpt>
      <trkpt lat="44.90275" lon="5.79835">
        <ele>815.437847</ele>
        <time>2025-07-10T12:00:15.000Z</time>
      </trkpt>
      <trkpt lat="44.90278" lon="5.79834">
        <ele>815.539754</ele>
        <time>2025-07-10T12:00:16.000Z</time>
      </trkpt>
      <trkpt lat="44.9028" lon="5.79832">
        <ele>815.644053</ele>
        <time>2025-07-10T12:00:17.000Z</time>
      </trkpt>
      <trkpt lat="44.90283" lon="5.7983">
        <ele>815.749444</ele>
        <time>2025-07-10T12:00:18.000Z</time>
      </trkpt>
      <trkpt lat="44.90285" lon="5.79829">
        <ele>815.853743</ele>
        <time>2025-07-10T12:00:19.000Z</time>
      </trkpt>
      <trkpt lat="44.90287" lon="5.79827">
        <ele>815.960043</ele>
        <time>2025-07-10T12:00:20.000Z</time>
      </trkpt>
      <trkpt lat="44.9029" lon="5.79826">
        <ele>816.114727</ele>
        <time>2025-07-10T12:00:21.000Z</time>
      </trkpt>
      <trkpt lat="44.90292" lon="5.79824">
        <ele>816.267879</ele>
        <time>2025-07-10T12:00:22.000Z</time>
      </trkpt>
      <trkpt lat="44.90295" lon="5.79823">
        <ele>816.415753</ele>
        <time>2025-07-10T12:00:23.000Z</time>
      </trkpt>
      <trkpt lat="44.90297" lon="5.79822">
        <ele>816.562134</ele>
        <time>2025-07-10T12:00:24.000Z</time>
      </trkpt>
      <trkpt lat="44.903" lon="5.79821">
        <ele>816.710099</ele>
        <time>2025-07-10T12:00:25.000Z</time>
      </trkpt>
      <trkpt lat="44.90302" lon="5.7982">
        <ele>816.855084</ele>
        <time>2025-07-10T12:00:26.000Z</time>
      </trkpt>
      <trkpt lat="44.90304" lon="5.79818">
        <ele>816.994715</ele>
        <time>2025-07-10T12:00:27.000Z</time>
      </trkpt>
      <trkpt lat="44.90307" lon="5.79817">
        <ele>817.13721</ele>
        <time>2025-07-10T12:00:28.000Z</time>
      </trkpt>
      <trkpt lat="44.90309" lon="5.79816">
        <ele>817.275493</ele>
        <time>2025-07-10T12:00:29.000Z</time>
      </trkpt>
      <trkpt lat="44.90311" lon="5.79815">
        <ele>817.413777</ele>
        <time>2025-07-10T12:00:30.000Z</time>
      </trkpt>
      <trkpt lat="44.90314" lon="5.79814">
        <ele>817.555183</ele>
        <time>2025-07-10T12:00:31.000Z</time>
      </trkpt>
      <trkpt lat="44.90316" lon="5.79813">
        <ele>817.695608</ele>
        <time>2025-07-10T12:00:32.000Z</time>
      </trkpt>
      <trkpt lat="44.90319" lon="5.79813">
        <ele>817.836033</ele>
        <time>2025-07-10T12:00:33.000Z</time>
      </trkpt>
      <trkpt lat="44.90321" lon="5.79812">
        <ele>817.963583</ele>
        <time>2025-07-10T12:00:34.000Z</time>
      </trkpt>
      <trkpt lat="44.90323" lon="5.79811">
        <ele>818.099493</ele>
        <time>2025-07-10T12:00:35.000Z</time>
      </trkpt>
      <trkpt lat="44.90325" lon="5.7981">
        <ele>818.231104</ele>
        <time>2025-07-10T12:00:36.000Z</time>
      </trkpt>
      <trkpt lat="44.90328" lon="5.79809">
        <ele>818.371529</ele>
        <time>2025-07-10T12:00:37.000Z</time>
      </trkpt>
      <trkpt lat="44.9033" lon="5.79808">
        <ele>818.511954</ele>
        <time>2025-07-10T12:00:38.000Z</time>
      </trkpt>
      <trkpt lat="44.90332" lon="5.79807">
        <ele>818.645936</ele>
        <time>2025-07-10T12:00:39.000Z</time>
      </trkpt>
      <trkpt lat="44.90335" lon="5.79806">
        <ele>818.793809</ele>
        <time>2025-07-10T12:00:40.000Z</time>
      </trkpt>
      <trkpt lat="44.90337" lon="5.79805">
        <ele>818.926999</ele>
        <time>2025-07-10T12:00:41.000Z</time>
      </trkpt>
      <trkpt lat="44.90339" lon="5.79805">
        <ele>819.056367</ele>
        <time>2025-07-10T12:00:42.000Z</time>
      </trkpt>
      <trkpt lat="44.90342" lon="5.79804">
        <ele>819.192277</ele>
        <time>2025-07-10T12:00:43.000Z</time>
      </trkpt>
      <trkpt lat="44.90344" lon="5.79803">
        <ele>819.32424</ele>
        <time>2025-07-10T12:00:44.000Z</time>
      </trkpt>
      <trkpt lat="44.90346" lon="5.79803">
        <ele>819.456203</ele>
        <time>2025-07-10T12:00:45.000Z</time>
      </trkpt>
      <trkpt lat="44.90349" lon="5.79802">
        <ele>819.594996</ele>
        <time>2025-07-10T12:00:46.000Z</time>
      </trkpt>
      <trkpt lat="44.90351" lon="5.79802">
        <ele>819.721309</ele>
        <time>2025-07-10T12:00:47.000Z</time>
      </trkpt>
      <trkpt lat="44.90353" lon="5.79802">
        <ele>819.83584</ele>
        <time>2025-07-10T12:00:48.000Z</time>
      </trkpt>
      <trkpt lat="44.90355" lon="5.79801">
        <ele>819.949801</ele>
        <time>2025-07-10T12:00:49.000Z</time>
      </trkpt>
      <trkpt lat="44.90357" lon="5.79801">
        <ele>820.063976</ele>
        <time>2025-07-10T12:00:50.000Z</time>
      </trkpt>
      <trkpt lat="44.90359" lon="5.79801">
        <ele>820.179002</ele>
        <time>2025-07-10T12:00:51.000Z</time>
      </trkpt>
      <trkpt lat="44.9036" lon="5.798">
        <ele>820.277144</ele>
        <time>2025-07-10T12:00:52.000Z</time>
      </trkpt>
      <trkpt lat="44.90362" lon="5.798">
        <ele>820.380906</ele>
        <time>2025-07-10T12:00:53.000Z</time>
      </trkpt>
      <trkpt lat="44.90364" lon="5.798">
        <ele>820.484119</ele>
        <time>2025-07-10T12:00:54.000Z</time>
      </trkpt>
      <trkpt lat="44.90366" lon="5.79799">
        <ele>820.594177</ele>
        <time>2025-07-10T12:00:55.000Z</time>
      </trkpt>
      <trkpt lat="44.90368" lon="5.79799">
        <ele>820.71545</ele>
        <time>2025-07-10T12:00:56.000Z</time>
      </trkpt>
      <trkpt lat="44.9037" lon="5.79798">
        <ele>820.825508</ele>
        <time>2025-07-10T12:00:57.000Z</time>
      </trkpt>
      <trkpt lat="44.90372" lon="5.79798">
        <ele>820.929271</ele>
        <time>2025-07-10T12:00:58.000Z</time>
      </trkpt>
      <trkpt lat="44.90374" lon="5.79797">
        <ele>821.033736</ele>
        <time>2025-07-10T12:00:59.000Z</time>
      </trkpt>
      <trkpt lat="44.90375" lon="5.79797">
        <ele>821.131878</ele>
        <time>2025-07-10T12:01:00.000Z</time>
      </trkpt>
      <trkpt lat="44.90377" lon="5.79797">
        <ele>821.23509</ele>
        <time>2025-07-10T12:01:01.000Z</time>
      </trkpt>
      <trkpt lat="44.90379" lon="5.79796">
        <ele>821.330476</ele>
        <time>2025-07-10T12:01:02.000Z</time>
      </trkpt>
      <trkpt lat="44.9038" lon="5.79795">
        <ele>821.430261</ele>
        <time>2025-07-10T12:01:03.000Z</time>
      </trkpt>
      <trkpt lat="44.90382" lon="5.79795">
        <ele>821.53558</ele>
        <time>2025-07-10T12:01:04.000Z</time>
      </trkpt>
      <trkpt lat="44.90384" lon="5.79794">
        <ele>821.645638</ele>
        <time>2025-07-10T12:01:05.000Z</time>
      </trkpt>
      <trkpt lat="44.90386" lon="5.79794">
        <ele>821.753833</ele>
        <time>2025-07-10T12:01:06.000Z</time>
      </trkpt>
      <trkpt lat="44.90388" lon="5.79794">
        <ele>821.856334</ele>
        <time>2025-07-10T12:01:07.000Z</time>
      </trkpt>
      <trkpt lat="44.90389" lon="5.79794">
        <ele>821.942604</ele>
        <time>2025-07-10T12:01:08.000Z</time>
      </trkpt>
      <trkpt lat="44.90391" lon="5.79794">
        <ele>822.035133</ele>
        <time>2025-07-10T12:01:09.000Z</time>
      </trkpt>
      <trkpt lat="44.90393" lon="5.79793">
        <ele>822.132692</ele>
        <time>2025-07-10T12:01:10.000Z</time>
      </trkpt>
      <trkpt lat="44.90394" lon="5.79793">
        <ele>822.236455</ele>
        <time>2025-07-10T12:01:11.000Z</time>
      </trkpt>
      <trkpt lat="44.90396" lon="5.79792">
        <ele>822.34092</ele>
        <time>2025-07-10T12:01:12.000Z</time>
      </trkpt>
      <trkpt lat="44.90398" lon="5.79792">
        <ele>822.450312</ele>
        <time>2025-07-10T12:01:13.000Z</time>
      </trkpt>
      <trkpt lat="44.904" lon="5.79791">
        <ele>822.571584</ele>
        <time>2025-07-10T12:01:14.000Z</time>
      </trkpt>
      <trkpt lat="44.90402" lon="5.79791">
        <ele>822.680454</ele>
        <time>2025-07-10T12:01:15.000Z</time>
      </trkpt>
      <trkpt lat="44.90404" lon="5.79791">
        <ele>822.778013</ele>
        <time>2025-07-10T12:01:16.000Z</time>
      </trkpt>
      <trkpt lat="44.90406" lon="5.79791">
        <ele>822.881225</ele>
        <time>2025-07-10T12:01:17.000Z</time>
      </trkpt>
      <trkpt lat="44.90407" lon="5.7979">
        <ele>822.984438</ele>
        <time>2025-07-10T12:01:18.000Z</time>
      </trkpt>
      <trkpt lat="44.90409" lon="5.7979">
        <ele>823.087255</ele>
        <time>2025-07-10T12:01:19.000Z</time>
      </trkpt>
      <trkpt lat="44.90411" lon="5.7979">
        <ele>823.202282</ele>
        <time>2025-07-10T12:01:20.000Z</time>
      </trkpt>
      <trkpt lat="44.90413" lon="5.79789">
        <ele>823.294194</ele>
        <time>2025-07-10T12:01:21.000Z</time>
      </trkpt>
      <trkpt lat="44.90415" lon="5.79789">
        <ele>823.397406</ele>
        <time>2025-07-10T12:01:22.000Z</time>
      </trkpt>
      <trkpt lat="44.90416" lon="5.79789">
        <ele>823.507464</ele>
        <time>2025-07-10T12:01:23.000Z</time>
      </trkpt>
      <trkpt lat="44.90418" lon="5.79788">
        <ele>823.610282</ele>
        <time>2025-07-10T12:01:24.000Z</time>
      </trkpt>
      <trkpt lat="44.9042" lon="5.79788">
        <ele>823.713494</ele>
        <time>2025-07-10T12:01:25.000Z</time>
      </trkpt>
      <trkpt lat="44.90422" lon="5.79788">
        <ele>823.810384</ele>
        <time>2025-07-10T12:01:26.000Z</time>
      </trkpt>
      <trkpt lat="44.90423" lon="5.79788">
        <ele>823.901852</ele>
        <time>2025-07-10T12:01:27.000Z</time>
      </trkpt>
      <trkpt lat="44.90425" lon="5.79788">
        <ele>823.998994</ele>
        <time>2025-07-10T12:01:28.000Z</time>
      </trkpt>
      <trkpt lat="44.90427" lon="5.79788">
        <ele>824.095884</ele>
        <time>2025-07-10T12:01:29.000Z</time>
      </trkpt>
      <trkpt lat="44.90428" lon="5.79788">
        <ele>824.194768</ele>
        <time>2025-07-10T12:01:30.000Z</time>
      </trkpt>
      <trkpt lat="44.9043" lon="5.79787">
        <ele>824.300087</ele>
        <time>2025-07-10T12:01:31.000Z</time>
      </trkpt>
      <trkpt lat="44.90432" lon="5.79786">
        <ele>824.407546</ele>
        <time>2025-07-10T12:01:32.000Z</time>
      </trkpt>
      <trkpt lat="44.90434" lon="5.79785">
        <ele>824.519364</ele>
        <time>2025-07-10T12:01:33.000Z</time>
      </trkpt>
      <trkpt lat="44.90436" lon="5.79785">
        <ele>824.623127</ele>
        <time>2025-07-10T12:01:34.000Z</time>
      </trkpt>
      <trkpt lat="44.90437" lon="5.79785">
        <ele>824.720269</ele>
        <time>2025-07-10T12:01:35.000Z</time>
      </trkpt>
      <trkpt lat="44.90439" lon="5.79784">
        <ele>824.830327</ele>
        <time>2025-07-10T12:01:36.000Z</time>
      </trkpt>
      <trkpt lat="44.90441" lon="5.79784">
        <ele>824.929211</ele>
        <time>2025-07-10T12:01:37.000Z</time>
      </trkpt>
      <trkpt lat="44.90443" lon="5.79783">
        <ele>825.03453</ele>
        <time>2025-07-10T12:01:38.000Z</time>
      </trkpt>
      <trkpt lat="44.90445" lon="5.79783">
        <ele>825.138996</ele>
        <time>2025-07-10T12:01:39.000Z</time>
      </trkpt>
      <trkpt lat="44.90447" lon="5.79782">
        <ele>825.247865</ele>
        <time>2025-07-10T12:01:40.000Z</time>
      </trkpt>
      <trkpt lat="44.90449" lon="5.79782">
        <ele>825.362396</ele>
        <time>2025-07-10T12:01:41.000Z</time>
      </trkpt>
      <trkpt lat="44.9045" lon="5.79782">
        <ele>825.465608</ele>
        <time>2025-07-10T12:01:42.000Z</time>
      </trkpt>
      <trkpt lat="44.90452" lon="5.79781">
        <ele>825.573067</ele>
        <time>2025-07-10T12:01:43.000Z</time>
      </trkpt>
      <trkpt lat="44.90454" lon="5.7978">
        <ele>825.695075</ele>
        <time>2025-07-10T12:01:44.000Z</time>
      </trkpt>
      <trkpt lat="44.90456" lon="5.7978">
        <ele>825.801393</ele>
        <time>2025-07-10T12:01:45.000Z</time>
      </trkpt>
      <trkpt lat="44.90458" lon="5.79779">
        <ele>825.906712</ele>
        <time>2025-07-10T12:01:46.000Z</time>
      </trkpt>
      <trkpt lat="44.9046" lon="5.79779">
        <ele>826.011177</ele>
        <time>2025-07-10T12:01:47.000Z</time>
      </trkpt>
      <trkpt lat="44.90461" lon="5.79778">
        <ele>826.102486</ele>
        <time>2025-07-10T12:01:48.000Z</time>
      </trkpt>
      <trkpt lat="44.90463" lon="5.79777">
        <ele>826.209127</ele>
        <time>2025-07-10T12:01:49.000Z</time>
      </trkpt>
      <trkpt lat="44.90465" lon="5.79775">
        <ele>826.33955</ele>
        <time>2025-07-10T12:01:50.000Z</time>
      </trkpt>
      <trkpt lat="44.90466" lon="5.79774">
        <ele>826.451752</ele>
        <time>2025-07-10T12:01:51.000Z</time>
      </trkpt>
      <trkpt lat="44.90468" lon="5.79773">
        <ele>826.577912</ele>
        <time>2025-07-10T12:01:52.000Z</time>
      </trkpt>
      <trkpt lat="44.9047" lon="5.79771">
        <ele>826.707792</ele>
        <time>2025-07-10T12:01:53.000Z</time>
      </trkpt>
      <trkpt lat="44.90471" lon="5.7977">
        <ele>826.818838</ele>
        <time>2025-07-10T12:01:54.000Z</time>
      </trkpt>
      <trkpt lat="44.90473" lon="5.79769">
        <ele>826.948718</ele>
        <time>2025-07-10T12:01:55.000Z</time>
      </trkpt>
      <trkpt lat="44.90475" lon="5.79768">
        <ele>827.078597</ele>
        <time>2025-07-10T12:01:56.000Z</time>
      </trkpt>
      <trkpt lat="44.90477" lon="5.79767">
        <ele>827.199236</ele>
        <time>2025-07-10T12:01:57.000Z</time>
      </trkpt>
      <trkpt lat="44.90479" lon="5.79765">
        <ele>827.334836</ele>
        <time>2025-07-10T12:01:58.000Z</time>
      </trkpt>
      <trkpt lat="44.90481" lon="5.79764">
        <ele>827.466582</ele>
        <time>2025-07-10T12:01:59.000Z</time>
      </trkpt>
      <trkpt lat="44.90483" lon="5.79763">
        <ele>827.602416</ele>
        <time>2025-07-10T12:02:00.000Z</time>
      </trkpt>
      <trkpt lat="44.90484" lon="5.79761">
        <ele>827.732407</ele>
        <time>2025-07-10T12:02:01.000Z</time>
      </trkpt>
      <trkpt lat="44.90486" lon="5.79759">
        <ele>827.865001</ele>
        <time>2025-07-10T12:02:02.000Z</time>
      </trkpt>
      <trkpt lat="44.90488" lon="5.79757">
        <ele>827.992658</ele>
        <time>2025-07-10T12:02:03.000Z</time>
      </trkpt>
      <trkpt lat="44.90489" lon="5.79756">
        <ele>828.122649</ele>
        <time>2025-07-10T12:02:04.000Z</time>
      </trkpt>
      <trkpt lat="44.90491" lon="5.79754">
        <ele>828.25778</ele>
        <time>2025-07-10T12:02:05.000Z</time>
      </trkpt>
      <trkpt lat="44.90493" lon="5.79753">
        <ele>828.38199</ele>
        <time>2025-07-10T12:02:06.000Z</time>
      </trkpt>
      <trkpt lat="44.90495" lon="5.79752">
        <ele>828.510129</ele>
        <time>2025-07-10T12:02:07.000Z</time>
      </trkpt>
      <trkpt lat="44.90496" lon="5.7975">
        <ele>828.62233</ele>
        <time>2025-07-10T12:02:08.000Z</time>
      </trkpt>
      <trkpt lat="44.90498" lon="5.79749">
        <ele>828.737553</ele>
        <time>2025-07-10T12:02:09.000Z</time>
      </trkpt>
      <trkpt lat="44.90499" lon="5.79747">
        <ele>828.852251</ele>
        <time>2025-07-10T12:02:10.000Z</time>
      </trkpt>
      <trkpt lat="44.90501" lon="5.79745">
        <ele>828.977997</ele>
        <time>2025-07-10T12:02:11.000Z</time>
      </trkpt>
      <trkpt lat="44.90502" lon="5.79743">
        <ele>829.102947</ele>
        <time>2025-07-10T12:02:12.000Z</time>
      </trkpt>
      <trkpt lat="44.90504" lon="5.79742">
        <ele>829.22412</ele>
        <time>2025-07-10T12:02:13.000Z</time>
      </trkpt>
      <trkpt lat="44.90505" lon="5.7974">
        <ele>829.346959</ele>
        <time>2025-07-10T12:02:14.000Z</time>
      </trkpt>
      <trkpt lat="44.90507" lon="5.79738">
        <ele>829.482251</ele>
        <time>2025-07-10T12:02:15.000Z</time>
      </trkpt>
      <trkpt lat="44.90509" lon="5.79736">
        <ele>829.609908</ele>
        <time>2025-07-10T12:02:16.000Z</time>
      </trkpt>
      <trkpt lat="44.9051" lon="5.79734">
        <ele>829.725752</ele>
        <time>2025-07-10T12:02:17.000Z</time>
      </trkpt>
      <trkpt lat="44.90511" lon="5.79732">
        <ele>829.845003</ele>
        <time>2025-07-10T12:02:18.000Z</time>
      </trkpt>
      <trkpt lat="44.90512" lon="5.7973">
        <ele>829.960847</ele>
        <time>2025-07-10T12:02:19.000Z</time>
      </trkpt>
      <trkpt lat="44.90513" lon="5.79728">
        <ele>830.080098</ele>
        <time>2025-07-10T12:02:20.000Z</time>
      </trkpt>
      <trkpt lat="44.90515" lon="5.79726">
        <ele>830.20127</ele>
        <time>2025-07-10T12:02:21.000Z</time>
      </trkpt>
      <trkpt lat="44.90516" lon="5.79724">
        <ele>830.321242</ele>
        <time>2025-07-10T12:02:22.000Z</time>
      </trkpt>
      <trkpt lat="44.90517" lon="5.79722">
        <ele>830.429698</ele>
        <time>2025-07-10T12:02:23.000Z</time>
      </trkpt>
      <trkpt lat="44.90518" lon="5.7972">
        <ele>830.545133</ele>
        <time>2025-07-10T12:02:24.000Z</time>
      </trkpt>
      <trkpt lat="44.90519" lon="5.79718">
        <ele>830.65577</ele>
        <time>2025-07-10T12:02:25.000Z</time>
      </trkpt>
      <trkpt lat="44.9052" lon="5.79715">
        <ele>830.782841</ele>
        <time>2025-07-10T12:02:26.000Z</time>
      </trkpt>
      <trkpt lat="44.9052" lon="5.79712">
        <ele>830.901651</ele>
        <time>2025-07-10T12:02:27.000Z</time>
      </trkpt>
      <trkpt lat="44.90521" lon="5.7971">
        <ele>831.029549</ele>
        <time>2025-07-10T12:02:28.000Z</time>
      </trkpt>
      <trkpt lat="44.90522" lon="5.79707">
        <ele>831.161432</ele>
        <time>2025-07-10T12:02:29.000Z</time>
      </trkpt>
      <trkpt lat="44.90523" lon="5.79705">
        <ele>831.282675</ele>
        <time>2025-07-10T12:02:30.000Z</time>
      </trkpt>
      <trkpt lat="44.90524" lon="5.79702">
        <ele>831.410573</ele>
        <time>2025-07-10T12:02:31.000Z</time>
      </trkpt>
      <trkpt lat="44.90525" lon="5.79699">
        <ele>831.54401</ele>
        <time>2025-07-10T12:02:32.000Z</time>
      </trkpt>
      <trkpt lat="44.90525" lon="5.79696">
        <ele>831.677533</ele>
        <time>2025-07-10T12:02:33.000Z</time>
      </trkpt>
      <trkpt lat="44.90526" lon="5.79694">
        <ele>831.803773</ele>
        <time>2025-07-10T12:02:34.000Z</time>
      </trkpt>
      <trkpt lat="44.90526" lon="5.79691">
        <ele>831.931394</ele>
        <time>2025-07-10T12:02:35.000Z</time>
      </trkpt>
      <trkpt lat="44.90527" lon="5.79688">
        <ele>832.063304</ele>
        <time>2025-07-10T12:02:36.000Z</time>
      </trkpt>
      <trkpt lat="44.90527" lon="5.79685">
        <ele>832.188459</ele>
        <time>2025-07-10T12:02:37.000Z</time>
      </trkpt>
      <trkpt lat="44.90527" lon="5.79682">
        <ele>832.312835</ele>
        <time>2025-07-10T12:02:38.000Z</time>
      </trkpt>
      <trkpt lat="44.90527" lon="5.79679">
        <ele>832.450409</ele>
        <time>2025-07-10T12:02:39.000Z</time>
      </trkpt>
      <trkpt lat="44.90528" lon="5.79676">
        <ele>832.58967</ele>
        <time>2025-07-10T12:02:40.000Z</time>
      </trkpt>
      <trkpt lat="44.90528" lon="5.79673">
        <ele>832.71591</ele>
        <time>2025-07-10T12:02:41.000Z</time>
      </trkpt>
      <trkpt lat="44.90529" lon="5.79671">
        <ele>832.83925</ele>
        <time>2025-07-10T12:02:42.000Z</time>
      </trkpt>
      <trkpt lat="44.90529" lon="5.79668">
        <ele>832.974165</ele>
        <time>2025-07-10T12:02:43.000Z</time>
      </trkpt>
      <trkpt lat="44.9053" lon="5.79665">
        <ele>833.093234</ele>
        <time>2025-07-10T12:02:44.000Z</time>
      </trkpt>
      <trkpt lat="44.9053" lon="5.79662">
        <ele>833.212725</ele>
        <time>2025-07-10T12:02:45.000Z</time>
      </trkpt>
      <trkpt lat="44.9053" lon="5.79659">
        <ele>833.33663</ele>
        <time>2025-07-10T12:02:46.000Z</time>
      </trkpt>
      <trkpt lat="44.9053" lon="5.79656">
        <ele>833.473637</ele>
        <time>2025-07-10T12:02:47.000Z</time>
      </trkpt>
      <trkpt lat="44.9053" lon="5.79653">
        <ele>833.606224</ele>
        <time>2025-07-10T12:02:48.000Z</time>
      </trkpt>
      <trkpt lat="44.9053" lon="5.7965">
        <ele>833.734997</ele>
        <time>2025-07-10T12:02:49.000Z</time>
      </trkpt>
      <trkpt lat="44.9053" lon="5.79648">
        <ele>833.863771</ele>
        <time>2025-07-10T12:02:50.000Z</time>
      </trkpt>
      <trkpt lat="44.9053" lon="5.79645">
        <ele>833.988146</ele>
        <time>2025-07-10T12:02:51.000Z</time>
      </trkpt>
      <trkpt lat="44.9053" lon="5.79642">
        <ele>834.112051</ele>
        <time>2025-07-10T12:02:52.000Z</time>
      </trkpt>
      <trkpt lat="44.9053" lon="5.79639">
        <ele>834.24037</ele>
        <time>2025-07-10T12:02:53.000Z</time>
      </trkpt>
      <trkpt lat="44.90531" lon="5.79636">
        <ele>834.368689</ele>
        <time>2025-07-10T12:02:54.000Z</time>
      </trkpt>
      <trkpt lat="44.90531" lon="5.79634">
        <ele>834.479355</ele>
        <time>2025-07-10T12:02:55.000Z</time>
      </trkpt>
      <trkpt lat="44.9053" lon="5.79631">
        <ele>834.599334</ele>
        <time>2025-07-10T12:02:56.000Z</time>
      </trkpt>
      <trkpt lat="44.9053" lon="5.79629">
        <ele>834.705403</ele>
        <time>2025-07-10T12:02:57.000Z</time>
      </trkpt>
      <trkpt lat="44.90531" lon="5.79626">
        <ele>834.831643</ele>
        <time>2025-07-10T12:02:58.000Z</time>
      </trkpt>
      <trkpt lat="44.90531" lon="5.79623">
        <ele>834.946551</ele>
        <time>2025-07-10T12:02:59.000Z</time>
      </trkpt>
      <trkpt lat="44.90531" lon="5.79621">
        <ele>835.052804</ele>
        <time>2025-07-10T12:03:00.000Z</time>
      </trkpt>
      <trkpt lat="44.90531" lon="5.79618">
        <ele>835.164868</ele>
        <time>2025-07-10T12:03:01.000Z</time>
      </trkpt>
      <trkpt lat="44.90531" lon="5.79616">
        <ele>835.284196</ele>
        <time>2025-07-10T12:03:02.000Z</time>
      </trkpt>
      <trkpt lat="44.90531" lon="5.79613">
        <ele>835.395388</ele>
        <time>2025-07-10T12:03:03.000Z</time>
      </trkpt>
      <trkpt lat="44.90532" lon="5.79611">
        <ele>835.506579</ele>
        <time>2025-07-10T12:03:04.000Z</time>
      </trkpt>
      <trkpt lat="44.90532" lon="5.79608">
        <ele>835.621488</ele>
        <time>2025-07-10T12:03:05.000Z</time>
      </trkpt>
      <trkpt lat="44.90532" lon="5.79605">
        <ele>835.732153</ele>
        <time>2025-07-10T12:03:06.000Z</time>
      </trkpt>
      <trkpt lat="44.90531" lon="5.79603">
        <ele>835.833994</ele>
        <time>2025-07-10T12:03:07.000Z</time>
      </trkpt>
      <trkpt lat="44.90532" lon="5.79601">
        <ele>835.944659</ele>
        <time>2025-07-10T12:03:08.000Z</time>
      </trkpt>
      <trkpt lat="44.90532" lon="5.79598">
        <ele>836.063988</ele>
        <time>2025-07-10T12:03:09.000Z</time>
      </trkpt>
      <trkpt lat="44.90532" lon="5.79595">
        <ele>836.180411</ele>
        <time>2025-07-10T12:03:10.000Z</time>
      </trkpt>
      <trkpt lat="44.90532" lon="5.79593">
        <ele>836.28812</ele>
        <time>2025-07-10T12:03:11.000Z</time>
      </trkpt>
      <trkpt lat="44.90532" lon="5.7959">
        <ele>836.403198</ele>
        <time>2025-07-10T12:03:12.000Z</time>
      </trkpt>
      <trkpt lat="44.90532" lon="5.79588">
        <ele>836.518275</ele>
        <time>2025-07-10T12:03:13.000Z</time>
      </trkpt>
      <trkpt lat="44.90532" lon="5.79585">
        <ele>836.624345</ele>
        <time>2025-07-10T12:03:14.000Z</time>
      </trkpt>
      <trkpt lat="44.90533" lon="5.79583">
        <ele>836.732054</ele>
        <time>2025-07-10T12:03:15.000Z</time>
      </trkpt>
      <trkpt lat="44.90533" lon="5.79581">
        <ele>836.838306</ele>
        <time>2025-07-10T12:03:16.000Z</time>
      </trkpt>
      <trkpt lat="44.90533" lon="5.79578">
        <ele>836.953384</ele>
        <time>2025-07-10T12:03:17.000Z</time>
      </trkpt>
      <trkpt lat="44.90533" lon="5.79575">
        <ele>837.063873</ele>
        <time>2025-07-10T12:03:18.000Z</time>
      </trkpt>
      <trkpt lat="44.90533" lon="5.79573">
        <ele>837.178782</ele>
        <time>2025-07-10T12:03:19.000Z</time>
      </trkpt>
      <trkpt lat="44.90533" lon="5.7957">
        <ele>837.29386</ele>
        <time>2025-07-10T12:03:20.000Z</time>
      </trkpt>
      <trkpt lat="44.90533" lon="5.79568">
        <ele>837.401568</ele>
        <time>2025-07-10T12:03:21.000Z</time>
      </trkpt>
      <trkpt lat="44.90533" lon="5.79565">
        <ele>837.532227</ele>
        <time>2025-07-10T12:03:22.000Z</time>
      </trkpt>
      <trkpt lat="44.90533" lon="5.79563">
        <ele>837.671418</ele>
        <time>2025-07-10T12:03:23.000Z</time>
      </trkpt>
      <trkpt lat="44.90532" lon="5.7956">
        <ele>837.817852</ele>
        <time>2025-07-10T12:03:24.000Z</time>
      </trkpt>
      <trkpt lat="44.90532" lon="5.79558">
        <ele>837.952183</ele>
        <time>2025-07-10T12:03:25.000Z</time>
      </trkpt>
      <trkpt lat="44.90532" lon="5.79555">
        <ele>838.092037</ele>
        <time>2025-07-10T12:03:26.000Z</time>
      </trkpt>
      <trkpt lat="44.90532" lon="5.79553">
        <ele>838.231099</ele>
        <time>2025-07-10T12:03:27.000Z</time>
      </trkpt>
      <trkpt lat="44.90531" lon="5.79551">
        <ele>838.37205</ele>
        <time>2025-07-10T12:03:28.000Z</time>
      </trkpt>
      <trkpt lat="44.90531" lon="5.79548">
        <ele>838.528485</ele>
        <time>2025-07-10T12:03:29.000Z</time>
      </trkpt>
      <trkpt lat="44.90532" lon="5.79545">
        <ele>838.679391</ele>
        <time>2025-07-10T12:03:30.000Z</time>
      </trkpt>
      <trkpt lat="44.90532" lon="5.79543">
        <ele>838.813033</ele>
        <time>2025-07-10T12:03:31.000Z</time>
      </trkpt>
      <trkpt lat="44.90532" lon="5.7954">
        <ele>838.96312</ele>
        <time>2025-07-10T12:03:32.000Z</time>
      </trkpt>
      <trkpt lat="44.90532" lon="5.79537">
        <ele>839.107648</ele>
        <time>2025-07-10T12:03:33.000Z</time>
      </trkpt>
      <trkpt lat="44.90532" lon="5.79535">
        <ele>839.243121</ele>
        <time>2025-07-10T12:03:34.000Z</time>
      </trkpt>
      <trkpt lat="44.90532" lon="5.79532">
        <ele>839.385593</ele>
        <time>2025-07-10T12:03:35.000Z</time>
      </trkpt>
      <trkpt lat="44.90533" lon="5.7953">
        <ele>839.532026</ele>
        <time>2025-07-10T12:03:36.000Z</time>
      </trkpt>
      <trkpt lat="44.90533" lon="5.79527">
        <ele>839.671218</ele>
        <time>2025-07-10T12:03:37.000Z</time>
      </trkpt>
      <trkpt lat="44.90533" lon="5.79525">
        <ele>839.810187</ele>
        <time>2025-07-10T12:03:38.000Z</time>
      </trkpt>
      <trkpt lat="44.90533" lon="5.79522">
        <ele>839.961093</ele>
        <time>2025-07-10T12:03:39.000Z</time>
      </trkpt>
      <trkpt lat="44.90533" lon="5.7952">
        <ele>840.108992</ele>
        <time>2025-07-10T12:03:40.000Z</time>
      </trkpt>
      <trkpt lat="44.90533" lon="5.79517">
        <ele>840.242403</ele>
        <time>2025-07-10T12:03:41.000Z</time>
      </trkpt>
      <trkpt lat="44.90533" lon="5.79515">
        <ele>840.375814</ele>
        <time>2025-07-10T12:03:42.000Z</time>
      </trkpt>
      <trkpt lat="44.90533" lon="5.79512">
        <ele>840.510145</ele>
        <time>2025-07-10T12:03:43.000Z</time>
      </trkpt>
      <trkpt lat="44.90533" lon="5.7951">
        <ele>840.645618</ele>
        <time>2025-07-10T12:03:44.000Z</time>
      </trkpt>
      <trkpt lat="44.90533" lon="5.79507">
        <ele>840.802053</ele>
        <time>2025-07-10T12:03:45.000Z</time>
      </trkpt>
      <trkpt lat="44.90533" lon="5.79504">
        <ele>840.952959</ele>
        <time>2025-07-10T12:03:46.000Z</time>
      </trkpt>
      <trkpt lat="44.90533" lon="5.79502">
        <ele>841.100858</ele>
        <time>2025-07-10T12:03:47.000Z</time>
      </trkpt>
      <trkpt lat="44.90534" lon="5.79499">
        <ele>841.23633</ele>
        <time>2025-07-10T12:03:48.000Z</time>
      </trkpt>
      <trkpt lat="44.90534" lon="5.79497">
        <ele>841.382764</ele>
        <time>2025-07-10T12:03:49.000Z</time>
      </trkpt>
      <trkpt lat="44.90534" lon="5.79494">
        <ele>841.53367</ele>
        <time>2025-07-10T12:03:50.000Z</time>
      </trkpt>
      <trkpt lat="44.90534" lon="5.79491">
        <ele>841.683962</ele>
        <time>2025-07-10T12:03:51.000Z</time>
      </trkpt>
      <trkpt lat="44.90534" lon="5.79489">
        <ele>841.818293</ele>
        <time>2025-07-10T12:03:52.000Z</time>
      </trkpt>
      <trkpt lat="44.90535" lon="5.79487">
        <ele>841.958147</ele>
        <time>2025-07-10T12:03:53.000Z</time>
      </trkpt>
      <trkpt lat="44.90535" lon="5.79484">
        <ele>842.086239</ele>
        <time>2025-07-10T12:03:54.000Z</time>
      </trkpt>
      <trkpt lat="44.90535" lon="5.79482">
        <ele>842.214332</ele>
        <time>2025-07-10T12:03:55.000Z</time>
      </trkpt>
      <trkpt lat="44.90535" lon="5.79479">
        <ele>842.359074</ele>
        <time>2025-07-10T12:03:56.000Z</time>
      </trkpt>
      <trkpt lat="44.90535" lon="5.79477">
        <ele>842.509979</ele>
        <time>2025-07-10T12:03:57.000Z</time>
      </trkpt>
      <trkpt lat="44.90535" lon="5.79474">
        <ele>842.660885</ele>
        <time>2025-07-10T12:03:58.000Z</time>
      </trkpt>
      <trkpt lat="44.90535" lon="5.79471">
        <ele>842.816729</ele>
        <time>2025-07-10T12:03:59.000Z</time>
      </trkpt>
      <trkpt lat="44.90535" lon="5.79468">
        <ele>842.972573</ele>
        <time>2025-07-10T12:04:00.000Z</time>
      </trkpt>
      <trkpt lat="44.90535" lon="5.79466">
        <ele>843.117314</ele>
        <time>2025-07-10T12:04:01.000Z</time>
      </trkpt>
      <trkpt lat="44.90535" lon="5.79463">
        <ele>843.245407</ele>
        <time>2025-07-10T12:04:02.000Z</time>
      </trkpt>
      <trkpt lat="44.90534" lon="5.79461">
        <ele>843.367952</ele>
        <time>2025-07-10T12:04:03.000Z</time>
      </trkpt>
      <trkpt lat="44.90534" lon="5.79459">
        <ele>843.495804</ele>
        <time>2025-07-10T12:04:04.000Z</time>
      </trkpt>
      <trkpt lat="44.90535" lon="5.79457">
        <ele>843.631276</ele>
        <time>2025-07-10T12:04:05.000Z</time>
      </trkpt>
      <trkpt lat="44.90535" lon="5.79454">
        <ele>843.762926</ele>
        <time>2025-07-10T12:04:06.000Z</time>
      </trkpt>
      <trkpt lat="44.90535" lon="5.79452">
        <ele>843.892928</ele>
        <time>2025-07-10T12:04:07.000Z</time>
      </trkpt>
      <trkpt lat="44.90536" lon="5.7945">
        <ele>844.02726</ele>
        <time>2025-07-10T12:04:08.000Z</time>
      </trkpt>
      <trkpt lat="44.90536" lon="5.79447">
        <ele>844.155352</ele>
        <time>2025-07-10T12:04:09.000Z</time>
      </trkpt>
      <trkpt lat="44.90536" lon="5.79445">
        <ele>844.285354</ele>
        <time>2025-07-10T12:04:10.000Z</time>
      </trkpt>
      <trkpt lat="44.90536" lon="5.79443">
        <ele>844.418765</ele>
        <time>2025-07-10T12:04:11.000Z</time>
      </trkpt>
      <trkpt lat="44.90536" lon="5.7944">
        <ele>844.563506</ele>
        <time>2025-07-10T12:04:12.000Z</time>
      </trkpt>
      <trkpt lat="44.90536" lon="5.79438">
        <ele>844.693508</ele>
        <time>2025-07-10T12:04:13.000Z</time>
      </trkpt>
      <trkpt lat="44.90537" lon="5.79435">
        <ele>844.82351</ele>
        <time>2025-07-10T12:04:14.000Z</time>
      </trkpt>
      <trkpt lat="44.90537" lon="5.79433">
        <ele>844.952322</ele>
        <time>2025-07-10T12:04:15.000Z</time>
      </trkpt>
      <trkpt lat="44.90537" lon="5.79431">
        <ele>845.080415</ele>
        <time>2025-07-10T12:04:16.000Z</time>
      </trkpt>
      <trkpt lat="44.90537" lon="5.79428">
        <ele>845.225156</ele>
        <time>2025-07-10T12:04:17.000Z</time>
      </trkpt>
      <trkpt lat="44.90537" lon="5.79426">
        <ele>845.358798</ele>
        <time>2025-07-10T12:04:18.000Z</time>
      </trkpt>
      <trkpt lat="44.90537" lon="5.79423">
        <ele>845.486891</ele>
        <time>2025-07-10T12:04:19.000Z</time>
      </trkpt>
      <trkpt lat="44.90537" lon="5.79421">
        <ele>845.623945</ele>
        <time>2025-07-10T12:04:20.000Z</time>
      </trkpt>
      <trkpt lat="44.90536" lon="5.79419">
        <ele>845.758276</ele>
        <time>2025-07-10T12:04:21.000Z</time>
      </trkpt>
      <trkpt lat="44.90536" lon="5.79416">
        <ele>845.891918</ele>
        <time>2025-07-10T12:04:22.000Z</time>
      </trkpt>
      <trkpt lat="44.90536" lon="5.79414">
        <ele>846.031109</ele>
        <time>2025-07-10T12:04:23.000Z</time>
      </trkpt>
      <trkpt lat="44.90536" lon="5.79411">
        <ele>846.170079</ele>
        <time>2025-07-10T12:04:24.000Z</time>
      </trkpt>
      <trkpt lat="44.90536" lon="5.79409">
        <ele>846.30372</ele>
        <time>2025-07-10T12:04:25.000Z</time>
      </trkpt>
      <trkpt lat="44.90537" lon="5.79407">
        <ele>846.426265</ele>
        <time>2025-07-10T12:04:26.000Z</time>
      </trkpt>
      <trkpt lat="44.90536" lon="5.79404">
        <ele>846.549561</ele>
        <time>2025-07-10T12:04:27.000Z</time>
      </trkpt>
      <trkpt lat="44.90536" lon="5.79402">
        <ele>846.69494</ele>
        <time>2025-07-10T12:04:28.000Z</time>
      </trkpt>
      <trkpt lat="44.90536" lon="5.79399">
        <ele>846.834793</ele>
        <time>2025-07-10T12:04:29.000Z</time>
      </trkpt>
      <trkpt lat="44.90536" lon="5.79397">
        <ele>846.968435</ele>
        <time>2025-07-10T12:04:30.000Z</time>
      </trkpt>
      <trkpt lat="44.90536" lon="5.79395">
        <ele>847.096527</ele>
        <time>2025-07-10T12:04:31.000Z</time>
      </trkpt>
      <trkpt lat="44.90536" lon="5.79392">
        <ele>847.232</ele>
        <time>2025-07-10T12:04:32.000Z</time>
      </trkpt>
      <trkpt lat="44.90537" lon="5.7939">
        <ele>847.360093</ele>
        <time>2025-07-10T12:04:33.000Z</time>
      </trkpt>
      <trkpt lat="44.90536" lon="5.79387">
        <ele>847.499284</ele>
        <time>2025-07-10T12:04:34.000Z</time>
      </trkpt>
      <trkpt lat="44.90537" lon="5.79385">
        <ele>847.643687</ele>
        <time>2025-07-10T12:04:35.000Z</time>
      </trkpt>
      <trkpt lat="44.90538" lon="5.79383">
        <ele>847.789754</ele>
        <time>2025-07-10T12:04:36.000Z</time>
      </trkpt>
      <trkpt lat="44.90538" lon="5.7938">
        <ele>847.9208</ele>
        <time>2025-07-10T12:04:37.000Z</time>
      </trkpt>
      <trkpt lat="44.90538" lon="5.79378">
        <ele>848.048652</ele>
        <time>2025-07-10T12:04:38.000Z</time>
      </trkpt>
      <trkpt lat="44.90539" lon="5.79376">
        <ele>848.188506</ele>
        <time>2025-07-10T12:04:39.000Z</time>
      </trkpt>
      <trkpt lat="44.90539" lon="5.79373">
        <ele>848.338593</ele>
        <time>2025-07-10T12:04:40.000Z</time>
      </trkpt>
      <trkpt lat="44.90539" lon="5.7937">
        <ele>848.478446</ele>
        <time>2025-07-10T12:04:41.000Z</time>
      </trkpt>
      <trkpt lat="44.90539" lon="5.79368">
        <ele>848.600739</ele>
        <time>2025-07-10T12:04:42.000Z</time>
      </trkpt>
      <trkpt lat="44.90539" lon="5.79366">
        <ele>848.73507</ele>
        <time>2025-07-10T12:04:43.000Z</time>
      </trkpt>
      <trkpt lat="44.90539" lon="5.79364">
        <ele>848.863163</ele>
        <time>2025-07-10T12:04:44.000Z</time>
      </trkpt>
      <trkpt lat="44.90539" lon="5.79361">
        <ele>848.991975</ele>
        <time>2025-07-10T12:04:45.000Z</time>
      </trkpt>
      <trkpt lat="44.90539" lon="5.79359">
        <ele>849.10976</ele>
        <time>2025-07-10T12:04:46.000Z</time>
      </trkpt>
      <trkpt lat="44.90539" lon="5.79357">
        <ele>849.248729</ele>
        <time>2025-07-10T12:04:47.000Z</time>
      </trkpt>
      <trkpt lat="44.90539" lon="5.79354">
        <ele>849.410697</ele>
        <time>2025-07-10T12:04:48.000Z</time>
      </trkpt>
      <trkpt lat="44.90539" lon="5.79351">
        <ele>849.544107</ele>
        <time>2025-07-10T12:04:49.000Z</time>
      </trkpt>
      <trkpt lat="44.90539" lon="5.79349">
        <ele>849.67958</ele>
        <time>2025-07-10T12:04:50.000Z</time>
      </trkpt>
      <trkpt lat="44.90539" lon="5.79346">
        <ele>849.818549</ele>
        <time>2025-07-10T12:04:51.000Z</time>
      </trkpt>
      <trkpt lat="44.9054" lon="5.79344">
        <ele>849.941094</ele>
        <time>2025-07-10T12:04:52.000Z</time>
      </trkpt>
      <trkpt lat="44.90539" lon="5.79342">
        <ele>850.075425</ele>
        <time>2025-07-10T12:04:53.000Z</time>
      </trkpt>
      <trkpt lat="44.90539" lon="5.79339">
        <ele>850.209756</ele>
        <time>2025-07-10T12:04:54.000Z</time>
      </trkpt>
      <trkpt lat="44.90539" lon="5.79337">
        <ele>850.344087</ele>
        <time>2025-07-10T12:04:55.000Z</time>
      </trkpt>
      <trkpt lat="44.90539" lon="5.79335">
        <ele>850.468626</ele>
        <time>2025-07-10T12:04:56.000Z</time>
      </trkpt>
      <trkpt lat="44.90539" lon="5.79333">
        <ele>850.591171</ele>
        <time>2025-07-10T12:04:57.000Z</time>
      </trkpt>
      <trkpt lat="44.90539" lon="5.79331">
        <ele>850.704813</ele>
        <time>2025-07-10T12:04:58.000Z</time>
      </trkpt>
      <trkpt lat="44.90539" lon="5.79329">
        <ele>850.813022</ele>
        <time>2025-07-10T12:04:59.000Z</time>
      </trkpt>
      <trkpt lat="44.90539" lon="5.79326">
        <ele>850.947353</ele>
        <time>2025-07-10T12:05:00.000Z</time>
      </trkpt>
      <trkpt lat="44.90539" lon="5.79324">
        <ele>851.087206</ele>
        <time>2025-07-10T12:05:01.000Z</time>
      </trkpt>
      <trkpt lat="44.90539" lon="5.79321">
        <ele>851.231948</ele>
        <time>2025-07-10T12:05:02.000Z</time>
      </trkpt>
      <trkpt lat="44.90539" lon="5.79319">
        <ele>851.356487</ele>
        <time>2025-07-10T12:05:03.000Z</time>
      </trkpt>
      <trkpt lat="44.90538" lon="5.79316">
        <ele>851.506779</ele>
        <time>2025-07-10T12:05:04.000Z</time>
      </trkpt>
      <trkpt lat="44.90538" lon="5.79314">
        <ele>851.650228</ele>
        <time>2025-07-10T12:05:05.000Z</time>
      </trkpt>
      <trkpt lat="44.90538" lon="5.79311">
        <ele>851.7776</ele>
        <time>2025-07-10T12:05:06.000Z</time>
      </trkpt>
      <trkpt lat="44.90537" lon="5.79309">
        <ele>851.91079</ele>
        <time>2025-07-10T12:05:07.000Z</time>
      </trkpt>
      <trkpt lat="44.90537" lon="5.79306">
        <ele>852.051291</ele>
        <time>2025-07-10T12:05:08.000Z</time>
      </trkpt>
      <trkpt lat="44.90537" lon="5.79304">
        <ele>852.186603</ele>
        <time>2025-07-10T12:05:09.000Z</time>
      </trkpt>
      <trkpt lat="44.90537" lon="5.79301">
        <ele>852.311538</ele>
        <time>2025-07-10T12:05:10.000Z</time>
      </trkpt>
      <trkpt lat="44.90537" lon="5.79299">
        <ele>852.425864</ele>
        <time>2025-07-10T12:05:11.000Z</time>
      </trkpt>
      <trkpt lat="44.90537" lon="5.79296">
        <ele>852.566938</ele>
        <time>2025-07-10T12:05:12.000Z</time>
      </trkpt>
      <trkpt lat="44.90537" lon="5.79293">
        <ele>852.712444</ele>
        <time>2025-07-10T12:05:13.000Z</time>
      </trkpt>
      <trkpt lat="44.90537" lon="5.79291">
        <ele>852.837379</ele>
        <time>2025-07-10T12:05:14.000Z</time>
      </trkpt>
      <trkpt lat="44.90537" lon="5.79288">
        <ele>852.973286</ele>
        <time>2025-07-10T12:05:15.000Z</time>
      </trkpt>
      <trkpt lat="44.90537" lon="5.79286">
        <ele>853.103202</ele>
        <time>2025-07-10T12:05:16.000Z</time>
      </trkpt>
      <trkpt lat="44.90537" lon="5.79283">
        <ele>853.238514</ele>
        <time>2025-07-10T12:05:17.000Z</time>
      </trkpt>
      <trkpt lat="44.90537" lon="5.7928">
        <ele>853.389929</ele>
        <time>2025-07-10T12:05:18.000Z</time>
      </trkpt>
      <trkpt lat="44.90537" lon="5.79278">
        <ele>853.530238</ele>
        <time>2025-07-10T12:05:19.000Z</time>
      </trkpt>
      <trkpt lat="44.90538" lon="5.79275">
        <ele>853.649986</ele>
        <time>2025-07-10T12:05:20.000Z</time>
      </trkpt>
      <trkpt lat="44.90538" lon="5.79273">
        <ele>853.770054</ele>
        <time>2025-07-10T12:05:21.000Z</time>
      </trkpt>
      <trkpt lat="44.90539" lon="5.79271">
        <ele>853.887728</ele>
        <time>2025-07-10T12:05:22.000Z</time>
      </trkpt>
      <trkpt lat="44.90539" lon="5.79269">
        <ele>854.0151</ele>
        <time>2025-07-10T12:05:23.000Z</time>
      </trkpt>
      <trkpt lat="44.9054" lon="5.79266">
        <ele>854.154799</ele>
        <time>2025-07-10T12:05:24.000Z</time>
      </trkpt>
      <trkpt lat="44.9054" lon="5.79264">
        <ele>854.291693</ele>
        <time>2025-07-10T12:05:25.000Z</time>
      </trkpt>
      <trkpt lat="44.90541" lon="5.79261">
        <ele>854.423461</ele>
        <time>2025-07-10T12:05:26.000Z</time>
      </trkpt>
      <trkpt lat="44.90541" lon="5.79258">
        <ele>854.57936</ele>
        <time>2025-07-10T12:05:27.000Z</time>
      </trkpt>
      <trkpt lat="44.90541" lon="5.79256">
        <ele>854.719669</ele>
        <time>2025-07-10T12:05:28.000Z</time>
      </trkpt>
      <trkpt lat="44.90541" lon="5.79253">
        <ele>854.86017</ele>
        <time>2025-07-10T12:05:29.000Z</time>
      </trkpt>
      <trkpt lat="44.90541" lon="5.79251">
        <ele>854.979692</ele>
        <time>2025-07-10T12:05:30.000Z</time>
      </trkpt>
      <trkpt lat="44.90541" lon="5.79248">
        <ele>855.102765</ele>
        <time>2025-07-10T12:05:31.000Z</time>
      </trkpt>
      <trkpt lat="44.90541" lon="5.79246">
        <ele>855.228345</ele>
        <time>2025-07-10T12:05:32.000Z</time>
      </trkpt>
      <trkpt lat="44.90541" lon="5.79243">
        <ele>855.368654</ele>
        <time>2025-07-10T12:05:33.000Z</time>
      </trkpt>
      <trkpt lat="44.90541" lon="5.7924">
        <ele>855.508963</ele>
        <time>2025-07-10T12:05:34.000Z</time>
      </trkpt>
      <trkpt lat="44.90541" lon="5.79238">
        <ele>855.638879</ele>
        <time>2025-07-10T12:05:35.000Z</time>
      </trkpt>
      <trkpt lat="44.90541" lon="5.79236">
        <ele>855.763814</ele>
        <time>2025-07-10T12:05:36.000Z</time>
      </trkpt>
      <trkpt lat="44.90541" lon="5.79233">
        <ele>855.898927</ele>
        <time>2025-07-10T12:05:37.000Z</time>
      </trkpt>
      <trkpt lat="44.90541" lon="5.7923">
        <ele>856.028843</ele>
        <time>2025-07-10T12:05:38.000Z</time>
      </trkpt>
      <trkpt lat="44.90541" lon="5.79228">
        <ele>856.158965</ele>
        <time>2025-07-10T12:05:39.000Z</time>
      </trkpt>
      <trkpt lat="44.90541" lon="5.79225">
        <ele>856.295859</ele>
        <time>2025-07-10T12:05:40.000Z</time>
      </trkpt>
      <trkpt lat="44.90541" lon="5.79223">
        <ele>856.425982</ele>
        <time>2025-07-10T12:05:41.000Z</time>
      </trkpt>
      <trkpt lat="44.90541" lon="5.7922">
        <ele>856.567057</ele>
        <time>2025-07-10T12:05:42.000Z</time>
      </trkpt>
      <trkpt lat="44.90541" lon="5.79218">
        <ele>856.702169</ele>
        <time>2025-07-10T12:05:43.000Z</time>
      </trkpt>
      <trkpt lat="44.90541" lon="5.79215">
        <ele>856.832911</ele>
        <time>2025-07-10T12:05:44.000Z</time>
      </trkpt>
      <trkpt lat="44.90541" lon="5.79213">
        <ele>856.958491</ele>
        <time>2025-07-10T12:05:45.000Z</time>
      </trkpt>
      <trkpt lat="44.90541" lon="5.7921">
        <ele>857.098992</ele>
        <time>2025-07-10T12:05:46.000Z</time>
      </trkpt>
      <trkpt lat="44.90541" lon="5.79207">
        <ele>857.234899</ele>
        <time>2025-07-10T12:05:47.000Z</time>
      </trkpt>
      <trkpt lat="44.90541" lon="5.79205">
        <ele>857.359618</ele>
        <time>2025-07-10T12:05:48.000Z</time>
      </trkpt>
      <trkpt lat="44.90541" lon="5.79203">
        <ele>857.484553</ele>
        <time>2025-07-10T12:05:49.000Z</time>
      </trkpt>
      <trkpt lat="44.90541" lon="5.792">
        <ele>857.614676</ele>
        <time>2025-07-10T12:05:50.000Z</time>
      </trkpt>
      <trkpt lat="44.90541" lon="5.79198">
        <ele>857.739611</ele>
        <time>2025-07-10T12:05:51.000Z</time>
      </trkpt>
      <trkpt lat="44.90541" lon="5.79195">
        <ele>857.864545</ele>
        <time>2025-07-10T12:05:52.000Z</time>
      </trkpt>
      <trkpt lat="44.90541" lon="5.79193">
        <ele>857.986078</ele>
        <time>2025-07-10T12:05:53.000Z</time>
      </trkpt>
      <trkpt lat="44.90541" lon="5.7919">
        <ele>858.126579</ele>
        <time>2025-07-10T12:05:54.000Z</time>
      </trkpt>
      <trkpt lat="44.90541" lon="5.79188">
        <ele>858.256495</ele>
        <time>2025-07-10T12:05:55.000Z</time>
      </trkpt>
      <trkpt lat="44.90541" lon="5.79186">
        <ele>858.37292</ele>
        <time>2025-07-10T12:05:56.000Z</time>
      </trkpt>
      <trkpt lat="44.90541" lon="5.79183">
        <ele>858.495993</ele>
        <time>2025-07-10T12:05:57.000Z</time>
      </trkpt>
      <trkpt lat="44.90542" lon="5.79181">
        <ele>858.624119</ele>
        <time>2025-07-10T12:05:58.000Z</time>
      </trkpt>
      <trkpt lat="44.90542" lon="5.79179">
        <ele>858.743642</ele>
        <time>2025-07-10T12:05:59.000Z</time>
      </trkpt>
      <trkpt lat="44.90542" lon="5.79176">
        <ele>858.852771</ele>
        <time>2025-07-10T12:06:00.000Z</time>
      </trkpt>
      <trkpt lat="44.90542" lon="5.79174">
        <ele>858.983513</ele>
        <time>2025-07-10T12:06:01.000Z</time>
      </trkpt>
      <trkpt lat="44.90542" lon="5.79171">
        <ele>859.11528</ele>
        <time>2025-07-10T12:06:02.000Z</time>
      </trkpt>
      <trkpt lat="44.90542" lon="5.79169">
        <ele>859.240215</ele>
        <time>2025-07-10T12:06:03.000Z</time>
      </trkpt>
      <trkpt lat="44.90542" lon="5.79167">
        <ele>859.358248</ele>
        <time>2025-07-10T12:06:04.000Z</time>
      </trkpt>
      <trkpt lat="44.90542" lon="5.79164">
        <ele>859.490016</ele>
        <time>2025-07-10T12:06:05.000Z</time>
      </trkpt>
      <trkpt lat="44.90543" lon="5.79162">
        <ele>859.63109</ele>
        <time>2025-07-10T12:06:06.000Z</time>
      </trkpt>
      <trkpt lat="44.90542" lon="5.79159">
        <ele>859.756669</ele>
        <time>2025-07-10T12:06:07.000Z</time>
      </trkpt>
      <trkpt lat="44.90542" lon="5.79157">
        <ele>859.891981</ele>
        <time>2025-07-10T12:06:08.000Z</time>
      </trkpt>
      <trkpt lat="44.90542" lon="5.79154">
        <ele>860.022104</ele>
        <time>2025-07-10T12:06:09.000Z</time>
      </trkpt>
      <trkpt lat="44.90542" lon="5.79152">
        <ele>860.158011</ele>
        <time>2025-07-10T12:06:10.000Z</time>
      </trkpt>
      <trkpt lat="44.90542" lon="5.79149">
        <ele>860.293322</ele>
        <time>2025-07-10T12:06:11.000Z</time>
      </trkpt>
      <trkpt lat="44.90542" lon="5.79146">
        <ele>860.428435</ele>
        <time>2025-07-10T12:06:12.000Z</time>
      </trkpt>
      <trkpt lat="44.90543" lon="5.79144">
        <ele>860.549967</ele>
        <time>2025-07-10T12:06:13.000Z</time>
      </trkpt>
      <trkpt lat="44.90543" lon="5.79142">
        <ele>860.675547</ele>
        <time>2025-07-10T12:06:14.000Z</time>
      </trkpt>
      <trkpt lat="44.90543" lon="5.79139">
        <ele>860.795967</ele>
        <time>2025-07-10T12:06:15.000Z</time>
      </trkpt>
      <trkpt lat="44.90543" lon="5.79137">
        <ele>860.912393</ele>
        <time>2025-07-10T12:06:16.000Z</time>
      </trkpt>
      <trkpt lat="44.90544" lon="5.79135">
        <ele>861.035466</ele>
        <time>2025-07-10T12:06:17.000Z</time>
      </trkpt>
      <trkpt lat="44.90544" lon="5.79133">
        <ele>861.154988</ele>
        <time>2025-07-10T12:06:18.000Z</time>
      </trkpt>
      <trkpt lat="44.90544" lon="5.7913">
        <ele>861.269314</ele>
        <time>2025-07-10T12:06:19.000Z</time>
      </trkpt>
      <trkpt lat="44.90544" lon="5.79128">
        <ele>861.388837</ele>
        <time>2025-07-10T12:06:20.000Z</time>
      </trkpt>
      <trkpt lat="44.90544" lon="5.79126">
        <ele>861.495075</ele>
        <time>2025-07-10T12:06:21.000Z</time>
      </trkpt>
      <trkpt lat="44.90544" lon="5.79124">
        <ele>861.609636</ele>
        <time>2025-07-10T12:06:22.000Z</time>
      </trkpt>
      <trkpt lat="44.90544" lon="5.79121">
        <ele>861.745543</ele>
        <time>2025-07-10T12:06:23.000Z</time>
      </trkpt>
      <trkpt lat="44.90544" lon="5.79119">
        <ele>861.880655</ele>
        <time>2025-07-10T12:06:24.000Z</time>
      </trkpt>
      <trkpt lat="44.90544" lon="5.79116">
        <ele>862.006235</ele>
        <time>2025-07-10T12:06:25.000Z</time>
      </trkpt>
      <trkpt lat="44.90544" lon="5.79114">
        <ele>862.126655</ele>
        <time>2025-07-10T12:06:26.000Z</time>
      </trkpt>
      <trkpt lat="44.90544" lon="5.79112">
        <ele>862.246402</ele>
        <time>2025-07-10T12:06:27.000Z</time>
      </trkpt>
      <trkpt lat="44.90544" lon="5.79109">
        <ele>862.371121</ele>
        <time>2025-07-10T12:06:28.000Z</time>
      </trkpt>
      <trkpt lat="44.90544" lon="5.79107">
        <ele>862.502889</ele>
        <time>2025-07-10T12:06:29.000Z</time>
      </trkpt>
      <trkpt lat="44.90544" lon="5.79104">
        <ele>862.634656</ele>
        <time>2025-07-10T12:06:30.000Z</time>
      </trkpt>
      <trkpt lat="44.90544" lon="5.79102">
        <ele>862.759591</ele>
        <time>2025-07-10T12:06:31.000Z</time>
      </trkpt>
      <trkpt lat="44.90544" lon="5.791">
        <ele>862.879113</ele>
        <time>2025-07-10T12:06:32.000Z</time>
      </trkpt>
      <trkpt lat="44.90544" lon="5.79097">
        <ele>863.010881</ele>
        <time>2025-07-10T12:06:33.000Z</time>
      </trkpt>
      <trkpt lat="44.90544" lon="5.79094">
        <ele>863.1761</ele>
        <time>2025-07-10T12:06:34.000Z</time>
      </trkpt>
      <trkpt lat="44.90544" lon="5.79091">
        <ele>863.316601</ele>
        <time>2025-07-10T12:06:35.000Z</time>
      </trkpt>
      <trkpt lat="44.90544" lon="5.79089">
        <ele>863.446724</ele>
        <time>2025-07-10T12:06:36.000Z</time>
      </trkpt>
      <trkpt lat="44.90543" lon="5.79086">
        <ele>863.567144</ele>
        <time>2025-07-10T12:06:37.000Z</time>
      </trkpt>
      <trkpt lat="44.90543" lon="5.79084">
        <ele>863.686667</ele>
        <time>2025-07-10T12:06:38.000Z</time>
      </trkpt>
      <trkpt lat="44.90544" lon="5.79082">
        <ele>863.811602</ele>
        <time>2025-07-10T12:06:39.000Z</time>
      </trkpt>
      <trkpt lat="44.90544" lon="5.79079">
        <ele>863.933134</ele>
        <time>2025-07-10T12:06:40.000Z</time>
      </trkpt>
      <trkpt lat="44.90544" lon="5.79077">
        <ele>864.047695</ele>
        <time>2025-07-10T12:06:41.000Z</time>
      </trkpt>
      <trkpt lat="44.90544" lon="5.79075">
        <ele>864.178437</ele>
        <time>2025-07-10T12:06:42.000Z</time>
      </trkpt>
      <trkpt lat="44.90544" lon="5.79072">
        <ele>864.313749</ele>
        <time>2025-07-10T12:06:43.000Z</time>
      </trkpt>
      <trkpt lat="44.90544" lon="5.7907">
        <ele>864.44906</ele>
        <time>2025-07-10T12:06:44.000Z</time>
      </trkpt>
      <trkpt lat="44.90544" lon="5.79067">
        <ele>864.578976</ele>
        <time>2025-07-10T12:06:45.000Z</time>
      </trkpt>
      <trkpt lat="44.90544" lon="5.79065">
        <ele>864.709099</ele>
        <time>2025-07-10T12:06:46.000Z</time>
      </trkpt>
      <trkpt lat="44.90543" lon="5.79062">
        <ele>864.822348</ele>
        <time>2025-07-10T12:06:47.000Z</time>
      </trkpt>
      <trkpt lat="44.90543" lon="5.79059">
        <ele>864.923308</ele>
        <time>2025-07-10T12:06:48.000Z</time>
      </trkpt>
      <trkpt lat="44.90543" lon="5.79057">
        <ele>865.020397</ele>
        <time>2025-07-10T12:06:49.000Z</time>
      </trkpt>
      <trkpt lat="44.90543" lon="5.79054">
        <ele>865.117331</ele>
        <time>2025-07-10T12:06:50.000Z</time>
      </trkpt>
      <trkpt lat="44.90544" lon="5.79052">
        <ele>865.208011</ele>
        <time>2025-07-10T12:06:51.000Z</time>
      </trkpt>
      <trkpt lat="44.90544" lon="5.7905">
        <ele>865.29786</ele>
        <time>2025-07-10T12:06:52.000Z</time>
      </trkpt>
      <trkpt lat="44.90544" lon="5.79047">
        <ele>865.387709</ele>
        <time>2025-07-10T12:06:53.000Z</time>
      </trkpt>
      <trkpt lat="44.90544" lon="5.79045">
        <ele>865.488521</ele>
        <time>2025-07-10T12:06:54.000Z</time>
      </trkpt>
      <trkpt lat="44.90544" lon="5.79042">
        <ele>865.5777</ele>
        <time>2025-07-10T12:06:55.000Z</time>
      </trkpt>
      <trkpt lat="44.90544" lon="5.7904">
        <ele>865.656968</ele>
        <time>2025-07-10T12:06:56.000Z</time>
      </trkpt>
      <trkpt lat="44.90544" lon="5.79038">
        <ele>865.733823</ele>
        <time>2025-07-10T12:06:57.000Z</time>
      </trkpt>
      <trkpt lat="44.90545" lon="5.79036">
        <ele>865.827041</ele>
        <time>2025-07-10T12:06:58.000Z</time>
      </trkpt>
      <trkpt lat="44.90545" lon="5.79034">
        <ele>865.916389</ele>
        <time>2025-07-10T12:06:59.000Z</time>
      </trkpt>
      <trkpt lat="44.90545" lon="5.79032">
        <ele>865.994129</ele>
        <time>2025-07-10T12:07:00.000Z</time>
      </trkpt>
      <trkpt lat="44.90544" lon="5.7903">
        <ele>866.076287</ele>
        <time>2025-07-10T12:07:01.000Z</time>
      </trkpt>
      <trkpt lat="44.90544" lon="5.79027">
        <ele>866.178428</ele>
        <time>2025-07-10T12:07:02.000Z</time>
      </trkpt>
      <trkpt lat="44.90544" lon="5.79024">
        <ele>866.284397</ele>
        <time>2025-07-10T12:07:03.000Z</time>
      </trkpt>
      <trkpt lat="44.90544" lon="5.79022">
        <ele>866.385357</ele>
        <time>2025-07-10T12:07:04.000Z</time>
      </trkpt>
      <trkpt lat="44.90544" lon="5.79019">
        <ele>866.482908</ele>
        <time>2025-07-10T12:07:05.000Z</time>
      </trkpt>
      <trkpt lat="44.90544" lon="5.79017">
        <ele>866.572757</ele>
        <time>2025-07-10T12:07:06.000Z</time>
      </trkpt>
      <trkpt lat="44.90544" lon="5.79015">
        <ele>866.666456</ele>
        <time>2025-07-10T12:07:07.000Z</time>
      </trkpt>
      <trkpt lat="44.90545" lon="5.79012">
        <ele>866.751934</ele>
        <time>2025-07-10T12:07:08.000Z</time>
      </trkpt>
      <trkpt lat="44.90545" lon="5.7901">
        <ele>866.833359</ele>
        <time>2025-07-10T12:07:09.000Z</time>
      </trkpt>
      <trkpt lat="44.90545" lon="5.79008">
        <ele>866.917677</ele>
        <time>2025-07-10T12:07:10.000Z</time>
      </trkpt>
      <trkpt lat="44.90545" lon="5.79006">
        <ele>867.003679</ele>
        <time>2025-07-10T12:07:11.000Z</time>
      </trkpt>
      <trkpt lat="44.90545" lon="5.79004">
        <ele>867.096897</ele>
        <time>2025-07-10T12:07:12.000Z</time>
      </trkpt>
      <trkpt lat="44.90546" lon="5.79001">
        <ele>867.193896</ele>
        <time>2025-07-10T12:07:13.000Z</time>
      </trkpt>
      <trkpt lat="44.90546" lon="5.78999">
        <ele>867.283075</ele>
        <time>2025-07-10T12:07:14.000Z</time>
      </trkpt>
      <trkpt lat="44.90546" lon="5.78996">
        <ele>867.380164</ele>
        <time>2025-07-10T12:07:15.000Z</time>
      </trkpt>
      <trkpt lat="44.90546" lon="5.78994">
        <ele>867.469512</ele>
        <time>2025-07-10T12:07:16.000Z</time>
      </trkpt>
      <trkpt lat="44.90545" lon="5.78992">
        <ele>867.552576</ele>
        <time>2025-07-10T12:07:17.000Z</time>
      </trkpt>
      <trkpt lat="44.90545" lon="5.7899">
        <ele>867.645633</ele>
        <time>2025-07-10T12:07:18.000Z</time>
      </trkpt>
      <trkpt lat="44.90546" lon="5.78987">
        <ele>867.737462</ele>
        <time>2025-07-10T12:07:19.000Z</time>
      </trkpt>
      <trkpt lat="44.90546" lon="5.78985">
        <ele>867.819071</ele>
        <time>2025-07-10T12:07:20.000Z</time>
      </trkpt>
      <trkpt lat="44.90545" lon="5.78983">
        <ele>867.901228</ele>
        <time>2025-07-10T12:07:21.000Z</time>
      </trkpt>
      <trkpt lat="44.90545" lon="5.7898">
        <ele>868.00606</ele>
        <time>2025-07-10T12:07:22.000Z</time>
      </trkpt>
      <trkpt lat="44.90545" lon="5.78978">
        <ele>868.090378</ele>
        <time>2025-07-10T12:07:23.000Z</time>
      </trkpt>
      <trkpt lat="44.90545" lon="5.78976">
        <ele>868.160385</ele>
        <time>2025-07-10T12:07:24.000Z</time>
      </trkpt>
      <trkpt lat="44.90545" lon="5.78974">
        <ele>868.247254</ele>
        <time>2025-07-10T12:07:25.000Z</time>
      </trkpt>
      <trkpt lat="44.90545" lon="5.78972">
        <ele>868.344343</ele>
        <time>2025-07-10T12:07:26.000Z</time>
      </trkpt>
      <trkpt lat="44.90545" lon="5.78969">
        <ele>868.441432</ele>
        <time>2025-07-10T12:07:27.000Z</time>
      </trkpt>
      <trkpt lat="44.90545" lon="5.78967">
        <ele>868.538983</ele>
        <time>2025-07-10T12:07:28.000Z</time>
      </trkpt>
      <trkpt lat="44.90545" lon="5.78964">
        <ele>868.636533</ele>
        <time>2025-07-10T12:07:29.000Z</time>
      </trkpt>
      <trkpt lat="44.90546" lon="5.78962">
        <ele>868.732132</ele>
        <time>2025-07-10T12:07:30.000Z</time>
      </trkpt>
      <trkpt lat="44.90546" lon="5.78959">
        <ele>868.830448</ele>
        <time>2025-07-10T12:07:31.000Z</time>
      </trkpt>
      <trkpt lat="44.90546" lon="5.78957">
        <ele>868.915925</ele>
        <time>2025-07-10T12:07:32.000Z</time>
      </trkpt>
      <trkpt lat="44.90547" lon="5.78955">
        <ele>869.007754</ele>
        <time>2025-07-10T12:07:33.000Z</time>
      </trkpt>
      <trkpt lat="44.90547" lon="5.78953">
        <ele>869.097102</ele>
        <time>2025-07-10T12:07:34.000Z</time>
      </trkpt>
      <trkpt lat="44.90547" lon="5.7895">
        <ele>869.186951</ele>
        <time>2025-07-10T12:07:35.000Z</time>
      </trkpt>
      <trkpt lat="44.90547" lon="5.78948">
        <ele>869.2768</ele>
        <time>2025-07-10T12:07:36.000Z</time>
      </trkpt>
      <trkpt lat="44.90547" lon="5.78946">
        <ele>869.358408</ele>
        <time>2025-07-10T12:07:37.000Z</time>
      </trkpt>
      <trkpt lat="44.90547" lon="5.78944">
        <ele>869.447995</ele>
        <time>2025-07-10T12:07:38.000Z</time>
      </trkpt>
      <trkpt lat="44.90547" lon="5.78941">
        <ele>869.553255</ele>
        <time>2025-07-10T12:07:39.000Z</time>
      </trkpt>
      <trkpt lat="44.90546" lon="5.78939">
        <ele>869.643104</ele>
        <time>2025-07-10T12:07:40.000Z</time>
      </trkpt>
      <trkpt lat="44.90546" lon="5.78937">
        <ele>869.724713</ele>
        <time>2025-07-10T12:07:41.000Z</time>
      </trkpt>
      <trkpt lat="44.90546" lon="5.78934">
        <ele>869.822263</ele>
        <time>2025-07-10T12:07:42.000Z</time>
      </trkpt>
      <trkpt lat="44.90547" lon="5.78931">
        <ele>869.939738</ele>
        <time>2025-07-10T12:07:43.000Z</time>
      </trkpt>
      <trkpt lat="44.90547" lon="5.78929">
        <ele>870.037289</ele>
        <time>2025-07-10T12:07:44.000Z</time>
      </trkpt>
      <trkpt lat="44.90547" lon="5.78926">
        <ele>870.13484</ele>
        <time>2025-07-10T12:07:45.000Z</time>
      </trkpt>
      <trkpt lat="44.90547" lon="5.78923">
        <ele>870.236244</ele>
        <time>2025-07-10T12:07:46.000Z</time>
      </trkpt>
      <trkpt lat="44.90547" lon="5.78921">
        <ele>870.337204</ele>
        <time>2025-07-10T12:07:47.000Z</time>
      </trkpt>
      <trkpt lat="44.90547" lon="5.78918">
        <ele>870.442036</ele>
        <time>2025-07-10T12:07:48.000Z</time>
      </trkpt>
      <trkpt lat="44.90547" lon="5.78915">
        <ele>870.559511</ele>
        <time>2025-07-10T12:07:49.000Z</time>
      </trkpt>
      <trkpt lat="44.90547" lon="5.78912">
        <ele>870.668628</ele>
        <time>2025-07-10T12:07:50.000Z</time>
      </trkpt>
      <trkpt lat="44.90546" lon="5.7891">
        <ele>870.77843</ele>
        <time>2025-07-10T12:07:51.000Z</time>
      </trkpt>
      <trkpt lat="44.90547" lon="5.78907">
        <ele>870.879835</ele>
        <time>2025-07-10T12:07:52.000Z</time>
      </trkpt>
      <trkpt lat="44.90547" lon="5.78904">
        <ele>870.993471</ele>
        <time>2025-07-10T12:07:53.000Z</time>
      </trkpt>
      <trkpt lat="44.90547" lon="5.78901">
        <ele>871.109921</ele>
        <time>2025-07-10T12:07:54.000Z</time>
      </trkpt>
      <trkpt lat="44.90547" lon="5.78898">
        <ele>871.228286</ele>
        <time>2025-07-10T12:07:55.000Z</time>
      </trkpt>
      <trkpt lat="44.90547" lon="5.78895">
        <ele>871.352844</ele>
        <time>2025-07-10T12:07:56.000Z</time>
      </trkpt>
      <trkpt lat="44.90548" lon="5.78892">
        <ele>871.479903</ele>
        <time>2025-07-10T12:07:57.000Z</time>
      </trkpt>
      <trkpt lat="44.90548" lon="5.78888">
        <ele>871.609717</ele>
        <time>2025-07-10T12:07:58.000Z</time>
      </trkpt>
      <trkpt lat="44.90548" lon="5.78885">
        <ele>871.749409</ele>
        <time>2025-07-10T12:07:59.000Z</time>
      </trkpt>
      <trkpt lat="44.90549" lon="5.78881">
        <ele>871.897156</ele>
        <time>2025-07-10T12:08:00.000Z</time>
      </trkpt>
      <trkpt lat="44.90549" lon="5.78878">
        <ele>872.02944</ele>
        <time>2025-07-10T12:08:01.000Z</time>
      </trkpt>
      <trkpt lat="44.90549" lon="5.78874">
        <ele>872.153637</ele>
        <time>2025-07-10T12:08:02.000Z</time>
      </trkpt>
      <trkpt lat="44.90549" lon="5.78871">
        <ele>872.277833</ele>
        <time>2025-07-10T12:08:03.000Z</time>
      </trkpt>
      <trkpt lat="44.90549" lon="5.78868">
        <ele>872.402391</ele>
        <time>2025-07-10T12:08:04.000Z</time>
      </trkpt>
      <trkpt lat="44.90549" lon="5.78865">
        <ele>872.534222</ele>
        <time>2025-07-10T12:08:05.000Z</time>
      </trkpt>
      <trkpt lat="44.90548" lon="5.78861">
        <ele>872.662292</ele>
        <time>2025-07-10T12:08:06.000Z</time>
      </trkpt>
      <trkpt lat="44.90548" lon="5.78858">
        <ele>872.778613</ele>
        <time>2025-07-10T12:08:07.000Z</time>
      </trkpt>
      <trkpt lat="44.90549" lon="5.78855">
        <ele>872.899929</ele>
        <time>2025-07-10T12:08:08.000Z</time>
      </trkpt>
      <trkpt lat="44.90549" lon="5.78852">
        <ele>873.02835</ele>
        <time>2025-07-10T12:08:09.000Z</time>
      </trkpt>
      <trkpt lat="44.90549" lon="5.78849">
        <ele>873.15642</ele>
        <time>2025-07-10T12:08:10.000Z</time>
      </trkpt>
      <trkpt lat="44.90549" lon="5.78845">
        <ele>873.28927</ele>
        <time>2025-07-10T12:08:11.000Z</time>
      </trkpt>
      <trkpt lat="44.90549" lon="5.78842">
        <ele>873.409593</ele>
        <time>2025-07-10T12:08:12.000Z</time>
      </trkpt>
      <trkpt lat="44.90549" lon="5.78839">
        <ele>873.522036</ele>
        <time>2025-07-10T12:08:13.000Z</time>
      </trkpt>
      <trkpt lat="44.90549" lon="5.78836">
        <ele>873.638872</ele>
        <time>2025-07-10T12:08:14.000Z</time>
      </trkpt>
      <trkpt lat="44.9055" lon="5.78833">
        <ele>873.767875</ele>
        <time>2025-07-10T12:08:15.000Z</time>
      </trkpt>
      <trkpt lat="44.9055" lon="5.78829">
        <ele>873.903736</ele>
        <time>2025-07-10T12:08:16.000Z</time>
      </trkpt>
      <trkpt lat="44.90551" lon="5.78826">
        <ele>874.035837</ele>
        <time>2025-07-10T12:08:17.000Z</time>
      </trkpt>
      <trkpt lat="44.90551" lon="5.78823">
        <ele>874.158014</ele>
        <time>2025-07-10T12:08:18.000Z</time>
      </trkpt>
      <trkpt lat="44.90552" lon="5.7882">
        <ele>874.284008</ele>
        <time>2025-07-10T12:08:19.000Z</time>
      </trkpt>
      <trkpt lat="44.90552" lon="5.78817">
        <ele>874.410001</ele>
        <time>2025-07-10T12:08:20.000Z</time>
      </trkpt>
      <trkpt lat="44.90552" lon="5.78814">
        <ele>874.519802</ele>
        <time>2025-07-10T12:08:21.000Z</time>
      </trkpt>
      <trkpt lat="44.90552" lon="5.78811">
        <ele>874.607344</ele>
        <time>2025-07-10T12:08:22.000Z</time>
      </trkpt>
      <trkpt lat="44.90552" lon="5.78807">
        <ele>874.675974</ele>
        <time>2025-07-10T12:08:23.000Z</time>
      </trkpt>
      <trkpt lat="44.90553" lon="5.78804">
        <ele>874.747537</ele>
        <time>2025-07-10T12:08:24.000Z</time>
      </trkpt>
      <trkpt lat="44.90553" lon="5.78801">
        <ele>874.814392</ele>
        <time>2025-07-10T12:08:25.000Z</time>
      </trkpt>
      <trkpt lat="44.90553" lon="5.78797">
        <ele>874.883552</ele>
        <time>2025-07-10T12:08:26.000Z</time>
      </trkpt>
      <trkpt lat="44.90553" lon="5.78794">
        <ele>874.952242</ele>
        <time>2025-07-10T12:08:27.000Z</time>
      </trkpt>
      <trkpt lat="44.90553" lon="5.7879">
        <ele>875.020872</ele>
        <time>2025-07-10T12:08:28.000Z</time>
      </trkpt>
      <trkpt lat="44.90554" lon="5.78787">
        <ele>875.091578</ele>
        <time>2025-07-10T12:08:29.000Z</time>
      </trkpt>
      <trkpt lat="44.90554" lon="5.78783">
        <ele>875.160267</ele>
        <time>2025-07-10T12:08:30.000Z</time>
      </trkpt>
      <trkpt lat="44.90554" lon="5.7878">
        <ele>875.224923</ele>
        <time>2025-07-10T12:08:31.000Z</time>
      </trkpt>
      <trkpt lat="44.90554" lon="5.78777">
        <ele>875.289516</ele>
        <time>2025-07-10T12:08:32.000Z</time>
      </trkpt>
      <trkpt lat="44.90554" lon="5.78773">
        <ele>875.362407</ele>
        <time>2025-07-10T12:08:33.000Z</time>
      </trkpt>
      <trkpt lat="44.90554" lon="5.7877">
        <ele>875.431273</ele>
        <time>2025-07-10T12:08:34.000Z</time>
      </trkpt>
      <trkpt lat="44.90554" lon="5.78767">
        <ele>875.493848</ele>
        <time>2025-07-10T12:08:35.000Z</time>
      </trkpt>
      <trkpt lat="44.90555" lon="5.78764">
        <ele>875.556772</ele>
        <time>2025-07-10T12:08:36.000Z</time>
      </trkpt>
      <trkpt lat="44.90555" lon="5.78761">
        <ele>875.615821</ele>
        <time>2025-07-10T12:08:37.000Z</time>
      </trkpt>
      <trkpt lat="44.90556" lon="5.78758">
        <ele>875.676765</ele>
        <time>2025-07-10T12:08:38.000Z</time>
      </trkpt>
      <trkpt lat="44.90557" lon="5.78756">
        <ele>875.729806</ele>
        <time>2025-07-10T12:08:39.000Z</time>
      </trkpt>
      <trkpt lat="44.90558" lon="5.78754">
        <ele>875.780919</ele>
        <time>2025-07-10T12:08:40.000Z</time>
      </trkpt>
      <trkpt lat="44.90559" lon="5.78753">
        <ele>875.827368</ele>
        <time>2025-07-10T12:08:41.000Z</time>
      </trkpt>
      <trkpt lat="44.90561" lon="5.78753">
        <ele>875.867471</ele>
        <time>2025-07-10T12:08:42.000Z</time>
      </trkpt>
      <trkpt lat="44.90563" lon="5.78754">
        <ele>875.923433</ele>
        <time>2025-07-10T12:08:43.000Z</time>
      </trkpt>
      <trkpt lat="44.90564" lon="5.78755">
        <ele>875.975176</ele>
        <time>2025-07-10T12:08:44.000Z</time>
      </trkpt>
      <trkpt lat="44.90567" lon="5.78755">
        <ele>876.051469</ele>
        <time>2025-07-10T12:08:45.000Z</time>
      </trkpt>
      <trkpt lat="44.9057" lon="5.78756">
        <ele>876.126903</ele>
        <time>2025-07-10T12:08:46.000Z</time>
      </trkpt>
      <trkpt lat="44.90572" lon="5.78758">
        <ele>876.203551</ele>
        <time>2025-07-10T12:08:47.000Z</time>
      </trkpt>
      <trkpt lat="44.90575" lon="5.78759">
        <ele>876.28035</ele>
        <time>2025-07-10T12:08:48.000Z</time>
      </trkpt>
      <trkpt lat="44.90577" lon="5.78759">
        <ele>876.354887</ele>
        <time>2025-07-10T12:08:49.000Z</time>
      </trkpt>
      <trkpt lat="44.9058" lon="5.7876">
        <ele>876.433122</ele>
        <time>2025-07-10T12:08:50.000Z</time>
      </trkpt>
      <trkpt lat="44.90583" lon="5.78761">
        <ele>876.520529</ele>
        <time>2025-07-10T12:08:51.000Z</time>
      </trkpt>
      <trkpt lat="44.90586" lon="5.78762">
        <ele>876.603359</ele>
        <time>2025-07-10T12:08:52.000Z</time>
      </trkpt>
      <trkpt lat="44.90588" lon="5.78763">
        <ele>876.678612</ele>
        <time>2025-07-10T12:08:53.000Z</time>
      </trkpt>
      <trkpt lat="44.90591" lon="5.78764">
        <ele>876.747199</ele>
        <time>2025-07-10T12:08:54.000Z</time>
      </trkpt>
      <trkpt lat="44.90593" lon="5.78764">
        <ele>876.810027</ele>
        <time>2025-07-10T12:08:55.000Z</time>
      </trkpt>
      <trkpt lat="44.90595" lon="5.78764">
        <ele>876.875855</ele>
        <time>2025-07-10T12:08:56.000Z</time>
      </trkpt>
      <trkpt lat="44.90598" lon="5.78765">
        <ele>876.944994</ele>
        <time>2025-07-10T12:08:57.000Z</time>
      </trkpt>
      <trkpt lat="44.906" lon="5.78766">
        <ele>877.014837</ele>
        <time>2025-07-10T12:08:58.000Z</time>
      </trkpt>
      <trkpt lat="44.90602" lon="5.78767">
        <ele>877.076769</ele>
        <time>2025-07-10T12:08:59.000Z</time>
      </trkpt>
      <trkpt lat="44.90604" lon="5.78768">
        <ele>877.14665</ele>
        <time>2025-07-10T12:09:00.000Z</time>
      </trkpt>
      <trkpt lat="44.90606" lon="5.7877">
        <ele>877.213005</ele>
        <time>2025-07-10T12:09:01.000Z</time>
      </trkpt>
      <trkpt lat="44.90608" lon="5.78771">
        <ele>877.268133</ele>
        <time>2025-07-10T12:09:02.000Z</time>
      </trkpt>
      <trkpt lat="44.9061" lon="5.78772">
        <ele>877.317217</ele>
        <time>2025-07-10T12:09:03.000Z</time>
      </trkpt>
      <trkpt lat="44.90611" lon="5.78773">
        <ele>877.376537</ele>
        <time>2025-07-10T12:09:04.000Z</time>
      </trkpt>
      <trkpt lat="44.90614" lon="5.78774">
        <ele>877.445999</ele>
        <time>2025-07-10T12:09:05.000Z</time>
      </trkpt>
      <trkpt lat="44.90616" lon="5.78774">
        <ele>877.507989</ele>
        <time>2025-07-10T12:09:06.000Z</time>
      </trkpt>
      <trkpt lat="44.90618" lon="5.78775">
        <ele>877.556362</ele>
        <time>2025-07-10T12:09:07.000Z</time>
      </trkpt>
      <trkpt lat="44.90619" lon="5.78776">
        <ele>877.585984</ele>
        <time>2025-07-10T12:09:08.000Z</time>
      </trkpt>
      <trkpt lat="44.90622" lon="5.78774">
        <ele>877.701182</ele>
        <time>2025-07-10T12:09:19.000Z</time>
      </trkpt>
      <trkpt lat="44.90624" lon="5.78775">
        <ele>877.740834</ele>
        <time>2025-07-10T12:09:21.000Z</time>
      </trkpt>
      <trkpt lat="44.90625" lon="5.78775">
        <ele>877.769404</ele>
        <time>2025-07-10T12:09:22.000Z</time>
      </trkpt>
      <trkpt lat="44.90627" lon="5.78775">
        <ele>877.826439</ele>
        <time>2025-07-10T12:09:23.000Z</time>
      </trkpt>
      <trkpt lat="44.90628" lon="5.78775">
        <ele>877.875056</ele>
        <time>2025-07-10T12:09:24.000Z</time>
      </trkpt>
      <trkpt lat="44.9063" lon="5.78776">
        <ele>877.930137</ele>
        <time>2025-07-10T12:09:25.000Z</time>
      </trkpt>
      <trkpt lat="44.90632" lon="5.78776">
        <ele>877.991199</ele>
        <time>2025-07-10T12:09:26.000Z</time>
      </trkpt>
      <trkpt lat="44.90634" lon="5.78775">
        <ele>878.04562</ele>
        <time>2025-07-10T12:09:27.000Z</time>
      </trkpt>
      <trkpt lat="44.90636" lon="5.78774">
        <ele>878.098915</ele>
        <time>2025-07-10T12:09:28.000Z</time>
      </trkpt>
      <trkpt lat="44.90638" lon="5.78773">
        <ele>878.148782</ele>
        <time>2025-07-10T12:09:29.000Z</time>
      </trkpt>
      <trkpt lat="44.9064" lon="5.78772">
        <ele>878.217554</ele>
        <time>2025-07-10T12:09:30.000Z</time>
      </trkpt>
      <trkpt lat="44.90642" lon="5.7877">
        <ele>878.298023</ele>
        <time>2025-07-10T12:09:31.000Z</time>
      </trkpt>
      <trkpt lat="44.90645" lon="5.78769">
        <ele>878.366896</ele>
        <time>2025-07-10T12:09:32.000Z</time>
      </trkpt>
      <trkpt lat="44.90646" lon="5.78769">
        <ele>878.416386</ele>
        <time>2025-07-10T12:09:33.000Z</time>
      </trkpt>
      <trkpt lat="44.90648" lon="5.78767">
        <ele>878.478425</ele>
        <time>2025-07-10T12:09:34.000Z</time>
      </trkpt>
      <trkpt lat="44.90649" lon="5.78766">
        <ele>878.522789</ele>
        <time>2025-07-10T12:09:35.000Z</time>
      </trkpt>
      <trkpt lat="44.90651" lon="5.78765">
        <ele>878.583868</ele>
        <time>2025-07-10T12:09:36.000Z</time>
      </trkpt>
      <trkpt lat="44.90654" lon="5.78763">
        <ele>878.658668</ele>
        <time>2025-07-10T12:09:37.000Z</time>
      </trkpt>
      <trkpt lat="44.90655" lon="5.78761">
        <ele>878.72577</ele>
        <time>2025-07-10T12:09:38.000Z</time>
      </trkpt>
      <trkpt lat="44.90657" lon="5.78758">
        <ele>878.794952</ele>
        <time>2025-07-10T12:09:39.000Z</time>
      </trkpt>
      <trkpt lat="44.90658" lon="5.78755">
        <ele>878.867874</ele>
        <time>2025-07-10T12:09:40.000Z</time>
      </trkpt>
      <trkpt lat="44.9066" lon="5.78752">
        <ele>878.937056</ele>
        <time>2025-07-10T12:09:41.000Z</time>
      </trkpt>
      <trkpt lat="44.90661" lon="5.7875">
        <ele>879.001397</ele>
        <time>2025-07-10T12:09:42.000Z</time>
      </trkpt>
      <trkpt lat="44.90662" lon="5.78747">
        <ele>879.065728</ele>
        <time>2025-07-10T12:09:43.000Z</time>
      </trkpt>
      <trkpt lat="44.90663" lon="5.78745">
        <ele>879.123682</ele>
        <time>2025-07-10T12:09:44.000Z</time>
      </trkpt>
      <trkpt lat="44.90664" lon="5.78742">
        <ele>879.188787</ele>
        <time>2025-07-10T12:09:45.000Z</time>
      </trkpt>
      <trkpt lat="44.90666" lon="5.78739">
        <ele>879.249918</ele>
        <time>2025-07-10T12:09:46.000Z</time>
      </trkpt>
      <trkpt lat="44.90667" lon="5.78737">
        <ele>879.317607</ele>
        <time>2025-07-10T12:09:47.000Z</time>
      </trkpt>
      <trkpt lat="44.90668" lon="5.78734">
        <ele>879.383507</ele>
        <time>2025-07-10T12:09:48.000Z</time>
      </trkpt>
      <trkpt lat="44.90669" lon="5.78731">
        <ele>879.448137</ele>
        <time>2025-07-10T12:09:49.000Z</time>
      </trkpt>
      <trkpt lat="44.9067" lon="5.78728">
        <ele>879.515763</ele>
        <time>2025-07-10T12:09:50.000Z</time>
      </trkpt>
      <trkpt lat="44.90671" lon="5.78725">
        <ele>879.583952</ele>
        <time>2025-07-10T12:09:51.000Z</time>
      </trkpt>
      <trkpt lat="44.90672" lon="5.78723">
        <ele>879.639326</ele>
        <time>2025-07-10T12:09:52.000Z</time>
      </trkpt>
      <trkpt lat="44.90673" lon="5.7872">
        <ele>879.696545</ele>
        <time>2025-07-10T12:09:53.000Z</time>
      </trkpt>
      <trkpt lat="44.90674" lon="5.78717">
        <ele>879.6975</ele>
        <time>2025-07-10T12:09:54.000Z</time>
      </trkpt>
      <trkpt lat="44.90674" lon="5.78715">
        <ele>879.697054</ele>
        <time>2025-07-10T12:09:55.000Z</time>
      </trkpt>
      <trkpt lat="44.90675" lon="5.78712">
        <ele>879.696608</ele>
        <time>2025-07-10T12:09:56.000Z</time>
      </trkpt>
      <trkpt lat="44.90676" lon="5.78709">
        <ele>879.696167</ele>
        <time>2025-07-10T12:09:57.000Z</time>
      </trkpt>
      <trkpt lat="44.90676" lon="5.78706">
        <ele>879.695751</ele>
        <time>2025-07-10T12:09:58.000Z</time>
      </trkpt>
      <trkpt lat="44.90677" lon="5.78704">
        <ele>879.69539</ele>
        <time>2025-07-10T12:09:59.000Z</time>
      </trkpt>
      <trkpt lat="44.90677" lon="5.78702">
        <ele>879.69505</ele>
        <time>2025-07-10T12:10:00.000Z</time>
      </trkpt>
      <trkpt lat="44.90678" lon="5.787">
        <ele>879.694696</ele>
        <time>2025-07-10T12:10:01.000Z</time>
      </trkpt>
      <trkpt lat="44.90679" lon="5.78698">
        <ele>879.694347</ele>
        <time>2025-07-10T12:10:02.000Z</time>
      </trkpt>
      <trkpt lat="44.9068" lon="5.78696">
        <ele>879.693962</ele>
        <time>2025-07-10T12:10:03.000Z</time>
      </trkpt>
      <trkpt lat="44.90681" lon="5.78694">
        <ele>879.693534</ele>
        <time>2025-07-10T12:10:04.000Z</time>
      </trkpt>
      <trkpt lat="44.90681" lon="5.78691">
        <ele>879.693138</ele>
        <time>2025-07-10T12:10:05.000Z</time>
      </trkpt>
      <trkpt lat="44.90682" lon="5.78689">
        <ele>879.692771</ele>
        <time>2025-07-10T12:10:06.000Z</time>
      </trkpt>
      <trkpt lat="44.90682" lon="5.78687">
        <ele>879.692496</ele>
        <time>2025-07-10T12:10:07.000Z</time>
      </trkpt>
      <trkpt lat="44.90683" lon="5.78686">
        <ele>879.692259</ele>
        <time>2025-07-10T12:10:08.000Z</time>
      </trkpt>
      <trkpt lat="44.90684" lon="5.78684">
        <ele>879.691905</ele>
        <time>2025-07-10T12:10:09.000Z</time>
      </trkpt>
      <trkpt lat="44.90684" lon="5.78682">
        <ele>879.691546</ele>
        <time>2025-07-10T12:10:10.000Z</time>
      </trkpt>
      <trkpt lat="44.90685" lon="5.7868">
        <ele>879.691222</ele>
        <time>2025-07-10T12:10:11.000Z</time>
      </trkpt>
      <trkpt lat="44.90686" lon="5.78678">
        <ele>879.690935</ele>
        <time>2025-07-10T12:10:12.000Z</time>
      </trkpt>
      <trkpt lat="44.90686" lon="5.78677">
        <ele>879.690686</ele>
        <time>2025-07-10T12:10:13.000Z</time>
      </trkpt>
      <trkpt lat="44.90687" lon="5.78676">
        <ele>879.690487</ele>
        <time>2025-07-10T12:10:14.000Z</time>
      </trkpt>
      <trkpt lat="44.90687" lon="5.78674">
        <ele>879.690284</ele>
        <time>2025-07-10T12:10:15.000Z</time>
      </trkpt>
      <trkpt lat="44.90687" lon="5.78673">
        <ele>879.690025</ele>
        <time>2025-07-10T12:10:16.000Z</time>
      </trkpt>
      <trkpt lat="44.90687" lon="5.78671">
        <ele>879.689792</ele>
        <time>2025-07-10T12:10:17.000Z</time>
      </trkpt>
      <trkpt lat="44.90688" lon="5.7867">
        <ele>879.689562</ele>
        <time>2025-07-10T12:10:18.000Z</time>
      </trkpt>
      <trkpt lat="44.90688" lon="5.78669">
        <ele>879.689404</ele>
        <time>2025-07-10T12:10:19.000Z</time>
      </trkpt>
      <trkpt lat="44.90688" lon="5.78671">
        <ele>879.689101</ele>
        <time>2025-07-10T12:11:42.000Z</time>
      </trkpt>
      <trkpt lat="44.90687" lon="5.78672">
        <ele>879.688951</ele>
        <time>2025-07-10T12:11:43.000Z</time>
      </trkpt>
      <trkpt lat="44.90687" lon="5.78673">
        <ele>879.688778</ele>
        <time>2025-07-10T12:11:44.000Z</time>
      </trkpt>
      <trkpt lat="44.90687" lon="5.78674">
        <ele>879.68859</ele>
        <time>2025-07-10T12:11:45.000Z</time>
      </trkpt>
      <trkpt lat="44.90687" lon="5.78675">
        <ele>879.688391</ele>
        <time>2025-07-10T12:11:46.000Z</time>
      </trkpt>
      <trkpt lat="44.90687" lon="5.78677">
        <ele>879.688176</ele>
        <time>2025-07-10T12:11:47.000Z</time>
      </trkpt>
      <trkpt lat="44.90687" lon="5.78678">
        <ele>879.688003</ele>
        <time>2025-07-10T12:11:48.000Z</time>
      </trkpt>
      <trkpt lat="44.90687" lon="5.78679">
        <ele>879.687888</ele>
        <time>2025-07-10T12:11:49.000Z</time>
      </trkpt>
      <trkpt lat="44.90687" lon="5.78679">
        <ele>879.687888</ele>
        <time>2025-07-10T12:11:50.000Z</time>
      </trkpt>
      <trkpt lat="44.90686" lon="5.78686">
        <ele>879.686691</ele>
        <time>2025-07-10T12:11:56.000Z</time>
      </trkpt>
      <trkpt lat="44.90685" lon="5.78688">
        <ele>879.686454</ele>
        <time>2025-07-10T12:11:57.000Z</time>
      </trkpt>
      <trkpt lat="44.90685" lon="5.78689">
        <ele>879.686231</ele>
        <time>2025-07-10T12:11:58.000Z</time>
      </trkpt>
      <trkpt lat="44.90684" lon="5.7869">
        <ele>879.686019</ele>
        <time>2025-07-10T12:11:59.000Z</time>
      </trkpt>
      <trkpt lat="44.90684" lon="5.78691">
        <ele>879.685819</ele>
        <time>2025-07-10T12:12:00.000Z</time>
      </trkpt>
      <trkpt lat="44.90684" lon="5.78693">
        <ele>879.685602</ele>
        <time>2025-07-10T12:12:01.000Z</time>
      </trkpt>
      <trkpt lat="44.90683" lon="5.78695">
        <ele>879.68532</ele>
        <time>2025-07-10T12:12:02.000Z</time>
      </trkpt>
      <trkpt lat="44.90683" lon="5.78696">
        <ele>879.685132</ele>
        <time>2025-07-10T12:12:03.000Z</time>
      </trkpt>
      <trkpt lat="44.90683" lon="5.78697">
        <ele>879.685002</ele>
        <time>2025-07-10T12:12:04.000Z</time>
      </trkpt>
      <trkpt lat="44.90683" lon="5.78697">
        <ele>879.684828</ele>
        <time>2025-07-10T12:12:05.000Z</time>
      </trkpt>
      <trkpt lat="44.90682" lon="5.78698">
        <ele>879.68464</ele>
        <time>2025-07-10T12:12:06.000Z</time>
      </trkpt>
      <trkpt lat="44.90682" lon="5.78699">
        <ele>879.684515</ele>
        <time>2025-07-10T12:12:07.000Z</time>
      </trkpt>
      <trkpt lat="44.9068" lon="5.78698">
        <ele>879.684084</ele>
        <time>2025-07-10T12:12:15.000Z</time>
      </trkpt>
      <trkpt lat="44.90678" lon="5.78697">
        <ele>879.683738</ele>
        <time>2025-07-10T12:12:16.000Z</time>
      </trkpt>
      <trkpt lat="44.90677" lon="5.78696">
        <ele>879.683449</ele>
        <time>2025-07-10T12:12:17.000Z</time>
      </trkpt>
      <trkpt lat="44.90676" lon="5.78695">
        <ele>879.683163</ele>
        <time>2025-07-10T12:12:18.000Z</time>
      </trkpt>
      <trkpt lat="44.90675" lon="5.78695">
        <ele>879.682877</ele>
        <time>2025-07-10T12:12:19.000Z</time>
      </trkpt>
      <trkpt lat="44.90673" lon="5.78694">
        <ele>879.682559</ele>
        <time>2025-07-10T12:12:20.000Z</time>
      </trkpt>
      <trkpt lat="44.90672" lon="5.78693">
        <ele>879.682251</ele>
        <time>2025-07-10T12:12:21.000Z</time>
      </trkpt>
      <trkpt lat="44.90671" lon="5.78692">
        <ele>879.681946</ele>
        <time>2025-07-10T12:12:22.000Z</time>
      </trkpt>
      <trkpt lat="44.9067" lon="5.78691">
        <ele>879.681635</ele>
        <time>2025-07-10T12:12:23.000Z</time>
      </trkpt>
      <trkpt lat="44.90668" lon="5.78691">
        <ele>879.681299</ele>
        <time>2025-07-10T12:12:24.000Z</time>
      </trkpt>
      <trkpt lat="44.90667" lon="5.7869">
        <ele>879.680971</ele>
        <time>2025-07-10T12:12:25.000Z</time>
      </trkpt>
      <trkpt lat="44.90665" lon="5.7869">
        <ele>879.68059</ele>
        <time>2025-07-10T12:12:26.000Z</time>
      </trkpt>
      <trkpt lat="44.90663" lon="5.78689">
        <ele>879.680173</ele>
        <time>2025-07-10T12:12:27.000Z</time>
      </trkpt>
      <trkpt lat="44.90661" lon="5.78688">
        <ele>879.679803</ele>
        <time>2025-07-10T12:12:28.000Z</time>
      </trkpt>
      <trkpt lat="44.9066" lon="5.78687">
        <ele>879.679465</ele>
        <time>2025-07-10T12:12:29.000Z</time>
      </trkpt>
      <trkpt lat="44.90659" lon="5.78685">
        <ele>879.679149</ele>
        <time>2025-07-10T12:12:30.000Z</time>
      </trkpt>
      <trkpt lat="44.90658" lon="5.78684">
        <ele>879.678832</ele>
        <time>2025-07-10T12:12:31.000Z</time>
      </trkpt>
      <trkpt lat="44.90656" lon="5.78683">
        <ele>879.678532</ele>
        <time>2025-07-10T12:12:32.000Z</time>
      </trkpt>
      <trkpt lat="44.90655" lon="5.78682">
        <ele>879.678201</ele>
        <time>2025-07-10T12:12:33.000Z</time>
      </trkpt>
      <trkpt lat="44.90654" lon="5.78681">
        <ele>879.67784</ele>
        <time>2025-07-10T12:12:34.000Z</time>
      </trkpt>
      <trkpt lat="44.90652" lon="5.7868">
        <ele>879.677524</ele>
        <time>2025-07-10T12:12:35.000Z</time>
      </trkpt>
      <trkpt lat="44.90651" lon="5.78678">
        <ele>879.677179</ele>
        <time>2025-07-10T12:12:36.000Z</time>
      </trkpt>
      <trkpt lat="44.9065" lon="5.78677">
        <ele>879.676834</ele>
        <time>2025-07-10T12:12:37.000Z</time>
      </trkpt>
      <trkpt lat="44.90649" lon="5.78675">
        <ele>879.676505</ele>
        <time>2025-07-10T12:12:38.000Z</time>
      </trkpt>
      <trkpt lat="44.90648" lon="5.78674">
        <ele>879.676205</ele>
        <time>2025-07-10T12:12:39.000Z</time>
      </trkpt>
      <trkpt lat="44.90647" lon="5.78673">
        <ele>879.675954</ele>
        <time>2025-07-10T12:12:40.000Z</time>
      </trkpt>
      <trkpt lat="44.90646" lon="5.78672">
        <ele>879.675714</ele>
        <time>2025-07-10T12:12:41.000Z</time>
      </trkpt>
      <trkpt lat="44.90646" lon="5.7867">
        <ele>879.675426</ele>
        <time>2025-07-10T12:12:42.000Z</time>
      </trkpt>
      <trkpt lat="44.90645" lon="5.78669">
        <ele>879.675126</ele>
        <time>2025-07-10T12:12:43.000Z</time>
      </trkpt>
      <trkpt lat="44.90644" lon="5.78667">
        <ele>879.674786</ele>
        <time>2025-07-10T12:12:44.000Z</time>
      </trkpt>
      <trkpt lat="44.90643" lon="5.78665">
        <ele>879.674475</ele>
        <time>2025-07-10T12:12:45.000Z</time>
      </trkpt>
      <trkpt lat="44.90642" lon="5.78664">
        <ele>879.674259</ele>
        <time>2025-07-10T12:12:46.000Z</time>
      </trkpt>
      <trkpt lat="44.90642" lon="5.78662">
        <ele>879.673992</ele>
        <time>2025-07-10T12:12:47.000Z</time>
      </trkpt>
      <trkpt lat="44.90641" lon="5.78661">
        <ele>879.673767</ele>
        <time>2025-07-10T12:12:48.000Z</time>
      </trkpt>
      <trkpt lat="44.90641" lon="5.7866">
        <ele>879.673481</ele>
        <time>2025-07-10T12:12:49.000Z</time>
      </trkpt>
      <trkpt lat="44.9064" lon="5.78658">
        <ele>879.673244</ele>
        <time>2025-07-10T12:12:50.000Z</time>
      </trkpt>
      <trkpt lat="44.90639" lon="5.78657">
        <ele>879.672944</ele>
        <time>2025-07-10T12:12:51.000Z</time>
      </trkpt>
      <trkpt lat="44.90638" lon="5.78656">
        <ele>879.672652</ele>
        <time>2025-07-10T12:12:52.000Z</time>
      </trkpt>
      <trkpt lat="44.90637" lon="5.78655">
        <ele>879.672453</ele>
        <time>2025-07-10T12:12:53.000Z</time>
      </trkpt>
      <trkpt lat="44.90636" lon="5.78655">
        <ele>879.672173</ele>
        <time>2025-07-10T12:12:54.000Z</time>
      </trkpt>
      <trkpt lat="44.90635" lon="5.78654">
        <ele>879.671945</ele>
        <time>2025-07-10T12:12:55.000Z</time>
      </trkpt>
      <trkpt lat="44.90634" lon="5.78655">
        <ele>879.671804</ele>
        <time>2025-07-10T12:12:56.000Z</time>
      </trkpt>
      <trkpt lat="44.90634" lon="5.78656">
        <ele>879.671638</ele>
        <time>2025-07-10T12:12:57.000Z</time>
      </trkpt>
      <trkpt lat="44.90634" lon="5.78657">
        <ele>879.671463</ele>
        <time>2025-07-10T12:12:58.000Z</time>
      </trkpt>
      <trkpt lat="44.9064" lon="5.78665">
        <ele>879.669666</ele>
        <time>2025-07-10T12:15:54.000Z</time>
      </trkpt>
      <trkpt lat="44.90645" lon="5.7866">
        <ele>879.668426</ele>
        <time>2025-07-10T12:16:03.000Z</time>
      </trkpt>
      <trkpt lat="44.90646" lon="5.7866">
        <ele>879.668173</ele>
        <time>2025-07-10T12:16:04.000Z</time>
      </trkpt>
      <trkpt lat="44.90647" lon="5.78662">
        <ele>879.66783</ele>
        <time>2025-07-10T12:16:05.000Z</time>
      </trkpt>
      <trkpt lat="44.90648" lon="5.78664">
        <ele>879.667443</ele>
        <time>2025-07-10T12:16:06.000Z</time>
      </trkpt>
      <trkpt lat="44.90649" lon="5.78666">
        <ele>879.667052</ele>
        <time>2025-07-10T12:16:07.000Z</time>
      </trkpt>
      <trkpt lat="44.90649" lon="5.78669">
        <ele>879.66665</ele>
        <time>2025-07-10T12:16:08.000Z</time>
      </trkpt>
      <trkpt lat="44.9065" lon="5.78671">
        <ele>879.666259</ele>
        <time>2025-07-10T12:16:09.000Z</time>
      </trkpt>
      <trkpt lat="44.90651" lon="5.78674">
        <ele>879.665855</ele>
        <time>2025-07-10T12:16:10.000Z</time>
      </trkpt>
      <trkpt lat="44.90651" lon="5.78676">
        <ele>879.665408</ele>
        <time>2025-07-10T12:16:11.000Z</time>
      </trkpt>
      <trkpt lat="44.90652" lon="5.78679">
        <ele>879.664957</ele>
        <time>2025-07-10T12:16:12.000Z</time>
      </trkpt>
      <trkpt lat="44.90654" lon="5.78682">
        <ele>879.664446</ele>
        <time>2025-07-10T12:16:13.000Z</time>
      </trkpt>
      <trkpt lat="44.90655" lon="5.78684">
        <ele>879.663984</ele>
        <time>2025-07-10T12:16:14.000Z</time>
      </trkpt>
      <trkpt lat="44.90657" lon="5.78686">
        <ele>879.663533</ele>
        <time>2025-07-10T12:16:15.000Z</time>
      </trkpt>
      <trkpt lat="44.90658" lon="5.78688">
        <ele>879.663102</ele>
        <time>2025-07-10T12:16:16.000Z</time>
      </trkpt>
      <trkpt lat="44.9066" lon="5.78689">
        <ele>879.662707</ele>
        <time>2025-07-10T12:16:17.000Z</time>
      </trkpt>
      <trkpt lat="44.90661" lon="5.78691">
        <ele>879.662336</ele>
        <time>2025-07-10T12:16:18.000Z</time>
      </trkpt>
      <trkpt lat="44.90663" lon="5.78693">
        <ele>879.661902</ele>
        <time>2025-07-10T12:16:19.000Z</time>
      </trkpt>
      <trkpt lat="44.90664" lon="5.78694">
        <ele>879.661512</ele>
        <time>2025-07-10T12:16:20.000Z</time>
      </trkpt>
      <trkpt lat="44.90666" lon="5.78695">
        <ele>879.661103</ele>
        <time>2025-07-10T12:16:21.000Z</time>
      </trkpt>
      <trkpt lat="44.90668" lon="5.78696">
        <ele>879.660681</ele>
        <time>2025-07-10T12:16:22.000Z</time>
      </trkpt>
      <trkpt lat="44.90669" lon="5.78698">
        <ele>879.660355</ele>
        <time>2025-07-10T12:16:23.000Z</time>
      </trkpt>
      <trkpt lat="44.9067" lon="5.78699">
        <ele>879.659984</ele>
        <time>2025-07-10T12:16:24.000Z</time>
      </trkpt>
      <trkpt lat="44.90672" lon="5.787">
        <ele>879.659582</ele>
        <time>2025-07-10T12:16:25.000Z</time>
      </trkpt>
      <trkpt lat="44.90673" lon="5.78701">
        <ele>879.659282</ele>
        <time>2025-07-10T12:16:26.000Z</time>
      </trkpt>
      <trkpt lat="44.90674" lon="5.78703">
        <ele>879.636756</ele>
        <time>2025-07-10T12:16:27.000Z</time>
      </trkpt>
      <trkpt lat="44.90676" lon="5.78705">
        <ele>879.603992</ele>
        <time>2025-07-10T12:16:28.000Z</time>
      </trkpt>
      <trkpt lat="44.90676" lon="5.78708">
        <ele>879.575432</ele>
        <time>2025-07-10T12:16:29.000Z</time>
      </trkpt>
      <trkpt lat="44.90676" lon="5.7871">
        <ele>879.542439</ele>
        <time>2025-07-10T12:16:30.000Z</time>
      </trkpt>
      <trkpt lat="44.90675" lon="5.78714">
        <ele>879.50629</ele>
        <time>2025-07-10T12:16:31.000Z</time>
      </trkpt>
      <trkpt lat="44.90674" lon="5.78716">
        <ele>879.474892</ele>
        <time>2025-07-10T12:16:32.000Z</time>
      </trkpt>
      <trkpt lat="44.90674" lon="5.78719">
        <ele>879.442466</ele>
        <time>2025-07-10T12:16:33.000Z</time>
      </trkpt>
      <trkpt lat="44.90673" lon="5.78722">
        <ele>879.41004</ele>
        <time>2025-07-10T12:16:34.000Z</time>
      </trkpt>
      <trkpt lat="44.90672" lon="5.78725">
        <ele>879.377068</ele>
        <time>2025-07-10T12:16:35.000Z</time>
      </trkpt>
      <trkpt lat="44.90671" lon="5.78727">
        <ele>879.34567</ele>
        <time>2025-07-10T12:16:36.000Z</time>
      </trkpt>
      <trkpt lat="44.9067" lon="5.7873">
        <ele>879.310016</ele>
        <time>2025-07-10T12:16:37.000Z</time>
      </trkpt>
      <trkpt lat="44.90669" lon="5.78733">
        <ele>879.274277</ele>
        <time>2025-07-10T12:16:38.000Z</time>
      </trkpt>
      <trkpt lat="44.90668" lon="5.78736">
        <ele>879.236413</ele>
        <time>2025-07-10T12:16:39.000Z</time>
      </trkpt>
      <trkpt lat="44.90666" lon="5.78739">
        <ele>879.191851</ele>
        <time>2025-07-10T12:16:40.000Z</time>
      </trkpt>
      <trkpt lat="44.90664" lon="5.78743">
        <ele>879.140072</ele>
        <time>2025-07-10T12:16:41.000Z</time>
      </trkpt>
      <trkpt lat="44.90662" lon="5.78747">
        <ele>879.088969</ele>
        <time>2025-07-10T12:16:42.000Z</time>
      </trkpt>
      <trkpt lat="44.90659" lon="5.7875">
        <ele>879.035208</ele>
        <time>2025-07-10T12:16:43.000Z</time>
      </trkpt>
      <trkpt lat="44.90657" lon="5.78754">
        <ele>878.979036</ele>
        <time>2025-07-10T12:16:44.000Z</time>
      </trkpt>
      <trkpt lat="44.90655" lon="5.78759">
        <ele>878.921094</ele>
        <time>2025-07-10T12:16:45.000Z</time>
      </trkpt>
      <trkpt lat="44.90653" lon="5.78763">
        <ele>878.863117</ele>
        <time>2025-07-10T12:16:46.000Z</time>
      </trkpt>
      <trkpt lat="44.90651" lon="5.78767">
        <ele>878.80952</ele>
        <time>2025-07-10T12:16:47.000Z</time>
      </trkpt>
      <trkpt lat="44.90649" lon="5.78771">
        <ele>878.756884</ele>
        <time>2025-07-10T12:16:48.000Z</time>
      </trkpt>
      <trkpt lat="44.90646" lon="5.78774">
        <ele>878.70554</ele>
        <time>2025-07-10T12:16:49.000Z</time>
      </trkpt>
      <trkpt lat="44.90644" lon="5.78777">
        <ele>878.655752</ele>
        <time>2025-07-10T12:16:50.000Z</time>
      </trkpt>
      <trkpt lat="44.90641" lon="5.7878">
        <ele>878.608517</ele>
        <time>2025-07-10T12:16:51.000Z</time>
      </trkpt>
      <trkpt lat="44.90639" lon="5.78782">
        <ele>878.563664</ele>
        <time>2025-07-10T12:16:52.000Z</time>
      </trkpt>
      <trkpt lat="44.90636" lon="5.78782">
        <ele>878.514275</ele>
        <time>2025-07-10T12:16:53.000Z</time>
      </trkpt>
      <trkpt lat="44.90633" lon="5.78781">
        <ele>878.468006</ele>
        <time>2025-07-10T12:16:54.000Z</time>
      </trkpt>
      <trkpt lat="44.9063" lon="5.78781">
        <ele>878.420096</ele>
        <time>2025-07-10T12:16:55.000Z</time>
      </trkpt>
      <trkpt lat="44.90627" lon="5.7878">
        <ele>878.372306</ele>
        <time>2025-07-10T12:16:56.000Z</time>
      </trkpt>
      <trkpt lat="44.90624" lon="5.78779">
        <ele>878.324229</ele>
        <time>2025-07-10T12:16:57.000Z</time>
      </trkpt>
      <trkpt lat="44.9062" lon="5.78777">
        <ele>878.2711</ele>
        <time>2025-07-10T12:16:58.000Z</time>
      </trkpt>
      <trkpt lat="44.90617" lon="5.78776">
        <ele>878.217302</ele>
        <time>2025-07-10T12:16:59.000Z</time>
      </trkpt>
      <trkpt lat="44.90614" lon="5.78774">
        <ele>878.164959</ele>
        <time>2025-07-10T12:17:00.000Z</time>
      </trkpt>
      <trkpt lat="44.90611" lon="5.78773">
        <ele>878.115675</ele>
        <time>2025-07-10T12:17:01.000Z</time>
      </trkpt>
      <trkpt lat="44.90607" lon="5.78771">
        <ele>878.061128</ele>
        <time>2025-07-10T12:17:02.000Z</time>
      </trkpt>
      <trkpt lat="44.90604" lon="5.78769">
        <ele>878.009975</ele>
        <time>2025-07-10T12:17:03.000Z</time>
      </trkpt>
      <trkpt lat="44.90601" lon="5.78767">
        <ele>877.956478</ele>
        <time>2025-07-10T12:17:04.000Z</time>
      </trkpt>
      <trkpt lat="44.90598" lon="5.78765">
        <ele>877.902069</ele>
        <time>2025-07-10T12:17:05.000Z</time>
      </trkpt>
      <trkpt lat="44.90595" lon="5.78763">
        <ele>877.845689</ele>
        <time>2025-07-10T12:17:06.000Z</time>
      </trkpt>
      <trkpt lat="44.90592" lon="5.78761">
        <ele>877.795429</ele>
        <time>2025-07-10T12:17:07.000Z</time>
      </trkpt>
      <trkpt lat="44.90589" lon="5.7876">
        <ele>877.744152</ele>
        <time>2025-07-10T12:17:08.000Z</time>
      </trkpt>
      <trkpt lat="44.90586" lon="5.78758">
        <ele>877.694309</ele>
        <time>2025-07-10T12:17:09.000Z</time>
      </trkpt>
      <trkpt lat="44.90583" lon="5.78756">
        <ele>877.65104</ele>
        <time>2025-07-10T12:17:10.000Z</time>
      </trkpt>
      <trkpt lat="44.9058" lon="5.78754">
        <ele>877.603603</ele>
        <time>2025-07-10T12:17:11.000Z</time>
      </trkpt>
      <trkpt lat="44.90577" lon="5.78753">
        <ele>877.55376</ele>
        <time>2025-07-10T12:17:12.000Z</time>
      </trkpt>
      <trkpt lat="44.90575" lon="5.78752">
        <ele>877.509483</ele>
        <time>2025-07-10T12:17:13.000Z</time>
      </trkpt>
      <trkpt lat="44.90572" lon="5.78751">
        <ele>877.462888</ele>
        <time>2025-07-10T12:17:14.000Z</time>
      </trkpt>
      <trkpt lat="44.90569" lon="5.78749">
        <ele>877.418709</ele>
        <time>2025-07-10T12:17:15.000Z</time>
      </trkpt>
      <trkpt lat="44.90566" lon="5.78747">
        <ele>877.372525</ele>
        <time>2025-07-10T12:17:16.000Z</time>
      </trkpt>
      <trkpt lat="44.90564" lon="5.78745">
        <ele>877.329255</ele>
        <time>2025-07-10T12:17:17.000Z</time>
      </trkpt>
      <trkpt lat="44.90561" lon="5.78743">
        <ele>877.285478</ele>
        <time>2025-07-10T12:17:18.000Z</time>
      </trkpt>
      <trkpt lat="44.90559" lon="5.78742">
        <ele>877.239303</ele>
        <time>2025-07-10T12:17:19.000Z</time>
      </trkpt>
      <trkpt lat="44.90556" lon="5.7874">
        <ele>877.192389</ele>
        <time>2025-07-10T12:17:20.000Z</time>
      </trkpt>
      <trkpt lat="44.90553" lon="5.78739">
        <ele>877.148404</ele>
        <time>2025-07-10T12:17:21.000Z</time>
      </trkpt>
      <trkpt lat="44.9055" lon="5.78738">
        <ele>877.103592</ele>
        <time>2025-07-10T12:17:22.000Z</time>
      </trkpt>
      <trkpt lat="44.90548" lon="5.78736">
        <ele>877.060686</ele>
        <time>2025-07-10T12:17:23.000Z</time>
      </trkpt>
      <trkpt lat="44.90545" lon="5.78735">
        <ele>877.016955</ele>
        <time>2025-07-10T12:17:24.000Z</time>
      </trkpt>
      <trkpt lat="44.90542" lon="5.78733">
        <ele>876.971373</ele>
        <time>2025-07-10T12:17:25.000Z</time>
      </trkpt>
      <trkpt lat="44.9054" lon="5.78732">
        <ele>876.929051</ele>
        <time>2025-07-10T12:17:26.000Z</time>
      </trkpt>
      <trkpt lat="44.90537" lon="5.7873">
        <ele>876.886728</ele>
        <time>2025-07-10T12:17:27.000Z</time>
      </trkpt>
      <trkpt lat="44.90535" lon="5.78729">
        <ele>876.894585</ele>
        <time>2025-07-10T12:17:28.000Z</time>
      </trkpt>
      <trkpt lat="44.90532" lon="5.78728">
        <ele>876.903583</ele>
        <time>2025-07-10T12:17:29.000Z</time>
      </trkpt>
      <trkpt lat="44.9053" lon="5.78726">
        <ele>876.912484</ele>
        <time>2025-07-10T12:17:30.000Z</time>
      </trkpt>
      <trkpt lat="44.90527" lon="5.78725">
        <ele>876.921037</ele>
        <time>2025-07-10T12:17:31.000Z</time>
      </trkpt>
      <trkpt lat="44.90525" lon="5.78724">
        <ele>876.930035</ele>
        <time>2025-07-10T12:17:32.000Z</time>
      </trkpt>
      <trkpt lat="44.90522" lon="5.78723">
        <ele>876.938968</ele>
        <time>2025-07-10T12:17:33.000Z</time>
      </trkpt>
      <trkpt lat="44.9052" lon="5.78721">
        <ele>876.947974</ele>
        <time>2025-07-10T12:17:34.000Z</time>
      </trkpt>
      <trkpt lat="44.90517" lon="5.7872">
        <ele>876.957472</ele>
        <time>2025-07-10T12:17:35.000Z</time>
      </trkpt>
      <trkpt lat="44.90514" lon="5.78718">
        <ele>876.967173</ele>
        <time>2025-07-10T12:17:36.000Z</time>
      </trkpt>
      <trkpt lat="44.90511" lon="5.78717">
        <ele>876.977391</ele>
        <time>2025-07-10T12:17:37.000Z</time>
      </trkpt>
      <trkpt lat="44.90508" lon="5.78716">
        <ele>876.987346</ele>
        <time>2025-07-10T12:17:38.000Z</time>
      </trkpt>
      <trkpt lat="44.90506" lon="5.78715">
        <ele>876.996881</ele>
        <time>2025-07-10T12:17:39.000Z</time>
      </trkpt>
      <trkpt lat="44.90503" lon="5.78714">
        <ele>877.006106</ele>
        <time>2025-07-10T12:17:40.000Z</time>
      </trkpt>
      <trkpt lat="44.905" lon="5.78712">
        <ele>877.015706</ele>
        <time>2025-07-10T12:17:41.000Z</time>
      </trkpt>
      <trkpt lat="44.90498" lon="5.7871">
        <ele>877.025522</ele>
        <time>2025-07-10T12:17:42.000Z</time>
      </trkpt>
      <trkpt lat="44.90495" lon="5.78708">
        <ele>877.034825</ele>
        <time>2025-07-10T12:17:43.000Z</time>
      </trkpt>
      <trkpt lat="44.90493" lon="5.78707">
        <ele>877.044672</ele>
        <time>2025-07-10T12:17:44.000Z</time>
      </trkpt>
      <trkpt lat="44.9049" lon="5.78705">
        <ele>877.053373</ele>
        <time>2025-07-10T12:17:45.000Z</time>
      </trkpt>
      <trkpt lat="44.90488" lon="5.78704">
        <ele>877.062684</ele>
        <time>2025-07-10T12:17:46.000Z</time>
      </trkpt>
      <trkpt lat="44.90485" lon="5.78702">
        <ele>877.071438</ele>
        <time>2025-07-10T12:17:47.000Z</time>
      </trkpt>
      <trkpt lat="44.90484" lon="5.78702">
        <ele>877.075904</ele>
        <time>2025-07-10T12:17:48.000Z</time>
      </trkpt>
      <trkpt lat="44.90484" lon="5.78703">
        <ele>877.079564</ele>
        <time>2025-07-10T12:17:51.000Z</time>
      </trkpt>
      <trkpt lat="44.90485" lon="5.78704">
        <ele>877.083495</ele>
        <time>2025-07-10T12:17:52.000Z</time>
      </trkpt>
      <trkpt lat="44.90486" lon="5.78706">
        <ele>877.088902</ele>
        <time>2025-07-10T12:17:53.000Z</time>
      </trkpt>
      <trkpt lat="44.90488" lon="5.78707">
        <ele>877.095203</ele>
        <time>2025-07-10T12:17:54.000Z</time>
      </trkpt>
      <trkpt lat="44.9049" lon="5.78708">
        <ele>877.101308</ele>
        <time>2025-07-10T12:17:55.000Z</time>
      </trkpt>
      <trkpt lat="44.90492" lon="5.78709">
        <ele>877.108607</ele>
        <time>2025-07-10T12:17:56.000Z</time>
      </trkpt>
      <trkpt lat="44.90494" lon="5.78711">
        <ele>877.116607</ele>
        <time>2025-07-10T12:17:57.000Z</time>
      </trkpt>
      <trkpt lat="44.90496" lon="5.78713">
        <ele>877.124326</ele>
        <time>2025-07-10T12:17:58.000Z</time>
      </trkpt>
      <trkpt lat="44.90498" lon="5.78715">
        <ele>877.133043</ele>
        <time>2025-07-10T12:17:59.000Z</time>
      </trkpt>
      <trkpt lat="44.905" lon="5.78716">
        <ele>877.142242</ele>
        <time>2025-07-10T12:18:00.000Z</time>
      </trkpt>
      <trkpt lat="44.90503" lon="5.78718">
        <ele>877.151386</ele>
        <time>2025-07-10T12:18:01.000Z</time>
      </trkpt>
      <trkpt lat="44.90506" lon="5.78719">
        <ele>877.161625</ele>
        <time>2025-07-10T12:18:02.000Z</time>
      </trkpt>
      <trkpt lat="44.90509" lon="5.7872">
        <ele>877.171643</ele>
        <time>2025-07-10T12:18:03.000Z</time>
      </trkpt>
      <trkpt lat="44.90512" lon="5.78722">
        <ele>877.183066</ele>
        <time>2025-07-10T12:18:04.000Z</time>
      </trkpt>
      <trkpt lat="44.90515" lon="5.78723">
        <ele>877.193617</ele>
        <time>2025-07-10T12:18:05.000Z</time>
      </trkpt>
      <trkpt lat="44.90518" lon="5.78725">
        <ele>877.20482</ele>
        <time>2025-07-10T12:18:06.000Z</time>
      </trkpt>
      <trkpt lat="44.90521" lon="5.78727">
        <ele>877.215519</ele>
        <time>2025-07-10T12:18:07.000Z</time>
      </trkpt>
      <trkpt lat="44.90524" lon="5.78729">
        <ele>877.226419</ele>
        <time>2025-07-10T12:18:08.000Z</time>
      </trkpt>
      <trkpt lat="44.90528" lon="5.78731">
        <ele>877.238377</ele>
        <time>2025-07-10T12:18:09.000Z</time>
      </trkpt>
      <trkpt lat="44.90531" lon="5.78733">
        <ele>877.24958</ele>
        <time>2025-07-10T12:18:10.000Z</time>
      </trkpt>
      <trkpt lat="44.90534" lon="5.78735">
        <ele>877.262182</ele>
        <time>2025-07-10T12:18:11.000Z</time>
      </trkpt>
      <trkpt lat="44.90537" lon="5.78737">
        <ele>877.273981</ele>
        <time>2025-07-10T12:18:12.000Z</time>
      </trkpt>
      <trkpt lat="44.9054" lon="5.78739">
        <ele>877.284881</ele>
        <time>2025-07-10T12:18:13.000Z</time>
      </trkpt>
      <trkpt lat="44.90543" lon="5.78741">
        <ele>877.296135</ele>
        <time>2025-07-10T12:18:14.000Z</time>
      </trkpt>
      <trkpt lat="44.90546" lon="5.78743">
        <ele>877.306434</ele>
        <time>2025-07-10T12:18:15.000Z</time>
      </trkpt>
      <trkpt lat="44.90549" lon="5.78744">
        <ele>877.316672</ele>
        <time>2025-07-10T12:18:16.000Z</time>
      </trkpt>
      <trkpt lat="44.90552" lon="5.78746">
        <ele>877.326288</ele>
        <time>2025-07-10T12:18:17.000Z</time>
      </trkpt>
      <trkpt lat="44.90554" lon="5.78748">
        <ele>877.335787</ele>
        <time>2025-07-10T12:18:18.000Z</time>
      </trkpt>
      <trkpt lat="44.90557" lon="5.7875">
        <ele>877.344886</ele>
        <time>2025-07-10T12:18:19.000Z</time>
      </trkpt>
      <trkpt lat="44.90559" lon="5.78752">
        <ele>877.354592</ele>
        <time>2025-07-10T12:18:20.000Z</time>
      </trkpt>
      <trkpt lat="44.90562" lon="5.78753">
        <ele>877.364292</ele>
        <time>2025-07-10T12:18:21.000Z</time>
      </trkpt>
      <trkpt lat="44.90565" lon="5.78753">
        <ele>877.374372</ele>
        <time>2025-07-10T12:18:22.000Z</time>
      </trkpt>
      <trkpt lat="44.90568" lon="5.78754">
        <ele>877.383843</ele>
        <time>2025-07-10T12:18:23.000Z</time>
      </trkpt>
      <trkpt lat="44.90571" lon="5.78755">
        <ele>877.393638</ele>
        <time>2025-07-10T12:18:24.000Z</time>
      </trkpt>
      <trkpt lat="44.90574" lon="5.78756">
        <ele>877.40418</ele>
        <time>2025-07-10T12:18:25.000Z</time>
      </trkpt>
      <trkpt lat="44.90577" lon="5.78757">
        <ele>877.415045</ele>
        <time>2025-07-10T12:18:26.000Z</time>
      </trkpt>
      <trkpt lat="44.9058" lon="5.78758">
        <ele>877.425063</ele>
        <time>2025-07-10T12:18:27.000Z</time>
      </trkpt>
      <trkpt lat="44.90583" lon="5.7876">
        <ele>877.435538</ele>
        <time>2025-07-10T12:18:28.000Z</time>
      </trkpt>
      <trkpt lat="44.90585" lon="5.78761">
        <ele>877.444841</ele>
        <time>2025-07-10T12:18:29.000Z</time>
      </trkpt>
      <trkpt lat="44.90588" lon="5.78762">
        <ele>877.454737</ele>
        <time>2025-07-10T12:18:30.000Z</time>
      </trkpt>
      <trkpt lat="44.90591" lon="5.78764">
        <ele>877.464121</ele>
        <time>2025-07-10T12:18:31.000Z</time>
      </trkpt>
      <trkpt lat="44.90594" lon="5.78765">
        <ele>877.473968</ele>
        <time>2025-07-10T12:18:32.000Z</time>
      </trkpt>
      <trkpt lat="44.90597" lon="5.78766">
        <ele>877.505497</ele>
        <time>2025-07-10T12:18:33.000Z</time>
      </trkpt>
      <trkpt lat="44.906" lon="5.78768">
        <ele>877.633259</ele>
        <time>2025-07-10T12:18:34.000Z</time>
      </trkpt>
      <trkpt lat="44.90602" lon="5.7877">
        <ele>877.757624</ele>
        <time>2025-07-10T12:18:35.000Z</time>
      </trkpt>
      <trkpt lat="44.90605" lon="5.78771">
        <ele>877.883977</ele>
        <time>2025-07-10T12:18:36.000Z</time>
      </trkpt>
      <trkpt lat="44.90609" lon="5.78772">
        <ele>878.026252</ele>
        <time>2025-07-10T12:18:37.000Z</time>
      </trkpt>
      <trkpt lat="44.90612" lon="5.78774">
        <ele>878.164531</ele>
        <time>2025-07-10T12:18:38.000Z</time>
      </trkpt>
      <trkpt lat="44.90614" lon="5.78775">
        <ele>878.282995</ele>
        <time>2025-07-10T12:18:39.000Z</time>
      </trkpt>
      <trkpt lat="44.90617" lon="5.78776">
        <ele>878.416169</ele>
        <time>2025-07-10T12:18:40.000Z</time>
      </trkpt>
      <trkpt lat="44.90621" lon="5.78778">
        <ele>878.556976</ele>
        <time>2025-07-10T12:18:41.000Z</time>
      </trkpt>
      <trkpt lat="44.90624" lon="5.78779">
        <ele>878.685691</ele>
        <time>2025-07-10T12:18:42.000Z</time>
      </trkpt>
      <trkpt lat="44.90627" lon="5.78779">
        <ele>878.804324</ele>
        <time>2025-07-10T12:18:43.000Z</time>
      </trkpt>
      <trkpt lat="44.90629" lon="5.7878">
        <ele>878.925648</ele>
        <time>2025-07-10T12:18:44.000Z</time>
      </trkpt>
      <trkpt lat="44.90632" lon="5.78781">
        <ele>879.039152</ele>
        <time>2025-07-10T12:18:45.000Z</time>
      </trkpt>
      <trkpt lat="44.90636" lon="5.78781">
        <ele>879.180834</ele>
        <time>2025-07-10T12:18:46.000Z</time>
      </trkpt>
      <trkpt lat="44.90638" lon="5.78781">
        <ele>879.292997</ele>
        <time>2025-07-10T12:18:47.000Z</time>
      </trkpt>
      <trkpt lat="44.90641" lon="5.7878">
        <ele>879.401607</ele>
        <time>2025-07-10T12:18:48.000Z</time>
      </trkpt>
      <trkpt lat="44.90643" lon="5.7878">
        <ele>879.501964</ele>
        <time>2025-07-10T12:18:49.000Z</time>
      </trkpt>
      <trkpt lat="44.90645" lon="5.78779">
        <ele>879.586873</ele>
        <time>2025-07-10T12:18:50.000Z</time>
      </trkpt>
      <trkpt lat="44.90647" lon="5.78778">
        <ele>879.675202</ele>
        <time>2025-07-10T12:18:51.000Z</time>
      </trkpt>
      <trkpt lat="44.90649" lon="5.78775">
        <ele>879.781458</ele>
        <time>2025-07-10T12:18:52.000Z</time>
      </trkpt>
      <trkpt lat="44.90651" lon="5.78772">
        <ele>879.8971</ele>
        <time>2025-07-10T12:18:53.000Z</time>
      </trkpt>
      <trkpt lat="44.90652" lon="5.78769">
        <ele>880.008164</ele>
        <time>2025-07-10T12:18:54.000Z</time>
      </trkpt>
      <trkpt lat="44.90653" lon="5.78766">
        <ele>880.116666</ele>
        <time>2025-07-10T12:18:55.000Z</time>
      </trkpt>
      <trkpt lat="44.90654" lon="5.78762">
        <ele>880.225771</ele>
        <time>2025-07-10T12:18:56.000Z</time>
      </trkpt>
      <trkpt lat="44.90656" lon="5.78759">
        <ele>880.336195</ele>
        <time>2025-07-10T12:18:57.000Z</time>
      </trkpt>
      <trkpt lat="44.90657" lon="5.78756">
        <ele>880.449014</ele>
        <time>2025-07-10T12:18:58.000Z</time>
      </trkpt>
      <trkpt lat="44.90659" lon="5.78753">
        <ele>880.557135</ele>
        <time>2025-07-10T12:18:59.000Z</time>
      </trkpt>
      <trkpt lat="44.9066" lon="5.7875">
        <ele>880.665271</ele>
        <time>2025-07-10T12:19:00.000Z</time>
      </trkpt>
      <trkpt lat="44.90662" lon="5.78747">
        <ele>880.769178</ele>
        <time>2025-07-10T12:19:01.000Z</time>
      </trkpt>
      <trkpt lat="44.90663" lon="5.78744">
        <ele>880.865203</ele>
        <time>2025-07-10T12:19:02.000Z</time>
      </trkpt>
      <trkpt lat="44.90665" lon="5.78742">
        <ele>880.964306</ele>
        <time>2025-07-10T12:19:03.000Z</time>
      </trkpt>
      <trkpt lat="44.90666" lon="5.78739">
        <ele>881.058059</ele>
        <time>2025-07-10T12:19:04.000Z</time>
      </trkpt>
      <trkpt lat="44.90667" lon="5.78736">
        <ele>881.15653</ele>
        <time>2025-07-10T12:19:05.000Z</time>
      </trkpt>
      <trkpt lat="44.90668" lon="5.78733">
        <ele>881.252356</ele>
        <time>2025-07-10T12:19:06.000Z</time>
      </trkpt>
      <trkpt lat="44.90669" lon="5.7873">
        <ele>881.349397</ele>
        <time>2025-07-10T12:19:07.000Z</time>
      </trkpt>
      <trkpt lat="44.90669" lon="5.78727">
        <ele>881.445096</ele>
        <time>2025-07-10T12:19:08.000Z</time>
      </trkpt>
      <trkpt lat="44.9067" lon="5.78724">
        <ele>881.539963</ele>
        <time>2025-07-10T12:19:09.000Z</time>
      </trkpt>
      <trkpt lat="44.90671" lon="5.78721">
        <ele>881.637483</ele>
        <time>2025-07-10T12:19:10.000Z</time>
      </trkpt>
      <trkpt lat="44.90672" lon="5.78718">
        <ele>881.740356</ele>
        <time>2025-07-10T12:19:11.000Z</time>
      </trkpt>
      <trkpt lat="44.90673" lon="5.78715">
        <ele>881.843228</ele>
        <time>2025-07-10T12:19:12.000Z</time>
      </trkpt>
      <trkpt lat="44.90674" lon="5.78712">
        <ele>881.936129</ele>
        <time>2025-07-10T12:19:13.000Z</time>
      </trkpt>
      <trkpt lat="44.90675" lon="5.78709">
        <ele>882.019505</ele>
        <time>2025-07-10T12:19:14.000Z</time>
      </trkpt>
      <trkpt lat="44.90676" lon="5.78707">
        <ele>882.105587</ele>
        <time>2025-07-10T12:19:15.000Z</time>
      </trkpt>
      <trkpt lat="44.90677" lon="5.78704">
        <ele>882.199194</ele>
        <time>2025-07-10T12:19:16.000Z</time>
      </trkpt>
      <trkpt lat="44.90678" lon="5.78702">
        <ele>882.273919</ele>
        <time>2025-07-10T12:19:17.000Z</time>
      </trkpt>
      <trkpt lat="44.90679" lon="5.787">
        <ele>882.344855</ele>
        <time>2025-07-10T12:19:18.000Z</time>
      </trkpt>
      <trkpt lat="44.90679" lon="5.78697">
        <ele>882.416945</ele>
        <time>2025-07-10T12:19:19.000Z</time>
      </trkpt>
      <trkpt lat="44.9068" lon="5.78695">
        <ele>882.48256</ele>
        <time>2025-07-10T12:19:20.000Z</time>
      </trkpt>
      <trkpt lat="44.9068" lon="5.78693">
        <ele>882.558965</ele>
        <time>2025-07-10T12:19:21.000Z</time>
      </trkpt>
      <trkpt lat="44.90681" lon="5.7869">
        <ele>882.643896</ele>
        <time>2025-07-10T12:19:22.000Z</time>
      </trkpt>
      <trkpt lat="44.90682" lon="5.78688">
        <ele>882.719261</ele>
        <time>2025-07-10T12:19:23.000Z</time>
      </trkpt>
      <trkpt lat="44.90682" lon="5.78685">
        <ele>882.798501</ele>
        <time>2025-07-10T12:19:24.000Z</time>
      </trkpt>
      <trkpt lat="44.90683" lon="5.78683">
        <ele>882.874841</ele>
        <time>2025-07-10T12:19:25.000Z</time>
      </trkpt>
      <trkpt lat="44.90684" lon="5.7868">
        <ele>882.954047</ele>
        <time>2025-07-10T12:19:26.000Z</time>
      </trkpt>
      <trkpt lat="44.90685" lon="5.78679">
        <ele>883.000419</ele>
        <time>2025-07-10T12:19:27.000Z</time>
      </trkpt>
      <trkpt lat="44.90685" lon="5.78679">
        <ele>883.025863</ele>
        <time>2025-07-10T12:19:28.000Z</time>
      </trkpt>
      <trkpt lat="44.90687" lon="5.78677">
        <ele>883.10562</ele>
        <time>2025-07-10T12:19:34.000Z</time>
      </trkpt>
      <trkpt lat="44.90688" lon="5.78677">
        <ele>883.141242</ele>
        <time>2025-07-10T12:19:35.000Z</time>
      </trkpt>
      <trkpt lat="44.9069" lon="5.78678">
        <ele>883.236259</ele>
        <time>2025-07-10T12:46:49.000Z</time>
      </trkpt>
      <trkpt lat="44.9069" lon="5.78679">
        <ele>883.255533</ele>
        <time>2025-07-10T12:47:12.000Z</time>
      </trkpt>
      <trkpt lat="44.90688" lon="5.78678">
        <ele>883.333066</ele>
        <time>2025-07-10T13:08:57.000Z</time>
      </trkpt>
      <trkpt lat="44.90688" lon="5.78677">
        <ele>883.364317</ele>
        <time>2025-07-10T13:08:58.000Z</time>
      </trkpt>
      <trkpt lat="44.90688" lon="5.78677">
        <ele>883.381452</ele>
        <time>2025-07-10T13:08:59.000Z</time>
      </trkpt>
      <trkpt lat="44.90688" lon="5.78677">
        <ele>883.390263</ele>
        <time>2025-07-10T13:09:07.000Z</time>
      </trkpt>
      <trkpt lat="44.90689" lon="5.78677">
        <ele>883.427637</ele>
        <time>2025-07-10T13:09:09.000Z</time>
      </trkpt>
      <trkpt lat="44.90689" lon="5.78677">
        <ele>883.434838</ele>
        <time>2025-07-10T13:09:10.000Z</time>
      </trkpt>
      <trkpt lat="44.9069" lon="5.78675">
        <ele>883.4976</ele>
        <time>2025-07-10T13:09:12.000Z</time>
      </trkpt>
      <trkpt lat="44.90689" lon="5.78677">
        <ele>883.547033</ele>
        <time>2025-07-10T13:09:13.000Z</time>
      </trkpt>
      <trkpt lat="44.90692" lon="5.78673">
        <ele>883.703938</ele>
        <time>2025-07-10T13:10:40.000Z</time>
      </trkpt>
      <trkpt lat="44.90691" lon="5.7867">
        <ele>883.771712</ele>
        <time>2025-07-10T13:10:41.000Z</time>
      </trkpt>
      <trkpt lat="44.90692" lon="5.78668">
        <ele>883.828967</ele>
        <time>2025-07-10T13:10:42.000Z</time>
      </trkpt>
      <trkpt lat="44.90692" lon="5.78666">
        <ele>883.890091</ele>
        <time>2025-07-10T13:10:43.000Z</time>
      </trkpt>
      <trkpt lat="44.90693" lon="5.78664">
        <ele>883.968346</ele>
        <time>2025-07-10T13:10:44.000Z</time>
      </trkpt>
      <trkpt lat="44.90693" lon="5.78661">
        <ele>884.050699</ele>
        <time>2025-07-10T13:10:45.000Z</time>
      </trkpt>
      <trkpt lat="44.90693" lon="5.78658">
        <ele>884.13183</ele>
        <time>2025-07-10T13:10:46.000Z</time>
      </trkpt>
      <trkpt lat="44.90693" lon="5.78656">
        <ele>884.21135</ele>
        <time>2025-07-10T13:10:47.000Z</time>
      </trkpt>
      <trkpt lat="44.90693" lon="5.78653">
        <ele>884.282426</ele>
        <time>2025-07-10T13:10:48.000Z</time>
      </trkpt>
      <trkpt lat="44.90693" lon="5.78651">
        <ele>884.353137</ele>
        <time>2025-07-10T13:10:49.000Z</time>
      </trkpt>
      <trkpt lat="44.90693" lon="5.78649">
        <ele>884.412107</ele>
        <time>2025-07-10T13:10:50.000Z</time>
      </trkpt>
      <trkpt lat="44.90693" lon="5.78647">
        <ele>884.471514</ele>
        <time>2025-07-10T13:10:51.000Z</time>
      </trkpt>
      <trkpt lat="44.90694" lon="5.78645">
        <ele>884.534523</ele>
        <time>2025-07-10T13:10:52.000Z</time>
      </trkpt>
      <trkpt lat="44.90694" lon="5.78642">
        <ele>884.608102</ele>
        <time>2025-07-10T13:10:53.000Z</time>
      </trkpt>
      <trkpt lat="44.90694" lon="5.7864">
        <ele>884.687947</ele>
        <time>2025-07-10T13:10:54.000Z</time>
      </trkpt>
      <trkpt lat="44.90695" lon="5.78637">
        <ele>884.769078</ele>
        <time>2025-07-10T13:10:55.000Z</time>
      </trkpt>
      <trkpt lat="44.90695" lon="5.78634">
        <ele>884.845484</ele>
        <time>2025-07-10T13:10:56.000Z</time>
      </trkpt>
      <trkpt lat="44.90695" lon="5.78632">
        <ele>884.925329</ele>
        <time>2025-07-10T13:10:57.000Z</time>
      </trkpt>
      <trkpt lat="44.90696" lon="5.78629">
        <ele>884.996193</ele>
        <time>2025-07-10T13:10:58.000Z</time>
      </trkpt>
      <trkpt lat="44.90696" lon="5.78626">
        <ele>885.061358</ele>
        <time>2025-07-10T13:10:59.000Z</time>
      </trkpt>
      <trkpt lat="44.90696" lon="5.78624">
        <ele>885.125132</ele>
        <time>2025-07-10T13:11:00.000Z</time>
      </trkpt>
      <trkpt lat="44.90696" lon="5.78621">
        <ele>885.193798</ele>
        <time>2025-07-10T13:11:01.000Z</time>
      </trkpt>
      <trkpt lat="44.90696" lon="5.78618">
        <ele>885.26491</ele>
        <time>2025-07-10T13:11:02.000Z</time>
      </trkpt>
      <trkpt lat="44.90696" lon="5.78615">
        <ele>885.336274</ele>
        <time>2025-07-10T13:11:03.000Z</time>
      </trkpt>
      <trkpt lat="44.90695" lon="5.78612">
        <ele>885.404626</ele>
        <time>2025-07-10T13:11:04.000Z</time>
      </trkpt>
      <trkpt lat="44.90695" lon="5.78609">
        <ele>885.479394</ele>
        <time>2025-07-10T13:11:05.000Z</time>
      </trkpt>
      <trkpt lat="44.90694" lon="5.78607">
        <ele>885.547746</ele>
        <time>2025-07-10T13:11:06.000Z</time>
      </trkpt>
      <trkpt lat="44.90693" lon="5.78604">
        <ele>885.623972</ele>
        <time>2025-07-10T13:11:07.000Z</time>
      </trkpt>
      <trkpt lat="44.90693" lon="5.78601">
        <ele>885.699011</ele>
        <time>2025-07-10T13:11:08.000Z</time>
      </trkpt>
      <trkpt lat="44.90693" lon="5.78598">
        <ele>885.767677</ele>
        <time>2025-07-10T13:11:09.000Z</time>
      </trkpt>
      <trkpt lat="44.90692" lon="5.78595">
        <ele>885.837036</ele>
        <time>2025-07-10T13:11:10.000Z</time>
      </trkpt>
      <trkpt lat="44.90692" lon="5.78593">
        <ele>885.906996</ele>
        <time>2025-07-10T13:11:11.000Z</time>
      </trkpt>
      <trkpt lat="44.90691" lon="5.7859">
        <ele>885.978679</ele>
        <time>2025-07-10T13:11:12.000Z</time>
      </trkpt>
      <trkpt lat="44.9069" lon="5.78587">
        <ele>886.050362</ele>
        <time>2025-07-10T13:11:13.000Z</time>
      </trkpt>
      <trkpt lat="44.9069" lon="5.78585">
        <ele>886.117337</ele>
        <time>2025-07-10T13:11:14.000Z</time>
      </trkpt>
      <trkpt lat="44.90689" lon="5.78582">
        <ele>886.188985</ele>
        <time>2025-07-10T13:11:15.000Z</time>
      </trkpt>
      <trkpt lat="44.90689" lon="5.78579">
        <ele>886.256546</ele>
        <time>2025-07-10T13:11:16.000Z</time>
      </trkpt>
      <trkpt lat="44.90688" lon="5.78576">
        <ele>886.328195</ele>
        <time>2025-07-10T13:11:17.000Z</time>
      </trkpt>
      <trkpt lat="44.90688" lon="5.78574">
        <ele>886.392846</ele>
        <time>2025-07-10T13:11:18.000Z</time>
      </trkpt>
      <trkpt lat="44.90687" lon="5.78571">
        <ele>886.454118</ele>
        <time>2025-07-10T13:11:19.000Z</time>
      </trkpt>
      <trkpt lat="44.90687" lon="5.78569">
        <ele>886.521678</ele>
        <time>2025-07-10T13:11:20.000Z</time>
      </trkpt>
      <trkpt lat="44.90686" lon="5.78566">
        <ele>886.591638</ele>
        <time>2025-07-10T13:11:21.000Z</time>
      </trkpt>
      <trkpt lat="44.90686" lon="5.78563">
        <ele>886.656289</ele>
        <time>2025-07-10T13:11:22.000Z</time>
      </trkpt>
      <trkpt lat="44.90685" lon="5.78561">
        <ele>886.72671</ele>
        <time>2025-07-10T13:11:23.000Z</time>
      </trkpt>
      <trkpt lat="44.90684" lon="5.78558">
        <ele>886.800659</ele>
        <time>2025-07-10T13:11:24.000Z</time>
      </trkpt>
      <trkpt lat="44.90684" lon="5.78555">
        <ele>886.866644</ele>
        <time>2025-07-10T13:11:25.000Z</time>
      </trkpt>
      <trkpt lat="44.90683" lon="5.78553">
        <ele>886.934997</ele>
        <time>2025-07-10T13:11:26.000Z</time>
      </trkpt>
      <trkpt lat="44.90682" lon="5.7855">
        <ele>887.007723</ele>
        <time>2025-07-10T13:11:27.000Z</time>
      </trkpt>
      <trkpt lat="44.90682" lon="5.78547">
        <ele>887.072374</ele>
        <time>2025-07-10T13:11:28.000Z</time>
      </trkpt>
      <trkpt lat="44.90681" lon="5.78545">
        <ele>887.132761</ele>
        <time>2025-07-10T13:11:29.000Z</time>
      </trkpt>
      <trkpt lat="44.90681" lon="5.78542">
        <ele>887.19409</ele>
        <time>2025-07-10T13:11:30.000Z</time>
      </trkpt>
      <trkpt lat="44.90681" lon="5.7854">
        <ele>887.259255</ele>
        <time>2025-07-10T13:11:31.000Z</time>
      </trkpt>
      <trkpt lat="44.9068" lon="5.78537">
        <ele>887.327607</ele>
        <time>2025-07-10T13:11:32.000Z</time>
      </trkpt>
      <trkpt lat="44.9068" lon="5.78534">
        <ele>887.401604</ele>
        <time>2025-07-10T13:11:33.000Z</time>
      </trkpt>
      <trkpt lat="44.90679" lon="5.78531">
        <ele>887.473287</ele>
        <time>2025-07-10T13:11:34.000Z</time>
      </trkpt>
      <trkpt lat="44.90678" lon="5.78529">
        <ele>887.546375</ele>
        <time>2025-07-10T13:11:35.000Z</time>
      </trkpt>
      <trkpt lat="44.90678" lon="5.78526">
        <ele>887.618023</ele>
        <time>2025-07-10T13:11:36.000Z</time>
      </trkpt>
      <trkpt lat="44.90677" lon="5.78523">
        <ele>887.686149</ele>
        <time>2025-07-10T13:11:37.000Z</time>
      </trkpt>
      <trkpt lat="44.90676" lon="5.78521">
        <ele>887.753125</ele>
        <time>2025-07-10T13:11:38.000Z</time>
      </trkpt>
      <trkpt lat="44.90676" lon="5.78518">
        <ele>887.820686</ele>
        <time>2025-07-10T13:11:39.000Z</time>
      </trkpt>
      <trkpt lat="44.90675" lon="5.78516">
        <ele>887.881073</ele>
        <time>2025-07-10T13:11:40.000Z</time>
      </trkpt>
      <trkpt lat="44.90675" lon="5.78513">
        <ele>887.951798</ele>
        <time>2025-07-10T13:11:41.000Z</time>
      </trkpt>
      <trkpt lat="44.90674" lon="5.7851">
        <ele>888.025795</ele>
        <time>2025-07-10T13:11:42.000Z</time>
      </trkpt>
      <trkpt lat="44.90674" lon="5.78507">
        <ele>888.098157</ele>
        <time>2025-07-10T13:11:43.000Z</time>
      </trkpt>
      <trkpt lat="44.90674" lon="5.78504">
        <ele>888.164377</ele>
        <time>2025-07-10T13:11:44.000Z</time>
      </trkpt>
      <trkpt lat="44.90673" lon="5.78502">
        <ele>888.23273</ele>
        <time>2025-07-10T13:11:45.000Z</time>
      </trkpt>
      <trkpt lat="44.90673" lon="5.78499">
        <ele>888.303151</ele>
        <time>2025-07-10T13:11:46.000Z</time>
      </trkpt>
      <trkpt lat="44.90672" lon="5.78497">
        <ele>888.367509</ele>
        <time>2025-07-10T13:11:47.000Z</time>
      </trkpt>
      <trkpt lat="44.90671" lon="5.78494">
        <ele>888.4347</ele>
        <time>2025-07-10T13:11:48.000Z</time>
      </trkpt>
      <trkpt lat="44.9067" lon="5.78491">
        <ele>888.510926</ele>
        <time>2025-07-10T13:11:49.000Z</time>
      </trkpt>
      <trkpt lat="44.9067" lon="5.78488">
        <ele>888.589636</ele>
        <time>2025-07-10T13:11:50.000Z</time>
      </trkpt>
      <trkpt lat="44.90669" lon="5.78485">
        <ele>888.663842</ele>
        <time>2025-07-10T13:11:51.000Z</time>
      </trkpt>
      <trkpt lat="44.90669" lon="5.78482">
        <ele>888.732508</ele>
        <time>2025-07-10T13:11:52.000Z</time>
      </trkpt>
      <trkpt lat="44.90669" lon="5.7848">
        <ele>888.801174</ele>
        <time>2025-07-10T13:11:53.000Z</time>
      </trkpt>
      <trkpt lat="44.90669" lon="5.78477">
        <ele>888.874733</ele>
        <time>2025-07-10T13:11:54.000Z</time>
      </trkpt>
      <trkpt lat="44.90669" lon="5.78474">
        <ele>888.945761</ele>
        <time>2025-07-10T13:11:55.000Z</time>
      </trkpt>
      <trkpt lat="44.9067" lon="5.78471">
        <ele>889.014114</ele>
        <time>2025-07-10T13:11:56.000Z</time>
      </trkpt>
      <trkpt lat="44.90671" lon="5.78468">
        <ele>889.094271</ele>
        <time>2025-07-10T13:11:57.000Z</time>
      </trkpt>
      <trkpt lat="44.90672" lon="5.78465">
        <ele>889.17833</ele>
        <time>2025-07-10T13:11:58.000Z</time>
      </trkpt>
      <trkpt lat="44.90673" lon="5.78462">
        <ele>889.253641</ele>
        <time>2025-07-10T13:11:59.000Z</time>
      </trkpt>
      <trkpt lat="44.90674" lon="5.7846">
        <ele>889.323071</ele>
        <time>2025-07-10T13:12:00.000Z</time>
      </trkpt>
      <trkpt lat="44.90675" lon="5.78458">
        <ele>889.387044</ele>
        <time>2025-07-10T13:12:01.000Z</time>
      </trkpt>
      <trkpt lat="44.90676" lon="5.78456">
        <ele>889.450009</ele>
        <time>2025-07-10T13:12:02.000Z</time>
      </trkpt>
      <trkpt lat="44.90678" lon="5.78454">
        <ele>889.524803</ele>
        <time>2025-07-10T13:12:03.000Z</time>
      </trkpt>
      <trkpt lat="44.90679" lon="5.78452">
        <ele>889.598701</ele>
        <time>2025-07-10T13:12:04.000Z</time>
      </trkpt>
      <trkpt lat="44.90681" lon="5.7845">
        <ele>889.665188</ele>
        <time>2025-07-10T13:12:05.000Z</time>
      </trkpt>
      <trkpt lat="44.90682" lon="5.78448">
        <ele>889.731704</ele>
        <time>2025-07-10T13:12:06.000Z</time>
      </trkpt>
      <trkpt lat="44.90684" lon="5.78447">
        <ele>889.789649</ele>
        <time>2025-07-10T13:12:07.000Z</time>
      </trkpt>
      <trkpt lat="44.90685" lon="5.78445">
        <ele>889.859566</ele>
        <time>2025-07-10T13:12:08.000Z</time>
      </trkpt>
      <trkpt lat="44.90687" lon="5.78444">
        <ele>889.931846</ele>
        <time>2025-07-10T13:12:09.000Z</time>
      </trkpt>
      <trkpt lat="44.90689" lon="5.78442">
        <ele>890.012574</ele>
        <time>2025-07-10T13:12:10.000Z</time>
      </trkpt>
      <trkpt lat="44.90691" lon="5.78441">
        <ele>890.090361</ele>
        <time>2025-07-10T13:12:11.000Z</time>
      </trkpt>
      <trkpt lat="44.90693" lon="5.78439">
        <ele>890.159684</ele>
        <time>2025-07-10T13:12:12.000Z</time>
      </trkpt>
      <trkpt lat="44.90695" lon="5.78437">
        <ele>890.237471</ele>
        <time>2025-07-10T13:12:13.000Z</time>
      </trkpt>
      <trkpt lat="44.90697" lon="5.78436">
        <ele>890.314111</ele>
        <time>2025-07-10T13:12:14.000Z</time>
      </trkpt>
      <trkpt lat="44.90699" lon="5.78435">
        <ele>890.394819</ele>
        <time>2025-07-10T13:12:15.000Z</time>
      </trkpt>
      <trkpt lat="44.90702" lon="5.78435">
        <ele>890.485923</ele>
        <time>2025-07-10T13:12:16.000Z</time>
      </trkpt>
      <trkpt lat="44.90704" lon="5.78434">
        <ele>890.570671</ele>
        <time>2025-07-10T13:12:17.000Z</time>
      </trkpt>
      <trkpt lat="44.90706" lon="5.78433">
        <ele>890.649879</ele>
        <time>2025-07-10T13:12:18.000Z</time>
      </trkpt>
      <trkpt lat="44.90708" lon="5.78432">
        <ele>890.729087</ele>
        <time>2025-07-10T13:12:19.000Z</time>
      </trkpt>
      <trkpt lat="44.90711" lon="5.78431">
        <ele>890.811001</ele>
        <time>2025-07-10T13:12:20.000Z</time>
      </trkpt>
      <trkpt lat="44.90713" lon="5.78431">
        <ele>890.885619</ele>
        <time>2025-07-10T13:12:21.000Z</time>
      </trkpt>
      <trkpt lat="44.90715" lon="5.7843">
        <ele>890.968841</ele>
        <time>2025-07-10T13:12:22.000Z</time>
      </trkpt>
      <trkpt lat="44.90717" lon="5.78429">
        <ele>891.0561</ele>
        <time>2025-07-10T13:12:23.000Z</time>
      </trkpt>
      <trkpt lat="44.9072" lon="5.78427">
        <ele>891.140076</ele>
        <time>2025-07-10T13:12:24.000Z</time>
      </trkpt>
      <trkpt lat="44.90722" lon="5.78427">
        <ele>891.19371</ele>
        <time>2025-07-10T13:12:25.000Z</time>
      </trkpt>
      <trkpt lat="44.90725" lon="5.78426">
        <ele>891.234285</ele>
        <time>2025-07-10T13:12:26.000Z</time>
      </trkpt>
      <trkpt lat="44.90727" lon="5.78425">
        <ele>891.269502</ele>
        <time>2025-07-10T13:12:27.000Z</time>
      </trkpt>
      <trkpt lat="44.90729" lon="5.78424">
        <ele>891.305738</ele>
        <time>2025-07-10T13:12:28.000Z</time>
      </trkpt>
      <trkpt lat="44.90732" lon="5.78423">
        <ele>891.341973</ele>
        <time>2025-07-10T13:12:29.000Z</time>
      </trkpt>
      <trkpt lat="44.90734" lon="5.78422">
        <ele>891.375343</ele>
        <time>2025-07-10T13:12:30.000Z</time>
      </trkpt>
      <trkpt lat="44.90736" lon="5.78421">
        <ele>891.411906</ele>
        <time>2025-07-10T13:12:31.000Z</time>
      </trkpt>
      <trkpt lat="44.90738" lon="5.7842">
        <ele>891.446432</ele>
        <time>2025-07-10T13:12:32.000Z</time>
      </trkpt>
      <trkpt lat="44.9074" lon="5.78418">
        <ele>891.479583</ele>
        <time>2025-07-10T13:12:33.000Z</time>
      </trkpt>
      <trkpt lat="44.90742" lon="5.78417">
        <ele>891.509758</ele>
        <time>2025-07-10T13:12:34.000Z</time>
      </trkpt>
      <trkpt lat="44.90744" lon="5.78416">
        <ele>891.547436</ele>
        <time>2025-07-10T13:12:35.000Z</time>
      </trkpt>
      <trkpt lat="44.90747" lon="5.78415">
        <ele>891.582235</ele>
        <time>2025-07-10T13:12:36.000Z</time>
      </trkpt>
      <trkpt lat="44.90749" lon="5.78414">
        <ele>891.615605</ele>
        <time>2025-07-10T13:12:37.000Z</time>
      </trkpt>
      <trkpt lat="44.90751" lon="5.78414">
        <ele>891.656607</ele>
        <time>2025-07-10T13:12:38.000Z</time>
      </trkpt>
      <trkpt lat="44.90754" lon="5.78413">
        <ele>891.692543</ele>
        <time>2025-07-10T13:12:39.000Z</time>
      </trkpt>
      <trkpt lat="44.90756" lon="5.78412">
        <ele>891.725587</ele>
        <time>2025-07-10T13:12:40.000Z</time>
      </trkpt>
      <trkpt lat="44.90758" lon="5.78411">
        <ele>891.760728</ele>
        <time>2025-07-10T13:12:41.000Z</time>
      </trkpt>
      <trkpt lat="44.9076" lon="5.7841">
        <ele>891.793448</ele>
        <time>2025-07-10T13:12:42.000Z</time>
      </trkpt>
      <trkpt lat="44.90762" lon="5.78409">
        <ele>891.825708</ele>
        <time>2025-07-10T13:12:43.000Z</time>
      </trkpt>
      <trkpt lat="44.90765" lon="5.78409">
        <ele>891.865088</ele>
        <time>2025-07-10T13:12:44.000Z</time>
      </trkpt>
      <trkpt lat="44.90767" lon="5.78408">
        <ele>891.904598</ele>
        <time>2025-07-10T13:12:45.000Z</time>
      </trkpt>
      <trkpt lat="44.9077" lon="5.78407">
        <ele>891.943444</ele>
        <time>2025-07-10T13:12:46.000Z</time>
      </trkpt>
      <trkpt lat="44.90772" lon="5.78407">
        <ele>891.982041</ele>
        <time>2025-07-10T13:12:47.000Z</time>
      </trkpt>
      <trkpt lat="44.90775" lon="5.78405">
        <ele>892.018605</ele>
        <time>2025-07-10T13:12:48.000Z</time>
      </trkpt>
      <trkpt lat="44.90777" lon="5.78404">
        <ele>892.058123</ele>
        <time>2025-07-10T13:12:49.000Z</time>
      </trkpt>
      <trkpt lat="44.90779" lon="5.78403">
        <ele>892.095801</ele>
        <time>2025-07-10T13:12:50.000Z</time>
      </trkpt>
      <trkpt lat="44.90782" lon="5.78402">
        <ele>892.135915</ele>
        <time>2025-07-10T13:12:51.000Z</time>
      </trkpt>
      <trkpt lat="44.90784" lon="5.784">
        <ele>892.174619</ele>
        <time>2025-07-10T13:12:52.000Z</time>
      </trkpt>
      <trkpt lat="44.90787" lon="5.784">
        <ele>892.211147</ele>
        <time>2025-07-10T13:12:53.000Z</time>
      </trkpt>
      <trkpt lat="44.90789" lon="5.78399">
        <ele>892.253176</ele>
        <time>2025-07-10T13:12:54.000Z</time>
      </trkpt>
      <trkpt lat="44.90792" lon="5.78398">
        <ele>892.29619</ele>
        <time>2025-07-10T13:12:55.000Z</time>
      </trkpt>
      <trkpt lat="44.90795" lon="5.78397">
        <ele>892.335314</ele>
        <time>2025-07-10T13:12:56.000Z</time>
      </trkpt>
      <trkpt lat="44.90797" lon="5.78396">
        <ele>892.376182</ele>
        <time>2025-07-10T13:12:57.000Z</time>
      </trkpt>
      <trkpt lat="44.908" lon="5.78395">
        <ele>892.415305</ele>
        <time>2025-07-10T13:12:58.000Z</time>
      </trkpt>
      <trkpt lat="44.90802" lon="5.78394">
        <ele>892.450972</ele>
        <time>2025-07-10T13:12:59.000Z</time>
      </trkpt>
      <trkpt lat="44.90804" lon="5.78393">
        <ele>892.485771</ele>
        <time>2025-07-10T13:13:00.000Z</time>
      </trkpt>
      <trkpt lat="44.90807" lon="5.78392">
        <ele>892.523448</ele>
        <time>2025-07-10T13:13:01.000Z</time>
      </trkpt>
      <trkpt lat="44.90809" lon="5.78391">
        <ele>892.560578</ele>
        <time>2025-07-10T13:13:02.000Z</time>
      </trkpt>
      <trkpt lat="44.90812" lon="5.7839">
        <ele>892.599702</ele>
        <time>2025-07-10T13:13:03.000Z</time>
      </trkpt>
      <trkpt lat="44.90814" lon="5.7839">
        <ele>892.640856</ele>
        <time>2025-07-10T13:13:04.000Z</time>
      </trkpt>
      <trkpt lat="44.90817" lon="5.78389">
        <ele>892.680135</ele>
        <time>2025-07-10T13:13:05.000Z</time>
      </trkpt>
      <trkpt lat="44.90819" lon="5.7839">
        <ele>892.719341</ele>
        <time>2025-07-10T13:13:06.000Z</time>
      </trkpt>
      <trkpt lat="44.90822" lon="5.7839">
        <ele>892.758503</ele>
        <time>2025-07-10T13:13:07.000Z</time>
      </trkpt>
      <trkpt lat="44.90825" lon="5.78389">
        <ele>892.797709</ele>
        <time>2025-07-10T13:13:08.000Z</time>
      </trkpt>
      <trkpt lat="44.90827" lon="5.7839">
        <ele>892.835487</ele>
        <time>2025-07-10T13:13:09.000Z</time>
      </trkpt>
      <trkpt lat="44.9083" lon="5.7839">
        <ele>892.874635</ele>
        <time>2025-07-10T13:13:10.000Z</time>
      </trkpt>
      <trkpt lat="44.90832" lon="5.78389">
        <ele>892.913841</ele>
        <time>2025-07-10T13:13:11.000Z</time>
      </trkpt>
      <trkpt lat="44.90835" lon="5.78389">
        <ele>892.954495</ele>
        <time>2025-07-10T13:13:12.000Z</time>
      </trkpt>
      <trkpt lat="44.90838" lon="5.78389">
        <ele>892.995163</ele>
        <time>2025-07-10T13:13:13.000Z</time>
      </trkpt>
      <trkpt lat="44.9084" lon="5.78389">
        <ele>893.034325</ele>
        <time>2025-07-10T13:13:14.000Z</time>
      </trkpt>
      <trkpt lat="44.90843" lon="5.7839">
        <ele>893.078003</ele>
        <time>2025-07-10T13:13:15.000Z</time>
      </trkpt>
      <trkpt lat="44.90846" lon="5.7839">
        <ele>893.121669</ele>
        <time>2025-07-10T13:13:16.000Z</time>
      </trkpt>
      <trkpt lat="44.90849" lon="5.7839">
        <ele>893.160875</ele>
        <time>2025-07-10T13:13:17.000Z</time>
      </trkpt>
      <trkpt lat="44.90851" lon="5.7839">
        <ele>893.197011</ele>
        <time>2025-07-10T13:13:18.000Z</time>
      </trkpt>
      <trkpt lat="44.90854" lon="5.7839">
        <ele>893.234789</ele>
        <time>2025-07-10T13:13:19.000Z</time>
      </trkpt>
      <trkpt lat="44.90856" lon="5.78391">
        <ele>893.275943</ele>
        <time>2025-07-10T13:13:20.000Z</time>
      </trkpt>
      <trkpt lat="44.90859" lon="5.78391">
        <ele>893.318157</ele>
        <time>2025-07-10T13:13:21.000Z</time>
      </trkpt>
      <trkpt lat="44.90862" lon="5.78391">
        <ele>893.36033</ele>
        <time>2025-07-10T13:13:22.000Z</time>
      </trkpt>
      <trkpt lat="44.90865" lon="5.78391">
        <ele>893.402502</ele>
        <time>2025-07-10T13:13:23.000Z</time>
      </trkpt>
      <trkpt lat="44.90868" lon="5.78391">
        <ele>893.446492</ele>
        <time>2025-07-10T13:13:24.000Z</time>
      </trkpt>
      <trkpt lat="44.90871" lon="5.78391">
        <ele>893.490209</ele>
        <time>2025-07-10T13:13:25.000Z</time>
      </trkpt>
      <trkpt lat="44.90873" lon="5.78391">
        <ele>893.529357</ele>
        <time>2025-07-10T13:13:26.000Z</time>
      </trkpt>
      <trkpt lat="44.90876" lon="5.78392">
        <ele>893.570234</ele>
        <time>2025-07-10T13:13:27.000Z</time>
      </trkpt>
      <trkpt lat="44.90878" lon="5.78392">
        <ele>893.609614</ele>
        <time>2025-07-10T13:13:28.000Z</time>
      </trkpt>
      <trkpt lat="44.90881" lon="5.78393">
        <ele>893.646001</ele>
        <time>2025-07-10T13:13:29.000Z</time>
      </trkpt>
      <trkpt lat="44.90884" lon="5.78392">
        <ele>893.688174</ele>
        <time>2025-07-10T13:13:30.000Z</time>
      </trkpt>
      <trkpt lat="44.90887" lon="5.78393">
        <ele>893.731891</ele>
        <time>2025-07-10T13:13:31.000Z</time>
      </trkpt>
      <trkpt lat="44.90889" lon="5.78393">
        <ele>893.774064</ele>
        <time>2025-07-10T13:13:32.000Z</time>
      </trkpt>
      <trkpt lat="44.90892" lon="5.78393">
        <ele>893.814843</ele>
        <time>2025-07-10T13:13:33.000Z</time>
      </trkpt>
      <trkpt lat="44.90895" lon="5.78393">
        <ele>893.853991</ele>
        <time>2025-07-10T13:13:34.000Z</time>
      </trkpt>
      <trkpt lat="44.90897" lon="5.78394">
        <ele>893.871251</ele>
        <time>2025-07-10T13:13:35.000Z</time>
      </trkpt>
      <trkpt lat="44.909" lon="5.78394">
        <ele>893.846077</ele>
        <time>2025-07-10T13:13:36.000Z</time>
      </trkpt>
      <trkpt lat="44.90903" lon="5.78394">
        <ele>893.8227</ele>
        <time>2025-07-10T13:13:37.000Z</time>
      </trkpt>
      <trkpt lat="44.90905" lon="5.78394">
        <ele>893.797406</ele>
        <time>2025-07-10T13:13:38.000Z</time>
      </trkpt>
      <trkpt lat="44.90908" lon="5.78394">
        <ele>893.773105</ele>
        <time>2025-07-10T13:13:39.000Z</time>
      </trkpt>
      <trkpt lat="44.90911" lon="5.78395">
        <ele>893.748763</ele>
        <time>2025-07-10T13:13:40.000Z</time>
      </trkpt>
      <trkpt lat="44.90913" lon="5.78395">
        <ele>893.725385</ele>
        <time>2025-07-10T13:13:41.000Z</time>
      </trkpt>
      <trkpt lat="44.90916" lon="5.78395">
        <ele>893.701939</ele>
        <time>2025-07-10T13:13:42.000Z</time>
      </trkpt>
      <trkpt lat="44.90919" lon="5.78395">
        <ele>893.675843</ele>
        <time>2025-07-10T13:13:43.000Z</time>
      </trkpt>
      <trkpt lat="44.90922" lon="5.78396">
        <ele>893.64861</ele>
        <time>2025-07-10T13:13:44.000Z</time>
      </trkpt>
      <trkpt lat="44.90925" lon="5.78396">
        <ele>893.62421</ele>
        <time>2025-07-10T13:13:45.000Z</time>
      </trkpt>
      <trkpt lat="44.90928" lon="5.78396">
        <ele>893.597178</ele>
        <time>2025-07-10T13:13:46.000Z</time>
      </trkpt>
      <trkpt lat="44.90931" lon="5.78397">
        <ele>893.568733</ele>
        <time>2025-07-10T13:13:47.000Z</time>
      </trkpt>
      <trkpt lat="44.90934" lon="5.78398">
        <ele>893.539796</ele>
        <time>2025-07-10T13:13:48.000Z</time>
      </trkpt>
      <trkpt lat="44.90937" lon="5.78399">
        <ele>893.510692</ele>
        <time>2025-07-10T13:13:49.000Z</time>
      </trkpt>
      <trkpt lat="44.90941" lon="5.78399">
        <ele>893.47616</ele>
        <time>2025-07-10T13:13:50.000Z</time>
      </trkpt>
      <trkpt lat="44.90945" lon="5.784">
        <ele>893.443748</ele>
        <time>2025-07-10T13:13:51.000Z</time>
      </trkpt>
      <trkpt lat="44.90948" lon="5.784">
        <ele>893.413917</ele>
        <time>2025-07-10T13:13:52.000Z</time>
      </trkpt>
      <trkpt lat="44.90951" lon="5.784">
        <ele>893.38246</ele>
        <time>2025-07-10T13:13:53.000Z</time>
      </trkpt>
      <trkpt lat="44.90955" lon="5.784">
        <ele>893.350996</ele>
        <time>2025-07-10T13:13:54.000Z</time>
      </trkpt>
      <trkpt lat="44.90959" lon="5.784">
        <ele>893.31592</ele>
        <time>2025-07-10T13:13:55.000Z</time>
      </trkpt>
      <trkpt lat="44.90963" lon="5.784">
        <ele>893.281766</ele>
        <time>2025-07-10T13:13:56.000Z</time>
      </trkpt>
      <trkpt lat="44.90966" lon="5.784">
        <ele>893.251207</ele>
        <time>2025-07-10T13:13:57.000Z</time>
      </trkpt>
      <trkpt lat="44.90969" lon="5.784">
        <ele>893.220641</ele>
        <time>2025-07-10T13:13:58.000Z</time>
      </trkpt>
      <trkpt lat="44.90973" lon="5.784">
        <ele>893.188285</ele>
        <time>2025-07-10T13:13:59.000Z</time>
      </trkpt>
      <trkpt lat="44.90976" lon="5.784">
        <ele>893.157667</ele>
        <time>2025-07-10T13:14:00.000Z</time>
      </trkpt>
      <trkpt lat="44.90979" lon="5.784">
        <ele>893.130434</ele>
        <time>2025-07-10T13:14:01.000Z</time>
      </trkpt>
      <trkpt lat="44.90983" lon="5.78399">
        <ele>893.099637</ele>
        <time>2025-07-10T13:14:02.000Z</time>
      </trkpt>
      <trkpt lat="44.90986" lon="5.78398">
        <ele>893.068546</ele>
        <time>2025-07-10T13:14:03.000Z</time>
      </trkpt>
      <trkpt lat="44.9099" lon="5.78398">
        <ele>893.036164</ele>
        <time>2025-07-10T13:14:04.000Z</time>
      </trkpt>
      <trkpt lat="44.90993" lon="5.78399">
        <ele>893.00218</ele>
        <time>2025-07-10T13:14:05.000Z</time>
      </trkpt>
      <trkpt lat="44.90997" lon="5.78401">
        <ele>892.966923</ele>
        <time>2025-07-10T13:14:06.000Z</time>
      </trkpt>
      <trkpt lat="44.91" lon="5.78404">
        <ele>892.933038</ele>
        <time>2025-07-10T13:14:07.000Z</time>
      </trkpt>
      <trkpt lat="44.91004" lon="5.78405">
        <ele>892.898259</ele>
        <time>2025-07-10T13:14:08.000Z</time>
      </trkpt>
      <trkpt lat="44.91008" lon="5.78405">
        <ele>892.864997</ele>
        <time>2025-07-10T13:14:09.000Z</time>
      </trkpt>
      <trkpt lat="44.91011" lon="5.78405">
        <ele>892.832336</ele>
        <time>2025-07-10T13:14:10.000Z</time>
      </trkpt>
      <trkpt lat="44.91015" lon="5.78404">
        <ele>892.799674</ele>
        <time>2025-07-10T13:14:11.000Z</time>
      </trkpt>
      <trkpt lat="44.91019" lon="5.78404">
        <ele>892.766394</ele>
        <time>2025-07-10T13:14:12.000Z</time>
      </trkpt>
      <trkpt lat="44.91023" lon="5.78404">
        <ele>892.732027</ele>
        <time>2025-07-10T13:14:13.000Z</time>
      </trkpt>
      <trkpt lat="44.91026" lon="5.78405">
        <ele>892.699656</ele>
        <time>2025-07-10T13:14:14.000Z</time>
      </trkpt>
      <trkpt lat="44.91029" lon="5.78407">
        <ele>892.668497</ele>
        <time>2025-07-10T13:14:15.000Z</time>
      </trkpt>
      <trkpt lat="44.91033" lon="5.78409">
        <ele>892.634575</ele>
        <time>2025-07-10T13:14:16.000Z</time>
      </trkpt>
      <trkpt lat="44.91037" lon="5.7841">
        <ele>892.600306</ele>
        <time>2025-07-10T13:14:17.000Z</time>
      </trkpt>
      <trkpt lat="44.9104" lon="5.78411">
        <ele>892.565675</ele>
        <time>2025-07-10T13:14:18.000Z</time>
      </trkpt>
      <trkpt lat="44.91044" lon="5.78411">
        <ele>892.531373</ele>
        <time>2025-07-10T13:14:19.000Z</time>
      </trkpt>
      <trkpt lat="44.91048" lon="5.78412">
        <ele>892.495281</ele>
        <time>2025-07-10T13:14:20.000Z</time>
      </trkpt>
      <trkpt lat="44.91052" lon="5.78412">
        <ele>892.461728</ele>
        <time>2025-07-10T13:14:21.000Z</time>
      </trkpt>
      <trkpt lat="44.91056" lon="5.78413">
        <ele>892.426531</ele>
        <time>2025-07-10T13:14:22.000Z</time>
      </trkpt>
      <trkpt lat="44.9106" lon="5.78413">
        <ele>892.391386</ele>
        <time>2025-07-10T13:14:23.000Z</time>
      </trkpt>
      <trkpt lat="44.91064" lon="5.78414">
        <ele>892.357137</ele>
        <time>2025-07-10T13:14:24.000Z</time>
      </trkpt>
      <trkpt lat="44.91068" lon="5.78414">
        <ele>892.32009</ele>
        <time>2025-07-10T13:14:25.000Z</time>
      </trkpt>
      <trkpt lat="44.91072" lon="5.78415">
        <ele>892.281358</ele>
        <time>2025-07-10T13:14:26.000Z</time>
      </trkpt>
      <trkpt lat="44.91076" lon="5.78415">
        <ele>892.255766</ele>
        <time>2025-07-10T13:14:27.000Z</time>
      </trkpt>
      <trkpt lat="44.9108" lon="5.78415">
        <ele>892.241696</ele>
        <time>2025-07-10T13:14:28.000Z</time>
      </trkpt>
      <trkpt lat="44.91085" lon="5.78416">
        <ele>892.227292</ele>
        <time>2025-07-10T13:14:29.000Z</time>
      </trkpt>
      <trkpt lat="44.91089" lon="5.78416">
        <ele>892.212905</ele>
        <time>2025-07-10T13:14:30.000Z</time>
      </trkpt>
      <trkpt lat="44.91093" lon="5.78416">
        <ele>892.198517</ele>
        <time>2025-07-10T13:14:31.000Z</time>
      </trkpt>
      <trkpt lat="44.91098" lon="5.78416">
        <ele>892.183765</ele>
        <time>2025-07-10T13:14:32.000Z</time>
      </trkpt>
      <trkpt lat="44.91102" lon="5.78417">
        <ele>892.16933</ele>
        <time>2025-07-10T13:14:33.000Z</time>
      </trkpt>
      <trkpt lat="44.91106" lon="5.78417">
        <ele>892.155894</ele>
        <time>2025-07-10T13:14:34.000Z</time>
      </trkpt>
      <trkpt lat="44.9111" lon="5.78418">
        <ele>892.142812</ele>
        <time>2025-07-10T13:14:35.000Z</time>
      </trkpt>
      <trkpt lat="44.91114" lon="5.78418">
        <ele>892.12941</ele>
        <time>2025-07-10T13:14:36.000Z</time>
      </trkpt>
      <trkpt lat="44.91118" lon="5.78418">
        <ele>892.116342</ele>
        <time>2025-07-10T13:14:37.000Z</time>
      </trkpt>
      <trkpt lat="44.91122" lon="5.78419">
        <ele>892.103608</ele>
        <time>2025-07-10T13:14:38.000Z</time>
      </trkpt>
      <trkpt lat="44.91125" lon="5.78419">
        <ele>892.090859</ele>
        <time>2025-07-10T13:14:39.000Z</time>
      </trkpt>
      <trkpt lat="44.91129" lon="5.78419">
        <ele>892.079111</ele>
        <time>2025-07-10T13:14:40.000Z</time>
      </trkpt>
      <trkpt lat="44.91132" lon="5.7842">
        <ele>892.067045</ele>
        <time>2025-07-10T13:14:41.000Z</time>
      </trkpt>
      <trkpt lat="44.91136" lon="5.7842">
        <ele>892.054646</ele>
        <time>2025-07-10T13:14:42.000Z</time>
      </trkpt>
      <trkpt lat="44.9114" lon="5.7842">
        <ele>892.04258</ele>
        <time>2025-07-10T13:14:43.000Z</time>
      </trkpt>
      <trkpt lat="44.91144" lon="5.7842">
        <ele>892.029864</ele>
        <time>2025-07-10T13:14:44.000Z</time>
      </trkpt>
      <trkpt lat="44.91147" lon="5.78421">
        <ele>892.017142</ele>
        <time>2025-07-10T13:14:45.000Z</time>
      </trkpt>
      <trkpt lat="44.91151" lon="5.78421">
        <ele>892.005346</ele>
        <time>2025-07-10T13:14:46.000Z</time>
      </trkpt>
      <trkpt lat="44.91154" lon="5.78421">
        <ele>891.993614</ele>
        <time>2025-07-10T13:14:47.000Z</time>
      </trkpt>
      <trkpt lat="44.91158" lon="5.78422">
        <ele>891.981902</ele>
        <time>2025-07-10T13:14:48.000Z</time>
      </trkpt>
      <trkpt lat="44.91161" lon="5.78422">
        <ele>891.970526</ele>
        <time>2025-07-10T13:14:49.000Z</time>
      </trkpt>
      <trkpt lat="44.91165" lon="5.78421">
        <ele>891.958807</ele>
        <time>2025-07-10T13:14:50.000Z</time>
      </trkpt>
      <trkpt lat="44.91169" lon="5.78421">
        <ele>891.946073</ele>
        <time>2025-07-10T13:14:51.000Z</time>
      </trkpt>
      <trkpt lat="44.91172" lon="5.78421">
        <ele>891.933016</ele>
        <time>2025-07-10T13:14:52.000Z</time>
      </trkpt>
      <trkpt lat="44.91176" lon="5.78421">
        <ele>891.921304</ele>
        <time>2025-07-10T13:14:53.000Z</time>
      </trkpt>
      <trkpt lat="44.91179" lon="5.78421">
        <ele>891.909591</ele>
        <time>2025-07-10T13:14:54.000Z</time>
      </trkpt>
      <trkpt lat="44.91183" lon="5.78421">
        <ele>891.897879</ele>
        <time>2025-07-10T13:14:55.000Z</time>
      </trkpt>
      <trkpt lat="44.91186" lon="5.78421">
        <ele>891.886481</ele>
        <time>2025-07-10T13:14:56.000Z</time>
      </trkpt>
      <trkpt lat="44.9119" lon="5.78422">
        <ele>891.874685</ele>
        <time>2025-07-10T13:14:57.000Z</time>
      </trkpt>
      <trkpt lat="44.91193" lon="5.78422">
        <ele>891.863287</ele>
        <time>2025-07-10T13:14:58.000Z</time>
      </trkpt>
      <trkpt lat="44.91197" lon="5.78422">
        <ele>891.852206</ele>
        <time>2025-07-10T13:14:59.000Z</time>
      </trkpt>
      <trkpt lat="44.912" lon="5.78423">
        <ele>891.841476</ele>
        <time>2025-07-10T13:15:00.000Z</time>
      </trkpt>
      <trkpt lat="44.91203" lon="5.78423">
        <ele>891.829728</ele>
        <time>2025-07-10T13:15:01.000Z</time>
      </trkpt>
      <trkpt lat="44.91207" lon="5.78422">
        <ele>891.81778</ele>
        <time>2025-07-10T13:15:02.000Z</time>
      </trkpt>
      <trkpt lat="44.9121" lon="5.7842">
        <ele>891.806654</ele>
        <time>2025-07-10T13:15:03.000Z</time>
      </trkpt>
      <trkpt lat="44.91213" lon="5.78418">
        <ele>891.796155</ele>
        <time>2025-07-10T13:15:04.000Z</time>
      </trkpt>
      <trkpt lat="44.91215" lon="5.78416">
        <ele>891.785317</ele>
        <time>2025-07-10T13:15:05.000Z</time>
      </trkpt>
      <trkpt lat="44.91218" lon="5.78414">
        <ele>891.774643</ele>
        <time>2025-07-10T13:15:06.000Z</time>
      </trkpt>
      <trkpt lat="44.91221" lon="5.78411">
        <ele>891.763845</ele>
        <time>2025-07-10T13:15:07.000Z</time>
      </trkpt>
      <trkpt lat="44.91224" lon="5.78408">
        <ele>891.752633</ele>
        <time>2025-07-10T13:15:08.000Z</time>
      </trkpt>
      <trkpt lat="44.91227" lon="5.78406">
        <ele>891.740601</ele>
        <time>2025-07-10T13:15:09.000Z</time>
      </trkpt>
      <trkpt lat="44.9123" lon="5.78402">
        <ele>891.727754</ele>
        <time>2025-07-10T13:15:10.000Z</time>
      </trkpt>
      <trkpt lat="44.91233" lon="5.78399">
        <ele>891.714464</ele>
        <time>2025-07-10T13:15:11.000Z</time>
      </trkpt>
      <trkpt lat="44.91237" lon="5.78397">
        <ele>891.701042</ele>
        <time>2025-07-10T13:15:12.000Z</time>
      </trkpt>
      <trkpt lat="44.9124" lon="5.78395">
        <ele>891.687419</ele>
        <time>2025-07-10T13:15:13.000Z</time>
      </trkpt>
      <trkpt lat="44.91244" lon="5.78393">
        <ele>891.674401</ele>
        <time>2025-07-10T13:15:14.000Z</time>
      </trkpt>
      <trkpt lat="44.91248" lon="5.78392">
        <ele>891.658515</ele>
        <time>2025-07-10T13:15:15.000Z</time>
      </trkpt>
      <trkpt lat="44.91252" lon="5.78391">
        <ele>891.61046</ele>
        <time>2025-07-10T13:15:16.000Z</time>
      </trkpt>
      <trkpt lat="44.91257" lon="5.7839">
        <ele>891.562266</ele>
        <time>2025-07-10T13:15:17.000Z</time>
      </trkpt>
      <trkpt lat="44.91261" lon="5.78388">
        <ele>891.513185</ele>
        <time>2025-07-10T13:15:18.000Z</time>
      </trkpt>
      <trkpt lat="44.91265" lon="5.78386">
        <ele>891.465501</ele>
        <time>2025-07-10T13:15:19.000Z</time>
      </trkpt>
      <trkpt lat="44.91269" lon="5.78384">
        <ele>891.417069</ele>
        <time>2025-07-10T13:15:20.000Z</time>
      </trkpt>
      <trkpt lat="44.91273" lon="5.78381">
        <ele>891.366994</ele>
        <time>2025-07-10T13:15:21.000Z</time>
      </trkpt>
      <trkpt lat="44.91277" lon="5.78379">
        <ele>891.316286</ele>
        <time>2025-07-10T13:15:22.000Z</time>
      </trkpt>
      <trkpt lat="44.91281" lon="5.78376">
        <ele>891.265577</ele>
        <time>2025-07-10T13:15:23.000Z</time>
      </trkpt>
      <trkpt lat="44.91285" lon="5.78373">
        <ele>891.215557</ele>
        <time>2025-07-10T13:15:24.000Z</time>
      </trkpt>
      <trkpt lat="44.91289" lon="5.7837">
        <ele>891.164173</ele>
        <time>2025-07-10T13:15:25.000Z</time>
      </trkpt>
      <trkpt lat="44.91293" lon="5.78367">
        <ele>891.112074</ele>
        <time>2025-07-10T13:15:26.000Z</time>
      </trkpt>
      <trkpt lat="44.91297" lon="5.78364">
        <ele>891.058605</ele>
        <time>2025-07-10T13:15:27.000Z</time>
      </trkpt>
      <trkpt lat="44.91302" lon="5.78361">
        <ele>891.005858</ele>
        <time>2025-07-10T13:15:28.000Z</time>
      </trkpt>
      <trkpt lat="44.91306" lon="5.78358">
        <ele>890.952754</ele>
        <time>2025-07-10T13:15:29.000Z</time>
      </trkpt>
      <trkpt lat="44.9131" lon="5.78355">
        <ele>890.898641</ele>
        <time>2025-07-10T13:15:30.000Z</time>
      </trkpt>
      <trkpt lat="44.91314" lon="5.78353">
        <ele>890.845894</ele>
        <time>2025-07-10T13:15:31.000Z</time>
      </trkpt>
      <trkpt lat="44.91318" lon="5.78349">
        <ele>890.794414</ele>
        <time>2025-07-10T13:15:32.000Z</time>
      </trkpt>
      <trkpt lat="44.91322" lon="5.78346">
        <ele>890.742315</ele>
        <time>2025-07-10T13:15:33.000Z</time>
      </trkpt>
      <trkpt lat="44.91326" lon="5.78343">
        <ele>890.690216</ele>
        <time>2025-07-10T13:15:34.000Z</time>
      </trkpt>
      <trkpt lat="44.91331" lon="5.78341">
        <ele>890.636452</ele>
        <time>2025-07-10T13:15:35.000Z</time>
      </trkpt>
      <trkpt lat="44.91335" lon="5.78338">
        <ele>890.585744</ele>
        <time>2025-07-10T13:15:36.000Z</time>
      </trkpt>
      <trkpt lat="44.91339" lon="5.78335">
        <ele>890.534703</ele>
        <time>2025-07-10T13:15:37.000Z</time>
      </trkpt>
      <trkpt lat="44.91343" lon="5.78332">
        <ele>890.485341</ele>
        <time>2025-07-10T13:15:38.000Z</time>
      </trkpt>
      <trkpt lat="44.91347" lon="5.78329">
        <ele>890.434848</ele>
        <time>2025-07-10T13:15:39.000Z</time>
      </trkpt>
      <trkpt lat="44.91351" lon="5.78327">
        <ele>890.383807</ele>
        <time>2025-07-10T13:15:40.000Z</time>
      </trkpt>
      <trkpt lat="44.91355" lon="5.78324">
        <ele>890.332424</ele>
        <time>2025-07-10T13:15:41.000Z</time>
      </trkpt>
      <trkpt lat="44.91359" lon="5.78321">
        <ele>890.282054</ele>
        <time>2025-07-10T13:15:42.000Z</time>
      </trkpt>
      <trkpt lat="44.91363" lon="5.78318">
        <ele>890.229652</ele>
        <time>2025-07-10T13:15:43.000Z</time>
      </trkpt>
      <trkpt lat="44.91367" lon="5.78315">
        <ele>890.178269</ele>
        <time>2025-07-10T13:15:44.000Z</time>
      </trkpt>
      <trkpt lat="44.91371" lon="5.78313">
        <ele>890.126885</ele>
        <time>2025-07-10T13:15:45.000Z</time>
      </trkpt>
      <trkpt lat="44.91376" lon="5.7831">
        <ele>890.07482</ele>
        <time>2025-07-10T13:15:46.000Z</time>
      </trkpt>
      <trkpt lat="44.9138" lon="5.78307">
        <ele>890.025139</ele>
        <time>2025-07-10T13:15:47.000Z</time>
      </trkpt>
      <trkpt lat="44.91383" lon="5.78305">
        <ele>889.978511</ele>
        <time>2025-07-10T13:15:48.000Z</time>
      </trkpt>
      <trkpt lat="44.91387" lon="5.78302">
        <ele>889.930374</ele>
        <time>2025-07-10T13:15:49.000Z</time>
      </trkpt>
      <trkpt lat="44.9139" lon="5.78299">
        <ele>889.884712</ele>
        <time>2025-07-10T13:15:50.000Z</time>
      </trkpt>
      <trkpt lat="44.91394" lon="5.78295">
        <ele>889.83909</ele>
        <time>2025-07-10T13:15:51.000Z</time>
      </trkpt>
      <trkpt lat="44.91397" lon="5.78292">
        <ele>889.79299</ele>
        <time>2025-07-10T13:15:52.000Z</time>
      </trkpt>
      <trkpt lat="44.914" lon="5.7829">
        <ele>889.750355</ele>
        <time>2025-07-10T13:15:53.000Z</time>
      </trkpt>
      <trkpt lat="44.91404" lon="5.78287">
        <ele>889.709183</ele>
        <time>2025-07-10T13:15:54.000Z</time>
      </trkpt>
      <trkpt lat="44.91407" lon="5.78285">
        <ele>889.669028</ele>
        <time>2025-07-10T13:15:55.000Z</time>
      </trkpt>
      <trkpt lat="44.9141" lon="5.78283">
        <ele>889.63617</ele>
        <time>2025-07-10T13:15:56.000Z</time>
      </trkpt>
      <trkpt lat="44.91413" lon="5.78281">
        <ele>889.691119</ele>
        <time>2025-07-10T13:15:57.000Z</time>
      </trkpt>
      <trkpt lat="44.91416" lon="5.78278">
        <ele>889.746556</ele>
        <time>2025-07-10T13:15:58.000Z</time>
      </trkpt>
      <trkpt lat="44.9142" lon="5.78276">
        <ele>889.801139</ele>
        <time>2025-07-10T13:15:59.000Z</time>
      </trkpt>
      <trkpt lat="44.91423" lon="5.78273">
        <ele>889.856063</ele>
        <time>2025-07-10T13:16:00.000Z</time>
      </trkpt>
      <trkpt lat="44.91425" lon="5.78271">
        <ele>889.909099</ele>
        <time>2025-07-10T13:16:01.000Z</time>
      </trkpt>
      <trkpt lat="44.91428" lon="5.78268">
        <ele>889.961802</ele>
        <time>2025-07-10T13:16:02.000Z</time>
      </trkpt>
      <trkpt lat="44.91432" lon="5.78266">
        <ele>890.017239</ele>
        <time>2025-07-10T13:16:03.000Z</time>
      </trkpt>
      <trkpt lat="44.91435" lon="5.78264">
        <ele>890.071821</ele>
        <time>2025-07-10T13:16:04.000Z</time>
      </trkpt>
      <trkpt lat="44.91438" lon="5.78261">
        <ele>890.123717</ele>
        <time>2025-07-10T13:16:05.000Z</time>
      </trkpt>
      <trkpt lat="44.91441" lon="5.78259">
        <ele>890.178834</ele>
        <time>2025-07-10T13:16:06.000Z</time>
      </trkpt>
      <trkpt lat="44.91444" lon="5.78256">
        <ele>890.232615</ele>
        <time>2025-07-10T13:16:07.000Z</time>
      </trkpt>
      <trkpt lat="44.91447" lon="5.78254">
        <ele>890.28668</ele>
        <time>2025-07-10T13:16:08.000Z</time>
      </trkpt>
      <trkpt lat="44.9145" lon="5.78252">
        <ele>890.340745</ele>
        <time>2025-07-10T13:16:09.000Z</time>
      </trkpt>
      <trkpt lat="44.91453" lon="5.78249">
        <ele>890.393449</ele>
        <time>2025-07-10T13:16:10.000Z</time>
      </trkpt>
      <trkpt lat="44.91456" lon="5.78247">
        <ele>890.446152</ele>
        <time>2025-07-10T13:16:11.000Z</time>
      </trkpt>
      <trkpt lat="44.91459" lon="5.78245">
        <ele>890.499717</ele>
        <time>2025-07-10T13:16:12.000Z</time>
      </trkpt>
      <trkpt lat="44.91462" lon="5.78243">
        <ele>890.551413</ele>
        <time>2025-07-10T13:16:13.000Z</time>
      </trkpt>
      <trkpt lat="44.91465" lon="5.78241">
        <ele>890.599004</ele>
        <time>2025-07-10T13:16:14.000Z</time>
      </trkpt>
      <trkpt lat="44.91467" lon="5.78239">
        <ele>890.647131</ele>
        <time>2025-07-10T13:16:15.000Z</time>
      </trkpt>
      <trkpt lat="44.9147" lon="5.78237">
        <ele>890.694204</ele>
        <time>2025-07-10T13:16:16.000Z</time>
      </trkpt>
      <trkpt lat="44.91473" lon="5.78235">
        <ele>890.740301</ele>
        <time>2025-07-10T13:16:17.000Z</time>
      </trkpt>
      <trkpt lat="44.91475" lon="5.78233">
        <ele>890.784537</ele>
        <time>2025-07-10T13:16:18.000Z</time>
      </trkpt>
      <trkpt lat="44.91478" lon="5.78231">
        <ele>890.828899</ele>
        <time>2025-07-10T13:16:19.000Z</time>
      </trkpt>
      <trkpt lat="44.9148" lon="5.78229">
        <ele>890.87326</ele>
        <time>2025-07-10T13:16:20.000Z</time>
      </trkpt>
      <trkpt lat="44.91483" lon="5.78227">
        <ele>890.918458</ele>
        <time>2025-07-10T13:16:21.000Z</time>
      </trkpt>
      <trkpt lat="44.91486" lon="5.78225">
        <ele>890.964556</ele>
        <time>2025-07-10T13:16:22.000Z</time>
      </trkpt>
      <trkpt lat="44.91488" lon="5.78224">
        <ele>891.010653</ele>
        <time>2025-07-10T13:16:23.000Z</time>
      </trkpt>
      <trkpt lat="44.91491" lon="5.78222">
        <ele>891.05536</ele>
        <time>2025-07-10T13:16:24.000Z</time>
      </trkpt>
      <trkpt lat="44.91494" lon="5.7822">
        <ele>891.098722</ele>
        <time>2025-07-10T13:16:25.000Z</time>
      </trkpt>
      <trkpt lat="44.91496" lon="5.78219">
        <ele>891.142958</ele>
        <time>2025-07-10T13:16:26.000Z</time>
      </trkpt>
      <trkpt lat="44.91499" lon="5.78217">
        <ele>891.187664</ele>
        <time>2025-07-10T13:16:27.000Z</time>
      </trkpt>
      <trkpt lat="44.91502" lon="5.78215">
        <ele>891.232872</ele>
        <time>2025-07-10T13:16:28.000Z</time>
      </trkpt>
      <trkpt lat="44.91504" lon="5.78214">
        <ele>891.278378</ele>
        <time>2025-07-10T13:16:29.000Z</time>
      </trkpt>
      <trkpt lat="44.91507" lon="5.78212">
        <ele>891.326856</ele>
        <time>2025-07-10T13:16:30.000Z</time>
      </trkpt>
      <trkpt lat="44.9151" lon="5.7821">
        <ele>891.374983</ele>
        <time>2025-07-10T13:16:31.000Z</time>
      </trkpt>
      <trkpt lat="44.91513" lon="5.78208">
        <ele>891.421227</ele>
        <time>2025-07-10T13:16:32.000Z</time>
      </trkpt>
      <trkpt lat="44.91515" lon="5.78206">
        <ele>891.467324</ele>
        <time>2025-07-10T13:16:33.000Z</time>
      </trkpt>
      <trkpt lat="44.91518" lon="5.78204">
        <ele>891.513422</ele>
        <time>2025-07-10T13:16:34.000Z</time>
      </trkpt>
      <trkpt lat="44.91521" lon="5.78202">
        <ele>891.559133</ele>
        <time>2025-07-10T13:16:35.000Z</time>
      </trkpt>
      <trkpt lat="44.91523" lon="5.782">
        <ele>891.604331</ele>
        <time>2025-07-10T13:16:36.000Z</time>
      </trkpt>
      <trkpt lat="44.91526" lon="5.78199">
        <ele>891.646708</ele>
        <time>2025-07-10T13:16:37.000Z</time>
      </trkpt>
      <trkpt lat="44.91528" lon="5.78197">
        <ele>891.687848</ele>
        <time>2025-07-10T13:16:38.000Z</time>
      </trkpt>
      <trkpt lat="44.9153" lon="5.78195">
        <ele>891.727662</ele>
        <time>2025-07-10T13:16:39.000Z</time>
      </trkpt>
      <trkpt lat="44.91532" lon="5.78193">
        <ele>891.766776</ele>
        <time>2025-07-10T13:16:40.000Z</time>
      </trkpt>
      <trkpt lat="44.91535" lon="5.78192">
        <ele>891.805445</ele>
        <time>2025-07-10T13:16:41.000Z</time>
      </trkpt>
      <trkpt lat="44.91537" lon="5.78191">
        <ele>891.843694</ele>
        <time>2025-07-10T13:16:42.000Z</time>
      </trkpt>
      <trkpt lat="44.91539" lon="5.78189">
        <ele>891.881942</ele>
        <time>2025-07-10T13:16:43.000Z</time>
      </trkpt>
      <trkpt lat="44.91542" lon="5.78188">
        <ele>891.919798</ele>
        <time>2025-07-10T13:16:44.000Z</time>
      </trkpt>
      <trkpt lat="44.91544" lon="5.78187">
        <ele>891.956618</ele>
        <time>2025-07-10T13:16:45.000Z</time>
      </trkpt>
      <trkpt lat="44.91546" lon="5.78185">
        <ele>891.995732</ele>
        <time>2025-07-10T13:16:46.000Z</time>
      </trkpt>
      <trkpt lat="44.91548" lon="5.78184">
        <ele>892.034401</ele>
        <time>2025-07-10T13:16:47.000Z</time>
      </trkpt>
      <trkpt lat="44.91551" lon="5.78183">
        <ele>892.074087</ele>
        <time>2025-07-10T13:16:48.000Z</time>
      </trkpt>
      <trkpt lat="44.91553" lon="5.78181">
        <ele>892.112755</ele>
        <time>2025-07-10T13:16:49.000Z</time>
      </trkpt>
      <trkpt lat="44.91555" lon="5.7818">
        <ele>892.150611</ele>
        <time>2025-07-10T13:16:50.000Z</time>
      </trkpt>
      <trkpt lat="44.91558" lon="5.78179">
        <ele>892.187867</ele>
        <time>2025-07-10T13:16:51.000Z</time>
      </trkpt>
      <trkpt lat="44.9156" lon="5.78177">
        <ele>892.226073</ele>
        <time>2025-07-10T13:16:52.000Z</time>
      </trkpt>
      <trkpt lat="44.91562" lon="5.78175">
        <ele>892.266671</ele>
        <time>2025-07-10T13:16:53.000Z</time>
      </trkpt>
      <trkpt lat="44.91565" lon="5.78174">
        <ele>892.309511</ele>
        <time>2025-07-10T13:16:54.000Z</time>
      </trkpt>
      <trkpt lat="44.91567" lon="5.78172">
        <ele>892.349591</ele>
        <time>2025-07-10T13:16:55.000Z</time>
      </trkpt>
      <trkpt lat="44.91569" lon="5.7817">
        <ele>892.38831</ele>
        <time>2025-07-10T13:16:56.000Z</time>
      </trkpt>
      <trkpt lat="44.91571" lon="5.78168">
        <ele>892.40927</ele>
        <time>2025-07-10T13:16:57.000Z</time>
      </trkpt>
      <trkpt lat="44.91573" lon="5.78167">
        <ele>892.410101</ele>
        <time>2025-07-10T13:16:58.000Z</time>
      </trkpt>
      <trkpt lat="44.91576" lon="5.78165">
        <ele>892.410989</ele>
        <time>2025-07-10T13:16:59.000Z</time>
      </trkpt>
      <trkpt lat="44.91578" lon="5.78163">
        <ele>892.411914</ele>
        <time>2025-07-10T13:17:00.000Z</time>
      </trkpt>
      <trkpt lat="44.91581" lon="5.78162">
        <ele>892.412833</ele>
        <time>2025-07-10T13:17:01.000Z</time>
      </trkpt>
      <trkpt lat="44.91583" lon="5.7816">
        <ele>892.413738</ele>
        <time>2025-07-10T13:17:02.000Z</time>
      </trkpt>
      <trkpt lat="44.91586" lon="5.78158">
        <ele>892.414693</ele>
        <time>2025-07-10T13:17:03.000Z</time>
      </trkpt>
      <trkpt lat="44.91588" lon="5.78157">
        <ele>892.415599</ele>
        <time>2025-07-10T13:17:04.000Z</time>
      </trkpt>
      <trkpt lat="44.91591" lon="5.78155">
        <ele>892.416553</ele>
        <time>2025-07-10T13:17:05.000Z</time>
      </trkpt>
      <trkpt lat="44.91593" lon="5.78153">
        <ele>892.417518</ele>
        <time>2025-07-10T13:17:06.000Z</time>
      </trkpt>
      <trkpt lat="44.91596" lon="5.78151">
        <ele>892.418534</ele>
        <time>2025-07-10T13:17:07.000Z</time>
      </trkpt>
      <trkpt lat="44.91599" lon="5.78149">
        <ele>892.41959</ele>
        <time>2025-07-10T13:17:08.000Z</time>
      </trkpt>
      <trkpt lat="44.91602" lon="5.78147">
        <ele>892.420606</ele>
        <time>2025-07-10T13:17:09.000Z</time>
      </trkpt>
      <trkpt lat="44.91605" lon="5.78146">
        <ele>892.421631</ele>
        <time>2025-07-10T13:17:10.000Z</time>
      </trkpt>
      <trkpt lat="44.91608" lon="5.78144">
        <ele>892.42274</ele>
        <time>2025-07-10T13:17:11.000Z</time>
      </trkpt>
      <trkpt lat="44.91611" lon="5.78142">
        <ele>892.423848</ele>
        <time>2025-07-10T13:17:12.000Z</time>
      </trkpt>
      <trkpt lat="44.91614" lon="5.7814">
        <ele>892.424934</ele>
        <time>2025-07-10T13:17:13.000Z</time>
      </trkpt>
      <trkpt lat="44.91617" lon="5.78139">
        <ele>892.42598</ele>
        <time>2025-07-10T13:17:14.000Z</time>
      </trkpt>
      <trkpt lat="44.9162" lon="5.78137">
        <ele>892.42708</ele>
        <time>2025-07-10T13:17:15.000Z</time>
      </trkpt>
      <trkpt lat="44.91623" lon="5.78136">
        <ele>892.428236</ele>
        <time>2025-07-10T13:17:16.000Z</time>
      </trkpt>
      <trkpt lat="44.91626" lon="5.78134">
        <ele>892.429377</ele>
        <time>2025-07-10T13:17:17.000Z</time>
      </trkpt>
      <trkpt lat="44.9163" lon="5.78133">
        <ele>892.430481</ele>
        <time>2025-07-10T13:17:18.000Z</time>
      </trkpt>
      <trkpt lat="44.91633" lon="5.78132">
        <ele>892.43159</ele>
        <time>2025-07-10T13:17:19.000Z</time>
      </trkpt>
      <trkpt lat="44.91636" lon="5.78131">
        <ele>892.432688</ele>
        <time>2025-07-10T13:17:20.000Z</time>
      </trkpt>
      <trkpt lat="44.91639" lon="5.78129">
        <ele>892.433727</ele>
        <time>2025-07-10T13:17:21.000Z</time>
      </trkpt>
      <trkpt lat="44.91642" lon="5.78128">
        <ele>892.434734</ele>
        <time>2025-07-10T13:17:22.000Z</time>
      </trkpt>
      <trkpt lat="44.91645" lon="5.78127">
        <ele>892.435735</ele>
        <time>2025-07-10T13:17:23.000Z</time>
      </trkpt>
      <trkpt lat="44.91648" lon="5.78126">
        <ele>892.436752</ele>
        <time>2025-07-10T13:17:24.000Z</time>
      </trkpt>
      <trkpt lat="44.91651" lon="5.78126">
        <ele>892.43777</ele>
        <time>2025-07-10T13:17:25.000Z</time>
      </trkpt>
      <trkpt lat="44.91654" lon="5.78125">
        <ele>892.438792</ele>
        <time>2025-07-10T13:17:26.000Z</time>
      </trkpt>
      <trkpt lat="44.91657" lon="5.78124">
        <ele>892.439842</ele>
        <time>2025-07-10T13:17:27.000Z</time>
      </trkpt>
      <trkpt lat="44.9166" lon="5.78123">
        <ele>892.440921</ele>
        <time>2025-07-10T13:17:28.000Z</time>
      </trkpt>
      <trkpt lat="44.91663" lon="5.78123">
        <ele>892.44203</ele>
        <time>2025-07-10T13:17:29.000Z</time>
      </trkpt>
      <trkpt lat="44.91667" lon="5.78122">
        <ele>892.443205</ele>
        <time>2025-07-10T13:17:30.000Z</time>
      </trkpt>
      <trkpt lat="44.9167" lon="5.78121">
        <ele>892.444386</ele>
        <time>2025-07-10T13:17:31.000Z</time>
      </trkpt>
      <trkpt lat="44.91674" lon="5.7812">
        <ele>892.445498</ele>
        <time>2025-07-10T13:17:32.000Z</time>
      </trkpt>
      <trkpt lat="44.91677" lon="5.7812">
        <ele>892.446577</ele>
        <time>2025-07-10T13:17:33.000Z</time>
      </trkpt>
      <trkpt lat="44.9168" lon="5.78119">
        <ele>892.447693</ele>
        <time>2025-07-10T13:17:34.000Z</time>
      </trkpt>
      <trkpt lat="44.91683" lon="5.78118">
        <ele>892.448805</ele>
        <time>2025-07-10T13:17:35.000Z</time>
      </trkpt>
      <trkpt lat="44.91687" lon="5.78117">
        <ele>892.449925</ele>
        <time>2025-07-10T13:17:36.000Z</time>
      </trkpt>
      <trkpt lat="44.9169" lon="5.78117">
        <ele>892.451074</ele>
        <time>2025-07-10T13:17:37.000Z</time>
      </trkpt>
      <trkpt lat="44.91694" lon="5.78116">
        <ele>892.452219</ele>
        <time>2025-07-10T13:17:38.000Z</time>
      </trkpt>
      <trkpt lat="44.91697" lon="5.78115">
        <ele>892.453356</ele>
        <time>2025-07-10T13:17:39.000Z</time>
      </trkpt>
      <trkpt lat="44.917" lon="5.78115">
        <ele>892.454526</ele>
        <time>2025-07-10T13:17:40.000Z</time>
      </trkpt>
      <trkpt lat="44.91704" lon="5.78114">
        <ele>892.455684</ele>
        <time>2025-07-10T13:17:41.000Z</time>
      </trkpt>
      <trkpt lat="44.91707" lon="5.78113">
        <ele>892.456846</ele>
        <time>2025-07-10T13:17:42.000Z</time>
      </trkpt>
      <trkpt lat="44.9171" lon="5.78112">
        <ele>892.457911</ele>
        <time>2025-07-10T13:17:43.000Z</time>
      </trkpt>
      <trkpt lat="44.91714" lon="5.78111">
        <ele>892.459003</ele>
        <time>2025-07-10T13:17:44.000Z</time>
      </trkpt>
      <trkpt lat="44.91717" lon="5.7811">
        <ele>892.460069</ele>
        <time>2025-07-10T13:17:45.000Z</time>
      </trkpt>
      <trkpt lat="44.9172" lon="5.78109">
        <ele>892.461069</ele>
        <time>2025-07-10T13:17:46.000Z</time>
      </trkpt>
      <trkpt lat="44.91723" lon="5.78108">
        <ele>892.462129</ele>
        <time>2025-07-10T13:17:47.000Z</time>
      </trkpt>
      <trkpt lat="44.91726" lon="5.78107">
        <ele>892.463136</ele>
        <time>2025-07-10T13:17:48.000Z</time>
      </trkpt>
      <trkpt lat="44.91729" lon="5.78107">
        <ele>892.464178</ele>
        <time>2025-07-10T13:17:49.000Z</time>
      </trkpt>
      <trkpt lat="44.91732" lon="5.78106">
        <ele>892.465287</ele>
        <time>2025-07-10T13:17:50.000Z</time>
      </trkpt>
      <trkpt lat="44.91735" lon="5.78105">
        <ele>892.466403</ele>
        <time>2025-07-10T13:17:51.000Z</time>
      </trkpt>
      <trkpt lat="44.91739" lon="5.78104">
        <ele>892.467565</ele>
        <time>2025-07-10T13:17:52.000Z</time>
      </trkpt>
      <trkpt lat="44.91742" lon="5.78103">
        <ele>892.46869</ele>
        <time>2025-07-10T13:17:53.000Z</time>
      </trkpt>
      <trkpt lat="44.91746" lon="5.78102">
        <ele>892.4482</ele>
        <time>2025-07-10T13:17:54.000Z</time>
      </trkpt>
      <trkpt lat="44.91749" lon="5.78101">
        <ele>892.423627</ele>
        <time>2025-07-10T13:17:55.000Z</time>
      </trkpt>
      <trkpt lat="44.91753" lon="5.78101">
        <ele>892.399053</ele>
        <time>2025-07-10T13:17:56.000Z</time>
      </trkpt>
      <trkpt lat="44.91756" lon="5.78099">
        <ele>892.375231</ele>
        <time>2025-07-10T13:17:57.000Z</time>
      </trkpt>
      <trkpt lat="44.9176" lon="5.78098">
        <ele>892.351783</ele>
        <time>2025-07-10T13:17:58.000Z</time>
      </trkpt>
      <trkpt lat="44.91763" lon="5.78096">
        <ele>892.327076</ele>
        <time>2025-07-10T13:17:59.000Z</time>
      </trkpt>
      <trkpt lat="44.91767" lon="5.78095">
        <ele>892.304007</ele>
        <time>2025-07-10T13:18:00.000Z</time>
      </trkpt>
      <trkpt lat="44.9177" lon="5.78094">
        <ele>892.281146</ele>
        <time>2025-07-10T13:18:01.000Z</time>
      </trkpt>
      <trkpt lat="44.91774" lon="5.78093">
        <ele>892.257438</ele>
        <time>2025-07-10T13:18:02.000Z</time>
      </trkpt>
      <trkpt lat="44.91777" lon="5.78092">
        <ele>892.234577</ele>
        <time>2025-07-10T13:18:03.000Z</time>
      </trkpt>
      <trkpt lat="44.91781" lon="5.78091">
        <ele>892.211716</ele>
        <time>2025-07-10T13:18:04.000Z</time>
      </trkpt>
      <trkpt lat="44.91784" lon="5.7809">
        <ele>892.188855</ele>
        <time>2025-07-10T13:18:05.000Z</time>
      </trkpt>
      <trkpt lat="44.91787" lon="5.78089">
        <ele>892.165437</ele>
        <time>2025-07-10T13:18:06.000Z</time>
      </trkpt>
      <trkpt lat="44.91791" lon="5.78088">
        <ele>892.140858</ele>
        <time>2025-07-10T13:18:07.000Z</time>
      </trkpt>
      <trkpt lat="44.91795" lon="5.78086">
        <ele>892.116398</ele>
        <time>2025-07-10T13:18:08.000Z</time>
      </trkpt>
      <trkpt lat="44.91798" lon="5.78085">
        <ele>892.091819</ele>
        <time>2025-07-10T13:18:09.000Z</time>
      </trkpt>
      <trkpt lat="44.91802" lon="5.78084">
        <ele>892.066456</ele>
        <time>2025-07-10T13:18:10.000Z</time>
      </trkpt>
      <trkpt lat="44.91806" lon="5.78083">
        <ele>892.040577</ele>
        <time>2025-07-10T13:18:11.000Z</time>
      </trkpt>
      <trkpt lat="44.9181" lon="5.78083">
        <ele>892.014099</ele>
        <time>2025-07-10T13:18:12.000Z</time>
      </trkpt>
      <trkpt lat="44.91814" lon="5.78082">
        <ele>891.987567</ele>
        <time>2025-07-10T13:18:13.000Z</time>
      </trkpt>
      <trkpt lat="44.91818" lon="5.78081">
        <ele>891.961089</ele>
        <time>2025-07-10T13:18:14.000Z</time>
      </trkpt>
      <trkpt lat="44.91822" lon="5.7808">
        <ele>891.935555</ele>
        <time>2025-07-10T13:18:15.000Z</time>
      </trkpt>
      <trkpt lat="44.91825" lon="5.78079">
        <ele>891.910757</ele>
        <time>2025-07-10T13:18:16.000Z</time>
      </trkpt>
      <trkpt lat="44.91829" lon="5.78078">
        <ele>891.886512</ele>
        <time>2025-07-10T13:18:17.000Z</time>
      </trkpt>
      <trkpt lat="44.91833" lon="5.78077">
        <ele>891.862909</ele>
        <time>2025-07-10T13:18:18.000Z</time>
      </trkpt>
      <trkpt lat="44.91836" lon="5.78076">
        <ele>891.83892</ele>
        <time>2025-07-10T13:18:19.000Z</time>
      </trkpt>
      <trkpt lat="44.9184" lon="5.78076">
        <ele>891.814281</ele>
        <time>2025-07-10T13:18:20.000Z</time>
      </trkpt>
      <trkpt lat="44.91843" lon="5.78075">
        <ele>891.79036</ele>
        <time>2025-07-10T13:18:21.000Z</time>
      </trkpt>
      <trkpt lat="44.91847" lon="5.78074">
        <ele>891.76759</ele>
        <time>2025-07-10T13:18:22.000Z</time>
      </trkpt>
      <trkpt lat="44.9185" lon="5.78073">
        <ele>891.744972</ele>
        <time>2025-07-10T13:18:23.000Z</time>
      </trkpt>
      <trkpt lat="44.91854" lon="5.78072">
        <ele>891.721633</ele>
        <time>2025-07-10T13:18:24.000Z</time>
      </trkpt>
      <trkpt lat="44.91857" lon="5.78072">
        <ele>891.700242</ele>
        <time>2025-07-10T13:18:25.000Z</time>
      </trkpt>
      <trkpt lat="44.9186" lon="5.78071">
        <ele>891.676903</ele>
        <time>2025-07-10T13:18:26.000Z</time>
      </trkpt>
      <trkpt lat="44.91864" lon="5.7807">
        <ele>891.653485</ele>
        <time>2025-07-10T13:18:27.000Z</time>
      </trkpt>
      <trkpt lat="44.91867" lon="5.78069">
        <ele>891.632007</ele>
        <time>2025-07-10T13:18:28.000Z</time>
      </trkpt>
      <trkpt lat="44.91871" lon="5.78068">
        <ele>891.609237</ele>
        <time>2025-07-10T13:18:29.000Z</time>
      </trkpt>
      <trkpt lat="44.91874" lon="5.78067">
        <ele>891.587113</ele>
        <time>2025-07-10T13:18:30.000Z</time>
      </trkpt>
      <trkpt lat="44.91877" lon="5.78066">
        <ele>891.565073</ele>
        <time>2025-07-10T13:18:31.000Z</time>
      </trkpt>
      <trkpt lat="44.91881" lon="5.78066">
        <ele>891.542455</ele>
        <time>2025-07-10T13:18:32.000Z</time>
      </trkpt>
      <trkpt lat="44.91884" lon="5.78065">
        <ele>891.519186</ele>
        <time>2025-07-10T13:18:33.000Z</time>
      </trkpt>
      <trkpt lat="44.91887" lon="5.78064">
        <ele>891.49859</ele>
        <time>2025-07-10T13:18:34.000Z</time>
      </trkpt>
      <trkpt lat="44.9189" lon="5.78064">
        <ele>891.477341</ele>
        <time>2025-07-10T13:18:35.000Z</time>
      </trkpt>
      <trkpt lat="44.91894" lon="5.78063">
        <ele>891.456092</ele>
        <time>2025-07-10T13:18:36.000Z</time>
      </trkpt>
      <trkpt lat="44.91897" lon="5.78062">
        <ele>891.435348</ele>
        <time>2025-07-10T13:18:37.000Z</time>
      </trkpt>
      <trkpt lat="44.919" lon="5.78061">
        <ele>891.412487</ele>
        <time>2025-07-10T13:18:38.000Z</time>
      </trkpt>
      <trkpt lat="44.91903" lon="5.7806">
        <ele>891.39027</ele>
        <time>2025-07-10T13:18:39.000Z</time>
      </trkpt>
      <trkpt lat="44.91907" lon="5.78059">
        <ele>891.368696</ele>
        <time>2025-07-10T13:18:40.000Z</time>
      </trkpt>
      <trkpt lat="44.9191" lon="5.78058">
        <ele>891.346377</ele>
        <time>2025-07-10T13:18:41.000Z</time>
      </trkpt>
      <trkpt lat="44.91913" lon="5.78057">
        <ele>891.324057</ele>
        <time>2025-07-10T13:18:42.000Z</time>
      </trkpt>
      <trkpt lat="44.91917" lon="5.78056">
        <ele>891.300349</ele>
        <time>2025-07-10T13:18:43.000Z</time>
      </trkpt>
      <trkpt lat="44.9192" lon="5.78055">
        <ele>891.288787</ele>
        <time>2025-07-10T13:18:44.000Z</time>
      </trkpt>
      <trkpt lat="44.91923" lon="5.78054">
        <ele>891.301719</ele>
        <time>2025-07-10T13:18:45.000Z</time>
      </trkpt>
      <trkpt lat="44.91926" lon="5.78053">
        <ele>891.313986</ele>
        <time>2025-07-10T13:18:46.000Z</time>
      </trkpt>
      <trkpt lat="44.9193" lon="5.78052">
        <ele>891.326171</ele>
        <time>2025-07-10T13:18:47.000Z</time>
      </trkpt>
      <trkpt lat="44.91933" lon="5.78052">
        <ele>891.339105</ele>
        <time>2025-07-10T13:18:48.000Z</time>
      </trkpt>
      <trkpt lat="44.91936" lon="5.78051">
        <ele>891.352116</ele>
        <time>2025-07-10T13:18:49.000Z</time>
      </trkpt>
      <trkpt lat="44.9194" lon="5.7805">
        <ele>891.365174</ele>
        <time>2025-07-10T13:18:50.000Z</time>
      </trkpt>
      <trkpt lat="44.91943" lon="5.78049">
        <ele>891.378181</ele>
        <time>2025-07-10T13:18:51.000Z</time>
      </trkpt>
      <trkpt lat="44.91947" lon="5.78047">
        <ele>891.391477</ele>
        <time>2025-07-10T13:18:52.000Z</time>
      </trkpt>
      <trkpt lat="44.9195" lon="5.78046">
        <ele>891.404122</ele>
        <time>2025-07-10T13:18:53.000Z</time>
      </trkpt>
      <trkpt lat="44.91953" lon="5.78044">
        <ele>891.417129</ele>
        <time>2025-07-10T13:18:54.000Z</time>
      </trkpt>
      <trkpt lat="44.91956" lon="5.78043">
        <ele>891.430239</ele>
        <time>2025-07-10T13:18:55.000Z</time>
      </trkpt>
      <trkpt lat="44.9196" lon="5.78043">
        <ele>891.44325</ele>
        <time>2025-07-10T13:18:56.000Z</time>
      </trkpt>
      <trkpt lat="44.91963" lon="5.78042">
        <ele>891.45599</ele>
        <time>2025-07-10T13:18:57.000Z</time>
      </trkpt>
      <trkpt lat="44.91966" lon="5.78041">
        <ele>891.46873</ele>
        <time>2025-07-10T13:18:58.000Z</time>
      </trkpt>
      <trkpt lat="44.9197" lon="5.7804">
        <ele>891.480796</ele>
        <time>2025-07-10T13:18:59.000Z</time>
      </trkpt>
      <trkpt lat="44.91973" lon="5.78038">
        <ele>891.493227</ele>
        <time>2025-07-10T13:19:00.000Z</time>
      </trkpt>
      <trkpt lat="44.91976" lon="5.78037">
        <ele>891.505231</ele>
        <time>2025-07-10T13:19:01.000Z</time>
      </trkpt>
      <trkpt lat="44.91979" lon="5.78036">
        <ele>891.516499</ele>
        <time>2025-07-10T13:19:02.000Z</time>
      </trkpt>
      <trkpt lat="44.91982" lon="5.78036">
        <ele>891.527233</ele>
        <time>2025-07-10T13:19:03.000Z</time>
      </trkpt>
      <trkpt lat="44.91984" lon="5.78035">
        <ele>891.537966</ele>
        <time>2025-07-10T13:19:04.000Z</time>
      </trkpt>
      <trkpt lat="44.91987" lon="5.78034">
        <ele>891.548328</ele>
        <time>2025-07-10T13:19:05.000Z</time>
      </trkpt>
      <trkpt lat="44.9199" lon="5.78034">
        <ele>891.5579</ele>
        <time>2025-07-10T13:19:06.000Z</time>
      </trkpt>
      <trkpt lat="44.91992" lon="5.78033">
        <ele>891.567805</ele>
        <time>2025-07-10T13:19:07.000Z</time>
      </trkpt>
      <trkpt lat="44.91995" lon="5.78033">
        <ele>891.57771</ele>
        <time>2025-07-10T13:19:08.000Z</time>
      </trkpt>
      <trkpt lat="44.91997" lon="5.78032">
        <ele>891.586592</ele>
        <time>2025-07-10T13:19:09.000Z</time>
      </trkpt>
      <trkpt lat="44.92" lon="5.78031">
        <ele>891.596268</ele>
        <time>2025-07-10T13:19:10.000Z</time>
      </trkpt>
      <trkpt lat="44.92002" lon="5.7803">
        <ele>891.606373</ele>
        <time>2025-07-10T13:19:11.000Z</time>
      </trkpt>
      <trkpt lat="44.92005" lon="5.78029">
        <ele>891.61634</ele>
        <time>2025-07-10T13:19:12.000Z</time>
      </trkpt>
      <trkpt lat="44.92007" lon="5.78028">
        <ele>891.626585</ele>
        <time>2025-07-10T13:19:13.000Z</time>
      </trkpt>
      <trkpt lat="44.9201" lon="5.78027">
        <ele>891.636947</ele>
        <time>2025-07-10T13:19:14.000Z</time>
      </trkpt>
      <trkpt lat="44.92013" lon="5.78027">
        <ele>891.647226</ele>
        <time>2025-07-10T13:19:15.000Z</time>
      </trkpt>
      <trkpt lat="44.92015" lon="5.78026">
        <ele>891.657271</ele>
        <time>2025-07-10T13:19:16.000Z</time>
      </trkpt>
      <trkpt lat="44.92018" lon="5.78025">
        <ele>891.667155</ele>
        <time>2025-07-10T13:19:17.000Z</time>
      </trkpt>
      <trkpt lat="44.9202" lon="5.78024">
        <ele>891.677691</ele>
        <time>2025-07-10T13:19:18.000Z</time>
      </trkpt>
      <trkpt lat="44.92023" lon="5.78023">
        <ele>891.688531</ele>
        <time>2025-07-10T13:19:19.000Z</time>
      </trkpt>
      <trkpt lat="44.92026" lon="5.78022">
        <ele>891.699314</ele>
        <time>2025-07-10T13:19:20.000Z</time>
      </trkpt>
      <trkpt lat="44.92029" lon="5.78021">
        <ele>891.709786</ele>
        <time>2025-07-10T13:19:21.000Z</time>
      </trkpt>
      <trkpt lat="44.92031" lon="5.7802">
        <ele>891.720258</ele>
        <time>2025-07-10T13:19:22.000Z</time>
      </trkpt>
      <trkpt lat="44.92034" lon="5.7802">
        <ele>891.731098</ele>
        <time>2025-07-10T13:19:23.000Z</time>
      </trkpt>
      <trkpt lat="44.92037" lon="5.78019">
        <ele>891.741634</ele>
        <time>2025-07-10T13:19:24.000Z</time>
      </trkpt>
      <trkpt lat="44.9204" lon="5.78018">
        <ele>891.751806</ele>
        <time>2025-07-10T13:19:25.000Z</time>
      </trkpt>
      <trkpt lat="44.92042" lon="5.78017">
        <ele>891.761751</ele>
        <time>2025-07-10T13:19:26.000Z</time>
      </trkpt>
      <trkpt lat="44.92045" lon="5.78017">
        <ele>891.770845</ele>
        <time>2025-07-10T13:19:27.000Z</time>
      </trkpt>
      <trkpt lat="44.92047" lon="5.78017">
        <ele>891.779909</ele>
        <time>2025-07-10T13:19:28.000Z</time>
      </trkpt>
      <trkpt lat="44.92049" lon="5.78016">
        <ele>891.78944</ele>
        <time>2025-07-10T13:19:29.000Z</time>
      </trkpt>
      <trkpt lat="44.92052" lon="5.78015">
        <ele>891.79869</ele>
        <time>2025-07-10T13:19:30.000Z</time>
      </trkpt>
      <trkpt lat="44.92054" lon="5.78015">
        <ele>891.807999</ele>
        <time>2025-07-10T13:19:31.000Z</time>
      </trkpt>
      <trkpt lat="44.92057" lon="5.78014">
        <ele>891.817372</ele>
        <time>2025-07-10T13:19:32.000Z</time>
      </trkpt>
      <trkpt lat="44.92059" lon="5.78013">
        <ele>891.827786</ele>
        <time>2025-07-10T13:19:33.000Z</time>
      </trkpt>
      <trkpt lat="44.92062" lon="5.78012">
        <ele>891.838258</ele>
        <time>2025-07-10T13:19:34.000Z</time>
      </trkpt>
      <trkpt lat="44.92065" lon="5.78011">
        <ele>891.84916</ele>
        <time>2025-07-10T13:19:35.000Z</time>
      </trkpt>
      <trkpt lat="44.92068" lon="5.7801">
        <ele>891.860062</ele>
        <time>2025-07-10T13:19:36.000Z</time>
      </trkpt>
      <trkpt lat="44.92071" lon="5.78009">
        <ele>891.871697</ele>
        <time>2025-07-10T13:19:37.000Z</time>
      </trkpt>
      <trkpt lat="44.92074" lon="5.78008">
        <ele>891.882965</ele>
        <time>2025-07-10T13:19:38.000Z</time>
      </trkpt>
      <trkpt lat="44.92077" lon="5.78007">
        <ele>891.894969</ele>
        <time>2025-07-10T13:19:39.000Z</time>
      </trkpt>
      <trkpt lat="44.9208" lon="5.78006">
        <ele>891.90734</ele>
        <time>2025-07-10T13:19:40.000Z</time>
      </trkpt>
      <trkpt lat="44.92083" lon="5.78005">
        <ele>891.919909</ele>
        <time>2025-07-10T13:19:41.000Z</time>
      </trkpt>
      <trkpt lat="44.92086" lon="5.78004">
        <ele>891.931974</ele>
        <time>2025-07-10T13:19:42.000Z</time>
      </trkpt>
      <trkpt lat="44.92089" lon="5.78003">
        <ele>891.943978</ele>
        <time>2025-07-10T13:19:43.000Z</time>
      </trkpt>
      <trkpt lat="44.92093" lon="5.78002">
        <ele>891.956718</ele>
        <time>2025-07-10T13:19:44.000Z</time>
      </trkpt>
      <trkpt lat="44.92096" lon="5.78001">
        <ele>891.966738</ele>
        <time>2025-07-10T13:19:45.000Z</time>
      </trkpt>
      <trkpt lat="44.92099" lon="5.78">
        <ele>891.973379</ele>
        <time>2025-07-10T13:19:46.000Z</time>
      </trkpt>
      <trkpt lat="44.92102" lon="5.77999">
        <ele>891.979826</ele>
        <time>2025-07-10T13:19:47.000Z</time>
      </trkpt>
      <trkpt lat="44.92105" lon="5.77998">
        <ele>891.985886</ele>
        <time>2025-07-10T13:19:48.000Z</time>
      </trkpt>
      <trkpt lat="44.92108" lon="5.77997">
        <ele>891.991894</ele>
        <time>2025-07-10T13:19:49.000Z</time>
      </trkpt>
      <trkpt lat="44.92112" lon="5.77997">
        <ele>891.998292</ele>
        <time>2025-07-10T13:19:50.000Z</time>
      </trkpt>
      <trkpt lat="44.92115" lon="5.77996">
        <ele>892.004908</ele>
        <time>2025-07-10T13:19:51.000Z</time>
      </trkpt>
      <trkpt lat="44.92118" lon="5.77995">
        <ele>892.011191</ele>
        <time>2025-07-10T13:19:52.000Z</time>
      </trkpt>
      <trkpt lat="44.92121" lon="5.77994">
        <ele>892.017444</ele>
        <time>2025-07-10T13:19:53.000Z</time>
      </trkpt>
      <trkpt lat="44.92124" lon="5.77993">
        <ele>892.023476</ele>
        <time>2025-07-10T13:19:54.000Z</time>
      </trkpt>
      <trkpt lat="44.92127" lon="5.77992">
        <ele>892.029679</ele>
        <time>2025-07-10T13:19:55.000Z</time>
      </trkpt>
      <trkpt lat="44.9213" lon="5.77992">
        <ele>892.035687</ele>
        <time>2025-07-10T13:19:56.000Z</time>
      </trkpt>
      <trkpt lat="44.92133" lon="5.77991">
        <ele>892.041554</ele>
        <time>2025-07-10T13:19:57.000Z</time>
      </trkpt>
      <trkpt lat="44.92136" lon="5.7799">
        <ele>892.047421</ele>
        <time>2025-07-10T13:19:58.000Z</time>
      </trkpt>
      <trkpt lat="44.92139" lon="5.77989">
        <ele>892.053511</ele>
        <time>2025-07-10T13:19:59.000Z</time>
      </trkpt>
      <trkpt lat="44.92142" lon="5.77988">
        <ele>892.059571</ele>
        <time>2025-07-10T13:20:00.000Z</time>
      </trkpt>
      <trkpt lat="44.92145" lon="5.77987">
        <ele>892.065825</ele>
        <time>2025-07-10T13:20:01.000Z</time>
      </trkpt>
      <trkpt lat="44.92148" lon="5.77986">
        <ele>892.072051</ele>
        <time>2025-07-10T13:20:02.000Z</time>
      </trkpt>
      <trkpt lat="44.92151" lon="5.77986">
        <ele>892.078059</ele>
        <time>2025-07-10T13:20:03.000Z</time>
      </trkpt>
      <trkpt lat="44.92154" lon="5.77985">
        <ele>892.084262</ele>
        <time>2025-07-10T13:20:04.000Z</time>
      </trkpt>
      <trkpt lat="44.92157" lon="5.77984">
        <ele>892.090465</ele>
        <time>2025-07-10T13:20:05.000Z</time>
      </trkpt>
      <trkpt lat="44.9216" lon="5.77983">
        <ele>892.096498</ele>
        <time>2025-07-10T13:20:06.000Z</time>
      </trkpt>
      <trkpt lat="44.92163" lon="5.77982">
        <ele>892.102172</ele>
        <time>2025-07-10T13:20:07.000Z</time>
      </trkpt>
      <trkpt lat="44.92166" lon="5.77982">
        <ele>892.107816</ele>
        <time>2025-07-10T13:20:08.000Z</time>
      </trkpt>
      <trkpt lat="44.92169" lon="5.77981">
        <ele>892.113461</ele>
        <time>2025-07-10T13:20:09.000Z</time>
      </trkpt>
      <trkpt lat="44.92171" lon="5.7798">
        <ele>892.118942</ele>
        <time>2025-07-10T13:20:10.000Z</time>
      </trkpt>
      <trkpt lat="44.92174" lon="5.77979">
        <ele>892.124116</ele>
        <time>2025-07-10T13:20:11.000Z</time>
      </trkpt>
      <trkpt lat="44.92177" lon="5.77978">
        <ele>892.129631</ele>
        <time>2025-07-10T13:20:12.000Z</time>
      </trkpt>
      <trkpt lat="44.92179" lon="5.77977">
        <ele>892.134861</ele>
        <time>2025-07-10T13:20:13.000Z</time>
      </trkpt>
      <trkpt lat="44.92182" lon="5.77977">
        <ele>892.140593</ele>
        <time>2025-07-10T13:20:14.000Z</time>
      </trkpt>
      <trkpt lat="44.92185" lon="5.77977">
        <ele>892.14635</ele>
        <time>2025-07-10T13:20:15.000Z</time>
      </trkpt>
      <trkpt lat="44.92188" lon="5.77976">
        <ele>892.152141</ele>
        <time>2025-07-10T13:20:16.000Z</time>
      </trkpt>
      <trkpt lat="44.92191" lon="5.77975">
        <ele>892.157399</ele>
        <time>2025-07-10T13:20:17.000Z</time>
      </trkpt>
      <trkpt lat="44.92193" lon="5.77975">
        <ele>892.162629</ele>
        <time>2025-07-10T13:20:18.000Z</time>
      </trkpt>
      <trkpt lat="44.92196" lon="5.77974">
        <ele>892.167887</ele>
        <time>2025-07-10T13:20:19.000Z</time>
      </trkpt>
      <trkpt lat="44.92198" lon="5.77973">
        <ele>892.173061</ele>
        <time>2025-07-10T13:20:20.000Z</time>
      </trkpt>
      <trkpt lat="44.92201" lon="5.77972">
        <ele>892.178096</ele>
        <time>2025-07-10T13:20:21.000Z</time>
      </trkpt>
      <trkpt lat="44.92203" lon="5.77971">
        <ele>892.183107</ele>
        <time>2025-07-10T13:20:22.000Z</time>
      </trkpt>
      <trkpt lat="44.92206" lon="5.77971">
        <ele>892.188337</ele>
        <time>2025-07-10T13:20:23.000Z</time>
      </trkpt>
      <trkpt lat="44.92208" lon="5.7797">
        <ele>892.193373</ele>
        <time>2025-07-10T13:20:24.000Z</time>
      </trkpt>
      <trkpt lat="44.92211" lon="5.7797">
        <ele>892.198344</ele>
        <time>2025-07-10T13:20:25.000Z</time>
      </trkpt>
      <trkpt lat="44.92213" lon="5.77969">
        <ele>892.202993</ele>
        <time>2025-07-10T13:20:26.000Z</time>
      </trkpt>
      <trkpt lat="44.92215" lon="5.77968">
        <ele>892.207449</ele>
        <time>2025-07-10T13:20:27.000Z</time>
      </trkpt>
      <trkpt lat="44.92218" lon="5.77968">
        <ele>892.212264</ele>
        <time>2025-07-10T13:20:28.000Z</time>
      </trkpt>
      <trkpt lat="44.9222" lon="5.77967">
        <ele>892.21708</ele>
        <time>2025-07-10T13:20:29.000Z</time>
      </trkpt>
      <trkpt lat="44.92222" lon="5.77966">
        <ele>892.221729</ele>
        <time>2025-07-10T13:20:30.000Z</time>
      </trkpt>
      <trkpt lat="44.92225" lon="5.77965">
        <ele>892.226218</ele>
        <time>2025-07-10T13:20:31.000Z</time>
      </trkpt>
      <trkpt lat="44.92227" lon="5.77965">
        <ele>892.230934</ele>
        <time>2025-07-10T13:20:32.000Z</time>
      </trkpt>
      <trkpt lat="44.92229" lon="5.77964">
        <ele>892.235649</ele>
        <time>2025-07-10T13:20:33.000Z</time>
      </trkpt>
      <trkpt lat="44.92232" lon="5.77963">
        <ele>892.240556</ele>
        <time>2025-07-10T13:20:34.000Z</time>
      </trkpt>
      <trkpt lat="44.92234" lon="5.77962">
        <ele>892.245621</ele>
        <time>2025-07-10T13:20:35.000Z</time>
      </trkpt>
      <trkpt lat="44.92237" lon="5.77961">
        <ele>892.250656</ele>
        <time>2025-07-10T13:20:36.000Z</time>
      </trkpt>
      <trkpt lat="44.92239" lon="5.77961">
        <ele>892.255499</ele>
        <time>2025-07-10T13:20:37.000Z</time>
      </trkpt>
      <trkpt lat="44.92241" lon="5.7796">
        <ele>892.260371</ele>
        <time>2025-07-10T13:20:38.000Z</time>
      </trkpt>
      <trkpt lat="44.92244" lon="5.77959">
        <ele>892.264969</ele>
        <time>2025-07-10T13:20:39.000Z</time>
      </trkpt>
      <trkpt lat="44.92246" lon="5.77959">
        <ele>892.269567</ele>
        <time>2025-07-10T13:20:40.000Z</time>
      </trkpt>
      <trkpt lat="44.92249" lon="5.77958">
        <ele>892.274556</ele>
        <time>2025-07-10T13:20:41.000Z</time>
      </trkpt>
      <trkpt lat="44.92251" lon="5.77958">
        <ele>892.279592</ele>
        <time>2025-07-10T13:20:42.000Z</time>
      </trkpt>
      <trkpt lat="44.92253" lon="5.77957">
        <ele>892.284464</ele>
        <time>2025-07-10T13:20:43.000Z</time>
      </trkpt>
      <trkpt lat="44.92256" lon="5.77956">
        <ele>892.289529</ele>
        <time>2025-07-10T13:20:44.000Z</time>
      </trkpt>
      <trkpt lat="44.92258" lon="5.77955">
        <ele>892.294627</ele>
        <time>2025-07-10T13:20:45.000Z</time>
      </trkpt>
      <trkpt lat="44.92261" lon="5.77954">
        <ele>892.299885</ele>
        <time>2025-07-10T13:20:46.000Z</time>
      </trkpt>
      <trkpt lat="44.92264" lon="5.77954">
        <ele>892.30492</ele>
        <time>2025-07-10T13:20:47.000Z</time>
      </trkpt>
      <trkpt lat="44.92266" lon="5.77952">
        <ele>892.310184</ele>
        <time>2025-07-10T13:20:48.000Z</time>
      </trkpt>
      <trkpt lat="44.92269" lon="5.77951">
        <ele>892.315498</ele>
        <time>2025-07-10T13:20:49.000Z</time>
      </trkpt>
      <trkpt lat="44.92271" lon="5.7795">
        <ele>892.320778</ele>
        <time>2025-07-10T13:20:50.000Z</time>
      </trkpt>
      <trkpt lat="44.92274" lon="5.77949">
        <ele>892.326479</ele>
        <time>2025-07-10T13:20:51.000Z</time>
      </trkpt>
      <trkpt lat="44.92276" lon="5.77948">
        <ele>892.332388</ele>
        <time>2025-07-10T13:20:52.000Z</time>
      </trkpt>
      <trkpt lat="44.92279" lon="5.77947">
        <ele>892.338181</ele>
        <time>2025-07-10T13:20:53.000Z</time>
      </trkpt>
      <trkpt lat="44.92281" lon="5.77946">
        <ele>892.343974</ele>
        <time>2025-07-10T13:20:54.000Z</time>
      </trkpt>
      <trkpt lat="44.92284" lon="5.77945">
        <ele>892.350355</ele>
        <time>2025-07-10T13:20:55.000Z</time>
      </trkpt>
      <trkpt lat="44.92287" lon="5.77945">
        <ele>892.356521</ele>
        <time>2025-07-10T13:20:56.000Z</time>
      </trkpt>
      <trkpt lat="44.9229" lon="5.77944">
        <ele>892.362772</ele>
        <time>2025-07-10T13:20:57.000Z</time>
      </trkpt>
      <trkpt lat="44.92293" lon="5.77943">
        <ele>892.369419</ele>
        <time>2025-07-10T13:20:58.000Z</time>
      </trkpt>
      <trkpt lat="44.92296" lon="5.77943">
        <ele>892.376016</ele>
        <time>2025-07-10T13:20:59.000Z</time>
      </trkpt>
      <trkpt lat="44.92299" lon="5.77942">
        <ele>892.382876</ele>
        <time>2025-07-10T13:21:00.000Z</time>
      </trkpt>
      <trkpt lat="44.92302" lon="5.77941">
        <ele>892.39012</ele>
        <time>2025-07-10T13:21:01.000Z</time>
      </trkpt>
      <trkpt lat="44.92306" lon="5.77941">
        <ele>892.39758</ele>
        <time>2025-07-10T13:21:02.000Z</time>
      </trkpt>
      <trkpt lat="44.92309" lon="5.7794">
        <ele>892.405111</ele>
        <time>2025-07-10T13:21:03.000Z</time>
      </trkpt>
      <trkpt lat="44.92312" lon="5.77939">
        <ele>892.412671</ele>
        <time>2025-07-10T13:21:04.000Z</time>
      </trkpt>
      <trkpt lat="44.92316" lon="5.77938">
        <ele>892.420232</ele>
        <time>2025-07-10T13:21:05.000Z</time>
      </trkpt>
      <trkpt lat="44.92319" lon="5.77937">
        <ele>892.427793</ele>
        <time>2025-07-10T13:21:06.000Z</time>
      </trkpt>
      <trkpt lat="44.92323" lon="5.77936">
        <ele>892.435599</ele>
        <time>2025-07-10T13:21:07.000Z</time>
      </trkpt>
      <trkpt lat="44.92326" lon="5.77934">
        <ele>892.443229</ele>
        <time>2025-07-10T13:21:08.000Z</time>
      </trkpt>
      <trkpt lat="44.9233" lon="5.77933">
        <ele>892.450898</ele>
        <time>2025-07-10T13:21:09.000Z</time>
      </trkpt>
      <trkpt lat="44.92333" lon="5.77932">
        <ele>892.458246</ele>
        <time>2025-07-10T13:21:10.000Z</time>
      </trkpt>
      <trkpt lat="44.92336" lon="5.77931">
        <ele>892.465563</ele>
        <time>2025-07-10T13:21:11.000Z</time>
      </trkpt>
      <trkpt lat="44.9234" lon="5.7793">
        <ele>892.473043</ele>
        <time>2025-07-10T13:21:12.000Z</time>
      </trkpt>
      <trkpt lat="44.92343" lon="5.7793">
        <ele>892.480762</ele>
        <time>2025-07-10T13:21:13.000Z</time>
      </trkpt>
      <trkpt lat="44.92346" lon="5.77929">
        <ele>892.488266</ele>
        <time>2025-07-10T13:21:14.000Z</time>
      </trkpt>
      <trkpt lat="44.9235" lon="5.77928">
        <ele>892.495827</ele>
        <time>2025-07-10T13:21:15.000Z</time>
      </trkpt>
      <trkpt lat="44.92353" lon="5.77927">
        <ele>892.503496</ele>
        <time>2025-07-10T13:21:16.000Z</time>
      </trkpt>
      <trkpt lat="44.92356" lon="5.77926">
        <ele>892.510599</ele>
        <time>2025-07-10T13:21:17.000Z</time>
      </trkpt>
      <trkpt lat="44.92359" lon="5.77925">
        <ele>892.517195</ele>
        <time>2025-07-10T13:21:18.000Z</time>
      </trkpt>
      <trkpt lat="44.92363" lon="5.77924">
        <ele>892.524007</ele>
        <time>2025-07-10T13:21:19.000Z</time>
      </trkpt>
      <trkpt lat="44.92366" lon="5.77924">
        <ele>892.530627</ele>
        <time>2025-07-10T13:21:20.000Z</time>
      </trkpt>
      <trkpt lat="44.92368" lon="5.77923">
        <ele>892.536955</ele>
        <time>2025-07-10T13:21:21.000Z</time>
      </trkpt>
      <trkpt lat="44.92371" lon="5.77922">
        <ele>892.543206</ele>
        <time>2025-07-10T13:21:22.000Z</time>
      </trkpt>
      <trkpt lat="44.92374" lon="5.77921">
        <ele>892.549494</ele>
        <time>2025-07-10T13:21:23.000Z</time>
      </trkpt>
      <trkpt lat="44.92377" lon="5.7792">
        <ele>892.555534</ele>
        <time>2025-07-10T13:21:24.000Z</time>
      </trkpt>
      <trkpt lat="44.92379" lon="5.77919">
        <ele>892.561753</ele>
        <time>2025-07-10T13:21:25.000Z</time>
      </trkpt>
      <trkpt lat="44.92382" lon="5.77918">
        <ele>892.567943</ele>
        <time>2025-07-10T13:21:26.000Z</time>
      </trkpt>
      <trkpt lat="44.92385" lon="5.77918">
        <ele>892.574349</ele>
        <time>2025-07-10T13:21:27.000Z</time>
      </trkpt>
      <trkpt lat="44.92388" lon="5.77917">
        <ele>892.5806</ele>
        <time>2025-07-10T13:21:28.000Z</time>
      </trkpt>
      <trkpt lat="44.92391" lon="5.77916">
        <ele>892.587099</ele>
        <time>2025-07-10T13:21:29.000Z</time>
      </trkpt>
      <trkpt lat="44.92394" lon="5.77915">
        <ele>892.593637</ele>
        <time>2025-07-10T13:21:30.000Z</time>
      </trkpt>
      <trkpt lat="44.92397" lon="5.77914">
        <ele>892.600314</ele>
        <time>2025-07-10T13:21:31.000Z</time>
      </trkpt>
      <trkpt lat="44.924" lon="5.77913">
        <ele>892.606719</ele>
        <time>2025-07-10T13:21:32.000Z</time>
      </trkpt>
      <trkpt lat="44.92403" lon="5.77912">
        <ele>892.613338</ele>
        <time>2025-07-10T13:21:33.000Z</time>
      </trkpt>
      <trkpt lat="44.92406" lon="5.77911">
        <ele>892.619837</ele>
        <time>2025-07-10T13:21:34.000Z</time>
      </trkpt>
      <trkpt lat="44.92408" lon="5.7791">
        <ele>892.626089</ele>
        <time>2025-07-10T13:21:35.000Z</time>
      </trkpt>
      <trkpt lat="44.92411" lon="5.7791">
        <ele>892.632095</ele>
        <time>2025-07-10T13:21:36.000Z</time>
      </trkpt>
      <trkpt lat="44.92414" lon="5.77909">
        <ele>892.638559</ele>
        <time>2025-07-10T13:21:37.000Z</time>
      </trkpt>
      <trkpt lat="44.92417" lon="5.77908">
        <ele>892.64475</ele>
        <time>2025-07-10T13:21:38.000Z</time>
      </trkpt>
      <trkpt lat="44.9242" lon="5.77908">
        <ele>892.650894</ele>
        <time>2025-07-10T13:21:39.000Z</time>
      </trkpt>
      <trkpt lat="44.92422" lon="5.77907">
        <ele>892.657238</ele>
        <time>2025-07-10T13:21:40.000Z</time>
      </trkpt>
      <trkpt lat="44.92425" lon="5.77907">
        <ele>892.663365</ele>
        <time>2025-07-10T13:21:41.000Z</time>
      </trkpt>
      <trkpt lat="44.92428" lon="5.77906">
        <ele>892.669492</ele>
        <time>2025-07-10T13:21:42.000Z</time>
      </trkpt>
      <trkpt lat="44.92431" lon="5.77906">
        <ele>892.675442</ele>
        <time>2025-07-10T13:21:43.000Z</time>
      </trkpt>
      <trkpt lat="44.92434" lon="5.77905">
        <ele>892.681847</ele>
        <time>2025-07-10T13:21:44.000Z</time>
      </trkpt>
      <trkpt lat="44.92436" lon="5.77904">
        <ele>892.687824</ele>
        <time>2025-07-10T13:21:45.000Z</time>
      </trkpt>
      <trkpt lat="44.92439" lon="5.77904">
        <ele>892.694257</ele>
        <time>2025-07-10T13:21:46.000Z</time>
      </trkpt>
      <trkpt lat="44.92442" lon="5.77903">
        <ele>892.700934</ele>
        <time>2025-07-10T13:21:47.000Z</time>
      </trkpt>
      <trkpt lat="44.92445" lon="5.77902">
        <ele>892.707644</ele>
        <time>2025-07-10T13:21:48.000Z</time>
      </trkpt>
      <trkpt lat="44.92448" lon="5.779">
        <ele>892.715442</ele>
        <time>2025-07-10T13:21:49.000Z</time>
      </trkpt>
      <trkpt lat="44.92451" lon="5.77899">
        <ele>892.72435</ele>
        <time>2025-07-10T13:21:50.000Z</time>
      </trkpt>
      <trkpt lat="44.92454" lon="5.77898">
        <ele>892.733435</ele>
        <time>2025-07-10T13:21:51.000Z</time>
      </trkpt>
      <trkpt lat="44.92457" lon="5.77898">
        <ele>892.742398</ele>
        <time>2025-07-10T13:21:52.000Z</time>
      </trkpt>
      <trkpt lat="44.9246" lon="5.77897">
        <ele>892.751329</ele>
        <time>2025-07-10T13:21:53.000Z</time>
      </trkpt>
      <trkpt lat="44.92463" lon="5.77896">
        <ele>892.760292</ele>
        <time>2025-07-10T13:21:54.000Z</time>
      </trkpt>
      <trkpt lat="44.92466" lon="5.77896">
        <ele>892.769196</ele>
        <time>2025-07-10T13:21:55.000Z</time>
      </trkpt>
      <trkpt lat="44.92469" lon="5.77895">
        <ele>892.778569</ele>
        <time>2025-07-10T13:21:56.000Z</time>
      </trkpt>
      <trkpt lat="44.92472" lon="5.77894">
        <ele>892.787705</ele>
        <time>2025-07-10T13:21:57.000Z</time>
      </trkpt>
      <trkpt lat="44.92475" lon="5.77893">
        <ele>892.796556</ele>
        <time>2025-07-10T13:21:58.000Z</time>
      </trkpt>
      <trkpt lat="44.92478" lon="5.77891">
        <ele>892.805806</ele>
        <time>2025-07-10T13:21:59.000Z</time>
      </trkpt>
      <trkpt lat="44.92481" lon="5.7789">
        <ele>892.814774</ele>
        <time>2025-07-10T13:22:00.000Z</time>
      </trkpt>
      <trkpt lat="44.92484" lon="5.77889">
        <ele>892.824024</ele>
        <time>2025-07-10T13:22:01.000Z</time>
      </trkpt>
      <trkpt lat="44.92487" lon="5.77888">
        <ele>892.832823</ele>
        <time>2025-07-10T13:22:02.000Z</time>
      </trkpt>
      <trkpt lat="44.9249" lon="5.77887">
        <ele>892.841575</ele>
        <time>2025-07-10T13:22:03.000Z</time>
      </trkpt>
      <trkpt lat="44.92493" lon="5.77886">
        <ele>892.85004</ele>
        <time>2025-07-10T13:22:04.000Z</time>
      </trkpt>
      <trkpt lat="44.92495" lon="5.77885">
        <ele>892.858504</ele>
        <time>2025-07-10T13:22:05.000Z</time>
      </trkpt>
      <trkpt lat="44.92498" lon="5.77884">
        <ele>892.866969</ele>
        <time>2025-07-10T13:22:06.000Z</time>
      </trkpt>
      <trkpt lat="44.92501" lon="5.77883">
        <ele>892.875535</ele>
        <time>2025-07-10T13:22:07.000Z</time>
      </trkpt>
      <trkpt lat="44.92504" lon="5.77882">
        <ele>892.884049</ele>
        <time>2025-07-10T13:22:08.000Z</time>
      </trkpt>
      <trkpt lat="44.92507" lon="5.77881">
        <ele>892.892801</ele>
        <time>2025-07-10T13:22:09.000Z</time>
      </trkpt>
      <trkpt lat="44.92509" lon="5.7788">
        <ele>892.901314</ele>
        <time>2025-07-10T13:22:10.000Z</time>
      </trkpt>
      <trkpt lat="44.92512" lon="5.77879">
        <ele>892.909778</ele>
        <time>2025-07-10T13:22:11.000Z</time>
      </trkpt>
      <trkpt lat="44.92515" lon="5.77878">
        <ele>892.918291</ele>
        <time>2025-07-10T13:22:12.000Z</time>
      </trkpt>
      <trkpt lat="44.92518" lon="5.77877">
        <ele>892.926804</ele>
        <time>2025-07-10T13:22:13.000Z</time>
      </trkpt>
      <trkpt lat="44.92521" lon="5.77876">
        <ele>892.935371</ele>
        <time>2025-07-10T13:22:14.000Z</time>
      </trkpt>
      <trkpt lat="44.92523" lon="5.77875">
        <ele>892.944059</ele>
        <time>2025-07-10T13:22:15.000Z</time>
      </trkpt>
      <trkpt lat="44.92526" lon="5.77874">
        <ele>892.952626</ele>
        <time>2025-07-10T13:22:16.000Z</time>
      </trkpt>
      <trkpt lat="44.92529" lon="5.77872">
        <ele>892.961381</ele>
        <time>2025-07-10T13:22:17.000Z</time>
      </trkpt>
      <trkpt lat="44.92532" lon="5.7787">
        <ele>892.970182</ele>
        <time>2025-07-10T13:22:18.000Z</time>
      </trkpt>
      <trkpt lat="44.92534" lon="5.77869">
        <ele>892.978717</ele>
        <time>2025-07-10T13:22:19.000Z</time>
      </trkpt>
      <trkpt lat="44.92537" lon="5.77867">
        <ele>892.987345</ele>
        <time>2025-07-10T13:22:20.000Z</time>
      </trkpt>
      <trkpt lat="44.92539" lon="5.77865">
        <ele>892.995919</ele>
        <time>2025-07-10T13:22:21.000Z</time>
      </trkpt>
      <trkpt lat="44.92542" lon="5.77862">
        <ele>893.004949</ele>
        <time>2025-07-10T13:22:22.000Z</time>
      </trkpt>
      <trkpt lat="44.92544" lon="5.7786">
        <ele>893.0141</ele>
        <time>2025-07-10T13:22:23.000Z</time>
      </trkpt>
      <trkpt lat="44.92547" lon="5.77857">
        <ele>893.023129</ele>
        <time>2025-07-10T13:22:24.000Z</time>
      </trkpt>
      <trkpt lat="44.92549" lon="5.77855">
        <ele>893.032039</ele>
        <time>2025-07-10T13:22:25.000Z</time>
      </trkpt>
      <trkpt lat="44.92552" lon="5.77853">
        <ele>893.040931</ele>
        <time>2025-07-10T13:22:26.000Z</time>
      </trkpt>
      <trkpt lat="44.92555" lon="5.7785">
        <ele>893.04948</ele>
        <time>2025-07-10T13:22:27.000Z</time>
      </trkpt>
      <trkpt lat="44.92557" lon="5.77848">
        <ele>893.057787</ele>
        <time>2025-07-10T13:22:28.000Z</time>
      </trkpt>
      <trkpt lat="44.92559" lon="5.77846">
        <ele>893.06622</ele>
        <time>2025-07-10T13:22:29.000Z</time>
      </trkpt>
      <trkpt lat="44.92562" lon="5.77844">
        <ele>893.074654</ele>
        <time>2025-07-10T13:22:30.000Z</time>
      </trkpt>
      <trkpt lat="44.92564" lon="5.77842">
        <ele>893.082727</ele>
        <time>2025-07-10T13:22:31.000Z</time>
      </trkpt>
      <trkpt lat="44.92566" lon="5.7784">
        <ele>893.091095</ele>
        <time>2025-07-10T13:22:32.000Z</time>
      </trkpt>
      <trkpt lat="44.92569" lon="5.77838">
        <ele>893.100181</ele>
        <time>2025-07-10T13:22:33.000Z</time>
      </trkpt>
      <trkpt lat="44.92572" lon="5.77835">
        <ele>893.109224</ele>
        <time>2025-07-10T13:22:34.000Z</time>
      </trkpt>
      <trkpt lat="44.92574" lon="5.77833">
        <ele>893.118158</ele>
        <time>2025-07-10T13:22:35.000Z</time>
      </trkpt>
      <trkpt lat="44.92577" lon="5.77831">
        <ele>893.126952</ele>
        <time>2025-07-10T13:22:36.000Z</time>
      </trkpt>
      <trkpt lat="44.92579" lon="5.77828">
        <ele>893.135862</ele>
        <time>2025-07-10T13:22:37.000Z</time>
      </trkpt>
      <trkpt lat="44.92582" lon="5.77826">
        <ele>893.144411</ele>
        <time>2025-07-10T13:22:38.000Z</time>
      </trkpt>
      <trkpt lat="44.92584" lon="5.77824">
        <ele>893.153454</ele>
        <time>2025-07-10T13:22:39.000Z</time>
      </trkpt>
      <trkpt lat="44.92587" lon="5.77822">
        <ele>893.162249</ele>
        <time>2025-07-10T13:22:40.000Z</time>
      </trkpt>
      <trkpt lat="44.92589" lon="5.77819">
        <ele>893.170917</ele>
        <time>2025-07-10T13:22:41.000Z</time>
      </trkpt>
      <trkpt lat="44.92592" lon="5.77817">
        <ele>893.179711</ele>
        <time>2025-07-10T13:22:42.000Z</time>
      </trkpt>
      <trkpt lat="44.92594" lon="5.77814">
        <ele>893.188621</ele>
        <time>2025-07-10T13:22:43.000Z</time>
      </trkpt>
      <trkpt lat="44.92597" lon="5.77812">
        <ele>893.197893</ele>
        <time>2025-07-10T13:22:44.000Z</time>
      </trkpt>
      <trkpt lat="44.92599" lon="5.7781">
        <ele>893.206936</ele>
        <time>2025-07-10T13:22:45.000Z</time>
      </trkpt>
      <trkpt lat="44.92602" lon="5.77807">
        <ele>893.215618</ele>
        <time>2025-07-10T13:22:46.000Z</time>
      </trkpt>
      <trkpt lat="44.92604" lon="5.77805">
        <ele>893.224192</ele>
        <time>2025-07-10T13:22:47.000Z</time>
      </trkpt>
      <trkpt lat="44.92607" lon="5.77803">
        <ele>893.232874</ele>
        <time>2025-07-10T13:22:48.000Z</time>
      </trkpt>
      <trkpt lat="44.9261" lon="5.77801">
        <ele>893.242668</ele>
        <time>2025-07-10T13:22:49.000Z</time>
      </trkpt>
      <trkpt lat="44.92612" lon="5.77799">
        <ele>893.256264</ele>
        <time>2025-07-10T13:22:50.000Z</time>
      </trkpt>
      <trkpt lat="44.92615" lon="5.77796">
        <ele>893.270223</ele>
        <time>2025-07-10T13:22:51.000Z</time>
      </trkpt>
      <trkpt lat="44.92617" lon="5.77794">
        <ele>893.284035</ele>
        <time>2025-07-10T13:22:52.000Z</time>
      </trkpt>
      <trkpt lat="44.9262" lon="5.77792">
        <ele>893.297252</ele>
        <time>2025-07-10T13:22:53.000Z</time>
      </trkpt>
      <trkpt lat="44.92622" lon="5.77789">
        <ele>893.310477</ele>
        <time>2025-07-10T13:22:54.000Z</time>
      </trkpt>
      <trkpt lat="44.92624" lon="5.77787">
        <ele>893.323694</ele>
        <time>2025-07-10T13:22:55.000Z</time>
      </trkpt>
      <trkpt lat="44.92627" lon="5.77785">
        <ele>893.336732</ele>
        <time>2025-07-10T13:22:56.000Z</time>
      </trkpt>
      <trkpt lat="44.92629" lon="5.77782">
        <ele>893.349763</ele>
        <time>2025-07-10T13:22:57.000Z</time>
      </trkpt>
      <trkpt lat="44.92632" lon="5.7778">
        <ele>893.363103</ele>
        <time>2025-07-10T13:22:58.000Z</time>
      </trkpt>
      <trkpt lat="44.92634" lon="5.77778">
        <ele>893.376915</ele>
        <time>2025-07-10T13:22:59.000Z</time>
      </trkpt>
      <trkpt lat="44.92637" lon="5.77776">
        <ele>893.389946</ele>
        <time>2025-07-10T13:23:00.000Z</time>
      </trkpt>
      <trkpt lat="44.92639" lon="5.77773">
        <ele>893.402814</ele>
        <time>2025-07-10T13:23:01.000Z</time>
      </trkpt>
      <trkpt lat="44.92641" lon="5.77771">
        <ele>893.415656</ele>
        <time>2025-07-10T13:23:02.000Z</time>
      </trkpt>
      <trkpt lat="44.92643" lon="5.77769">
        <ele>893.427798</ele>
        <time>2025-07-10T13:23:03.000Z</time>
      </trkpt>
      <trkpt lat="44.92646" lon="5.77767">
        <ele>893.440442</ele>
        <time>2025-07-10T13:23:04.000Z</time>
      </trkpt>
      <trkpt lat="44.92648" lon="5.77766">
        <ele>893.452825</ele>
        <time>2025-07-10T13:23:05.000Z</time>
      </trkpt>
      <trkpt lat="44.92651" lon="5.77763">
        <ele>893.46608</ele>
        <time>2025-07-10T13:23:06.000Z</time>
      </trkpt>
      <trkpt lat="44.92653" lon="5.77761">
        <ele>893.479503</ele>
        <time>2025-07-10T13:23:07.000Z</time>
      </trkpt>
      <trkpt lat="44.92655" lon="5.77759">
        <ele>893.491786</ele>
        <time>2025-07-10T13:23:08.000Z</time>
      </trkpt>
      <trkpt lat="44.92658" lon="5.77757">
        <ele>893.50407</ele>
        <time>2025-07-10T13:23:09.000Z</time>
      </trkpt>
      <trkpt lat="44.9266" lon="5.77755">
        <ele>893.517561</ele>
        <time>2025-07-10T13:23:10.000Z</time>
      </trkpt>
      <trkpt lat="44.92663" lon="5.77753">
        <ele>893.530654</ele>
        <time>2025-07-10T13:23:11.000Z</time>
      </trkpt>
      <trkpt lat="44.92665" lon="5.77751">
        <ele>893.544077</ele>
        <time>2025-07-10T13:23:12.000Z</time>
      </trkpt>
      <trkpt lat="44.92668" lon="5.77748">
        <ele>893.557852</ele>
        <time>2025-07-10T13:23:13.000Z</time>
      </trkpt>
      <trkpt lat="44.9267" lon="5.77746">
        <ele>893.571448</ele>
        <time>2025-07-10T13:23:14.000Z</time>
      </trkpt>
      <trkpt lat="44.92673" lon="5.77744">
        <ele>893.585494</ele>
        <time>2025-07-10T13:23:15.000Z</time>
      </trkpt>
      <trkpt lat="44.92676" lon="5.77742">
        <ele>893.599699</ele>
        <time>2025-07-10T13:23:16.000Z</time>
      </trkpt>
      <trkpt lat="44.92678" lon="5.77739">
        <ele>893.613482</ele>
        <time>2025-07-10T13:23:17.000Z</time>
      </trkpt>
      <trkpt lat="44.9268" lon="5.77736">
        <ele>893.627667</ele>
        <time>2025-07-10T13:23:18.000Z</time>
      </trkpt>
      <trkpt lat="44.92683" lon="5.77733">
        <ele>893.64241</ele>
        <time>2025-07-10T13:23:19.000Z</time>
      </trkpt>
      <trkpt lat="44.92685" lon="5.77731">
        <ele>893.656557</ele>
        <time>2025-07-10T13:23:20.000Z</time>
      </trkpt>
      <trkpt lat="44.92688" lon="5.77728">
        <ele>893.671263</ele>
        <time>2025-07-10T13:23:21.000Z</time>
      </trkpt>
      <trkpt lat="44.92691" lon="5.77726">
        <ele>893.686419</ele>
        <time>2025-07-10T13:23:22.000Z</time>
      </trkpt>
      <trkpt lat="44.92694" lon="5.77724">
        <ele>893.700465</ele>
        <time>2025-07-10T13:23:23.000Z</time>
      </trkpt>
      <trkpt lat="44.92696" lon="5.77722">
        <ele>893.714511</ele>
        <time>2025-07-10T13:23:24.000Z</time>
      </trkpt>
      <trkpt lat="44.92699" lon="5.77719">
        <ele>893.728665</ele>
        <time>2025-07-10T13:23:25.000Z</time>
      </trkpt>
      <trkpt lat="44.92702" lon="5.77717">
        <ele>893.742998</ele>
        <time>2025-07-10T13:23:26.000Z</time>
      </trkpt>
      <trkpt lat="44.92704" lon="5.77714">
        <ele>893.757146</ele>
        <time>2025-07-10T13:23:27.000Z</time>
      </trkpt>
      <trkpt lat="44.92707" lon="5.77712">
        <ele>893.7713</ele>
        <time>2025-07-10T13:23:28.000Z</time>
      </trkpt>
      <trkpt lat="44.92709" lon="5.77709">
        <ele>893.786012</ele>
        <time>2025-07-10T13:23:29.000Z</time>
      </trkpt>
      <trkpt lat="44.92712" lon="5.77707">
        <ele>893.800529</ele>
        <time>2025-07-10T13:23:30.000Z</time>
      </trkpt>
      <trkpt lat="44.92715" lon="5.77704">
        <ele>893.815241</ele>
        <time>2025-07-10T13:23:31.000Z</time>
      </trkpt>
      <trkpt lat="44.92717" lon="5.77702">
        <ele>893.830002</ele>
        <time>2025-07-10T13:23:32.000Z</time>
      </trkpt>
      <trkpt lat="44.9272" lon="5.77699">
        <ele>893.844539</ele>
        <time>2025-07-10T13:23:33.000Z</time>
      </trkpt>
      <trkpt lat="44.92723" lon="5.77697">
        <ele>893.858881</ele>
        <time>2025-07-10T13:23:34.000Z</time>
      </trkpt>
      <trkpt lat="44.92725" lon="5.77694">
        <ele>893.873623</ele>
        <time>2025-07-10T13:23:35.000Z</time>
      </trkpt>
      <trkpt lat="44.92728" lon="5.77691">
        <ele>893.888335</ele>
        <time>2025-07-10T13:23:36.000Z</time>
      </trkpt>
      <trkpt lat="44.9273" lon="5.77689">
        <ele>893.902294</ele>
        <time>2025-07-10T13:23:37.000Z</time>
      </trkpt>
      <trkpt lat="44.92733" lon="5.77686">
        <ele>893.915718</ele>
        <time>2025-07-10T13:23:38.000Z</time>
      </trkpt>
      <trkpt lat="44.92735" lon="5.77684">
        <ele>893.929872</ele>
        <time>2025-07-10T13:23:39.000Z</time>
      </trkpt>
      <trkpt lat="44.92738" lon="5.77682">
        <ele>893.942809</ele>
        <time>2025-07-10T13:23:40.000Z</time>
      </trkpt>
      <trkpt lat="44.9274" lon="5.77681">
        <ele>893.955378</ele>
        <time>2025-07-10T13:23:41.000Z</time>
      </trkpt>
      <trkpt lat="44.92743" lon="5.77679">
        <ele>893.968058</ele>
        <time>2025-07-10T13:23:42.000Z</time>
      </trkpt>
      <trkpt lat="44.92746" lon="5.77677">
        <ele>893.981663</ele>
        <time>2025-07-10T13:23:43.000Z</time>
      </trkpt>
      <trkpt lat="44.92748" lon="5.77675">
        <ele>893.995475</ele>
        <time>2025-07-10T13:23:44.000Z</time>
      </trkpt>
      <trkpt lat="44.92751" lon="5.77673">
        <ele>894.00925</ele>
        <time>2025-07-10T13:23:45.000Z</time>
      </trkpt>
      <trkpt lat="44.92753" lon="5.7767">
        <ele>894.022466</ele>
        <time>2025-07-10T13:23:46.000Z</time>
      </trkpt>
      <trkpt lat="44.92756" lon="5.77668">
        <ele>894.036056</ele>
        <time>2025-07-10T13:23:47.000Z</time>
      </trkpt>
      <trkpt lat="44.92758" lon="5.77665">
        <ele>894.04948</ele>
        <time>2025-07-10T13:23:48.000Z</time>
      </trkpt>
      <trkpt lat="44.9276" lon="5.77663">
        <ele>894.069718</ele>
        <time>2025-07-10T13:23:49.000Z</time>
      </trkpt>
      <trkpt lat="44.92763" lon="5.77661">
        <ele>894.12312</ele>
        <time>2025-07-10T13:23:50.000Z</time>
      </trkpt>
      <trkpt lat="44.92765" lon="5.77658">
        <ele>894.175789</ele>
        <time>2025-07-10T13:23:51.000Z</time>
      </trkpt>
      <trkpt lat="44.92767" lon="5.77656">
        <ele>894.22401</ele>
        <time>2025-07-10T13:23:52.000Z</time>
      </trkpt>
      <trkpt lat="44.9277" lon="5.77654">
        <ele>894.277501</ele>
        <time>2025-07-10T13:23:53.000Z</time>
      </trkpt>
      <trkpt lat="44.92772" lon="5.77652">
        <ele>894.333213</ele>
        <time>2025-07-10T13:23:54.000Z</time>
      </trkpt>
      <trkpt lat="44.92775" lon="5.77649">
        <ele>894.388925</ele>
        <time>2025-07-10T13:23:55.000Z</time>
      </trkpt>
      <trkpt lat="44.92777" lon="5.77647">
        <ele>894.441102</ele>
        <time>2025-07-10T13:23:56.000Z</time>
      </trkpt>
      <trkpt lat="44.9278" lon="5.77645">
        <ele>894.492658</ele>
        <time>2025-07-10T13:23:57.000Z</time>
      </trkpt>
      <trkpt lat="44.92782" lon="5.77643">
        <ele>894.544834</ele>
        <time>2025-07-10T13:23:58.000Z</time>
      </trkpt>
      <trkpt lat="44.92785" lon="5.77641">
        <ele>894.598325</ele>
        <time>2025-07-10T13:23:59.000Z</time>
      </trkpt>
      <trkpt lat="44.92787" lon="5.77639">
        <ele>894.651727</ele>
        <time>2025-07-10T13:24:00.000Z</time>
      </trkpt>
      <trkpt lat="44.9279" lon="5.77637">
        <ele>894.701433</ele>
        <time>2025-07-10T13:24:01.000Z</time>
      </trkpt>
      <trkpt lat="44.92792" lon="5.77634">
        <ele>894.753392</ele>
        <time>2025-07-10T13:24:02.000Z</time>
      </trkpt>
      <trkpt lat="44.92794" lon="5.77632">
        <ele>894.804947</ele>
        <time>2025-07-10T13:24:03.000Z</time>
      </trkpt>
      <trkpt lat="44.92797" lon="5.77631">
        <ele>894.85491</ele>
        <time>2025-07-10T13:24:04.000Z</time>
      </trkpt>
      <trkpt lat="44.92799" lon="5.77629">
        <ele>894.902662</ele>
        <time>2025-07-10T13:24:05.000Z</time>
      </trkpt>
      <trkpt lat="44.92802" lon="5.77627">
        <ele>894.953266</ele>
        <time>2025-07-10T13:24:06.000Z</time>
      </trkpt>
      <trkpt lat="44.92804" lon="5.77625">
        <ele>895.00323</ele>
        <time>2025-07-10T13:24:07.000Z</time>
      </trkpt>
      <trkpt lat="44.92806" lon="5.77623">
        <ele>895.050371</ele>
        <time>2025-07-10T13:24:08.000Z</time>
      </trkpt>
      <trkpt lat="44.92809" lon="5.77621">
        <ele>895.098123</ele>
        <time>2025-07-10T13:24:09.000Z</time>
      </trkpt>
      <trkpt lat="44.92811" lon="5.7762">
        <ele>895.14688</ele>
        <time>2025-07-10T13:24:10.000Z</time>
      </trkpt>
      <trkpt lat="44.92813" lon="5.77618">
        <ele>895.194632</ele>
        <time>2025-07-10T13:24:11.000Z</time>
      </trkpt>
      <trkpt lat="44.92815" lon="5.77616">
        <ele>895.242144</ele>
        <time>2025-07-10T13:24:12.000Z</time>
      </trkpt>
      <trkpt lat="44.92818" lon="5.77614">
        <ele>895.288871</ele>
        <time>2025-07-10T13:24:13.000Z</time>
      </trkpt>
      <trkpt lat="44.9282" lon="5.77612">
        <ele>895.332826</ele>
        <time>2025-07-10T13:24:14.000Z</time>
      </trkpt>
      <trkpt lat="44.92822" lon="5.77611">
        <ele>895.374997</ele>
        <time>2025-07-10T13:24:15.000Z</time>
      </trkpt>
      <trkpt lat="44.92824" lon="5.77609">
        <ele>895.418305</ele>
        <time>2025-07-10T13:24:16.000Z</time>
      </trkpt>
      <trkpt lat="44.92826" lon="5.77608">
        <ele>895.462402</ele>
        <time>2025-07-10T13:24:17.000Z</time>
      </trkpt>
      <trkpt lat="44.92829" lon="5.77607">
        <ele>895.507391</ele>
        <time>2025-07-10T13:24:18.000Z</time>
      </trkpt>
      <trkpt lat="44.92831" lon="5.77606">
        <ele>895.554243</ele>
        <time>2025-07-10T13:24:19.000Z</time>
      </trkpt>
      <trkpt lat="44.92834" lon="5.77605">
        <ele>895.603878</ele>
        <time>2025-07-10T13:24:20.000Z</time>
      </trkpt>
      <trkpt lat="44.92836" lon="5.77605">
        <ele>895.653179</ele>
        <time>2025-07-10T13:24:21.000Z</time>
      </trkpt>
      <trkpt lat="44.92839" lon="5.77605">
        <ele>895.702279</ele>
        <time>2025-07-10T13:24:22.000Z</time>
      </trkpt>
      <trkpt lat="44.92841" lon="5.77604">
        <ele>895.745981</ele>
        <time>2025-07-10T13:24:23.000Z</time>
      </trkpt>
      <trkpt lat="44.92843" lon="5.77602">
        <ele>895.789048</ele>
        <time>2025-07-10T13:24:24.000Z</time>
      </trkpt>
      <trkpt lat="44.92845" lon="5.776">
        <ele>895.831798</ele>
        <time>2025-07-10T13:24:25.000Z</time>
      </trkpt>
      <trkpt lat="44.92847" lon="5.77597">
        <ele>895.877301</ele>
        <time>2025-07-10T13:24:26.000Z</time>
      </trkpt>
      <trkpt lat="44.92848" lon="5.77594">
        <ele>895.923478</ele>
        <time>2025-07-10T13:24:27.000Z</time>
      </trkpt>
      <trkpt lat="44.9285" lon="5.77591">
        <ele>895.971175</ele>
        <time>2025-07-10T13:24:28.000Z</time>
      </trkpt>
      <trkpt lat="44.92851" lon="5.77587">
        <ele>896.019702</ele>
        <time>2025-07-10T13:24:29.000Z</time>
      </trkpt>
      <trkpt lat="44.92852" lon="5.77584">
        <ele>896.067764</ele>
        <time>2025-07-10T13:24:30.000Z</time>
      </trkpt>
      <trkpt lat="44.92853" lon="5.77581">
        <ele>896.113189</ele>
        <time>2025-07-10T13:24:31.000Z</time>
      </trkpt>
      <trkpt lat="44.92854" lon="5.77578">
        <ele>896.159366</ele>
        <time>2025-07-10T13:24:32.000Z</time>
      </trkpt>
      <trkpt lat="44.92856" lon="5.77576">
        <ele>896.202695</ele>
        <time>2025-07-10T13:24:33.000Z</time>
      </trkpt>
      <trkpt lat="44.92858" lon="5.77573">
        <ele>896.245092</ele>
        <time>2025-07-10T13:24:34.000Z</time>
      </trkpt>
      <trkpt lat="44.92859" lon="5.77571">
        <ele>896.283893</ele>
        <time>2025-07-10T13:24:35.000Z</time>
      </trkpt>
      <trkpt lat="44.92861" lon="5.7757">
        <ele>896.3247</ele>
        <time>2025-07-10T13:24:36.000Z</time>
      </trkpt>
      <trkpt lat="44.92863" lon="5.77568">
        <ele>896.36999</ele>
        <time>2025-07-10T13:24:37.000Z</time>
      </trkpt>
      <trkpt lat="44.92865" lon="5.77566">
        <ele>896.413945</ele>
        <time>2025-07-10T13:24:38.000Z</time>
      </trkpt>
      <trkpt lat="44.92867" lon="5.77564">
        <ele>896.454753</ele>
        <time>2025-07-10T13:24:39.000Z</time>
      </trkpt>
      <trkpt lat="44.92869" lon="5.77562">
        <ele>896.494804</ele>
        <time>2025-07-10T13:24:40.000Z</time>
      </trkpt>
      <trkpt lat="44.92871" lon="5.7756">
        <ele>896.537836</ele>
        <time>2025-07-10T13:24:41.000Z</time>
      </trkpt>
      <trkpt lat="44.92873" lon="5.77558">
        <ele>896.580903</ele>
        <time>2025-07-10T13:24:42.000Z</time>
      </trkpt>
      <trkpt lat="44.92875" lon="5.77556">
        <ele>896.623935</ele>
        <time>2025-07-10T13:24:43.000Z</time>
      </trkpt>
      <trkpt lat="44.92877" lon="5.77555">
        <ele>896.668873</ele>
        <time>2025-07-10T13:24:44.000Z</time>
      </trkpt>
      <trkpt lat="44.92879" lon="5.77553">
        <ele>896.712692</ele>
        <time>2025-07-10T13:24:45.000Z</time>
      </trkpt>
      <trkpt lat="44.92881" lon="5.77552">
        <ele>896.75763</ele>
        <time>2025-07-10T13:24:46.000Z</time>
      </trkpt>
      <trkpt lat="44.92884" lon="5.77551">
        <ele>896.804309</ele>
        <time>2025-07-10T13:24:47.000Z</time>
      </trkpt>
      <trkpt lat="44.92886" lon="5.77549">
        <ele>896.847044</ele>
        <time>2025-07-10T13:24:48.000Z</time>
      </trkpt>
      <trkpt lat="44.92888" lon="5.77547">
        <ele>896.890111</ele>
        <time>2025-07-10T13:24:49.000Z</time>
      </trkpt>
      <trkpt lat="44.9289" lon="5.77545">
        <ele>896.932387</ele>
        <time>2025-07-10T13:24:50.000Z</time>
      </trkpt>
      <trkpt lat="44.92891" lon="5.77544">
        <ele>896.970213</ele>
        <time>2025-07-10T13:24:51.000Z</time>
      </trkpt>
      <trkpt lat="44.92893" lon="5.77542">
        <ele>897.010392</ele>
        <time>2025-07-10T13:24:52.000Z</time>
      </trkpt>
      <trkpt lat="44.92895" lon="5.7754">
        <ele>897.048975</ele>
        <time>2025-07-10T13:24:53.000Z</time>
      </trkpt>
      <trkpt lat="44.92897" lon="5.77538">
        <ele>897.089153</ele>
        <time>2025-07-10T13:24:54.000Z</time>
      </trkpt>
      <trkpt lat="44.92898" lon="5.77536">
        <ele>897.130743</ele>
        <time>2025-07-10T13:24:55.000Z</time>
      </trkpt>
      <trkpt lat="44.929" lon="5.77534">
        <ele>897.171551</ele>
        <time>2025-07-10T13:24:56.000Z</time>
      </trkpt>
      <trkpt lat="44.92902" lon="5.77532">
        <ele>897.212395</ele>
        <time>2025-07-10T13:24:57.000Z</time>
      </trkpt>
      <trkpt lat="44.92904" lon="5.77531">
        <ele>897.254137</ele>
        <time>2025-07-10T13:24:58.000Z</time>
      </trkpt>
      <trkpt lat="44.92906" lon="5.77529">
        <ele>897.300142</ele>
        <time>2025-07-10T13:24:59.000Z</time>
      </trkpt>
      <trkpt lat="44.92909" lon="5.77527">
        <ele>897.325291</ele>
        <time>2025-07-10T13:25:00.000Z</time>
      </trkpt>
      <trkpt lat="44.92911" lon="5.77526">
        <ele>897.321358</ele>
        <time>2025-07-10T13:25:01.000Z</time>
      </trkpt>
      <trkpt lat="44.92913" lon="5.77524">
        <ele>897.317302</ele>
        <time>2025-07-10T13:25:02.000Z</time>
      </trkpt>
      <trkpt lat="44.92915" lon="5.77522">
        <ele>897.313507</ele>
        <time>2025-07-10T13:25:03.000Z</time>
      </trkpt>
      <trkpt lat="44.92917" lon="5.7752">
        <ele>897.309451</ele>
        <time>2025-07-10T13:25:04.000Z</time>
      </trkpt>
      <trkpt lat="44.92919" lon="5.77517">
        <ele>897.305516</ele>
        <time>2025-07-10T13:25:05.000Z</time>
      </trkpt>
      <trkpt lat="44.92921" lon="5.77515">
        <ele>897.301264</ele>
        <time>2025-07-10T13:25:06.000Z</time>
      </trkpt>
      <trkpt lat="44.92923" lon="5.77513">
        <ele>897.296816</ele>
        <time>2025-07-10T13:25:07.000Z</time>
      </trkpt>
      <trkpt lat="44.92926" lon="5.77511">
        <ele>897.292038</ele>
        <time>2025-07-10T13:25:08.000Z</time>
      </trkpt>
      <trkpt lat="44.92928" lon="5.77508">
        <ele>897.287197</ele>
        <time>2025-07-10T13:25:09.000Z</time>
      </trkpt>
      <trkpt lat="44.92931" lon="5.77506">
        <ele>897.282161</ele>
        <time>2025-07-10T13:25:10.000Z</time>
      </trkpt>
      <trkpt lat="44.92933" lon="5.77503">
        <ele>897.27699</ele>
        <time>2025-07-10T13:25:11.000Z</time>
      </trkpt>
      <trkpt lat="44.92936" lon="5.77501">
        <ele>897.272019</ele>
        <time>2025-07-10T13:25:12.000Z</time>
      </trkpt>
      <trkpt lat="44.92938" lon="5.77499">
        <ele>897.267374</ele>
        <time>2025-07-10T13:25:13.000Z</time>
      </trkpt>
      <trkpt lat="44.92941" lon="5.77496">
        <ele>897.262403</ele>
        <time>2025-07-10T13:25:14.000Z</time>
      </trkpt>
      <trkpt lat="44.92943" lon="5.77493">
        <ele>897.257755</ele>
        <time>2025-07-10T13:25:15.000Z</time>
      </trkpt>
      <trkpt lat="44.92946" lon="5.77491">
        <ele>897.252781</ele>
        <time>2025-07-10T13:25:16.000Z</time>
      </trkpt>
      <trkpt lat="44.92948" lon="5.77488">
        <ele>897.24768</ele>
        <time>2025-07-10T13:25:17.000Z</time>
      </trkpt>
      <trkpt lat="44.92951" lon="5.77486">
        <ele>897.242571</ele>
        <time>2025-07-10T13:25:18.000Z</time>
      </trkpt>
      <trkpt lat="44.92954" lon="5.77484">
        <ele>897.237266</ele>
        <time>2025-07-10T13:25:19.000Z</time>
      </trkpt>
      <trkpt lat="44.92957" lon="5.77481">
        <ele>897.231837</ele>
        <time>2025-07-10T13:25:20.000Z</time>
      </trkpt>
      <trkpt lat="44.9296" lon="5.77478">
        <ele>897.226396</ele>
        <time>2025-07-10T13:25:21.000Z</time>
      </trkpt>
      <trkpt lat="44.92962" lon="5.77476">
        <ele>897.220896</ele>
        <time>2025-07-10T13:25:22.000Z</time>
      </trkpt>
      <trkpt lat="44.92965" lon="5.77473">
        <ele>897.215513</ele>
        <time>2025-07-10T13:25:23.000Z</time>
      </trkpt>
      <trkpt lat="44.92968" lon="5.77471">
        <ele>897.209888</ele>
        <time>2025-07-10T13:25:24.000Z</time>
      </trkpt>
      <trkpt lat="44.92971" lon="5.77468">
        <ele>897.204655</ele>
        <time>2025-07-10T13:25:25.000Z</time>
      </trkpt>
      <trkpt lat="44.92973" lon="5.77465">
        <ele>897.199683</ele>
        <time>2025-07-10T13:25:26.000Z</time>
      </trkpt>
      <trkpt lat="44.92976" lon="5.77463">
        <ele>897.194691</ele>
        <time>2025-07-10T13:25:27.000Z</time>
      </trkpt>
      <trkpt lat="44.92979" lon="5.77461">
        <ele>897.189895</ele>
        <time>2025-07-10T13:25:28.000Z</time>
      </trkpt>
      <trkpt lat="44.92982" lon="5.77459">
        <ele>897.184727</ele>
        <time>2025-07-10T13:25:29.000Z</time>
      </trkpt>
      <trkpt lat="44.92985" lon="5.77457">
        <ele>897.179365</ele>
        <time>2025-07-10T13:25:30.000Z</time>
      </trkpt>
      <trkpt lat="44.92988" lon="5.77455">
        <ele>897.174197</ele>
        <time>2025-07-10T13:25:31.000Z</time>
      </trkpt>
      <trkpt lat="44.9299" lon="5.77453">
        <ele>897.169088</ele>
        <time>2025-07-10T13:25:32.000Z</time>
      </trkpt>
      <trkpt lat="44.92993" lon="5.7745">
        <ele>897.163987</ele>
        <time>2025-07-10T13:25:33.000Z</time>
      </trkpt>
      <trkpt lat="44.92995" lon="5.77447">
        <ele>897.158885</ele>
        <time>2025-07-10T13:25:34.000Z</time>
      </trkpt>
      <trkpt lat="44.92998" lon="5.77445">
        <ele>897.153808</ele>
        <time>2025-07-10T13:25:35.000Z</time>
      </trkpt>
      <trkpt lat="44.93001" lon="5.77443">
        <ele>897.148426</ele>
        <time>2025-07-10T13:25:36.000Z</time>
      </trkpt>
      <trkpt lat="44.93004" lon="5.77441">
        <ele>897.14296</ele>
        <time>2025-07-10T13:25:37.000Z</time>
      </trkpt>
      <trkpt lat="44.93007" lon="5.77438">
        <ele>897.137727</ele>
        <time>2025-07-10T13:25:38.000Z</time>
      </trkpt>
      <trkpt lat="44.9301" lon="5.77435">
        <ele>897.132286</ele>
        <time>2025-07-10T13:25:39.000Z</time>
      </trkpt>
      <trkpt lat="44.93013" lon="5.77433">
        <ele>897.126981</ele>
        <time>2025-07-10T13:25:40.000Z</time>
      </trkpt>
      <trkpt lat="44.93015" lon="5.77431">
        <ele>897.121599</ele>
        <time>2025-07-10T13:25:41.000Z</time>
      </trkpt>
      <trkpt lat="44.93018" lon="5.77428">
        <ele>897.116294</ele>
        <time>2025-07-10T13:25:42.000Z</time>
      </trkpt>
      <trkpt lat="44.93021" lon="5.77426">
        <ele>897.110853</ele>
        <time>2025-07-10T13:25:43.000Z</time>
      </trkpt>
      <trkpt lat="44.93024" lon="5.77423">
        <ele>897.105157</ele>
        <time>2025-07-10T13:25:44.000Z</time>
      </trkpt>
      <trkpt lat="44.93027" lon="5.7742">
        <ele>897.099597</ele>
        <time>2025-07-10T13:25:45.000Z</time>
      </trkpt>
      <trkpt lat="44.9303" lon="5.77417">
        <ele>897.09396</ele>
        <time>2025-07-10T13:25:46.000Z</time>
      </trkpt>
      <trkpt lat="44.93033" lon="5.77415">
        <ele>897.088459</ele>
        <time>2025-07-10T13:25:47.000Z</time>
      </trkpt>
      <trkpt lat="44.93035" lon="5.77412">
        <ele>897.083554</ele>
        <time>2025-07-10T13:25:48.000Z</time>
      </trkpt>
      <trkpt lat="44.93038" lon="5.7741">
        <ele>897.078583</ele>
        <time>2025-07-10T13:25:49.000Z</time>
      </trkpt>
      <trkpt lat="44.9304" lon="5.77407">
        <ele>897.07367</ele>
        <time>2025-07-10T13:25:50.000Z</time>
      </trkpt>
      <trkpt lat="44.93043" lon="5.77405">
        <ele>897.068678</ele>
        <time>2025-07-10T13:25:51.000Z</time>
      </trkpt>
      <trkpt lat="44.93046" lon="5.77403">
        <ele>897.063686</ele>
        <time>2025-07-10T13:25:52.000Z</time>
      </trkpt>
      <trkpt lat="44.93049" lon="5.77401">
        <ele>897.058662</ele>
        <time>2025-07-10T13:25:53.000Z</time>
      </trkpt>
      <trkpt lat="44.93051" lon="5.77399">
        <ele>897.053687</ele>
        <time>2025-07-10T13:25:54.000Z</time>
      </trkpt>
      <trkpt lat="44.93054" lon="5.77397">
        <ele>897.048696</ele>
        <time>2025-07-10T13:25:55.000Z</time>
      </trkpt>
      <trkpt lat="44.93057" lon="5.77394">
        <ele>897.043656</ele>
        <time>2025-07-10T13:25:56.000Z</time>
      </trkpt>
      <trkpt lat="44.93059" lon="5.77392">
        <ele>897.038928</ele>
        <time>2025-07-10T13:25:57.000Z</time>
      </trkpt>
      <trkpt lat="44.93062" lon="5.77389">
        <ele>897.039386</ele>
        <time>2025-07-10T13:25:58.000Z</time>
      </trkpt>
      <trkpt lat="44.93064" lon="5.77387">
        <ele>897.039831</ele>
        <time>2025-07-10T13:25:59.000Z</time>
      </trkpt>
      <trkpt lat="44.93067" lon="5.77385">
        <ele>897.040301</ele>
        <time>2025-07-10T13:26:00.000Z</time>
      </trkpt>
      <trkpt lat="44.9307" lon="5.77383">
        <ele>897.040783</ele>
        <time>2025-07-10T13:26:01.000Z</time>
      </trkpt>
      <trkpt lat="44.93072" lon="5.7738">
        <ele>897.041246</ele>
        <time>2025-07-10T13:26:02.000Z</time>
      </trkpt>
      <trkpt lat="44.93075" lon="5.77377">
        <ele>897.041721</ele>
        <time>2025-07-10T13:26:03.000Z</time>
      </trkpt>
      <trkpt lat="44.93077" lon="5.77374">
        <ele>897.042245</ele>
        <time>2025-07-10T13:26:04.000Z</time>
      </trkpt>
      <trkpt lat="44.9308" lon="5.77372">
        <ele>897.042751</ele>
        <time>2025-07-10T13:26:05.000Z</time>
      </trkpt>
      <trkpt lat="44.93083" lon="5.77369">
        <ele>897.043222</ele>
        <time>2025-07-10T13:26:06.000Z</time>
      </trkpt>
      <trkpt lat="44.93086" lon="5.77367">
        <ele>897.043687</ele>
        <time>2025-07-10T13:26:07.000Z</time>
      </trkpt>
      <trkpt lat="44.93088" lon="5.77365">
        <ele>897.04415</ele>
        <time>2025-07-10T13:26:08.000Z</time>
      </trkpt>
      <trkpt lat="44.93091" lon="5.77363">
        <ele>897.044613</ele>
        <time>2025-07-10T13:26:09.000Z</time>
      </trkpt>
      <trkpt lat="44.93093" lon="5.7736">
        <ele>897.045088</ele>
        <time>2025-07-10T13:26:10.000Z</time>
      </trkpt>
      <trkpt lat="44.93096" lon="5.77358">
        <ele>897.045545</ele>
        <time>2025-07-10T13:26:11.000Z</time>
      </trkpt>
      <trkpt lat="44.93098" lon="5.77356">
        <ele>897.046003</ele>
        <time>2025-07-10T13:26:12.000Z</time>
      </trkpt>
      <trkpt lat="44.93101" lon="5.77353">
        <ele>897.046503</ele>
        <time>2025-07-10T13:26:13.000Z</time>
      </trkpt>
      <trkpt lat="44.93104" lon="5.77351">
        <ele>897.046995</ele>
        <time>2025-07-10T13:26:14.000Z</time>
      </trkpt>
      <trkpt lat="44.93107" lon="5.77349">
        <ele>897.047508</ele>
        <time>2025-07-10T13:26:15.000Z</time>
      </trkpt>
      <trkpt lat="44.9311" lon="5.77346">
        <ele>897.048008</ele>
        <time>2025-07-10T13:26:16.000Z</time>
      </trkpt>
      <trkpt lat="44.93113" lon="5.77343">
        <ele>897.048501</ele>
        <time>2025-07-10T13:26:17.000Z</time>
      </trkpt>
      <trkpt lat="44.93115" lon="5.77341">
        <ele>897.048995</ele>
        <time>2025-07-10T13:26:18.000Z</time>
      </trkpt>
      <trkpt lat="44.93118" lon="5.77338">
        <ele>897.049488</ele>
        <time>2025-07-10T13:26:19.000Z</time>
      </trkpt>
      <trkpt lat="44.93121" lon="5.77335">
        <ele>897.049994</ele>
        <time>2025-07-10T13:26:20.000Z</time>
      </trkpt>
      <trkpt lat="44.93123" lon="5.77333">
        <ele>897.050475</ele>
        <time>2025-07-10T13:26:21.000Z</time>
      </trkpt>
      <trkpt lat="44.93126" lon="5.77331">
        <ele>897.050938</ele>
        <time>2025-07-10T13:26:22.000Z</time>
      </trkpt>
      <trkpt lat="44.93129" lon="5.77328">
        <ele>897.051433</ele>
        <time>2025-07-10T13:26:23.000Z</time>
      </trkpt>
      <trkpt lat="44.93131" lon="5.77326">
        <ele>897.05189</ele>
        <time>2025-07-10T13:26:24.000Z</time>
      </trkpt>
      <trkpt lat="44.93134" lon="5.77324">
        <ele>897.052356</ele>
        <time>2025-07-10T13:26:25.000Z</time>
      </trkpt>
      <trkpt lat="44.93137" lon="5.77322">
        <ele>897.052819</ele>
        <time>2025-07-10T13:26:26.000Z</time>
      </trkpt>
      <trkpt lat="44.93139" lon="5.77319">
        <ele>897.0533</ele>
        <time>2025-07-10T13:26:27.000Z</time>
      </trkpt>
      <trkpt lat="44.93142" lon="5.77317">
        <ele>897.053788</ele>
        <time>2025-07-10T13:26:28.000Z</time>
      </trkpt>
      <trkpt lat="44.93145" lon="5.77314">
        <ele>897.054257</ele>
        <time>2025-07-10T13:26:29.000Z</time>
      </trkpt>
      <trkpt lat="44.93147" lon="5.77312">
        <ele>897.054744</ele>
        <time>2025-07-10T13:26:30.000Z</time>
      </trkpt>
      <trkpt lat="44.9315" lon="5.77309">
        <ele>897.055219</ele>
        <time>2025-07-10T13:26:31.000Z</time>
      </trkpt>
      <trkpt lat="44.93152" lon="5.77307">
        <ele>897.055681</ele>
        <time>2025-07-10T13:26:32.000Z</time>
      </trkpt>
      <trkpt lat="44.93155" lon="5.77304">
        <ele>897.05615</ele>
        <time>2025-07-10T13:26:33.000Z</time>
      </trkpt>
      <trkpt lat="44.93158" lon="5.77301">
        <ele>897.056649</ele>
        <time>2025-07-10T13:26:34.000Z</time>
      </trkpt>
      <trkpt lat="44.9316" lon="5.77299">
        <ele>897.057131</ele>
        <time>2025-07-10T13:26:35.000Z</time>
      </trkpt>
      <trkpt lat="44.93163" lon="5.77297">
        <ele>897.057644</ele>
        <time>2025-07-10T13:26:36.000Z</time>
      </trkpt>
      <trkpt lat="44.93166" lon="5.77294">
        <ele>897.058144</ele>
        <time>2025-07-10T13:26:37.000Z</time>
      </trkpt>
      <trkpt lat="44.93169" lon="5.77291">
        <ele>897.05865</ele>
        <time>2025-07-10T13:26:38.000Z</time>
      </trkpt>
      <trkpt lat="44.93171" lon="5.77289">
        <ele>897.059149</ele>
        <time>2025-07-10T13:26:39.000Z</time>
      </trkpt>
      <trkpt lat="44.93174" lon="5.77286">
        <ele>897.05963</ele>
        <time>2025-07-10T13:26:40.000Z</time>
      </trkpt>
      <trkpt lat="44.93177" lon="5.77283">
        <ele>897.060118</ele>
        <time>2025-07-10T13:26:41.000Z</time>
      </trkpt>
      <trkpt lat="44.93179" lon="5.77281">
        <ele>897.060618</ele>
        <time>2025-07-10T13:26:42.000Z</time>
      </trkpt>
      <trkpt lat="44.93182" lon="5.77278">
        <ele>897.061118</ele>
        <time>2025-07-10T13:26:43.000Z</time>
      </trkpt>
      <trkpt lat="44.93185" lon="5.77276">
        <ele>897.061599</ele>
        <time>2025-07-10T13:26:44.000Z</time>
      </trkpt>
      <trkpt lat="44.93188" lon="5.77274">
        <ele>897.062074</ele>
        <time>2025-07-10T13:26:45.000Z</time>
      </trkpt>
      <trkpt lat="44.9319" lon="5.77271">
        <ele>897.062562</ele>
        <time>2025-07-10T13:26:46.000Z</time>
      </trkpt>
      <trkpt lat="44.93193" lon="5.77269">
        <ele>897.063062</ele>
        <time>2025-07-10T13:26:47.000Z</time>
      </trkpt>
      <trkpt lat="44.93196" lon="5.77266">
        <ele>897.063551</ele>
        <time>2025-07-10T13:26:48.000Z</time>
      </trkpt>
      <trkpt lat="44.93199" lon="5.77264">
        <ele>897.064035</ele>
        <time>2025-07-10T13:26:49.000Z</time>
      </trkpt>
      <trkpt lat="44.93201" lon="5.77262">
        <ele>897.064518</ele>
        <time>2025-07-10T13:26:50.000Z</time>
      </trkpt>
      <trkpt lat="44.93204" lon="5.7726">
        <ele>897.065002</ele>
        <time>2025-07-10T13:26:51.000Z</time>
      </trkpt>
      <trkpt lat="44.93207" lon="5.77257">
        <ele>897.065478</ele>
        <time>2025-07-10T13:26:52.000Z</time>
      </trkpt>
      <trkpt lat="44.93209" lon="5.77255">
        <ele>897.065922</ele>
        <time>2025-07-10T13:26:53.000Z</time>
      </trkpt>
      <trkpt lat="44.93212" lon="5.77253">
        <ele>897.066963</ele>
        <time>2025-07-10T13:26:54.000Z</time>
      </trkpt>
      <trkpt lat="44.93215" lon="5.7725">
        <ele>897.068288</ele>
        <time>2025-07-10T13:26:55.000Z</time>
      </trkpt>
      <trkpt lat="44.93217" lon="5.77249">
        <ele>897.069547</ele>
        <time>2025-07-10T13:26:56.000Z</time>
      </trkpt>
      <trkpt lat="44.9322" lon="5.77247">
        <ele>897.070821</ele>
        <time>2025-07-10T13:26:57.000Z</time>
      </trkpt>
      <trkpt lat="44.93222" lon="5.77245">
        <ele>897.072132</ele>
        <time>2025-07-10T13:26:58.000Z</time>
      </trkpt>
      <trkpt lat="44.93225" lon="5.77242">
        <ele>897.073435</ele>
        <time>2025-07-10T13:26:59.000Z</time>
      </trkpt>
      <trkpt lat="44.93228" lon="5.7724">
        <ele>897.074761</ele>
        <time>2025-07-10T13:27:00.000Z</time>
      </trkpt>
      <trkpt lat="44.9323" lon="5.77238">
        <ele>897.076065</ele>
        <time>2025-07-10T13:27:01.000Z</time>
      </trkpt>
      <trkpt lat="44.93233" lon="5.77236">
        <ele>897.077458</ele>
        <time>2025-07-10T13:27:02.000Z</time>
      </trkpt>
      <trkpt lat="44.93236" lon="5.77234">
        <ele>897.078821</ele>
        <time>2025-07-10T13:27:03.000Z</time>
      </trkpt>
      <trkpt lat="44.93239" lon="5.77232">
        <ele>897.080157</ele>
        <time>2025-07-10T13:27:04.000Z</time>
      </trkpt>
      <trkpt lat="44.93242" lon="5.7723">
        <ele>897.081532</ele>
        <time>2025-07-10T13:27:05.000Z</time>
      </trkpt>
      <trkpt lat="44.93245" lon="5.77228">
        <ele>897.082934</ele>
        <time>2025-07-10T13:27:06.000Z</time>
      </trkpt>
      <trkpt lat="44.93247" lon="5.77226">
        <ele>897.084245</ele>
        <time>2025-07-10T13:27:07.000Z</time>
      </trkpt>
      <trkpt lat="44.9325" lon="5.77225">
        <ele>897.085556</ele>
        <time>2025-07-10T13:27:08.000Z</time>
      </trkpt>
      <trkpt lat="44.93253" lon="5.77223">
        <ele>897.086906</ele>
        <time>2025-07-10T13:27:09.000Z</time>
      </trkpt>
      <trkpt lat="44.93256" lon="5.77221">
        <ele>897.088234</ele>
        <time>2025-07-10T13:27:10.000Z</time>
      </trkpt>
      <trkpt lat="44.93259" lon="5.7722">
        <ele>897.089625</ele>
        <time>2025-07-10T13:27:11.000Z</time>
      </trkpt>
      <trkpt lat="44.93262" lon="5.77219">
        <ele>897.091071</ele>
        <time>2025-07-10T13:27:12.000Z</time>
      </trkpt>
      <trkpt lat="44.93266" lon="5.77218">
        <ele>897.092529</ele>
        <time>2025-07-10T13:27:13.000Z</time>
      </trkpt>
      <trkpt lat="44.93269" lon="5.77217">
        <ele>897.093938</ele>
        <time>2025-07-10T13:27:14.000Z</time>
      </trkpt>
      <trkpt lat="44.93272" lon="5.77215">
        <ele>897.095297</ele>
        <time>2025-07-10T13:27:15.000Z</time>
      </trkpt>
      <trkpt lat="44.93275" lon="5.77214">
        <ele>897.096738</ele>
        <time>2025-07-10T13:27:16.000Z</time>
      </trkpt>
      <trkpt lat="44.93278" lon="5.77212">
        <ele>897.098147</ele>
        <time>2025-07-10T13:27:17.000Z</time>
      </trkpt>
      <trkpt lat="44.93281" lon="5.77211">
        <ele>897.099516</ele>
        <time>2025-07-10T13:27:18.000Z</time>
      </trkpt>
      <trkpt lat="44.93284" lon="5.7721">
        <ele>897.100866</ele>
        <time>2025-07-10T13:27:19.000Z</time>
      </trkpt>
      <trkpt lat="44.93287" lon="5.77208">
        <ele>897.102174</ele>
        <time>2025-07-10T13:27:20.000Z</time>
      </trkpt>
      <trkpt lat="44.9329" lon="5.77207">
        <ele>897.103483</ele>
        <time>2025-07-10T13:27:21.000Z</time>
      </trkpt>
      <trkpt lat="44.93293" lon="5.77205">
        <ele>897.104811</ele>
        <time>2025-07-10T13:27:22.000Z</time>
      </trkpt>
      <trkpt lat="44.93296" lon="5.77204">
        <ele>897.106161</ele>
        <time>2025-07-10T13:27:23.000Z</time>
      </trkpt>
      <trkpt lat="44.93299" lon="5.77202">
        <ele>897.107541</ele>
        <time>2025-07-10T13:27:24.000Z</time>
      </trkpt>
      <trkpt lat="44.93302" lon="5.77201">
        <ele>897.10888</ele>
        <time>2025-07-10T13:27:25.000Z</time>
      </trkpt>
      <trkpt lat="44.93304" lon="5.77199">
        <ele>897.110179</ele>
        <time>2025-07-10T13:27:26.000Z</time>
      </trkpt>
      <trkpt lat="44.93307" lon="5.77198">
        <ele>897.111497</ele>
        <time>2025-07-10T13:27:27.000Z</time>
      </trkpt>
      <trkpt lat="44.9331" lon="5.77196">
        <ele>897.112774</ele>
        <time>2025-07-10T13:27:28.000Z</time>
      </trkpt>
      <trkpt lat="44.93313" lon="5.77195">
        <ele>897.114153</ele>
        <time>2025-07-10T13:27:29.000Z</time>
      </trkpt>
      <trkpt lat="44.93316" lon="5.77193">
        <ele>897.115584</ele>
        <time>2025-07-10T13:27:30.000Z</time>
      </trkpt>
      <trkpt lat="44.9332" lon="5.77191">
        <ele>897.117066</ele>
        <time>2025-07-10T13:27:31.000Z</time>
      </trkpt>
      <trkpt lat="44.93323" lon="5.7719">
        <ele>897.118407</ele>
        <time>2025-07-10T13:27:32.000Z</time>
      </trkpt>
      <trkpt lat="44.93326" lon="5.77189">
        <ele>897.119816</ele>
        <time>2025-07-10T13:27:33.000Z</time>
      </trkpt>
      <trkpt lat="44.93329" lon="5.77187">
        <ele>897.121134</ele>
        <time>2025-07-10T13:27:34.000Z</time>
      </trkpt>
      <trkpt lat="44.93331" lon="5.77186">
        <ele>897.122462</ele>
        <time>2025-07-10T13:27:35.000Z</time>
      </trkpt>
      <trkpt lat="44.93335" lon="5.77185">
        <ele>897.123853</ele>
        <time>2025-07-10T13:27:36.000Z</time>
      </trkpt>
      <trkpt lat="44.93337" lon="5.77183">
        <ele>897.125162</ele>
        <time>2025-07-10T13:27:37.000Z</time>
      </trkpt>
      <trkpt lat="44.93341" lon="5.77182">
        <ele>897.126581</ele>
        <time>2025-07-10T13:27:38.000Z</time>
      </trkpt>
      <trkpt lat="44.93344" lon="5.7718">
        <ele>897.12795</ele>
        <time>2025-07-10T13:27:39.000Z</time>
      </trkpt>
      <trkpt lat="44.93347" lon="5.77179">
        <ele>897.129319</ele>
        <time>2025-07-10T13:27:40.000Z</time>
      </trkpt>
      <trkpt lat="44.9335" lon="5.77177">
        <ele>897.130721</ele>
        <time>2025-07-10T13:27:41.000Z</time>
      </trkpt>
      <trkpt lat="44.93353" lon="5.77175">
        <ele>897.1321</ele>
        <time>2025-07-10T13:27:42.000Z</time>
      </trkpt>
      <trkpt lat="44.93356" lon="5.77174">
        <ele>897.133459</ele>
        <time>2025-07-10T13:27:43.000Z</time>
      </trkpt>
      <trkpt lat="44.93359" lon="5.77172">
        <ele>897.134838</ele>
        <time>2025-07-10T13:27:44.000Z</time>
      </trkpt>
      <trkpt lat="44.93361" lon="5.77171">
        <ele>897.136177</ele>
        <time>2025-07-10T13:27:45.000Z</time>
      </trkpt>
      <trkpt lat="44.93365" lon="5.77169">
        <ele>897.137607</ele>
        <time>2025-07-10T13:27:46.000Z</time>
      </trkpt>
      <trkpt lat="44.93368" lon="5.77167">
        <ele>897.139088</ele>
        <time>2025-07-10T13:27:47.000Z</time>
      </trkpt>
      <trkpt lat="44.93371" lon="5.77166">
        <ele>897.140488</ele>
        <time>2025-07-10T13:27:48.000Z</time>
      </trkpt>
      <trkpt lat="44.93374" lon="5.77164">
        <ele>897.141989</ele>
        <time>2025-07-10T13:27:49.000Z</time>
      </trkpt>
      <trkpt lat="44.93377" lon="5.77163">
        <ele>897.143368</ele>
        <time>2025-07-10T13:27:50.000Z</time>
      </trkpt>
      <trkpt lat="44.9338" lon="5.77161">
        <ele>897.131738</ele>
        <time>2025-07-10T13:27:51.000Z</time>
      </trkpt>
      <trkpt lat="44.93383" lon="5.7716">
        <ele>897.119602</ele>
        <time>2025-07-10T13:27:52.000Z</time>
      </trkpt>
      <trkpt lat="44.93386" lon="5.77158">
        <ele>897.107466</ele>
        <time>2025-07-10T13:27:53.000Z</time>
      </trkpt>
      <trkpt lat="44.93389" lon="5.77157">
        <ele>897.09568</ele>
        <time>2025-07-10T13:27:54.000Z</time>
      </trkpt>
      <trkpt lat="44.93393" lon="5.77155">
        <ele>897.083108</ele>
        <time>2025-07-10T13:27:55.000Z</time>
      </trkpt>
      <trkpt lat="44.93396" lon="5.77153">
        <ele>897.070621</ele>
        <time>2025-07-10T13:27:56.000Z</time>
      </trkpt>
      <trkpt lat="44.93399" lon="5.77152">
        <ele>897.058398</ele>
        <time>2025-07-10T13:27:57.000Z</time>
      </trkpt>
      <trkpt lat="44.93402" lon="5.7715">
        <ele>897.046666</ele>
        <time>2025-07-10T13:27:58.000Z</time>
      </trkpt>
      <trkpt lat="44.93405" lon="5.77148">
        <ele>897.035136</ele>
        <time>2025-07-10T13:27:59.000Z</time>
      </trkpt>
      <trkpt lat="44.93408" lon="5.77147">
        <ele>897.023434</ele>
        <time>2025-07-10T13:28:00.000Z</time>
      </trkpt>
      <trkpt lat="44.93411" lon="5.77145">
        <ele>897.011703</ele>
        <time>2025-07-10T13:28:01.000Z</time>
      </trkpt>
      <trkpt lat="44.93414" lon="5.77144">
        <ele>897.000074</ele>
        <time>2025-07-10T13:28:02.000Z</time>
      </trkpt>
      <trkpt lat="44.93417" lon="5.77142">
        <ele>896.987939</ele>
        <time>2025-07-10T13:28:03.000Z</time>
      </trkpt>
      <trkpt lat="44.9342" lon="5.77141">
        <ele>896.975452</ele>
        <time>2025-07-10T13:28:04.000Z</time>
      </trkpt>
      <trkpt lat="44.93423" lon="5.77139">
        <ele>896.962763</ele>
        <time>2025-07-10T13:28:05.000Z</time>
      </trkpt>
      <trkpt lat="44.93426" lon="5.77138">
        <ele>896.950002</ele>
        <time>2025-07-10T13:28:06.000Z</time>
      </trkpt>
      <trkpt lat="44.9343" lon="5.77137">
        <ele>896.937445</ele>
        <time>2025-07-10T13:28:07.000Z</time>
      </trkpt>
      <trkpt lat="44.93433" lon="5.77136">
        <ele>896.924887</ele>
        <time>2025-07-10T13:28:08.000Z</time>
      </trkpt>
      <trkpt lat="44.93436" lon="5.77134">
        <ele>896.912834</ele>
        <time>2025-07-10T13:28:09.000Z</time>
      </trkpt>
      <trkpt lat="44.93439" lon="5.77133">
        <ele>896.901048</ele>
        <time>2025-07-10T13:28:10.000Z</time>
      </trkpt>
      <trkpt lat="44.93442" lon="5.77132">
        <ele>896.88921</ele>
        <time>2025-07-10T13:28:11.000Z</time>
      </trkpt>
      <trkpt lat="44.93445" lon="5.7713">
        <ele>896.877074</ele>
        <time>2025-07-10T13:28:12.000Z</time>
      </trkpt>
      <trkpt lat="44.93448" lon="5.77129">
        <ele>896.865526</ele>
        <time>2025-07-10T13:28:13.000Z</time>
      </trkpt>
      <trkpt lat="44.93451" lon="5.77128">
        <ele>896.853825</ele>
        <time>2025-07-10T13:28:14.000Z</time>
      </trkpt>
      <trkpt lat="44.93454" lon="5.77126">
        <ele>896.842734</ele>
        <time>2025-07-10T13:28:15.000Z</time>
      </trkpt>
      <trkpt lat="44.93457" lon="5.77125">
        <ele>896.831297</ele>
        <time>2025-07-10T13:28:16.000Z</time>
      </trkpt>
      <trkpt lat="44.9346" lon="5.77123">
        <ele>896.818883</ele>
        <time>2025-07-10T13:28:17.000Z</time>
      </trkpt>
      <trkpt lat="44.93463" lon="5.77121">
        <ele>896.806931</ele>
        <time>2025-07-10T13:28:18.000Z</time>
      </trkpt>
      <trkpt lat="44.93466" lon="5.77119">
        <ele>896.795092</ele>
        <time>2025-07-10T13:28:19.000Z</time>
      </trkpt>
      <trkpt lat="44.93469" lon="5.77117">
        <ele>896.78217</ele>
        <time>2025-07-10T13:28:20.000Z</time>
      </trkpt>
      <trkpt lat="44.93472" lon="5.77116">
        <ele>896.770117</ele>
        <time>2025-07-10T13:28:21.000Z</time>
      </trkpt>
      <trkpt lat="44.93476" lon="5.77114">
        <ele>896.757261</ele>
        <time>2025-07-10T13:28:22.000Z</time>
      </trkpt>
      <trkpt lat="44.93479" lon="5.77112">
        <ele>896.744069</ele>
        <time>2025-07-10T13:28:23.000Z</time>
      </trkpt>
      <trkpt lat="44.93482" lon="5.77111">
        <ele>896.730445</ele>
        <time>2025-07-10T13:28:24.000Z</time>
      </trkpt>
      <trkpt lat="44.93486" lon="5.77109">
        <ele>896.716188</ele>
        <time>2025-07-10T13:28:25.000Z</time>
      </trkpt>
      <trkpt lat="44.9349" lon="5.77108">
        <ele>896.702564</ele>
        <time>2025-07-10T13:28:26.000Z</time>
      </trkpt>
      <trkpt lat="44.93493" lon="5.77106">
        <ele>896.688307</ele>
        <time>2025-07-10T13:28:27.000Z</time>
      </trkpt>
      <trkpt lat="44.93497" lon="5.77105">
        <ele>896.673622</ele>
        <time>2025-07-10T13:28:28.000Z</time>
      </trkpt>
      <trkpt lat="44.93501" lon="5.77103">
        <ele>896.659212</ele>
        <time>2025-07-10T13:28:29.000Z</time>
      </trkpt>
      <trkpt lat="44.93505" lon="5.77101">
        <ele>896.644017</ele>
        <time>2025-07-10T13:28:30.000Z</time>
      </trkpt>
      <trkpt lat="44.93509" lon="5.771">
        <ele>896.628607</ele>
        <time>2025-07-10T13:28:31.000Z</time>
      </trkpt>
      <trkpt lat="44.93513" lon="5.771">
        <ele>896.613421</ele>
        <time>2025-07-10T13:28:32.000Z</time>
      </trkpt>
      <trkpt lat="44.93517" lon="5.77101">
        <ele>896.5976</ele>
        <time>2025-07-10T13:28:33.000Z</time>
      </trkpt>
      <trkpt lat="44.93521" lon="5.77102">
        <ele>896.581676</ele>
        <time>2025-07-10T13:28:34.000Z</time>
      </trkpt>
      <trkpt lat="44.93525" lon="5.77103">
        <ele>896.566381</ele>
        <time>2025-07-10T13:28:35.000Z</time>
      </trkpt>
      <trkpt lat="44.93529" lon="5.77104">
        <ele>896.55118</ele>
        <time>2025-07-10T13:28:36.000Z</time>
      </trkpt>
      <trkpt lat="44.93533" lon="5.77107">
        <ele>896.536018</ele>
        <time>2025-07-10T13:28:37.000Z</time>
      </trkpt>
      <trkpt lat="44.93536" lon="5.77111">
        <ele>896.521268</ele>
        <time>2025-07-10T13:28:38.000Z</time>
      </trkpt>
      <trkpt lat="44.93539" lon="5.77115">
        <ele>896.50628</ele>
        <time>2025-07-10T13:28:39.000Z</time>
      </trkpt>
      <trkpt lat="44.93543" lon="5.77118">
        <ele>896.491252</ele>
        <time>2025-07-10T13:28:40.000Z</time>
      </trkpt>
      <trkpt lat="44.93547" lon="5.77119">
        <ele>896.480028</ele>
        <time>2025-07-10T13:28:41.000Z</time>
      </trkpt>
      <trkpt lat="44.93551" lon="5.7712">
        <ele>896.502495</ele>
        <time>2025-07-10T13:28:42.000Z</time>
      </trkpt>
      <trkpt lat="44.93556" lon="5.77121">
        <ele>896.525124</ele>
        <time>2025-07-10T13:28:43.000Z</time>
      </trkpt>
      <trkpt lat="44.9356" lon="5.77122">
        <ele>896.546666</ele>
        <time>2025-07-10T13:28:44.000Z</time>
      </trkpt>
      <trkpt lat="44.93564" lon="5.77125">
        <ele>896.567746</ele>
        <time>2025-07-10T13:28:45.000Z</time>
      </trkpt>
      <trkpt lat="44.93567" lon="5.77128">
        <ele>896.58762</ele>
        <time>2025-07-10T13:28:46.000Z</time>
      </trkpt>
      <trkpt lat="44.9357" lon="5.77131">
        <ele>896.606037</ele>
        <time>2025-07-10T13:28:47.000Z</time>
      </trkpt>
      <trkpt lat="44.93572" lon="5.77135">
        <ele>896.623087</ele>
        <time>2025-07-10T13:28:48.000Z</time>
      </trkpt>
      <trkpt lat="44.93573" lon="5.77139">
        <ele>896.638806</ele>
        <time>2025-07-10T13:28:49.000Z</time>
      </trkpt>
      <trkpt lat="44.93573" lon="5.77143">
        <ele>896.654354</ele>
        <time>2025-07-10T13:28:50.000Z</time>
      </trkpt>
      <trkpt lat="44.93572" lon="5.77147">
        <ele>896.670294</ele>
        <time>2025-07-10T13:28:51.000Z</time>
      </trkpt>
      <trkpt lat="44.93571" lon="5.77149">
        <ele>896.678489</ele>
        <time>2025-07-10T13:28:52.000Z</time>
      </trkpt>
      <trkpt lat="44.9357" lon="5.7715">
        <ele>896.685803</ele>
        <time>2025-07-10T13:28:53.000Z</time>
      </trkpt>
      <trkpt lat="44.93568" lon="5.7715">
        <ele>896.692974</ele>
        <time>2025-07-10T13:28:54.000Z</time>
      </trkpt>
      <trkpt lat="44.93567" lon="5.77149">
        <ele>896.69931</ele>
        <time>2025-07-10T13:28:55.000Z</time>
      </trkpt>
      <trkpt lat="44.93567" lon="5.77144">
        <ele>896.718418</ele>
        <time>2025-07-10T13:29:06.000Z</time>
      </trkpt>
      <trkpt lat="44.93567" lon="5.77144">
        <ele>896.720174</ele>
        <time>2025-07-10T13:29:07.000Z</time>
      </trkpt>
      <trkpt lat="44.93546" lon="5.7712">
        <ele>896.856578</ele>
        <time>2025-07-10T14:39:06.000Z</time>
      </trkpt>
      <trkpt lat="44.93544" lon="5.77119">
        <ele>896.867863</ele>
        <time>2025-07-10T14:39:07.000Z</time>
      </trkpt>
      <trkpt lat="44.93541" lon="5.77119">
        <ele>896.879056</ele>
        <time>2025-07-10T14:39:08.000Z</time>
      </trkpt>
      <trkpt lat="44.93539" lon="5.77118">
        <ele>896.890477</ele>
        <time>2025-07-10T14:39:09.000Z</time>
      </trkpt>
      <trkpt lat="44.93538" lon="5.77117">
        <ele>896.899824</ele>
        <time>2025-07-10T14:39:10.000Z</time>
      </trkpt>
      <trkpt lat="44.93536" lon="5.77115">
        <ele>896.910098</ele>
        <time>2025-07-10T14:39:11.000Z</time>
      </trkpt>
      <trkpt lat="44.93536" lon="5.77111">
        <ele>896.921972</ele>
        <time>2025-07-10T14:39:12.000Z</time>
      </trkpt>
      <trkpt lat="44.93536" lon="5.77108">
        <ele>896.933846</ele>
        <time>2025-07-10T14:39:13.000Z</time>
      </trkpt>
      <trkpt lat="44.93536" lon="5.77104">
        <ele>896.947619</ele>
        <time>2025-07-10T14:39:14.000Z</time>
      </trkpt>
      <trkpt lat="44.93537" lon="5.77101">
        <ele>896.959487</ele>
        <time>2025-07-10T14:39:15.000Z</time>
      </trkpt>
      <trkpt lat="44.93538" lon="5.77098">
        <ele>896.972165</ele>
        <time>2025-07-10T14:39:16.000Z</time>
      </trkpt>
      <trkpt lat="44.93539" lon="5.77094">
        <ele>896.985179</ele>
        <time>2025-07-10T14:39:17.000Z</time>
      </trkpt>
      <trkpt lat="44.9354" lon="5.77091">
        <ele>896.998192</ele>
        <time>2025-07-10T14:39:18.000Z</time>
      </trkpt>
      <trkpt lat="44.93541" lon="5.77088">
        <ele>897.011375</ele>
        <time>2025-07-10T14:39:19.000Z</time>
      </trkpt>
      <trkpt lat="44.93542" lon="5.77085">
        <ele>897.023959</ele>
        <time>2025-07-10T14:39:20.000Z</time>
      </trkpt>
      <trkpt lat="44.93544" lon="5.77083">
        <ele>897.035635</ele>
        <time>2025-07-10T14:39:21.000Z</time>
      </trkpt>
      <trkpt lat="44.93546" lon="5.77081">
        <ele>897.047635</ele>
        <time>2025-07-10T14:39:22.000Z</time>
      </trkpt>
      <trkpt lat="44.93548" lon="5.77079">
        <ele>897.059718</ele>
        <time>2025-07-10T14:39:23.000Z</time>
      </trkpt>
      <trkpt lat="44.93551" lon="5.77078">
        <ele>897.073315</ele>
        <time>2025-07-10T14:39:24.000Z</time>
      </trkpt>
      <trkpt lat="44.93553" lon="5.77076">
        <ele>897.087525</ele>
        <time>2025-07-10T14:39:25.000Z</time>
      </trkpt>
      <trkpt lat="44.93555" lon="5.77075">
        <ele>897.099823</ele>
        <time>2025-07-10T14:39:26.000Z</time>
      </trkpt>
      <trkpt lat="44.93558" lon="5.77073">
        <ele>897.113791</ele>
        <time>2025-07-10T14:39:27.000Z</time>
      </trkpt>
      <trkpt lat="44.93561" lon="5.77072">
        <ele>897.128619</ele>
        <time>2025-07-10T14:39:28.000Z</time>
      </trkpt>
      <trkpt lat="44.93563" lon="5.7707">
        <ele>897.144053</ele>
        <time>2025-07-10T14:39:29.000Z</time>
      </trkpt>
      <trkpt lat="44.93566" lon="5.77068">
        <ele>897.158881</ele>
        <time>2025-07-10T14:39:30.000Z</time>
      </trkpt>
      <trkpt lat="44.93569" lon="5.77067">
        <ele>897.173807</ele>
        <time>2025-07-10T14:39:31.000Z</time>
      </trkpt>
      <trkpt lat="44.93572" lon="5.77066">
        <ele>897.189574</ele>
        <time>2025-07-10T14:39:32.000Z</time>
      </trkpt>
      <trkpt lat="44.93575" lon="5.77064">
        <ele>897.205341</ele>
        <time>2025-07-10T14:39:33.000Z</time>
      </trkpt>
      <trkpt lat="44.93578" lon="5.77063">
        <ele>897.224074</ele>
        <time>2025-07-10T14:39:34.000Z</time>
      </trkpt>
      <trkpt lat="44.93582" lon="5.77062">
        <ele>897.240531</ele>
        <time>2025-07-10T14:39:35.000Z</time>
      </trkpt>
      <trkpt lat="44.93585" lon="5.77061">
        <ele>897.256322</ele>
        <time>2025-07-10T14:39:36.000Z</time>
      </trkpt>
      <trkpt lat="44.93587" lon="5.77059">
        <ele>897.271364</ele>
        <time>2025-07-10T14:39:37.000Z</time>
      </trkpt>
      <trkpt lat="44.9359" lon="5.77058">
        <ele>897.286884</ele>
        <time>2025-07-10T14:39:38.000Z</time>
      </trkpt>
      <trkpt lat="44.93593" lon="5.77057">
        <ele>897.302293</ele>
        <time>2025-07-10T14:39:39.000Z</time>
      </trkpt>
      <trkpt lat="44.93596" lon="5.77055">
        <ele>897.317589</ele>
        <time>2025-07-10T14:39:40.000Z</time>
      </trkpt>
      <trkpt lat="44.93599" lon="5.77054">
        <ele>897.333706</ele>
        <time>2025-07-10T14:39:41.000Z</time>
      </trkpt>
      <trkpt lat="44.93602" lon="5.77052">
        <ele>897.348871</ele>
        <time>2025-07-10T14:39:42.000Z</time>
      </trkpt>
      <trkpt lat="44.93605" lon="5.77051">
        <ele>897.364763</ele>
        <time>2025-07-10T14:39:43.000Z</time>
      </trkpt>
      <trkpt lat="44.93608" lon="5.77049">
        <ele>897.380763</ele>
        <time>2025-07-10T14:39:44.000Z</time>
      </trkpt>
      <trkpt lat="44.93611" lon="5.77048">
        <ele>897.403016</ele>
        <time>2025-07-10T14:39:45.000Z</time>
      </trkpt>
      <trkpt lat="44.93613" lon="5.77047">
        <ele>897.431356</ele>
        <time>2025-07-10T14:39:46.000Z</time>
      </trkpt>
      <trkpt lat="44.93616" lon="5.77046">
        <ele>897.460319</ele>
        <time>2025-07-10T14:39:47.000Z</time>
      </trkpt>
      <trkpt lat="44.93619" lon="5.77044">
        <ele>897.488365</ele>
        <time>2025-07-10T14:39:48.000Z</time>
      </trkpt>
      <trkpt lat="44.93622" lon="5.77043">
        <ele>897.516897</ele>
        <time>2025-07-10T14:39:49.000Z</time>
      </trkpt>
      <trkpt lat="44.93625" lon="5.77042">
        <ele>897.545637</ele>
        <time>2025-07-10T14:39:50.000Z</time>
      </trkpt>
      <trkpt lat="44.93627" lon="5.7704">
        <ele>897.573928</ele>
        <time>2025-07-10T14:39:51.000Z</time>
      </trkpt>
      <trkpt lat="44.9363" lon="5.77039">
        <ele>897.604816</ele>
        <time>2025-07-10T14:39:52.000Z</time>
      </trkpt>
      <trkpt lat="44.93633" lon="5.77037">
        <ele>897.634813</ele>
        <time>2025-07-10T14:39:53.000Z</time>
      </trkpt>
      <trkpt lat="44.93636" lon="5.77035">
        <ele>897.664531</ele>
        <time>2025-07-10T14:39:54.000Z</time>
      </trkpt>
      <trkpt lat="44.93639" lon="5.77034">
        <ele>897.694646</ele>
        <time>2025-07-10T14:39:55.000Z</time>
      </trkpt>
      <trkpt lat="44.93641" lon="5.77032">
        <ele>897.723386</ele>
        <time>2025-07-10T14:39:56.000Z</time>
      </trkpt>
      <trkpt lat="44.93644" lon="5.77031">
        <ele>897.7535</ele>
        <time>2025-07-10T14:39:57.000Z</time>
      </trkpt>
      <trkpt lat="44.93647" lon="5.77029">
        <ele>897.78502</ele>
        <time>2025-07-10T14:39:58.000Z</time>
      </trkpt>
      <trkpt lat="44.9365" lon="5.77027">
        <ele>897.815636</ele>
        <time>2025-07-10T14:39:59.000Z</time>
      </trkpt>
      <trkpt lat="44.93653" lon="5.77026">
        <ele>897.846445</ele>
        <time>2025-07-10T14:40:00.000Z</time>
      </trkpt>
      <trkpt lat="44.93656" lon="5.77025">
        <ele>897.877044</ele>
        <time>2025-07-10T14:40:01.000Z</time>
      </trkpt>
      <trkpt lat="44.93659" lon="5.77023">
        <ele>897.906712</ele>
        <time>2025-07-10T14:40:02.000Z</time>
      </trkpt>
      <trkpt lat="44.93662" lon="5.77022">
        <ele>897.936596</ele>
        <time>2025-07-10T14:40:03.000Z</time>
      </trkpt>
      <trkpt lat="44.93665" lon="5.77021">
        <ele>897.964887</ele>
        <time>2025-07-10T14:40:04.000Z</time>
      </trkpt>
      <trkpt lat="44.93668" lon="5.77019">
        <ele>897.994884</ele>
        <time>2025-07-10T14:40:05.000Z</time>
      </trkpt>
      <trkpt lat="44.9367" lon="5.77017">
        <ele>898.025501</ele>
        <time>2025-07-10T14:40:06.000Z</time>
      </trkpt>
      <trkpt lat="44.93673" lon="5.77015">
        <ele>898.055498</ele>
        <time>2025-07-10T14:40:07.000Z</time>
      </trkpt>
      <trkpt lat="44.93676" lon="5.77014">
        <ele>898.084323</ele>
        <time>2025-07-10T14:40:08.000Z</time>
      </trkpt>
      <trkpt lat="44.93679" lon="5.77012">
        <ele>898.111709</ele>
        <time>2025-07-10T14:40:09.000Z</time>
      </trkpt>
      <trkpt lat="44.93681" lon="5.7701">
        <ele>898.141162</ele>
        <time>2025-07-10T14:40:10.000Z</time>
      </trkpt>
      <trkpt lat="44.93684" lon="5.77009">
        <ele>898.170614</ele>
        <time>2025-07-10T14:40:11.000Z</time>
      </trkpt>
      <trkpt lat="44.93687" lon="5.77007">
        <ele>898.200342</ele>
        <time>2025-07-10T14:40:12.000Z</time>
      </trkpt>
      <trkpt lat="44.93689" lon="5.77005">
        <ele>898.229547</ele>
        <time>2025-07-10T14:40:13.000Z</time>
      </trkpt>
      <trkpt lat="44.93692" lon="5.77002">
        <ele>898.260653</ele>
        <time>2025-07-10T14:40:14.000Z</time>
      </trkpt>
      <trkpt lat="44.93695" lon="5.77">
        <ele>898.290567</ele>
        <time>2025-07-10T14:40:15.000Z</time>
      </trkpt>
      <trkpt lat="44.93697" lon="5.76998">
        <ele>898.321236</ele>
        <time>2025-07-10T14:40:16.000Z</time>
      </trkpt>
      <trkpt lat="44.937" lon="5.76995">
        <ele>898.352716</ele>
        <time>2025-07-10T14:40:17.000Z</time>
      </trkpt>
      <trkpt lat="44.93703" lon="5.76992">
        <ele>898.382987</ele>
        <time>2025-07-10T14:40:18.000Z</time>
      </trkpt>
      <trkpt lat="44.93705" lon="5.7699">
        <ele>898.415648</ele>
        <time>2025-07-10T14:40:19.000Z</time>
      </trkpt>
      <trkpt lat="44.93708" lon="5.76987">
        <ele>898.446334</ele>
        <time>2025-07-10T14:40:20.000Z</time>
      </trkpt>
      <trkpt lat="44.9371" lon="5.76984">
        <ele>898.476606</ele>
        <time>2025-07-10T14:40:21.000Z</time>
      </trkpt>
      <trkpt lat="44.93713" lon="5.76982">
        <ele>898.505767</ele>
        <time>2025-07-10T14:40:22.000Z</time>
      </trkpt>
      <trkpt lat="44.93715" lon="5.76979">
        <ele>898.533736</ele>
        <time>2025-07-10T14:40:23.000Z</time>
      </trkpt>
      <trkpt lat="44.93717" lon="5.76976">
        <ele>898.563798</ele>
        <time>2025-07-10T14:40:24.000Z</time>
      </trkpt>
      <trkpt lat="44.93719" lon="5.76973">
        <ele>898.595048</ele>
        <time>2025-07-10T14:40:25.000Z</time>
      </trkpt>
      <trkpt lat="44.93722" lon="5.7697">
        <ele>898.627034</ele>
        <time>2025-07-10T14:40:26.000Z</time>
      </trkpt>
      <trkpt lat="44.93724" lon="5.76967">
        <ele>898.65902</ele>
        <time>2025-07-10T14:40:27.000Z</time>
      </trkpt>
      <trkpt lat="44.93727" lon="5.76964">
        <ele>898.691457</ele>
        <time>2025-07-10T14:40:28.000Z</time>
      </trkpt>
      <trkpt lat="44.93729" lon="5.76961">
        <ele>898.724353</ele>
        <time>2025-07-10T14:40:29.000Z</time>
      </trkpt>
      <trkpt lat="44.93732" lon="5.76958">
        <ele>898.757717</ele>
        <time>2025-07-10T14:40:30.000Z</time>
      </trkpt>
      <trkpt lat="44.93734" lon="5.76954">
        <ele>898.789898</ele>
        <time>2025-07-10T14:40:31.000Z</time>
      </trkpt>
      <trkpt lat="44.93737" lon="5.76951">
        <ele>898.821865</ele>
        <time>2025-07-10T14:40:32.000Z</time>
      </trkpt>
      <trkpt lat="44.93739" lon="5.76948">
        <ele>898.854046</ele>
        <time>2025-07-10T14:40:33.000Z</time>
      </trkpt>
      <trkpt lat="44.93742" lon="5.76945">
        <ele>898.885156</ele>
        <time>2025-07-10T14:40:34.000Z</time>
      </trkpt>
      <trkpt lat="44.93744" lon="5.76942">
        <ele>898.917142</ele>
        <time>2025-07-10T14:40:35.000Z</time>
      </trkpt>
      <trkpt lat="44.93747" lon="5.76939">
        <ele>898.949877</ele>
        <time>2025-07-10T14:40:36.000Z</time>
      </trkpt>
      <trkpt lat="44.93749" lon="5.76936">
        <ele>898.981355</ele>
        <time>2025-07-10T14:40:37.000Z</time>
      </trkpt>
      <trkpt lat="44.93751" lon="5.76933">
        <ele>899.012354</ele>
        <time>2025-07-10T14:40:38.000Z</time>
      </trkpt>
      <trkpt lat="44.93753" lon="5.7693">
        <ele>899.04217</ele>
        <time>2025-07-10T14:40:39.000Z</time>
      </trkpt>
      <trkpt lat="44.93756" lon="5.76927">
        <ele>899.072232</ele>
        <time>2025-07-10T14:40:40.000Z</time>
      </trkpt>
      <trkpt lat="44.93758" lon="5.76924">
        <ele>899.103943</ele>
        <time>2025-07-10T14:40:41.000Z</time>
      </trkpt>
      <trkpt lat="44.93761" lon="5.76921">
        <ele>899.135192</ele>
        <time>2025-07-10T14:40:42.000Z</time>
      </trkpt>
      <trkpt lat="44.93763" lon="5.76918">
        <ele>899.201516</ele>
        <time>2025-07-10T14:40:43.000Z</time>
      </trkpt>
      <trkpt lat="44.93766" lon="5.76914">
        <ele>899.27773</ele>
        <time>2025-07-10T14:40:44.000Z</time>
      </trkpt>
      <trkpt lat="44.93768" lon="5.76911">
        <ele>899.348066</ele>
        <time>2025-07-10T14:40:45.000Z</time>
      </trkpt>
      <trkpt lat="44.9377" lon="5.76908">
        <ele>899.417796</ele>
        <time>2025-07-10T14:40:46.000Z</time>
      </trkpt>
      <trkpt lat="44.93772" lon="5.76905">
        <ele>899.487526</ele>
        <time>2025-07-10T14:40:47.000Z</time>
      </trkpt>
      <trkpt lat="44.93775" lon="5.76902">
        <ele>899.555636</ele>
        <time>2025-07-10T14:40:48.000Z</time>
      </trkpt>
      <trkpt lat="44.93777" lon="5.76899">
        <ele>899.623266</ele>
        <time>2025-07-10T14:40:49.000Z</time>
      </trkpt>
      <trkpt lat="44.93779" lon="5.76896">
        <ele>899.694331</ele>
        <time>2025-07-10T14:40:50.000Z</time>
      </trkpt>
      <trkpt lat="44.93782" lon="5.76894">
        <ele>899.766386</ele>
        <time>2025-07-10T14:40:51.000Z</time>
      </trkpt>
      <trkpt lat="44.93784" lon="5.7689">
        <ele>899.837194</ele>
        <time>2025-07-10T14:40:52.000Z</time>
      </trkpt>
      <trkpt lat="44.93787" lon="5.76888">
        <ele>899.907542</ele>
        <time>2025-07-10T14:40:53.000Z</time>
      </trkpt>
      <trkpt lat="44.93789" lon="5.76885">
        <ele>899.977889</ele>
        <time>2025-07-10T14:40:54.000Z</time>
      </trkpt>
      <trkpt lat="44.93791" lon="5.76882">
        <ele>900.043303</ele>
        <time>2025-07-10T14:40:55.000Z</time>
      </trkpt>
      <trkpt lat="44.93793" lon="5.76879">
        <ele>900.105608</ele>
        <time>2025-07-10T14:40:56.000Z</time>
      </trkpt>
      <trkpt lat="44.93795" lon="5.76876">
        <ele>900.172633</ele>
        <time>2025-07-10T14:40:57.000Z</time>
      </trkpt>
      <trkpt lat="44.93797" lon="5.76873">
        <ele>900.239245</ele>
        <time>2025-07-10T14:40:58.000Z</time>
      </trkpt>
      <trkpt lat="44.938" lon="5.76871">
        <ele>900.307584</ele>
        <time>2025-07-10T14:40:59.000Z</time>
      </trkpt>
      <trkpt lat="44.93802" lon="5.76868">
        <ele>900.374196</ele>
        <time>2025-07-10T14:41:00.000Z</time>
      </trkpt>
      <trkpt lat="44.93804" lon="5.76865">
        <ele>900.440154</ele>
        <time>2025-07-10T14:41:01.000Z</time>
      </trkpt>
      <trkpt lat="44.93807" lon="5.76862">
        <ele>900.508824</ele>
        <time>2025-07-10T14:41:02.000Z</time>
      </trkpt>
      <trkpt lat="44.93809" lon="5.76859">
        <ele>900.576454</ele>
        <time>2025-07-10T14:41:03.000Z</time>
      </trkpt>
      <trkpt lat="44.93811" lon="5.76857">
        <ele>900.640775</ele>
        <time>2025-07-10T14:41:04.000Z</time>
      </trkpt>
      <trkpt lat="44.93813" lon="5.76854">
        <ele>900.706189</ele>
        <time>2025-07-10T14:41:05.000Z</time>
      </trkpt>
      <trkpt lat="44.93815" lon="5.76851">
        <ele>900.771167</ele>
        <time>2025-07-10T14:41:06.000Z</time>
      </trkpt>
      <trkpt lat="44.93817" lon="5.76848">
        <ele>900.831334</ele>
        <time>2025-07-10T14:41:07.000Z</time>
      </trkpt>
      <trkpt lat="44.93819" lon="5.76846">
        <ele>900.889786</ele>
        <time>2025-07-10T14:41:08.000Z</time>
      </trkpt>
      <trkpt lat="44.93821" lon="5.76843">
        <ele>900.953036</ele>
        <time>2025-07-10T14:41:09.000Z</time>
      </trkpt>
      <trkpt lat="44.93824" lon="5.7684">
        <ele>901.018994</ele>
        <time>2025-07-10T14:41:10.000Z</time>
      </trkpt>
      <trkpt lat="44.93826" lon="5.76837">
        <ele>901.087664</ele>
        <time>2025-07-10T14:41:11.000Z</time>
      </trkpt>
      <trkpt lat="44.93828" lon="5.76835">
        <ele>901.151356</ele>
        <time>2025-07-10T14:41:12.000Z</time>
      </trkpt>
      <trkpt lat="44.9383" lon="5.76832">
        <ele>901.214605</ele>
        <time>2025-07-10T14:41:13.000Z</time>
      </trkpt>
      <trkpt lat="44.93832" lon="5.7683">
        <ele>901.276804</ele>
        <time>2025-07-10T14:41:14.000Z</time>
      </trkpt>
      <trkpt lat="44.93834" lon="5.76827">
        <ele>901.334147</ele>
        <time>2025-07-10T14:41:15.000Z</time>
      </trkpt>
      <trkpt lat="44.93836" lon="5.76824">
        <ele>901.395767</ele>
        <time>2025-07-10T14:41:16.000Z</time>
      </trkpt>
      <trkpt lat="44.93838" lon="5.76822">
        <ele>901.458658</ele>
        <time>2025-07-10T14:41:17.000Z</time>
      </trkpt>
      <trkpt lat="44.9384" lon="5.76819">
        <ele>901.521907</ele>
        <time>2025-07-10T14:41:18.000Z</time>
      </trkpt>
      <trkpt lat="44.93842" lon="5.76816">
        <ele>901.585746</ele>
        <time>2025-07-10T14:41:19.000Z</time>
      </trkpt>
      <trkpt lat="44.93845" lon="5.76814">
        <ele>901.646917</ele>
        <time>2025-07-10T14:41:20.000Z</time>
      </trkpt>
      <trkpt lat="44.93847" lon="5.76811">
        <ele>901.713529</ele>
        <time>2025-07-10T14:41:21.000Z</time>
      </trkpt>
      <trkpt lat="44.93849" lon="5.76808">
        <ele>901.778442</ele>
        <time>2025-07-10T14:41:22.000Z</time>
      </trkpt>
      <trkpt lat="44.93851" lon="5.76806">
        <ele>901.844401</ele>
        <time>2025-07-10T14:41:23.000Z</time>
      </trkpt>
      <trkpt lat="44.93853" lon="5.76803">
        <ele>901.90765</ele>
        <time>2025-07-10T14:41:24.000Z</time>
      </trkpt>
      <trkpt lat="44.93855" lon="5.768">
        <ele>901.970899</ele>
        <time>2025-07-10T14:41:25.000Z</time>
      </trkpt>
      <trkpt lat="44.93858" lon="5.76798">
        <ele>902.032814</ele>
        <time>2025-07-10T14:41:26.000Z</time>
      </trkpt>
      <trkpt lat="44.9386" lon="5.76796">
        <ele>902.091049</ele>
        <time>2025-07-10T14:41:27.000Z</time>
      </trkpt>
      <trkpt lat="44.93862" lon="5.76793">
        <ele>902.150534</ele>
        <time>2025-07-10T14:41:28.000Z</time>
      </trkpt>
      <trkpt lat="44.93864" lon="5.76791">
        <ele>902.209455</ele>
        <time>2025-07-10T14:41:29.000Z</time>
      </trkpt>
      <trkpt lat="44.93866" lon="5.76788">
        <ele>902.266228</ele>
        <time>2025-07-10T14:41:30.000Z</time>
      </trkpt>
      <trkpt lat="44.93867" lon="5.76786">
        <ele>902.31821</ele>
        <time>2025-07-10T14:41:31.000Z</time>
      </trkpt>
      <trkpt lat="44.93869" lon="5.76783">
        <ele>902.368691</ele>
        <time>2025-07-10T14:41:32.000Z</time>
      </trkpt>
      <trkpt lat="44.9387" lon="5.76781">
        <ele>902.420691</ele>
        <time>2025-07-10T14:41:33.000Z</time>
      </trkpt>
      <trkpt lat="44.93872" lon="5.76779">
        <ele>902.47269</ele>
        <time>2025-07-10T14:41:34.000Z</time>
      </trkpt>
      <trkpt lat="44.93874" lon="5.76777">
        <ele>902.521337</ele>
        <time>2025-07-10T14:41:35.000Z</time>
      </trkpt>
      <trkpt lat="44.93876" lon="5.76775">
        <ele>902.570615</ele>
        <time>2025-07-10T14:41:36.000Z</time>
      </trkpt>
      <trkpt lat="44.93877" lon="5.76773">
        <ele>902.625747</ele>
        <time>2025-07-10T14:41:37.000Z</time>
      </trkpt>
      <trkpt lat="44.93879" lon="5.7677">
        <ele>902.681481</ele>
        <time>2025-07-10T14:41:38.000Z</time>
      </trkpt>
      <trkpt lat="44.93881" lon="5.76768">
        <ele>902.739317</ele>
        <time>2025-07-10T14:41:39.000Z</time>
      </trkpt>
      <trkpt lat="44.93883" lon="5.76765">
        <ele>902.797769</ele>
        <time>2025-07-10T14:41:40.000Z</time>
      </trkpt>
      <trkpt lat="44.93885" lon="5.76763">
        <ele>902.852901</ele>
        <time>2025-07-10T14:41:41.000Z</time>
      </trkpt>
      <trkpt lat="44.93887" lon="5.76761">
        <ele>902.908033</ele>
        <time>2025-07-10T14:41:42.000Z</time>
      </trkpt>
      <trkpt lat="44.93888" lon="5.76758">
        <ele>902.961174</ele>
        <time>2025-07-10T14:41:43.000Z</time>
      </trkpt>
      <trkpt lat="44.9389" lon="5.76756">
        <ele>903.014708</ele>
        <time>2025-07-10T14:41:44.000Z</time>
      </trkpt>
      <trkpt lat="44.93892" lon="5.76754">
        <ele>903.067725</ele>
        <time>2025-07-10T14:41:45.000Z</time>
      </trkpt>
      <trkpt lat="44.93894" lon="5.76751">
        <ele>903.123459</ele>
        <time>2025-07-10T14:41:46.000Z</time>
      </trkpt>
      <trkpt lat="44.93896" lon="5.76749">
        <ele>903.195809</ele>
        <time>2025-07-10T14:41:47.000Z</time>
      </trkpt>
      <trkpt lat="44.93898" lon="5.76746">
        <ele>903.276983</ele>
        <time>2025-07-10T14:41:48.000Z</time>
      </trkpt>
      <trkpt lat="44.93899" lon="5.76744">
        <ele>903.359769</ele>
        <time>2025-07-10T14:41:49.000Z</time>
      </trkpt>
      <trkpt lat="44.93901" lon="5.76741">
        <ele>903.437146</ele>
        <time>2025-07-10T14:41:50.000Z</time>
      </trkpt>
      <trkpt lat="44.93903" lon="5.76739">
        <ele>903.513677</ele>
        <time>2025-07-10T14:41:51.000Z</time>
      </trkpt>
      <trkpt lat="44.93905" lon="5.76737">
        <ele>903.591141</ele>
        <time>2025-07-10T14:41:52.000Z</time>
      </trkpt>
      <trkpt lat="44.93907" lon="5.76734">
        <ele>903.667209</ele>
        <time>2025-07-10T14:41:53.000Z</time>
      </trkpt>
      <trkpt lat="44.93909" lon="5.76732">
        <ele>903.746107</ele>
        <time>2025-07-10T14:41:54.000Z</time>
      </trkpt>
      <trkpt lat="44.9391" lon="5.7673">
        <ele>903.820821</ele>
        <time>2025-07-10T14:41:55.000Z</time>
      </trkpt>
      <trkpt lat="44.93912" lon="5.76728">
        <ele>903.889686</ele>
        <time>2025-07-10T14:41:56.000Z</time>
      </trkpt>
      <trkpt lat="44.93914" lon="5.76726">
        <ele>903.963297</ele>
        <time>2025-07-10T14:41:57.000Z</time>
      </trkpt>
      <trkpt lat="44.93915" lon="5.76724">
        <ele>904.030663</ele>
        <time>2025-07-10T14:41:58.000Z</time>
      </trkpt>
      <trkpt lat="44.93917" lon="5.76722">
        <ele>904.10187</ele>
        <time>2025-07-10T14:41:59.000Z</time>
      </trkpt>
      <trkpt lat="44.93919" lon="5.7672">
        <ele>904.16846</ele>
        <time>2025-07-10T14:42:00.000Z</time>
      </trkpt>
      <trkpt lat="44.9392" lon="5.76718">
        <ele>904.238219</ele>
        <time>2025-07-10T14:42:01.000Z</time>
      </trkpt>
      <trkpt lat="44.93922" lon="5.76716">
        <ele>904.309427</ele>
        <time>2025-07-10T14:42:02.000Z</time>
      </trkpt>
      <trkpt lat="44.93924" lon="5.76713">
        <ele>904.37983</ele>
        <time>2025-07-10T14:42:03.000Z</time>
      </trkpt>
      <trkpt lat="44.93925" lon="5.76711">
        <ele>904.450234</ele>
        <time>2025-07-10T14:42:04.000Z</time>
      </trkpt>
      <trkpt lat="44.93927" lon="5.76709">
        <ele>904.525285</ele>
        <time>2025-07-10T14:42:05.000Z</time>
      </trkpt>
      <trkpt lat="44.93929" lon="5.76707">
        <ele>904.598896</ele>
        <time>2025-07-10T14:42:06.000Z</time>
      </trkpt>
      <trkpt lat="44.93931" lon="5.76705">
        <ele>904.673948</ele>
        <time>2025-07-10T14:42:07.000Z</time>
      </trkpt>
      <trkpt lat="44.93933" lon="5.76702">
        <ele>904.755265</ele>
        <time>2025-07-10T14:42:08.000Z</time>
      </trkpt>
      <trkpt lat="44.93935" lon="5.767">
        <ele>904.838011</ele>
        <time>2025-07-10T14:42:09.000Z</time>
      </trkpt>
      <trkpt lat="44.93937" lon="5.76698">
        <ele>904.914079</ele>
        <time>2025-07-10T14:42:10.000Z</time>
      </trkpt>
      <trkpt lat="44.93939" lon="5.76696">
        <ele>904.994006</ele>
        <time>2025-07-10T14:42:11.000Z</time>
      </trkpt>
      <trkpt lat="44.9394" lon="5.76694">
        <ele>905.07147</ele>
        <time>2025-07-10T14:42:12.000Z</time>
      </trkpt>
      <trkpt lat="44.93942" lon="5.76691">
        <ele>905.145692</ele>
        <time>2025-07-10T14:42:13.000Z</time>
      </trkpt>
      <trkpt lat="44.93944" lon="5.76689">
        <ele>905.216096</ele>
        <time>2025-07-10T14:42:14.000Z</time>
      </trkpt>
      <trkpt lat="44.93946" lon="5.76687">
        <ele>905.297968</ele>
        <time>2025-07-10T14:42:15.000Z</time>
      </trkpt>
      <trkpt lat="44.93947" lon="5.76684">
        <ele>905.377562</ele>
        <time>2025-07-10T14:42:16.000Z</time>
      </trkpt>
      <trkpt lat="44.93949" lon="5.76682">
        <ele>905.459434</ele>
        <time>2025-07-10T14:42:17.000Z</time>
      </trkpt>
      <trkpt lat="44.93951" lon="5.76679">
        <ele>905.533045</ele>
        <time>2025-07-10T14:42:18.000Z</time>
      </trkpt>
      <trkpt lat="44.93953" lon="5.76677">
        <ele>905.599634</ele>
        <time>2025-07-10T14:42:19.000Z</time>
      </trkpt>
      <trkpt lat="44.93955" lon="5.76675">
        <ele>905.678532</ele>
        <time>2025-07-10T14:42:20.000Z</time>
      </trkpt>
      <trkpt lat="44.93956" lon="5.76673">
        <ele>905.755062</ele>
        <time>2025-07-10T14:42:21.000Z</time>
      </trkpt>
      <trkpt lat="44.93958" lon="5.7667">
        <ele>905.830845</ele>
        <time>2025-07-10T14:42:22.000Z</time>
      </trkpt>
      <trkpt lat="44.9396" lon="5.76668">
        <ele>905.910439</ele>
        <time>2025-07-10T14:42:23.000Z</time>
      </trkpt>
      <trkpt lat="44.93962" lon="5.76665">
        <ele>905.988484</ele>
        <time>2025-07-10T14:42:24.000Z</time>
      </trkpt>
      <trkpt lat="44.93963" lon="5.76663">
        <ele>906.06653</ele>
        <time>2025-07-10T14:42:25.000Z</time>
      </trkpt>
      <trkpt lat="44.93965" lon="5.76661">
        <ele>906.140752</ele>
        <time>2025-07-10T14:42:26.000Z</time>
      </trkpt>
      <trkpt lat="44.93967" lon="5.76659">
        <ele>906.21682</ele>
        <time>2025-07-10T14:42:27.000Z</time>
      </trkpt>
      <trkpt lat="44.93969" lon="5.76657">
        <ele>906.292888</ele>
        <time>2025-07-10T14:42:28.000Z</time>
      </trkpt>
      <trkpt lat="44.9397" lon="5.76654">
        <ele>906.367754</ele>
        <time>2025-07-10T14:42:29.000Z</time>
      </trkpt>
      <trkpt lat="44.93972" lon="5.76651">
        <ele>906.445131</ele>
        <time>2025-07-10T14:42:30.000Z</time>
      </trkpt>
      <trkpt lat="44.93974" lon="5.76649">
        <ele>906.520358</ele>
        <time>2025-07-10T14:42:31.000Z</time>
      </trkpt>
      <trkpt lat="44.93976" lon="5.76647">
        <ele>906.603102</ele>
        <time>2025-07-10T14:42:32.000Z</time>
      </trkpt>
      <trkpt lat="44.93978" lon="5.76644">
        <ele>906.676713</ele>
        <time>2025-07-10T14:42:33.000Z</time>
      </trkpt>
      <trkpt lat="44.93979" lon="5.76642">
        <ele>906.751764</ele>
        <time>2025-07-10T14:42:34.000Z</time>
      </trkpt>
      <trkpt lat="44.93981" lon="5.7664">
        <ele>906.826816</ele>
        <time>2025-07-10T14:42:35.000Z</time>
      </trkpt>
      <trkpt lat="44.93983" lon="5.76638">
        <ele>906.911023</ele>
        <time>2025-07-10T14:42:36.000Z</time>
      </trkpt>
      <trkpt lat="44.93985" lon="5.76635">
        <ele>906.990616</ele>
        <time>2025-07-10T14:42:37.000Z</time>
      </trkpt>
      <trkpt lat="44.93987" lon="5.76633">
        <ele>907.070544</ele>
        <time>2025-07-10T14:42:38.000Z</time>
      </trkpt>
      <trkpt lat="44.93989" lon="5.7663">
        <ele>907.14744</ele>
        <time>2025-07-10T14:42:39.000Z</time>
      </trkpt>
      <trkpt lat="44.9399" lon="5.76628">
        <ele>907.226035</ele>
        <time>2025-07-10T14:42:40.000Z</time>
      </trkpt>
      <trkpt lat="44.93992" lon="5.76625">
        <ele>907.301262</ele>
        <time>2025-07-10T14:42:41.000Z</time>
      </trkpt>
      <trkpt lat="44.93993" lon="5.76623">
        <ele>907.378638</ele>
        <time>2025-07-10T14:42:42.000Z</time>
      </trkpt>
      <trkpt lat="44.93995" lon="5.7662">
        <ele>907.457535</ele>
        <time>2025-07-10T14:42:43.000Z</time>
      </trkpt>
      <trkpt lat="44.93997" lon="5.76618">
        <ele>907.533318</ele>
        <time>2025-07-10T14:42:44.000Z</time>
      </trkpt>
      <trkpt lat="44.93999" lon="5.76615">
        <ele>907.612912</ele>
        <time>2025-07-10T14:42:45.000Z</time>
      </trkpt>
      <trkpt lat="44.94001" lon="5.76613">
        <ele>907.696321</ele>
        <time>2025-07-10T14:42:46.000Z</time>
      </trkpt>
      <trkpt lat="44.94002" lon="5.7661">
        <ele>907.775322</ele>
        <time>2025-07-10T14:42:47.000Z</time>
      </trkpt>
      <trkpt lat="44.94004" lon="5.76608">
        <ele>907.851852</ele>
        <time>2025-07-10T14:42:48.000Z</time>
      </trkpt>
      <trkpt lat="44.94006" lon="5.76605">
        <ele>907.940638</ele>
        <time>2025-07-10T14:42:49.000Z</time>
      </trkpt>
      <trkpt lat="44.94008" lon="5.76602">
        <ele>908.029424</ele>
        <time>2025-07-10T14:42:50.000Z</time>
      </trkpt>
      <trkpt lat="44.9401" lon="5.766">
        <ele>908.113631</ele>
        <time>2025-07-10T14:42:51.000Z</time>
      </trkpt>
      <trkpt lat="44.94013" lon="5.76597">
        <ele>908.209367</ele>
        <time>2025-07-10T14:42:52.000Z</time>
      </trkpt>
      <trkpt lat="44.94014" lon="5.76594">
        <ele>908.292776</ele>
        <time>2025-07-10T14:42:53.000Z</time>
      </trkpt>
      <trkpt lat="44.94017" lon="5.76592">
        <ele>908.375214</ele>
        <time>2025-07-10T14:42:54.000Z</time>
      </trkpt>
      <trkpt lat="44.94019" lon="5.7659">
        <ele>908.461514</ele>
        <time>2025-07-10T14:42:55.000Z</time>
      </trkpt>
      <trkpt lat="44.94021" lon="5.76587">
        <ele>908.553021</ele>
        <time>2025-07-10T14:42:56.000Z</time>
      </trkpt>
      <trkpt lat="44.94023" lon="5.76585">
        <ele>908.643233</ele>
        <time>2025-07-10T14:42:57.000Z</time>
      </trkpt>
      <trkpt lat="44.94026" lon="5.76583">
        <ele>908.733445</ele>
        <time>2025-07-10T14:42:58.000Z</time>
      </trkpt>
      <trkpt lat="44.94028" lon="5.76581">
        <ele>908.823779</ele>
        <time>2025-07-10T14:42:59.000Z</time>
      </trkpt>
      <trkpt lat="44.94031" lon="5.76579">
        <ele>908.903925</ele>
        <time>2025-07-10T14:43:00.000Z</time>
      </trkpt>
      <trkpt lat="44.94033" lon="5.76578">
        <ele>908.979047</ele>
        <time>2025-07-10T14:43:01.000Z</time>
      </trkpt>
      <trkpt lat="44.94036" lon="5.76577">
        <ele>909.056486</ele>
        <time>2025-07-10T14:43:02.000Z</time>
      </trkpt>
      <trkpt lat="44.94038" lon="5.76575">
        <ele>909.138355</ele>
        <time>2025-07-10T14:43:03.000Z</time>
      </trkpt>
      <trkpt lat="44.94041" lon="5.76573">
        <ele>909.22313</ele>
        <time>2025-07-10T14:43:04.000Z</time>
      </trkpt>
      <trkpt lat="44.94043" lon="5.76571">
        <ele>909.303938</ele>
        <time>2025-07-10T14:43:05.000Z</time>
      </trkpt>
      <trkpt lat="44.94045" lon="5.76569">
        <ele>909.383471</ele>
        <time>2025-07-10T14:43:06.000Z</time>
      </trkpt>
      <trkpt lat="44.94047" lon="5.76566">
        <ele>909.46227</ele>
        <time>2025-07-10T14:43:07.000Z</time>
      </trkpt>
      <trkpt lat="44.94049" lon="5.76564">
        <ele>909.54107</ele>
        <time>2025-07-10T14:43:08.000Z</time>
      </trkpt>
      <trkpt lat="44.94051" lon="5.76561">
        <ele>909.615552</ele>
        <time>2025-07-10T14:43:09.000Z</time>
      </trkpt>
      <trkpt lat="44.94053" lon="5.76559">
        <ele>909.68948</ele>
        <time>2025-07-10T14:43:10.000Z</time>
      </trkpt>
      <trkpt lat="44.94054" lon="5.76556">
        <ele>909.763027</ele>
        <time>2025-07-10T14:43:11.000Z</time>
      </trkpt>
      <trkpt lat="44.94056" lon="5.76553">
        <ele>909.841482</ele>
        <time>2025-07-10T14:43:12.000Z</time>
      </trkpt>
      <trkpt lat="44.94058" lon="5.7655">
        <ele>909.920128</ele>
        <time>2025-07-10T14:43:13.000Z</time>
      </trkpt>
      <trkpt lat="44.94059" lon="5.76547">
        <ele>909.998773</ele>
        <time>2025-07-10T14:43:14.000Z</time>
      </trkpt>
      <trkpt lat="44.94061" lon="5.76544">
        <ele>910.075571</ele>
        <time>2025-07-10T14:43:15.000Z</time>
      </trkpt>
      <trkpt lat="44.94062" lon="5.76541">
        <ele>910.147266</ele>
        <time>2025-07-10T14:43:16.000Z</time>
      </trkpt>
      <trkpt lat="44.94063" lon="5.76538">
        <ele>910.218962</ele>
        <time>2025-07-10T14:43:17.000Z</time>
      </trkpt>
      <trkpt lat="44.94065" lon="5.76536">
        <ele>910.289124</ele>
        <time>2025-07-10T14:43:18.000Z</time>
      </trkpt>
      <trkpt lat="44.94066" lon="5.76532">
        <ele>910.361552</ele>
        <time>2025-07-10T14:43:19.000Z</time>
      </trkpt>
      <trkpt lat="44.94067" lon="5.7653">
        <ele>910.433248</ele>
        <time>2025-07-10T14:43:20.000Z</time>
      </trkpt>
      <trkpt lat="44.94068" lon="5.76527">
        <ele>910.503188</ele>
        <time>2025-07-10T14:43:21.000Z</time>
      </trkpt>
      <trkpt lat="44.9407" lon="5.76524">
        <ele>910.576657</ele>
        <time>2025-07-10T14:43:22.000Z</time>
      </trkpt>
      <trkpt lat="44.94071" lon="5.76521">
        <ele>910.646563</ele>
        <time>2025-07-10T14:43:23.000Z</time>
      </trkpt>
      <trkpt lat="44.94073" lon="5.76519">
        <ele>910.716958</ele>
        <time>2025-07-10T14:43:24.000Z</time>
      </trkpt>
      <trkpt lat="44.94074" lon="5.76516">
        <ele>910.783592</ele>
        <time>2025-07-10T14:43:25.000Z</time>
      </trkpt>
      <trkpt lat="44.94076" lon="5.76514">
        <ele>910.856081</ele>
        <time>2025-07-10T14:43:26.000Z</time>
      </trkpt>
      <trkpt lat="44.94078" lon="5.76512">
        <ele>910.930563</ele>
        <time>2025-07-10T14:43:27.000Z</time>
      </trkpt>
      <trkpt lat="44.9408" lon="5.7651">
        <ele>910.997197</ele>
        <time>2025-07-10T14:43:28.000Z</time>
      </trkpt>
      <trkpt lat="44.94081" lon="5.76508">
        <ele>911.062476</ele>
        <time>2025-07-10T14:43:29.000Z</time>
      </trkpt>
      <trkpt lat="44.94083" lon="5.76506">
        <ele>911.127754</ele>
        <time>2025-07-10T14:43:30.000Z</time>
      </trkpt>
      <trkpt lat="44.94085" lon="5.76504">
        <ele>911.192197</ele>
        <time>2025-07-10T14:43:31.000Z</time>
      </trkpt>
      <trkpt lat="44.94086" lon="5.76501">
        <ele>911.256639</ele>
        <time>2025-07-10T14:43:32.000Z</time>
      </trkpt>
      <trkpt lat="44.94088" lon="5.76499">
        <ele>911.319678</ele>
        <time>2025-07-10T14:43:33.000Z</time>
      </trkpt>
      <trkpt lat="44.94089" lon="5.76497">
        <ele>911.380539</ele>
        <time>2025-07-10T14:43:34.000Z</time>
      </trkpt>
      <trkpt lat="44.94091" lon="5.76495">
        <ele>911.442851</ele>
        <time>2025-07-10T14:43:35.000Z</time>
      </trkpt>
      <trkpt lat="44.94093" lon="5.76493">
        <ele>911.510879</ele>
        <time>2025-07-10T14:43:36.000Z</time>
      </trkpt>
      <trkpt lat="44.94094" lon="5.76491">
        <ele>911.574679</ele>
        <time>2025-07-10T14:43:37.000Z</time>
      </trkpt>
      <trkpt lat="44.94096" lon="5.76489">
        <ele>911.643562</ele>
        <time>2025-07-10T14:43:38.000Z</time>
      </trkpt>
      <trkpt lat="44.94098" lon="5.76487">
        <ele>911.703914</ele>
        <time>2025-07-10T14:43:39.000Z</time>
      </trkpt>
      <trkpt lat="44.94099" lon="5.76485">
        <ele>911.760657</ele>
        <time>2025-07-10T14:43:40.000Z</time>
      </trkpt>
      <trkpt lat="44.94101" lon="5.76483">
        <ele>911.825099</ele>
        <time>2025-07-10T14:43:41.000Z</time>
      </trkpt>
      <trkpt lat="44.94102" lon="5.76481">
        <ele>911.890981</ele>
        <time>2025-07-10T14:43:42.000Z</time>
      </trkpt>
      <trkpt lat="44.94104" lon="5.76479">
        <ele>911.956259</ele>
        <time>2025-07-10T14:43:43.000Z</time>
      </trkpt>
      <trkpt lat="44.94106" lon="5.76477">
        <ele>912.019298</ele>
        <time>2025-07-10T14:43:44.000Z</time>
      </trkpt>
      <trkpt lat="44.94107" lon="5.76475">
        <ele>912.084577</ele>
        <time>2025-07-10T14:43:45.000Z</time>
      </trkpt>
      <trkpt lat="44.94109" lon="5.76473">
        <ele>912.144929</ele>
        <time>2025-07-10T14:43:46.000Z</time>
      </trkpt>
      <trkpt lat="44.94111" lon="5.76471">
        <ele>912.211563</ele>
        <time>2025-07-10T14:43:47.000Z</time>
      </trkpt>
      <trkpt lat="44.94112" lon="5.76469">
        <ele>912.276841</ele>
        <time>2025-07-10T14:43:48.000Z</time>
      </trkpt>
      <trkpt lat="44.94114" lon="5.76467">
        <ele>912.33988</ele>
        <time>2025-07-10T14:43:49.000Z</time>
      </trkpt>
      <trkpt lat="44.94115" lon="5.76465">
        <ele>912.403238</ele>
        <time>2025-07-10T14:43:50.000Z</time>
      </trkpt>
      <trkpt lat="44.94117" lon="5.76463">
        <ele>912.465551</ele>
        <time>2025-07-10T14:43:51.000Z</time>
      </trkpt>
      <trkpt lat="44.94118" lon="5.76461">
        <ele>912.52859</ele>
        <time>2025-07-10T14:43:52.000Z</time>
      </trkpt>
      <trkpt lat="44.9412" lon="5.76459">
        <ele>912.586663</ele>
        <time>2025-07-10T14:43:53.000Z</time>
      </trkpt>
      <trkpt lat="44.94122" lon="5.76457">
        <ele>912.650625</ele>
        <time>2025-07-10T14:43:54.000Z</time>
      </trkpt>
      <trkpt lat="44.94123" lon="5.76455">
        <ele>912.713664</ele>
        <time>2025-07-10T14:43:55.000Z</time>
      </trkpt>
      <trkpt lat="44.94125" lon="5.76453">
        <ele>912.778942</ele>
        <time>2025-07-10T14:43:56.000Z</time>
      </trkpt>
      <trkpt lat="44.94127" lon="5.76451">
        <ele>912.842904</ele>
        <time>2025-07-10T14:43:57.000Z</time>
      </trkpt>
      <trkpt lat="44.94128" lon="5.76449">
        <ele>912.906793</ele>
        <time>2025-07-10T14:43:58.000Z</time>
      </trkpt>
      <trkpt lat="44.9413" lon="5.76448">
        <ele>912.970754</ele>
        <time>2025-07-10T14:43:59.000Z</time>
      </trkpt>
      <trkpt lat="44.94132" lon="5.76445">
        <ele>913.033067</ele>
        <time>2025-07-10T14:44:00.000Z</time>
      </trkpt>
      <trkpt lat="44.94133" lon="5.76443">
        <ele>913.096106</ele>
        <time>2025-07-10T14:44:01.000Z</time>
      </trkpt>
      <trkpt lat="44.94135" lon="5.76441">
        <ele>913.159145</ele>
        <time>2025-07-10T14:44:02.000Z</time>
      </trkpt>
      <trkpt lat="44.94137" lon="5.7644">
        <ele>913.225446</ele>
        <time>2025-07-10T14:44:03.000Z</time>
      </trkpt>
      <trkpt lat="44.94138" lon="5.76437">
        <ele>913.296629</ele>
        <time>2025-07-10T14:44:04.000Z</time>
      </trkpt>
      <trkpt lat="44.9414" lon="5.76435">
        <ele>913.371835</ele>
        <time>2025-07-10T14:44:05.000Z</time>
      </trkpt>
      <trkpt lat="44.94142" lon="5.76433">
        <ele>913.442066</ele>
        <time>2025-07-10T14:44:06.000Z</time>
      </trkpt>
      <trkpt lat="44.94144" lon="5.76431">
        <ele>913.51686</ele>
        <time>2025-07-10T14:44:07.000Z</time>
      </trkpt>
      <trkpt lat="44.94146" lon="5.76428">
        <ele>913.597617</ele>
        <time>2025-07-10T14:44:08.000Z</time>
      </trkpt>
      <trkpt lat="44.94149" lon="5.76426">
        <ele>913.682252</ele>
        <time>2025-07-10T14:44:09.000Z</time>
      </trkpt>
      <trkpt lat="44.94151" lon="5.76423">
        <ele>913.768904</ele>
        <time>2025-07-10T14:44:10.000Z</time>
      </trkpt>
      <trkpt lat="44.94153" lon="5.7642">
        <ele>913.856278</ele>
        <time>2025-07-10T14:44:11.000Z</time>
      </trkpt>
      <trkpt lat="44.94155" lon="5.76417">
        <ele>913.944517</ele>
        <time>2025-07-10T14:44:12.000Z</time>
      </trkpt>
      <trkpt lat="44.94157" lon="5.76415">
        <ele>914.029152</ele>
        <time>2025-07-10T14:44:13.000Z</time>
      </trkpt>
      <trkpt lat="44.9416" lon="5.76412">
        <ele>914.11739</ele>
        <time>2025-07-10T14:44:14.000Z</time>
      </trkpt>
      <trkpt lat="44.94162" lon="5.76409">
        <ele>914.147841</ele>
        <time>2025-07-10T14:44:15.000Z</time>
      </trkpt>
      <trkpt lat="44.94164" lon="5.76406">
        <ele>914.171494</ele>
        <time>2025-07-10T14:44:16.000Z</time>
      </trkpt>
      <trkpt lat="44.94167" lon="5.76403">
        <ele>914.197016</ele>
        <time>2025-07-10T14:44:17.000Z</time>
      </trkpt>
      <trkpt lat="44.94169" lon="5.764">
        <ele>914.221966</ele>
        <time>2025-07-10T14:44:18.000Z</time>
      </trkpt>
      <trkpt lat="44.94171" lon="5.76397">
        <ele>914.247661</ele>
        <time>2025-07-10T14:44:19.000Z</time>
      </trkpt>
      <trkpt lat="44.94174" lon="5.76394">
        <ele>914.272051</ele>
        <time>2025-07-10T14:44:20.000Z</time>
      </trkpt>
      <trkpt lat="44.94176" lon="5.7639">
        <ele>914.297746</ele>
        <time>2025-07-10T14:44:21.000Z</time>
      </trkpt>
      <trkpt lat="44.94179" lon="5.76387">
        <ele>914.32437</ele>
        <time>2025-07-10T14:44:22.000Z</time>
      </trkpt>
      <trkpt lat="44.94181" lon="5.76384">
        <ele>914.34969</ele>
        <time>2025-07-10T14:44:23.000Z</time>
      </trkpt>
      <trkpt lat="44.94184" lon="5.76381">
        <ele>914.37673</ele>
        <time>2025-07-10T14:44:24.000Z</time>
      </trkpt>
      <trkpt lat="44.94187" lon="5.76377">
        <ele>914.404963</ele>
        <time>2025-07-10T14:44:25.000Z</time>
      </trkpt>
      <trkpt lat="44.94189" lon="5.76374">
        <ele>914.4316</ele>
        <time>2025-07-10T14:44:26.000Z</time>
      </trkpt>
      <trkpt lat="44.94192" lon="5.76371">
        <ele>914.459928</ele>
        <time>2025-07-10T14:44:27.000Z</time>
      </trkpt>
      <trkpt lat="44.94195" lon="5.76368">
        <ele>914.487905</ele>
        <time>2025-07-10T14:44:28.000Z</time>
      </trkpt>
      <trkpt lat="44.94198" lon="5.76365">
        <ele>914.514944</ele>
        <time>2025-07-10T14:44:29.000Z</time>
      </trkpt>
      <trkpt lat="44.942" lon="5.76361">
        <ele>914.543059</ele>
        <time>2025-07-10T14:44:30.000Z</time>
      </trkpt>
      <trkpt lat="44.94203" lon="5.76358">
        <ele>914.571973</ele>
        <time>2025-07-10T14:44:31.000Z</time>
      </trkpt>
      <trkpt lat="44.94206" lon="5.76355">
        <ele>914.60049</ele>
        <time>2025-07-10T14:44:32.000Z</time>
      </trkpt>
      <trkpt lat="44.94209" lon="5.76352">
        <ele>914.62838</ele>
        <time>2025-07-10T14:44:33.000Z</time>
      </trkpt>
      <trkpt lat="44.94212" lon="5.76349">
        <ele>914.65658</ele>
        <time>2025-07-10T14:44:34.000Z</time>
      </trkpt>
      <trkpt lat="44.94216" lon="5.76346">
        <ele>914.686398</ele>
        <time>2025-07-10T14:44:35.000Z</time>
      </trkpt>
      <trkpt lat="44.94219" lon="5.76344">
        <ele>914.71509</ele>
        <time>2025-07-10T14:44:36.000Z</time>
      </trkpt>
      <trkpt lat="44.94223" lon="5.76342">
        <ele>914.744045</ele>
        <time>2025-07-10T14:44:37.000Z</time>
      </trkpt>
      <trkpt lat="44.94226" lon="5.7634">
        <ele>914.772107</ele>
        <time>2025-07-10T14:44:38.000Z</time>
      </trkpt>
      <trkpt lat="44.9423" lon="5.76338">
        <ele>914.801074</ele>
        <time>2025-07-10T14:44:39.000Z</time>
      </trkpt>
      <trkpt lat="44.94233" lon="5.76335">
        <ele>914.832122</ele>
        <time>2025-07-10T14:44:40.000Z</time>
      </trkpt>
      <trkpt lat="44.94236" lon="5.76332">
        <ele>914.863036</ele>
        <time>2025-07-10T14:44:41.000Z</time>
      </trkpt>
      <trkpt lat="44.94238" lon="5.76327">
        <ele>914.894509</ele>
        <time>2025-07-10T14:44:42.000Z</time>
      </trkpt>
      <trkpt lat="44.9424" lon="5.76322">
        <ele>914.923322</ele>
        <time>2025-07-10T14:44:43.000Z</time>
      </trkpt>
      <trkpt lat="44.94242" lon="5.76317">
        <ele>914.951504</ele>
        <time>2025-07-10T14:44:44.000Z</time>
      </trkpt>
      <trkpt lat="44.94244" lon="5.76313">
        <ele>914.980775</ele>
        <time>2025-07-10T14:44:45.000Z</time>
      </trkpt>
      <trkpt lat="44.94246" lon="5.76309">
        <ele>915.009871</ele>
        <time>2025-07-10T14:44:46.000Z</time>
      </trkpt>
      <trkpt lat="44.9425" lon="5.76306">
        <ele>915.03901</ele>
        <time>2025-07-10T14:44:47.000Z</time>
      </trkpt>
      <trkpt lat="44.94253" lon="5.76303">
        <ele>915.066397</ele>
        <time>2025-07-10T14:44:48.000Z</time>
      </trkpt>
      <trkpt lat="44.94256" lon="5.76301">
        <ele>915.091849</ele>
        <time>2025-07-10T14:44:49.000Z</time>
      </trkpt>
      <trkpt lat="44.94259" lon="5.76299">
        <ele>915.117104</ele>
        <time>2025-07-10T14:44:50.000Z</time>
      </trkpt>
      <trkpt lat="44.94262" lon="5.76297">
        <ele>915.142328</ele>
        <time>2025-07-10T14:44:51.000Z</time>
      </trkpt>
      <trkpt lat="44.94264" lon="5.76296">
        <ele>915.165711</ele>
        <time>2025-07-10T14:44:52.000Z</time>
      </trkpt>
      <trkpt lat="44.94267" lon="5.76294">
        <ele>915.190852</ele>
        <time>2025-07-10T14:44:53.000Z</time>
      </trkpt>
      <trkpt lat="44.94271" lon="5.76293">
        <ele>915.215993</ele>
        <time>2025-07-10T14:44:54.000Z</time>
      </trkpt>
      <trkpt lat="44.94274" lon="5.76292">
        <ele>915.24039</ele>
        <time>2025-07-10T14:44:55.000Z</time>
      </trkpt>
      <trkpt lat="44.94277" lon="5.76291">
        <ele>915.264787</ele>
        <time>2025-07-10T14:44:56.000Z</time>
      </trkpt>
      <trkpt lat="44.9428" lon="5.7629">
        <ele>915.28972</ele>
        <time>2025-07-10T14:44:57.000Z</time>
      </trkpt>
      <trkpt lat="44.94283" lon="5.76289">
        <ele>915.314002</ele>
        <time>2025-07-10T14:44:58.000Z</time>
      </trkpt>
      <trkpt lat="44.94286" lon="5.76288">
        <ele>915.337331</ele>
        <time>2025-07-10T14:44:59.000Z</time>
      </trkpt>
      <trkpt lat="44.94289" lon="5.76287">
        <ele>915.359249</ele>
        <time>2025-07-10T14:45:00.000Z</time>
      </trkpt>
      <trkpt lat="44.94292" lon="5.76286">
        <ele>915.382898</ele>
        <time>2025-07-10T14:45:01.000Z</time>
      </trkpt>
      <trkpt lat="44.94295" lon="5.76285">
        <ele>915.405801</ele>
        <time>2025-07-10T14:45:02.000Z</time>
      </trkpt>
      <trkpt lat="44.94298" lon="5.76284">
        <ele>915.430947</ele>
        <time>2025-07-10T14:45:03.000Z</time>
      </trkpt>
      <trkpt lat="44.94301" lon="5.76284">
        <ele>915.45655</ele>
        <time>2025-07-10T14:45:04.000Z</time>
      </trkpt>
      <trkpt lat="44.94305" lon="5.76283">
        <ele>915.482239</ele>
        <time>2025-07-10T14:45:05.000Z</time>
      </trkpt>
      <trkpt lat="44.94308" lon="5.76282">
        <ele>915.507273</ele>
        <time>2025-07-10T14:45:06.000Z</time>
      </trkpt>
      <trkpt lat="44.94311" lon="5.76281">
        <ele>915.601556</ele>
        <time>2025-07-10T14:45:07.000Z</time>
      </trkpt>
      <trkpt lat="44.94313" lon="5.7628">
        <ele>915.697856</ele>
        <time>2025-07-10T14:45:08.000Z</time>
      </trkpt>
      <trkpt lat="44.94316" lon="5.7628">
        <ele>915.790238</ele>
        <time>2025-07-10T14:45:09.000Z</time>
      </trkpt>
      <trkpt lat="44.94319" lon="5.76279">
        <ele>915.880092</ele>
        <time>2025-07-10T14:45:10.000Z</time>
      </trkpt>
      <trkpt lat="44.94322" lon="5.76278">
        <ele>915.973168</ele>
        <time>2025-07-10T14:45:11.000Z</time>
      </trkpt>
      <trkpt lat="44.94324" lon="5.76278">
        <ele>916.059401</ele>
        <time>2025-07-10T14:45:12.000Z</time>
      </trkpt>
      <trkpt lat="44.94327" lon="5.76277">
        <ele>916.139617</ele>
        <time>2025-07-10T14:45:13.000Z</time>
      </trkpt>
      <trkpt lat="44.94329" lon="5.76276">
        <ele>916.220332</ele>
        <time>2025-07-10T14:45:14.000Z</time>
      </trkpt>
      <trkpt lat="44.94332" lon="5.76275">
        <ele>916.311697</ele>
        <time>2025-07-10T14:45:15.000Z</time>
      </trkpt>
      <trkpt lat="44.94335" lon="5.76274">
        <ele>916.403062</ele>
        <time>2025-07-10T14:45:16.000Z</time>
      </trkpt>
      <trkpt lat="44.94337" lon="5.76274">
        <ele>916.490163</ele>
        <time>2025-07-10T14:45:17.000Z</time>
      </trkpt>
      <trkpt lat="44.9434" lon="5.76273">
        <ele>916.572811</ele>
        <time>2025-07-10T14:45:18.000Z</time>
      </trkpt>
      <trkpt lat="44.94342" lon="5.76273">
        <ele>916.661945</ele>
        <time>2025-07-10T14:45:19.000Z</time>
      </trkpt>
      <trkpt lat="44.94345" lon="5.76272">
        <ele>916.74585</ele>
        <time>2025-07-10T14:45:20.000Z</time>
      </trkpt>
      <trkpt lat="44.94347" lon="5.76271">
        <ele>916.822863</ele>
        <time>2025-07-10T14:45:21.000Z</time>
      </trkpt>
      <trkpt lat="44.9435" lon="5.7627">
        <ele>916.909963</ele>
        <time>2025-07-10T14:45:22.000Z</time>
      </trkpt>
      <trkpt lat="44.94352" lon="5.76269">
        <ele>916.995672</ele>
        <time>2025-07-10T14:45:23.000Z</time>
      </trkpt>
      <trkpt lat="44.94355" lon="5.76268">
        <ele>917.089815</ele>
        <time>2025-07-10T14:45:24.000Z</time>
      </trkpt>
      <trkpt lat="44.94357" lon="5.76267">
        <ele>917.171719</ele>
        <time>2025-07-10T14:45:25.000Z</time>
      </trkpt>
      <trkpt lat="44.9436" lon="5.76266">
        <ele>917.254308</ele>
        <time>2025-07-10T14:45:26.000Z</time>
      </trkpt>
      <trkpt lat="44.94362" lon="5.76265">
        <ele>917.333078</ele>
        <time>2025-07-10T14:45:27.000Z</time>
      </trkpt>
      <trkpt lat="44.94364" lon="5.76264">
        <ele>917.41256</ele>
        <time>2025-07-10T14:45:28.000Z</time>
      </trkpt>
      <trkpt lat="44.94367" lon="5.76262">
        <ele>917.490617</ele>
        <time>2025-07-10T14:45:29.000Z</time>
      </trkpt>
      <trkpt lat="44.94369" lon="5.76261">
        <ele>917.565665</ele>
        <time>2025-07-10T14:45:30.000Z</time>
      </trkpt>
      <trkpt lat="44.94371" lon="5.7626">
        <ele>917.635916</ele>
        <time>2025-07-10T14:45:31.000Z</time>
      </trkpt>
      <trkpt lat="44.94373" lon="5.76259">
        <ele>917.713109</ele>
        <time>2025-07-10T14:45:32.000Z</time>
      </trkpt>
      <trkpt lat="44.94375" lon="5.76257">
        <ele>917.793364</ele>
        <time>2025-07-10T14:45:33.000Z</time>
      </trkpt>
      <trkpt lat="44.94377" lon="5.76256">
        <ele>917.869372</ele>
        <time>2025-07-10T14:45:34.000Z</time>
      </trkpt>
      <trkpt lat="44.94379" lon="5.76255">
        <ele>917.942432</ele>
        <time>2025-07-10T14:45:35.000Z</time>
      </trkpt>
      <trkpt lat="44.94381" lon="5.76253">
        <ele>918.01748</ele>
        <time>2025-07-10T14:45:36.000Z</time>
      </trkpt>
      <trkpt lat="44.94383" lon="5.76252">
        <ele>918.091598</ele>
        <time>2025-07-10T14:45:37.000Z</time>
      </trkpt>
      <trkpt lat="44.94385" lon="5.7625">
        <ele>918.162469</ele>
        <time>2025-07-10T14:45:38.000Z</time>
      </trkpt>
      <trkpt lat="44.94387" lon="5.76249">
        <ele>918.239494</ele>
        <time>2025-07-10T14:45:39.000Z</time>
      </trkpt>
      <trkpt lat="44.94389" lon="5.76247">
        <ele>918.307898</ele>
        <time>2025-07-10T14:45:40.000Z</time>
      </trkpt>
      <trkpt lat="44.94391" lon="5.76246">
        <ele>918.383131</ele>
        <time>2025-07-10T14:45:41.000Z</time>
      </trkpt>
      <trkpt lat="44.94393" lon="5.76244">
        <ele>918.462111</ele>
        <time>2025-07-10T14:45:42.000Z</time>
      </trkpt>
      <trkpt lat="44.94395" lon="5.76243">
        <ele>918.534512</ele>
        <time>2025-07-10T14:45:43.000Z</time>
      </trkpt>
      <trkpt lat="44.94397" lon="5.76241">
        <ele>918.606914</ele>
        <time>2025-07-10T14:45:44.000Z</time>
      </trkpt>
      <trkpt lat="44.94399" lon="5.76239">
        <ele>918.676524</ele>
        <time>2025-07-10T14:45:45.000Z</time>
      </trkpt>
      <trkpt lat="44.94401" lon="5.76238">
        <ele>918.743387</ele>
        <time>2025-07-10T14:45:46.000Z</time>
      </trkpt>
      <trkpt lat="44.94402" lon="5.76236">
        <ele>918.811802</ele>
        <time>2025-07-10T14:45:47.000Z</time>
      </trkpt>
      <trkpt lat="44.94404" lon="5.76234">
        <ele>918.874746</ele>
        <time>2025-07-10T14:45:48.000Z</time>
      </trkpt>
      <trkpt lat="44.94405" lon="5.76233">
        <ele>918.932259</ele>
        <time>2025-07-10T14:45:49.000Z</time>
      </trkpt>
      <trkpt lat="44.94406" lon="5.76231">
        <ele>918.987097</ele>
        <time>2025-07-10T14:45:50.000Z</time>
      </trkpt>
      <trkpt lat="44.94408" lon="5.7623">
        <ele>919.051261</ele>
        <time>2025-07-10T14:45:51.000Z</time>
      </trkpt>
      <trkpt lat="44.94409" lon="5.76228">
        <ele>919.114804</ele>
        <time>2025-07-10T14:45:52.000Z</time>
      </trkpt>
      <trkpt lat="44.94411" lon="5.76226">
        <ele>919.179974</ele>
        <time>2025-07-10T14:45:53.000Z</time>
      </trkpt>
      <trkpt lat="44.94413" lon="5.76224">
        <ele>919.248148</ele>
        <time>2025-07-10T14:45:54.000Z</time>
      </trkpt>
      <trkpt lat="44.94414" lon="5.76222">
        <ele>919.311092</ele>
        <time>2025-07-10T14:45:55.000Z</time>
      </trkpt>
      <trkpt lat="44.94416" lon="5.76221">
        <ele>919.375256</ele>
        <time>2025-07-10T14:45:56.000Z</time>
      </trkpt>
      <trkpt lat="44.94417" lon="5.76219">
        <ele>919.437217</ele>
        <time>2025-07-10T14:45:57.000Z</time>
      </trkpt>
      <trkpt lat="44.94419" lon="5.76217">
        <ele>919.500161</ele>
        <time>2025-07-10T14:45:58.000Z</time>
      </trkpt>
      <trkpt lat="44.9442" lon="5.76216">
        <ele>919.565767</ele>
        <time>2025-07-10T14:45:59.000Z</time>
      </trkpt>
      <trkpt lat="44.94422" lon="5.76214">
        <ele>919.628711</ele>
        <time>2025-07-10T14:46:00.000Z</time>
      </trkpt>
      <trkpt lat="44.94423" lon="5.76212">
        <ele>919.692255</ele>
        <time>2025-07-10T14:46:01.000Z</time>
      </trkpt>
      <trkpt lat="44.94425" lon="5.7621">
        <ele>919.754215</ele>
        <time>2025-07-10T14:46:02.000Z</time>
      </trkpt>
      <trkpt lat="44.94426" lon="5.76209">
        <ele>919.813157</ele>
        <time>2025-07-10T14:46:03.000Z</time>
      </trkpt>
      <trkpt lat="44.94427" lon="5.76207">
        <ele>919.876101</ele>
        <time>2025-07-10T14:46:04.000Z</time>
      </trkpt>
      <trkpt lat="44.94429" lon="5.76205">
        <ele>919.938062</ele>
        <time>2025-07-10T14:46:05.000Z</time>
      </trkpt>
      <trkpt lat="44.9443" lon="5.76203">
        <ele>920.006477</ele>
        <time>2025-07-10T14:46:06.000Z</time>
      </trkpt>
      <trkpt lat="44.94432" lon="5.76202">
        <ele>920.080024</ele>
        <time>2025-07-10T14:46:07.000Z</time>
      </trkpt>
      <trkpt lat="44.94434" lon="5.762">
        <ele>920.145967</ele>
        <time>2025-07-10T14:46:08.000Z</time>
      </trkpt>
      <trkpt lat="44.94435" lon="5.76198">
        <ele>920.20951</ele>
        <time>2025-07-10T14:46:09.000Z</time>
      </trkpt>
      <trkpt lat="44.94437" lon="5.76196">
        <ele>920.271471</ele>
        <time>2025-07-10T14:46:10.000Z</time>
      </trkpt>
      <trkpt lat="44.94438" lon="5.76194">
        <ele>920.339885</ele>
        <time>2025-07-10T14:46:11.000Z</time>
      </trkpt>
      <trkpt lat="44.9444" lon="5.76192">
        <ele>920.403428</ele>
        <time>2025-07-10T14:46:12.000Z</time>
      </trkpt>
      <trkpt lat="44.94441" lon="5.7619">
        <ele>920.464173</ele>
        <time>2025-07-10T14:46:13.000Z</time>
      </trkpt>
      <trkpt lat="44.94442" lon="5.76188">
        <ele>920.53101</ele>
        <time>2025-07-10T14:46:14.000Z</time>
      </trkpt>
      <trkpt lat="44.94443" lon="5.76186">
        <ele>920.592234</ele>
        <time>2025-07-10T14:46:15.000Z</time>
      </trkpt>
      <trkpt lat="44.94445" lon="5.76184">
        <ele>920.663006</ele>
        <time>2025-07-10T14:46:16.000Z</time>
      </trkpt>
      <trkpt lat="44.94446" lon="5.76182">
        <ele>920.731547</ele>
        <time>2025-07-10T14:46:17.000Z</time>
      </trkpt>
      <trkpt lat="44.94448" lon="5.7618">
        <ele>920.802499</ele>
        <time>2025-07-10T14:46:18.000Z</time>
      </trkpt>
      <trkpt lat="44.9445" lon="5.76177">
        <ele>920.878884</ele>
        <time>2025-07-10T14:46:19.000Z</time>
      </trkpt>
      <trkpt lat="44.94451" lon="5.76175">
        <ele>920.949656</ele>
        <time>2025-07-10T14:46:20.000Z</time>
      </trkpt>
      <trkpt lat="44.94453" lon="5.76173">
        <ele>921.011616</ele>
        <time>2025-07-10T14:46:21.000Z</time>
      </trkpt>
      <trkpt lat="44.94454" lon="5.76172">
        <ele>921.075159</ele>
        <time>2025-07-10T14:46:22.000Z</time>
      </trkpt>
      <trkpt lat="44.94456" lon="5.76169">
        <ele>921.149874</ele>
        <time>2025-07-10T14:46:23.000Z</time>
      </trkpt>
      <trkpt lat="44.94457" lon="5.76167">
        <ele>921.222955</ele>
        <time>2025-07-10T14:46:24.000Z</time>
      </trkpt>
      <trkpt lat="44.94459" lon="5.76165">
        <ele>921.294439</ele>
        <time>2025-07-10T14:46:25.000Z</time>
      </trkpt>
      <trkpt lat="44.9446" lon="5.76163">
        <ele>921.365923</ele>
        <time>2025-07-10T14:46:26.000Z</time>
      </trkpt>
      <trkpt lat="44.94462" lon="5.76161">
        <ele>921.448592</ele>
        <time>2025-07-10T14:46:27.000Z</time>
      </trkpt>
      <trkpt lat="44.94464" lon="5.76158">
        <ele>921.542148</ele>
        <time>2025-07-10T14:46:28.000Z</time>
      </trkpt>
      <trkpt lat="44.94465" lon="5.76156">
        <ele>921.626542</ele>
        <time>2025-07-10T14:46:29.000Z</time>
      </trkpt>
      <trkpt lat="44.94467" lon="5.76154">
        <ele>921.707295</ele>
        <time>2025-07-10T14:46:30.000Z</time>
      </trkpt>
      <trkpt lat="44.94469" lon="5.76152">
        <ele>921.789231</ele>
        <time>2025-07-10T14:46:31.000Z</time>
      </trkpt>
      <trkpt lat="44.9447" lon="5.7615">
        <ele>921.871782</ele>
        <time>2025-07-10T14:46:32.000Z</time>
      </trkpt>
      <trkpt lat="44.94472" lon="5.76148">
        <ele>921.956176</ele>
        <time>2025-07-10T14:46:33.000Z</time>
      </trkpt>
      <trkpt lat="44.94474" lon="5.76146">
        <ele>922.046143</ele>
        <time>2025-07-10T14:46:34.000Z</time>
      </trkpt>
      <trkpt lat="44.94475" lon="5.76143">
        <ele>922.130537</ele>
        <time>2025-07-10T14:46:35.000Z</time>
      </trkpt>
      <trkpt lat="44.94477" lon="5.76141">
        <ele>922.205795</ele>
        <time>2025-07-10T14:46:36.000Z</time>
      </trkpt>
      <trkpt lat="44.94478" lon="5.76139">
        <ele>922.28947</ele>
        <time>2025-07-10T14:46:37.000Z</time>
      </trkpt>
      <trkpt lat="44.9448" lon="5.76137">
        <ele>922.375752</ele>
        <time>2025-07-10T14:46:38.000Z</time>
      </trkpt>
      <trkpt lat="44.94481" lon="5.76135">
        <ele>922.455575</ele>
        <time>2025-07-10T14:46:39.000Z</time>
      </trkpt>
      <trkpt lat="44.94483" lon="5.76133">
        <ele>922.538125</ele>
        <time>2025-07-10T14:46:40.000Z</time>
      </trkpt>
      <trkpt lat="44.94484" lon="5.76131">
        <ele>922.616088</ele>
        <time>2025-07-10T14:46:41.000Z</time>
      </trkpt>
      <trkpt lat="44.94486" lon="5.76129">
        <ele>922.695093</ele>
        <time>2025-07-10T14:46:42.000Z</time>
      </trkpt>
      <trkpt lat="44.94488" lon="5.76127">
        <ele>922.772405</ele>
        <time>2025-07-10T14:46:43.000Z</time>
      </trkpt>
      <trkpt lat="44.94489" lon="5.76125">
        <ele>922.857764</ele>
        <time>2025-07-10T14:46:44.000Z</time>
      </trkpt>
      <trkpt lat="44.94491" lon="5.76123">
        <ele>922.937586</ele>
        <time>2025-07-10T14:46:45.000Z</time>
      </trkpt>
      <trkpt lat="44.94492" lon="5.76121">
        <ele>923.020137</ele>
        <time>2025-07-10T14:46:46.000Z</time>
      </trkpt>
      <trkpt lat="44.94494" lon="5.76119">
        <ele>923.102687</ele>
        <time>2025-07-10T14:46:47.000Z</time>
      </trkpt>
      <trkpt lat="44.94495" lon="5.76117">
        <ele>923.177945</ele>
        <time>2025-07-10T14:46:48.000Z</time>
      </trkpt>
      <trkpt lat="44.94497" lon="5.76115">
        <ele>923.254096</ele>
        <time>2025-07-10T14:46:49.000Z</time>
      </trkpt>
      <trkpt lat="44.94498" lon="5.76113">
        <ele>923.330247</ele>
        <time>2025-07-10T14:46:50.000Z</time>
      </trkpt>
      <trkpt lat="44.945" lon="5.76111">
        <ele>923.405505</ele>
        <time>2025-07-10T14:46:51.000Z</time>
      </trkpt>
      <trkpt lat="44.94501" lon="5.76109">
        <ele>923.478885</ele>
        <time>2025-07-10T14:46:52.000Z</time>
      </trkpt>
      <trkpt lat="44.94503" lon="5.76107">
        <ele>923.557891</ele>
        <time>2025-07-10T14:46:53.000Z</time>
      </trkpt>
      <trkpt lat="44.94504" lon="5.76105">
        <ele>923.640441</ele>
        <time>2025-07-10T14:46:54.000Z</time>
      </trkpt>
      <trkpt lat="44.94506" lon="5.76103">
        <ele>923.720264</ele>
        <time>2025-07-10T14:46:55.000Z</time>
      </trkpt>
      <trkpt lat="44.94507" lon="5.76101">
        <ele>923.800086</ele>
        <time>2025-07-10T14:46:56.000Z</time>
      </trkpt>
      <trkpt lat="44.94509" lon="5.76099">
        <ele>923.883708</ele>
        <time>2025-07-10T14:46:57.000Z</time>
      </trkpt>
      <trkpt lat="44.94511" lon="5.76097">
        <ele>923.959859</ele>
        <time>2025-07-10T14:46:58.000Z</time>
      </trkpt>
      <trkpt lat="44.94512" lon="5.76095">
        <ele>924.033956</ele>
        <time>2025-07-10T14:46:59.000Z</time>
      </trkpt>
      <trkpt lat="44.94514" lon="5.76093">
        <ele>924.110106</ele>
        <time>2025-07-10T14:47:00.000Z</time>
      </trkpt>
      <trkpt lat="44.94515" lon="5.76091">
        <ele>924.192042</ele>
        <time>2025-07-10T14:47:01.000Z</time>
      </trkpt>
      <trkpt lat="44.94517" lon="5.76089">
        <ele>924.275664</ele>
        <time>2025-07-10T14:47:02.000Z</time>
      </trkpt>
      <trkpt lat="44.94519" lon="5.76087">
        <ele>924.36563</ele>
        <time>2025-07-10T14:47:03.000Z</time>
      </trkpt>
      <trkpt lat="44.94521" lon="5.76085">
        <ele>924.450024</ele>
        <time>2025-07-10T14:47:04.000Z</time>
      </trkpt>
      <trkpt lat="44.94522" lon="5.76083">
        <ele>924.53196</ele>
        <time>2025-07-10T14:47:05.000Z</time>
      </trkpt>
      <trkpt lat="44.94524" lon="5.76081">
        <ele>924.612713</ele>
        <time>2025-07-10T14:47:06.000Z</time>
      </trkpt>
      <trkpt lat="44.94525" lon="5.76079">
        <ele>924.697107</ele>
        <time>2025-07-10T14:47:07.000Z</time>
      </trkpt>
      <trkpt lat="44.94527" lon="5.76077">
        <ele>924.778834</ele>
        <time>2025-07-10T14:47:08.000Z</time>
      </trkpt>
      <trkpt lat="44.94529" lon="5.76075">
        <ele>924.85784</ele>
        <time>2025-07-10T14:47:09.000Z</time>
      </trkpt>
      <trkpt lat="44.9453" lon="5.76073">
        <ele>924.929392</ele>
        <time>2025-07-10T14:47:10.000Z</time>
      </trkpt>
      <trkpt lat="44.94531" lon="5.76071">
        <ele>925.003784</ele>
        <time>2025-07-10T14:47:11.000Z</time>
      </trkpt>
      <trkpt lat="44.94533" lon="5.76069">
        <ele>925.068019</ele>
        <time>2025-07-10T14:47:12.000Z</time>
      </trkpt>
      <trkpt lat="44.94534" lon="5.76068">
        <ele>925.141399</ele>
        <time>2025-07-10T14:47:13.000Z</time>
      </trkpt>
      <trkpt lat="44.94535" lon="5.76065">
        <ele>925.220551</ele>
        <time>2025-07-10T14:47:14.000Z</time>
      </trkpt>
      <trkpt lat="44.94537" lon="5.76063">
        <ele>925.304944</ele>
        <time>2025-07-10T14:47:15.000Z</time>
      </trkpt>
      <trkpt lat="44.94539" lon="5.76061">
        <ele>925.382907</ele>
        <time>2025-07-10T14:47:16.000Z</time>
      </trkpt>
      <trkpt lat="44.9454" lon="5.76059">
        <ele>925.465457</ele>
        <time>2025-07-10T14:47:17.000Z</time>
      </trkpt>
      <trkpt lat="44.94542" lon="5.76057">
        <ele>925.545279</ele>
        <time>2025-07-10T14:47:18.000Z</time>
      </trkpt>
      <trkpt lat="44.94543" lon="5.76055">
        <ele>925.620537</ele>
        <time>2025-07-10T14:47:19.000Z</time>
      </trkpt>
      <trkpt lat="44.94544" lon="5.76053">
        <ele>925.695179</ele>
        <time>2025-07-10T14:47:20.000Z</time>
      </trkpt>
      <trkpt lat="44.94546" lon="5.76051">
        <ele>925.776339</ele>
        <time>2025-07-10T14:47:21.000Z</time>
      </trkpt>
      <trkpt lat="44.94547" lon="5.76048">
        <ele>925.8575</ele>
        <time>2025-07-10T14:47:22.000Z</time>
      </trkpt>
      <trkpt lat="44.94548" lon="5.76046">
        <ele>925.932142</ele>
        <time>2025-07-10T14:47:23.000Z</time>
      </trkpt>
      <trkpt lat="44.9455" lon="5.76044">
        <ele>926.010899</ele>
        <time>2025-07-10T14:47:24.000Z</time>
      </trkpt>
      <trkpt lat="44.9455" lon="5.76041">
        <ele>926.093174</ele>
        <time>2025-07-10T14:47:25.000Z</time>
      </trkpt>
      <trkpt lat="44.94552" lon="5.76038">
        <ele>926.17399</ele>
        <time>2025-07-10T14:47:26.000Z</time>
      </trkpt>
      <trkpt lat="44.94553" lon="5.76036">
        <ele>926.257197</ele>
        <time>2025-07-10T14:47:27.000Z</time>
      </trkpt>
      <trkpt lat="44.94554" lon="5.76033">
        <ele>926.340241</ele>
        <time>2025-07-10T14:47:28.000Z</time>
      </trkpt>
      <trkpt lat="44.94555" lon="5.7603">
        <ele>926.428268</ele>
        <time>2025-07-10T14:47:29.000Z</time>
      </trkpt>
      <trkpt lat="44.94556" lon="5.76027">
        <ele>926.514038</ele>
        <time>2025-07-10T14:47:30.000Z</time>
      </trkpt>
      <trkpt lat="44.94557" lon="5.76024">
        <ele>926.602317</ele>
        <time>2025-07-10T14:47:31.000Z</time>
      </trkpt>
      <trkpt lat="44.94558" lon="5.76021">
        <ele>926.694442</ele>
        <time>2025-07-10T14:47:32.000Z</time>
      </trkpt>
      <trkpt lat="44.94559" lon="5.76018">
        <ele>926.792033</ele>
        <time>2025-07-10T14:47:33.000Z</time>
      </trkpt>
      <trkpt lat="44.9456" lon="5.76015">
        <ele>926.88892</ele>
        <time>2025-07-10T14:47:34.000Z</time>
      </trkpt>
      <trkpt lat="44.94561" lon="5.76011">
        <ele>926.98818</ele>
        <time>2025-07-10T14:47:35.000Z</time>
      </trkpt>
      <trkpt lat="44.94563" lon="5.76008">
        <ele>927.091569</ele>
        <time>2025-07-10T14:47:36.000Z</time>
      </trkpt>
      <trkpt lat="44.94564" lon="5.76005">
        <ele>927.192218</ele>
        <time>2025-07-10T14:47:37.000Z</time>
      </trkpt>
      <trkpt lat="44.94565" lon="5.76002">
        <ele>927.28862</ele>
        <time>2025-07-10T14:47:38.000Z</time>
      </trkpt>
      <trkpt lat="44.94566" lon="5.75998">
        <ele>927.388637</ele>
        <time>2025-07-10T14:47:39.000Z</time>
      </trkpt>
      <trkpt lat="44.94567" lon="5.75995">
        <ele>927.483254</ele>
        <time>2025-07-10T14:47:40.000Z</time>
      </trkpt>
      <trkpt lat="44.94568" lon="5.75992">
        <ele>927.571972</ele>
        <time>2025-07-10T14:47:41.000Z</time>
      </trkpt>
      <trkpt lat="44.94569" lon="5.75989">
        <ele>927.66069</ele>
        <time>2025-07-10T14:47:42.000Z</time>
      </trkpt>
      <trkpt lat="44.9457" lon="5.75986">
        <ele>927.750334</ele>
        <time>2025-07-10T14:47:43.000Z</time>
      </trkpt>
      <trkpt lat="44.94571" lon="5.75983">
        <ele>927.843111</ele>
        <time>2025-07-10T14:47:44.000Z</time>
      </trkpt>
      <trkpt lat="44.94572" lon="5.7598">
        <ele>927.930286</ele>
        <time>2025-07-10T14:47:45.000Z</time>
      </trkpt>
      <trkpt lat="44.94573" lon="5.75977">
        <ele>928.023063</ele>
        <time>2025-07-10T14:47:46.000Z</time>
      </trkpt>
      <trkpt lat="44.94574" lon="5.75974">
        <ele>928.113457</ele>
        <time>2025-07-10T14:47:47.000Z</time>
      </trkpt>
      <trkpt lat="44.94576" lon="5.75971">
        <ele>928.210886</ele>
        <time>2025-07-10T14:47:48.000Z</time>
      </trkpt>
      <trkpt lat="44.94577" lon="5.75968">
        <ele>928.32639</ele>
        <time>2025-07-10T14:47:49.000Z</time>
      </trkpt>
      <trkpt lat="44.94578" lon="5.75965">
        <ele>928.423777</ele>
        <time>2025-07-10T14:47:50.000Z</time>
      </trkpt>
      <trkpt lat="44.94579" lon="5.75962">
        <ele>928.529306</ele>
        <time>2025-07-10T14:47:51.000Z</time>
      </trkpt>
      <trkpt lat="44.9458" lon="5.7596">
        <ele>928.634131</ele>
        <time>2025-07-10T14:47:52.000Z</time>
      </trkpt>
      <trkpt lat="44.94581" lon="5.75957">
        <ele>928.736053</ele>
        <time>2025-07-10T14:47:53.000Z</time>
      </trkpt>
      <trkpt lat="44.94583" lon="5.75954">
        <ele>928.848673</ele>
        <time>2025-07-10T14:47:54.000Z</time>
      </trkpt>
      <trkpt lat="44.94584" lon="5.75952">
        <ele>928.947723</ele>
        <time>2025-07-10T14:47:55.000Z</time>
      </trkpt>
      <trkpt lat="44.94585" lon="5.75949">
        <ele>929.046772</ele>
        <time>2025-07-10T14:47:56.000Z</time>
      </trkpt>
      <trkpt lat="44.94586" lon="5.75947">
        <ele>929.148412</ele>
        <time>2025-07-10T14:47:57.000Z</time>
      </trkpt>
      <trkpt lat="44.94587" lon="5.75944">
        <ele>929.250052</ele>
        <time>2025-07-10T14:47:58.000Z</time>
      </trkpt>
      <trkpt lat="44.94589" lon="5.75942">
        <ele>929.349091</ele>
        <time>2025-07-10T14:47:59.000Z</time>
      </trkpt>
      <trkpt lat="44.9459" lon="5.7594">
        <ele>929.445523</ele>
        <time>2025-07-10T14:48:00.000Z</time>
      </trkpt>
      <trkpt lat="44.94591" lon="5.75938">
        <ele>929.536892</ele>
        <time>2025-07-10T14:48:01.000Z</time>
      </trkpt>
      <trkpt lat="44.94592" lon="5.75936">
        <ele>929.627707</ele>
        <time>2025-07-10T14:48:02.000Z</time>
      </trkpt>
      <trkpt lat="44.94594" lon="5.75934">
        <ele>929.731527</ele>
        <time>2025-07-10T14:48:03.000Z</time>
      </trkpt>
      <trkpt lat="44.94596" lon="5.75932">
        <ele>929.837667</ele>
        <time>2025-07-10T14:48:04.000Z</time>
      </trkpt>
      <trkpt lat="44.94597" lon="5.75929">
        <ele>929.945019</ele>
        <time>2025-07-10T14:48:05.000Z</time>
      </trkpt>
      <trkpt lat="44.94599" lon="5.75927">
        <ele>930.044565</ele>
        <time>2025-07-10T14:48:06.000Z</time>
      </trkpt>
      <trkpt lat="44.946" lon="5.75925">
        <ele>930.15554</ele>
        <time>2025-07-10T14:48:07.000Z</time>
      </trkpt>
      <trkpt lat="44.94602" lon="5.75923">
        <ele>930.254903</ele>
        <time>2025-07-10T14:48:08.000Z</time>
      </trkpt>
      <trkpt lat="44.94604" lon="5.75921">
        <ele>930.367635</ele>
        <time>2025-07-10T14:48:09.000Z</time>
      </trkpt>
      <trkpt lat="44.94606" lon="5.7592">
        <ele>930.484405</ele>
        <time>2025-07-10T14:48:10.000Z</time>
      </trkpt>
      <trkpt lat="44.94608" lon="5.75918">
        <ele>930.595366</ele>
        <time>2025-07-10T14:48:11.000Z</time>
      </trkpt>
      <trkpt lat="44.9461" lon="5.75916">
        <ele>930.698837</ele>
        <time>2025-07-10T14:48:12.000Z</time>
      </trkpt>
      <trkpt lat="44.94612" lon="5.75915">
        <ele>930.804947</ele>
        <time>2025-07-10T14:48:13.000Z</time>
      </trkpt>
      <trkpt lat="44.94614" lon="5.75914">
        <ele>930.900231</ele>
        <time>2025-07-10T14:48:14.000Z</time>
      </trkpt>
      <trkpt lat="44.94615" lon="5.75912">
        <ele>930.993776</ele>
        <time>2025-07-10T14:48:15.000Z</time>
      </trkpt>
      <trkpt lat="44.94617" lon="5.75911">
        <ele>931.085672</ele>
        <time>2025-07-10T14:48:16.000Z</time>
      </trkpt>
      <trkpt lat="44.94619" lon="5.7591">
        <ele>931.176016</ele>
        <time>2025-07-10T14:48:17.000Z</time>
      </trkpt>
      <trkpt lat="44.94621" lon="5.75909">
        <ele>931.272406</ele>
        <time>2025-07-10T14:48:18.000Z</time>
      </trkpt>
      <trkpt lat="44.94623" lon="5.75907">
        <ele>931.375705</ele>
        <time>2025-07-10T14:48:19.000Z</time>
      </trkpt>
      <trkpt lat="44.94625" lon="5.75906">
        <ele>931.482179</ele>
        <time>2025-07-10T14:48:20.000Z</time>
      </trkpt>
      <trkpt lat="44.94627" lon="5.75905">
        <ele>931.588654</ele>
        <time>2025-07-10T14:48:21.000Z</time>
      </trkpt>
      <trkpt lat="44.94629" lon="5.75904">
        <ele>931.690526</ele>
        <time>2025-07-10T14:48:22.000Z</time>
      </trkpt>
      <trkpt lat="44.94631" lon="5.75903">
        <ele>931.802638</ele>
        <time>2025-07-10T14:48:23.000Z</time>
      </trkpt>
      <trkpt lat="44.94633" lon="5.75902">
        <ele>931.895985</ele>
        <time>2025-07-10T14:48:24.000Z</time>
      </trkpt>
      <trkpt lat="44.94635" lon="5.75901">
        <ele>932.001337</ele>
        <time>2025-07-10T14:48:25.000Z</time>
      </trkpt>
      <trkpt lat="44.94637" lon="5.759">
        <ele>932.107812</ele>
        <time>2025-07-10T14:48:26.000Z</time>
      </trkpt>
      <trkpt lat="44.94639" lon="5.75899">
        <ele>932.198585</ele>
        <time>2025-07-10T14:48:27.000Z</time>
      </trkpt>
      <trkpt lat="44.94641" lon="5.75898">
        <ele>932.303244</ele>
        <time>2025-07-10T14:48:28.000Z</time>
      </trkpt>
      <trkpt lat="44.94643" lon="5.75897">
        <ele>932.404103</ele>
        <time>2025-07-10T14:48:29.000Z</time>
      </trkpt>
      <trkpt lat="44.94645" lon="5.75896">
        <ele>932.504962</ele>
        <time>2025-07-10T14:48:30.000Z</time>
      </trkpt>
      <trkpt lat="44.94647" lon="5.75895">
        <ele>932.607537</ele>
        <time>2025-07-10T14:48:31.000Z</time>
      </trkpt>
      <trkpt lat="44.94649" lon="5.75894">
        <ele>932.694748</ele>
        <time>2025-07-10T14:48:32.000Z</time>
      </trkpt>
      <trkpt lat="44.94651" lon="5.75894">
        <ele>932.787303</ele>
        <time>2025-07-10T14:48:33.000Z</time>
      </trkpt>
      <trkpt lat="44.94653" lon="5.75893">
        <ele>932.889878</ele>
        <time>2025-07-10T14:48:34.000Z</time>
      </trkpt>
      <trkpt lat="44.94655" lon="5.75892">
        <ele>932.978633</ele>
        <time>2025-07-10T14:48:35.000Z</time>
      </trkpt>
      <trkpt lat="44.94657" lon="5.75892">
        <ele>933.072885</ele>
        <time>2025-07-10T14:48:36.000Z</time>
      </trkpt>
      <trkpt lat="44.94658" lon="5.75891">
        <ele>933.167137</ele>
        <time>2025-07-10T14:48:37.000Z</time>
      </trkpt>
      <trkpt lat="44.9466" lon="5.7589">
        <ele>933.255892</ele>
        <time>2025-07-10T14:48:38.000Z</time>
      </trkpt>
      <trkpt lat="44.94662" lon="5.7589">
        <ele>933.33459</ele>
        <time>2025-07-10T14:48:39.000Z</time>
      </trkpt>
      <trkpt lat="44.94664" lon="5.75889">
        <ele>933.423345</ele>
        <time>2025-07-10T14:48:40.000Z</time>
      </trkpt>
      <trkpt lat="44.94666" lon="5.75888">
        <ele>933.519735</ele>
        <time>2025-07-10T14:48:41.000Z</time>
      </trkpt>
      <trkpt lat="44.94667" lon="5.75887">
        <ele>933.613987</ele>
        <time>2025-07-10T14:48:42.000Z</time>
      </trkpt>
      <trkpt lat="44.94669" lon="5.75886">
        <ele>933.711941</ele>
        <time>2025-07-10T14:48:43.000Z</time>
      </trkpt>
      <trkpt lat="44.94671" lon="5.75886">
        <ele>933.80726</ele>
        <time>2025-07-10T14:48:44.000Z</time>
      </trkpt>
      <trkpt lat="44.94673" lon="5.75886">
        <ele>933.898149</ele>
        <time>2025-07-10T14:48:45.000Z</time>
      </trkpt>
      <trkpt lat="44.94675" lon="5.75886">
        <ele>933.989037</ele>
        <time>2025-07-10T14:48:46.000Z</time>
      </trkpt>
      <trkpt lat="44.94677" lon="5.75885">
        <ele>934.095557</ele>
        <time>2025-07-10T14:48:47.000Z</time>
      </trkpt>
      <trkpt lat="44.9468" lon="5.75885">
        <ele>934.205725</ele>
        <time>2025-07-10T14:48:48.000Z</time>
      </trkpt>
      <trkpt lat="44.94682" lon="5.75884">
        <ele>934.312932</ele>
        <time>2025-07-10T14:48:49.000Z</time>
      </trkpt>
      <trkpt lat="44.94684" lon="5.75883">
        <ele>934.4228</ele>
        <time>2025-07-10T14:48:50.000Z</time>
      </trkpt>
      <trkpt lat="44.94686" lon="5.75882">
        <ele>934.5262</ele>
        <time>2025-07-10T14:48:51.000Z</time>
      </trkpt>
      <trkpt lat="44.94688" lon="5.75882">
        <ele>934.627442</ele>
        <time>2025-07-10T14:48:52.000Z</time>
      </trkpt>
      <trkpt lat="44.94691" lon="5.75881">
        <ele>934.738071</ele>
        <time>2025-07-10T14:48:53.000Z</time>
      </trkpt>
      <trkpt lat="44.94693" lon="5.7588">
        <ele>934.846068</ele>
        <time>2025-07-10T14:48:54.000Z</time>
      </trkpt>
      <trkpt lat="44.94695" lon="5.7588">
        <ele>934.947311</ele>
        <time>2025-07-10T14:48:55.000Z</time>
      </trkpt>
      <trkpt lat="44.94697" lon="5.75879">
        <ele>935.044511</ele>
        <time>2025-07-10T14:48:56.000Z</time>
      </trkpt>
      <trkpt lat="44.94699" lon="5.75879">
        <ele>935.146366</ele>
        <time>2025-07-10T14:48:57.000Z</time>
      </trkpt>
      <trkpt lat="44.94701" lon="5.75878">
        <ele>935.255251</ele>
        <time>2025-07-10T14:48:58.000Z</time>
      </trkpt>
      <trkpt lat="44.94703" lon="5.75877">
        <ele>935.359577</ele>
        <time>2025-07-10T14:48:59.000Z</time>
      </trkpt>
      <trkpt lat="44.94706" lon="5.75876">
        <ele>935.469445</ele>
        <time>2025-07-10T14:49:00.000Z</time>
      </trkpt>
      <trkpt lat="44.94708" lon="5.75875">
        <ele>935.578329</ele>
        <time>2025-07-10T14:49:01.000Z</time>
      </trkpt>
      <trkpt lat="44.9471" lon="5.75874">
        <ele>935.678115</ele>
        <time>2025-07-10T14:49:02.000Z</time>
      </trkpt>
      <trkpt lat="44.94712" lon="5.75873">
        <ele>935.791574</ele>
        <time>2025-07-10T14:49:03.000Z</time>
      </trkpt>
      <trkpt lat="44.94714" lon="5.75872">
        <ele>935.899571</ele>
        <time>2025-07-10T14:49:04.000Z</time>
      </trkpt>
      <trkpt lat="44.94717" lon="5.75871">
        <ele>936.012178</ele>
        <time>2025-07-10T14:49:05.000Z</time>
      </trkpt>
      <trkpt lat="44.94719" lon="5.75871">
        <ele>936.120175</ele>
        <time>2025-07-10T14:49:06.000Z</time>
      </trkpt>
      <trkpt lat="44.94721" lon="5.7587">
        <ele>936.233634</ele>
        <time>2025-07-10T14:49:07.000Z</time>
      </trkpt>
      <trkpt lat="44.94723" lon="5.75869">
        <ele>936.341631</ele>
        <time>2025-07-10T14:49:08.000Z</time>
      </trkpt>
      <trkpt lat="44.94725" lon="5.75868">
        <ele>936.447564</ele>
        <time>2025-07-10T14:49:09.000Z</time>
      </trkpt>
      <trkpt lat="44.94728" lon="5.75868">
        <ele>936.553015</ele>
        <time>2025-07-10T14:49:10.000Z</time>
      </trkpt>
      <trkpt lat="44.9473" lon="5.75867">
        <ele>936.660223</ele>
        <time>2025-07-10T14:49:11.000Z</time>
      </trkpt>
      <trkpt lat="44.94732" lon="5.75867">
        <ele>936.757794</ele>
        <time>2025-07-10T14:49:12.000Z</time>
      </trkpt>
      <trkpt lat="44.94734" lon="5.75866">
        <ele>936.85651</ele>
        <time>2025-07-10T14:49:13.000Z</time>
      </trkpt>
      <trkpt lat="44.94736" lon="5.75865">
        <ele>936.951024</ele>
        <time>2025-07-10T14:49:14.000Z</time>
      </trkpt>
      <trkpt lat="44.94738" lon="5.75864">
        <ele>937.048348</ele>
        <time>2025-07-10T14:49:15.000Z</time>
      </trkpt>
      <trkpt lat="44.9474" lon="5.75863">
        <ele>937.140084</ele>
        <time>2025-07-10T14:49:16.000Z</time>
      </trkpt>
      <trkpt lat="44.94742" lon="5.75862">
        <ele>937.236382</ele>
        <time>2025-07-10T14:49:17.000Z</time>
      </trkpt>
      <trkpt lat="44.94744" lon="5.75861">
        <ele>937.334377</ele>
        <time>2025-07-10T14:49:18.000Z</time>
      </trkpt>
      <trkpt lat="44.94747" lon="5.7586">
        <ele>937.433093</ele>
        <time>2025-07-10T14:49:19.000Z</time>
      </trkpt>
      <trkpt lat="44.94749" lon="5.75859">
        <ele>937.531809</ele>
        <time>2025-07-10T14:49:20.000Z</time>
      </trkpt>
      <trkpt lat="44.94751" lon="5.75858">
        <ele>937.62302</ele>
        <time>2025-07-10T14:49:21.000Z</time>
      </trkpt>
      <trkpt lat="44.94753" lon="5.75858">
        <ele>937.713346</ele>
        <time>2025-07-10T14:49:22.000Z</time>
      </trkpt>
      <trkpt lat="44.94755" lon="5.75857">
        <ele>937.809735</ele>
        <time>2025-07-10T14:49:23.000Z</time>
      </trkpt>
      <trkpt lat="44.94757" lon="5.75857">
        <ele>937.901815</ele>
        <time>2025-07-10T14:49:24.000Z</time>
      </trkpt>
      <trkpt lat="44.94759" lon="5.75856">
        <ele>938.004054</ele>
        <time>2025-07-10T14:49:25.000Z</time>
      </trkpt>
      <trkpt lat="44.94762" lon="5.75855">
        <ele>938.106292</ele>
        <time>2025-07-10T14:49:26.000Z</time>
      </trkpt>
      <trkpt lat="44.94764" lon="5.75855">
        <ele>938.205008</ele>
        <time>2025-07-10T14:49:27.000Z</time>
      </trkpt>
      <trkpt lat="44.94766" lon="5.75854">
        <ele>938.308716</ele>
        <time>2025-07-10T14:49:28.000Z</time>
      </trkpt>
      <trkpt lat="44.94768" lon="5.75853">
        <ele>938.407432</ele>
        <time>2025-07-10T14:49:29.000Z</time>
      </trkpt>
      <trkpt lat="44.94771" lon="5.75852">
        <ele>938.506149</ele>
        <time>2025-07-10T14:49:30.000Z</time>
      </trkpt>
      <trkpt lat="44.94773" lon="5.75851">
        <ele>938.604143</ele>
        <time>2025-07-10T14:49:31.000Z</time>
      </trkpt>
      <trkpt lat="44.94775" lon="5.75851">
        <ele>938.698657</ele>
        <time>2025-07-10T14:49:32.000Z</time>
      </trkpt>
      <trkpt lat="44.94777" lon="5.7585">
        <ele>938.793171</ele>
        <time>2025-07-10T14:49:33.000Z</time>
      </trkpt>
      <trkpt lat="44.94779" lon="5.75849">
        <ele>938.887685</ele>
        <time>2025-07-10T14:49:34.000Z</time>
      </trkpt>
      <trkpt lat="44.94781" lon="5.75848">
        <ele>938.98568</ele>
        <time>2025-07-10T14:49:35.000Z</time>
      </trkpt>
      <trkpt lat="44.94784" lon="5.75848">
        <ele>939.083674</ele>
        <time>2025-07-10T14:49:36.000Z</time>
      </trkpt>
      <trkpt lat="44.94786" lon="5.75847">
        <ele>939.179973</ele>
        <time>2025-07-10T14:49:37.000Z</time>
      </trkpt>
      <trkpt lat="44.94788" lon="5.75846">
        <ele>939.2795</ele>
        <time>2025-07-10T14:49:38.000Z</time>
      </trkpt>
      <trkpt lat="44.9479" lon="5.75845">
        <ele>939.378216</ele>
        <time>2025-07-10T14:49:39.000Z</time>
      </trkpt>
      <trkpt lat="44.94792" lon="5.75844">
        <ele>939.462264</ele>
        <time>2025-07-10T14:49:40.000Z</time>
      </trkpt>
      <trkpt lat="44.94794" lon="5.75843">
        <ele>939.560699</ele>
        <time>2025-07-10T14:49:41.000Z</time>
      </trkpt>
      <trkpt lat="44.94796" lon="5.75841">
        <ele>939.668346</ele>
        <time>2025-07-10T14:49:42.000Z</time>
      </trkpt>
      <trkpt lat="44.94798" lon="5.7584">
        <ele>939.770823</ele>
        <time>2025-07-10T14:49:43.000Z</time>
      </trkpt>
      <trkpt lat="44.94801" lon="5.75839">
        <ele>939.867121</ele>
        <time>2025-07-10T14:49:44.000Z</time>
      </trkpt>
      <trkpt lat="44.94803" lon="5.75838">
        <ele>939.96342</ele>
        <time>2025-07-10T14:49:45.000Z</time>
      </trkpt>
      <trkpt lat="44.94805" lon="5.75837">
        <ele>940.060744</ele>
        <time>2025-07-10T14:49:46.000Z</time>
      </trkpt>
      <trkpt lat="44.94807" lon="5.75836">
        <ele>940.151955</ele>
        <time>2025-07-10T14:49:47.000Z</time>
      </trkpt>
      <trkpt lat="44.94809" lon="5.75835">
        <ele>940.240061</ele>
        <time>2025-07-10T14:49:48.000Z</time>
      </trkpt>
      <trkpt lat="44.9481" lon="5.75834">
        <ele>940.324109</ele>
        <time>2025-07-10T14:49:49.000Z</time>
      </trkpt>
      <trkpt lat="44.94812" lon="5.75833">
        <ele>940.410597</ele>
        <time>2025-07-10T14:49:50.000Z</time>
      </trkpt>
      <trkpt lat="44.94814" lon="5.75832">
        <ele>940.499824</ele>
        <time>2025-07-10T14:49:51.000Z</time>
      </trkpt>
      <trkpt lat="44.94816" lon="5.75831">
        <ele>940.602301</ele>
        <time>2025-07-10T14:49:52.000Z</time>
      </trkpt>
      <trkpt lat="44.94818" lon="5.75829">
        <ele>940.696722</ele>
        <time>2025-07-10T14:49:53.000Z</time>
      </trkpt>
      <trkpt lat="44.9482" lon="5.75828">
        <ele>940.792387</ele>
        <time>2025-07-10T14:49:54.000Z</time>
      </trkpt>
      <trkpt lat="44.94823" lon="5.75827">
        <ele>940.902466</ele>
        <time>2025-07-10T14:49:55.000Z</time>
      </trkpt>
      <trkpt lat="44.94825" lon="5.75825">
        <ele>941.017784</ele>
        <time>2025-07-10T14:49:56.000Z</time>
      </trkpt>
      <trkpt lat="44.94827" lon="5.75824">
        <ele>941.131823</ele>
        <time>2025-07-10T14:49:57.000Z</time>
      </trkpt>
      <trkpt lat="44.9483" lon="5.75822">
        <ele>941.241902</ele>
        <time>2025-07-10T14:49:58.000Z</time>
      </trkpt>
      <trkpt lat="44.94832" lon="5.75821">
        <ele>941.338893</ele>
        <time>2025-07-10T14:49:59.000Z</time>
      </trkpt>
      <trkpt lat="44.94834" lon="5.75819">
        <ele>941.439796</ele>
        <time>2025-07-10T14:50:00.000Z</time>
      </trkpt>
      <trkpt lat="44.94836" lon="5.75818">
        <ele>941.540699</ele>
        <time>2025-07-10T14:50:01.000Z</time>
      </trkpt>
      <trkpt lat="44.94838" lon="5.75816">
        <ele>941.640572</ele>
        <time>2025-07-10T14:50:02.000Z</time>
      </trkpt>
      <trkpt lat="44.9484" lon="5.75815">
        <ele>941.744249</ele>
        <time>2025-07-10T14:50:03.000Z</time>
      </trkpt>
      <trkpt lat="44.94842" lon="5.75813">
        <ele>941.846502</ele>
        <time>2025-07-10T14:50:04.000Z</time>
      </trkpt>
      <trkpt lat="44.94844" lon="5.75812">
        <ele>941.947405</ele>
        <time>2025-07-10T14:50:05.000Z</time>
      </trkpt>
      <trkpt lat="44.94846" lon="5.75811">
        <ele>942.041826</ele>
        <time>2025-07-10T14:50:06.000Z</time>
      </trkpt>
      <trkpt lat="44.94848" lon="5.75809">
        <ele>942.143236</ele>
        <time>2025-07-10T14:50:07.000Z</time>
      </trkpt>
      <trkpt lat="44.9485" lon="5.75808">
        <ele>942.236498</ele>
        <time>2025-07-10T14:50:08.000Z</time>
      </trkpt>
      <trkpt lat="44.94852" lon="5.75807">
        <ele>942.324342</ele>
        <time>2025-07-10T14:50:09.000Z</time>
      </trkpt>
      <trkpt lat="44.94854" lon="5.75806">
        <ele>942.421333</ele>
        <time>2025-07-10T14:50:10.000Z</time>
      </trkpt>
      <trkpt lat="44.94856" lon="5.75804">
        <ele>942.520962</ele>
        <time>2025-07-10T14:50:11.000Z</time>
      </trkpt>
      <trkpt lat="44.94859" lon="5.75803">
        <ele>942.628484</ele>
        <time>2025-07-10T14:50:12.000Z</time>
      </trkpt>
      <trkpt lat="44.94861" lon="5.75801">
        <ele>942.732161</ele>
        <time>2025-07-10T14:50:13.000Z</time>
      </trkpt>
      <trkpt lat="44.94863" lon="5.758">
        <ele>942.833064</ele>
        <time>2025-07-10T14:50:14.000Z</time>
      </trkpt>
      <trkpt lat="44.94865" lon="5.75798">
        <ele>942.928728</ele>
        <time>2025-07-10T14:50:15.000Z</time>
      </trkpt>
      <trkpt lat="44.94867" lon="5.75797">
        <ele>943.023149</ele>
        <time>2025-07-10T14:50:16.000Z</time>
      </trkpt>
      <trkpt lat="44.94869" lon="5.75796">
        <ele>943.12014</ele>
        <time>2025-07-10T14:50:17.000Z</time>
      </trkpt>
      <trkpt lat="44.94871" lon="5.75795">
        <ele>943.215805</ele>
        <time>2025-07-10T14:50:18.000Z</time>
      </trkpt>
      <trkpt lat="44.94873" lon="5.75793">
        <ele>943.315434</ele>
        <time>2025-07-10T14:50:19.000Z</time>
      </trkpt>
      <trkpt lat="44.94875" lon="5.75792">
        <ele>943.411732</ele>
        <time>2025-07-10T14:50:20.000Z</time>
      </trkpt>
      <trkpt lat="44.94877" lon="5.75791">
        <ele>943.508031</ele>
        <time>2025-07-10T14:50:21.000Z</time>
      </trkpt>
      <trkpt lat="44.94879" lon="5.7579">
        <ele>943.603696</ele>
        <time>2025-07-10T14:50:22.000Z</time>
      </trkpt>
      <trkpt lat="44.94881" lon="5.75789">
        <ele>943.703325</ele>
        <time>2025-07-10T14:50:23.000Z</time>
      </trkpt>
      <trkpt lat="44.94883" lon="5.75788">
        <ele>943.795516</ele>
        <time>2025-07-10T14:50:24.000Z</time>
      </trkpt>
      <trkpt lat="44.94885" lon="5.75787">
        <ele>943.884742</ele>
        <time>2025-07-10T14:50:25.000Z</time>
      </trkpt>
      <trkpt lat="44.94887" lon="5.75785">
        <ele>943.978004</ele>
        <time>2025-07-10T14:50:26.000Z</time>
      </trkpt>
      <trkpt lat="44.94889" lon="5.75785">
        <ele>944.069215</ele>
        <time>2025-07-10T14:50:27.000Z</time>
      </trkpt>
      <trkpt lat="44.94891" lon="5.75784">
        <ele>944.16964</ele>
        <time>2025-07-10T14:50:28.000Z</time>
      </trkpt>
      <trkpt lat="44.94893" lon="5.75783">
        <ele>944.265001</ele>
        <time>2025-07-10T14:50:29.000Z</time>
      </trkpt>
      <trkpt lat="44.94896" lon="5.75782">
        <ele>944.368709</ele>
        <time>2025-07-10T14:50:30.000Z</time>
      </trkpt>
      <trkpt lat="44.94898" lon="5.75781">
        <ele>944.470947</ele>
        <time>2025-07-10T14:50:31.000Z</time>
      </trkpt>
      <trkpt lat="44.949" lon="5.75781">
        <ele>944.571847</ele>
        <time>2025-07-10T14:50:32.000Z</time>
      </trkpt>
      <trkpt lat="44.94903" lon="5.7578">
        <ele>944.670606</ele>
        <time>2025-07-10T14:50:33.000Z</time>
      </trkpt>
      <trkpt lat="44.94905" lon="5.7578">
        <ele>944.769041</ele>
        <time>2025-07-10T14:50:34.000Z</time>
      </trkpt>
      <trkpt lat="44.94907" lon="5.7578">
        <ele>944.88001</ele>
        <time>2025-07-10T14:50:35.000Z</time>
      </trkpt>
      <trkpt lat="44.9491" lon="5.75779">
        <ele>944.991468</ele>
        <time>2025-07-10T14:50:36.000Z</time>
      </trkpt>
      <trkpt lat="44.94912" lon="5.75779">
        <ele>945.089673</ele>
        <time>2025-07-10T14:50:37.000Z</time>
      </trkpt>
      <trkpt lat="44.94915" lon="5.75779">
        <ele>945.187692</ele>
        <time>2025-07-10T14:50:38.000Z</time>
      </trkpt>
      <trkpt lat="44.94917" lon="5.75779">
        <ele>945.290017</ele>
        <time>2025-07-10T14:50:39.000Z</time>
      </trkpt>
      <trkpt lat="44.94919" lon="5.75779">
        <ele>945.388082</ele>
        <time>2025-07-10T14:50:40.000Z</time>
      </trkpt>
      <trkpt lat="44.94922" lon="5.75779">
        <ele>945.486101</ele>
        <time>2025-07-10T14:50:41.000Z</time>
      </trkpt>
      <trkpt lat="44.94924" lon="5.75779">
        <ele>945.584167</ele>
        <time>2025-07-10T14:50:42.000Z</time>
      </trkpt>
      <trkpt lat="44.94926" lon="5.75779">
        <ele>945.66988</ele>
        <time>2025-07-10T14:50:43.000Z</time>
      </trkpt>
      <trkpt lat="44.94928" lon="5.7578">
        <ele>945.759832</ele>
        <time>2025-07-10T14:50:44.000Z</time>
      </trkpt>
      <trkpt lat="44.9493" lon="5.7578">
        <ele>945.854362</ele>
        <time>2025-07-10T14:50:45.000Z</time>
      </trkpt>
      <trkpt lat="44.94932" lon="5.75781">
        <ele>945.948892</ele>
        <time>2025-07-10T14:50:46.000Z</time>
      </trkpt>
      <trkpt lat="44.94935" lon="5.75781">
        <ele>946.041584</ele>
        <time>2025-07-10T14:50:47.000Z</time>
      </trkpt>
      <trkpt lat="44.94937" lon="5.75782">
        <ele>946.129394</ele>
        <time>2025-07-10T14:50:48.000Z</time>
      </trkpt>
      <trkpt lat="44.94939" lon="5.75783">
        <ele>946.23278</ele>
        <time>2025-07-10T14:50:49.000Z</time>
      </trkpt>
      <trkpt lat="44.94941" lon="5.75783">
        <ele>946.328268</ele>
        <time>2025-07-10T14:50:50.000Z</time>
      </trkpt>
      <trkpt lat="44.94943" lon="5.75784">
        <ele>946.424373</ele>
        <time>2025-07-10T14:50:51.000Z</time>
      </trkpt>
      <trkpt lat="44.94945" lon="5.75785">
        <ele>946.517895</ele>
        <time>2025-07-10T14:50:52.000Z</time>
      </trkpt>
      <trkpt lat="44.94948" lon="5.75786">
        <ele>946.616384</ele>
        <time>2025-07-10T14:50:53.000Z</time>
      </trkpt>
      <trkpt lat="44.9495" lon="5.75787">
        <ele>946.718092</ele>
        <time>2025-07-10T14:50:54.000Z</time>
      </trkpt>
      <trkpt lat="44.94952" lon="5.75787">
        <ele>946.814905</ele>
        <time>2025-07-10T14:50:55.000Z</time>
      </trkpt>
      <trkpt lat="44.94954" lon="5.75788">
        <ele>946.901312</ele>
        <time>2025-07-10T14:50:56.000Z</time>
      </trkpt>
      <trkpt lat="44.94956" lon="5.75789">
        <ele>947.000988</ele>
        <time>2025-07-10T14:50:57.000Z</time>
      </trkpt>
      <trkpt lat="44.94959" lon="5.7579">
        <ele>947.104857</ele>
        <time>2025-07-10T14:50:58.000Z</time>
      </trkpt>
      <trkpt lat="44.94961" lon="5.7579">
        <ele>947.215825</ele>
        <time>2025-07-10T14:50:59.000Z</time>
      </trkpt>
      <trkpt lat="44.94964" lon="5.7579">
        <ele>947.310355</ele>
        <time>2025-07-10T14:51:00.000Z</time>
      </trkpt>
      <trkpt lat="44.94965" lon="5.75791">
        <ele>947.393325</ele>
        <time>2025-07-10T14:51:01.000Z</time>
      </trkpt>
      <trkpt lat="44.94967" lon="5.75792">
        <ele>947.477816</ele>
        <time>2025-07-10T14:51:02.000Z</time>
      </trkpt>
      <trkpt lat="44.94969" lon="5.75793">
        <ele>947.571338</ele>
        <time>2025-07-10T14:51:03.000Z</time>
      </trkpt>
      <trkpt lat="44.94972" lon="5.75793">
        <ele>947.664029</ele>
        <time>2025-07-10T14:51:04.000Z</time>
      </trkpt>
      <trkpt lat="44.94974" lon="5.75794">
        <ele>947.752613</ele>
        <time>2025-07-10T14:51:05.000Z</time>
      </trkpt>
      <trkpt lat="44.94976" lon="5.75795">
        <ele>947.846134</ele>
        <time>2025-07-10T14:51:06.000Z</time>
      </trkpt>
      <trkpt lat="44.94978" lon="5.75796">
        <ele>947.945589</ele>
        <time>2025-07-10T14:51:07.000Z</time>
      </trkpt>
      <trkpt lat="44.9498" lon="5.75797">
        <ele>948.048143</ele>
        <time>2025-07-10T14:51:08.000Z</time>
      </trkpt>
      <trkpt lat="44.94982" lon="5.75798">
        <ele>948.146632</ele>
        <time>2025-07-10T14:51:09.000Z</time>
      </trkpt>
      <trkpt lat="44.94984" lon="5.75799">
        <ele>948.236084</ele>
        <time>2025-07-10T14:51:10.000Z</time>
      </trkpt>
      <trkpt lat="44.94986" lon="5.75799">
        <ele>948.326389</ele>
        <time>2025-07-10T14:51:11.000Z</time>
      </trkpt>
      <trkpt lat="44.94989" lon="5.758">
        <ele>948.417696</ele>
        <time>2025-07-10T14:51:12.000Z</time>
      </trkpt>
      <trkpt lat="44.9499" lon="5.75801">
        <ele>948.502517</ele>
        <time>2025-07-10T14:51:13.000Z</time>
      </trkpt>
      <trkpt lat="44.94993" lon="5.75802">
        <ele>948.601006</ele>
        <time>2025-07-10T14:51:14.000Z</time>
      </trkpt>
      <trkpt lat="44.94995" lon="5.75803">
        <ele>948.70356</ele>
        <time>2025-07-10T14:51:15.000Z</time>
      </trkpt>
      <trkpt lat="44.94997" lon="5.75804">
        <ele>948.810195</ele>
        <time>2025-07-10T14:51:16.000Z</time>
      </trkpt>
      <trkpt lat="44.95" lon="5.75805">
        <ele>948.913677</ele>
        <time>2025-07-10T14:51:17.000Z</time>
      </trkpt>
      <trkpt lat="44.95002" lon="5.75806">
        <ele>949.017158</ele>
        <time>2025-07-10T14:51:18.000Z</time>
      </trkpt>
      <trkpt lat="44.95004" lon="5.75808">
        <ele>949.100736</ele>
        <time>2025-07-10T14:51:19.000Z</time>
      </trkpt>
      <trkpt lat="44.95005" lon="5.75809">
        <ele>949.184314</ele>
        <time>2025-07-10T14:51:20.000Z</time>
      </trkpt>
      <trkpt lat="44.95007" lon="5.7581">
        <ele>949.273007</ele>
        <time>2025-07-10T14:51:21.000Z</time>
      </trkpt>
      <trkpt lat="44.9501" lon="5.75811">
        <ele>949.373507</ele>
        <time>2025-07-10T14:51:22.000Z</time>
      </trkpt>
      <trkpt lat="44.95012" lon="5.75812">
        <ele>949.481034</ele>
        <time>2025-07-10T14:51:23.000Z</time>
      </trkpt>
      <trkpt lat="44.95014" lon="5.75813">
        <ele>949.586123</ele>
        <time>2025-07-10T14:51:24.000Z</time>
      </trkpt>
      <trkpt lat="44.95017" lon="5.75814">
        <ele>949.69056</ele>
        <time>2025-07-10T14:51:25.000Z</time>
      </trkpt>
      <trkpt lat="44.95019" lon="5.75814">
        <ele>949.789732</ele>
        <time>2025-07-10T14:51:26.000Z</time>
      </trkpt>
      <trkpt lat="44.95022" lon="5.75815">
        <ele>949.898346</ele>
        <time>2025-07-10T14:51:27.000Z</time>
      </trkpt>
      <trkpt lat="44.95024" lon="5.75816">
        <ele>949.999291</ele>
        <time>2025-07-10T14:51:28.000Z</time>
      </trkpt>
      <trkpt lat="44.95026" lon="5.75816">
        <ele>950.103161</ele>
        <time>2025-07-10T14:51:29.000Z</time>
      </trkpt>
      <trkpt lat="44.95028" lon="5.75817">
        <ele>950.189568</ele>
        <time>2025-07-10T14:51:30.000Z</time>
      </trkpt>
      <trkpt lat="44.9503" lon="5.75818">
        <ele>950.277377</ele>
        <time>2025-07-10T14:51:31.000Z</time>
      </trkpt>
      <trkpt lat="44.95032" lon="5.75818">
        <ele>950.375813</ele>
        <time>2025-07-10T14:51:32.000Z</time>
      </trkpt>
      <trkpt lat="44.95035" lon="5.75818">
        <ele>950.465512</ele>
        <time>2025-07-10T14:51:33.000Z</time>
      </trkpt>
      <trkpt lat="44.95037" lon="5.75819">
        <ele>950.56797</ele>
        <time>2025-07-10T14:51:34.000Z</time>
      </trkpt>
      <trkpt lat="44.95039" lon="5.75819">
        <ele>950.666175</ele>
        <time>2025-07-10T14:51:35.000Z</time>
      </trkpt>
      <trkpt lat="44.95042" lon="5.75819">
        <ele>950.772888</ele>
        <time>2025-07-10T14:51:36.000Z</time>
      </trkpt>
      <trkpt lat="44.95044" lon="5.75819">
        <ele>950.875213</ele>
        <time>2025-07-10T14:51:37.000Z</time>
      </trkpt>
      <trkpt lat="44.95046" lon="5.75819">
        <ele>950.973649</ele>
        <time>2025-07-10T14:51:38.000Z</time>
      </trkpt>
      <trkpt lat="44.95049" lon="5.75818">
        <ele>951.068179</ele>
        <time>2025-07-10T14:51:39.000Z</time>
      </trkpt>
      <trkpt lat="44.95051" lon="5.75818">
        <ele>951.158484</ele>
        <time>2025-07-10T14:51:40.000Z</time>
      </trkpt>
      <trkpt lat="44.95053" lon="5.75817">
        <ele>951.253446</ele>
        <time>2025-07-10T14:51:41.000Z</time>
      </trkpt>
      <trkpt lat="44.95055" lon="5.75817">
        <ele>951.348409</ele>
        <time>2025-07-10T14:51:42.000Z</time>
      </trkpt>
      <trkpt lat="44.95057" lon="5.75817">
        <ele>951.44236</ele>
        <time>2025-07-10T14:51:43.000Z</time>
      </trkpt>
      <trkpt lat="44.9506" lon="5.75816">
        <ele>951.54504</ele>
        <time>2025-07-10T14:51:44.000Z</time>
      </trkpt>
      <trkpt lat="44.95062" lon="5.75816">
        <ele>951.645307</ele>
        <time>2025-07-10T14:51:45.000Z</time>
      </trkpt>
      <trkpt lat="44.95064" lon="5.75815">
        <ele>951.733117</ele>
        <time>2025-07-10T14:51:46.000Z</time>
      </trkpt>
      <trkpt lat="44.95066" lon="5.75814">
        <ele>951.827558</ele>
        <time>2025-07-10T14:51:47.000Z</time>
      </trkpt>
      <trkpt lat="44.95068" lon="5.75813">
        <ele>951.92108</ele>
        <time>2025-07-10T14:51:48.000Z</time>
      </trkpt>
      <trkpt lat="44.95071" lon="5.75812">
        <ele>952.027714</ele>
        <time>2025-07-10T14:51:49.000Z</time>
      </trkpt>
      <trkpt lat="44.95073" lon="5.75811">
        <ele>952.12934</ele>
        <time>2025-07-10T14:51:50.000Z</time>
      </trkpt>
      <trkpt lat="44.95075" lon="5.75809">
        <ele>952.231987</ele>
        <time>2025-07-10T14:51:51.000Z</time>
      </trkpt>
      <trkpt lat="44.95077" lon="5.75808">
        <ele>952.329646</ele>
        <time>2025-07-10T14:51:52.000Z</time>
      </trkpt>
      <trkpt lat="44.95079" lon="5.75807">
        <ele>952.41361</ele>
        <time>2025-07-10T14:51:53.000Z</time>
      </trkpt>
      <trkpt lat="44.95081" lon="5.75806">
        <ele>952.504777</ele>
        <time>2025-07-10T14:51:54.000Z</time>
      </trkpt>
      <trkpt lat="44.95083" lon="5.75804">
        <ele>952.602222</ele>
        <time>2025-07-10T14:51:55.000Z</time>
      </trkpt>
      <trkpt lat="44.95085" lon="5.75803">
        <ele>952.68731</ele>
        <time>2025-07-10T14:51:56.000Z</time>
      </trkpt>
      <trkpt lat="44.95087" lon="5.75802">
        <ele>952.779741</ele>
        <time>2025-07-10T14:51:57.000Z</time>
      </trkpt>
      <trkpt lat="44.95089" lon="5.758">
        <ele>952.878543</ele>
        <time>2025-07-10T14:51:58.000Z</time>
      </trkpt>
      <trkpt lat="44.95091" lon="5.75798">
        <ele>952.978769</ele>
        <time>2025-07-10T14:51:59.000Z</time>
      </trkpt>
      <trkpt lat="44.95093" lon="5.75797">
        <ele>953.066834</ele>
        <time>2025-07-10T14:52:00.000Z</time>
      </trkpt>
      <trkpt lat="44.95095" lon="5.75795">
        <ele>953.165636</ele>
        <time>2025-07-10T14:52:01.000Z</time>
      </trkpt>
      <trkpt lat="44.95097" lon="5.75793">
        <ele>953.260367</ele>
        <time>2025-07-10T14:52:02.000Z</time>
      </trkpt>
      <trkpt lat="44.95099" lon="5.75791">
        <ele>953.365645</ele>
        <time>2025-07-10T14:52:03.000Z</time>
      </trkpt>
      <trkpt lat="44.95101" lon="5.7579">
        <ele>953.450233</ele>
        <time>2025-07-10T14:52:04.000Z</time>
      </trkpt>
      <trkpt lat="44.95103" lon="5.75788">
        <ele>953.538205</ele>
        <time>2025-07-10T14:52:05.000Z</time>
      </trkpt>
      <trkpt lat="44.95105" lon="5.75786">
        <ele>953.634599</ele>
        <time>2025-07-10T14:52:06.000Z</time>
      </trkpt>
      <trkpt lat="44.95106" lon="5.75784">
        <ele>953.722572</ele>
        <time>2025-07-10T14:52:07.000Z</time>
      </trkpt>
      <trkpt lat="44.95108" lon="5.75783">
        <ele>953.805474</ele>
        <time>2025-07-10T14:52:08.000Z</time>
      </trkpt>
      <trkpt lat="44.95109" lon="5.75781">
        <ele>953.883859</ele>
        <time>2025-07-10T14:52:09.000Z</time>
      </trkpt>
      <trkpt lat="44.95111" lon="5.75779">
        <ele>953.973518</ele>
        <time>2025-07-10T14:52:10.000Z</time>
      </trkpt>
      <trkpt lat="44.95113" lon="5.75778">
        <ele>954.065115</ele>
        <time>2025-07-10T14:52:11.000Z</time>
      </trkpt>
      <trkpt lat="44.95115" lon="5.75776">
        <ele>954.158883</ele>
        <time>2025-07-10T14:52:12.000Z</time>
      </trkpt>
      <trkpt lat="44.95117" lon="5.75774">
        <ele>954.248542</ele>
        <time>2025-07-10T14:52:13.000Z</time>
      </trkpt>
      <trkpt lat="44.95119" lon="5.75773">
        <ele>954.338201</ele>
        <time>2025-07-10T14:52:14.000Z</time>
      </trkpt>
      <trkpt lat="44.95121" lon="5.75771">
        <ele>954.437004</ele>
        <time>2025-07-10T14:52:15.000Z</time>
      </trkpt>
      <trkpt lat="44.95123" lon="5.75769">
        <ele>954.536806</ele>
        <time>2025-07-10T14:52:16.000Z</time>
      </trkpt>
      <trkpt lat="44.95125" lon="5.75767">
        <ele>954.643347</ele>
        <time>2025-07-10T14:52:17.000Z</time>
      </trkpt>
      <trkpt lat="44.95127" lon="5.75765">
        <ele>954.75168</ele>
        <time>2025-07-10T14:52:18.000Z</time>
      </trkpt>
      <trkpt lat="44.95129" lon="5.75763">
        <ele>954.854868</ele>
        <time>2025-07-10T14:52:19.000Z</time>
      </trkpt>
      <trkpt lat="44.95131" lon="5.75761">
        <ele>954.961409</ele>
        <time>2025-07-10T14:52:20.000Z</time>
      </trkpt>
      <trkpt lat="44.95133" lon="5.75759">
        <ele>955.061211</ele>
        <time>2025-07-10T14:52:21.000Z</time>
      </trkpt>
      <trkpt lat="44.95135" lon="5.75757">
        <ele>955.166489</ele>
        <time>2025-07-10T14:52:22.000Z</time>
      </trkpt>
      <trkpt lat="44.95137" lon="5.75755">
        <ele>955.274822</ele>
        <time>2025-07-10T14:52:23.000Z</time>
      </trkpt>
      <trkpt lat="44.9514" lon="5.75753">
        <ele>955.3801</ele>
        <time>2025-07-10T14:52:24.000Z</time>
      </trkpt>
      <trkpt lat="44.95142" lon="5.75752">
        <ele>955.480326</ele>
        <time>2025-07-10T14:52:25.000Z</time>
      </trkpt>
      <trkpt lat="44.95144" lon="5.7575">
        <ele>955.587102</ele>
        <time>2025-07-10T14:52:26.000Z</time>
      </trkpt>
      <trkpt lat="44.95146" lon="5.75748">
        <ele>955.680233</ele>
        <time>2025-07-10T14:52:27.000Z</time>
      </trkpt>
      <trkpt lat="44.95148" lon="5.75746">
        <ele>955.769892</ele>
        <time>2025-07-10T14:52:28.000Z</time>
      </trkpt>
      <trkpt lat="44.9515" lon="5.75745">
        <ele>955.861488</ele>
        <time>2025-07-10T14:52:29.000Z</time>
      </trkpt>
      <trkpt lat="44.95151" lon="5.75743">
        <ele>955.956219</ele>
        <time>2025-07-10T14:52:30.000Z</time>
      </trkpt>
      <trkpt lat="44.95153" lon="5.75741">
        <ele>956.047815</ele>
        <time>2025-07-10T14:52:31.000Z</time>
      </trkpt>
      <trkpt lat="44.95155" lon="5.7574">
        <ele>956.139135</ele>
        <time>2025-07-10T14:52:32.000Z</time>
      </trkpt>
      <trkpt lat="44.95157" lon="5.75738">
        <ele>956.233866</ele>
        <time>2025-07-10T14:52:33.000Z</time>
      </trkpt>
      <trkpt lat="44.95159" lon="5.75736">
        <ele>956.317289</ele>
        <time>2025-07-10T14:52:34.000Z</time>
      </trkpt>
      <trkpt lat="44.9516" lon="5.75734">
        <ele>956.408609</ele>
        <time>2025-07-10T14:52:35.000Z</time>
      </trkpt>
      <trkpt lat="44.95162" lon="5.75732">
        <ele>956.506807</ele>
        <time>2025-07-10T14:52:36.000Z</time>
      </trkpt>
      <trkpt lat="44.95164" lon="5.7573">
        <ele>956.608274</ele>
        <time>2025-07-10T14:52:37.000Z</time>
      </trkpt>
      <trkpt lat="44.95166" lon="5.75728">
        <ele>956.703004</ele>
        <time>2025-07-10T14:52:38.000Z</time>
      </trkpt>
      <trkpt lat="44.95168" lon="5.75727">
        <ele>956.7946</ele>
        <time>2025-07-10T14:52:39.000Z</time>
      </trkpt>
      <trkpt lat="44.9517" lon="5.75725">
        <ele>956.887731</ele>
        <time>2025-07-10T14:52:40.000Z</time>
      </trkpt>
      <trkpt lat="44.95172" lon="5.75723">
        <ele>956.97739</ele>
        <time>2025-07-10T14:52:41.000Z</time>
      </trkpt>
      <trkpt lat="44.95174" lon="5.75721">
        <ele>957.08565</ele>
        <time>2025-07-10T14:52:42.000Z</time>
      </trkpt>
      <trkpt lat="44.95176" lon="5.75719">
        <ele>957.186149</ele>
        <time>2025-07-10T14:52:43.000Z</time>
      </trkpt>
      <trkpt lat="44.95178" lon="5.75717">
        <ele>957.282815</ele>
        <time>2025-07-10T14:52:44.000Z</time>
      </trkpt>
      <trkpt lat="44.95179" lon="5.75715">
        <ele>957.377642</ele>
        <time>2025-07-10T14:52:45.000Z</time>
      </trkpt>
      <trkpt lat="44.95181" lon="5.75713">
        <ele>957.474036</ele>
        <time>2025-07-10T14:52:46.000Z</time>
      </trkpt>
      <trkpt lat="44.95183" lon="5.75711">
        <ele>957.56708</ele>
        <time>2025-07-10T14:52:47.000Z</time>
      </trkpt>
      <trkpt lat="44.95185" lon="5.75709">
        <ele>957.663473</ele>
        <time>2025-07-10T14:52:48.000Z</time>
      </trkpt>
      <trkpt lat="44.95187" lon="5.75707">
        <ele>957.750023</ele>
        <time>2025-07-10T14:52:49.000Z</time>
      </trkpt>
      <trkpt lat="44.95188" lon="5.75705">
        <ele>957.846417</ele>
        <time>2025-07-10T14:52:50.000Z</time>
      </trkpt>
      <trkpt lat="44.9519" lon="5.75703">
        <ele>957.951379</ele>
        <time>2025-07-10T14:52:51.000Z</time>
      </trkpt>
      <trkpt lat="44.95192" lon="5.75701">
        <ele>958.045898</ele>
        <time>2025-07-10T14:52:52.000Z</time>
      </trkpt>
      <trkpt lat="44.95193" lon="5.75699">
        <ele>958.132608</ele>
        <time>2025-07-10T14:52:53.000Z</time>
      </trkpt>
      <trkpt lat="44.95195" lon="5.75697">
        <ele>958.224215</ele>
        <time>2025-07-10T14:52:54.000Z</time>
      </trkpt>
      <trkpt lat="44.95197" lon="5.75695">
        <ele>958.317724</ele>
        <time>2025-07-10T14:52:55.000Z</time>
      </trkpt>
      <trkpt lat="44.95199" lon="5.75692">
        <ele>958.420912</ele>
        <time>2025-07-10T14:52:56.000Z</time>
      </trkpt>
      <trkpt lat="44.95201" lon="5.7569">
        <ele>958.512519</ele>
        <time>2025-07-10T14:52:57.000Z</time>
      </trkpt>
      <trkpt lat="44.95202" lon="5.75689">
        <ele>958.602178</ele>
        <time>2025-07-10T14:52:58.000Z</time>
      </trkpt>
      <trkpt lat="44.95204" lon="5.75687">
        <ele>958.693774</ele>
        <time>2025-07-10T14:52:59.000Z</time>
      </trkpt>
      <trkpt lat="44.95206" lon="5.75685">
        <ele>958.785094</ele>
        <time>2025-07-10T14:53:00.000Z</time>
      </trkpt>
      <trkpt lat="44.95208" lon="5.75684">
        <ele>958.873066</ele>
        <time>2025-07-10T14:53:01.000Z</time>
      </trkpt>
      <trkpt lat="44.95209" lon="5.75682">
        <ele>958.955967</ele>
        <time>2025-07-10T14:53:02.000Z</time>
      </trkpt>
      <trkpt lat="44.95211" lon="5.7568">
        <ele>959.042517</ele>
        <time>2025-07-10T14:53:03.000Z</time>
      </trkpt>
      <trkpt lat="44.95213" lon="5.75678">
        <ele>959.13295</ele>
        <time>2025-07-10T14:53:04.000Z</time>
      </trkpt>
      <trkpt lat="44.95214" lon="5.75676">
        <ele>959.224614</ele>
        <time>2025-07-10T14:53:05.000Z</time>
      </trkpt>
      <trkpt lat="44.95216" lon="5.75674">
        <ele>959.317658</ele>
        <time>2025-07-10T14:53:06.000Z</time>
      </trkpt>
      <trkpt lat="44.95218" lon="5.75672">
        <ele>959.412485</ele>
        <time>2025-07-10T14:53:07.000Z</time>
      </trkpt>
      <trkpt lat="44.95219" lon="5.7567">
        <ele>959.498731</ele>
        <time>2025-07-10T14:53:08.000Z</time>
      </trkpt>
      <trkpt lat="44.95221" lon="5.75668">
        <ele>959.591775</ele>
        <time>2025-07-10T14:53:09.000Z</time>
      </trkpt>
      <trkpt lat="44.95223" lon="5.75666">
        <ele>959.677799</ele>
        <time>2025-07-10T14:53:10.000Z</time>
      </trkpt>
      <trkpt lat="44.95224" lon="5.75664">
        <ele>959.757331</ele>
        <time>2025-07-10T14:53:11.000Z</time>
      </trkpt>
      <trkpt lat="44.95226" lon="5.75662">
        <ele>959.832472</ele>
        <time>2025-07-10T14:53:12.000Z</time>
      </trkpt>
      <trkpt lat="44.95228" lon="5.7566">
        <ele>959.912003</ele>
        <time>2025-07-10T14:53:13.000Z</time>
      </trkpt>
      <trkpt lat="44.9523" lon="5.75658">
        <ele>959.997256</ele>
        <time>2025-07-10T14:53:14.000Z</time>
      </trkpt>
      <trkpt lat="44.95232" lon="5.75656">
        <ele>960.086841</ele>
        <time>2025-07-10T14:53:15.000Z</time>
      </trkpt>
      <trkpt lat="44.95234" lon="5.75654">
        <ele>960.173566</ele>
        <time>2025-07-10T14:53:16.000Z</time>
      </trkpt>
      <trkpt lat="44.95235" lon="5.75652">
        <ele>960.247715</ele>
        <time>2025-07-10T14:53:17.000Z</time>
      </trkpt>
      <trkpt lat="44.95237" lon="5.7565">
        <ele>960.327295</ele>
        <time>2025-07-10T14:53:18.000Z</time>
      </trkpt>
      <trkpt lat="44.95238" lon="5.75648">
        <ele>960.405807</ele>
        <time>2025-07-10T14:53:19.000Z</time>
      </trkpt>
      <trkpt lat="44.9524" lon="5.75646">
        <ele>960.480948</ele>
        <time>2025-07-10T14:53:20.000Z</time>
      </trkpt>
      <trkpt lat="44.95242" lon="5.75644">
        <ele>960.562131</ele>
        <time>2025-07-10T14:53:21.000Z</time>
      </trkpt>
      <trkpt lat="44.95243" lon="5.75642">
        <ele>960.640059</ele>
        <time>2025-07-10T14:53:22.000Z</time>
      </trkpt>
      <trkpt lat="44.95245" lon="5.7564">
        <ele>960.720837</ele>
        <time>2025-07-10T14:53:23.000Z</time>
      </trkpt>
      <trkpt lat="44.95247" lon="5.75638">
        <ele>960.794985</ele>
        <time>2025-07-10T14:53:24.000Z</time>
      </trkpt>
      <trkpt lat="44.95248" lon="5.75636">
        <ele>960.870264</ele>
        <time>2025-07-10T14:53:25.000Z</time>
      </trkpt>
      <trkpt lat="44.95249" lon="5.75634">
        <ele>960.944412</ele>
        <time>2025-07-10T14:53:26.000Z</time>
      </trkpt>
      <trkpt lat="44.95251" lon="5.75631">
        <ele>961.025881</ele>
        <time>2025-07-10T14:53:27.000Z</time>
      </trkpt>
      <trkpt lat="44.95253" lon="5.75629">
        <ele>961.111644</ele>
        <time>2025-07-10T14:53:28.000Z</time>
      </trkpt>
      <trkpt lat="44.95254" lon="5.75627">
        <ele>961.198042</ele>
        <time>2025-07-10T14:53:29.000Z</time>
      </trkpt>
      <trkpt lat="44.95256" lon="5.75624">
        <ele>961.277623</ele>
        <time>2025-07-10T14:53:30.000Z</time>
      </trkpt>
      <trkpt lat="44.95257" lon="5.75622">
        <ele>961.358622</ele>
        <time>2025-07-10T14:53:31.000Z</time>
      </trkpt>
      <trkpt lat="44.95259" lon="5.75619">
        <ele>961.44324</ele>
        <time>2025-07-10T14:53:32.000Z</time>
      </trkpt>
      <trkpt lat="44.95261" lon="5.75617">
        <ele>961.529966</ele>
        <time>2025-07-10T14:53:33.000Z</time>
      </trkpt>
      <trkpt lat="44.95263" lon="5.75615">
        <ele>961.622676</ele>
        <time>2025-07-10T14:53:34.000Z</time>
      </trkpt>
      <trkpt lat="44.95264" lon="5.75612">
        <ele>961.71522</ele>
        <time>2025-07-10T14:53:35.000Z</time>
      </trkpt>
      <trkpt lat="44.95266" lon="5.7561">
        <ele>961.803434</ele>
        <time>2025-07-10T14:53:36.000Z</time>
      </trkpt>
      <trkpt lat="44.95268" lon="5.75607">
        <ele>961.886828</ele>
        <time>2025-07-10T14:53:37.000Z</time>
      </trkpt>
      <trkpt lat="44.95269" lon="5.75605">
        <ele>961.966408</ele>
        <time>2025-07-10T14:53:38.000Z</time>
      </trkpt>
      <trkpt lat="44.9527" lon="5.75603">
        <ele>962.037398</ele>
        <time>2025-07-10T14:53:39.000Z</time>
      </trkpt>
      <trkpt lat="44.95272" lon="5.75601">
        <ele>962.114587</ele>
        <time>2025-07-10T14:53:40.000Z</time>
      </trkpt>
      <trkpt lat="44.95273" lon="5.75598">
        <ele>962.189355</ele>
        <time>2025-07-10T14:53:41.000Z</time>
      </trkpt>
      <trkpt lat="44.95274" lon="5.75596">
        <ele>962.262278</ele>
        <time>2025-07-10T14:53:42.000Z</time>
      </trkpt>
      <trkpt lat="44.95276" lon="5.75594">
        <ele>962.333268</ele>
        <time>2025-07-10T14:53:43.000Z</time>
      </trkpt>
      <trkpt lat="44.95277" lon="5.75592">
        <ele>962.408546</ele>
        <time>2025-07-10T14:53:44.000Z</time>
      </trkpt>
      <trkpt lat="44.95279" lon="5.7559">
        <ele>962.479298</ele>
        <time>2025-07-10T14:53:45.000Z</time>
      </trkpt>
      <trkpt lat="44.9528" lon="5.75588">
        <ele>962.555215</ele>
        <time>2025-07-10T14:53:46.000Z</time>
      </trkpt>
      <trkpt lat="44.95281" lon="5.75586">
        <ele>962.630493</ele>
        <time>2025-07-10T14:53:47.000Z</time>
      </trkpt>
      <trkpt lat="44.95283" lon="5.75584">
        <ele>962.696969</ele>
        <time>2025-07-10T14:53:48.000Z</time>
      </trkpt>
      <trkpt lat="44.95284" lon="5.75582">
        <ele>962.765021</ele>
        <time>2025-07-10T14:53:49.000Z</time>
      </trkpt>
      <trkpt lat="44.95285" lon="5.7558">
        <ele>962.833072</ele>
        <time>2025-07-10T14:53:50.000Z</time>
      </trkpt>
      <trkpt lat="44.95287" lon="5.75578">
        <ele>962.906479</ele>
        <time>2025-07-10T14:53:51.000Z</time>
      </trkpt>
      <trkpt lat="44.95288" lon="5.75576">
        <ele>962.977109</ele>
        <time>2025-07-10T14:53:52.000Z</time>
      </trkpt>
      <trkpt lat="44.95289" lon="5.75573">
        <ele>963.052003</ele>
        <time>2025-07-10T14:53:53.000Z</time>
      </trkpt>
      <trkpt lat="44.9529" lon="5.75571">
        <ele>963.130982</ele>
        <time>2025-07-10T14:53:54.000Z</time>
      </trkpt>
      <trkpt lat="44.95291" lon="5.75568">
        <ele>963.21025</ele>
        <time>2025-07-10T14:53:55.000Z</time>
      </trkpt>
      <trkpt lat="44.95293" lon="5.75565">
        <ele>963.291372</ele>
        <time>2025-07-10T14:53:56.000Z</time>
      </trkpt>
      <trkpt lat="44.95294" lon="5.75563">
        <ele>963.372493</ele>
        <time>2025-07-10T14:53:57.000Z</time>
      </trkpt>
      <trkpt lat="44.95295" lon="5.7556">
        <ele>963.451629</ele>
        <time>2025-07-10T14:53:58.000Z</time>
      </trkpt>
      <trkpt lat="44.95297" lon="5.75558">
        <ele>963.535521</ele>
        <time>2025-07-10T14:53:59.000Z</time>
      </trkpt>
      <trkpt lat="44.95298" lon="5.75555">
        <ele>963.610289</ele>
        <time>2025-07-10T14:54:00.000Z</time>
      </trkpt>
      <trkpt lat="44.95299" lon="5.75553">
        <ele>963.687478</ele>
        <time>2025-07-10T14:54:01.000Z</time>
      </trkpt>
      <trkpt lat="44.95301" lon="5.75551">
        <ele>963.762372</ele>
        <time>2025-07-10T14:54:02.000Z</time>
      </trkpt>
      <trkpt lat="44.95302" lon="5.75548">
        <ele>963.843494</ele>
        <time>2025-07-10T14:54:03.000Z</time>
      </trkpt>
      <trkpt lat="44.95303" lon="5.75546">
        <ele>963.920354</ele>
        <time>2025-07-10T14:54:04.000Z</time>
      </trkpt>
      <trkpt lat="44.95304" lon="5.75543">
        <ele>963.997891</ele>
        <time>2025-07-10T14:54:05.000Z</time>
      </trkpt>
      <trkpt lat="44.95305" lon="5.7554">
        <ele>964.081178</ele>
        <time>2025-07-10T14:54:06.000Z</time>
      </trkpt>
      <trkpt lat="44.95307" lon="5.75537">
        <ele>964.160156</ele>
        <time>2025-07-10T14:54:07.000Z</time>
      </trkpt>
      <trkpt lat="44.95308" lon="5.75535">
        <ele>964.241639</ele>
        <time>2025-07-10T14:54:08.000Z</time>
      </trkpt>
      <trkpt lat="44.95309" lon="5.75532">
        <ele>964.320573</ele>
        <time>2025-07-10T14:54:09.000Z</time>
      </trkpt>
      <trkpt lat="44.9531" lon="5.7553">
        <ele>964.395467</ele>
        <time>2025-07-10T14:54:10.000Z</time>
      </trkpt>
      <trkpt lat="44.95312" lon="5.75527">
        <ele>964.476466</ele>
        <time>2025-07-10T14:54:11.000Z</time>
      </trkpt>
      <trkpt lat="44.95313" lon="5.75525">
        <ele>964.557464</ele>
        <time>2025-07-10T14:54:12.000Z</time>
      </trkpt>
      <trkpt lat="44.95314" lon="5.75523">
        <ele>964.63087</ele>
        <time>2025-07-10T14:54:13.000Z</time>
      </trkpt>
      <trkpt lat="44.95316" lon="5.7552">
        <ele>964.707769</ele>
        <time>2025-07-10T14:54:14.000Z</time>
      </trkpt>
      <trkpt lat="44.95317" lon="5.75518">
        <ele>964.793119</ele>
        <time>2025-07-10T14:54:15.000Z</time>
      </trkpt>
      <trkpt lat="44.95318" lon="5.75515">
        <ele>964.868013</ele>
        <time>2025-07-10T14:54:16.000Z</time>
      </trkpt>
      <trkpt lat="44.95319" lon="5.75513">
        <ele>964.932414</ele>
        <time>2025-07-10T14:54:17.000Z</time>
      </trkpt>
      <trkpt lat="44.95321" lon="5.75511">
        <ele>965.007181</ele>
        <time>2025-07-10T14:54:18.000Z</time>
      </trkpt>
      <trkpt lat="44.95322" lon="5.75508">
        <ele>965.079934</ele>
        <time>2025-07-10T14:54:19.000Z</time>
      </trkpt>
      <trkpt lat="44.95323" lon="5.75506">
        <ele>965.158868</ele>
        <time>2025-07-10T14:54:20.000Z</time>
      </trkpt>
      <trkpt lat="44.95324" lon="5.75503">
        <ele>965.233635</ele>
        <time>2025-07-10T14:54:21.000Z</time>
      </trkpt>
      <trkpt lat="44.95325" lon="5.75501">
        <ele>965.308529</ele>
        <time>2025-07-10T14:54:22.000Z</time>
      </trkpt>
      <trkpt lat="44.95327" lon="5.75499">
        <ele>965.387665</ele>
        <time>2025-07-10T14:54:23.000Z</time>
      </trkpt>
      <trkpt lat="44.95328" lon="5.75497">
        <ele>965.46107</ele>
        <time>2025-07-10T14:54:24.000Z</time>
      </trkpt>
      <trkpt lat="44.9533" lon="5.75494">
        <ele>965.540205</ele>
        <time>2025-07-10T14:54:25.000Z</time>
      </trkpt>
      <trkpt lat="44.95331" lon="5.75492">
        <ele>965.625555</ele>
        <time>2025-07-10T14:54:26.000Z</time>
      </trkpt>
      <trkpt lat="44.95333" lon="5.7549">
        <ele>965.701471</ele>
        <time>2025-07-10T14:54:27.000Z</time>
      </trkpt>
      <trkpt lat="44.95334" lon="5.75487">
        <ele>965.793422</ele>
        <time>2025-07-10T14:54:28.000Z</time>
      </trkpt>
      <trkpt lat="44.95336" lon="5.75484">
        <ele>965.884989</ele>
        <time>2025-07-10T14:54:29.000Z</time>
      </trkpt>
      <trkpt lat="44.95338" lon="5.75481">
        <ele>965.979368</ele>
        <time>2025-07-10T14:54:30.000Z</time>
      </trkpt>
      <trkpt lat="44.9534" lon="5.75478">
        <ele>966.07992</ele>
        <time>2025-07-10T14:54:31.000Z</time>
      </trkpt>
      <trkpt lat="44.95341" lon="5.75476">
        <ele>966.12997</ele>
        <time>2025-07-10T14:54:32.000Z</time>
      </trkpt>
      <trkpt lat="44.95343" lon="5.75473">
        <ele>966.102839</ele>
        <time>2025-07-10T14:54:33.000Z</time>
      </trkpt>
      <trkpt lat="44.95344" lon="5.7547">
        <ele>966.07511</ele>
        <time>2025-07-10T14:54:34.000Z</time>
      </trkpt>
      <trkpt lat="44.95346" lon="5.75467">
        <ele>966.044077</ele>
        <time>2025-07-10T14:54:35.000Z</time>
      </trkpt>
      <trkpt lat="44.95348" lon="5.75464">
        <ele>966.013619</ele>
        <time>2025-07-10T14:54:36.000Z</time>
      </trkpt>
      <trkpt lat="44.95349" lon="5.75461">
        <ele>965.982586</ele>
        <time>2025-07-10T14:54:37.000Z</time>
      </trkpt>
      <trkpt lat="44.95351" lon="5.75458">
        <ele>965.948243</ele>
        <time>2025-07-10T14:54:38.000Z</time>
      </trkpt>
      <trkpt lat="44.95353" lon="5.75454">
        <ele>965.912348</ele>
        <time>2025-07-10T14:54:39.000Z</time>
      </trkpt>
      <trkpt lat="44.95355" lon="5.75451">
        <ele>965.876025</ele>
        <time>2025-07-10T14:54:40.000Z</time>
      </trkpt>
      <trkpt lat="44.95357" lon="5.75447">
        <ele>965.83773</ele>
        <time>2025-07-10T14:54:41.000Z</time>
      </trkpt>
      <trkpt lat="44.95359" lon="5.75443">
        <ele>965.802725</ele>
        <time>2025-07-10T14:54:42.000Z</time>
      </trkpt>
      <trkpt lat="44.9536" lon="5.7544">
        <ele>965.767074</ele>
        <time>2025-07-10T14:54:43.000Z</time>
      </trkpt>
      <trkpt lat="44.95362" lon="5.75436">
        <ele>965.730751</ele>
        <time>2025-07-10T14:54:44.000Z</time>
      </trkpt>
      <trkpt lat="44.95364" lon="5.75432">
        <ele>965.695071</ele>
        <time>2025-07-10T14:54:45.000Z</time>
      </trkpt>
      <trkpt lat="44.95365" lon="5.75429">
        <ele>965.661847</ele>
        <time>2025-07-10T14:54:46.000Z</time>
      </trkpt>
      <trkpt lat="44.95367" lon="5.75425">
        <ele>965.628148</ele>
        <time>2025-07-10T14:54:47.000Z</time>
      </trkpt>
      <trkpt lat="44.95369" lon="5.75422">
        <ele>965.593109</ele>
        <time>2025-07-10T14:54:48.000Z</time>
      </trkpt>
      <trkpt lat="44.95371" lon="5.75418">
        <ele>965.557457</ele>
        <time>2025-07-10T14:54:49.000Z</time>
      </trkpt>
      <trkpt lat="44.95373" lon="5.75415">
        <ele>965.521778</ele>
        <time>2025-07-10T14:54:50.000Z</time>
      </trkpt>
      <trkpt lat="44.95374" lon="5.75411">
        <ele>965.487443</ele>
        <time>2025-07-10T14:54:51.000Z</time>
      </trkpt>
      <trkpt lat="44.95376" lon="5.75408">
        <ele>965.45306</ele>
        <time>2025-07-10T14:54:52.000Z</time>
      </trkpt>
      <trkpt lat="44.95377" lon="5.75404">
        <ele>965.419125</ele>
        <time>2025-07-10T14:54:53.000Z</time>
      </trkpt>
      <trkpt lat="44.95379" lon="5.75401">
        <ele>965.386101</ele>
        <time>2025-07-10T14:54:54.000Z</time>
      </trkpt>
      <trkpt lat="44.95381" lon="5.75397">
        <ele>965.35096</ele>
        <time>2025-07-10T14:54:55.000Z</time>
      </trkpt>
      <trkpt lat="44.95383" lon="5.75394">
        <ele>965.317175</ele>
        <time>2025-07-10T14:54:56.000Z</time>
      </trkpt>
      <trkpt lat="44.95384" lon="5.75391">
        <ele>965.284162</ele>
        <time>2025-07-10T14:54:57.000Z</time>
      </trkpt>
      <trkpt lat="44.95386" lon="5.75387">
        <ele>965.249021</ele>
        <time>2025-07-10T14:54:58.000Z</time>
      </trkpt>
      <trkpt lat="44.95388" lon="5.75384">
        <ele>965.213343</ele>
        <time>2025-07-10T14:54:59.000Z</time>
      </trkpt>
      <trkpt lat="44.9539" lon="5.7538">
        <ele>965.174982</ele>
        <time>2025-07-10T14:55:00.000Z</time>
      </trkpt>
      <trkpt lat="44.95393" lon="5.75376">
        <ele>965.133921</ele>
        <time>2025-07-10T14:55:01.000Z</time>
      </trkpt>
      <trkpt lat="44.95395" lon="5.75372">
        <ele>965.092986</ele>
        <time>2025-07-10T14:55:02.000Z</time>
      </trkpt>
      <trkpt lat="44.95397" lon="5.75368">
        <ele>965.049391</ele>
        <time>2025-07-10T14:55:03.000Z</time>
      </trkpt>
      <trkpt lat="44.954" lon="5.75364">
        <ele>965.006355</ele>
        <time>2025-07-10T14:55:04.000Z</time>
      </trkpt>
      <trkpt lat="44.95402" lon="5.7536">
        <ele>964.962427</ele>
        <time>2025-07-10T14:55:05.000Z</time>
      </trkpt>
      <trkpt lat="44.95405" lon="5.75355">
        <ele>964.916852</ele>
        <time>2025-07-10T14:55:06.000Z</time>
      </trkpt>
      <trkpt lat="44.95407" lon="5.75351">
        <ele>964.871921</ele>
        <time>2025-07-10T14:55:07.000Z</time>
      </trkpt>
      <trkpt lat="44.9541" lon="5.75346">
        <ele>964.822328</ele>
        <time>2025-07-10T14:55:08.000Z</time>
      </trkpt>
      <trkpt lat="44.95412" lon="5.75342">
        <ele>964.773864</ele>
        <time>2025-07-10T14:55:09.000Z</time>
      </trkpt>
      <trkpt lat="44.95415" lon="5.75337">
        <ele>964.7222</ele>
        <time>2025-07-10T14:55:10.000Z</time>
      </trkpt>
      <trkpt lat="44.95418" lon="5.75332">
        <ele>964.671262</ele>
        <time>2025-07-10T14:55:11.000Z</time>
      </trkpt>
      <trkpt lat="44.95421" lon="5.75327">
        <ele>964.62095</ele>
        <time>2025-07-10T14:55:12.000Z</time>
      </trkpt>
      <trkpt lat="44.95424" lon="5.75322">
        <ele>964.567312</ele>
        <time>2025-07-10T14:55:13.000Z</time>
      </trkpt>
      <trkpt lat="44.95427" lon="5.75317">
        <ele>964.511699</ele>
        <time>2025-07-10T14:55:14.000Z</time>
      </trkpt>
      <trkpt lat="44.9543" lon="5.75311">
        <ele>964.455351</ele>
        <time>2025-07-10T14:55:15.000Z</time>
      </trkpt>
      <trkpt lat="44.95433" lon="5.75306">
        <ele>964.395869</ele>
        <time>2025-07-10T14:55:16.000Z</time>
      </trkpt>
      <trkpt lat="44.95437" lon="5.753">
        <ele>964.335044</ele>
        <time>2025-07-10T14:55:17.000Z</time>
      </trkpt>
      <trkpt lat="44.9544" lon="5.75294">
        <ele>964.27561</ele>
        <time>2025-07-10T14:55:18.000Z</time>
      </trkpt>
      <trkpt lat="44.95443" lon="5.75288">
        <ele>964.216047</ele>
        <time>2025-07-10T14:55:19.000Z</time>
      </trkpt>
      <trkpt lat="44.95447" lon="5.75283">
        <ele>964.156223</ele>
        <time>2025-07-10T14:55:20.000Z</time>
      </trkpt>
      <trkpt lat="44.9545" lon="5.75277">
        <ele>964.095308</ele>
        <time>2025-07-10T14:55:21.000Z</time>
      </trkpt>
      <trkpt lat="44.95453" lon="5.75271">
        <ele>963.906079</ele>
        <time>2025-07-10T14:55:22.000Z</time>
      </trkpt>
      <trkpt lat="44.95457" lon="5.75265">
        <ele>963.688252</ele>
        <time>2025-07-10T14:55:23.000Z</time>
      </trkpt>
      <trkpt lat="44.95461" lon="5.75259">
        <ele>963.457016</ele>
        <time>2025-07-10T14:55:24.000Z</time>
      </trkpt>
      <trkpt lat="44.95464" lon="5.75252">
        <ele>963.216632</ele>
        <time>2025-07-10T14:55:25.000Z</time>
      </trkpt>
      <trkpt lat="44.95468" lon="5.75246">
        <ele>962.969285</ele>
        <time>2025-07-10T14:55:26.000Z</time>
      </trkpt>
      <trkpt lat="44.95472" lon="5.75239">
        <ele>962.714579</ele>
        <time>2025-07-10T14:55:27.000Z</time>
      </trkpt>
      <trkpt lat="44.95477" lon="5.75232">
        <ele>962.456694</ele>
        <time>2025-07-10T14:55:28.000Z</time>
      </trkpt>
      <trkpt lat="44.95481" lon="5.75225">
        <ele>962.19669</ele>
        <time>2025-07-10T14:55:29.000Z</time>
      </trkpt>
      <trkpt lat="44.95485" lon="5.75218">
        <ele>961.93503</ele>
        <time>2025-07-10T14:55:30.000Z</time>
      </trkpt>
      <trkpt lat="44.9549" lon="5.75212">
        <ele>961.6675</ele>
        <time>2025-07-10T14:55:31.000Z</time>
      </trkpt>
      <trkpt lat="44.95494" lon="5.75204">
        <ele>961.398885</ele>
        <time>2025-07-10T14:55:32.000Z</time>
      </trkpt>
      <trkpt lat="44.95498" lon="5.75197">
        <ele>961.125887</ele>
        <time>2025-07-10T14:55:33.000Z</time>
      </trkpt>
      <trkpt lat="44.95503" lon="5.7519">
        <ele>960.857647</ele>
        <time>2025-07-10T14:55:34.000Z</time>
      </trkpt>
      <trkpt lat="44.95507" lon="5.75183">
        <ele>960.58737</ele>
        <time>2025-07-10T14:55:35.000Z</time>
      </trkpt>
      <trkpt lat="44.95512" lon="5.75176">
        <ele>960.312916</ele>
        <time>2025-07-10T14:55:36.000Z</time>
      </trkpt>
      <trkpt lat="44.95516" lon="5.75168">
        <ele>960.031533</ele>
        <time>2025-07-10T14:55:37.000Z</time>
      </trkpt>
      <trkpt lat="44.95521" lon="5.75161">
        <ele>959.753353</ele>
        <time>2025-07-10T14:55:38.000Z</time>
      </trkpt>
      <trkpt lat="44.95525" lon="5.75153">
        <ele>959.473005</ele>
        <time>2025-07-10T14:55:39.000Z</time>
      </trkpt>
      <trkpt lat="44.9553" lon="5.75146">
        <ele>959.197799</ele>
        <time>2025-07-10T14:55:40.000Z</time>
      </trkpt>
      <trkpt lat="44.95534" lon="5.75138">
        <ele>958.920039</ele>
        <time>2025-07-10T14:55:41.000Z</time>
      </trkpt>
      <trkpt lat="44.95539" lon="5.75131">
        <ele>958.63751</ele>
        <time>2025-07-10T14:55:42.000Z</time>
      </trkpt>
      <trkpt lat="44.95543" lon="5.75123">
        <ele>958.352789</ele>
        <time>2025-07-10T14:55:43.000Z</time>
      </trkpt>
      <trkpt lat="44.95548" lon="5.75115">
        <ele>958.065863</ele>
        <time>2025-07-10T14:55:44.000Z</time>
      </trkpt>
      <trkpt lat="44.95552" lon="5.75108">
        <ele>957.783335</ele>
        <time>2025-07-10T14:55:45.000Z</time>
      </trkpt>
      <trkpt lat="44.95557" lon="5.751">
        <ele>957.494195</ele>
        <time>2025-07-10T14:55:46.000Z</time>
      </trkpt>
      <trkpt lat="44.95561" lon="5.75092">
        <ele>957.200304</ele>
        <time>2025-07-10T14:55:47.000Z</time>
      </trkpt>
      <trkpt lat="44.95566" lon="5.75084">
        <ele>956.908221</ele>
        <time>2025-07-10T14:55:48.000Z</time>
      </trkpt>
      <trkpt lat="44.95571" lon="5.75076">
        <ele>956.546741</ele>
        <time>2025-07-10T14:55:49.000Z</time>
      </trkpt>
      <trkpt lat="44.95576" lon="5.75069">
        <ele>956.160087</ele>
        <time>2025-07-10T14:55:50.000Z</time>
      </trkpt>
      <trkpt lat="44.9558" lon="5.75061">
        <ele>955.769894</ele>
        <time>2025-07-10T14:55:51.000Z</time>
      </trkpt>
      <trkpt lat="44.95586" lon="5.75053">
        <ele>955.366966</ele>
        <time>2025-07-10T14:55:52.000Z</time>
      </trkpt>
      <trkpt lat="44.95591" lon="5.75045">
        <ele>954.954043</ele>
        <time>2025-07-10T14:55:53.000Z</time>
      </trkpt>
      <trkpt lat="44.95596" lon="5.75037">
        <ele>954.547508</ele>
        <time>2025-07-10T14:55:54.000Z</time>
      </trkpt>
      <trkpt lat="44.95601" lon="5.75029">
        <ele>954.133647</ele>
        <time>2025-07-10T14:55:55.000Z</time>
      </trkpt>
      <trkpt lat="44.95607" lon="5.75022">
        <ele>953.72784</ele>
        <time>2025-07-10T14:55:56.000Z</time>
      </trkpt>
      <trkpt lat="44.95613" lon="5.75015">
        <ele>953.317644</ele>
        <time>2025-07-10T14:55:57.000Z</time>
      </trkpt>
      <trkpt lat="44.95619" lon="5.75008">
        <ele>952.908113</ele>
        <time>2025-07-10T14:55:58.000Z</time>
      </trkpt>
      <trkpt lat="44.95625" lon="5.75001">
        <ele>952.492521</ele>
        <time>2025-07-10T14:55:59.000Z</time>
      </trkpt>
      <trkpt lat="44.95631" lon="5.74994">
        <ele>952.068113</ele>
        <time>2025-07-10T14:56:00.000Z</time>
      </trkpt>
      <trkpt lat="44.95638" lon="5.74988">
        <ele>951.648455</ele>
        <time>2025-07-10T14:56:01.000Z</time>
      </trkpt>
      <trkpt lat="44.95644" lon="5.74982">
        <ele>951.236596</ele>
        <time>2025-07-10T14:56:02.000Z</time>
      </trkpt>
      <trkpt lat="44.95651" lon="5.74977">
        <ele>950.81079</ele>
        <time>2025-07-10T14:56:03.000Z</time>
      </trkpt>
      <trkpt lat="44.95659" lon="5.74972">
        <ele>950.372396</ele>
        <time>2025-07-10T14:56:04.000Z</time>
      </trkpt>
      <trkpt lat="44.95666" lon="5.74968">
        <ele>949.948326</ele>
        <time>2025-07-10T14:56:05.000Z</time>
      </trkpt>
      <trkpt lat="44.95674" lon="5.74963">
        <ele>949.519369</ele>
        <time>2025-07-10T14:56:06.000Z</time>
      </trkpt>
      <trkpt lat="44.95681" lon="5.74958">
        <ele>949.100285</ele>
        <time>2025-07-10T14:56:07.000Z</time>
      </trkpt>
      <trkpt lat="44.95688" lon="5.74953">
        <ele>948.676605</ele>
        <time>2025-07-10T14:56:08.000Z</time>
      </trkpt>
      <trkpt lat="44.95694" lon="5.74946">
        <ele>948.254738</ele>
        <time>2025-07-10T14:56:09.000Z</time>
      </trkpt>
      <trkpt lat="44.957" lon="5.74939">
        <ele>947.834906</ele>
        <time>2025-07-10T14:56:10.000Z</time>
      </trkpt>
      <trkpt lat="44.95707" lon="5.74933">
        <ele>947.406279</ele>
        <time>2025-07-10T14:56:11.000Z</time>
      </trkpt>
      <trkpt lat="44.95713" lon="5.74926">
        <ele>946.965783</ele>
        <time>2025-07-10T14:56:12.000Z</time>
      </trkpt>
      <trkpt lat="44.95719" lon="5.74919">
        <ele>946.52801</ele>
        <time>2025-07-10T14:56:13.000Z</time>
      </trkpt>
      <trkpt lat="44.95725" lon="5.74912">
        <ele>946.087797</ele>
        <time>2025-07-10T14:56:14.000Z</time>
      </trkpt>
      <trkpt lat="44.95731" lon="5.74905">
        <ele>945.656196</ele>
        <time>2025-07-10T14:56:15.000Z</time>
      </trkpt>
      <trkpt lat="44.95738" lon="5.74898">
        <ele>945.218423</ele>
        <time>2025-07-10T14:56:16.000Z</time>
      </trkpt>
      <trkpt lat="44.95744" lon="5.74891">
        <ele>944.783393</ele>
        <time>2025-07-10T14:56:17.000Z</time>
      </trkpt>
      <trkpt lat="44.9575" lon="5.74884">
        <ele>944.339221</ele>
        <time>2025-07-10T14:56:18.000Z</time>
      </trkpt>
      <trkpt lat="44.95757" lon="5.74878">
        <ele>943.89505</ele>
        <time>2025-07-10T14:56:19.000Z</time>
      </trkpt>
      <trkpt lat="44.95763" lon="5.74871">
        <ele>943.451058</ele>
        <time>2025-07-10T14:56:20.000Z</time>
      </trkpt>
      <trkpt lat="44.9577" lon="5.74864">
        <ele>942.988866</ele>
        <time>2025-07-10T14:56:21.000Z</time>
      </trkpt>
      <trkpt lat="44.95777" lon="5.74858">
        <ele>942.534719</ele>
        <time>2025-07-10T14:56:22.000Z</time>
      </trkpt>
      <trkpt lat="44.95784" lon="5.74852">
        <ele>942.092603</ele>
        <time>2025-07-10T14:56:23.000Z</time>
      </trkpt>
      <trkpt lat="44.95791" lon="5.74846">
        <ele>941.649971</ele>
        <time>2025-07-10T14:56:24.000Z</time>
      </trkpt>
      <trkpt lat="44.95798" lon="5.74841">
        <ele>941.204621</ele>
        <time>2025-07-10T14:56:25.000Z</time>
      </trkpt>
      <trkpt lat="44.95805" lon="5.74835">
        <ele>940.751654</ele>
        <time>2025-07-10T14:56:26.000Z</time>
      </trkpt>
      <trkpt lat="44.95812" lon="5.74829">
        <ele>940.300612</ele>
        <time>2025-07-10T14:56:27.000Z</time>
      </trkpt>
      <trkpt lat="44.95819" lon="5.74824">
        <ele>939.839851</ele>
        <time>2025-07-10T14:56:28.000Z</time>
      </trkpt>
      <trkpt lat="44.95826" lon="5.74817">
        <ele>939.3727</ele>
        <time>2025-07-10T14:56:29.000Z</time>
      </trkpt>
      <trkpt lat="44.95833" lon="5.74811">
        <ele>938.916506</ele>
        <time>2025-07-10T14:56:30.000Z</time>
      </trkpt>
      <trkpt lat="44.9584" lon="5.74805">
        <ele>938.474391</ele>
        <time>2025-07-10T14:56:31.000Z</time>
      </trkpt>
      <trkpt lat="44.95846" lon="5.74799">
        <ele>938.034937</ele>
        <time>2025-07-10T14:56:32.000Z</time>
      </trkpt>
      <trkpt lat="44.95852" lon="5.74792">
        <ele>937.609277</ele>
        <time>2025-07-10T14:56:33.000Z</time>
      </trkpt>
      <trkpt lat="44.95858" lon="5.74784">
        <ele>937.181713</ele>
        <time>2025-07-10T14:56:34.000Z</time>
      </trkpt>
      <trkpt lat="44.95864" lon="5.74776">
        <ele>936.796321</ele>
        <time>2025-07-10T14:56:35.000Z</time>
      </trkpt>
      <trkpt lat="44.95869" lon="5.74768">
        <ele>936.423983</ele>
        <time>2025-07-10T14:56:36.000Z</time>
      </trkpt>
      <trkpt lat="44.95873" lon="5.74758">
        <ele>936.040967</ele>
        <time>2025-07-10T14:56:37.000Z</time>
      </trkpt>
      <trkpt lat="44.95877" lon="5.74749">
        <ele>935.655022</ele>
        <time>2025-07-10T14:56:38.000Z</time>
      </trkpt>
      <trkpt lat="44.95882" lon="5.74739">
        <ele>935.267437</ele>
        <time>2025-07-10T14:56:39.000Z</time>
      </trkpt>
      <trkpt lat="44.95886" lon="5.7473">
        <ele>934.865917</ele>
        <time>2025-07-10T14:56:40.000Z</time>
      </trkpt>
      <trkpt lat="44.95891" lon="5.7472">
        <ele>934.464358</ele>
        <time>2025-07-10T14:56:41.000Z</time>
      </trkpt>
      <trkpt lat="44.95896" lon="5.74711">
        <ele>934.065554</ele>
        <time>2025-07-10T14:56:42.000Z</time>
      </trkpt>
      <trkpt lat="44.95901" lon="5.74701">
        <ele>933.664035</ele>
        <time>2025-07-10T14:56:43.000Z</time>
      </trkpt>
      <trkpt lat="44.95906" lon="5.74692">
        <ele>933.263574</ele>
        <time>2025-07-10T14:56:44.000Z</time>
      </trkpt>
      <trkpt lat="44.95913" lon="5.74685">
        <ele>932.850438</ele>
        <time>2025-07-10T14:56:45.000Z</time>
      </trkpt>
      <trkpt lat="44.9592" lon="5.74679">
        <ele>932.454268</ele>
        <time>2025-07-10T14:56:46.000Z</time>
      </trkpt>
      <trkpt lat="44.95928" lon="5.74675">
        <ele>932.046859</ele>
        <time>2025-07-10T14:56:47.000Z</time>
      </trkpt>
      <trkpt lat="44.95937" lon="5.74673">
        <ele>931.630246</ele>
        <time>2025-07-10T14:56:48.000Z</time>
      </trkpt>
      <trkpt lat="44.95945" lon="5.7467">
        <ele>931.207329</ele>
        <time>2025-07-10T14:56:49.000Z</time>
      </trkpt>
      <trkpt lat="44.95954" lon="5.74666">
        <ele>930.787369</ele>
        <time>2025-07-10T14:56:50.000Z</time>
      </trkpt>
      <trkpt lat="44.95962" lon="5.74663">
        <ele>930.357197</ele>
        <time>2025-07-10T14:56:51.000Z</time>
      </trkpt>
      <trkpt lat="44.95971" lon="5.7466">
        <ele>929.935406</ele>
        <time>2025-07-10T14:56:52.000Z</time>
      </trkpt>
      <trkpt lat="44.95979" lon="5.74657">
        <ele>929.511649</ele>
        <time>2025-07-10T14:56:53.000Z</time>
      </trkpt>
      <trkpt lat="44.95987" lon="5.74653">
        <ele>929.094498</ele>
        <time>2025-07-10T14:56:54.000Z</time>
      </trkpt>
      <trkpt lat="44.95996" lon="5.7465">
        <ele>928.673635</ele>
        <time>2025-07-10T14:56:55.000Z</time>
      </trkpt>
      <trkpt lat="44.96004" lon="5.74646">
        <ele>928.166383</ele>
        <time>2025-07-10T14:56:56.000Z</time>
      </trkpt>
      <trkpt lat="44.96013" lon="5.74643">
        <ele>927.639609</ele>
        <time>2025-07-10T14:56:57.000Z</time>
      </trkpt>
      <trkpt lat="44.96022" lon="5.7464">
        <ele>927.118458</ele>
        <time>2025-07-10T14:56:58.000Z</time>
      </trkpt>
      <trkpt lat="44.9603" lon="5.74636">
        <ele>926.601785</ele>
        <time>2025-07-10T14:56:59.000Z</time>
      </trkpt>
      <trkpt lat="44.96039" lon="5.74633">
        <ele>926.087361</ele>
        <time>2025-07-10T14:57:00.000Z</time>
      </trkpt>
      <trkpt lat="44.96047" lon="5.7463">
        <ele>925.578017</ele>
        <time>2025-07-10T14:57:01.000Z</time>
      </trkpt>
      <trkpt lat="44.96056" lon="5.74629">
        <ele>925.085706</ele>
        <time>2025-07-10T14:57:02.000Z</time>
      </trkpt>
      <trkpt lat="44.96064" lon="5.74629">
        <ele>924.595217</ele>
        <time>2025-07-10T14:57:03.000Z</time>
      </trkpt>
      <trkpt lat="44.96073" lon="5.7463">
        <ele>924.086425</ele>
        <time>2025-07-10T14:57:04.000Z</time>
      </trkpt>
      <trkpt lat="44.96081" lon="5.7463">
        <ele>923.572804</ele>
        <time>2025-07-10T14:57:05.000Z</time>
      </trkpt>
      <trkpt lat="44.9609" lon="5.74628">
        <ele>923.055504</ele>
        <time>2025-07-10T14:57:06.000Z</time>
      </trkpt>
      <trkpt lat="44.96098" lon="5.74623">
        <ele>922.549084</ele>
        <time>2025-07-10T14:57:07.000Z</time>
      </trkpt>
      <trkpt lat="44.96106" lon="5.74617">
        <ele>922.046974</ele>
        <time>2025-07-10T14:57:08.000Z</time>
      </trkpt>
      <trkpt lat="44.96113" lon="5.74611">
        <ele>921.530682</ele>
        <time>2025-07-10T14:57:09.000Z</time>
      </trkpt>
      <trkpt lat="44.96121" lon="5.74604">
        <ele>920.999015</ele>
        <time>2025-07-10T14:57:10.000Z</time>
      </trkpt>
      <trkpt lat="44.96129" lon="5.74597">
        <ele>920.466937</ele>
        <time>2025-07-10T14:57:11.000Z</time>
      </trkpt>
      <trkpt lat="44.96136" lon="5.7459">
        <ele>919.932636</ele>
        <time>2025-07-10T14:57:12.000Z</time>
      </trkpt>
      <trkpt lat="44.96144" lon="5.74582">
        <ele>919.384499</ele>
        <time>2025-07-10T14:57:13.000Z</time>
      </trkpt>
      <trkpt lat="44.96152" lon="5.74574">
        <ele>918.841073</ele>
        <time>2025-07-10T14:57:14.000Z</time>
      </trkpt>
      <trkpt lat="44.96159" lon="5.74566">
        <ele>918.281958</ele>
        <time>2025-07-10T14:57:15.000Z</time>
      </trkpt>
      <trkpt lat="44.96166" lon="5.74557">
        <ele>917.743334</ele>
        <time>2025-07-10T14:57:16.000Z</time>
      </trkpt>
      <trkpt lat="44.96173" lon="5.74548">
        <ele>917.214935</ele>
        <time>2025-07-10T14:57:17.000Z</time>
      </trkpt>
      <trkpt lat="44.9618" lon="5.74538">
        <ele>916.696416</ele>
        <time>2025-07-10T14:57:18.000Z</time>
      </trkpt>
      <trkpt lat="44.96185" lon="5.74527">
        <ele>916.167282</ele>
        <time>2025-07-10T14:57:19.000Z</time>
      </trkpt>
      <trkpt lat="44.9619" lon="5.74516">
        <ele>915.659494</ele>
        <time>2025-07-10T14:57:20.000Z</time>
      </trkpt>
      <trkpt lat="44.96194" lon="5.74503">
        <ele>915.12703</ele>
        <time>2025-07-10T14:57:21.000Z</time>
      </trkpt>
      <trkpt lat="44.96197" lon="5.7449">
        <ele>914.594631</ele>
        <time>2025-07-10T14:57:22.000Z</time>
      </trkpt>
      <trkpt lat="44.962" lon="5.74477">
        <ele>914.052829</ele>
        <time>2025-07-10T14:57:23.000Z</time>
      </trkpt>
      <trkpt lat="44.96202" lon="5.74463">
        <ele>913.514789</ele>
        <time>2025-07-10T14:57:24.000Z</time>
      </trkpt>
      <trkpt lat="44.96203" lon="5.7445">
        <ele>912.985118</ele>
        <time>2025-07-10T14:57:25.000Z</time>
      </trkpt>
      <trkpt lat="44.96203" lon="5.74436">
        <ele>912.453132</ele>
        <time>2025-07-10T14:57:26.000Z</time>
      </trkpt>
      <trkpt lat="44.96204" lon="5.74422">
        <ele>911.901885</ele>
        <time>2025-07-10T14:57:27.000Z</time>
      </trkpt>
      <trkpt lat="44.96203" lon="5.74407">
        <ele>911.342743</ele>
        <time>2025-07-10T14:57:28.000Z</time>
      </trkpt>
      <trkpt lat="44.96203" lon="5.74393">
        <ele>910.775842</ele>
        <time>2025-07-10T14:57:29.000Z</time>
      </trkpt>
      <trkpt lat="44.96203" lon="5.74378">
        <ele>910.216699</ele>
        <time>2025-07-10T14:57:30.000Z</time>
      </trkpt>
      <trkpt lat="44.96204" lon="5.74364">
        <ele>909.661003</ele>
        <time>2025-07-10T14:57:31.000Z</time>
      </trkpt>
      <trkpt lat="44.96204" lon="5.7435">
        <ele>909.10501</ele>
        <time>2025-07-10T14:57:32.000Z</time>
      </trkpt>
      <trkpt lat="44.96205" lon="5.74336">
        <ele>908.557067</ele>
        <time>2025-07-10T14:57:33.000Z</time>
      </trkpt>
      <trkpt lat="44.96206" lon="5.74321">
        <ele>907.992398</ele>
        <time>2025-07-10T14:57:34.000Z</time>
      </trkpt>
      <trkpt lat="44.96206" lon="5.74307">
        <ele>907.421416</ele>
        <time>2025-07-10T14:57:35.000Z</time>
      </trkpt>
      <trkpt lat="44.96207" lon="5.74292">
        <ele>906.846129</ele>
        <time>2025-07-10T14:57:36.000Z</time>
      </trkpt>
      <trkpt lat="44.96209" lon="5.74278">
        <ele>906.260445</ele>
        <time>2025-07-10T14:57:37.000Z</time>
      </trkpt>
      <trkpt lat="44.96212" lon="5.74264">
        <ele>905.659512</ele>
        <time>2025-07-10T14:57:38.000Z</time>
      </trkpt>
      <trkpt lat="44.96217" lon="5.74251">
        <ele>905.095208</ele>
        <time>2025-07-10T14:57:39.000Z</time>
      </trkpt>
      <trkpt lat="44.96224" lon="5.7424">
        <ele>904.520695</ele>
        <time>2025-07-10T14:57:40.000Z</time>
      </trkpt>
      <trkpt lat="44.96231" lon="5.7423">
        <ele>903.964764</ele>
        <time>2025-07-10T14:57:41.000Z</time>
      </trkpt>
      <trkpt lat="44.96237" lon="5.74219">
        <ele>903.410724</ele>
        <time>2025-07-10T14:57:42.000Z</time>
      </trkpt>
      <trkpt lat="44.96242" lon="5.74207">
        <ele>902.854718</ele>
        <time>2025-07-10T14:57:43.000Z</time>
      </trkpt>
      <trkpt lat="44.96245" lon="5.74194">
        <ele>902.305822</ele>
        <time>2025-07-10T14:57:44.000Z</time>
      </trkpt>
      <trkpt lat="44.96247" lon="5.74181">
        <ele>901.790052</ele>
        <time>2025-07-10T14:57:45.000Z</time>
      </trkpt>
      <trkpt lat="44.96246" lon="5.74168">
        <ele>901.282623</ele>
        <time>2025-07-10T14:57:46.000Z</time>
      </trkpt>
      <trkpt lat="44.96243" lon="5.74156">
        <ele>900.769438</ele>
        <time>2025-07-10T14:57:47.000Z</time>
      </trkpt>
      <trkpt lat="44.96239" lon="5.74145">
        <ele>900.257408</ele>
        <time>2025-07-10T14:57:48.000Z</time>
      </trkpt>
      <trkpt lat="44.96232" lon="5.74136">
        <ele>899.732142</ele>
        <time>2025-07-10T14:57:49.000Z</time>
      </trkpt>
      <trkpt lat="44.96223" lon="5.74129">
        <ele>899.176675</ele>
        <time>2025-07-10T14:57:50.000Z</time>
      </trkpt>
      <trkpt lat="44.96214" lon="5.74124">
        <ele>898.626072</ele>
        <time>2025-07-10T14:57:51.000Z</time>
      </trkpt>
      <trkpt lat="44.96204" lon="5.7412">
        <ele>898.066122</ele>
        <time>2025-07-10T14:57:52.000Z</time>
      </trkpt>
      <trkpt lat="44.96195" lon="5.74116">
        <ele>897.456668</ele>
        <time>2025-07-10T14:57:53.000Z</time>
      </trkpt>
      <trkpt lat="44.96185" lon="5.74112">
        <ele>896.847214</ele>
        <time>2025-07-10T14:57:54.000Z</time>
      </trkpt>
      <trkpt lat="44.96175" lon="5.74108">
        <ele>896.216777</ele>
        <time>2025-07-10T14:57:55.000Z</time>
      </trkpt>
      <trkpt lat="44.96165" lon="5.74103">
        <ele>895.585794</ele>
        <time>2025-07-10T14:57:56.000Z</time>
      </trkpt>
      <trkpt lat="44.96156" lon="5.74097">
        <ele>894.965015</ele>
        <time>2025-07-10T14:57:57.000Z</time>
      </trkpt>
      <trkpt lat="44.96148" lon="5.74087">
        <ele>894.315739</ele>
        <time>2025-07-10T14:57:58.000Z</time>
      </trkpt>
      <trkpt lat="44.96141" lon="5.74076">
        <ele>893.674733</ele>
        <time>2025-07-10T14:57:59.000Z</time>
      </trkpt>
      <trkpt lat="44.96135" lon="5.74064">
        <ele>893.051967</ele>
        <time>2025-07-10T14:58:00.000Z</time>
      </trkpt>
      <trkpt lat="44.96134" lon="5.74049">
        <ele>892.386561</ele>
        <time>2025-07-10T14:58:01.000Z</time>
      </trkpt>
      <trkpt lat="44.96136" lon="5.74033">
        <ele>891.73062</ele>
        <time>2025-07-10T14:58:02.000Z</time>
      </trkpt>
      <trkpt lat="44.96138" lon="5.74019">
        <ele>891.10733</ele>
        <time>2025-07-10T14:58:03.000Z</time>
      </trkpt>
      <trkpt lat="44.96142" lon="5.74007">
        <ele>890.505378</ele>
        <time>2025-07-10T14:58:04.000Z</time>
      </trkpt>
      <trkpt lat="44.96147" lon="5.73994">
        <ele>889.907337</ele>
        <time>2025-07-10T14:58:05.000Z</time>
      </trkpt>
      <trkpt lat="44.96152" lon="5.73982">
        <ele>889.304484</ele>
        <time>2025-07-10T14:58:06.000Z</time>
      </trkpt>
      <trkpt lat="44.96158" lon="5.73971">
        <ele>888.702432</ele>
        <time>2025-07-10T14:58:07.000Z</time>
      </trkpt>
      <trkpt lat="44.96163" lon="5.73959">
        <ele>888.086297</ele>
        <time>2025-07-10T14:58:08.000Z</time>
      </trkpt>
      <trkpt lat="44.96169" lon="5.73946">
        <ele>887.462936</ele>
        <time>2025-07-10T14:58:09.000Z</time>
      </trkpt>
      <trkpt lat="44.96174" lon="5.73934">
        <ele>886.933799</ele>
        <time>2025-07-10T14:58:10.000Z</time>
      </trkpt>
      <trkpt lat="44.96179" lon="5.7392">
        <ele>886.446369</ele>
        <time>2025-07-10T14:58:11.000Z</time>
      </trkpt>
      <trkpt lat="44.96182" lon="5.73906">
        <ele>885.953009</ele>
        <time>2025-07-10T14:58:12.000Z</time>
      </trkpt>
      <trkpt lat="44.96184" lon="5.73892">
        <ele>885.467204</ele>
        <time>2025-07-10T14:58:13.000Z</time>
      </trkpt>
      <trkpt lat="44.96186" lon="5.73877">
        <ele>884.980893</ele>
        <time>2025-07-10T14:58:14.000Z</time>
      </trkpt>
      <trkpt lat="44.96187" lon="5.73863">
        <ele>884.511279</ele>
        <time>2025-07-10T14:58:15.000Z</time>
      </trkpt>
      <trkpt lat="44.96186" lon="5.73849">
        <ele>884.036158</ele>
        <time>2025-07-10T14:58:16.000Z</time>
      </trkpt>
      <trkpt lat="44.96184" lon="5.73835">
        <ele>883.560042</ele>
        <time>2025-07-10T14:58:17.000Z</time>
      </trkpt>
      <trkpt lat="44.9618" lon="5.73823">
        <ele>883.108646</ele>
        <time>2025-07-10T14:58:18.000Z</time>
      </trkpt>
      <trkpt lat="44.96174" lon="5.73812">
        <ele>882.63236</ele>
        <time>2025-07-10T14:58:19.000Z</time>
      </trkpt>
      <trkpt lat="44.96167" lon="5.73801">
        <ele>882.170641</ele>
        <time>2025-07-10T14:58:20.000Z</time>
      </trkpt>
      <trkpt lat="44.96161" lon="5.7379">
        <ele>881.701606</ele>
        <time>2025-07-10T14:58:21.000Z</time>
      </trkpt>
      <trkpt lat="44.96156" lon="5.73778">
        <ele>881.237843</ele>
        <time>2025-07-10T14:58:22.000Z</time>
      </trkpt>
      <trkpt lat="44.96153" lon="5.73765">
        <ele>880.782141</ele>
        <time>2025-07-10T14:58:23.000Z</time>
      </trkpt>
      <trkpt lat="44.96152" lon="5.73751">
        <ele>880.313182</ele>
        <time>2025-07-10T14:58:24.000Z</time>
      </trkpt>
      <trkpt lat="44.96155" lon="5.73737">
        <ele>879.83279</ele>
        <time>2025-07-10T14:58:25.000Z</time>
      </trkpt>
      <trkpt lat="44.96158" lon="5.73724">
        <ele>879.384738</ele>
        <time>2025-07-10T14:58:26.000Z</time>
      </trkpt>
      <trkpt lat="44.96163" lon="5.73712">
        <ele>878.934308</ele>
        <time>2025-07-10T14:58:27.000Z</time>
      </trkpt>
      <trkpt lat="44.96167" lon="5.737">
        <ele>878.429185</ele>
        <time>2025-07-10T14:58:28.000Z</time>
      </trkpt>
      <trkpt lat="44.96171" lon="5.73687">
        <ele>877.915794</ele>
        <time>2025-07-10T14:58:29.000Z</time>
      </trkpt>
      <trkpt lat="44.96174" lon="5.73675">
        <ele>877.391955</ele>
        <time>2025-07-10T14:58:30.000Z</time>
      </trkpt>
      <trkpt lat="44.96178" lon="5.73662">
        <ele>876.864047</ele>
        <time>2025-07-10T14:58:31.000Z</time>
      </trkpt>
      <trkpt lat="44.9618" lon="5.73648">
        <ele>876.328833</ele>
        <time>2025-07-10T14:58:32.000Z</time>
      </trkpt>
      <trkpt lat="44.96181" lon="5.73635">
        <ele>875.804236</ele>
        <time>2025-07-10T14:58:33.000Z</time>
      </trkpt>
      <trkpt lat="44.96181" lon="5.73621">
        <ele>875.270303</ele>
        <time>2025-07-10T14:58:34.000Z</time>
      </trkpt>
      <trkpt lat="44.96179" lon="5.73607">
        <ele>874.737657</ele>
        <time>2025-07-10T14:58:35.000Z</time>
      </trkpt>
      <trkpt lat="44.96177" lon="5.73593">
        <ele>874.19141</ele>
        <time>2025-07-10T14:58:36.000Z</time>
      </trkpt>
      <trkpt lat="44.96175" lon="5.73578">
        <ele>873.619105</ele>
        <time>2025-07-10T14:58:37.000Z</time>
      </trkpt>
      <trkpt lat="44.96174" lon="5.73563">
        <ele>873.057921</ele>
        <time>2025-07-10T14:58:38.000Z</time>
      </trkpt>
      <trkpt lat="44.96175" lon="5.73549">
        <ele>872.497072</ele>
        <time>2025-07-10T14:58:39.000Z</time>
      </trkpt>
      <trkpt lat="44.96177" lon="5.73534">
        <ele>871.928494</ele>
        <time>2025-07-10T14:58:40.000Z</time>
      </trkpt>
      <trkpt lat="44.9618" lon="5.7352">
        <ele>871.374347</ele>
        <time>2025-07-10T14:58:41.000Z</time>
      </trkpt>
      <trkpt lat="44.96183" lon="5.73506">
        <ele>870.820819</ele>
        <time>2025-07-10T14:58:42.000Z</time>
      </trkpt>
      <trkpt lat="44.96186" lon="5.73492">
        <ele>870.270935</ele>
        <time>2025-07-10T14:58:43.000Z</time>
      </trkpt>
      <trkpt lat="44.96188" lon="5.73479">
        <ele>869.735838</ele>
        <time>2025-07-10T14:58:44.000Z</time>
      </trkpt>
      <trkpt lat="44.9619" lon="5.73465">
        <ele>869.204455</ele>
        <time>2025-07-10T14:58:45.000Z</time>
      </trkpt>
      <trkpt lat="44.96192" lon="5.73451">
        <ele>868.673209</ele>
        <time>2025-07-10T14:58:46.000Z</time>
      </trkpt>
      <trkpt lat="44.96195" lon="5.73438">
        <ele>868.141105</ele>
        <time>2025-07-10T14:58:47.000Z</time>
      </trkpt>
      <trkpt lat="44.96196" lon="5.73424">
        <ele>867.613888</ele>
        <time>2025-07-10T14:58:48.000Z</time>
      </trkpt>
      <trkpt lat="44.96198" lon="5.7341">
        <ele>867.090319</ele>
        <time>2025-07-10T14:58:49.000Z</time>
      </trkpt>
      <trkpt lat="44.96199" lon="5.73396">
        <ele>866.565449</ele>
        <time>2025-07-10T14:58:50.000Z</time>
      </trkpt>
      <trkpt lat="44.96199" lon="5.73383">
        <ele>866.051716</ele>
        <time>2025-07-10T14:58:51.000Z</time>
      </trkpt>
      <trkpt lat="44.96199" lon="5.73369">
        <ele>865.537209</ele>
        <time>2025-07-10T14:58:52.000Z</time>
      </trkpt>
      <trkpt lat="44.96197" lon="5.73356">
        <ele>865.01827</ele>
        <time>2025-07-10T14:58:53.000Z</time>
      </trkpt>
      <trkpt lat="44.96195" lon="5.73342">
        <ele>864.488233</ele>
        <time>2025-07-10T14:58:54.000Z</time>
      </trkpt>
      <trkpt lat="44.96194" lon="5.73328">
        <ele>863.953423</ele>
        <time>2025-07-10T14:58:55.000Z</time>
      </trkpt>
      <trkpt lat="44.96194" lon="5.73313">
        <ele>863.413635</ele>
        <time>2025-07-10T14:58:56.000Z</time>
      </trkpt>
      <trkpt lat="44.96196" lon="5.73299">
        <ele>862.873104</ele>
        <time>2025-07-10T14:58:57.000Z</time>
      </trkpt>
      <trkpt lat="44.96198" lon="5.73285">
        <ele>862.332425</ele>
        <time>2025-07-10T14:58:58.000Z</time>
      </trkpt>
      <trkpt lat="44.962" lon="5.73271">
        <ele>861.795365</ele>
        <time>2025-07-10T14:58:59.000Z</time>
      </trkpt>
      <trkpt lat="44.96202" lon="5.73258">
        <ele>861.282111</ele>
        <time>2025-07-10T14:59:00.000Z</time>
      </trkpt>
      <trkpt lat="44.96203" lon="5.73245">
        <ele>860.790577</ele>
        <time>2025-07-10T14:59:01.000Z</time>
      </trkpt>
      <trkpt lat="44.96203" lon="5.73232">
        <ele>860.315421</ele>
        <time>2025-07-10T14:59:02.000Z</time>
      </trkpt>
      <trkpt lat="44.96203" lon="5.7322">
        <ele>859.847925</ele>
        <time>2025-07-10T14:59:03.000Z</time>
      </trkpt>
      <trkpt lat="44.96203" lon="5.73208">
        <ele>859.367312</ele>
        <time>2025-07-10T14:59:04.000Z</time>
      </trkpt>
      <trkpt lat="44.96204" lon="5.73196">
        <ele>858.857451</ele>
        <time>2025-07-10T14:59:05.000Z</time>
      </trkpt>
      <trkpt lat="44.96207" lon="5.73185">
        <ele>858.364736</ele>
        <time>2025-07-10T14:59:06.000Z</time>
      </trkpt>
      <trkpt lat="44.96211" lon="5.73175">
        <ele>857.863958</ele>
        <time>2025-07-10T14:59:07.000Z</time>
      </trkpt>
      <trkpt lat="44.96218" lon="5.73167">
        <ele>857.36013</ele>
        <time>2025-07-10T14:59:08.000Z</time>
      </trkpt>
      <trkpt lat="44.96225" lon="5.73162">
        <ele>856.853097</ele>
        <time>2025-07-10T14:59:09.000Z</time>
      </trkpt>
      <trkpt lat="44.96235" lon="5.7316">
        <ele>856.292993</ele>
        <time>2025-07-10T14:59:10.000Z</time>
      </trkpt>
      <trkpt lat="44.96244" lon="5.73157">
        <ele>855.707637</ele>
        <time>2025-07-10T14:59:11.000Z</time>
      </trkpt>
      <trkpt lat="44.96254" lon="5.73154">
        <ele>855.101431</ele>
        <time>2025-07-10T14:59:12.000Z</time>
      </trkpt>
      <trkpt lat="44.96264" lon="5.73151">
        <ele>854.492596</ele>
        <time>2025-07-10T14:59:13.000Z</time>
      </trkpt>
      <trkpt lat="44.96274" lon="5.73147">
        <ele>853.876643</ele>
        <time>2025-07-10T14:59:14.000Z</time>
      </trkpt>
      <trkpt lat="44.96284" lon="5.73142">
        <ele>853.241007</ele>
        <time>2025-07-10T14:59:15.000Z</time>
      </trkpt>
      <trkpt lat="44.96293" lon="5.73136">
        <ele>852.607275</ele>
        <time>2025-07-10T14:59:16.000Z</time>
      </trkpt>
      <trkpt lat="44.96302" lon="5.73127">
        <ele>851.964335</ele>
        <time>2025-07-10T14:59:17.000Z</time>
      </trkpt>
      <trkpt lat="44.9631" lon="5.73118">
        <ele>851.335709</ele>
        <time>2025-07-10T14:59:18.000Z</time>
      </trkpt>
      <trkpt lat="44.96318" lon="5.73109">
        <ele>850.714685</ele>
        <time>2025-07-10T14:59:19.000Z</time>
      </trkpt>
      <trkpt lat="44.96326" lon="5.731">
        <ele>850.093404</ele>
        <time>2025-07-10T14:59:20.000Z</time>
      </trkpt>
      <trkpt lat="44.96335" lon="5.73091">
        <ele>849.468129</ele>
        <time>2025-07-10T14:59:21.000Z</time>
      </trkpt>
      <trkpt lat="44.96344" lon="5.73083">
        <ele>848.837578</ele>
        <time>2025-07-10T14:59:22.000Z</time>
      </trkpt>
      <trkpt lat="44.96353" lon="5.73076">
        <ele>848.211976</ele>
        <time>2025-07-10T14:59:23.000Z</time>
      </trkpt>
      <trkpt lat="44.96362" lon="5.73068">
        <ele>847.577277</ele>
        <time>2025-07-10T14:59:24.000Z</time>
      </trkpt>
      <trkpt lat="44.96371" lon="5.7306">
        <ele>846.946396</ele>
        <time>2025-07-10T14:59:25.000Z</time>
      </trkpt>
      <trkpt lat="44.9638" lon="5.73053">
        <ele>846.321969</ele>
        <time>2025-07-10T14:59:26.000Z</time>
      </trkpt>
      <trkpt lat="44.96389" lon="5.73045">
        <ele>845.697543</ele>
        <time>2025-07-10T14:59:27.000Z</time>
      </trkpt>
      <trkpt lat="44.96398" lon="5.73038">
        <ele>845.063645</ele>
        <time>2025-07-10T14:59:28.000Z</time>
      </trkpt>
      <trkpt lat="44.96407" lon="5.7303">
        <ele>844.434938</ele>
        <time>2025-07-10T14:59:29.000Z</time>
      </trkpt>
      <trkpt lat="44.96416" lon="5.73023">
        <ele>843.799648</ele>
        <time>2025-07-10T14:59:30.000Z</time>
      </trkpt>
      <trkpt lat="44.96425" lon="5.73015">
        <ele>843.166573</ele>
        <time>2025-07-10T14:59:31.000Z</time>
      </trkpt>
      <trkpt lat="44.96434" lon="5.73007">
        <ele>842.520993</ele>
        <time>2025-07-10T14:59:32.000Z</time>
      </trkpt>
      <trkpt lat="44.96443" lon="5.72999">
        <ele>841.882764</ele>
        <time>2025-07-10T14:59:33.000Z</time>
      </trkpt>
      <trkpt lat="44.96452" lon="5.72991">
        <ele>841.22663</ele>
        <time>2025-07-10T14:59:34.000Z</time>
      </trkpt>
      <trkpt lat="44.96461" lon="5.72982">
        <ele>840.573024</ele>
        <time>2025-07-10T14:59:35.000Z</time>
      </trkpt>
      <trkpt lat="44.9647" lon="5.72974">
        <ele>839.930966</ele>
        <time>2025-07-10T14:59:36.000Z</time>
      </trkpt>
      <trkpt lat="44.96479" lon="5.72966">
        <ele>839.288322</ele>
        <time>2025-07-10T14:59:37.000Z</time>
      </trkpt>
      <trkpt lat="44.96488" lon="5.72958">
        <ele>838.641881</ele>
        <time>2025-07-10T14:59:38.000Z</time>
      </trkpt>
      <trkpt lat="44.96498" lon="5.72954">
        <ele>838.034584</ele>
        <time>2025-07-10T14:59:39.000Z</time>
      </trkpt>
      <trkpt lat="44.96508" lon="5.72952">
        <ele>837.35399</ele>
        <time>2025-07-10T14:59:40.000Z</time>
      </trkpt>
      <trkpt lat="44.96518" lon="5.72952">
        <ele>836.657865</ele>
        <time>2025-07-10T14:59:41.000Z</time>
      </trkpt>
      <trkpt lat="44.96529" lon="5.72954">
        <ele>835.928883</ele>
        <time>2025-07-10T14:59:42.000Z</time>
      </trkpt>
      <trkpt lat="44.96539" lon="5.72956">
        <ele>835.219493</ele>
        <time>2025-07-10T14:59:43.000Z</time>
      </trkpt>
      <trkpt lat="44.96549" lon="5.72959">
        <ele>834.49594</ele>
        <time>2025-07-10T14:59:44.000Z</time>
      </trkpt>
      <trkpt lat="44.9656" lon="5.72963">
        <ele>833.774922</ele>
        <time>2025-07-10T14:59:45.000Z</time>
      </trkpt>
      <trkpt lat="44.96569" lon="5.72968">
        <ele>833.054351</ele>
        <time>2025-07-10T14:59:46.000Z</time>
      </trkpt>
      <trkpt lat="44.96579" lon="5.72975">
        <ele>832.3308</ele>
        <time>2025-07-10T14:59:47.000Z</time>
      </trkpt>
      <trkpt lat="44.96588" lon="5.72982">
        <ele>831.624556</ele>
        <time>2025-07-10T14:59:48.000Z</time>
      </trkpt>
      <trkpt lat="44.96598" lon="5.72988">
        <ele>830.905077</ele>
        <time>2025-07-10T14:59:49.000Z</time>
      </trkpt>
      <trkpt lat="44.96607" lon="5.72994">
        <ele>830.184506</ele>
        <time>2025-07-10T14:59:50.000Z</time>
      </trkpt>
      <trkpt lat="44.96618" lon="5.72998">
        <ele>829.440639</ele>
        <time>2025-07-10T14:59:51.000Z</time>
      </trkpt>
      <trkpt lat="44.96629" lon="5.73">
        <ele>828.704899</ele>
        <time>2025-07-10T14:59:52.000Z</time>
      </trkpt>
      <trkpt lat="44.96639" lon="5.73">
        <ele>827.968552</ele>
        <time>2025-07-10T14:59:53.000Z</time>
      </trkpt>
      <trkpt lat="44.9665" lon="5.72997">
        <ele>827.233469</ele>
        <time>2025-07-10T14:59:54.000Z</time>
      </trkpt>
      <trkpt lat="44.9666" lon="5.72991">
        <ele>826.487549</ele>
        <time>2025-07-10T14:59:55.000Z</time>
      </trkpt>
      <trkpt lat="44.9667" lon="5.72984">
        <ele>825.753389</ele>
        <time>2025-07-10T14:59:56.000Z</time>
      </trkpt>
      <trkpt lat="44.96679" lon="5.72977">
        <ele>825.198555</ele>
        <time>2025-07-10T14:59:57.000Z</time>
      </trkpt>
      <trkpt lat="44.96689" lon="5.72971">
        <ele>824.666126</ele>
        <time>2025-07-10T14:59:58.000Z</time>
      </trkpt>
      <trkpt lat="44.96699" lon="5.72966">
        <ele>824.15677</ele>
        <time>2025-07-10T14:59:59.000Z</time>
      </trkpt>
      <trkpt lat="44.96708" lon="5.72963">
        <ele>823.669284</ele>
        <time>2025-07-10T15:00:00.000Z</time>
      </trkpt>
      <trkpt lat="44.96718" lon="5.72964">
        <ele>823.188654</ele>
        <time>2025-07-10T15:00:01.000Z</time>
      </trkpt>
      <trkpt lat="44.96727" lon="5.72965">
        <ele>822.700372</ele>
        <time>2025-07-10T15:00:02.000Z</time>
      </trkpt>
      <trkpt lat="44.96737" lon="5.72967">
        <ele>822.205793</ele>
        <time>2025-07-10T15:00:03.000Z</time>
      </trkpt>
      <trkpt lat="44.96747" lon="5.72969">
        <ele>821.69764</ele>
        <time>2025-07-10T15:00:04.000Z</time>
      </trkpt>
      <trkpt lat="44.96757" lon="5.72971">
        <ele>821.194456</ele>
        <time>2025-07-10T15:00:05.000Z</time>
      </trkpt>
      <trkpt lat="44.96767" lon="5.72972">
        <ele>820.685897</ele>
        <time>2025-07-10T15:00:06.000Z</time>
      </trkpt>
      <trkpt lat="44.96777" lon="5.72974">
        <ele>820.181409</ele>
        <time>2025-07-10T15:00:07.000Z</time>
      </trkpt>
      <trkpt lat="44.96788" lon="5.72975">
        <ele>819.664672</ele>
        <time>2025-07-10T15:00:08.000Z</time>
      </trkpt>
      <trkpt lat="44.96798" lon="5.72976">
        <ele>819.138491</ele>
        <time>2025-07-10T15:00:09.000Z</time>
      </trkpt>
      <trkpt lat="44.96808" lon="5.72977">
        <ele>818.628194</ele>
        <time>2025-07-10T15:00:10.000Z</time>
      </trkpt>
      <trkpt lat="44.96819" lon="5.72976">
        <ele>818.097449</ele>
        <time>2025-07-10T15:00:11.000Z</time>
      </trkpt>
      <trkpt lat="44.96829" lon="5.72974">
        <ele>817.579847</ele>
        <time>2025-07-10T15:00:12.000Z</time>
      </trkpt>
      <trkpt lat="44.96839" lon="5.7297">
        <ele>817.067203</ele>
        <time>2025-07-10T15:00:13.000Z</time>
      </trkpt>
      <trkpt lat="44.96849" lon="5.72967">
        <ele>816.621961</ele>
        <time>2025-07-10T15:00:14.000Z</time>
      </trkpt>
      <trkpt lat="44.96859" lon="5.72964">
        <ele>816.312583</ele>
        <time>2025-07-10T15:00:15.000Z</time>
      </trkpt>
      <trkpt lat="44.96868" lon="5.72962">
        <ele>816.002062</ele>
        <time>2025-07-10T15:00:16.000Z</time>
      </trkpt>
      <trkpt lat="44.96878" lon="5.72961">
        <ele>815.690688</ele>
        <time>2025-07-10T15:00:17.000Z</time>
      </trkpt>
      <trkpt lat="44.96889" lon="5.72961">
        <ele>815.376475</ele>
        <time>2025-07-10T15:00:18.000Z</time>
      </trkpt>
      <trkpt lat="44.96899" lon="5.72961">
        <ele>815.065373</ele>
        <time>2025-07-10T15:00:19.000Z</time>
      </trkpt>
      <trkpt lat="44.96909" lon="5.72962">
        <ele>814.754155</ele>
        <time>2025-07-10T15:00:20.000Z</time>
      </trkpt>
      <trkpt lat="44.96919" lon="5.72962">
        <ele>814.436648</ele>
        <time>2025-07-10T15:00:21.000Z</time>
      </trkpt>
      <trkpt lat="44.96929" lon="5.72963">
        <ele>814.116032</ele>
        <time>2025-07-10T15:00:22.000Z</time>
      </trkpt>
      <trkpt lat="44.96939" lon="5.72963">
        <ele>813.795598</ele>
        <time>2025-07-10T15:00:23.000Z</time>
      </trkpt>
      <trkpt lat="44.9695" lon="5.72963">
        <ele>813.478274</ele>
        <time>2025-07-10T15:00:24.000Z</time>
      </trkpt>
      <trkpt lat="44.9696" lon="5.72962">
        <ele>813.166403</ele>
        <time>2025-07-10T15:00:25.000Z</time>
      </trkpt>
      <trkpt lat="44.96969" lon="5.72959">
        <ele>812.865785</ele>
        <time>2025-07-10T15:00:26.000Z</time>
      </trkpt>
      <trkpt lat="44.96978" lon="5.72953">
        <ele>812.554317</ele>
        <time>2025-07-10T15:00:27.000Z</time>
      </trkpt>
      <trkpt lat="44.96986" lon="5.72946">
        <ele>812.260107</ele>
        <time>2025-07-10T15:00:28.000Z</time>
      </trkpt>
      <trkpt lat="44.96993" lon="5.72938">
        <ele>811.984398</ele>
        <time>2025-07-10T15:00:29.000Z</time>
      </trkpt>
      <trkpt lat="44.96999" lon="5.72927">
        <ele>811.687722</ele>
        <time>2025-07-10T15:00:30.000Z</time>
      </trkpt>
      <trkpt lat="44.97003" lon="5.72916">
        <ele>811.402326</ele>
        <time>2025-07-10T15:00:31.000Z</time>
      </trkpt>
      <trkpt lat="44.97005" lon="5.72904">
        <ele>811.145957</ele>
        <time>2025-07-10T15:00:32.000Z</time>
      </trkpt>
      <trkpt lat="44.97005" lon="5.72894">
        <ele>811.381249</ele>
        <time>2025-07-10T15:00:33.000Z</time>
      </trkpt>
      <trkpt lat="44.97005" lon="5.72883">
        <ele>811.700189</ele>
        <time>2025-07-10T15:00:34.000Z</time>
      </trkpt>
      <trkpt lat="44.97003" lon="5.72873">
        <ele>812.019049</ele>
        <time>2025-07-10T15:00:35.000Z</time>
      </trkpt>
      <trkpt lat="44.97001" lon="5.72863">
        <ele>812.330182</ele>
        <time>2025-07-10T15:00:36.000Z</time>
      </trkpt>
      <trkpt lat="44.96999" lon="5.72854">
        <ele>812.622107</ele>
        <time>2025-07-10T15:00:37.000Z</time>
      </trkpt>
      <trkpt lat="44.96997" lon="5.72845">
        <ele>812.898057</ele>
        <time>2025-07-10T15:00:38.000Z</time>
      </trkpt>
      <trkpt lat="44.96995" lon="5.72837">
        <ele>813.167218</ele>
        <time>2025-07-10T15:00:39.000Z</time>
      </trkpt>
      <trkpt lat="44.96992" lon="5.7283">
        <ele>813.419085</ele>
        <time>2025-07-10T15:00:40.000Z</time>
      </trkpt>
      <trkpt lat="44.96989" lon="5.72823">
        <ele>813.657029</ele>
        <time>2025-07-10T15:00:41.000Z</time>
      </trkpt>
      <trkpt lat="44.96986" lon="5.72818">
        <ele>813.874954</ele>
        <time>2025-07-10T15:00:42.000Z</time>
      </trkpt>
      <trkpt lat="44.96983" lon="5.72812">
        <ele>814.089101</ele>
        <time>2025-07-10T15:00:43.000Z</time>
      </trkpt>
      <trkpt lat="44.9698" lon="5.72808">
        <ele>814.286951</ele>
        <time>2025-07-10T15:00:44.000Z</time>
      </trkpt>
      <trkpt lat="44.96976" lon="5.72804">
        <ele>814.467278</ele>
        <time>2025-07-10T15:00:45.000Z</time>
      </trkpt>
      <trkpt lat="44.96973" lon="5.72801">
        <ele>814.638909</ele>
        <time>2025-07-10T15:00:46.000Z</time>
      </trkpt>
      <trkpt lat="44.9697" lon="5.72798">
        <ele>814.800261</ele>
        <time>2025-07-10T15:00:47.000Z</time>
      </trkpt>
      <trkpt lat="44.96967" lon="5.72795">
        <ele>814.949568</ele>
        <time>2025-07-10T15:00:48.000Z</time>
      </trkpt>
      <trkpt lat="44.96964" lon="5.72793">
        <ele>815.098447</ele>
        <time>2025-07-10T15:00:49.000Z</time>
      </trkpt>
      <trkpt lat="44.96961" lon="5.7279">
        <ele>815.239553</ele>
        <time>2025-07-10T15:00:50.000Z</time>
      </trkpt>
      <trkpt lat="44.96958" lon="5.72788">
        <ele>815.371052</ele>
        <time>2025-07-10T15:00:51.000Z</time>
      </trkpt>
      <trkpt lat="44.96956" lon="5.72786">
        <ele>815.497959</ele>
        <time>2025-07-10T15:00:52.000Z</time>
      </trkpt>
      <trkpt lat="44.96953" lon="5.72784">
        <ele>815.62468</ele>
        <time>2025-07-10T15:00:53.000Z</time>
      </trkpt>
      <trkpt lat="44.9695" lon="5.72783">
        <ele>815.75012</ele>
        <time>2025-07-10T15:00:54.000Z</time>
      </trkpt>
      <trkpt lat="44.96948" lon="5.72782">
        <ele>815.872408</ele>
        <time>2025-07-10T15:00:55.000Z</time>
      </trkpt>
      <trkpt lat="44.96945" lon="5.72781">
        <ele>815.983011</ele>
        <time>2025-07-10T15:00:56.000Z</time>
      </trkpt>
      <trkpt lat="44.96943" lon="5.7278">
        <ele>816.088121</ele>
        <time>2025-07-10T15:00:57.000Z</time>
      </trkpt>
      <trkpt lat="44.96941" lon="5.72779">
        <ele>816.18641</ele>
        <time>2025-07-10T15:00:58.000Z</time>
      </trkpt>
      <trkpt lat="44.96939" lon="5.72778">
        <ele>816.281414</ele>
        <time>2025-07-10T15:00:59.000Z</time>
      </trkpt>
      <trkpt lat="44.96937" lon="5.72776">
        <ele>816.36944</ele>
        <time>2025-07-10T15:01:00.000Z</time>
      </trkpt>
      <trkpt lat="44.96935" lon="5.72775">
        <ele>816.453515</ele>
        <time>2025-07-10T15:01:01.000Z</time>
      </trkpt>
      <trkpt lat="44.96933" lon="5.72774">
        <ele>816.541541</ele>
        <time>2025-07-10T15:01:02.000Z</time>
      </trkpt>
      <trkpt lat="44.96931" lon="5.72773">
        <ele>816.631527</ele>
        <time>2025-07-10T15:01:03.000Z</time>
      </trkpt>
      <trkpt lat="44.96929" lon="5.72772">
        <ele>816.724678</ele>
        <time>2025-07-10T15:01:04.000Z</time>
      </trkpt>
      <trkpt lat="44.96927" lon="5.72771">
        <ele>816.811599</ele>
        <time>2025-07-10T15:01:05.000Z</time>
      </trkpt>
      <trkpt lat="44.96925" lon="5.7277">
        <ele>816.902551</ele>
        <time>2025-07-10T15:01:06.000Z</time>
      </trkpt>
      <trkpt lat="44.96923" lon="5.72769">
        <ele>816.993503</ele>
        <time>2025-07-10T15:01:07.000Z</time>
      </trkpt>
      <trkpt lat="44.96921" lon="5.72768">
        <ele>817.085511</ele>
        <time>2025-07-10T15:01:08.000Z</time>
      </trkpt>
      <trkpt lat="44.96919" lon="5.72767">
        <ele>817.177519</ele>
        <time>2025-07-10T15:01:09.000Z</time>
      </trkpt>
      <trkpt lat="44.96917" lon="5.72766">
        <ele>817.27067</ele>
        <time>2025-07-10T15:01:10.000Z</time>
      </trkpt>
      <trkpt lat="44.96915" lon="5.72764">
        <ele>817.36117</ele>
        <time>2025-07-10T15:01:11.000Z</time>
      </trkpt>
      <trkpt lat="44.96913" lon="5.72763">
        <ele>817.456854</ele>
        <time>2025-07-10T15:01:12.000Z</time>
      </trkpt>
      <trkpt lat="44.96911" lon="5.72762">
        <ele>817.544937</ele>
        <time>2025-07-10T15:01:13.000Z</time>
      </trkpt>
      <trkpt lat="44.9691" lon="5.7276">
        <ele>817.634521</ele>
        <time>2025-07-10T15:01:14.000Z</time>
      </trkpt>
      <trkpt lat="44.96908" lon="5.72759">
        <ele>817.730205</ele>
        <time>2025-07-10T15:01:15.000Z</time>
      </trkpt>
      <trkpt lat="44.96906" lon="5.72757">
        <ele>817.816866</ele>
        <time>2025-07-10T15:01:16.000Z</time>
      </trkpt>
      <trkpt lat="44.96904" lon="5.72756">
        <ele>817.894521</ele>
        <time>2025-07-10T15:01:17.000Z</time>
      </trkpt>
      <trkpt lat="44.96903" lon="5.72755">
        <ele>817.97045</ele>
        <time>2025-07-10T15:01:18.000Z</time>
      </trkpt>
      <trkpt lat="44.96901" lon="5.72753">
        <ele>818.043975</ele>
        <time>2025-07-10T15:01:19.000Z</time>
      </trkpt>
      <trkpt lat="44.969" lon="5.72752">
        <ele>818.119292</ele>
        <time>2025-07-10T15:01:20.000Z</time>
      </trkpt>
      <trkpt lat="44.96899" lon="5.7275">
        <ele>818.198421</ele>
        <time>2025-07-10T15:01:21.000Z</time>
      </trkpt>
      <trkpt lat="44.96897" lon="5.72749">
        <ele>818.279097</ele>
        <time>2025-07-10T15:01:22.000Z</time>
      </trkpt>
      <trkpt lat="44.96896" lon="5.72747">
        <ele>818.356162</ele>
        <time>2025-07-10T15:01:23.000Z</time>
      </trkpt>
      <trkpt lat="44.96894" lon="5.72746">
        <ele>818.433816</ele>
        <time>2025-07-10T15:01:24.000Z</time>
      </trkpt>
      <trkpt lat="44.96892" lon="5.72745">
        <ele>818.514493</ele>
        <time>2025-07-10T15:01:25.000Z</time>
      </trkpt>
      <trkpt lat="44.96891" lon="5.72743">
        <ele>818.588395</ele>
        <time>2025-07-10T15:01:26.000Z</time>
      </trkpt>
      <trkpt lat="44.9689" lon="5.72741">
        <ele>818.666416</ele>
        <time>2025-07-10T15:01:27.000Z</time>
      </trkpt>
      <trkpt lat="44.96888" lon="5.7274">
        <ele>818.740318</ele>
        <time>2025-07-10T15:01:28.000Z</time>
      </trkpt>
      <trkpt lat="44.96887" lon="5.72738">
        <ele>818.812464</ele>
        <time>2025-07-10T15:01:29.000Z</time>
      </trkpt>
      <trkpt lat="44.96886" lon="5.72736">
        <ele>818.9232</ele>
        <time>2025-07-10T15:01:30.000Z</time>
      </trkpt>
      <trkpt lat="44.96885" lon="5.72734">
        <ele>819.030418</ele>
        <time>2025-07-10T15:01:31.000Z</time>
      </trkpt>
      <trkpt lat="44.96884" lon="5.72732">
        <ele>819.13349</ele>
        <time>2025-07-10T15:01:32.000Z</time>
      </trkpt>
      <trkpt lat="44.96883" lon="5.7273">
        <ele>819.240337</ele>
        <time>2025-07-10T15:01:33.000Z</time>
      </trkpt>
      <trkpt lat="44.96883" lon="5.72728">
        <ele>819.349076</ele>
        <time>2025-07-10T15:01:34.000Z</time>
      </trkpt>
      <trkpt lat="44.96882" lon="5.72726">
        <ele>819.44966</ele>
        <time>2025-07-10T15:01:35.000Z</time>
      </trkpt>
      <trkpt lat="44.96881" lon="5.72724">
        <ele>819.563769</ele>
        <time>2025-07-10T15:01:36.000Z</time>
      </trkpt>
      <trkpt lat="44.9688" lon="5.72722">
        <ele>819.677877</ele>
        <time>2025-07-10T15:01:37.000Z</time>
      </trkpt>
      <trkpt lat="44.96879" lon="5.7272">
        <ele>819.79207</ele>
        <time>2025-07-10T15:01:38.000Z</time>
      </trkpt>
      <trkpt lat="44.96878" lon="5.72718">
        <ele>819.902747</ele>
        <time>2025-07-10T15:01:39.000Z</time>
      </trkpt>
      <trkpt lat="44.96877" lon="5.72716">
        <ele>820.009966</ele>
        <time>2025-07-10T15:01:40.000Z</time>
      </trkpt>
      <trkpt lat="44.96876" lon="5.72714">
        <ele>820.124522</ele>
        <time>2025-07-10T15:01:41.000Z</time>
      </trkpt>
      <trkpt lat="44.96875" lon="5.72711">
        <ele>820.236026</ele>
        <time>2025-07-10T15:01:42.000Z</time>
      </trkpt>
      <trkpt lat="44.96874" lon="5.72709">
        <ele>820.350135</ele>
        <time>2025-07-10T15:01:43.000Z</time>
      </trkpt>
      <trkpt lat="44.96873" lon="5.72707">
        <ele>820.468615</ele>
        <time>2025-07-10T15:01:44.000Z</time>
      </trkpt>
      <trkpt lat="44.96873" lon="5.72705">
        <ele>820.585726</ele>
        <time>2025-07-10T15:01:45.000Z</time>
      </trkpt>
      <trkpt lat="44.96872" lon="5.72702">
        <ele>820.69201</ele>
        <time>2025-07-10T15:01:46.000Z</time>
      </trkpt>
      <trkpt lat="44.96871" lon="5.727">
        <ele>820.800749</ele>
        <time>2025-07-10T15:01:47.000Z</time>
      </trkpt>
      <trkpt lat="44.96871" lon="5.72698">
        <ele>820.911252</ele>
        <time>2025-07-10T15:01:48.000Z</time>
      </trkpt>
      <trkpt lat="44.9687" lon="5.72696">
        <ele>821.029732</ele>
        <time>2025-07-10T15:01:49.000Z</time>
      </trkpt>
      <trkpt lat="44.96869" lon="5.72693">
        <ele>821.142597</ele>
        <time>2025-07-10T15:01:50.000Z</time>
      </trkpt>
      <trkpt lat="44.96868" lon="5.72691">
        <ele>821.254101</ele>
        <time>2025-07-10T15:01:51.000Z</time>
      </trkpt>
      <trkpt lat="44.96868" lon="5.72689">
        <ele>821.36284</ele>
        <time>2025-07-10T15:01:52.000Z</time>
      </trkpt>
      <trkpt lat="44.96867" lon="5.72686">
        <ele>821.482433</ele>
        <time>2025-07-10T15:01:53.000Z</time>
      </trkpt>
      <trkpt lat="44.96866" lon="5.72684">
        <ele>821.595298</ele>
        <time>2025-07-10T15:01:54.000Z</time>
      </trkpt>
      <trkpt lat="44.96865" lon="5.72682">
        <ele>821.712318</ele>
        <time>2025-07-10T15:01:55.000Z</time>
      </trkpt>
      <trkpt lat="44.96865" lon="5.72679">
        <ele>821.840125</ele>
        <time>2025-07-10T15:01:56.000Z</time>
      </trkpt>
      <trkpt lat="44.96864" lon="5.72677">
        <ele>821.959718</ele>
        <time>2025-07-10T15:01:57.000Z</time>
      </trkpt>
      <trkpt lat="44.96863" lon="5.72675">
        <ele>822.071222</ele>
        <time>2025-07-10T15:01:58.000Z</time>
      </trkpt>
      <trkpt lat="44.96862" lon="5.72672">
        <ele>822.182726</ele>
        <time>2025-07-10T15:01:59.000Z</time>
      </trkpt>
      <trkpt lat="44.96861" lon="5.7267">
        <ele>822.29423</ele>
        <time>2025-07-10T15:02:00.000Z</time>
      </trkpt>
      <trkpt lat="44.96861" lon="5.72668">
        <ele>822.408786</ele>
        <time>2025-07-10T15:02:01.000Z</time>
      </trkpt>
      <trkpt lat="44.9686" lon="5.72666">
        <ele>822.523343</ele>
        <time>2025-07-10T15:02:02.000Z</time>
      </trkpt>
      <trkpt lat="44.96859" lon="5.72664">
        <ele>822.6379</ele>
        <time>2025-07-10T15:02:03.000Z</time>
      </trkpt>
      <trkpt lat="44.96858" lon="5.72661">
        <ele>822.752456</ele>
        <time>2025-07-10T15:02:04.000Z</time>
      </trkpt>
      <trkpt lat="44.96857" lon="5.72659">
        <ele>822.867988</ele>
        <time>2025-07-10T15:02:05.000Z</time>
      </trkpt>
      <trkpt lat="44.96856" lon="5.72657">
        <ele>822.974835</ele>
        <time>2025-07-10T15:02:06.000Z</time>
      </trkpt>
      <trkpt lat="44.96855" lon="5.72655">
        <ele>823.090786</ele>
        <time>2025-07-10T15:02:07.000Z</time>
      </trkpt>
      <trkpt lat="44.96854" lon="5.72653">
        <ele>823.206736</ele>
        <time>2025-07-10T15:02:08.000Z</time>
      </trkpt>
      <trkpt lat="44.96852" lon="5.72652">
        <ele>823.330398</ele>
        <time>2025-07-10T15:02:09.000Z</time>
      </trkpt>
      <trkpt lat="44.96851" lon="5.7265">
        <ele>823.447997</ele>
        <time>2025-07-10T15:02:10.000Z</time>
      </trkpt>
      <trkpt lat="44.96849" lon="5.72648">
        <ele>823.571659</ele>
        <time>2025-07-10T15:02:11.000Z</time>
      </trkpt>
      <trkpt lat="44.96848" lon="5.72646">
        <ele>823.695322</ele>
        <time>2025-07-10T15:02:12.000Z</time>
      </trkpt>
      <trkpt lat="44.96846" lon="5.72644">
        <ele>823.8202</ele>
        <time>2025-07-10T15:02:13.000Z</time>
      </trkpt>
      <trkpt lat="44.96845" lon="5.72643">
        <ele>823.935606</ele>
        <time>2025-07-10T15:02:14.000Z</time>
      </trkpt>
      <trkpt lat="44.96843" lon="5.72642">
        <ele>824.06241</ele>
        <time>2025-07-10T15:02:15.000Z</time>
      </trkpt>
      <trkpt lat="44.96841" lon="5.72641">
        <ele>824.187357</ele>
        <time>2025-07-10T15:02:16.000Z</time>
      </trkpt>
      <trkpt lat="44.9684" lon="5.7264">
        <ele>824.304944</ele>
        <time>2025-07-10T15:02:17.000Z</time>
      </trkpt>
      <trkpt lat="44.96838" lon="5.72638">
        <ele>824.419473</ele>
        <time>2025-07-10T15:02:18.000Z</time>
      </trkpt>
      <trkpt lat="44.96837" lon="5.72637">
        <ele>824.531581</ele>
        <time>2025-07-10T15:02:19.000Z</time>
      </trkpt>
      <trkpt lat="44.96835" lon="5.72636">
        <ele>824.643047</ele>
        <time>2025-07-10T15:02:20.000Z</time>
      </trkpt>
      <trkpt lat="44.96833" lon="5.72635">
        <ele>824.754513</ele>
        <time>2025-07-10T15:02:21.000Z</time>
      </trkpt>
      <trkpt lat="44.96832" lon="5.72634">
        <ele>824.855976</ele>
        <time>2025-07-10T15:02:22.000Z</time>
      </trkpt>
      <trkpt lat="44.96831" lon="5.72633">
        <ele>824.961646</ele>
        <time>2025-07-10T15:02:23.000Z</time>
      </trkpt>
      <trkpt lat="44.96829" lon="5.72632">
        <ele>825.078967</ele>
        <time>2025-07-10T15:02:24.000Z</time>
      </trkpt>
      <trkpt lat="44.96827" lon="5.72631">
        <ele>825.200618</ele>
        <time>2025-07-10T15:02:25.000Z</time>
      </trkpt>
      <trkpt lat="44.96825" lon="5.7263">
        <ele>825.334351</ele>
        <time>2025-07-10T15:02:26.000Z</time>
      </trkpt>
      <trkpt lat="44.96823" lon="5.72629">
        <ele>825.460666</ele>
        <time>2025-07-10T15:02:27.000Z</time>
      </trkpt>
      <trkpt lat="44.96821" lon="5.72628">
        <ele>825.585769</ele>
        <time>2025-07-10T15:02:28.000Z</time>
      </trkpt>
      <trkpt lat="44.96819" lon="5.72628">
        <ele>825.708908</ele>
        <time>2025-07-10T15:02:29.000Z</time>
      </trkpt>
      <trkpt lat="44.96818" lon="5.72627">
        <ele>825.826741</ele>
        <time>2025-07-10T15:02:30.000Z</time>
      </trkpt>
      <trkpt lat="44.96816" lon="5.72627">
        <ele>825.95701</ele>
        <time>2025-07-10T15:02:31.000Z</time>
      </trkpt>
      <trkpt lat="44.96814" lon="5.72626">
        <ele>826.081053</ele>
        <time>2025-07-10T15:02:32.000Z</time>
      </trkpt>
      <trkpt lat="44.96812" lon="5.72626">
        <ele>826.216063</ele>
        <time>2025-07-10T15:02:33.000Z</time>
      </trkpt>
      <trkpt lat="44.96809" lon="5.72625">
        <ele>826.350168</ele>
        <time>2025-07-10T15:02:34.000Z</time>
      </trkpt>
      <trkpt lat="44.96808" lon="5.72625">
        <ele>826.467049</ele>
        <time>2025-07-10T15:02:35.000Z</time>
      </trkpt>
      <trkpt lat="44.96806" lon="5.72625">
        <ele>826.569886</ele>
        <time>2025-07-10T15:02:36.000Z</time>
      </trkpt>
      <trkpt lat="44.96804" lon="5.72625">
        <ele>826.671929</ele>
        <time>2025-07-10T15:02:37.000Z</time>
      </trkpt>
      <trkpt lat="44.96803" lon="5.72624">
        <ele>826.780619</ele>
        <time>2025-07-10T15:02:38.000Z</time>
      </trkpt>
      <trkpt lat="44.96801" lon="5.72624">
        <ele>826.89566</ele>
        <time>2025-07-10T15:02:39.000Z</time>
      </trkpt>
      <trkpt lat="44.96799" lon="5.72624">
        <ele>827.029764</ele>
        <time>2025-07-10T15:02:40.000Z</time>
      </trkpt>
      <trkpt lat="44.96797" lon="5.72624">
        <ele>827.163869</ele>
        <time>2025-07-10T15:02:41.000Z</time>
      </trkpt>
      <trkpt lat="44.96795" lon="5.72623">
        <ele>827.276687</ele>
        <time>2025-07-10T15:02:42.000Z</time>
      </trkpt>
      <trkpt lat="44.96793" lon="5.72622">
        <ele>827.392351</ele>
        <time>2025-07-10T15:02:43.000Z</time>
      </trkpt>
      <trkpt lat="44.96792" lon="5.72621">
        <ele>827.5113</ele>
        <time>2025-07-10T15:02:44.000Z</time>
      </trkpt>
      <trkpt lat="44.9679" lon="5.72621">
        <ele>827.631523</ele>
        <time>2025-07-10T15:02:45.000Z</time>
      </trkpt>
      <trkpt lat="44.96788" lon="5.7262">
        <ele>827.751746</ele>
        <time>2025-07-10T15:02:46.000Z</time>
      </trkpt>
      <trkpt lat="44.96786" lon="5.72619">
        <ele>827.87685</ele>
        <time>2025-07-10T15:02:47.000Z</time>
      </trkpt>
      <trkpt lat="44.96784" lon="5.72618">
        <ele>827.995976</ele>
        <time>2025-07-10T15:02:48.000Z</time>
      </trkpt>
      <trkpt lat="44.96783" lon="5.72617">
        <ele>828.12278</ele>
        <time>2025-07-10T15:02:49.000Z</time>
      </trkpt>
      <trkpt lat="44.96781" lon="5.72616">
        <ele>828.255374</ele>
        <time>2025-07-10T15:02:50.000Z</time>
      </trkpt>
      <trkpt lat="44.96779" lon="5.72614">
        <ele>828.365193</ele>
        <time>2025-07-10T15:02:51.000Z</time>
      </trkpt>
      <trkpt lat="44.96778" lon="5.72613">
        <ele>828.471922</ele>
        <time>2025-07-10T15:02:52.000Z</time>
      </trkpt>
      <trkpt lat="44.96776" lon="5.72612">
        <ele>828.583855</ele>
        <time>2025-07-10T15:02:53.000Z</time>
      </trkpt>
      <trkpt lat="44.96775" lon="5.7261">
        <ele>828.703753</ele>
        <time>2025-07-10T15:02:54.000Z</time>
      </trkpt>
      <trkpt lat="44.96773" lon="5.72609">
        <ele>828.834657</ele>
        <time>2025-07-10T15:02:55.000Z</time>
      </trkpt>
      <trkpt lat="44.96771" lon="5.72608">
        <ele>828.957809</ele>
        <time>2025-07-10T15:02:56.000Z</time>
      </trkpt>
      <trkpt lat="44.96769" lon="5.72606">
        <ele>829.088713</ele>
        <time>2025-07-10T15:02:57.000Z</time>
      </trkpt>
      <trkpt lat="44.96768" lon="5.72605">
        <ele>829.213592</ele>
        <time>2025-07-10T15:02:58.000Z</time>
      </trkpt>
      <trkpt lat="44.96766" lon="5.72603">
        <ele>829.338964</ele>
        <time>2025-07-10T15:02:59.000Z</time>
      </trkpt>
      <trkpt lat="44.96765" lon="5.72601">
        <ele>829.456563</ele>
        <time>2025-07-10T15:03:00.000Z</time>
      </trkpt>
      <trkpt lat="44.96764" lon="5.72599">
        <ele>829.569405</ele>
        <time>2025-07-10T15:03:01.000Z</time>
      </trkpt>
      <trkpt lat="44.96762" lon="5.72598">
        <ele>829.694777</ele>
        <time>2025-07-10T15:03:02.000Z</time>
      </trkpt>
      <trkpt lat="44.96761" lon="5.72596">
        <ele>829.822312</ele>
        <time>2025-07-10T15:03:03.000Z</time>
      </trkpt>
      <trkpt lat="44.96759" lon="5.72594">
        <ele>829.949848</ele>
        <time>2025-07-10T15:03:04.000Z</time>
      </trkpt>
      <trkpt lat="44.96758" lon="5.72592">
        <ele>830.073511</ele>
        <time>2025-07-10T15:03:05.000Z</time>
      </trkpt>
      <trkpt lat="44.96756" lon="5.7259">
        <ele>830.200339</ele>
        <time>2025-07-10T15:03:06.000Z</time>
      </trkpt>
      <trkpt lat="44.96755" lon="5.72588">
        <ele>830.315856</ele>
        <time>2025-07-10T15:03:07.000Z</time>
      </trkpt>
      <trkpt lat="44.96753" lon="5.72587">
        <ele>830.40535</ele>
        <time>2025-07-10T15:03:08.000Z</time>
      </trkpt>
      <trkpt lat="44.96752" lon="5.72585">
        <ele>830.493386</ele>
        <time>2025-07-10T15:03:09.000Z</time>
      </trkpt>
      <trkpt lat="44.96751" lon="5.72583">
        <ele>830.586343</ele>
        <time>2025-07-10T15:03:10.000Z</time>
      </trkpt>
      <trkpt lat="44.96749" lon="5.72582">
        <ele>830.681915</ele>
        <time>2025-07-10T15:03:11.000Z</time>
      </trkpt>
      <trkpt lat="44.96748" lon="5.7258">
        <ele>830.77141</ele>
        <time>2025-07-10T15:03:12.000Z</time>
      </trkpt>
      <trkpt lat="44.96746" lon="5.72578">
        <ele>830.864822</ele>
        <time>2025-07-10T15:03:13.000Z</time>
      </trkpt>
      <trkpt lat="44.96745" lon="5.72577">
        <ele>830.958235</ele>
        <time>2025-07-10T15:03:14.000Z</time>
      </trkpt>
      <trkpt lat="44.96743" lon="5.72575">
        <ele>831.049982</ele>
        <time>2025-07-10T15:03:15.000Z</time>
      </trkpt>
      <trkpt lat="44.96742" lon="5.72573">
        <ele>831.143394</ele>
        <time>2025-07-10T15:03:16.000Z</time>
      </trkpt>
      <trkpt lat="44.9674" lon="5.72572">
        <ele>831.236934</ele>
        <time>2025-07-10T15:03:17.000Z</time>
      </trkpt>
      <trkpt lat="44.96739" lon="5.7257">
        <ele>831.334361</ele>
        <time>2025-07-10T15:03:18.000Z</time>
      </trkpt>
      <trkpt lat="44.96737" lon="5.72569">
        <ele>831.429933</ele>
        <time>2025-07-10T15:03:19.000Z</time>
      </trkpt>
      <trkpt lat="44.96736" lon="5.72567">
        <ele>831.526411</ele>
        <time>2025-07-10T15:03:20.000Z</time>
      </trkpt>
      <trkpt lat="44.96734" lon="5.72565">
        <ele>831.616873</ele>
        <time>2025-07-10T15:03:21.000Z</time>
      </trkpt>
      <trkpt lat="44.96733" lon="5.72563">
        <ele>831.710285</ele>
        <time>2025-07-10T15:03:22.000Z</time>
      </trkpt>
      <trkpt lat="44.96732" lon="5.72562">
        <ele>831.804362</ele>
        <time>2025-07-10T15:03:23.000Z</time>
      </trkpt>
      <trkpt lat="44.9673" lon="5.7256">
        <ele>831.903308</ele>
        <time>2025-07-10T15:03:24.000Z</time>
      </trkpt>
      <trkpt lat="44.96729" lon="5.72558">
        <ele>831.999787</ele>
        <time>2025-07-10T15:03:25.000Z</time>
      </trkpt>
      <trkpt lat="44.96727" lon="5.72556">
        <ele>832.10229</ele>
        <time>2025-07-10T15:03:26.000Z</time>
      </trkpt>
      <trkpt lat="44.96726" lon="5.72554">
        <ele>832.206168</ele>
        <time>2025-07-10T15:03:27.000Z</time>
      </trkpt>
      <trkpt lat="44.96724" lon="5.72552">
        <ele>832.317841</ele>
        <time>2025-07-10T15:03:28.000Z</time>
      </trkpt>
      <trkpt lat="44.96722" lon="5.7255">
        <ele>832.421356</ele>
        <time>2025-07-10T15:03:29.000Z</time>
      </trkpt>
      <trkpt lat="44.9672" lon="5.72548">
        <ele>832.526942</ele>
        <time>2025-07-10T15:03:30.000Z</time>
      </trkpt>
      <trkpt lat="44.96719" lon="5.72546">
        <ele>832.636889</ele>
        <time>2025-07-10T15:03:31.000Z</time>
      </trkpt>
      <trkpt lat="44.96717" lon="5.72545">
        <ele>832.740767</ele>
        <time>2025-07-10T15:03:32.000Z</time>
      </trkpt>
      <trkpt lat="44.96716" lon="5.72543">
        <ele>832.843271</ele>
        <time>2025-07-10T15:03:33.000Z</time>
      </trkpt>
      <trkpt lat="44.96714" lon="5.7254">
        <ele>832.955501</ele>
        <time>2025-07-10T15:03:34.000Z</time>
      </trkpt>
      <trkpt lat="44.96712" lon="5.72538">
        <ele>833.067731</ele>
        <time>2025-07-10T15:03:35.000Z</time>
      </trkpt>
      <trkpt lat="44.96711" lon="5.72536">
        <ele>833.17869</ele>
        <time>2025-07-10T15:03:36.000Z</time>
      </trkpt>
      <trkpt lat="44.96709" lon="5.72534">
        <ele>833.296979</ele>
        <time>2025-07-10T15:03:37.000Z</time>
      </trkpt>
      <trkpt lat="44.96707" lon="5.72532">
        <ele>833.412997</ele>
        <time>2025-07-10T15:03:38.000Z</time>
      </trkpt>
      <trkpt lat="44.96705" lon="5.7253">
        <ele>833.531286</ele>
        <time>2025-07-10T15:03:39.000Z</time>
      </trkpt>
      <trkpt lat="44.96703" lon="5.72527">
        <ele>833.655636</ele>
        <time>2025-07-10T15:03:40.000Z</time>
      </trkpt>
      <trkpt lat="44.96702" lon="5.72525">
        <ele>833.771655</ele>
        <time>2025-07-10T15:03:41.000Z</time>
      </trkpt>
      <trkpt lat="44.967" lon="5.72523">
        <ele>833.889944</ele>
        <time>2025-07-10T15:03:42.000Z</time>
      </trkpt>
      <trkpt lat="44.96698" lon="5.72521">
        <ele>834.005918</ele>
        <time>2025-07-10T15:03:43.000Z</time>
      </trkpt>
      <trkpt lat="44.96696" lon="5.72518">
        <ele>834.128922</ele>
        <time>2025-07-10T15:03:44.000Z</time>
      </trkpt>
      <trkpt lat="44.96695" lon="5.72516">
        <ele>834.238318</ele>
        <time>2025-07-10T15:03:45.000Z</time>
      </trkpt>
      <trkpt lat="44.96693" lon="5.72514">
        <ele>834.351758</ele>
        <time>2025-07-10T15:03:46.000Z</time>
      </trkpt>
      <trkpt lat="44.96692" lon="5.72511">
        <ele>834.469744</ele>
        <time>2025-07-10T15:03:47.000Z</time>
      </trkpt>
      <trkpt lat="44.9669" lon="5.72508">
        <ele>834.584654</ele>
        <time>2025-07-10T15:03:48.000Z</time>
      </trkpt>
      <trkpt lat="44.96689" lon="5.72506">
        <ele>834.69405</ele>
        <time>2025-07-10T15:03:49.000Z</time>
      </trkpt>
      <trkpt lat="44.96688" lon="5.72503">
        <ele>834.808909</ele>
        <time>2025-07-10T15:03:50.000Z</time>
      </trkpt>
      <trkpt lat="44.96687" lon="5.72501">
        <ele>834.916091</ele>
        <time>2025-07-10T15:03:51.000Z</time>
      </trkpt>
      <trkpt lat="44.96686" lon="5.72498">
        <ele>835.032722</ele>
        <time>2025-07-10T15:03:52.000Z</time>
      </trkpt>
      <trkpt lat="44.96685" lon="5.72494">
        <ele>835.147165</ele>
        <time>2025-07-10T15:03:53.000Z</time>
      </trkpt>
      <trkpt lat="44.96685" lon="5.72492">
        <ele>835.248727</ele>
        <time>2025-07-10T15:03:54.000Z</time>
      </trkpt>
      <trkpt lat="44.96684" lon="5.72489">
        <ele>835.359825</ele>
        <time>2025-07-10T15:03:55.000Z</time>
      </trkpt>
      <trkpt lat="44.96683" lon="5.72486">
        <ele>835.472578</ele>
        <time>2025-07-10T15:03:56.000Z</time>
      </trkpt>
      <trkpt lat="44.96682" lon="5.72483">
        <ele>835.578841</ele>
        <time>2025-07-10T15:03:57.000Z</time>
      </trkpt>
      <trkpt lat="44.96682" lon="5.7248">
        <ele>835.681916</ele>
        <time>2025-07-10T15:03:58.000Z</time>
      </trkpt>
      <trkpt lat="44.96682" lon="5.72477">
        <ele>835.778037</ele>
        <time>2025-07-10T15:03:59.000Z</time>
      </trkpt>
      <trkpt lat="44.96682" lon="5.72475">
        <ele>835.867216</ele>
        <time>2025-07-10T15:04:00.000Z</time>
      </trkpt>
      <trkpt lat="44.96681" lon="5.72472">
        <ele>835.965372</ele>
        <time>2025-07-10T15:04:01.000Z</time>
      </trkpt>
      <trkpt lat="44.96681" lon="5.72469">
        <ele>836.062389</ele>
        <time>2025-07-10T15:04:02.000Z</time>
      </trkpt>
      <trkpt lat="44.9668" lon="5.72467">
        <ele>836.157865</ele>
        <time>2025-07-10T15:04:03.000Z</time>
      </trkpt>
      <trkpt lat="44.9668" lon="5.72464">
        <ele>836.256021</ele>
        <time>2025-07-10T15:04:04.000Z</time>
      </trkpt>
      <trkpt lat="44.96679" lon="5.72461">
        <ele>836.360462</ele>
        <time>2025-07-10T15:04:05.000Z</time>
      </trkpt>
      <trkpt lat="44.96679" lon="5.72458">
        <ele>836.464374</ele>
        <time>2025-07-10T15:04:06.000Z</time>
      </trkpt>
      <trkpt lat="44.96679" lon="5.72455">
        <ele>836.569999</ele>
        <time>2025-07-10T15:04:07.000Z</time>
      </trkpt>
      <trkpt lat="44.96679" lon="5.72452">
        <ele>836.675974</ele>
        <time>2025-07-10T15:04:08.000Z</time>
      </trkpt>
      <trkpt lat="44.96678" lon="5.72449">
        <ele>836.778449</ele>
        <time>2025-07-10T15:04:09.000Z</time>
      </trkpt>
      <trkpt lat="44.96678" lon="5.72446">
        <ele>836.880924</ele>
        <time>2025-07-10T15:04:10.000Z</time>
      </trkpt>
      <trkpt lat="44.96678" lon="5.72443">
        <ele>836.983036</ele>
        <time>2025-07-10T15:04:11.000Z</time>
      </trkpt>
      <trkpt lat="44.96678" lon="5.72441">
        <ele>837.081636</ele>
        <time>2025-07-10T15:04:12.000Z</time>
      </trkpt>
      <trkpt lat="44.96678" lon="5.72438">
        <ele>837.173615</ele>
        <time>2025-07-10T15:04:13.000Z</time>
      </trkpt>
      <trkpt lat="44.96677" lon="5.72435">
        <ele>837.273212</ele>
        <time>2025-07-10T15:04:14.000Z</time>
      </trkpt>
      <trkpt lat="44.96677" lon="5.72432">
        <ele>837.372809</ele>
        <time>2025-07-10T15:04:15.000Z</time>
      </trkpt>
      <trkpt lat="44.96677" lon="5.7243">
        <ele>837.466386</ele>
        <time>2025-07-10T15:04:16.000Z</time>
      </trkpt>
      <trkpt lat="44.96676" lon="5.72427">
        <ele>837.570297</ele>
        <time>2025-07-10T15:04:17.000Z</time>
      </trkpt>
      <trkpt lat="44.96676" lon="5.72424">
        <ele>837.669894</ele>
        <time>2025-07-10T15:04:18.000Z</time>
      </trkpt>
      <trkpt lat="44.96676" lon="5.72421">
        <ele>837.764982</ele>
        <time>2025-07-10T15:04:19.000Z</time>
      </trkpt>
      <trkpt lat="44.96676" lon="5.72419">
        <ele>837.859939</ele>
        <time>2025-07-10T15:04:20.000Z</time>
      </trkpt>
      <trkpt lat="44.96676" lon="5.72416">
        <ele>837.958539</ele>
        <time>2025-07-10T15:04:21.000Z</time>
      </trkpt>
      <trkpt lat="44.96676" lon="5.72413">
        <ele>838.057514</ele>
        <time>2025-07-10T15:04:22.000Z</time>
      </trkpt>
      <trkpt lat="44.96676" lon="5.7241">
        <ele>838.164071</ele>
        <time>2025-07-10T15:04:23.000Z</time>
      </trkpt>
      <trkpt lat="44.96675" lon="5.72407">
        <ele>838.270046</ele>
        <time>2025-07-10T15:04:24.000Z</time>
      </trkpt>
      <trkpt lat="44.96675" lon="5.72404">
        <ele>838.379524</ele>
        <time>2025-07-10T15:04:25.000Z</time>
      </trkpt>
      <trkpt lat="44.96675" lon="5.72401">
        <ele>838.489001</ele>
        <time>2025-07-10T15:04:26.000Z</time>
      </trkpt>
      <trkpt lat="44.96674" lon="5.72398">
        <ele>838.593442</ele>
        <time>2025-07-10T15:04:27.000Z</time>
      </trkpt>
      <trkpt lat="44.96674" lon="5.72395">
        <ele>838.693039</ele>
        <time>2025-07-10T15:04:28.000Z</time>
      </trkpt>
      <trkpt lat="44.96674" lon="5.72392">
        <ele>838.799596</ele>
        <time>2025-07-10T15:04:29.000Z</time>
      </trkpt>
      <trkpt lat="44.96674" lon="5.72389">
        <ele>838.902672</ele>
        <time>2025-07-10T15:04:30.000Z</time>
      </trkpt>
      <trkpt lat="44.96673" lon="5.72387">
        <ele>839.005564</ele>
        <time>2025-07-10T15:04:31.000Z</time>
      </trkpt>
      <trkpt lat="44.96673" lon="5.72384">
        <ele>839.11396</ele>
        <time>2025-07-10T15:04:32.000Z</time>
      </trkpt>
      <trkpt lat="44.96672" lon="5.72381">
        <ele>839.221325</ele>
        <time>2025-07-10T15:04:33.000Z</time>
      </trkpt>
      <trkpt lat="44.96672" lon="5.72378">
        <ele>839.311666</ele>
        <time>2025-07-10T15:04:34.000Z</time>
      </trkpt>
      <trkpt lat="44.96672" lon="5.72375">
        <ele>839.393877</ele>
        <time>2025-07-10T15:04:35.000Z</time>
      </trkpt>
      <trkpt lat="44.96671" lon="5.72372">
        <ele>839.476089</ele>
        <time>2025-07-10T15:04:36.000Z</time>
      </trkpt>
      <trkpt lat="44.96671" lon="5.7237">
        <ele>839.554599</ele>
        <time>2025-07-10T15:04:37.000Z</time>
      </trkpt>
      <trkpt lat="44.96671" lon="5.72367">
        <ele>839.63847</ele>
        <time>2025-07-10T15:04:38.000Z</time>
      </trkpt>
      <trkpt lat="44.96671" lon="5.72364">
        <ele>839.725307</ele>
        <time>2025-07-10T15:04:39.000Z</time>
      </trkpt>
      <trkpt lat="44.96671" lon="5.72361">
        <ele>839.808754</ele>
        <time>2025-07-10T15:04:40.000Z</time>
      </trkpt>
      <trkpt lat="44.9667" lon="5.72359">
        <ele>839.889051</ele>
        <time>2025-07-10T15:04:41.000Z</time>
      </trkpt>
      <trkpt lat="44.96669" lon="5.72356">
        <ele>839.97464</ele>
        <time>2025-07-10T15:04:42.000Z</time>
      </trkpt>
      <trkpt lat="44.96668" lon="5.72353">
        <ele>840.061878</ele>
        <time>2025-07-10T15:04:43.000Z</time>
      </trkpt>
      <trkpt lat="44.96667" lon="5.72351">
        <ele>840.150074</ele>
        <time>2025-07-10T15:04:44.000Z</time>
      </trkpt>
      <trkpt lat="44.96666" lon="5.72348">
        <ele>840.240108</ele>
        <time>2025-07-10T15:04:45.000Z</time>
      </trkpt>
      <trkpt lat="44.96665" lon="5.72345">
        <ele>840.334484</ele>
        <time>2025-07-10T15:04:46.000Z</time>
      </trkpt>
      <trkpt lat="44.96665" lon="5.72343">
        <ele>840.422987</ele>
        <time>2025-07-10T15:04:47.000Z</time>
      </trkpt>
      <trkpt lat="44.96663" lon="5.7234">
        <ele>840.513271</ele>
        <time>2025-07-10T15:04:48.000Z</time>
      </trkpt>
      <trkpt lat="44.96662" lon="5.72337">
        <ele>840.605735</ele>
        <time>2025-07-10T15:04:49.000Z</time>
      </trkpt>
      <trkpt lat="44.96661" lon="5.72335">
        <ele>840.696158</ele>
        <time>2025-07-10T15:04:50.000Z</time>
      </trkpt>
      <trkpt lat="44.96659" lon="5.72333">
        <ele>840.78658</ele>
        <time>2025-07-10T15:04:51.000Z</time>
      </trkpt>
      <trkpt lat="44.96658" lon="5.7233">
        <ele>840.889919</ele>
        <time>2025-07-10T15:04:52.000Z</time>
      </trkpt>
      <trkpt lat="44.96656" lon="5.72328">
        <ele>840.992131</ele>
        <time>2025-07-10T15:04:53.000Z</time>
      </trkpt>
      <trkpt lat="44.96654" lon="5.72326">
        <ele>841.087234</ele>
        <time>2025-07-10T15:04:54.000Z</time>
      </trkpt>
      <trkpt lat="44.96652" lon="5.72324">
        <ele>841.180113</ele>
        <time>2025-07-10T15:04:55.000Z</time>
      </trkpt>
      <trkpt lat="44.96651" lon="5.72322">
        <ele>841.268139</ele>
        <time>2025-07-10T15:04:56.000Z</time>
      </trkpt>
      <trkpt lat="44.96649" lon="5.72321">
        <ele>841.356158</ele>
        <time>2025-07-10T15:04:57.000Z</time>
      </trkpt>
      <trkpt lat="44.96647" lon="5.72319">
        <ele>841.444176</ele>
        <time>2025-07-10T15:04:58.000Z</time>
      </trkpt>
      <trkpt lat="44.96645" lon="5.72318">
        <ele>841.533744</ele>
        <time>2025-07-10T15:04:59.000Z</time>
      </trkpt>
      <trkpt lat="44.96644" lon="5.72316">
        <ele>841.621463</ele>
        <time>2025-07-10T15:05:00.000Z</time>
      </trkpt>
      <trkpt lat="44.96642" lon="5.72314">
        <ele>841.709482</ele>
        <time>2025-07-10T15:05:01.000Z</time>
      </trkpt>
      <trkpt lat="44.9664" lon="5.72313">
        <ele>841.804895</ele>
        <time>2025-07-10T15:05:02.000Z</time>
      </trkpt>
      <trkpt lat="44.96638" lon="5.72312">
        <ele>841.890041</ele>
        <time>2025-07-10T15:05:03.000Z</time>
      </trkpt>
      <trkpt lat="44.96636" lon="5.72311">
        <ele>841.98044</ele>
        <time>2025-07-10T15:05:04.000Z</time>
      </trkpt>
      <trkpt lat="44.96634" lon="5.7231">
        <ele>842.068852</ele>
        <time>2025-07-10T15:05:05.000Z</time>
      </trkpt>
      <trkpt lat="44.96632" lon="5.72309">
        <ele>842.157264</ele>
        <time>2025-07-10T15:05:06.000Z</time>
      </trkpt>
      <trkpt lat="44.9663" lon="5.72308">
        <ele>842.240772</ele>
        <time>2025-07-10T15:05:07.000Z</time>
      </trkpt>
      <trkpt lat="44.96628" lon="5.72308">
        <ele>842.330476</ele>
        <time>2025-07-10T15:05:08.000Z</time>
      </trkpt>
      <trkpt lat="44.96626" lon="5.72307">
        <ele>842.429807</ele>
        <time>2025-07-10T15:05:09.000Z</time>
      </trkpt>
      <trkpt lat="44.96624" lon="5.72305">
        <ele>842.528105</ele>
        <time>2025-07-10T15:05:10.000Z</time>
      </trkpt>
      <trkpt lat="44.96621" lon="5.72305">
        <ele>842.618989</ele>
        <time>2025-07-10T15:05:11.000Z</time>
      </trkpt>
      <trkpt lat="44.96619" lon="5.72304">
        <ele>842.705111</ele>
        <time>2025-07-10T15:05:12.000Z</time>
      </trkpt>
      <trkpt lat="44.96617" lon="5.72303">
        <ele>842.795995</ele>
        <time>2025-07-10T15:05:13.000Z</time>
      </trkpt>
      <trkpt lat="44.96615" lon="5.72303">
        <ele>842.884903</ele>
        <time>2025-07-10T15:05:14.000Z</time>
      </trkpt>
      <trkpt lat="44.96613" lon="5.72303">
        <ele>842.962174</ele>
        <time>2025-07-10T15:05:15.000Z</time>
      </trkpt>
      <trkpt lat="44.96611" lon="5.72302">
        <ele>843.048296</ele>
        <time>2025-07-10T15:05:16.000Z</time>
      </trkpt>
      <trkpt lat="44.96609" lon="5.72301">
        <ele>843.134418</ele>
        <time>2025-07-10T15:05:17.000Z</time>
      </trkpt>
      <trkpt lat="44.96607" lon="5.72301">
        <ele>843.227279</ele>
        <time>2025-07-10T15:05:18.000Z</time>
      </trkpt>
      <trkpt lat="44.96605" lon="5.72301">
        <ele>843.320712</ele>
        <time>2025-07-10T15:05:19.000Z</time>
      </trkpt>
      <trkpt lat="44.96603" lon="5.723">
        <ele>843.410416</ele>
        <time>2025-07-10T15:05:20.000Z</time>
      </trkpt>
      <trkpt lat="44.96601" lon="5.723">
        <ele>843.4955</ele>
        <time>2025-07-10T15:05:21.000Z</time>
      </trkpt>
      <trkpt lat="44.96599" lon="5.723">
        <ele>843.579956</ele>
        <time>2025-07-10T15:05:22.000Z</time>
      </trkpt>
      <trkpt lat="44.96597" lon="5.723">
        <ele>843.676838</ele>
        <time>2025-07-10T15:05:23.000Z</time>
      </trkpt>
      <trkpt lat="44.96594" lon="5.723">
        <ele>843.773903</ele>
        <time>2025-07-10T15:05:24.000Z</time>
      </trkpt>
      <trkpt lat="44.96592" lon="5.72299">
        <ele>843.863607</ele>
        <time>2025-07-10T15:05:25.000Z</time>
      </trkpt>
      <trkpt lat="44.9659" lon="5.72299">
        <ele>843.952265</ele>
        <time>2025-07-10T15:05:26.000Z</time>
      </trkpt>
      <trkpt lat="44.96588" lon="5.72299">
        <ele>844.053403</ele>
        <time>2025-07-10T15:05:27.000Z</time>
      </trkpt>
      <trkpt lat="44.96586" lon="5.72299">
        <ele>844.146072</ele>
        <time>2025-07-10T15:05:28.000Z</time>
      </trkpt>
      <trkpt lat="44.96583" lon="5.72299">
        <ele>844.23473</ele>
        <time>2025-07-10T15:05:29.000Z</time>
      </trkpt>
      <trkpt lat="44.96581" lon="5.723">
        <ele>844.329109</ele>
        <time>2025-07-10T15:05:30.000Z</time>
      </trkpt>
      <trkpt lat="44.96579" lon="5.723">
        <ele>844.413828</ele>
        <time>2025-07-10T15:05:31.000Z</time>
      </trkpt>
      <trkpt lat="44.96577" lon="5.723">
        <ele>844.502736</ele>
        <time>2025-07-10T15:05:32.000Z</time>
      </trkpt>
      <trkpt lat="44.96575" lon="5.72301">
        <ele>844.591394</ele>
        <time>2025-07-10T15:05:33.000Z</time>
      </trkpt>
      <trkpt lat="44.96573" lon="5.72301">
        <ele>844.676112</ele>
        <time>2025-07-10T15:05:34.000Z</time>
      </trkpt>
      <trkpt lat="44.96571" lon="5.72302">
        <ele>844.772585</ele>
        <time>2025-07-10T15:05:35.000Z</time>
      </trkpt>
      <trkpt lat="44.96569" lon="5.72303">
        <ele>844.869929</ele>
        <time>2025-07-10T15:05:36.000Z</time>
      </trkpt>
      <trkpt lat="44.96566" lon="5.72304">
        <ele>844.967274</ele>
        <time>2025-07-10T15:05:37.000Z</time>
      </trkpt>
      <trkpt lat="44.96564" lon="5.72304">
        <ele>845.062262</ele>
        <time>2025-07-10T15:05:38.000Z</time>
      </trkpt>
      <trkpt lat="44.96562" lon="5.72305">
        <ele>845.162035</ele>
        <time>2025-07-10T15:05:39.000Z</time>
      </trkpt>
      <trkpt lat="44.9656" lon="5.72306">
        <ele>845.257024</ele>
        <time>2025-07-10T15:05:40.000Z</time>
      </trkpt>
      <trkpt lat="44.96557" lon="5.72307">
        <ele>845.356796</ele>
        <time>2025-07-10T15:05:41.000Z</time>
      </trkpt>
      <trkpt lat="44.96555" lon="5.72307">
        <ele>845.455899</ele>
        <time>2025-07-10T15:05:42.000Z</time>
      </trkpt>
      <trkpt lat="44.96553" lon="5.72308">
        <ele>845.555002</ele>
        <time>2025-07-10T15:05:43.000Z</time>
      </trkpt>
      <trkpt lat="44.96551" lon="5.72309">
        <ele>845.654104</ele>
        <time>2025-07-10T15:05:44.000Z</time>
      </trkpt>
      <trkpt lat="44.96548" lon="5.72309">
        <ele>845.748483</ele>
        <time>2025-07-10T15:05:45.000Z</time>
      </trkpt>
      <trkpt lat="44.96546" lon="5.7231">
        <ele>845.841344</ele>
        <time>2025-07-10T15:05:46.000Z</time>
      </trkpt>
      <trkpt lat="44.96544" lon="5.7231">
        <ele>845.934062</ele>
        <time>2025-07-10T15:05:47.000Z</time>
      </trkpt>
      <trkpt lat="44.96542" lon="5.7231">
        <ele>846.026923</ele>
        <time>2025-07-10T15:05:48.000Z</time>
      </trkpt>
      <trkpt lat="44.9654" lon="5.7231">
        <ele>846.119641</ele>
        <time>2025-07-10T15:05:49.000Z</time>
      </trkpt>
      <trkpt lat="44.96537" lon="5.7231">
        <ele>846.220779</ele>
        <time>2025-07-10T15:05:50.000Z</time>
      </trkpt>
      <trkpt lat="44.96535" lon="5.7231">
        <ele>846.317706</ele>
        <time>2025-07-10T15:05:51.000Z</time>
      </trkpt>
      <trkpt lat="44.96532" lon="5.72309">
        <ele>846.419195</ele>
        <time>2025-07-10T15:05:52.000Z</time>
      </trkpt>
      <trkpt lat="44.9653" lon="5.72309">
        <ele>846.513574</ele>
        <time>2025-07-10T15:05:53.000Z</time>
      </trkpt>
      <trkpt lat="44.96528" lon="5.72308">
        <ele>846.608563</ele>
        <time>2025-07-10T15:05:54.000Z</time>
      </trkpt>
      <trkpt lat="44.96526" lon="5.72307">
        <ele>846.704251</ele>
        <time>2025-07-10T15:05:55.000Z</time>
      </trkpt>
      <trkpt lat="44.96524" lon="5.72306">
        <ele>846.800778</ele>
        <time>2025-07-10T15:05:56.000Z</time>
      </trkpt>
      <trkpt lat="44.96521" lon="5.72305">
        <ele>846.899111</ele>
        <time>2025-07-10T15:05:57.000Z</time>
      </trkpt>
      <trkpt lat="44.96519" lon="5.72305">
        <ele>846.992492</ele>
        <time>2025-07-10T15:05:58.000Z</time>
      </trkpt>
      <trkpt lat="44.96517" lon="5.72304">
        <ele>847.087635</ele>
        <time>2025-07-10T15:05:59.000Z</time>
      </trkpt>
      <trkpt lat="44.96515" lon="5.72302">
        <ele>847.188881</ele>
        <time>2025-07-10T15:06:00.000Z</time>
      </trkpt>
      <trkpt lat="44.96513" lon="5.72301">
        <ele>847.290128</ele>
        <time>2025-07-10T15:06:01.000Z</time>
      </trkpt>
      <trkpt lat="44.96511" lon="5.723">
        <ele>847.391374</ele>
        <time>2025-07-10T15:06:02.000Z</time>
      </trkpt>
      <trkpt lat="44.96508" lon="5.72299">
        <ele>847.494963</ele>
        <time>2025-07-10T15:06:03.000Z</time>
      </trkpt>
      <trkpt lat="44.96506" lon="5.72297">
        <ele>847.59621</ele>
        <time>2025-07-10T15:06:04.000Z</time>
      </trkpt>
      <trkpt lat="44.96504" lon="5.72296">
        <ele>847.693421</ele>
        <time>2025-07-10T15:06:05.000Z</time>
      </trkpt>
      <trkpt lat="44.96502" lon="5.72294">
        <ele>847.794444</ele>
        <time>2025-07-10T15:06:06.000Z</time>
      </trkpt>
      <trkpt lat="44.965" lon="5.72293">
        <ele>847.895467</ele>
        <time>2025-07-10T15:06:07.000Z</time>
      </trkpt>
      <trkpt lat="44.96498" lon="5.72292">
        <ele>847.991291</ele>
        <time>2025-07-10T15:06:08.000Z</time>
      </trkpt>
      <trkpt lat="44.96496" lon="5.7229">
        <ele>848.092315</ele>
        <time>2025-07-10T15:06:09.000Z</time>
      </trkpt>
      <trkpt lat="44.96494" lon="5.72288">
        <ele>848.190986</ele>
        <time>2025-07-10T15:06:10.000Z</time>
      </trkpt>
      <trkpt lat="44.96492" lon="5.72287">
        <ele>848.285944</ele>
        <time>2025-07-10T15:06:11.000Z</time>
      </trkpt>
      <trkpt lat="44.9649" lon="5.72285">
        <ele>848.380902</ele>
        <time>2025-07-10T15:06:12.000Z</time>
      </trkpt>
      <trkpt lat="44.96488" lon="5.72284">
        <ele>848.477451</ele>
        <time>2025-07-10T15:06:13.000Z</time>
      </trkpt>
      <trkpt lat="44.96486" lon="5.72282">
        <ele>848.580915</ele>
        <time>2025-07-10T15:06:14.000Z</time>
      </trkpt>
      <trkpt lat="44.96484" lon="5.7228">
        <ele>848.680846</ele>
        <time>2025-07-10T15:06:15.000Z</time>
      </trkpt>
      <trkpt lat="44.96482" lon="5.72278">
        <ele>848.780776</ele>
        <time>2025-07-10T15:06:16.000Z</time>
      </trkpt>
      <trkpt lat="44.96481" lon="5.72276">
        <ele>848.876617</ele>
        <time>2025-07-10T15:06:17.000Z</time>
      </trkpt>
      <trkpt lat="44.96479" lon="5.72273">
        <ele>848.972458</ele>
        <time>2025-07-10T15:06:18.000Z</time>
      </trkpt>
      <trkpt lat="44.96478" lon="5.72271">
        <ele>849.071422</ele>
        <time>2025-07-10T15:06:19.000Z</time>
      </trkpt>
      <trkpt lat="44.96476" lon="5.72269">
        <ele>849.171633</ele>
        <time>2025-07-10T15:06:20.000Z</time>
      </trkpt>
      <trkpt lat="44.96474" lon="5.72267">
        <ele>849.270598</ele>
        <time>2025-07-10T15:06:21.000Z</time>
      </trkpt>
      <trkpt lat="44.96472" lon="5.72265">
        <ele>849.373762</ele>
        <time>2025-07-10T15:06:22.000Z</time>
      </trkpt>
      <trkpt lat="44.96471" lon="5.72262">
        <ele>849.474802</ele>
        <time>2025-07-10T15:06:23.000Z</time>
      </trkpt>
      <trkpt lat="44.96469" lon="5.7226">
        <ele>849.576974</ele>
        <time>2025-07-10T15:06:24.000Z</time>
      </trkpt>
      <trkpt lat="44.96467" lon="5.72258">
        <ele>849.679146</ele>
        <time>2025-07-10T15:06:25.000Z</time>
      </trkpt>
      <trkpt lat="44.96465" lon="5.72256">
        <ele>849.779357</ele>
        <time>2025-07-10T15:06:26.000Z</time>
      </trkpt>
      <trkpt lat="44.96464" lon="5.72254">
        <ele>849.875199</ele>
        <time>2025-07-10T15:06:27.000Z</time>
      </trkpt>
      <trkpt lat="44.96462" lon="5.72251">
        <ele>849.975371</ele>
        <time>2025-07-10T15:06:28.000Z</time>
      </trkpt>
      <trkpt lat="44.9646" lon="5.72249">
        <ele>850.06912</ele>
        <time>2025-07-10T15:06:29.000Z</time>
      </trkpt>
      <trkpt lat="44.96459" lon="5.72247">
        <ele>850.159006</ele>
        <time>2025-07-10T15:06:30.000Z</time>
      </trkpt>
      <trkpt lat="44.96457" lon="5.72245">
        <ele>850.254848</ele>
        <time>2025-07-10T15:06:31.000Z</time>
      </trkpt>
      <trkpt lat="44.96456" lon="5.72243">
        <ele>850.348596</ele>
        <time>2025-07-10T15:06:32.000Z</time>
      </trkpt>
      <trkpt lat="44.96454" lon="5.7224">
        <ele>850.44658</ele>
        <time>2025-07-10T15:06:33.000Z</time>
      </trkpt>
      <trkpt lat="44.96453" lon="5.72238">
        <ele>850.543519</ele>
        <time>2025-07-10T15:06:34.000Z</time>
      </trkpt>
      <trkpt lat="44.96451" lon="5.72236">
        <ele>850.642483</ele>
        <time>2025-07-10T15:06:35.000Z</time>
      </trkpt>
      <trkpt lat="44.96449" lon="5.72234">
        <ele>850.733133</ele>
        <time>2025-07-10T15:06:36.000Z</time>
      </trkpt>
      <trkpt lat="44.96448" lon="5.72232">
        <ele>850.823782</ele>
        <time>2025-07-10T15:06:37.000Z</time>
      </trkpt>
      <trkpt lat="44.96446" lon="5.7223">
        <ele>850.920721</ele>
        <time>2025-07-10T15:06:38.000Z</time>
      </trkpt>
      <trkpt lat="44.96444" lon="5.72227">
        <ele>851.022893</ele>
        <time>2025-07-10T15:06:39.000Z</time>
      </trkpt>
      <trkpt lat="44.96443" lon="5.72225">
        <ele>851.123104</ele>
        <time>2025-07-10T15:06:40.000Z</time>
      </trkpt>
      <trkpt lat="44.96441" lon="5.72223">
        <ele>851.223316</ele>
        <time>2025-07-10T15:06:41.000Z</time>
      </trkpt>
      <trkpt lat="44.96439" lon="5.72221">
        <ele>851.32228</ele>
        <time>2025-07-10T15:06:42.000Z</time>
      </trkpt>
      <trkpt lat="44.96437" lon="5.72219">
        <ele>851.426464</ele>
        <time>2025-07-10T15:06:43.000Z</time>
      </trkpt>
      <trkpt lat="44.96435" lon="5.72217">
        <ele>851.528637</ele>
        <time>2025-07-10T15:06:44.000Z</time>
      </trkpt>
      <trkpt lat="44.96433" lon="5.72214">
        <ele>851.63561</ele>
        <time>2025-07-10T15:06:45.000Z</time>
      </trkpt>
      <trkpt lat="44.96431" lon="5.72212">
        <ele>851.742583</ele>
        <time>2025-07-10T15:06:46.000Z</time>
      </trkpt>
      <trkpt lat="44.9643" lon="5.7221">
        <ele>851.844299</ele>
        <time>2025-07-10T15:06:47.000Z</time>
      </trkpt>
      <trkpt lat="44.96428" lon="5.72208">
        <ele>851.946014</ele>
        <time>2025-07-10T15:06:48.000Z</time>
      </trkpt>
      <trkpt lat="44.96426" lon="5.72207">
        <ele>852.046217</ele>
        <time>2025-07-10T15:06:49.000Z</time>
      </trkpt>
      <trkpt lat="44.96424" lon="5.72205">
        <ele>852.143428</ele>
        <time>2025-07-10T15:06:50.000Z</time>
      </trkpt>
      <trkpt lat="44.96422" lon="5.72204">
        <ele>852.240638</ele>
        <time>2025-07-10T15:06:51.000Z</time>
      </trkpt>
      <trkpt lat="44.9642" lon="5.72202">
        <ele>852.341662</ele>
        <time>2025-07-10T15:06:52.000Z</time>
      </trkpt>
      <trkpt lat="44.96418" lon="5.72201">
        <ele>852.438873</ele>
        <time>2025-07-10T15:06:53.000Z</time>
      </trkpt>
      <trkpt lat="44.96416" lon="5.72199">
        <ele>852.528284</ele>
        <time>2025-07-10T15:06:54.000Z</time>
      </trkpt>
      <trkpt lat="44.96414" lon="5.72197">
        <ele>852.621338</ele>
        <time>2025-07-10T15:06:55.000Z</time>
      </trkpt>
      <trkpt lat="44.96412" lon="5.72195">
        <ele>852.716009</ele>
        <time>2025-07-10T15:06:56.000Z</time>
      </trkpt>
      <trkpt lat="44.9641" lon="5.72194">
        <ele>852.809449</ele>
        <time>2025-07-10T15:06:57.000Z</time>
      </trkpt>
      <trkpt lat="44.96408" lon="5.72192">
        <ele>852.90666</ele>
        <time>2025-07-10T15:06:58.000Z</time>
      </trkpt>
      <trkpt lat="44.96406" lon="5.72191">
        <ele>853.005092</ele>
        <time>2025-07-10T15:06:59.000Z</time>
      </trkpt>
      <trkpt lat="44.96404" lon="5.72189">
        <ele>853.103764</ele>
        <time>2025-07-10T15:07:00.000Z</time>
      </trkpt>
      <trkpt lat="44.96402" lon="5.72188">
        <ele>853.206193</ele>
        <time>2025-07-10T15:07:01.000Z</time>
      </trkpt>
      <trkpt lat="44.964" lon="5.72186">
        <ele>853.308623</ele>
        <time>2025-07-10T15:07:02.000Z</time>
      </trkpt>
      <trkpt lat="44.96398" lon="5.72185">
        <ele>853.407295</ele>
        <time>2025-07-10T15:07:03.000Z</time>
      </trkpt>
      <trkpt lat="44.96396" lon="5.72183">
        <ele>853.505966</ele>
        <time>2025-07-10T15:07:04.000Z</time>
      </trkpt>
      <trkpt lat="44.96394" lon="5.72181">
        <ele>853.602515</ele>
        <time>2025-07-10T15:07:05.000Z</time>
      </trkpt>
      <trkpt lat="44.96392" lon="5.72179">
        <ele>853.704317</ele>
        <time>2025-07-10T15:07:06.000Z</time>
      </trkpt>
      <trkpt lat="44.9639" lon="5.72177">
        <ele>853.804528</ele>
        <time>2025-07-10T15:07:07.000Z</time>
      </trkpt>
      <trkpt lat="44.96389" lon="5.72175">
        <ele>853.906701</ele>
        <time>2025-07-10T15:07:08.000Z</time>
      </trkpt>
      <trkpt lat="44.96387" lon="5.72173">
        <ele>854.006277</ele>
        <time>2025-07-10T15:07:09.000Z</time>
      </trkpt>
      <trkpt lat="44.96386" lon="5.7217">
        <ele>854.106236</ele>
        <time>2025-07-10T15:07:10.000Z</time>
      </trkpt>
      <trkpt lat="44.96385" lon="5.72167">
        <ele>854.198816</ele>
        <time>2025-07-10T15:07:11.000Z</time>
      </trkpt>
      <trkpt lat="44.96384" lon="5.72164">
        <ele>854.297805</ele>
        <time>2025-07-10T15:07:12.000Z</time>
      </trkpt>
      <trkpt lat="44.96383" lon="5.72161">
        <ele>854.399556</ele>
        <time>2025-07-10T15:07:13.000Z</time>
      </trkpt>
      <trkpt lat="44.96383" lon="5.72158">
        <ele>854.502658</ele>
        <time>2025-07-10T15:07:14.000Z</time>
      </trkpt>
      <trkpt lat="44.96382" lon="5.72154">
        <ele>854.583747</ele>
        <time>2025-07-10T15:07:15.000Z</time>
      </trkpt>
      <trkpt lat="44.96382" lon="5.72151">
        <ele>854.653928</ele>
        <time>2025-07-10T15:07:16.000Z</time>
      </trkpt>
      <trkpt lat="44.96382" lon="5.72148">
        <ele>854.720013</ele>
        <time>2025-07-10T15:07:17.000Z</time>
      </trkpt>
      <trkpt lat="44.96383" lon="5.72145">
        <ele>854.792652</ele>
        <time>2025-07-10T15:07:18.000Z</time>
      </trkpt>
      <trkpt lat="44.96383" lon="5.72141">
        <ele>854.869973</ele>
        <time>2025-07-10T15:07:19.000Z</time>
      </trkpt>
      <trkpt lat="44.96383" lon="5.72138">
        <ele>854.949893</ele>
        <time>2025-07-10T15:07:20.000Z</time>
      </trkpt>
      <trkpt lat="44.96384" lon="5.72134">
        <ele>855.031773</ele>
        <time>2025-07-10T15:07:21.000Z</time>
      </trkpt>
      <trkpt lat="44.96385" lon="5.72131">
        <ele>855.106493</ele>
        <time>2025-07-10T15:07:22.000Z</time>
      </trkpt>
      <trkpt lat="44.96386" lon="5.72128">
        <ele>855.187057</ele>
        <time>2025-07-10T15:07:23.000Z</time>
      </trkpt>
      <trkpt lat="44.96388" lon="5.72125">
        <ele>855.264698</ele>
        <time>2025-07-10T15:07:24.000Z</time>
      </trkpt>
      <trkpt lat="44.9639" lon="5.72123">
        <ele>855.337016</ele>
        <time>2025-07-10T15:07:25.000Z</time>
      </trkpt>
      <trkpt lat="44.96392" lon="5.72121">
        <ele>855.411779</ele>
        <time>2025-07-10T15:07:26.000Z</time>
      </trkpt>
      <trkpt lat="44.96394" lon="5.72119">
        <ele>855.487906</ele>
        <time>2025-07-10T15:07:27.000Z</time>
      </trkpt>
      <trkpt lat="44.96396" lon="5.72118">
        <ele>855.562691</ele>
        <time>2025-07-10T15:07:28.000Z</time>
      </trkpt>
      <trkpt lat="44.96398" lon="5.72117">
        <ele>855.635024</ele>
        <time>2025-07-10T15:07:29.000Z</time>
      </trkpt>
      <trkpt lat="44.964" lon="5.72116">
        <ele>855.707154</ele>
        <time>2025-07-10T15:07:30.000Z</time>
      </trkpt>
      <trkpt lat="44.96403" lon="5.72115">
        <ele>855.783585</ele>
        <time>2025-07-10T15:07:31.000Z</time>
      </trkpt>
      <trkpt lat="44.96405" lon="5.72113">
        <ele>855.874869</ele>
        <time>2025-07-10T15:07:32.000Z</time>
      </trkpt>
      <trkpt lat="44.96408" lon="5.72111">
        <ele>855.958573</ele>
        <time>2025-07-10T15:07:33.000Z</time>
      </trkpt>
      <trkpt lat="44.9641" lon="5.72109">
        <ele>856.033586</ele>
        <time>2025-07-10T15:07:34.000Z</time>
      </trkpt>
      <trkpt lat="44.96412" lon="5.72107">
        <ele>856.107018</ele>
        <time>2025-07-10T15:07:35.000Z</time>
      </trkpt>
      <trkpt lat="44.96414" lon="5.72105">
        <ele>856.179161</ele>
        <time>2025-07-10T15:07:36.000Z</time>
      </trkpt>
      <trkpt lat="44.96416" lon="5.72104">
        <ele>856.255288</ele>
        <time>2025-07-10T15:07:37.000Z</time>
      </trkpt>
      <trkpt lat="44.96418" lon="5.72102">
        <ele>856.329984</ele>
        <time>2025-07-10T15:07:38.000Z</time>
      </trkpt>
      <trkpt lat="44.96419" lon="5.721">
        <ele>856.403745</ele>
        <time>2025-07-10T15:07:39.000Z</time>
      </trkpt>
      <trkpt lat="44.96421" lon="5.72097">
        <ele>856.481386</ele>
        <time>2025-07-10T15:07:40.000Z</time>
      </trkpt>
      <trkpt lat="44.96423" lon="5.72095">
        <ele>856.551615</ele>
        <time>2025-07-10T15:07:41.000Z</time>
      </trkpt>
      <trkpt lat="44.96424" lon="5.72092">
        <ele>856.620216</ele>
        <time>2025-07-10T15:07:42.000Z</time>
      </trkpt>
      <trkpt lat="44.96426" lon="5.7209">
        <ele>856.694146</ele>
        <time>2025-07-10T15:07:43.000Z</time>
      </trkpt>
      <trkpt lat="44.96427" lon="5.72087">
        <ele>856.772929</ele>
        <time>2025-07-10T15:07:44.000Z</time>
      </trkpt>
      <trkpt lat="44.96429" lon="5.72084">
        <ele>856.857222</ele>
        <time>2025-07-10T15:07:45.000Z</time>
      </trkpt>
      <trkpt lat="44.9643" lon="5.72081">
        <ele>856.937786</ele>
        <time>2025-07-10T15:07:46.000Z</time>
      </trkpt>
      <trkpt lat="44.96432" lon="5.72078">
        <ele>857.018711</ele>
        <time>2025-07-10T15:07:47.000Z</time>
      </trkpt>
      <trkpt lat="44.96433" lon="5.72075">
        <ele>857.097526</ele>
        <time>2025-07-10T15:07:48.000Z</time>
      </trkpt>
      <trkpt lat="44.96435" lon="5.72072">
        <ele>857.178182</ele>
        <time>2025-07-10T15:07:49.000Z</time>
      </trkpt>
      <trkpt lat="44.96436" lon="5.72068">
        <ele>857.262939</ele>
        <time>2025-07-10T15:07:50.000Z</time>
      </trkpt>
      <trkpt lat="44.96437" lon="5.72065">
        <ele>857.34431</ele>
        <time>2025-07-10T15:07:51.000Z</time>
      </trkpt>
      <trkpt lat="44.96438" lon="5.72062">
        <ele>857.423738</ele>
        <time>2025-07-10T15:07:52.000Z</time>
      </trkpt>
      <trkpt lat="44.96439" lon="5.72059">
        <ele>857.497841</ele>
        <time>2025-07-10T15:07:53.000Z</time>
      </trkpt>
      <trkpt lat="44.9644" lon="5.72055">
        <ele>857.575865</ele>
        <time>2025-07-10T15:07:54.000Z</time>
      </trkpt>
      <trkpt lat="44.96442" lon="5.72052">
        <ele>857.655867</ele>
        <time>2025-07-10T15:07:55.000Z</time>
      </trkpt>
      <trkpt lat="44.96443" lon="5.72049">
        <ele>857.738701</ele>
        <time>2025-07-10T15:07:56.000Z</time>
      </trkpt>
      <trkpt lat="44.96444" lon="5.72046">
        <ele>857.820073</ele>
        <time>2025-07-10T15:07:57.000Z</time>
      </trkpt>
      <trkpt lat="44.96445" lon="5.72042">
        <ele>857.906765</ele>
        <time>2025-07-10T15:07:58.000Z</time>
      </trkpt>
      <trkpt lat="44.96447" lon="5.72039">
        <ele>857.988137</ele>
        <time>2025-07-10T15:07:59.000Z</time>
      </trkpt>
      <trkpt lat="44.96448" lon="5.72036">
        <ele>858.06616</ele>
        <time>2025-07-10T15:08:00.000Z</time>
      </trkpt>
      <trkpt lat="44.96449" lon="5.72032">
        <ele>858.144184</ele>
        <time>2025-07-10T15:08:01.000Z</time>
      </trkpt>
      <trkpt lat="44.9645" lon="5.72029">
        <ele>858.225556</ele>
        <time>2025-07-10T15:08:02.000Z</time>
      </trkpt>
      <trkpt lat="44.96451" lon="5.72026">
        <ele>858.303579</ele>
        <time>2025-07-10T15:08:03.000Z</time>
      </trkpt>
      <trkpt lat="44.96452" lon="5.72023">
        <ele>858.381142</ele>
        <time>2025-07-10T15:08:04.000Z</time>
      </trkpt>
      <trkpt lat="44.96453" lon="5.72019">
        <ele>858.455574</ele>
        <time>2025-07-10T15:08:05.000Z</time>
      </trkpt>
      <trkpt lat="44.96454" lon="5.72016">
        <ele>858.533597</ele>
        <time>2025-07-10T15:08:06.000Z</time>
      </trkpt>
      <trkpt lat="44.96455" lon="5.72013">
        <ele>858.610317</ele>
        <time>2025-07-10T15:08:07.000Z</time>
      </trkpt>
      <trkpt lat="44.96456" lon="5.7201">
        <ele>858.689048</ele>
        <time>2025-07-10T15:08:08.000Z</time>
      </trkpt>
      <trkpt lat="44.96457" lon="5.72006">
        <ele>858.771829</ele>
        <time>2025-07-10T15:08:09.000Z</time>
      </trkpt>
      <trkpt lat="44.96458" lon="5.72003">
        <ele>858.851442</ele>
        <time>2025-07-10T15:08:10.000Z</time>
      </trkpt>
      <trkpt lat="44.96459" lon="5.71999">
        <ele>858.930023</ele>
        <time>2025-07-10T15:08:11.000Z</time>
      </trkpt>
      <trkpt lat="44.96459" lon="5.71996">
        <ele>859.007586</ele>
        <time>2025-07-10T15:08:12.000Z</time>
      </trkpt>
      <trkpt lat="44.9646" lon="5.71993">
        <ele>859.085149</ele>
        <time>2025-07-10T15:08:13.000Z</time>
      </trkpt>
      <trkpt lat="44.96461" lon="5.7199">
        <ele>859.16067</ele>
        <time>2025-07-10T15:08:14.000Z</time>
      </trkpt>
      <trkpt lat="44.96462" lon="5.71986">
        <ele>859.238977</ele>
        <time>2025-07-10T15:08:15.000Z</time>
      </trkpt>
      <trkpt lat="44.96462" lon="5.71983">
        <ele>859.318744</ele>
        <time>2025-07-10T15:08:16.000Z</time>
      </trkpt>
      <trkpt lat="44.96463" lon="5.71979">
        <ele>859.394264</ele>
        <time>2025-07-10T15:08:17.000Z</time>
      </trkpt>
      <trkpt lat="44.96464" lon="5.71976">
        <ele>859.463543</ele>
        <time>2025-07-10T15:08:18.000Z</time>
      </trkpt>
      <trkpt lat="44.96465" lon="5.71973">
        <ele>859.542124</ele>
        <time>2025-07-10T15:08:19.000Z</time>
      </trkpt>
      <trkpt lat="44.96466" lon="5.71969">
        <ele>859.624003</ele>
        <time>2025-07-10T15:08:20.000Z</time>
      </trkpt>
      <trkpt lat="44.96466" lon="5.71966">
        <ele>859.701565</ele>
        <time>2025-07-10T15:08:21.000Z</time>
      </trkpt>
      <trkpt lat="44.96467" lon="5.71963">
        <ele>859.780296</ele>
        <time>2025-07-10T15:08:22.000Z</time>
      </trkpt>
      <trkpt lat="44.96468" lon="5.71959">
        <ele>859.864032</ele>
        <time>2025-07-10T15:08:23.000Z</time>
      </trkpt>
      <trkpt lat="44.96469" lon="5.71955">
        <ele>859.956084</ele>
        <time>2025-07-10T15:08:24.000Z</time>
      </trkpt>
      <trkpt lat="44.9647" lon="5.71951">
        <ele>860.051194</ele>
        <time>2025-07-10T15:08:25.000Z</time>
      </trkpt>
      <trkpt lat="44.96471" lon="5.71947">
        <ele>860.13771</ele>
        <time>2025-07-10T15:08:26.000Z</time>
      </trkpt>
      <trkpt lat="44.96471" lon="5.71943">
        <ele>860.224538</ele>
        <time>2025-07-10T15:08:27.000Z</time>
      </trkpt>
      <trkpt lat="44.96472" lon="5.71938">
        <ele>860.312407</ele>
        <time>2025-07-10T15:08:28.000Z</time>
      </trkpt>
      <trkpt lat="44.96472" lon="5.71934">
        <ele>860.398135</ele>
        <time>2025-07-10T15:08:29.000Z</time>
      </trkpt>
      <trkpt lat="44.96472" lon="5.71929">
        <ele>860.486502</ele>
        <time>2025-07-10T15:08:30.000Z</time>
      </trkpt>
      <trkpt lat="44.96472" lon="5.71925">
        <ele>860.570282</ele>
        <time>2025-07-10T15:08:31.000Z</time>
      </trkpt>
      <trkpt lat="44.96472" lon="5.71921">
        <ele>860.650213</ele>
        <time>2025-07-10T15:08:32.000Z</time>
      </trkpt>
      <trkpt lat="44.96471" lon="5.71917">
        <ele>860.730523</ele>
        <time>2025-07-10T15:08:33.000Z</time>
      </trkpt>
      <trkpt lat="44.96471" lon="5.71913">
        <ele>860.812097</ele>
        <time>2025-07-10T15:08:34.000Z</time>
      </trkpt>
      <trkpt lat="44.9647" lon="5.71909">
        <ele>860.893672</ele>
        <time>2025-07-10T15:08:35.000Z</time>
      </trkpt>
      <trkpt lat="44.9647" lon="5.71905">
        <ele>860.972814</ele>
        <time>2025-07-10T15:08:36.000Z</time>
      </trkpt>
      <trkpt lat="44.96469" lon="5.719">
        <ele>861.05499</ele>
        <time>2025-07-10T15:08:37.000Z</time>
      </trkpt>
      <trkpt lat="44.96468" lon="5.71896">
        <ele>861.138474</ele>
        <time>2025-07-10T15:08:38.000Z</time>
      </trkpt>
      <trkpt lat="44.96468" lon="5.71892">
        <ele>861.219113</ele>
        <time>2025-07-10T15:08:39.000Z</time>
      </trkpt>
      <trkpt lat="44.96467" lon="5.71888">
        <ele>861.296876</ele>
        <time>2025-07-10T15:08:40.000Z</time>
      </trkpt>
      <trkpt lat="44.96467" lon="5.71885">
        <ele>861.369618</ele>
        <time>2025-07-10T15:08:41.000Z</time>
      </trkpt>
      <trkpt lat="44.96466" lon="5.71881">
        <ele>861.449544</ele>
        <time>2025-07-10T15:08:42.000Z</time>
      </trkpt>
      <trkpt lat="44.96465" lon="5.71877">
        <ele>861.52866</ele>
        <time>2025-07-10T15:08:43.000Z</time>
      </trkpt>
      <trkpt lat="44.96464" lon="5.71873">
        <ele>861.605907</ele>
        <time>2025-07-10T15:08:44.000Z</time>
      </trkpt>
      <trkpt lat="44.96463" lon="5.71869">
        <ele>861.681288</ele>
        <time>2025-07-10T15:08:45.000Z</time>
      </trkpt>
      <trkpt lat="44.96462" lon="5.71866">
        <ele>861.756641</ele>
        <time>2025-07-10T15:08:46.000Z</time>
      </trkpt>
      <trkpt lat="44.96461" lon="5.71862">
        <ele>861.831995</ele>
        <time>2025-07-10T15:08:47.000Z</time>
      </trkpt>
      <trkpt lat="44.9646" lon="5.71858">
        <ele>861.911298</ele>
        <time>2025-07-10T15:08:48.000Z</time>
      </trkpt>
      <trkpt lat="44.96459" lon="5.71855">
        <ele>861.992376</ele>
        <time>2025-07-10T15:08:49.000Z</time>
      </trkpt>
      <trkpt lat="44.96458" lon="5.71851">
        <ele>862.072415</ele>
        <time>2025-07-10T15:08:50.000Z</time>
      </trkpt>
      <trkpt lat="44.96456" lon="5.71847">
        <ele>862.152453</ele>
        <time>2025-07-10T15:08:51.000Z</time>
      </trkpt>
      <trkpt lat="44.96455" lon="5.71844">
        <ele>862.233854</ele>
        <time>2025-07-10T15:08:52.000Z</time>
      </trkpt>
      <trkpt lat="44.96453" lon="5.7184">
        <ele>862.315255</ele>
        <time>2025-07-10T15:08:53.000Z</time>
      </trkpt>
      <trkpt lat="44.96452" lon="5.71837">
        <ele>862.391033</ele>
        <time>2025-07-10T15:08:54.000Z</time>
      </trkpt>
      <trkpt lat="44.96451" lon="5.71833">
        <ele>862.469369</ele>
        <time>2025-07-10T15:08:55.000Z</time>
      </trkpt>
      <trkpt lat="44.96449" lon="5.7183">
        <ele>862.545791</ele>
        <time>2025-07-10T15:08:56.000Z</time>
      </trkpt>
      <trkpt lat="44.96448" lon="5.71826">
        <ele>862.628623</ele>
        <time>2025-07-10T15:08:57.000Z</time>
      </trkpt>
      <trkpt lat="44.96446" lon="5.71823">
        <ele>862.71136</ele>
        <time>2025-07-10T15:08:58.000Z</time>
      </trkpt>
      <trkpt lat="44.96444" lon="5.7182">
        <ele>862.794549</ele>
        <time>2025-07-10T15:08:59.000Z</time>
      </trkpt>
      <trkpt lat="44.96442" lon="5.71816">
        <ele>862.875734</ele>
        <time>2025-07-10T15:09:00.000Z</time>
      </trkpt>
      <trkpt lat="44.9644" lon="5.71813">
        <ele>862.953701</ele>
        <time>2025-07-10T15:09:01.000Z</time>
      </trkpt>
      <trkpt lat="44.96438" lon="5.7181">
        <ele>863.033352</ele>
        <time>2025-07-10T15:09:02.000Z</time>
      </trkpt>
      <trkpt lat="44.96437" lon="5.71807">
        <ele>863.114537</ele>
        <time>2025-07-10T15:09:03.000Z</time>
      </trkpt>
      <trkpt lat="44.96435" lon="5.71804">
        <ele>863.194188</ele>
        <time>2025-07-10T15:09:04.000Z</time>
      </trkpt>
      <trkpt lat="44.96433" lon="5.718">
        <ele>863.270606</ele>
        <time>2025-07-10T15:09:05.000Z</time>
      </trkpt>
      <trkpt lat="44.96432" lon="5.71797">
        <ele>863.343803</ele>
        <time>2025-07-10T15:09:06.000Z</time>
      </trkpt>
      <trkpt lat="44.9643" lon="5.71794">
        <ele>863.425543</ele>
        <time>2025-07-10T15:09:07.000Z</time>
      </trkpt>
      <trkpt lat="44.96428" lon="5.71791">
        <ele>863.506936</ele>
        <time>2025-07-10T15:09:08.000Z</time>
      </trkpt>
      <trkpt lat="44.96426" lon="5.71788">
        <ele>863.590126</ele>
        <time>2025-07-10T15:09:09.000Z</time>
      </trkpt>
      <trkpt lat="44.96424" lon="5.71785">
        <ele>863.670437</ele>
        <time>2025-07-10T15:09:10.000Z</time>
      </trkpt>
      <trkpt lat="44.96422" lon="5.71782">
        <ele>863.748572</ele>
        <time>2025-07-10T15:09:11.000Z</time>
      </trkpt>
      <trkpt lat="44.9642" lon="5.71779">
        <ele>863.828106</ele>
        <time>2025-07-10T15:09:12.000Z</time>
      </trkpt>
      <trkpt lat="44.96418" lon="5.71775">
        <ele>863.911001</ele>
        <time>2025-07-10T15:09:13.000Z</time>
      </trkpt>
      <trkpt lat="44.96416" lon="5.71772">
        <ele>863.988008</ele>
        <time>2025-07-10T15:09:14.000Z</time>
      </trkpt>
      <trkpt lat="44.96414" lon="5.7177">
        <ele>864.067509</ele>
        <time>2025-07-10T15:09:15.000Z</time>
      </trkpt>
      <trkpt lat="44.96412" lon="5.71767">
        <ele>864.145686</ele>
        <time>2025-07-10T15:09:16.000Z</time>
      </trkpt>
      <trkpt lat="44.9641" lon="5.71764">
        <ele>864.225921</ele>
        <time>2025-07-10T15:09:17.000Z</time>
      </trkpt>
      <trkpt lat="44.96408" lon="5.71762">
        <ele>864.304892</ele>
        <time>2025-07-10T15:09:18.000Z</time>
      </trkpt>
      <trkpt lat="44.96406" lon="5.71759">
        <ele>864.383069</ele>
        <time>2025-07-10T15:09:19.000Z</time>
      </trkpt>
      <trkpt lat="44.96403" lon="5.71756">
        <ele>864.46204</ele>
        <time>2025-07-10T15:09:20.000Z</time>
      </trkpt>
      <trkpt lat="44.96401" lon="5.71754">
        <ele>864.544374</ele>
        <time>2025-07-10T15:09:21.000Z</time>
      </trkpt>
      <trkpt lat="44.96399" lon="5.71751">
        <ele>864.62461</ele>
        <time>2025-07-10T15:09:22.000Z</time>
      </trkpt>
      <trkpt lat="44.96397" lon="5.71748">
        <ele>864.704111</ele>
        <time>2025-07-10T15:09:23.000Z</time>
      </trkpt>
      <trkpt lat="44.96395" lon="5.71745">
        <ele>864.783082</ele>
        <time>2025-07-10T15:09:24.000Z</time>
      </trkpt>
      <trkpt lat="44.96392" lon="5.71743">
        <ele>864.864185</ele>
        <time>2025-07-10T15:09:25.000Z</time>
      </trkpt>
      <trkpt lat="44.9639" lon="5.7174">
        <ele>864.942913</ele>
        <time>2025-07-10T15:09:26.000Z</time>
      </trkpt>
      <trkpt lat="44.96388" lon="5.71738">
        <ele>865.023873</ele>
        <time>2025-07-10T15:09:27.000Z</time>
      </trkpt>
      <trkpt lat="44.96385" lon="5.71736">
        <ele>865.084508</ele>
        <time>2025-07-10T15:09:28.000Z</time>
      </trkpt>
      <trkpt lat="44.96383" lon="5.71733">
        <ele>865.135817</ele>
        <time>2025-07-10T15:09:29.000Z</time>
      </trkpt>
      <trkpt lat="44.96381" lon="5.71731">
        <ele>865.18648</ele>
        <time>2025-07-10T15:09:30.000Z</time>
      </trkpt>
      <trkpt lat="44.96379" lon="5.71728">
        <ele>865.235591</ele>
        <time>2025-07-10T15:09:31.000Z</time>
      </trkpt>
      <trkpt lat="44.96376" lon="5.71726">
        <ele>865.285468</ele>
        <time>2025-07-10T15:09:32.000Z</time>
      </trkpt>
      <trkpt lat="44.96374" lon="5.71724">
        <ele>865.336777</ele>
        <time>2025-07-10T15:09:33.000Z</time>
      </trkpt>
      <trkpt lat="44.96372" lon="5.71721">
        <ele>865.38744</ele>
        <time>2025-07-10T15:09:34.000Z</time>
      </trkpt>
      <trkpt lat="44.9637" lon="5.71719">
        <ele>865.439514</ele>
        <time>2025-07-10T15:09:35.000Z</time>
      </trkpt>
      <trkpt lat="44.96367" lon="5.71716">
        <ele>865.495219</ele>
        <time>2025-07-10T15:09:36.000Z</time>
      </trkpt>
      <trkpt lat="44.96365" lon="5.71713">
        <ele>865.549489</ele>
        <time>2025-07-10T15:09:37.000Z</time>
      </trkpt>
      <trkpt lat="44.96362" lon="5.71711">
        <ele>865.602997</ele>
        <time>2025-07-10T15:09:38.000Z</time>
      </trkpt>
      <trkpt lat="44.9636" lon="5.71708">
        <ele>865.658049</ele>
        <time>2025-07-10T15:09:39.000Z</time>
      </trkpt>
      <trkpt lat="44.96358" lon="5.71705">
        <ele>865.711708</ele>
        <time>2025-07-10T15:09:40.000Z</time>
      </trkpt>
      <trkpt lat="44.96356" lon="5.71703">
        <ele>865.760177</ele>
        <time>2025-07-10T15:09:41.000Z</time>
      </trkpt>
      <trkpt lat="44.96353" lon="5.71701">
        <ele>865.81084</ele>
        <time>2025-07-10T15:09:42.000Z</time>
      </trkpt>
      <trkpt lat="44.96351" lon="5.71698">
        <ele>865.862308</ele>
        <time>2025-07-10T15:09:43.000Z</time>
      </trkpt>
      <trkpt lat="44.96349" lon="5.71695">
        <ele>865.913258</ele>
        <time>2025-07-10T15:09:44.000Z</time>
      </trkpt>
      <trkpt lat="44.96347" lon="5.71692">
        <ele>865.966391</ele>
        <time>2025-07-10T15:09:45.000Z</time>
      </trkpt>
      <trkpt lat="44.96344" lon="5.7169">
        <ele>866.020629</ele>
        <time>2025-07-10T15:09:46.000Z</time>
      </trkpt>
      <trkpt lat="44.96342" lon="5.71688">
        <ele>866.075592</ele>
        <time>2025-07-10T15:09:47.000Z</time>
      </trkpt>
      <trkpt lat="44.96339" lon="5.71685">
        <ele>866.131324</ele>
        <time>2025-07-10T15:09:48.000Z</time>
      </trkpt>
      <trkpt lat="44.96337" lon="5.71683">
        <ele>866.184178</ele>
        <time>2025-07-10T15:09:49.000Z</time>
      </trkpt>
      <trkpt lat="44.96334" lon="5.7168">
        <ele>866.23923</ele>
        <time>2025-07-10T15:09:50.000Z</time>
      </trkpt>
      <trkpt lat="44.96332" lon="5.71678">
        <ele>866.294282</ele>
        <time>2025-07-10T15:09:51.000Z</time>
      </trkpt>
      <trkpt lat="44.9633" lon="5.71675">
        <ele>866.34779</ele>
        <time>2025-07-10T15:09:52.000Z</time>
      </trkpt>
      <trkpt lat="44.96327" lon="5.71672">
        <ele>866.40206</ele>
        <time>2025-07-10T15:09:53.000Z</time>
      </trkpt>
      <trkpt lat="44.96325" lon="5.7167">
        <ele>866.45654</ele>
        <time>2025-07-10T15:09:54.000Z</time>
      </trkpt>
      <trkpt lat="44.96322" lon="5.71667">
        <ele>866.513701</ele>
        <time>2025-07-10T15:09:55.000Z</time>
      </trkpt>
      <trkpt lat="44.9632" lon="5.71664">
        <ele>866.569407</ele>
        <time>2025-07-10T15:09:56.000Z</time>
      </trkpt>
      <trkpt lat="44.96317" lon="5.71662">
        <ele>866.623066</ele>
        <time>2025-07-10T15:09:57.000Z</time>
      </trkpt>
      <trkpt lat="44.96315" lon="5.71659">
        <ele>866.677337</ele>
        <time>2025-07-10T15:09:58.000Z</time>
      </trkpt>
      <trkpt lat="44.96313" lon="5.71657">
        <ele>866.730194</ele>
        <time>2025-07-10T15:09:59.000Z</time>
      </trkpt>
      <trkpt lat="44.9631" lon="5.71654">
        <ele>866.783702</ele>
        <time>2025-07-10T15:10:00.000Z</time>
      </trkpt>
      <trkpt lat="44.96308" lon="5.71651">
        <ele>866.83517</ele>
        <time>2025-07-10T15:10:01.000Z</time>
      </trkpt>
      <trkpt lat="44.96306" lon="5.71649">
        <ele>866.887244</ele>
        <time>2025-07-10T15:10:02.000Z</time>
      </trkpt>
      <trkpt lat="44.96303" lon="5.71646">
        <ele>866.941514</ele>
        <time>2025-07-10T15:10:03.000Z</time>
      </trkpt>
      <trkpt lat="44.96301" lon="5.71644">
        <ele>866.993588</ele>
        <time>2025-07-10T15:10:04.000Z</time>
      </trkpt>
      <trkpt lat="44.96299" lon="5.71641">
        <ele>867.046445</ele>
        <time>2025-07-10T15:10:05.000Z</time>
      </trkpt>
      <trkpt lat="44.96296" lon="5.71639">
        <ele>867.102151</ele>
        <time>2025-07-10T15:10:06.000Z</time>
      </trkpt>
      <trkpt lat="44.96294" lon="5.71636">
        <ele>867.152814</ele>
        <time>2025-07-10T15:10:07.000Z</time>
      </trkpt>
      <trkpt lat="44.96292" lon="5.71634">
        <ele>867.205578</ele>
        <time>2025-07-10T15:10:08.000Z</time>
      </trkpt>
      <trkpt lat="44.96289" lon="5.71631">
        <ele>867.259114</ele>
        <time>2025-07-10T15:10:09.000Z</time>
      </trkpt>
      <trkpt lat="44.96287" lon="5.71629">
        <ele>867.311155</ele>
        <time>2025-07-10T15:10:10.000Z</time>
      </trkpt>
      <trkpt lat="44.96284" lon="5.71627">
        <ele>867.364662</ele>
        <time>2025-07-10T15:10:11.000Z</time>
      </trkpt>
      <trkpt lat="44.96282" lon="5.71624">
        <ele>867.418933</ele>
        <time>2025-07-10T15:10:12.000Z</time>
      </trkpt>
      <trkpt lat="44.9628" lon="5.71621">
        <ele>867.473413</ele>
        <time>2025-07-10T15:10:13.000Z</time>
      </trkpt>
      <trkpt lat="44.96277" lon="5.71619">
        <ele>867.524722</ele>
        <time>2025-07-10T15:10:14.000Z</time>
      </trkpt>
      <trkpt lat="44.96275" lon="5.71616">
        <ele>867.57758</ele>
        <time>2025-07-10T15:10:15.000Z</time>
      </trkpt>
      <trkpt lat="44.96273" lon="5.71614">
        <ele>867.630344</ele>
        <time>2025-07-10T15:10:16.000Z</time>
      </trkpt>
      <trkpt lat="44.96271" lon="5.71612">
        <ele>867.679456</ele>
        <time>2025-07-10T15:10:17.000Z</time>
      </trkpt>
      <trkpt lat="44.96268" lon="5.71609">
        <ele>867.732991</ele>
        <time>2025-07-10T15:10:18.000Z</time>
      </trkpt>
      <trkpt lat="44.96266" lon="5.71607">
        <ele>867.787231</ele>
        <time>2025-07-10T15:10:19.000Z</time>
      </trkpt>
      <trkpt lat="44.96263" lon="5.71605">
        <ele>867.840766</ele>
        <time>2025-07-10T15:10:20.000Z</time>
      </trkpt>
      <trkpt lat="44.9626" lon="5.71602">
        <ele>867.897204</ele>
        <time>2025-07-10T15:10:21.000Z</time>
      </trkpt>
      <trkpt lat="44.96258" lon="5.71599">
        <ele>867.952909</ele>
        <time>2025-07-10T15:10:22.000Z</time>
      </trkpt>
      <trkpt lat="44.96255" lon="5.71597">
        <ele>868.010813</ele>
        <time>2025-07-10T15:10:23.000Z</time>
      </trkpt>
      <trkpt lat="44.96253" lon="5.71594">
        <ele>868.065776</ele>
        <time>2025-07-10T15:10:24.000Z</time>
      </trkpt>
      <trkpt lat="44.9625" lon="5.71592">
        <ele>868.121509</ele>
        <time>2025-07-10T15:10:25.000Z</time>
      </trkpt>
      <trkpt lat="44.96248" lon="5.71589">
        <ele>868.178753</ele>
        <time>2025-07-10T15:10:26.000Z</time>
      </trkpt>
      <trkpt lat="44.96245" lon="5.71587">
        <ele>868.239586</ele>
        <time>2025-07-10T15:10:27.000Z</time>
      </trkpt>
      <trkpt lat="44.96242" lon="5.71584">
        <ele>868.275544</ele>
        <time>2025-07-10T15:10:28.000Z</time>
      </trkpt>
      <trkpt lat="44.96239" lon="5.71581">
        <ele>868.273141</ele>
        <time>2025-07-10T15:10:29.000Z</time>
      </trkpt>
      <trkpt lat="44.96236" lon="5.71579">
        <ele>868.270684</ele>
        <time>2025-07-10T15:10:30.000Z</time>
      </trkpt>
      <trkpt lat="44.96233" lon="5.71576">
        <ele>868.268136</ele>
        <time>2025-07-10T15:10:31.000Z</time>
      </trkpt>
      <trkpt lat="44.9623" lon="5.71573">
        <ele>868.265535</ele>
        <time>2025-07-10T15:10:32.000Z</time>
      </trkpt>
      <trkpt lat="44.96227" lon="5.7157">
        <ele>868.262987</ele>
        <time>2025-07-10T15:10:33.000Z</time>
      </trkpt>
      <trkpt lat="44.96224" lon="5.71567">
        <ele>868.260386</ele>
        <time>2025-07-10T15:10:34.000Z</time>
      </trkpt>
      <trkpt lat="44.96221" lon="5.71564">
        <ele>868.257757</ele>
        <time>2025-07-10T15:10:35.000Z</time>
      </trkpt>
      <trkpt lat="44.96218" lon="5.71561">
        <ele>868.255035</ele>
        <time>2025-07-10T15:10:36.000Z</time>
      </trkpt>
      <trkpt lat="44.96215" lon="5.71557">
        <ele>868.252344</ele>
        <time>2025-07-10T15:10:37.000Z</time>
      </trkpt>
      <trkpt lat="44.96212" lon="5.71554">
        <ele>868.249611</ele>
        <time>2025-07-10T15:10:38.000Z</time>
      </trkpt>
      <trkpt lat="44.96209" lon="5.7155">
        <ele>868.246929</ele>
        <time>2025-07-10T15:10:39.000Z</time>
      </trkpt>
      <trkpt lat="44.96207" lon="5.71546">
        <ele>868.244287</ele>
        <time>2025-07-10T15:10:40.000Z</time>
      </trkpt>
      <trkpt lat="44.96204" lon="5.71542">
        <ele>868.241652</ele>
        <time>2025-07-10T15:10:41.000Z</time>
      </trkpt>
      <trkpt lat="44.96202" lon="5.71537">
        <ele>868.239025</ele>
        <time>2025-07-10T15:10:42.000Z</time>
      </trkpt>
      <trkpt lat="44.962" lon="5.71533">
        <ele>868.236437</ele>
        <time>2025-07-10T15:10:43.000Z</time>
      </trkpt>
      <trkpt lat="44.96198" lon="5.71528">
        <ele>868.233834</ele>
        <time>2025-07-10T15:10:44.000Z</time>
      </trkpt>
      <trkpt lat="44.96197" lon="5.71524">
        <ele>868.231297</ele>
        <time>2025-07-10T15:10:45.000Z</time>
      </trkpt>
      <trkpt lat="44.96195" lon="5.71519">
        <ele>868.228863</ele>
        <time>2025-07-10T15:10:46.000Z</time>
      </trkpt>
      <trkpt lat="44.96194" lon="5.71515">
        <ele>868.226384</ele>
        <time>2025-07-10T15:10:47.000Z</time>
      </trkpt>
      <trkpt lat="44.96193" lon="5.7151">
        <ele>868.223933</ele>
        <time>2025-07-10T15:10:48.000Z</time>
      </trkpt>
      <trkpt lat="44.96192" lon="5.71505">
        <ele>868.221459</ele>
        <time>2025-07-10T15:10:49.000Z</time>
      </trkpt>
      <trkpt lat="44.96191" lon="5.715">
        <ele>868.218887</ele>
        <time>2025-07-10T15:10:50.000Z</time>
      </trkpt>
      <trkpt lat="44.96191" lon="5.71495">
        <ele>868.216363</ele>
        <time>2025-07-10T15:10:51.000Z</time>
      </trkpt>
      <trkpt lat="44.9619" lon="5.7149">
        <ele>868.213781</ele>
        <time>2025-07-10T15:10:52.000Z</time>
      </trkpt>
      <trkpt lat="44.9619" lon="5.71485">
        <ele>868.211142</ele>
        <time>2025-07-10T15:10:53.000Z</time>
      </trkpt>
      <trkpt lat="44.9619" lon="5.71479">
        <ele>868.208608</ele>
        <time>2025-07-10T15:10:54.000Z</time>
      </trkpt>
      <trkpt lat="44.96189" lon="5.71474">
        <ele>868.205981</ele>
        <time>2025-07-10T15:10:55.000Z</time>
      </trkpt>
      <trkpt lat="44.96189" lon="5.71469">
        <ele>868.203398</ele>
        <time>2025-07-10T15:10:56.000Z</time>
      </trkpt>
      <trkpt lat="44.96189" lon="5.71464">
        <ele>868.20082</ele>
        <time>2025-07-10T15:10:57.000Z</time>
      </trkpt>
      <trkpt lat="44.96189" lon="5.71458">
        <ele>868.198195</ele>
        <time>2025-07-10T15:10:58.000Z</time>
      </trkpt>
      <trkpt lat="44.96189" lon="5.71453">
        <ele>868.19557</ele>
        <time>2025-07-10T15:10:59.000Z</time>
      </trkpt>
      <trkpt lat="44.96189" lon="5.71448">
        <ele>868.192995</ele>
        <time>2025-07-10T15:11:00.000Z</time>
      </trkpt>
      <trkpt lat="44.9619" lon="5.71443">
        <ele>868.190363</ele>
        <time>2025-07-10T15:11:01.000Z</time>
      </trkpt>
      <trkpt lat="44.9619" lon="5.71437">
        <ele>868.187773</ele>
        <time>2025-07-10T15:11:02.000Z</time>
      </trkpt>
      <trkpt lat="44.9619" lon="5.71432">
        <ele>868.185225</ele>
        <time>2025-07-10T15:11:03.000Z</time>
      </trkpt>
      <trkpt lat="44.96191" lon="5.71427">
        <ele>868.182763</ele>
        <time>2025-07-10T15:11:04.000Z</time>
      </trkpt>
      <trkpt lat="44.96192" lon="5.71423">
        <ele>868.180321</ele>
        <time>2025-07-10T15:11:05.000Z</time>
      </trkpt>
      <trkpt lat="44.96193" lon="5.71418">
        <ele>868.177832</ele>
        <time>2025-07-10T15:11:06.000Z</time>
      </trkpt>
      <trkpt lat="44.96194" lon="5.71413">
        <ele>868.175278</ele>
        <time>2025-07-10T15:11:07.000Z</time>
      </trkpt>
      <trkpt lat="44.96195" lon="5.71408">
        <ele>868.172658</ele>
        <time>2025-07-10T15:11:08.000Z</time>
      </trkpt>
      <trkpt lat="44.96196" lon="5.71402">
        <ele>868.169923</ele>
        <time>2025-07-10T15:11:09.000Z</time>
      </trkpt>
      <trkpt lat="44.96197" lon="5.71397">
        <ele>868.16708</ele>
        <time>2025-07-10T15:11:10.000Z</time>
      </trkpt>
      <trkpt lat="44.96198" lon="5.71391">
        <ele>868.16406</ele>
        <time>2025-07-10T15:11:11.000Z</time>
      </trkpt>
      <trkpt lat="44.96199" lon="5.71385">
        <ele>868.161183</ele>
        <time>2025-07-10T15:11:12.000Z</time>
      </trkpt>
      <trkpt lat="44.962" lon="5.71379">
        <ele>868.158096</ele>
        <time>2025-07-10T15:11:13.000Z</time>
      </trkpt>
      <trkpt lat="44.96201" lon="5.71373">
        <ele>868.154818</ele>
        <time>2025-07-10T15:11:14.000Z</time>
      </trkpt>
      <trkpt lat="44.96202" lon="5.71366">
        <ele>868.151461</ele>
        <time>2025-07-10T15:11:15.000Z</time>
      </trkpt>
      <trkpt lat="44.96203" lon="5.7136">
        <ele>868.115419</ele>
        <time>2025-07-10T15:11:16.000Z</time>
      </trkpt>
      <trkpt lat="44.96204" lon="5.71353">
        <ele>868.067314</ele>
        <time>2025-07-10T15:11:17.000Z</time>
      </trkpt>
      <trkpt lat="44.96205" lon="5.71346">
        <ele>868.018352</ele>
        <time>2025-07-10T15:11:18.000Z</time>
      </trkpt>
      <trkpt lat="44.96206" lon="5.71338">
        <ele>867.969619</ele>
        <time>2025-07-10T15:11:19.000Z</time>
      </trkpt>
      <trkpt lat="44.96206" lon="5.71331">
        <ele>867.920291</ele>
        <time>2025-07-10T15:11:20.000Z</time>
      </trkpt>
      <trkpt lat="44.96206" lon="5.71324">
        <ele>867.870348</ele>
        <time>2025-07-10T15:11:21.000Z</time>
      </trkpt>
      <trkpt lat="44.96207" lon="5.71317">
        <ele>867.819722</ele>
        <time>2025-07-10T15:11:22.000Z</time>
      </trkpt>
      <trkpt lat="44.96207" lon="5.71309">
        <ele>867.769779</ele>
        <time>2025-07-10T15:11:23.000Z</time>
      </trkpt>
      <trkpt lat="44.96207" lon="5.71302">
        <ele>867.720366</ele>
        <time>2025-07-10T15:11:24.000Z</time>
      </trkpt>
      <trkpt lat="44.96208" lon="5.71295">
        <ele>867.671719</ele>
        <time>2025-07-10T15:11:25.000Z</time>
      </trkpt>
      <trkpt lat="44.96208" lon="5.71288">
        <ele>867.62387</ele>
        <time>2025-07-10T15:11:26.000Z</time>
      </trkpt>
      <trkpt lat="44.96208" lon="5.71281">
        <ele>867.576496</ele>
        <time>2025-07-10T15:11:27.000Z</time>
      </trkpt>
      <trkpt lat="44.96209" lon="5.71274">
        <ele>867.529892</ele>
        <time>2025-07-10T15:11:28.000Z</time>
      </trkpt>
      <trkpt lat="44.96209" lon="5.71267">
        <ele>867.482606</ele>
        <time>2025-07-10T15:11:29.000Z</time>
      </trkpt>
      <trkpt lat="44.9621" lon="5.71261">
        <ele>867.437271</ele>
        <time>2025-07-10T15:11:30.000Z</time>
      </trkpt>
      <trkpt lat="44.9621" lon="5.71254">
        <ele>867.391418</ele>
        <time>2025-07-10T15:11:31.000Z</time>
      </trkpt>
      <trkpt lat="44.9621" lon="5.71247">
        <ele>867.344933</ele>
        <time>2025-07-10T15:11:32.000Z</time>
      </trkpt>
      <trkpt lat="44.96211" lon="5.71241">
        <ele>867.298918</ele>
        <time>2025-07-10T15:11:33.000Z</time>
      </trkpt>
      <trkpt lat="44.96211" lon="5.71234">
        <ele>867.250865</ele>
        <time>2025-07-10T15:11:34.000Z</time>
      </trkpt>
      <trkpt lat="44.96212" lon="5.71227">
        <ele>867.202899</ele>
        <time>2025-07-10T15:11:35.000Z</time>
      </trkpt>
      <trkpt lat="44.96212" lon="5.71219">
        <ele>867.153637</ele>
        <time>2025-07-10T15:11:36.000Z</time>
      </trkpt>
      <trkpt lat="44.96212" lon="5.71212">
        <ele>867.103694</ele>
        <time>2025-07-10T15:11:37.000Z</time>
      </trkpt>
      <trkpt lat="44.96212" lon="5.71205">
        <ele>867.052459</ele>
        <time>2025-07-10T15:11:38.000Z</time>
      </trkpt>
      <trkpt lat="44.96213" lon="5.71197">
        <ele>867.00047</ele>
        <time>2025-07-10T15:11:39.000Z</time>
      </trkpt>
      <trkpt lat="44.96213" lon="5.71189">
        <ele>866.947879</ele>
        <time>2025-07-10T15:11:40.000Z</time>
      </trkpt>
      <trkpt lat="44.96212" lon="5.71182">
        <ele>866.895252</ele>
        <time>2025-07-10T15:11:41.000Z</time>
      </trkpt>
      <trkpt lat="44.96212" lon="5.71174">
        <ele>866.842625</ele>
        <time>2025-07-10T15:11:42.000Z</time>
      </trkpt>
      <trkpt lat="44.96212" lon="5.71166">
        <ele>866.791364</ele>
        <time>2025-07-10T15:11:43.000Z</time>
      </trkpt>
      <trkpt lat="44.96212" lon="5.71159">
        <ele>866.738693</ele>
        <time>2025-07-10T15:11:44.000Z</time>
      </trkpt>
      <trkpt lat="44.96211" lon="5.71151">
        <ele>866.685279</ele>
        <time>2025-07-10T15:11:45.000Z</time>
      </trkpt>
      <trkpt lat="44.96211" lon="5.71143">
        <ele>866.631926</ele>
        <time>2025-07-10T15:11:46.000Z</time>
      </trkpt>
      <trkpt lat="44.96211" lon="5.71135">
        <ele>866.579325</ele>
        <time>2025-07-10T15:11:47.000Z</time>
      </trkpt>
      <trkpt lat="44.96211" lon="5.71128">
        <ele>866.526016</ele>
        <time>2025-07-10T15:11:48.000Z</time>
      </trkpt>
      <trkpt lat="44.96211" lon="5.7112">
        <ele>866.473416</ele>
        <time>2025-07-10T15:11:49.000Z</time>
      </trkpt>
      <trkpt lat="44.96211" lon="5.71112">
        <ele>866.420133</ele>
        <time>2025-07-10T15:11:50.000Z</time>
      </trkpt>
      <trkpt lat="44.9621" lon="5.71104">
        <ele>866.333847</ele>
        <time>2025-07-10T15:11:51.000Z</time>
      </trkpt>
      <trkpt lat="44.9621" lon="5.71097">
        <ele>866.245732</ele>
        <time>2025-07-10T15:11:52.000Z</time>
      </trkpt>
      <trkpt lat="44.9621" lon="5.71089">
        <ele>866.156464</ele>
        <time>2025-07-10T15:11:53.000Z</time>
      </trkpt>
      <trkpt lat="44.96209" lon="5.71081">
        <ele>866.068531</ele>
        <time>2025-07-10T15:11:54.000Z</time>
      </trkpt>
      <trkpt lat="44.96209" lon="5.71074">
        <ele>865.978332</ele>
        <time>2025-07-10T15:11:55.000Z</time>
      </trkpt>
      <trkpt lat="44.96209" lon="5.71066">
        <ele>865.890399</ele>
        <time>2025-07-10T15:11:56.000Z</time>
      </trkpt>
      <trkpt lat="44.96209" lon="5.71058">
        <ele>865.801235</ele>
        <time>2025-07-10T15:11:57.000Z</time>
      </trkpt>
      <trkpt lat="44.96209" lon="5.7105">
        <ele>865.710991</ele>
        <time>2025-07-10T15:11:58.000Z</time>
      </trkpt>
      <trkpt lat="44.96209" lon="5.71043">
        <ele>865.619636</ele>
        <time>2025-07-10T15:11:59.000Z</time>
      </trkpt>
      <trkpt lat="44.96208" lon="5.71035">
        <ele>865.529214</ele>
        <time>2025-07-10T15:12:00.000Z</time>
      </trkpt>
      <trkpt lat="44.96208" lon="5.71027">
        <ele>865.437349</ele>
        <time>2025-07-10T15:12:01.000Z</time>
      </trkpt>
      <trkpt lat="44.96207" lon="5.71019">
        <ele>865.346633</ele>
        <time>2025-07-10T15:12:02.000Z</time>
      </trkpt>
      <trkpt lat="44.96206" lon="5.71011">
        <ele>865.256649</ele>
        <time>2025-07-10T15:12:03.000Z</time>
      </trkpt>
      <trkpt lat="44.96206" lon="5.71004">
        <ele>865.169381</ele>
        <time>2025-07-10T15:12:04.000Z</time>
      </trkpt>
      <trkpt lat="44.96205" lon="5.70997">
        <ele>865.08441</ele>
        <time>2025-07-10T15:12:05.000Z</time>
      </trkpt>
      <trkpt lat="44.96204" lon="5.70989">
        <ele>864.998734</ele>
        <time>2025-07-10T15:12:06.000Z</time>
      </trkpt>
      <trkpt lat="44.96203" lon="5.70982">
        <ele>864.915609</ele>
        <time>2025-07-10T15:12:07.000Z</time>
      </trkpt>
      <trkpt lat="44.96202" lon="5.70975">
        <ele>864.83221</ele>
        <time>2025-07-10T15:12:08.000Z</time>
      </trkpt>
      <trkpt lat="44.96202" lon="5.70968">
        <ele>864.748812</ele>
        <time>2025-07-10T15:12:09.000Z</time>
      </trkpt>
      <trkpt lat="44.962" lon="5.70961">
        <ele>864.663646</ele>
        <time>2025-07-10T15:12:10.000Z</time>
      </trkpt>
      <trkpt lat="44.96199" lon="5.70953">
        <ele>864.57735</ele>
        <time>2025-07-10T15:12:11.000Z</time>
      </trkpt>
      <trkpt lat="44.96198" lon="5.70946">
        <ele>864.491053</ele>
        <time>2025-07-10T15:12:12.000Z</time>
      </trkpt>
      <trkpt lat="44.96197" lon="5.70939">
        <ele>864.401361</ele>
        <time>2025-07-10T15:12:13.000Z</time>
      </trkpt>
      <trkpt lat="44.96196" lon="5.70931">
        <ele>864.312081</ele>
        <time>2025-07-10T15:12:14.000Z</time>
      </trkpt>
      <trkpt lat="44.96194" lon="5.70924">
        <ele>864.221024</ele>
        <time>2025-07-10T15:12:15.000Z</time>
      </trkpt>
      <trkpt lat="44.96193" lon="5.70916">
        <ele>864.129344</ele>
        <time>2025-07-10T15:12:16.000Z</time>
      </trkpt>
      <trkpt lat="44.96191" lon="5.70908">
        <ele>864.035582</ele>
        <time>2025-07-10T15:12:17.000Z</time>
      </trkpt>
      <trkpt lat="44.96189" lon="5.70901">
        <ele>863.942918</ele>
        <time>2025-07-10T15:12:18.000Z</time>
      </trkpt>
      <trkpt lat="44.96187" lon="5.70893">
        <ele>863.848583</ele>
        <time>2025-07-10T15:12:19.000Z</time>
      </trkpt>
      <trkpt lat="44.96184" lon="5.70886">
        <ele>863.754463</ele>
        <time>2025-07-10T15:12:20.000Z</time>
      </trkpt>
      <trkpt lat="44.96182" lon="5.70878">
        <ele>863.659969</ele>
        <time>2025-07-10T15:12:21.000Z</time>
      </trkpt>
      <trkpt lat="44.96179" lon="5.70871">
        <ele>863.566773</ele>
        <time>2025-07-10T15:12:22.000Z</time>
      </trkpt>
      <trkpt lat="44.96176" lon="5.70864">
        <ele>863.471389</ele>
        <time>2025-07-10T15:12:23.000Z</time>
      </trkpt>
      <trkpt lat="44.96174" lon="5.70857">
        <ele>863.364533</ele>
        <time>2025-07-10T15:12:24.000Z</time>
      </trkpt>
      <trkpt lat="44.96171" lon="5.70849">
        <ele>863.258496</ele>
        <time>2025-07-10T15:12:25.000Z</time>
      </trkpt>
      <trkpt lat="44.96168" lon="5.70842">
        <ele>863.153607</ele>
        <time>2025-07-10T15:12:26.000Z</time>
      </trkpt>
      <trkpt lat="44.96166" lon="5.70835">
        <ele>863.04952</ele>
        <time>2025-07-10T15:12:27.000Z</time>
      </trkpt>
      <trkpt lat="44.96164" lon="5.70827">
        <ele>862.947687</ele>
        <time>2025-07-10T15:12:28.000Z</time>
      </trkpt>
      <trkpt lat="44.96162" lon="5.7082">
        <ele>862.84536</ele>
        <time>2025-07-10T15:12:29.000Z</time>
      </trkpt>
      <trkpt lat="44.9616" lon="5.70812">
        <ele>862.743121</ele>
        <time>2025-07-10T15:12:30.000Z</time>
      </trkpt>
      <trkpt lat="44.96158" lon="5.70805">
        <ele>862.642692</ele>
        <time>2025-07-10T15:12:31.000Z</time>
      </trkpt>
      <trkpt lat="44.96156" lon="5.70798">
        <ele>862.544059</ele>
        <time>2025-07-10T15:12:32.000Z</time>
      </trkpt>
      <trkpt lat="44.96155" lon="5.7079">
        <ele>862.444751</ele>
        <time>2025-07-10T15:12:33.000Z</time>
      </trkpt>
      <trkpt lat="44.96153" lon="5.70783">
        <ele>862.346441</ele>
        <time>2025-07-10T15:12:34.000Z</time>
      </trkpt>
      <trkpt lat="44.96152" lon="5.70776">
        <ele>862.249371</ele>
        <time>2025-07-10T15:12:35.000Z</time>
      </trkpt>
      <trkpt lat="44.9615" lon="5.70768">
        <ele>862.152301</ele>
        <time>2025-07-10T15:12:36.000Z</time>
      </trkpt>
      <trkpt lat="44.96149" lon="5.70761">
        <ele>862.058615</ele>
        <time>2025-07-10T15:12:37.000Z</time>
      </trkpt>
      <trkpt lat="44.96148" lon="5.70754">
        <ele>861.96368</ele>
        <time>2025-07-10T15:12:38.000Z</time>
      </trkpt>
      <trkpt lat="44.96147" lon="5.70747">
        <ele>861.867889</ele>
        <time>2025-07-10T15:12:39.000Z</time>
      </trkpt>
      <trkpt lat="44.96146" lon="5.7074">
        <ele>861.773353</ele>
        <time>2025-07-10T15:12:40.000Z</time>
      </trkpt>
      <trkpt lat="44.96145" lon="5.70732">
        <ele>861.679183</ele>
        <time>2025-07-10T15:12:41.000Z</time>
      </trkpt>
      <trkpt lat="44.96144" lon="5.70725">
        <ele>861.585013</ele>
        <time>2025-07-10T15:12:42.000Z</time>
      </trkpt>
      <trkpt lat="44.96143" lon="5.70718">
        <ele>861.490843</ele>
        <time>2025-07-10T15:12:43.000Z</time>
      </trkpt>
      <trkpt lat="44.96142" lon="5.70711">
        <ele>861.398572</ele>
        <time>2025-07-10T15:12:44.000Z</time>
      </trkpt>
      <trkpt lat="44.96141" lon="5.70704">
        <ele>861.306301</ele>
        <time>2025-07-10T15:12:45.000Z</time>
      </trkpt>
      <trkpt lat="44.9614" lon="5.70697">
        <ele>861.21499</ele>
        <time>2025-07-10T15:12:46.000Z</time>
      </trkpt>
      <trkpt lat="44.96139" lon="5.7069">
        <ele>861.126204</ele>
        <time>2025-07-10T15:12:47.000Z</time>
      </trkpt>
      <trkpt lat="44.96139" lon="5.70683">
        <ele>861.036467</ele>
        <time>2025-07-10T15:12:48.000Z</time>
      </trkpt>
      <trkpt lat="44.96138" lon="5.70676">
        <ele>860.943893</ele>
        <time>2025-07-10T15:12:49.000Z</time>
      </trkpt>
      <trkpt lat="44.96137" lon="5.70669">
        <ele>860.853844</ele>
        <time>2025-07-10T15:12:50.000Z</time>
      </trkpt>
      <trkpt lat="44.96136" lon="5.70662">
        <ele>860.765373</ele>
        <time>2025-07-10T15:12:51.000Z</time>
      </trkpt>
      <trkpt lat="44.96135" lon="5.70655">
        <ele>860.677182</ele>
        <time>2025-07-10T15:12:52.000Z</time>
      </trkpt>
      <trkpt lat="44.96135" lon="5.70649">
        <ele>860.589976</ele>
        <time>2025-07-10T15:12:53.000Z</time>
      </trkpt>
      <trkpt lat="44.96134" lon="5.70642">
        <ele>860.504324</ele>
        <time>2025-07-10T15:12:54.000Z</time>
      </trkpt>
      <trkpt lat="44.96133" lon="5.70636">
        <ele>860.419941</ele>
        <time>2025-07-10T15:12:55.000Z</time>
      </trkpt>
      <trkpt lat="44.96132" lon="5.70629">
        <ele>860.336826</ele>
        <time>2025-07-10T15:12:56.000Z</time>
      </trkpt>
      <trkpt lat="44.96132" lon="5.70623">
        <ele>860.255241</ele>
        <time>2025-07-10T15:12:57.000Z</time>
      </trkpt>
      <trkpt lat="44.96131" lon="5.70617">
        <ele>860.184523</ele>
        <time>2025-07-10T15:12:58.000Z</time>
      </trkpt>
      <trkpt lat="44.96131" lon="5.7061">
        <ele>860.127213</ele>
        <time>2025-07-10T15:12:59.000Z</time>
      </trkpt>
      <trkpt lat="44.9613" lon="5.70604">
        <ele>860.067963</ele>
        <time>2025-07-10T15:13:00.000Z</time>
      </trkpt>
      <trkpt lat="44.9613" lon="5.70598">
        <ele>860.010549</ele>
        <time>2025-07-10T15:13:01.000Z</time>
      </trkpt>
      <trkpt lat="44.9613" lon="5.70592">
        <ele>859.955079</ele>
        <time>2025-07-10T15:13:02.000Z</time>
      </trkpt>
      <trkpt lat="44.96129" lon="5.70586">
        <ele>859.89869</ele>
        <time>2025-07-10T15:13:03.000Z</time>
      </trkpt>
      <trkpt lat="44.96129" lon="5.7058">
        <ele>859.842194</ele>
        <time>2025-07-10T15:13:04.000Z</time>
      </trkpt>
      <trkpt lat="44.96129" lon="5.70574">
        <ele>859.78648</ele>
        <time>2025-07-10T15:13:05.000Z</time>
      </trkpt>
      <trkpt lat="44.96128" lon="5.70568">
        <ele>859.73009</ele>
        <time>2025-07-10T15:13:06.000Z</time>
      </trkpt>
      <trkpt lat="44.96128" lon="5.70561">
        <ele>859.67186</ele>
        <time>2025-07-10T15:13:07.000Z</time>
      </trkpt>
      <trkpt lat="44.96128" lon="5.70555">
        <ele>859.612782</ele>
        <time>2025-07-10T15:13:08.000Z</time>
      </trkpt>
      <trkpt lat="44.96127" lon="5.70548">
        <ele>859.552613</ele>
        <time>2025-07-10T15:13:09.000Z</time>
      </trkpt>
      <trkpt lat="44.96127" lon="5.70542">
        <ele>859.49415</ele>
        <time>2025-07-10T15:13:10.000Z</time>
      </trkpt>
      <trkpt lat="44.96127" lon="5.70536">
        <ele>859.43592</ele>
        <time>2025-07-10T15:13:11.000Z</time>
      </trkpt>
      <trkpt lat="44.96126" lon="5.70529">
        <ele>859.377763</ele>
        <time>2025-07-10T15:13:12.000Z</time>
      </trkpt>
      <trkpt lat="44.96126" lon="5.70523">
        <ele>859.317693</ele>
        <time>2025-07-10T15:13:13.000Z</time>
      </trkpt>
      <trkpt lat="44.96126" lon="5.70517">
        <ele>859.258543</ele>
        <time>2025-07-10T15:13:14.000Z</time>
      </trkpt>
      <trkpt lat="44.96125" lon="5.7051">
        <ele>859.20008</ele>
        <time>2025-07-10T15:13:15.000Z</time>
      </trkpt>
      <trkpt lat="44.96125" lon="5.70504">
        <ele>859.14185</ele>
        <time>2025-07-10T15:13:16.000Z</time>
      </trkpt>
      <trkpt lat="44.96125" lon="5.70498">
        <ele>859.083518</ele>
        <time>2025-07-10T15:13:17.000Z</time>
      </trkpt>
      <trkpt lat="44.96124" lon="5.70491">
        <ele>859.023519</ele>
        <time>2025-07-10T15:13:18.000Z</time>
      </trkpt>
      <trkpt lat="44.96125" lon="5.70485">
        <ele>858.963449</ele>
        <time>2025-07-10T15:13:19.000Z</time>
      </trkpt>
      <trkpt lat="44.96125" lon="5.70478">
        <ele>858.904986</ele>
        <time>2025-07-10T15:13:20.000Z</time>
      </trkpt>
      <trkpt lat="44.96126" lon="5.70472">
        <ele>858.845715</ele>
        <time>2025-07-10T15:13:21.000Z</time>
      </trkpt>
      <trkpt lat="44.96128" lon="5.70466">
        <ele>858.786584</ele>
        <time>2025-07-10T15:13:22.000Z</time>
      </trkpt>
      <trkpt lat="44.9613" lon="5.70461">
        <ele>858.72976</ele>
        <time>2025-07-10T15:13:23.000Z</time>
      </trkpt>
      <trkpt lat="44.96132" lon="5.70456">
        <ele>858.671756</ele>
        <time>2025-07-10T15:13:24.000Z</time>
      </trkpt>
      <trkpt lat="44.96135" lon="5.70451">
        <ele>858.616047</ele>
        <time>2025-07-10T15:13:25.000Z</time>
      </trkpt>
      <trkpt lat="44.96136" lon="5.70445">
        <ele>858.564729</ele>
        <time>2025-07-10T15:13:26.000Z</time>
      </trkpt>
      <trkpt lat="44.96137" lon="5.7044">
        <ele>858.517051</ele>
        <time>2025-07-10T15:13:27.000Z</time>
      </trkpt>
      <trkpt lat="44.96138" lon="5.70437">
        <ele>858.478127</ele>
        <time>2025-07-10T15:13:28.000Z</time>
      </trkpt>
      <trkpt lat="44.96139" lon="5.70434">
        <ele>858.446509</ele>
        <time>2025-07-10T15:13:29.000Z</time>
      </trkpt>
      <trkpt lat="44.96141" lon="5.70433">
        <ele>858.422902</ele>
        <time>2025-07-10T15:13:30.000Z</time>
      </trkpt>
      <trkpt lat="44.96143" lon="5.70432">
        <ele>858.399154</ele>
        <time>2025-07-10T15:13:31.000Z</time>
      </trkpt>
      <trkpt lat="44.96145" lon="5.70432">
        <ele>858.370422</ele>
        <time>2025-07-10T15:13:32.000Z</time>
      </trkpt>
      <trkpt lat="44.96147" lon="5.70432">
        <ele>858.341616</ele>
        <time>2025-07-10T15:13:33.000Z</time>
      </trkpt>
      <trkpt lat="44.96149" lon="5.70432">
        <ele>858.312929</ele>
        <time>2025-07-10T15:13:34.000Z</time>
      </trkpt>
      <trkpt lat="44.96152" lon="5.70431">
        <ele>858.284123</ele>
        <time>2025-07-10T15:13:35.000Z</time>
      </trkpt>
      <trkpt lat="44.96154" lon="5.70431">
        <ele>858.256368</ele>
        <time>2025-07-10T15:13:36.000Z</time>
      </trkpt>
      <trkpt lat="44.96156" lon="5.70429">
        <ele>858.228856</ele>
        <time>2025-07-10T15:13:37.000Z</time>
      </trkpt>
      <trkpt lat="44.96157" lon="5.70427">
        <ele>858.198814</ele>
        <time>2025-07-10T15:13:38.000Z</time>
      </trkpt>
      <trkpt lat="44.96159" lon="5.70425">
        <ele>858.172461</ele>
        <time>2025-07-10T15:13:39.000Z</time>
      </trkpt>
      <trkpt lat="44.96159" lon="5.70423">
        <ele>858.151091</ele>
        <time>2025-07-10T15:13:40.000Z</time>
      </trkpt>
      <trkpt lat="44.96158" lon="5.70421">
        <ele>858.136777</ele>
        <time>2025-07-10T15:13:41.000Z</time>
      </trkpt>
      <trkpt lat="44.96157" lon="5.7042">
        <ele>858.11968</ele>
        <time>2025-07-10T15:13:42.000Z</time>
      </trkpt>
      <trkpt lat="44.96156" lon="5.7042">
        <ele>858.105521</ele>
        <time>2025-07-10T15:13:43.000Z</time>
      </trkpt>
      <trkpt lat="44.96155" lon="5.70419">
        <ele>858.096213</ele>
        <time>2025-07-10T15:13:44.000Z</time>
      </trkpt>
      <trkpt lat="44.96155" lon="5.70419">
        <ele>858.090683</ele>
        <time>2025-07-10T15:13:45.000Z</time>
      </trkpt>
      <trkpt lat="44.96155" lon="5.70419">
        <ele>858.086882</ele>
        <time>2025-07-10T15:13:53.000Z</time>
      </trkpt>
      <trkpt lat="44.96152" lon="5.70419">
        <ele>858.055589</ele>
        <time>2025-07-10T15:13:54.000Z</time>
      </trkpt>
      <trkpt lat="44.9615" lon="5.70419">
        <ele>858.017692</ele>
        <time>2025-07-10T15:13:55.000Z</time>
      </trkpt>
      <trkpt lat="44.96146" lon="5.70419">
        <ele>857.973371</ele>
        <time>2025-07-10T15:13:56.000Z</time>
      </trkpt>
      <trkpt lat="44.96142" lon="5.70419">
        <ele>857.922542</ele>
        <time>2025-07-10T15:13:57.000Z</time>
      </trkpt>
      <trkpt lat="44.96138" lon="5.70419">
        <ele>857.869098</ele>
        <time>2025-07-10T15:13:58.000Z</time>
      </trkpt>
      <trkpt lat="44.96134" lon="5.70419">
        <ele>857.892503</ele>
        <time>2025-07-10T15:13:59.000Z</time>
      </trkpt>
      <trkpt lat="44.9613" lon="5.7042">
        <ele>857.915236</ele>
        <time>2025-07-10T15:14:00.000Z</time>
      </trkpt>
      <trkpt lat="44.96127" lon="5.7042">
        <ele>857.93635</ele>
        <time>2025-07-10T15:14:01.000Z</time>
      </trkpt>
      <trkpt lat="44.96124" lon="5.70421">
        <ele>857.955839</ele>
        <time>2025-07-10T15:14:02.000Z</time>
      </trkpt>
      <trkpt lat="44.96121" lon="5.70422">
        <ele>857.973197</ele>
        <time>2025-07-10T15:14:03.000Z</time>
      </trkpt>
      <trkpt lat="44.96119" lon="5.70423">
        <ele>857.987701</ele>
        <time>2025-07-10T15:14:04.000Z</time>
      </trkpt>
      <trkpt lat="44.96117" lon="5.70425">
        <ele>858.000132</ele>
        <time>2025-07-10T15:14:05.000Z</time>
      </trkpt>
      <trkpt lat="44.96115" lon="5.70426">
        <ele>858.008972</ele>
        <time>2025-07-10T15:14:06.000Z</time>
      </trkpt>
      <trkpt lat="44.96114" lon="5.70427">
        <ele>858.016785</ele>
        <time>2025-07-10T15:14:07.000Z</time>
      </trkpt>
      <trkpt lat="44.96114" lon="5.70428">
        <ele>858.023413</ele>
        <time>2025-07-10T15:14:08.000Z</time>
      </trkpt>
      <trkpt lat="44.96114" lon="5.7043">
        <ele>858.031066</ele>
        <time>2025-07-10T15:14:09.000Z</time>
      </trkpt>
      <trkpt lat="44.96115" lon="5.7043">
        <ele>858.037172</ele>
        <time>2025-07-10T15:14:10.000Z</time>
      </trkpt>
      <trkpt lat="44.96116" lon="5.70428">
        <ele>858.04558</ele>
        <time>2025-07-10T15:14:11.000Z</time>
      </trkpt>
      <trkpt lat="44.96117" lon="5.70426">
        <ele>858.055956</ele>
        <time>2025-07-10T15:14:12.000Z</time>
      </trkpt>
      <trkpt lat="44.96119" lon="5.70425">
        <ele>858.066201</ele>
        <time>2025-07-10T15:14:13.000Z</time>
      </trkpt>
      <trkpt lat="44.9612" lon="5.70424">
        <ele>858.075512</ele>
        <time>2025-07-10T15:14:14.000Z</time>
      </trkpt>
      <trkpt lat="44.96122" lon="5.70424">
        <ele>858.085675</ele>
        <time>2025-07-10T15:14:15.000Z</time>
      </trkpt>
      <trkpt lat="44.96124" lon="5.70424">
        <ele>858.097651</ele>
        <time>2025-07-10T15:14:16.000Z</time>
      </trkpt>
      <trkpt lat="44.96126" lon="5.70424">
        <ele>858.107841</ele>
        <time>2025-07-10T15:14:17.000Z</time>
      </trkpt>
      <trkpt lat="44.96127" lon="5.70423">
        <ele>858.118307</ele>
        <time>2025-07-10T15:14:18.000Z</time>
      </trkpt>
      <trkpt lat="44.96129" lon="5.70423">
        <ele>858.129851</ele>
        <time>2025-07-10T15:14:19.000Z</time>
      </trkpt>
      <trkpt lat="44.96131" lon="5.70423">
        <ele>858.142422</ele>
        <time>2025-07-10T15:14:20.000Z</time>
      </trkpt>
      <trkpt lat="44.96133" lon="5.70423">
        <ele>858.153771</ele>
        <time>2025-07-10T15:14:21.000Z</time>
      </trkpt>
      <trkpt lat="44.96135" lon="5.70422">
        <ele>858.165725</ele>
        <time>2025-07-10T15:14:22.000Z</time>
      </trkpt>
      <trkpt lat="44.96137" lon="5.70422">
        <ele>858.177082</ele>
        <time>2025-07-10T15:14:23.000Z</time>
      </trkpt>
      <trkpt lat="44.96139" lon="5.70422">
        <ele>858.187315</ele>
        <time>2025-07-10T15:14:24.000Z</time>
      </trkpt>
      <trkpt lat="44.9614" lon="5.70422">
        <ele>858.197609</ele>
        <time>2025-07-10T15:14:25.000Z</time>
      </trkpt>
      <trkpt lat="44.96142" lon="5.70422">
        <ele>858.207772</ele>
        <time>2025-07-10T15:14:26.000Z</time>
      </trkpt>
      <trkpt lat="44.96144" lon="5.70422">
        <ele>858.217935</ele>
        <time>2025-07-10T15:14:27.000Z</time>
      </trkpt>
      <trkpt lat="44.96145" lon="5.70421">
        <ele>858.227576</ele>
        <time>2025-07-10T15:14:28.000Z</time>
      </trkpt>
      <trkpt lat="44.96147" lon="5.70421">
        <ele>858.236781</ele>
        <time>2025-07-10T15:14:29.000Z</time>
      </trkpt>
      <trkpt lat="44.96149" lon="5.7042">
        <ele>858.246569</ele>
        <time>2025-07-10T15:14:30.000Z</time>
      </trkpt>
      <trkpt lat="44.9615" lon="5.7042">
        <ele>858.256209</ele>
        <time>2025-07-10T15:14:31.000Z</time>
      </trkpt>
      <trkpt lat="44.96152" lon="5.7042">
        <ele>858.266994</ele>
        <time>2025-07-10T15:14:32.000Z</time>
      </trkpt>
      <trkpt lat="44.96154" lon="5.70421">
        <ele>858.277951</ele>
        <time>2025-07-10T15:14:33.000Z</time>
      </trkpt>
      <trkpt lat="44.96155" lon="5.70422">
        <ele>858.288579</ele>
        <time>2025-07-10T15:14:34.000Z</time>
      </trkpt>
      <trkpt lat="44.96156" lon="5.70424">
        <ele>858.298631</ele>
        <time>2025-07-10T15:14:35.000Z</time>
      </trkpt>
      <trkpt lat="44.96157" lon="5.70426">
        <ele>858.309389</ele>
        <time>2025-07-10T15:14:36.000Z</time>
      </trkpt>
      <trkpt lat="44.96157" lon="5.70428">
        <ele>858.31702</ele>
        <time>2025-07-10T15:14:37.000Z</time>
      </trkpt>
      <trkpt lat="44.96156" lon="5.70429">
        <ele>858.324265</ele>
        <time>2025-07-10T15:14:38.000Z</time>
      </trkpt>
      <trkpt lat="44.96155" lon="5.7043">
        <ele>858.334561</ele>
        <time>2025-07-10T15:14:39.000Z</time>
      </trkpt>
      <trkpt lat="44.96153" lon="5.70431">
        <ele>858.346976</ele>
        <time>2025-07-10T15:14:40.000Z</time>
      </trkpt>
      <trkpt lat="44.96151" lon="5.70432">
        <ele>858.359968</ele>
        <time>2025-07-10T15:14:41.000Z</time>
      </trkpt>
      <trkpt lat="44.96148" lon="5.70433">
        <ele>858.373938</ele>
        <time>2025-07-10T15:14:42.000Z</time>
      </trkpt>
      <trkpt lat="44.96146" lon="5.70433">
        <ele>858.388372</ele>
        <time>2025-07-10T15:14:43.000Z</time>
      </trkpt>
      <trkpt lat="44.96144" lon="5.70434">
        <ele>858.401682</ele>
        <time>2025-07-10T15:14:44.000Z</time>
      </trkpt>
      <trkpt lat="44.96141" lon="5.70434">
        <ele>858.416905</ele>
        <time>2025-07-10T15:14:45.000Z</time>
      </trkpt>
      <trkpt lat="44.96139" lon="5.70435">
        <ele>858.432052</ele>
        <time>2025-07-10T15:14:46.000Z</time>
      </trkpt>
      <trkpt lat="44.96136" lon="5.70435">
        <ele>858.446393</ele>
        <time>2025-07-10T15:14:47.000Z</time>
      </trkpt>
      <trkpt lat="44.96134" lon="5.70435">
        <ele>858.459541</ele>
        <time>2025-07-10T15:14:48.000Z</time>
      </trkpt>
      <trkpt lat="44.96132" lon="5.70435">
        <ele>858.472261</ele>
        <time>2025-07-10T15:14:49.000Z</time>
      </trkpt>
      <trkpt lat="44.9613" lon="5.70436">
        <ele>858.485638</ele>
        <time>2025-07-10T15:14:50.000Z</time>
      </trkpt>
      <trkpt lat="44.96128" lon="5.70438">
        <ele>858.498638</ele>
        <time>2025-07-10T15:14:51.000Z</time>
      </trkpt>
      <trkpt lat="44.96126" lon="5.70439">
        <ele>858.510712</ele>
        <time>2025-07-10T15:14:52.000Z</time>
      </trkpt>
      <trkpt lat="44.96125" lon="5.70441">
        <ele>858.521737</ele>
        <time>2025-07-10T15:14:53.000Z</time>
      </trkpt>
      <trkpt lat="44.96124" lon="5.70443">
        <ele>858.532113</ele>
        <time>2025-07-10T15:14:54.000Z</time>
      </trkpt>
      <trkpt lat="44.96123" lon="5.70444">
        <ele>858.540752</ele>
        <time>2025-07-10T15:14:55.000Z</time>
      </trkpt>
      <trkpt lat="44.96122" lon="5.70445">
        <ele>858.545978</ele>
        <time>2025-07-10T15:14:56.000Z</time>
      </trkpt>
      <trkpt lat="44.96122" lon="5.70446">
        <ele>858.549804</ele>
        <time>2025-07-10T15:14:59.000Z</time>
      </trkpt>
      <trkpt lat="44.96122" lon="5.70448">
        <ele>858.556976</ele>
        <time>2025-07-10T15:15:00.000Z</time>
      </trkpt>
      <trkpt lat="44.96123" lon="5.7045">
        <ele>858.568085</ele>
        <time>2025-07-10T15:15:01.000Z</time>
      </trkpt>
      <trkpt lat="44.96125" lon="5.70452">
        <ele>858.580773</ele>
        <time>2025-07-10T15:15:02.000Z</time>
      </trkpt>
      <trkpt lat="44.96127" lon="5.70453">
        <ele>858.595731</ele>
        <time>2025-07-10T15:15:03.000Z</time>
      </trkpt>
      <trkpt lat="44.9613" lon="5.70454">
        <ele>858.611947</ele>
        <time>2025-07-10T15:15:04.000Z</time>
      </trkpt>
      <trkpt lat="44.96133" lon="5.70453">
        <ele>858.629777</ele>
        <time>2025-07-10T15:15:05.000Z</time>
      </trkpt>
      <trkpt lat="44.96136" lon="5.70451">
        <ele>858.649083</ele>
        <time>2025-07-10T15:15:06.000Z</time>
      </trkpt>
      <trkpt lat="44.96139" lon="5.70449">
        <ele>858.669815</ele>
        <time>2025-07-10T15:15:07.000Z</time>
      </trkpt>
      <trkpt lat="44.96142" lon="5.70447">
        <ele>858.689833</ele>
        <time>2025-07-10T15:15:08.000Z</time>
      </trkpt>
      <trkpt lat="44.96145" lon="5.70446">
        <ele>858.709971</ele>
        <time>2025-07-10T15:15:09.000Z</time>
      </trkpt>
      <trkpt lat="44.96149" lon="5.70444">
        <ele>858.730109</ele>
        <time>2025-07-10T15:15:10.000Z</time>
      </trkpt>
      <trkpt lat="44.96152" lon="5.70443">
        <ele>858.750948</ele>
        <time>2025-07-10T15:15:11.000Z</time>
      </trkpt>
      <trkpt lat="44.96155" lon="5.70441">
        <ele>858.771223</ele>
        <time>2025-07-10T15:15:12.000Z</time>
      </trkpt>
      <trkpt lat="44.96158" lon="5.7044">
        <ele>858.792376</ele>
        <time>2025-07-10T15:15:13.000Z</time>
      </trkpt>
      <trkpt lat="44.96162" lon="5.70439">
        <ele>858.813209</ele>
        <time>2025-07-10T15:15:14.000Z</time>
      </trkpt>
      <trkpt lat="44.96165" lon="5.70437">
        <ele>858.833563</ele>
        <time>2025-07-10T15:15:15.000Z</time>
      </trkpt>
      <trkpt lat="44.96168" lon="5.70436">
        <ele>858.854143</ele>
        <time>2025-07-10T15:15:16.000Z</time>
      </trkpt>
      <trkpt lat="44.96172" lon="5.70434">
        <ele>858.87576</ele>
        <time>2025-07-10T15:15:17.000Z</time>
      </trkpt>
      <trkpt lat="44.96175" lon="5.70431">
        <ele>858.896873</ele>
        <time>2025-07-10T15:15:18.000Z</time>
      </trkpt>
      <trkpt lat="44.96178" lon="5.7043">
        <ele>858.917056</ele>
        <time>2025-07-10T15:15:19.000Z</time>
      </trkpt>
      <trkpt lat="44.96181" lon="5.70429">
        <ele>858.935745</ele>
        <time>2025-07-10T15:15:20.000Z</time>
      </trkpt>
      <trkpt lat="44.96184" lon="5.70429">
        <ele>858.918428</ele>
        <time>2025-07-10T15:15:21.000Z</time>
      </trkpt>
      <trkpt lat="44.96187" lon="5.70429">
        <ele>858.878786</ele>
        <time>2025-07-10T15:15:22.000Z</time>
      </trkpt>
      <trkpt lat="44.9619" lon="5.70428">
        <ele>858.842553</ele>
        <time>2025-07-10T15:15:23.000Z</time>
      </trkpt>
      <trkpt lat="44.96191" lon="5.70428">
        <ele>858.821249</ele>
        <time>2025-07-10T15:15:24.000Z</time>
      </trkpt>
      <trkpt lat="44.96192" lon="5.70428">
        <ele>858.81439</ele>
        <time>2025-07-10T15:15:27.000Z</time>
      </trkpt>
      <trkpt lat="44.96193" lon="5.70428">
        <ele>858.795816</ele>
        <time>2025-07-10T15:15:28.000Z</time>
      </trkpt>
      <trkpt lat="44.96195" lon="5.70428">
        <ele>858.777337</ele>
        <time>2025-07-10T15:17:25.000Z</time>
      </trkpt>
      <trkpt lat="44.96196" lon="5.70429">
        <ele>858.757508</ele>
        <time>2025-07-10T15:17:26.000Z</time>
      </trkpt>
      <trkpt lat="44.96197" lon="5.70432">
        <ele>858.73158</ele>
        <time>2025-07-10T15:17:27.000Z</time>
      </trkpt>
      <trkpt lat="44.96199" lon="5.70433">
        <ele>858.698484</ele>
        <time>2025-07-10T15:17:28.000Z</time>
      </trkpt>
      <trkpt lat="44.96202" lon="5.70434">
        <ele>858.660952</ele>
        <time>2025-07-10T15:17:29.000Z</time>
      </trkpt>
      <trkpt lat="44.96205" lon="5.70434">
        <ele>858.620023</ele>
        <time>2025-07-10T15:17:30.000Z</time>
      </trkpt>
      <trkpt lat="44.96208" lon="5.70434">
        <ele>858.572496</ele>
        <time>2025-07-10T15:17:31.000Z</time>
      </trkpt>
      <trkpt lat="44.96212" lon="5.70434">
        <ele>858.524941</ele>
        <time>2025-07-10T15:17:32.000Z</time>
      </trkpt>
      <trkpt lat="44.96216" lon="5.70434">
        <ele>858.477341</ele>
        <time>2025-07-10T15:17:33.000Z</time>
      </trkpt>
      <trkpt lat="44.96219" lon="5.70434">
        <ele>858.431143</ele>
        <time>2025-07-10T15:17:34.000Z</time>
      </trkpt>
      <trkpt lat="44.96223" lon="5.70434">
        <ele>858.382296</ele>
        <time>2025-07-10T15:17:35.000Z</time>
      </trkpt>
      <trkpt lat="44.96227" lon="5.70434">
        <ele>858.332103</ele>
        <time>2025-07-10T15:17:36.000Z</time>
      </trkpt>
      <trkpt lat="44.96231" lon="5.70433">
        <ele>858.279297</ele>
        <time>2025-07-10T15:17:37.000Z</time>
      </trkpt>
      <trkpt lat="44.96235" lon="5.70433">
        <ele>858.223663</ele>
        <time>2025-07-10T15:17:38.000Z</time>
      </trkpt>
      <trkpt lat="44.96239" lon="5.70432">
        <ele>858.166287</ele>
        <time>2025-07-10T15:17:39.000Z</time>
      </trkpt>
      <trkpt lat="44.96243" lon="5.70431">
        <ele>858.10904</ele>
        <time>2025-07-10T15:17:40.000Z</time>
      </trkpt>
      <trkpt lat="44.96248" lon="5.7043">
        <ele>858.049051</ele>
        <time>2025-07-10T15:17:41.000Z</time>
      </trkpt>
      <trkpt lat="44.96253" lon="5.70429">
        <ele>857.987754</ele>
        <time>2025-07-10T15:17:42.000Z</time>
      </trkpt>
      <trkpt lat="44.96257" lon="5.70428">
        <ele>857.924872</ele>
        <time>2025-07-10T15:17:43.000Z</time>
      </trkpt>
      <trkpt lat="44.96262" lon="5.70427">
        <ele>857.863576</ele>
        <time>2025-07-10T15:17:44.000Z</time>
      </trkpt>
      <trkpt lat="44.96266" lon="5.70426">
        <ele>857.802144</ele>
        <time>2025-07-10T15:17:45.000Z</time>
      </trkpt>
      <trkpt lat="44.96271" lon="5.70426">
        <ele>857.742155</ele>
        <time>2025-07-10T15:17:46.000Z</time>
      </trkpt>
      <trkpt lat="44.96276" lon="5.70425">
        <ele>857.679669</ele>
        <time>2025-07-10T15:17:47.000Z</time>
      </trkpt>
      <trkpt lat="44.9628" lon="5.70424">
        <ele>857.617065</ele>
        <time>2025-07-10T15:17:48.000Z</time>
      </trkpt>
      <trkpt lat="44.96285" lon="5.70422">
        <ele>857.554536</ele>
        <time>2025-07-10T15:17:49.000Z</time>
      </trkpt>
      <trkpt lat="44.96289" lon="5.70421">
        <ele>857.494547</ele>
        <time>2025-07-10T15:17:50.000Z</time>
      </trkpt>
      <trkpt lat="44.96294" lon="5.7042">
        <ele>857.433921</ele>
        <time>2025-07-10T15:17:51.000Z</time>
      </trkpt>
      <trkpt lat="44.96298" lon="5.70419">
        <ele>857.374588</ele>
        <time>2025-07-10T15:17:52.000Z</time>
      </trkpt>
      <trkpt lat="44.96303" lon="5.70417">
        <ele>857.315393</ele>
        <time>2025-07-10T15:17:53.000Z</time>
      </trkpt>
      <trkpt lat="44.96307" lon="5.70415">
        <ele>857.256457</ele>
        <time>2025-07-10T15:17:54.000Z</time>
      </trkpt>
      <trkpt lat="44.96311" lon="5.70414">
        <ele>857.195831</ele>
        <time>2025-07-10T15:17:55.000Z</time>
      </trkpt>
      <trkpt lat="44.96316" lon="5.70412">
        <ele>857.134349</ele>
        <time>2025-07-10T15:17:56.000Z</time>
      </trkpt>
      <trkpt lat="44.9632" lon="5.7041">
        <ele>857.073621</ele>
        <time>2025-07-10T15:17:57.000Z</time>
      </trkpt>
      <trkpt lat="44.96325" lon="5.70408">
        <ele>857.012321</ele>
        <time>2025-07-10T15:17:58.000Z</time>
      </trkpt>
      <trkpt lat="44.96329" lon="5.70406">
        <ele>856.949769</ele>
        <time>2025-07-10T15:17:59.000Z</time>
      </trkpt>
      <trkpt lat="44.96334" lon="5.70404">
        <ele>856.887504</ele>
        <time>2025-07-10T15:18:00.000Z</time>
      </trkpt>
      <trkpt lat="44.96338" lon="5.70402">
        <ele>856.825513</ele>
        <time>2025-07-10T15:18:01.000Z</time>
      </trkpt>
      <trkpt lat="44.96343" lon="5.704">
        <ele>856.766046</ele>
        <time>2025-07-10T15:18:02.000Z</time>
      </trkpt>
      <trkpt lat="44.96347" lon="5.70398">
        <ele>856.703781</ele>
        <time>2025-07-10T15:18:03.000Z</time>
      </trkpt>
      <trkpt lat="44.96352" lon="5.70396">
        <ele>856.640619</ele>
        <time>2025-07-10T15:18:04.000Z</time>
      </trkpt>
      <trkpt lat="44.96356" lon="5.70393">
        <ele>856.57767</ele>
        <time>2025-07-10T15:18:05.000Z</time>
      </trkpt>
      <trkpt lat="44.9636" lon="5.70391">
        <ele>856.510407</ele>
        <time>2025-07-10T15:18:06.000Z</time>
      </trkpt>
      <trkpt lat="44.96365" lon="5.70387">
        <ele>856.441788</ele>
        <time>2025-07-10T15:18:07.000Z</time>
      </trkpt>
      <trkpt lat="44.96369" lon="5.70384">
        <ele>856.373169</ele>
        <time>2025-07-10T15:18:08.000Z</time>
      </trkpt>
      <trkpt lat="44.96374" lon="5.70381">
        <ele>856.300253</ele>
        <time>2025-07-10T15:18:09.000Z</time>
      </trkpt>
      <trkpt lat="44.96378" lon="5.70377">
        <ele>856.229783</ele>
        <time>2025-07-10T15:18:10.000Z</time>
      </trkpt>
      <trkpt lat="44.96382" lon="5.70374">
        <ele>856.161732</ele>
        <time>2025-07-10T15:18:11.000Z</time>
      </trkpt>
      <trkpt lat="44.96386" lon="5.7037">
        <ele>856.09607</ele>
        <time>2025-07-10T15:18:12.000Z</time>
      </trkpt>
      <trkpt lat="44.9639" lon="5.70367">
        <ele>856.029347</ele>
        <time>2025-07-10T15:18:13.000Z</time>
      </trkpt>
      <trkpt lat="44.96394" lon="5.70363">
        <ele>855.9642</ele>
        <time>2025-07-10T15:18:14.000Z</time>
      </trkpt>
      <trkpt lat="44.96398" lon="5.7036">
        <ele>855.90587</ele>
        <time>2025-07-10T15:18:15.000Z</time>
      </trkpt>
      <trkpt lat="44.964" lon="5.70357">
        <ele>855.863936</ele>
        <time>2025-07-10T15:18:16.000Z</time>
      </trkpt>
      <trkpt lat="44.96399" lon="5.70354">
        <ele>855.834711</ele>
        <time>2025-07-10T15:18:17.000Z</time>
      </trkpt>
      <trkpt lat="44.96396" lon="5.70355">
        <ele>855.800694</ele>
        <time>2025-07-10T15:18:18.000Z</time>
      </trkpt>
      <trkpt lat="44.96394" lon="5.70357">
        <ele>855.75944</ele>
        <time>2025-07-10T15:18:19.000Z</time>
      </trkpt>
      <trkpt lat="44.96391" lon="5.70358">
        <ele>855.718185</ele>
        <time>2025-07-10T15:18:20.000Z</time>
      </trkpt>
      <trkpt lat="44.96388" lon="5.7036">
        <ele>855.677333</ele>
        <time>2025-07-10T15:18:21.000Z</time>
      </trkpt>
      <trkpt lat="44.96386" lon="5.70362">
        <ele>855.635179</ele>
        <time>2025-07-10T15:18:22.000Z</time>
      </trkpt>
      <trkpt lat="44.96384" lon="5.70363">
        <ele>855.606133</ele>
        <time>2025-07-10T15:18:23.000Z</time>
      </trkpt>
      <trkpt lat="44.96383" lon="5.70364">
        <ele>855.594707</ele>
        <time>2025-07-10T15:18:24.000Z</time>
      </trkpt>
      <trkpt lat="44.96384" lon="5.70366">
        <ele>855.564873</ele>
        <time>2025-07-10T15:19:02.000Z</time>
      </trkpt>
      <trkpt lat="44.96386" lon="5.70366">
        <ele>855.54252</ele>
        <time>2025-07-10T15:19:03.000Z</time>
      </trkpt>
      <trkpt lat="44.96388" lon="5.70364">
        <ele>855.50968</ele>
        <time>2025-07-10T15:19:04.000Z</time>
      </trkpt>
      <trkpt lat="44.9639" lon="5.70363">
        <ele>855.474684</ele>
        <time>2025-07-10T15:19:05.000Z</time>
      </trkpt>
      <trkpt lat="44.96393" lon="5.70361">
        <ele>855.435851</ele>
        <time>2025-07-10T15:19:06.000Z</time>
      </trkpt>
      <trkpt lat="44.96395" lon="5.7036">
        <ele>855.393698</ele>
        <time>2025-07-10T15:19:07.000Z</time>
      </trkpt>
      <trkpt lat="44.96398" lon="5.70358">
        <ele>855.346526</ele>
        <time>2025-07-10T15:19:08.000Z</time>
      </trkpt>
      <trkpt lat="44.96402" lon="5.70355">
        <ele>855.295702</ele>
        <time>2025-07-10T15:19:09.000Z</time>
      </trkpt>
      <trkpt lat="44.96405" lon="5.70352">
        <ele>855.242107</ele>
        <time>2025-07-10T15:19:10.000Z</time>
      </trkpt>
      <trkpt lat="44.96408" lon="5.70348">
        <ele>855.186231</ele>
        <time>2025-07-10T15:19:11.000Z</time>
      </trkpt>
      <trkpt lat="44.96411" lon="5.70345">
        <ele>855.129217</ele>
        <time>2025-07-10T15:19:12.000Z</time>
      </trkpt>
      <trkpt lat="44.96415" lon="5.70342">
        <ele>855.07051</ele>
        <time>2025-07-10T15:19:13.000Z</time>
      </trkpt>
      <trkpt lat="44.96418" lon="5.70338">
        <ele>855.009185</ele>
        <time>2025-07-10T15:19:14.000Z</time>
      </trkpt>
      <trkpt lat="44.96421" lon="5.70333">
        <ele>854.946539</ele>
        <time>2025-07-10T15:19:15.000Z</time>
      </trkpt>
      <trkpt lat="44.96425" lon="5.70329">
        <ele>854.885587</ele>
        <time>2025-07-10T15:19:16.000Z</time>
      </trkpt>
      <trkpt lat="44.96427" lon="5.70324">
        <ele>854.822502</ele>
        <time>2025-07-10T15:19:17.000Z</time>
      </trkpt>
      <trkpt lat="44.9643" lon="5.70319">
        <ele>854.760426</ele>
        <time>2025-07-10T15:19:18.000Z</time>
      </trkpt>
      <trkpt lat="44.96433" lon="5.70314">
        <ele>854.695128</ele>
        <time>2025-07-10T15:19:19.000Z</time>
      </trkpt>
      <trkpt lat="44.96435" lon="5.70308">
        <ele>854.631439</ele>
        <time>2025-07-10T15:19:20.000Z</time>
      </trkpt>
      <trkpt lat="44.96438" lon="5.70303">
        <ele>854.564466</ele>
        <time>2025-07-10T15:19:21.000Z</time>
      </trkpt>
      <trkpt lat="44.96441" lon="5.70297">
        <ele>854.496662</ele>
        <time>2025-07-10T15:19:22.000Z</time>
      </trkpt>
      <trkpt lat="44.96443" lon="5.70291">
        <ele>854.427273</ele>
        <time>2025-07-10T15:19:23.000Z</time>
      </trkpt>
      <trkpt lat="44.96446" lon="5.70285">
        <ele>854.356217</ele>
        <time>2025-07-10T15:19:24.000Z</time>
      </trkpt>
      <trkpt lat="44.96448" lon="5.70278">
        <ele>854.280541</ele>
        <time>2025-07-10T15:19:25.000Z</time>
      </trkpt>
      <trkpt lat="44.96451" lon="5.70271">
        <ele>854.205498</ele>
        <time>2025-07-10T15:19:26.000Z</time>
      </trkpt>
      <trkpt lat="44.96453" lon="5.70264">
        <ele>854.128944</ele>
        <time>2025-07-10T15:19:27.000Z</time>
      </trkpt>
      <trkpt lat="44.96456" lon="5.70258">
        <ele>854.048807</ele>
        <time>2025-07-10T15:19:28.000Z</time>
      </trkpt>
      <trkpt lat="44.96458" lon="5.70251">
        <ele>853.930967</ele>
        <time>2025-07-10T15:19:29.000Z</time>
      </trkpt>
      <trkpt lat="44.9646" lon="5.70244">
        <ele>853.811147</ele>
        <time>2025-07-10T15:19:30.000Z</time>
      </trkpt>
      <trkpt lat="44.96462" lon="5.70237">
        <ele>853.695863</ele>
        <time>2025-07-10T15:19:31.000Z</time>
      </trkpt>
      <trkpt lat="44.96464" lon="5.7023">
        <ele>853.581201</ele>
        <time>2025-07-10T15:19:32.000Z</time>
      </trkpt>
      <trkpt lat="44.96466" lon="5.70223">
        <ele>853.469408</ele>
        <time>2025-07-10T15:19:33.000Z</time>
      </trkpt>
      <trkpt lat="44.96468" lon="5.70217">
        <ele>853.359904</ele>
        <time>2025-07-10T15:19:34.000Z</time>
      </trkpt>
      <trkpt lat="44.9647" lon="5.70211">
        <ele>853.254703</ele>
        <time>2025-07-10T15:19:35.000Z</time>
      </trkpt>
      <trkpt lat="44.96471" lon="5.70205">
        <ele>853.154866</ele>
        <time>2025-07-10T15:19:36.000Z</time>
      </trkpt>
      <trkpt lat="44.96473" lon="5.70198">
        <ele>853.052785</ele>
        <time>2025-07-10T15:19:37.000Z</time>
      </trkpt>
      <trkpt lat="44.96475" lon="5.70192">
        <ele>852.950028</ele>
        <time>2025-07-10T15:19:38.000Z</time>
      </trkpt>
      <trkpt lat="44.96476" lon="5.70186">
        <ele>852.84748</ele>
        <time>2025-07-10T15:19:39.000Z</time>
      </trkpt>
      <trkpt lat="44.96477" lon="5.7018">
        <ele>852.745895</ele>
        <time>2025-07-10T15:19:40.000Z</time>
      </trkpt>
      <trkpt lat="44.96479" lon="5.70173">
        <ele>852.643139</ele>
        <time>2025-07-10T15:19:41.000Z</time>
      </trkpt>
      <trkpt lat="44.96481" lon="5.70167">
        <ele>852.539869</ele>
        <time>2025-07-10T15:19:42.000Z</time>
      </trkpt>
      <trkpt lat="44.96483" lon="5.70161">
        <ele>852.436027</ele>
        <time>2025-07-10T15:19:43.000Z</time>
      </trkpt>
      <trkpt lat="44.96485" lon="5.70155">
        <ele>852.330826</ele>
        <time>2025-07-10T15:19:44.000Z</time>
      </trkpt>
      <trkpt lat="44.96486" lon="5.70149">
        <ele>852.224385</ele>
        <time>2025-07-10T15:19:45.000Z</time>
      </trkpt>
      <trkpt lat="44.96488" lon="5.70142">
        <ele>852.117151</ele>
        <time>2025-07-10T15:19:46.000Z</time>
      </trkpt>
      <trkpt lat="44.9649" lon="5.70136">
        <ele>852.006363</ele>
        <time>2025-07-10T15:19:47.000Z</time>
      </trkpt>
      <trkpt lat="44.96493" lon="5.7013">
        <ele>851.896519</ele>
        <time>2025-07-10T15:19:48.000Z</time>
      </trkpt>
      <trkpt lat="44.96495" lon="5.70123">
        <ele>851.784727</ele>
        <time>2025-07-10T15:19:49.000Z</time>
      </trkpt>
      <trkpt lat="44.96496" lon="5.70116">
        <ele>851.67234</ele>
        <time>2025-07-10T15:19:50.000Z</time>
      </trkpt>
      <trkpt lat="44.96498" lon="5.7011">
        <ele>851.560548</ele>
        <time>2025-07-10T15:19:51.000Z</time>
      </trkpt>
      <trkpt lat="44.965" lon="5.70103">
        <ele>851.445887</ele>
        <time>2025-07-10T15:19:52.000Z</time>
      </trkpt>
      <trkpt lat="44.96503" lon="5.70096">
        <ele>851.326067</ele>
        <time>2025-07-10T15:19:53.000Z</time>
      </trkpt>
      <trkpt lat="44.96505" lon="5.70089">
        <ele>851.208228</ele>
        <time>2025-07-10T15:19:54.000Z</time>
      </trkpt>
      <trkpt lat="44.96507" lon="5.70082">
        <ele>851.09029</ele>
        <time>2025-07-10T15:19:55.000Z</time>
      </trkpt>
      <trkpt lat="44.9651" lon="5.70076">
        <ele>850.970643</ele>
        <time>2025-07-10T15:19:56.000Z</time>
      </trkpt>
      <trkpt lat="44.96513" lon="5.70069">
        <ele>850.848591</ele>
        <time>2025-07-10T15:19:57.000Z</time>
      </trkpt>
      <trkpt lat="44.96517" lon="5.70063">
        <ele>850.726997</ele>
        <time>2025-07-10T15:19:58.000Z</time>
      </trkpt>
      <trkpt lat="44.96521" lon="5.70058">
        <ele>850.599084</ele>
        <time>2025-07-10T15:19:59.000Z</time>
      </trkpt>
      <trkpt lat="44.96527" lon="5.70054">
        <ele>850.469967</ele>
        <time>2025-07-10T15:20:00.000Z</time>
      </trkpt>
      <trkpt lat="44.96532" lon="5.70052">
        <ele>850.342342</ele>
        <time>2025-07-10T15:20:01.000Z</time>
      </trkpt>
      <trkpt lat="44.96537" lon="5.7005">
        <ele>850.220596</ele>
        <time>2025-07-10T15:20:02.000Z</time>
      </trkpt>
      <trkpt lat="44.96543" lon="5.7005">
        <ele>850.095</ele>
        <time>2025-07-10T15:20:03.000Z</time>
      </trkpt>
      <trkpt lat="44.96549" lon="5.70051">
        <ele>849.889237</ele>
        <time>2025-07-10T15:20:04.000Z</time>
      </trkpt>
      <trkpt lat="44.96555" lon="5.70052">
        <ele>849.672491</ele>
        <time>2025-07-10T15:20:05.000Z</time>
      </trkpt>
      <trkpt lat="44.96561" lon="5.70054">
        <ele>849.453896</ele>
        <time>2025-07-10T15:20:06.000Z</time>
      </trkpt>
      <trkpt lat="44.96567" lon="5.70055">
        <ele>849.235301</ele>
        <time>2025-07-10T15:20:07.000Z</time>
      </trkpt>
      <trkpt lat="44.96573" lon="5.70057">
        <ele>849.009194</ele>
        <time>2025-07-10T15:20:08.000Z</time>
      </trkpt>
      <trkpt lat="44.96579" lon="5.70059">
        <ele>848.782121</ele>
        <time>2025-07-10T15:20:09.000Z</time>
      </trkpt>
      <trkpt lat="44.96585" lon="5.70061">
        <ele>848.552789</ele>
        <time>2025-07-10T15:20:10.000Z</time>
      </trkpt>
      <trkpt lat="44.96592" lon="5.70063">
        <ele>848.313888</ele>
        <time>2025-07-10T15:20:11.000Z</time>
      </trkpt>
      <trkpt lat="44.96597" lon="5.70066">
        <ele>848.099777</ele>
        <time>2025-07-10T15:20:12.000Z</time>
      </trkpt>
      <trkpt lat="44.96603" lon="5.70068">
        <ele>847.897798</ele>
        <time>2025-07-10T15:20:13.000Z</time>
      </trkpt>
      <trkpt lat="44.96608" lon="5.70069">
        <ele>847.724086</ele>
        <time>2025-07-10T15:20:14.000Z</time>
      </trkpt>
      <trkpt lat="44.96611" lon="5.70069">
        <ele>847.607502</ele>
        <time>2025-07-10T15:20:15.000Z</time>
      </trkpt>
      <trkpt lat="44.96613" lon="5.70069">
        <ele>847.534637</ele>
        <time>2025-07-10T15:20:16.000Z</time>
      </trkpt>
      <trkpt lat="44.96615" lon="5.70067">
        <ele>847.46405</ele>
        <time>2025-07-10T15:20:17.000Z</time>
      </trkpt>
      <trkpt lat="44.96616" lon="5.70067">
        <ele>847.415314</ele>
        <time>2025-07-10T15:20:18.000Z</time>
      </trkpt>
      <trkpt lat="44.96616" lon="5.70066">
        <ele>847.388946</ele>
        <time>2025-07-10T15:20:19.000Z</time>
      </trkpt>
      <trkpt lat="44.96621" lon="5.70065">
        <ele>847.222673</ele>
        <time>2025-07-10T15:22:37.000Z</time>
      </trkpt>
      <trkpt lat="44.96622" lon="5.70064">
        <ele>847.172822</ele>
        <time>2025-07-10T15:22:38.000Z</time>
      </trkpt>
      <trkpt lat="44.96623" lon="5.70062">
        <ele>847.11762</ele>
        <time>2025-07-10T15:22:39.000Z</time>
      </trkpt>
      <trkpt lat="44.96622" lon="5.7006">
        <ele>847.057456</ele>
        <time>2025-07-10T15:22:40.000Z</time>
      </trkpt>
      <trkpt lat="44.9662" lon="5.7006">
        <ele>847.0102</ele>
        <time>2025-07-10T15:22:41.000Z</time>
      </trkpt>
      <trkpt lat="44.96619" lon="5.70061">
        <ele>846.952109</ele>
        <time>2025-07-10T15:22:42.000Z</time>
      </trkpt>
      <trkpt lat="44.96618" lon="5.70064">
        <ele>846.881411</ele>
        <time>2025-07-10T15:22:43.000Z</time>
      </trkpt>
      <trkpt lat="44.96617" lon="5.70067">
        <ele>846.79427</ele>
        <time>2025-07-10T15:22:44.000Z</time>
      </trkpt>
      <trkpt lat="44.96616" lon="5.7007">
        <ele>846.705726</ele>
        <time>2025-07-10T15:22:45.000Z</time>
      </trkpt>
      <trkpt lat="44.96616" lon="5.70074">
        <ele>846.606668</ele>
        <time>2025-07-10T15:22:46.000Z</time>
      </trkpt>
      <trkpt lat="44.96617" lon="5.70078">
        <ele>846.502879</ele>
        <time>2025-07-10T15:22:47.000Z</time>
      </trkpt>
      <trkpt lat="44.96618" lon="5.70082">
        <ele>846.396376</ele>
        <time>2025-07-10T15:22:48.000Z</time>
      </trkpt>
      <trkpt lat="44.9662" lon="5.70085">
        <ele>846.283716</ele>
        <time>2025-07-10T15:22:49.000Z</time>
      </trkpt>
      <trkpt lat="44.96623" lon="5.70088">
        <ele>846.162056</ele>
        <time>2025-07-10T15:22:50.000Z</time>
      </trkpt>
      <trkpt lat="44.96626" lon="5.70091">
        <ele>846.02727</ele>
        <time>2025-07-10T15:22:51.000Z</time>
      </trkpt>
      <trkpt lat="44.96629" lon="5.70094">
        <ele>845.889552</ele>
        <time>2025-07-10T15:22:52.000Z</time>
      </trkpt>
      <trkpt lat="44.96632" lon="5.70097">
        <ele>845.744526</ele>
        <time>2025-07-10T15:22:53.000Z</time>
      </trkpt>
      <trkpt lat="44.96636" lon="5.70101">
        <ele>845.586198</ele>
        <time>2025-07-10T15:22:54.000Z</time>
      </trkpt>
      <trkpt lat="44.9664" lon="5.70104">
        <ele>845.418744</ele>
        <time>2025-07-10T15:22:55.000Z</time>
      </trkpt>
      <trkpt lat="44.96644" lon="5.70108">
        <ele>845.242523</ele>
        <time>2025-07-10T15:22:56.000Z</time>
      </trkpt>
      <trkpt lat="44.96649" lon="5.70112">
        <ele>845.062236</ele>
        <time>2025-07-10T15:22:57.000Z</time>
      </trkpt>
      <trkpt lat="44.96653" lon="5.70116">
        <ele>844.880543</ele>
        <time>2025-07-10T15:22:58.000Z</time>
      </trkpt>
      <trkpt lat="44.96657" lon="5.70119">
        <ele>844.687537</ele>
        <time>2025-07-10T15:22:59.000Z</time>
      </trkpt>
      <trkpt lat="44.96662" lon="5.70123">
        <ele>844.491388</ele>
        <time>2025-07-10T15:23:00.000Z</time>
      </trkpt>
      <trkpt lat="44.96667" lon="5.70127">
        <ele>844.289641</ele>
        <time>2025-07-10T15:23:01.000Z</time>
      </trkpt>
      <trkpt lat="44.96672" lon="5.70131">
        <ele>844.090374</ele>
        <time>2025-07-10T15:23:02.000Z</time>
      </trkpt>
      <trkpt lat="44.96677" lon="5.70136">
        <ele>843.885125</ele>
        <time>2025-07-10T15:23:03.000Z</time>
      </trkpt>
      <trkpt lat="44.96681" lon="5.7014">
        <ele>843.682593</ele>
        <time>2025-07-10T15:23:04.000Z</time>
      </trkpt>
      <trkpt lat="44.96686" lon="5.70144">
        <ele>843.399145</ele>
        <time>2025-07-10T15:23:05.000Z</time>
      </trkpt>
      <trkpt lat="44.96691" lon="5.70149">
        <ele>843.098002</ele>
        <time>2025-07-10T15:23:06.000Z</time>
      </trkpt>
      <trkpt lat="44.96697" lon="5.70154">
        <ele>842.792652</ele>
        <time>2025-07-10T15:23:07.000Z</time>
      </trkpt>
      <trkpt lat="44.96702" lon="5.70158">
        <ele>842.478818</ele>
        <time>2025-07-10T15:23:08.000Z</time>
      </trkpt>
      <trkpt lat="44.96707" lon="5.70163">
        <ele>842.159402</ele>
        <time>2025-07-10T15:23:09.000Z</time>
      </trkpt>
      <trkpt lat="44.96713" lon="5.70168">
        <ele>841.836127</ele>
        <time>2025-07-10T15:23:10.000Z</time>
      </trkpt>
      <trkpt lat="44.96718" lon="5.70173">
        <ele>841.506757</ele>
        <time>2025-07-10T15:23:11.000Z</time>
      </trkpt>
      <trkpt lat="44.96724" lon="5.70178">
        <ele>841.181251</ele>
        <time>2025-07-10T15:23:12.000Z</time>
      </trkpt>
      <trkpt lat="44.9673" lon="5.70184">
        <ele>840.839368</ele>
        <time>2025-07-10T15:23:13.000Z</time>
      </trkpt>
      <trkpt lat="44.96735" lon="5.70189">
        <ele>840.495586</ele>
        <time>2025-07-10T15:23:14.000Z</time>
      </trkpt>
      <trkpt lat="44.96742" lon="5.70194">
        <ele>840.139172</ele>
        <time>2025-07-10T15:23:15.000Z</time>
      </trkpt>
      <trkpt lat="44.96748" lon="5.702">
        <ele>839.780901</ele>
        <time>2025-07-10T15:23:16.000Z</time>
      </trkpt>
      <trkpt lat="44.96754" lon="5.70205">
        <ele>839.412317</ele>
        <time>2025-07-10T15:23:17.000Z</time>
      </trkpt>
      <trkpt lat="44.9676" lon="5.70211">
        <ele>839.050258</ele>
        <time>2025-07-10T15:23:18.000Z</time>
      </trkpt>
      <trkpt lat="44.96766" lon="5.70216">
        <ele>838.679812</ele>
        <time>2025-07-10T15:23:19.000Z</time>
      </trkpt>
      <trkpt lat="44.96773" lon="5.70222">
        <ele>838.29297</ele>
        <time>2025-07-10T15:23:20.000Z</time>
      </trkpt>
      <trkpt lat="44.9678" lon="5.70228">
        <ele>837.907975</ele>
        <time>2025-07-10T15:23:21.000Z</time>
      </trkpt>
      <trkpt lat="44.96786" lon="5.70234">
        <ele>837.522981</ele>
        <time>2025-07-10T15:23:22.000Z</time>
      </trkpt>
      <trkpt lat="44.96793" lon="5.70239">
        <ele>837.131903</ele>
        <time>2025-07-10T15:23:23.000Z</time>
      </trkpt>
      <trkpt lat="44.968" lon="5.70245">
        <ele>836.738975</ele>
        <time>2025-07-10T15:23:24.000Z</time>
      </trkpt>
      <trkpt lat="44.96806" lon="5.70251">
        <ele>836.354746</ele>
        <time>2025-07-10T15:23:25.000Z</time>
      </trkpt>
      <trkpt lat="44.96813" lon="5.70257">
        <ele>835.966033</ele>
        <time>2025-07-10T15:23:26.000Z</time>
      </trkpt>
      <trkpt lat="44.9682" lon="5.70263">
        <ele>835.565662</ele>
        <time>2025-07-10T15:23:27.000Z</time>
      </trkpt>
      <trkpt lat="44.96827" lon="5.70269">
        <ele>835.153904</ele>
        <time>2025-07-10T15:23:28.000Z</time>
      </trkpt>
      <trkpt lat="44.96834" lon="5.70275">
        <ele>834.738931</ele>
        <time>2025-07-10T15:23:29.000Z</time>
      </trkpt>
      <trkpt lat="44.96841" lon="5.70282">
        <ele>834.27674</ele>
        <time>2025-07-10T15:23:30.000Z</time>
      </trkpt>
      <trkpt lat="44.96848" lon="5.70288">
        <ele>833.807413</ele>
        <time>2025-07-10T15:23:31.000Z</time>
      </trkpt>
      <trkpt lat="44.96855" lon="5.70294">
        <ele>833.340706</ele>
        <time>2025-07-10T15:23:32.000Z</time>
      </trkpt>
      <trkpt lat="44.96863" lon="5.70301">
        <ele>832.867287</ele>
        <time>2025-07-10T15:23:33.000Z</time>
      </trkpt>
      <trkpt lat="44.9687" lon="5.70307">
        <ele>832.393868</ele>
        <time>2025-07-10T15:23:34.000Z</time>
      </trkpt>
      <trkpt lat="44.96877" lon="5.70314">
        <ele>831.913737</ele>
        <time>2025-07-10T15:23:35.000Z</time>
      </trkpt>
      <trkpt lat="44.96885" lon="5.70321">
        <ele>831.42429</ele>
        <time>2025-07-10T15:23:36.000Z</time>
      </trkpt>
      <trkpt lat="44.96893" lon="5.70327">
        <ele>830.92609</ele>
        <time>2025-07-10T15:23:37.000Z</time>
      </trkpt>
      <trkpt lat="44.969" lon="5.70334">
        <ele>830.419109</ele>
        <time>2025-07-10T15:23:38.000Z</time>
      </trkpt>
      <trkpt lat="44.96908" lon="5.70341">
        <ele>829.907487</ele>
        <time>2025-07-10T15:23:39.000Z</time>
      </trkpt>
      <trkpt lat="44.96916" lon="5.70349">
        <ele>829.3917</ele>
        <time>2025-07-10T15:23:40.000Z</time>
      </trkpt>
      <trkpt lat="44.96924" lon="5.70356">
        <ele>828.871293</ele>
        <time>2025-07-10T15:23:41.000Z</time>
      </trkpt>
      <trkpt lat="44.96932" lon="5.70363">
        <ele>828.357599</ele>
        <time>2025-07-10T15:23:42.000Z</time>
      </trkpt>
      <trkpt lat="44.9694" lon="5.7037">
        <ele>827.845365</ele>
        <time>2025-07-10T15:23:43.000Z</time>
      </trkpt>
      <trkpt lat="44.96949" lon="5.70375">
        <ele>827.324165</ele>
        <time>2025-07-10T15:23:44.000Z</time>
      </trkpt>
      <trkpt lat="44.96958" lon="5.7038">
        <ele>826.800332</ele>
        <time>2025-07-10T15:23:45.000Z</time>
      </trkpt>
      <trkpt lat="44.96967" lon="5.70383">
        <ele>826.280453</ele>
        <time>2025-07-10T15:23:46.000Z</time>
      </trkpt>
      <trkpt lat="44.96976" lon="5.70385">
        <ele>825.75451</ele>
        <time>2025-07-10T15:23:47.000Z</time>
      </trkpt>
      <trkpt lat="44.96986" lon="5.70386">
        <ele>825.215634</ele>
        <time>2025-07-10T15:23:48.000Z</time>
      </trkpt>
      <trkpt lat="44.96996" lon="5.70386">
        <ele>824.624254</ele>
        <time>2025-07-10T15:23:49.000Z</time>
      </trkpt>
      <trkpt lat="44.97006" lon="5.70387">
        <ele>823.928476</ele>
        <time>2025-07-10T15:23:50.000Z</time>
      </trkpt>
      <trkpt lat="44.97016" lon="5.70387">
        <ele>823.239649</ele>
        <time>2025-07-10T15:23:51.000Z</time>
      </trkpt>
      <trkpt lat="44.97026" lon="5.70387">
        <ele>822.557775</ele>
        <time>2025-07-10T15:23:52.000Z</time>
      </trkpt>
      <trkpt lat="44.97036" lon="5.70387">
        <ele>821.86923</ele>
        <time>2025-07-10T15:23:53.000Z</time>
      </trkpt>
      <trkpt lat="44.97046" lon="5.70387">
        <ele>821.180668</ele>
        <time>2025-07-10T15:23:54.000Z</time>
      </trkpt>
      <trkpt lat="44.97056" lon="5.70388">
        <ele>820.485011</ele>
        <time>2025-07-10T15:23:55.000Z</time>
      </trkpt>
      <trkpt lat="44.97066" lon="5.70388">
        <ele>819.789354</ele>
        <time>2025-07-10T15:23:56.000Z</time>
      </trkpt>
      <trkpt lat="44.97076" lon="5.70388">
        <ele>819.086744</ele>
        <time>2025-07-10T15:23:57.000Z</time>
      </trkpt>
      <trkpt lat="44.97086" lon="5.70389">
        <ele>818.390809</ele>
        <time>2025-07-10T15:23:58.000Z</time>
      </trkpt>
      <trkpt lat="44.97096" lon="5.70389">
        <ele>817.695152</ele>
        <time>2025-07-10T15:23:59.000Z</time>
      </trkpt>
      <trkpt lat="44.97106" lon="5.70389">
        <ele>817.00659</ele>
        <time>2025-07-10T15:24:00.000Z</time>
      </trkpt>
      <trkpt lat="44.97116" lon="5.70389">
        <ele>816.317975</ele>
        <time>2025-07-10T15:24:01.000Z</time>
      </trkpt>
      <trkpt lat="44.97125" lon="5.7039">
        <ele>815.643052</ele>
        <time>2025-07-10T15:24:02.000Z</time>
      </trkpt>
      <trkpt lat="44.97135" lon="5.7039">
        <ele>814.982309</ele>
        <time>2025-07-10T15:24:03.000Z</time>
      </trkpt>
      <trkpt lat="44.97144" lon="5.7039">
        <ele>814.321584</ele>
        <time>2025-07-10T15:24:04.000Z</time>
      </trkpt>
      <trkpt lat="44.97154" lon="5.7039">
        <ele>813.667814</ele>
        <time>2025-07-10T15:24:05.000Z</time>
      </trkpt>
      <trkpt lat="44.97163" lon="5.7039">
        <ele>813.007016</ele>
        <time>2025-07-10T15:24:06.000Z</time>
      </trkpt>
      <trkpt lat="44.97173" lon="5.7039">
        <ele>812.353079</ele>
        <time>2025-07-10T15:24:07.000Z</time>
      </trkpt>
      <trkpt lat="44.97182" lon="5.70391">
        <ele>811.745797</ele>
        <time>2025-07-10T15:24:08.000Z</time>
      </trkpt>
      <trkpt lat="44.97191" lon="5.70391">
        <ele>811.141398</ele>
        <time>2025-07-10T15:24:09.000Z</time>
      </trkpt>
      <trkpt lat="44.97201" lon="5.70391">
        <ele>810.543412</ele>
        <time>2025-07-10T15:24:10.000Z</time>
      </trkpt>
      <trkpt lat="44.9721" lon="5.70391">
        <ele>809.945425</ele>
        <time>2025-07-10T15:24:11.000Z</time>
      </trkpt>
      <trkpt lat="44.97219" lon="5.70391">
        <ele>809.347179</ele>
        <time>2025-07-10T15:24:12.000Z</time>
      </trkpt>
      <trkpt lat="44.97229" lon="5.70391">
        <ele>808.749141</ele>
        <time>2025-07-10T15:24:13.000Z</time>
      </trkpt>
      <trkpt lat="44.97238" lon="5.70392">
        <ele>808.151103</ele>
        <time>2025-07-10T15:24:14.000Z</time>
      </trkpt>
      <trkpt lat="44.97247" lon="5.70392">
        <ele>807.546687</ele>
        <time>2025-07-10T15:24:15.000Z</time>
      </trkpt>
      <trkpt lat="44.97257" lon="5.70392">
        <ele>806.942288</ele>
        <time>2025-07-10T15:24:16.000Z</time>
      </trkpt>
      <trkpt lat="44.97266" lon="5.70392">
        <ele>806.337821</ele>
        <time>2025-07-10T15:24:17.000Z</time>
      </trkpt>
      <trkpt lat="44.97275" lon="5.70392">
        <ele>805.739783</ele>
        <time>2025-07-10T15:24:18.000Z</time>
      </trkpt>
      <trkpt lat="44.97285" lon="5.70392">
        <ele>805.134956</ele>
        <time>2025-07-10T15:24:19.000Z</time>
      </trkpt>
      <trkpt lat="44.97294" lon="5.70393">
        <ele>804.53671</ele>
        <time>2025-07-10T15:24:20.000Z</time>
      </trkpt>
      <trkpt lat="44.97304" lon="5.70393">
        <ele>803.932295</ele>
        <time>2025-07-10T15:24:21.000Z</time>
      </trkpt>
      <trkpt lat="44.97313" lon="5.70393">
        <ele>803.327879</ele>
        <time>2025-07-10T15:24:22.000Z</time>
      </trkpt>
      <trkpt lat="44.97322" lon="5.70393">
        <ele>802.729633</ele>
        <time>2025-07-10T15:24:23.000Z</time>
      </trkpt>
      <trkpt lat="44.97331" lon="5.70394">
        <ele>802.137657</ele>
        <time>2025-07-10T15:24:24.000Z</time>
      </trkpt>
      <trkpt lat="44.97341" lon="5.70394">
        <ele>801.539532</ele>
        <time>2025-07-10T15:24:25.000Z</time>
      </trkpt>
      <trkpt lat="44.9735" lon="5.70394">
        <ele>800.947923</ele>
        <time>2025-07-10T15:24:26.000Z</time>
      </trkpt>
      <trkpt lat="44.97359" lon="5.70394">
        <ele>800.390087</ele>
        <time>2025-07-10T15:24:27.000Z</time>
      </trkpt>
      <trkpt lat="44.97369" lon="5.70395">
        <ele>799.851998</ele>
        <time>2025-07-10T15:24:28.000Z</time>
      </trkpt>
      <trkpt lat="44.97378" lon="5.70395">
        <ele>799.302264</ele>
        <time>2025-07-10T15:24:29.000Z</time>
      </trkpt>
      <trkpt lat="44.97388" lon="5.70395">
        <ele>798.746746</ele>
        <time>2025-07-10T15:24:30.000Z</time>
      </trkpt>
      <trkpt lat="44.97397" lon="5.70396">
        <ele>798.185444</ele>
        <time>2025-07-10T15:24:31.000Z</time>
      </trkpt>
      <trkpt lat="44.97407" lon="5.70396">
        <ele>797.641617</ele>
        <time>2025-07-10T15:24:32.000Z</time>
      </trkpt>
      <trkpt lat="44.97417" lon="5.70396">
        <ele>797.074132</ele>
        <time>2025-07-10T15:24:33.000Z</time>
      </trkpt>
      <trkpt lat="44.97426" lon="5.70397">
        <ele>796.507047</ele>
        <time>2025-07-10T15:24:34.000Z</time>
      </trkpt>
      <trkpt lat="44.97436" lon="5.70397">
        <ele>795.951604</ele>
        <time>2025-07-10T15:24:35.000Z</time>
      </trkpt>
      <trkpt lat="44.97446" lon="5.70397">
        <ele>795.390198</ele>
        <time>2025-07-10T15:24:36.000Z</time>
      </trkpt>
      <trkpt lat="44.97455" lon="5.70397">
        <ele>794.823231</ele>
        <time>2025-07-10T15:24:37.000Z</time>
      </trkpt>
      <trkpt lat="44.97465" lon="5.70397">
        <ele>794.267713</ele>
        <time>2025-07-10T15:24:38.000Z</time>
      </trkpt>
      <trkpt lat="44.97475" lon="5.70398">
        <ele>793.706172</ele>
        <time>2025-07-10T15:24:39.000Z</time>
      </trkpt>
      <trkpt lat="44.97484" lon="5.70398">
        <ele>793.156438</ele>
        <time>2025-07-10T15:24:40.000Z</time>
      </trkpt>
      <trkpt lat="44.97494" lon="5.70398">
        <ele>792.60092</ele>
        <time>2025-07-10T15:24:41.000Z</time>
      </trkpt>
      <trkpt lat="44.97504" lon="5.70399">
        <ele>792.033908</ele>
        <time>2025-07-10T15:24:42.000Z</time>
      </trkpt>
      <trkpt lat="44.97513" lon="5.70399">
        <ele>791.466956</ele>
        <time>2025-07-10T15:24:43.000Z</time>
      </trkpt>
      <trkpt lat="44.97523" lon="5.70398">
        <ele>790.911438</ele>
        <time>2025-07-10T15:24:44.000Z</time>
      </trkpt>
      <trkpt lat="44.97533" lon="5.70398">
        <ele>790.355317</ele>
        <time>2025-07-10T15:24:45.000Z</time>
      </trkpt>
      <trkpt lat="44.97542" lon="5.70397">
        <ele>789.725893</ele>
        <time>2025-07-10T15:24:46.000Z</time>
      </trkpt>
      <trkpt lat="44.97552" lon="5.70398">
        <ele>789.081724</ele>
        <time>2025-07-10T15:24:47.000Z</time>
      </trkpt>
      <trkpt lat="44.97561" lon="5.70398">
        <ele>788.444072</ele>
        <time>2025-07-10T15:24:48.000Z</time>
      </trkpt>
      <trkpt lat="44.97571" lon="5.70398">
        <ele>787.819692</ele>
        <time>2025-07-10T15:24:49.000Z</time>
      </trkpt>
      <trkpt lat="44.9758" lon="5.70399">
        <ele>787.195525</ele>
        <time>2025-07-10T15:24:50.000Z</time>
      </trkpt>
      <trkpt lat="44.9759" lon="5.70399">
        <ele>786.571357</ele>
        <time>2025-07-10T15:24:51.000Z</time>
      </trkpt>
      <trkpt lat="44.97599" lon="5.70399">
        <ele>785.96025</ele>
        <time>2025-07-10T15:24:52.000Z</time>
      </trkpt>
      <trkpt lat="44.97608" lon="5.70399">
        <ele>785.362415</ele>
        <time>2025-07-10T15:24:53.000Z</time>
      </trkpt>
      <trkpt lat="44.97617" lon="5.70399">
        <ele>784.76471</ele>
        <time>2025-07-10T15:24:54.000Z</time>
      </trkpt>
      <trkpt lat="44.97626" lon="5.70399">
        <ele>784.160458</ele>
        <time>2025-07-10T15:24:55.000Z</time>
      </trkpt>
      <trkpt lat="44.97635" lon="5.70398">
        <ele>783.568644</ele>
        <time>2025-07-10T15:24:56.000Z</time>
      </trkpt>
      <trkpt lat="44.97644" lon="5.70397">
        <ele>782.975489</ele>
        <time>2025-07-10T15:24:57.000Z</time>
      </trkpt>
      <trkpt lat="44.97653" lon="5.70396">
        <ele>782.381907</ele>
        <time>2025-07-10T15:24:58.000Z</time>
      </trkpt>
      <trkpt lat="44.97662" lon="5.70395">
        <ele>781.789144</ele>
        <time>2025-07-10T15:24:59.000Z</time>
      </trkpt>
      <trkpt lat="44.9767" lon="5.70393">
        <ele>781.195098</ele>
        <time>2025-07-10T15:25:00.000Z</time>
      </trkpt>
      <trkpt lat="44.97679" lon="5.70393">
        <ele>780.602687</ele>
        <time>2025-07-10T15:25:01.000Z</time>
      </trkpt>
      <trkpt lat="44.97688" lon="5.70392">
        <ele>780.017955</ele>
        <time>2025-07-10T15:25:02.000Z</time>
      </trkpt>
      <trkpt lat="44.97697" lon="5.70392">
        <ele>779.446664</ele>
        <time>2025-07-10T15:25:03.000Z</time>
      </trkpt>
      <trkpt lat="44.97705" lon="5.70391">
        <ele>778.888249</ele>
        <time>2025-07-10T15:25:04.000Z</time>
      </trkpt>
      <trkpt lat="44.97714" lon="5.7039">
        <ele>778.342396</ele>
        <time>2025-07-10T15:25:05.000Z</time>
      </trkpt>
      <trkpt lat="44.97722" lon="5.70389">
        <ele>777.882871</ele>
        <time>2025-07-10T15:25:06.000Z</time>
      </trkpt>
      <trkpt lat="44.9773" lon="5.70388">
        <ele>777.424363</ele>
        <time>2025-07-10T15:25:07.000Z</time>
      </trkpt>
      <trkpt lat="44.97739" lon="5.70387">
        <ele>776.960939</ele>
        <time>2025-07-10T15:25:08.000Z</time>
      </trkpt>
      <trkpt lat="44.97748" lon="5.70386">
        <ele>776.485852</ele>
        <time>2025-07-10T15:25:09.000Z</time>
      </trkpt>
      <trkpt lat="44.97756" lon="5.70385">
        <ele>776.000203</ele>
        <time>2025-07-10T15:25:10.000Z</time>
      </trkpt>
      <trkpt lat="44.97765" lon="5.70384">
        <ele>775.508839</ele>
        <time>2025-07-10T15:25:11.000Z</time>
      </trkpt>
      <trkpt lat="44.97775" lon="5.70383">
        <ele>775.000189</ele>
        <time>2025-07-10T15:25:12.000Z</time>
      </trkpt>
      <trkpt lat="44.97784" lon="5.70382">
        <ele>774.481061</ele>
        <time>2025-07-10T15:25:13.000Z</time>
      </trkpt>
      <trkpt lat="44.97794" lon="5.70381">
        <ele>773.96851</ele>
        <time>2025-07-10T15:25:14.000Z</time>
      </trkpt>
      <trkpt lat="44.97803" lon="5.7038">
        <ele>773.455959</ele>
        <time>2025-07-10T15:25:15.000Z</time>
      </trkpt>
      <trkpt lat="44.97812" lon="5.70379">
        <ele>772.942585</ele>
        <time>2025-07-10T15:25:16.000Z</time>
      </trkpt>
      <trkpt lat="44.97822" lon="5.70378">
        <ele>772.429788</ele>
        <time>2025-07-10T15:25:17.000Z</time>
      </trkpt>
      <trkpt lat="44.97831" lon="5.70377">
        <ele>771.911289</ele>
        <time>2025-07-10T15:25:18.000Z</time>
      </trkpt>
      <trkpt lat="44.97841" lon="5.70376">
        <ele>771.397914</ele>
        <time>2025-07-10T15:25:19.000Z</time>
      </trkpt>
      <trkpt lat="44.9785" lon="5.70375">
        <ele>770.879415</ele>
        <time>2025-07-10T15:25:20.000Z</time>
      </trkpt>
      <trkpt lat="44.9786" lon="5.70376">
        <ele>770.367429</ele>
        <time>2025-07-10T15:25:21.000Z</time>
      </trkpt>
      <trkpt lat="44.97869" lon="5.70377">
        <ele>769.847146</ele>
        <time>2025-07-10T15:25:22.000Z</time>
      </trkpt>
      <trkpt lat="44.97879" lon="5.70379">
        <ele>769.32006</ele>
        <time>2025-07-10T15:25:23.000Z</time>
      </trkpt>
      <trkpt lat="44.97888" lon="5.70381">
        <ele>768.803763</ele>
        <time>2025-07-10T15:25:24.000Z</time>
      </trkpt>
      <trkpt lat="44.97898" lon="5.70382">
        <ele>768.352208</ele>
        <time>2025-07-10T15:25:25.000Z</time>
      </trkpt>
      <trkpt lat="44.97908" lon="5.70382">
        <ele>767.936046</ele>
        <time>2025-07-10T15:25:26.000Z</time>
      </trkpt>
      <trkpt lat="44.97917" lon="5.70381">
        <ele>767.518813</ele>
        <time>2025-07-10T15:25:27.000Z</time>
      </trkpt>
      <trkpt lat="44.97927" lon="5.70379">
        <ele>767.110953</ele>
        <time>2025-07-10T15:25:28.000Z</time>
      </trkpt>
      <trkpt lat="44.97936" lon="5.70377">
        <ele>766.70422</ele>
        <time>2025-07-10T15:25:29.000Z</time>
      </trkpt>
      <trkpt lat="44.97945" lon="5.70373">
        <ele>766.30863</ele>
        <time>2025-07-10T15:25:30.000Z</time>
      </trkpt>
      <trkpt lat="44.97954" lon="5.7037">
        <ele>765.912255</ele>
        <time>2025-07-10T15:25:31.000Z</time>
      </trkpt>
      <trkpt lat="44.97963" lon="5.70366">
        <ele>765.516665</ele>
        <time>2025-07-10T15:25:32.000Z</time>
      </trkpt>
      <trkpt lat="44.97972" lon="5.70363">
        <ele>765.128472</ele>
        <time>2025-07-10T15:25:33.000Z</time>
      </trkpt>
      <trkpt lat="44.97981" lon="5.7036">
        <ele>764.742622</ele>
        <time>2025-07-10T15:25:34.000Z</time>
      </trkpt>
      <trkpt lat="44.9799" lon="5.70357">
        <ele>764.357509</ele>
        <time>2025-07-10T15:25:35.000Z</time>
      </trkpt>
      <trkpt lat="44.97998" lon="5.70355">
        <ele>763.995274</ele>
        <time>2025-07-10T15:25:36.000Z</time>
      </trkpt>
      <trkpt lat="44.98007" lon="5.70353">
        <ele>763.627311</ele>
        <time>2025-07-10T15:25:37.000Z</time>
      </trkpt>
      <trkpt lat="44.98015" lon="5.70352">
        <ele>763.260885</ele>
        <time>2025-07-10T15:25:38.000Z</time>
      </trkpt>
      <trkpt lat="44.98024" lon="5.70351">
        <ele>762.899488</ele>
        <time>2025-07-10T15:25:39.000Z</time>
      </trkpt>
      <trkpt lat="44.98032" lon="5.70352">
        <ele>762.534097</ele>
        <time>2025-07-10T15:25:40.000Z</time>
      </trkpt>
      <trkpt lat="44.98041" lon="5.70353">
        <ele>762.180608</ele>
        <time>2025-07-10T15:25:41.000Z</time>
      </trkpt>
      <trkpt lat="44.98048" lon="5.70354">
        <ele>761.847742</ele>
        <time>2025-07-10T15:25:42.000Z</time>
      </trkpt>
      <trkpt lat="44.98056" lon="5.70355">
        <ele>761.507377</ele>
        <time>2025-07-10T15:25:43.000Z</time>
      </trkpt>
      <trkpt lat="44.98064" lon="5.70355">
        <ele>761.175665</ele>
        <time>2025-07-10T15:25:44.000Z</time>
      </trkpt>
      <trkpt lat="44.98072" lon="5.70355">
        <ele>760.830087</ele>
        <time>2025-07-10T15:25:45.000Z</time>
      </trkpt>
      <trkpt lat="44.98079" lon="5.70354">
        <ele>760.455272</ele>
        <time>2025-07-10T15:25:46.000Z</time>
      </trkpt>
      <trkpt lat="44.98086" lon="5.70351">
        <ele>760.082194</ele>
        <time>2025-07-10T15:25:47.000Z</time>
      </trkpt>
      <trkpt lat="44.98094" lon="5.70348">
        <ele>759.699647</ele>
        <time>2025-07-10T15:25:48.000Z</time>
      </trkpt>
      <trkpt lat="44.98101" lon="5.70345">
        <ele>759.324652</ele>
        <time>2025-07-10T15:25:49.000Z</time>
      </trkpt>
      <trkpt lat="44.98108" lon="5.70342">
        <ele>758.941096</ele>
        <time>2025-07-10T15:25:50.000Z</time>
      </trkpt>
      <trkpt lat="44.98116" lon="5.70339">
        <ele>758.548875</ele>
        <time>2025-07-10T15:25:51.000Z</time>
      </trkpt>
      <trkpt lat="44.98123" lon="5.70336">
        <ele>758.154656</ele>
        <time>2025-07-10T15:25:52.000Z</time>
      </trkpt>
      <trkpt lat="44.98131" lon="5.70333">
        <ele>757.76145</ele>
        <time>2025-07-10T15:25:53.000Z</time>
      </trkpt>
      <trkpt lat="44.98138" lon="5.70329">
        <ele>757.361381</ele>
        <time>2025-07-10T15:25:54.000Z</time>
      </trkpt>
      <trkpt lat="44.98146" lon="5.70326">
        <ele>756.962342</ele>
        <time>2025-07-10T15:25:55.000Z</time>
      </trkpt>
      <trkpt lat="44.98154" lon="5.70323">
        <ele>756.554625</ele>
        <time>2025-07-10T15:25:56.000Z</time>
      </trkpt>
      <trkpt lat="44.98162" lon="5.7032">
        <ele>756.140101</ele>
        <time>2025-07-10T15:25:57.000Z</time>
      </trkpt>
      <trkpt lat="44.9817" lon="5.70316">
        <ele>755.720748</ele>
        <time>2025-07-10T15:25:58.000Z</time>
      </trkpt>
      <trkpt lat="44.98178" lon="5.70313">
        <ele>755.296563</ele>
        <time>2025-07-10T15:25:59.000Z</time>
      </trkpt>
      <trkpt lat="44.98186" lon="5.70309">
        <ele>754.873002</ele>
        <time>2025-07-10T15:26:00.000Z</time>
      </trkpt>
      <trkpt lat="44.98194" lon="5.70306">
        <ele>754.445737</ele>
        <time>2025-07-10T15:26:01.000Z</time>
      </trkpt>
      <trkpt lat="44.98202" lon="5.70302">
        <ele>754.018472</ele>
        <time>2025-07-10T15:26:02.000Z</time>
      </trkpt>
      <trkpt lat="44.9821" lon="5.70299">
        <ele>753.58363</ele>
        <time>2025-07-10T15:26:03.000Z</time>
      </trkpt>
      <trkpt lat="44.98218" lon="5.70296">
        <ele>753.150716</ele>
        <time>2025-07-10T15:26:04.000Z</time>
      </trkpt>
      <trkpt lat="44.98227" lon="5.70293">
        <ele>752.714542</ele>
        <time>2025-07-10T15:26:05.000Z</time>
      </trkpt>
      <trkpt lat="44.98236" lon="5.70292">
        <ele>752.267604</ele>
        <time>2025-07-10T15:26:06.000Z</time>
      </trkpt>
      <trkpt lat="44.98245" lon="5.70291">
        <ele>751.790701</ele>
        <time>2025-07-10T15:26:07.000Z</time>
      </trkpt>
      <trkpt lat="44.98254" lon="5.70292">
        <ele>751.238746</ele>
        <time>2025-07-10T15:26:08.000Z</time>
      </trkpt>
      <trkpt lat="44.98262" lon="5.70295">
        <ele>750.718027</ele>
        <time>2025-07-10T15:26:09.000Z</time>
      </trkpt>
      <trkpt lat="44.9827" lon="5.70298">
        <ele>750.189363</ele>
        <time>2025-07-10T15:26:10.000Z</time>
      </trkpt>
      <trkpt lat="44.98279" lon="5.70299">
        <ele>749.634772</ele>
        <time>2025-07-10T15:26:11.000Z</time>
      </trkpt>
      <trkpt lat="44.98288" lon="5.703">
        <ele>749.082818</ele>
        <time>2025-07-10T15:26:12.000Z</time>
      </trkpt>
      <trkpt lat="44.98298" lon="5.703">
        <ele>748.520332</ele>
        <time>2025-07-10T15:26:13.000Z</time>
      </trkpt>
      <trkpt lat="44.98307" lon="5.70298">
        <ele>747.957927</ele>
        <time>2025-07-10T15:26:14.000Z</time>
      </trkpt>
      <trkpt lat="44.98316" lon="5.70295">
        <ele>747.401293</ele>
        <time>2025-07-10T15:26:15.000Z</time>
      </trkpt>
      <trkpt lat="44.98324" lon="5.70291">
        <ele>746.838727</ele>
        <time>2025-07-10T15:26:16.000Z</time>
      </trkpt>
      <trkpt lat="44.98333" lon="5.70286">
        <ele>746.270202</ele>
        <time>2025-07-10T15:26:17.000Z</time>
      </trkpt>
      <trkpt lat="44.98342" lon="5.70282">
        <ele>745.699226</ele>
        <time>2025-07-10T15:26:18.000Z</time>
      </trkpt>
      <trkpt lat="44.98351" lon="5.70277">
        <ele>745.121729</ele>
        <time>2025-07-10T15:26:19.000Z</time>
      </trkpt>
      <trkpt lat="44.98359" lon="5.70272">
        <ele>744.557557</ele>
        <time>2025-07-10T15:26:20.000Z</time>
      </trkpt>
      <trkpt lat="44.98367" lon="5.70266">
        <ele>743.980197</ele>
        <time>2025-07-10T15:26:21.000Z</time>
      </trkpt>
      <trkpt lat="44.98376" lon="5.70259">
        <ele>743.393692</ele>
        <time>2025-07-10T15:26:22.000Z</time>
      </trkpt>
      <trkpt lat="44.98384" lon="5.70251">
        <ele>742.787007</ele>
        <time>2025-07-10T15:26:23.000Z</time>
      </trkpt>
      <trkpt lat="44.98391" lon="5.70241">
        <ele>742.163174</ele>
        <time>2025-07-10T15:26:24.000Z</time>
      </trkpt>
      <trkpt lat="44.98399" lon="5.70231">
        <ele>741.517745</ele>
        <time>2025-07-10T15:26:25.000Z</time>
      </trkpt>
      <trkpt lat="44.98408" lon="5.70222">
        <ele>740.859794</ele>
        <time>2025-07-10T15:26:26.000Z</time>
      </trkpt>
      <trkpt lat="44.98417" lon="5.70214">
        <ele>740.18643</ele>
        <time>2025-07-10T15:26:27.000Z</time>
      </trkpt>
      <trkpt lat="44.98426" lon="5.70208">
        <ele>739.512848</ele>
        <time>2025-07-10T15:26:28.000Z</time>
      </trkpt>
      <trkpt lat="44.98437" lon="5.70203">
        <ele>738.841422</ele>
        <time>2025-07-10T15:26:29.000Z</time>
      </trkpt>
      <trkpt lat="44.98446" lon="5.702">
        <ele>738.196777</ele>
        <time>2025-07-10T15:26:30.000Z</time>
      </trkpt>
      <trkpt lat="44.98456" lon="5.70196">
        <ele>737.54492</ele>
        <time>2025-07-10T15:26:31.000Z</time>
      </trkpt>
      <trkpt lat="44.98466" lon="5.70193">
        <ele>736.890854</ele>
        <time>2025-07-10T15:26:32.000Z</time>
      </trkpt>
      <trkpt lat="44.98477" lon="5.70189">
        <ele>736.216147</ele>
        <time>2025-07-10T15:26:33.000Z</time>
      </trkpt>
      <trkpt lat="44.98487" lon="5.70184">
        <ele>735.540043</ele>
        <time>2025-07-10T15:26:34.000Z</time>
      </trkpt>
      <trkpt lat="44.98497" lon="5.7018">
        <ele>734.862593</ele>
        <time>2025-07-10T15:26:35.000Z</time>
      </trkpt>
      <trkpt lat="44.98507" lon="5.70175">
        <ele>734.17775</ele>
        <time>2025-07-10T15:26:36.000Z</time>
      </trkpt>
      <trkpt lat="44.98518" lon="5.7017">
        <ele>733.487199</ele>
        <time>2025-07-10T15:26:37.000Z</time>
      </trkpt>
      <trkpt lat="44.98528" lon="5.70165">
        <ele>732.797682</ele>
        <time>2025-07-10T15:26:38.000Z</time>
      </trkpt>
      <trkpt lat="44.98539" lon="5.70161">
        <ele>732.108165</ele>
        <time>2025-07-10T15:26:39.000Z</time>
      </trkpt>
      <trkpt lat="44.98549" lon="5.70156">
        <ele>731.418648</ele>
        <time>2025-07-10T15:26:40.000Z</time>
      </trkpt>
      <trkpt lat="44.98559" lon="5.70151">
        <ele>730.733806</ele>
        <time>2025-07-10T15:26:41.000Z</time>
      </trkpt>
      <trkpt lat="44.9857" lon="5.70146">
        <ele>730.035801</ele>
        <time>2025-07-10T15:26:42.000Z</time>
      </trkpt>
      <trkpt lat="44.9858" lon="5.70141">
        <ele>729.243271</ele>
        <time>2025-07-10T15:26:43.000Z</time>
      </trkpt>
      <trkpt lat="44.98589" lon="5.70134">
        <ele>728.168651</ele>
        <time>2025-07-10T15:26:44.000Z</time>
      </trkpt>
      <trkpt lat="44.98599" lon="5.70127">
        <ele>727.088544</ele>
        <time>2025-07-10T15:26:45.000Z</time>
      </trkpt>
      <trkpt lat="44.98608" lon="5.70119">
        <ele>726.012774</ele>
        <time>2025-07-10T15:26:46.000Z</time>
      </trkpt>
      <trkpt lat="44.98617" lon="5.7011">
        <ele>724.938821</ele>
        <time>2025-07-10T15:26:47.000Z</time>
      </trkpt>
      <trkpt lat="44.98625" lon="5.70101">
        <ele>723.868455</ele>
        <time>2025-07-10T15:26:48.000Z</time>
      </trkpt>
      <trkpt lat="44.98633" lon="5.70091">
        <ele>722.799198</ele>
        <time>2025-07-10T15:26:49.000Z</time>
      </trkpt>
      <trkpt lat="44.98641" lon="5.7008">
        <ele>721.724496</ele>
        <time>2025-07-10T15:26:50.000Z</time>
      </trkpt>
      <trkpt lat="44.98648" lon="5.70069">
        <ele>720.616685</ele>
        <time>2025-07-10T15:26:51.000Z</time>
      </trkpt>
      <trkpt lat="44.98655" lon="5.70057">
        <ele>719.507521</ele>
        <time>2025-07-10T15:26:52.000Z</time>
      </trkpt>
      <trkpt lat="44.98662" lon="5.70044">
        <ele>718.410785</ele>
        <time>2025-07-10T15:26:53.000Z</time>
      </trkpt>
      <trkpt lat="44.98668" lon="5.70031">
        <ele>717.308966</ele>
        <time>2025-07-10T15:26:54.000Z</time>
      </trkpt>
      <trkpt lat="44.98674" lon="5.70018">
        <ele>716.201238</ele>
        <time>2025-07-10T15:26:55.000Z</time>
      </trkpt>
      <trkpt lat="44.9868" lon="5.70006">
        <ele>715.093809</ele>
        <time>2025-07-10T15:26:56.000Z</time>
      </trkpt>
      <trkpt lat="44.98687" lon="5.69994">
        <ele>714.005543</ele>
        <time>2025-07-10T15:26:57.000Z</time>
      </trkpt>
      <trkpt lat="44.98697" lon="5.69986">
        <ele>712.904086</ele>
        <time>2025-07-10T15:26:58.000Z</time>
      </trkpt>
      <trkpt lat="44.98707" lon="5.69983">
        <ele>711.809659</ele>
        <time>2025-07-10T15:26:59.000Z</time>
      </trkpt>
      <trkpt lat="44.98718" lon="5.69984">
        <ele>711.012719</ele>
        <time>2025-07-10T15:27:00.000Z</time>
      </trkpt>
      <trkpt lat="44.98729" lon="5.69987">
        <ele>710.349984</ele>
        <time>2025-07-10T15:27:01.000Z</time>
      </trkpt>
      <trkpt lat="44.9874" lon="5.69989">
        <ele>709.679979</ele>
        <time>2025-07-10T15:27:02.000Z</time>
      </trkpt>
      <trkpt lat="44.98751" lon="5.69989">
        <ele>709.012439</ele>
        <time>2025-07-10T15:27:03.000Z</time>
      </trkpt>
      <trkpt lat="44.98761" lon="5.69984">
        <ele>708.371656</ele>
        <time>2025-07-10T15:27:04.000Z</time>
      </trkpt>
      <trkpt lat="44.9877" lon="5.69977">
        <ele>707.739044</ele>
        <time>2025-07-10T15:27:05.000Z</time>
      </trkpt>
      <trkpt lat="44.98778" lon="5.69966">
        <ele>707.120056</ele>
        <time>2025-07-10T15:27:06.000Z</time>
      </trkpt>
      <trkpt lat="44.98784" lon="5.69954">
        <ele>706.491448</ele>
        <time>2025-07-10T15:27:07.000Z</time>
      </trkpt>
      <trkpt lat="44.98788" lon="5.69941">
        <ele>705.864902</ele>
        <time>2025-07-10T15:27:08.000Z</time>
      </trkpt>
      <trkpt lat="44.98793" lon="5.69928">
        <ele>705.23361</ele>
        <time>2025-07-10T15:27:09.000Z</time>
      </trkpt>
      <trkpt lat="44.98799" lon="5.69915">
        <ele>704.588015</ele>
        <time>2025-07-10T15:27:10.000Z</time>
      </trkpt>
      <trkpt lat="44.98805" lon="5.69903">
        <ele>703.938096</ele>
        <time>2025-07-10T15:27:11.000Z</time>
      </trkpt>
      <trkpt lat="44.98814" lon="5.69893">
        <ele>703.283176</ele>
        <time>2025-07-10T15:27:12.000Z</time>
      </trkpt>
      <trkpt lat="44.98823" lon="5.69885">
        <ele>702.622531</ele>
        <time>2025-07-10T15:27:13.000Z</time>
      </trkpt>
      <trkpt lat="44.98833" lon="5.69879">
        <ele>701.963709</ele>
        <time>2025-07-10T15:27:14.000Z</time>
      </trkpt>
      <trkpt lat="44.98843" lon="5.69874">
        <ele>701.305991</ele>
        <time>2025-07-10T15:27:15.000Z</time>
      </trkpt>
      <trkpt lat="44.98854" lon="5.69869">
        <ele>700.643</ele>
        <time>2025-07-10T15:27:16.000Z</time>
      </trkpt>
      <trkpt lat="44.98864" lon="5.69865">
        <ele>699.817012</ele>
        <time>2025-07-10T15:27:17.000Z</time>
      </trkpt>
      <trkpt lat="44.98875" lon="5.69862">
        <ele>698.984002</ele>
        <time>2025-07-10T15:27:18.000Z</time>
      </trkpt>
      <trkpt lat="44.98886" lon="5.69859">
        <ele>698.154377</ele>
        <time>2025-07-10T15:27:19.000Z</time>
      </trkpt>
      <trkpt lat="44.98897" lon="5.69856">
        <ele>697.300626</ele>
        <time>2025-07-10T15:27:20.000Z</time>
      </trkpt>
      <trkpt lat="44.98908" lon="5.69854">
        <ele>696.451978</ele>
        <time>2025-07-10T15:27:21.000Z</time>
      </trkpt>
      <trkpt lat="44.98919" lon="5.69853">
        <ele>695.599566</ele>
        <time>2025-07-10T15:27:22.000Z</time>
      </trkpt>
      <trkpt lat="44.9893" lon="5.69854">
        <ele>694.741186</ele>
        <time>2025-07-10T15:27:23.000Z</time>
      </trkpt>
      <trkpt lat="44.98942" lon="5.69857">
        <ele>693.846529</ele>
        <time>2025-07-10T15:27:24.000Z</time>
      </trkpt>
      <trkpt lat="44.98952" lon="5.69863">
        <ele>692.989235</ele>
        <time>2025-07-10T15:27:25.000Z</time>
      </trkpt>
      <trkpt lat="44.98962" lon="5.69871">
        <ele>692.140089</ele>
        <time>2025-07-10T15:27:26.000Z</time>
      </trkpt>
      <trkpt lat="44.98971" lon="5.69882">
        <ele>691.243336</ele>
        <time>2025-07-10T15:27:27.000Z</time>
      </trkpt>
      <trkpt lat="44.98979" lon="5.69892">
        <ele>690.404928</ele>
        <time>2025-07-10T15:27:28.000Z</time>
      </trkpt>
      <trkpt lat="44.98983" lon="5.69909">
        <ele>689.465273</ele>
        <time>2025-07-10T15:27:29.000Z</time>
      </trkpt>
      <trkpt lat="44.98989" lon="5.69924">
        <ele>688.543292</ele>
        <time>2025-07-10T15:27:30.000Z</time>
      </trkpt>
      <trkpt lat="44.98995" lon="5.69939">
        <ele>687.658579</ele>
        <time>2025-07-10T15:27:31.000Z</time>
      </trkpt>
      <trkpt lat="44.99004" lon="5.69949">
        <ele>686.770379</ele>
        <time>2025-07-10T15:27:32.000Z</time>
      </trkpt>
      <trkpt lat="44.99016" lon="5.69955">
        <ele>685.75237</ele>
        <time>2025-07-10T15:27:33.000Z</time>
      </trkpt>
      <trkpt lat="44.99027" lon="5.69956">
        <ele>684.909486</ele>
        <time>2025-07-10T15:27:34.000Z</time>
      </trkpt>
      <trkpt lat="44.99038" lon="5.69954">
        <ele>684.105839</ele>
        <time>2025-07-10T15:27:35.000Z</time>
      </trkpt>
      <trkpt lat="44.99047" lon="5.69949">
        <ele>683.304482</ele>
        <time>2025-07-10T15:27:36.000Z</time>
      </trkpt>
      <trkpt lat="44.99057" lon="5.69942">
        <ele>682.472419</ele>
        <time>2025-07-10T15:27:37.000Z</time>
      </trkpt>
      <trkpt lat="44.99066" lon="5.69933">
        <ele>681.603192</ele>
        <time>2025-07-10T15:27:38.000Z</time>
      </trkpt>
      <trkpt lat="44.99075" lon="5.69923">
        <ele>680.752158</ele>
        <time>2025-07-10T15:27:39.000Z</time>
      </trkpt>
      <trkpt lat="44.99084" lon="5.69912">
        <ele>679.867007</ele>
        <time>2025-07-10T15:27:40.000Z</time>
      </trkpt>
      <trkpt lat="44.99093" lon="5.69902">
        <ele>678.986304</ele>
        <time>2025-07-10T15:27:41.000Z</time>
      </trkpt>
      <trkpt lat="44.99101" lon="5.6989">
        <ele>678.081783</ele>
        <time>2025-07-10T15:27:42.000Z</time>
      </trkpt>
      <trkpt lat="44.99108" lon="5.69876">
        <ele>677.170887</ele>
        <time>2025-07-10T15:27:43.000Z</time>
      </trkpt>
      <trkpt lat="44.99113" lon="5.69861">
        <ele>676.24978</ele>
        <time>2025-07-10T15:27:44.000Z</time>
      </trkpt>
      <trkpt lat="44.99119" lon="5.69846">
        <ele>675.306114</ele>
        <time>2025-07-10T15:27:45.000Z</time>
      </trkpt>
      <trkpt lat="44.99127" lon="5.69832">
        <ele>674.37223</ele>
        <time>2025-07-10T15:27:46.000Z</time>
      </trkpt>
      <trkpt lat="44.99136" lon="5.69821">
        <ele>673.46255</ele>
        <time>2025-07-10T15:27:47.000Z</time>
      </trkpt>
      <trkpt lat="44.99145" lon="5.69811">
        <ele>672.538327</ele>
        <time>2025-07-10T15:27:48.000Z</time>
      </trkpt>
      <trkpt lat="44.99153" lon="5.69799">
        <ele>671.599785</ele>
        <time>2025-07-10T15:27:49.000Z</time>
      </trkpt>
      <trkpt lat="44.9916" lon="5.69786">
        <ele>670.632616</ele>
        <time>2025-07-10T15:27:50.000Z</time>
      </trkpt>
      <trkpt lat="44.99167" lon="5.69772">
        <ele>669.64205</ele>
        <time>2025-07-10T15:27:51.000Z</time>
      </trkpt>
      <trkpt lat="44.99175" lon="5.69761">
        <ele>668.758355</ele>
        <time>2025-07-10T15:27:52.000Z</time>
      </trkpt>
      <trkpt lat="44.99187" lon="5.69754">
        <ele>667.753159</ele>
        <time>2025-07-10T15:27:53.000Z</time>
      </trkpt>
      <trkpt lat="44.99198" lon="5.69749">
        <ele>666.782946</ele>
        <time>2025-07-10T15:27:54.000Z</time>
      </trkpt>
      <trkpt lat="44.99209" lon="5.69746">
        <ele>665.850453</ele>
        <time>2025-07-10T15:27:55.000Z</time>
      </trkpt>
      <trkpt lat="44.9922" lon="5.69744">
        <ele>664.958716</ele>
        <time>2025-07-10T15:27:56.000Z</time>
      </trkpt>
      <trkpt lat="44.99231" lon="5.69743">
        <ele>664.08332</ele>
        <time>2025-07-10T15:27:57.000Z</time>
      </trkpt>
      <trkpt lat="44.99242" lon="5.69742">
        <ele>663.184273</ele>
        <time>2025-07-10T15:27:58.000Z</time>
      </trkpt>
      <trkpt lat="44.99253" lon="5.69741">
        <ele>662.293309</ele>
        <time>2025-07-10T15:27:59.000Z</time>
      </trkpt>
      <trkpt lat="44.99264" lon="5.69741">
        <ele>661.387045</ele>
        <time>2025-07-10T15:28:00.000Z</time>
      </trkpt>
      <trkpt lat="44.99275" lon="5.69742">
        <ele>660.4886</ele>
        <time>2025-07-10T15:28:01.000Z</time>
      </trkpt>
      <trkpt lat="44.99287" lon="5.69743">
        <ele>659.58688</ele>
        <time>2025-07-10T15:28:02.000Z</time>
      </trkpt>
      <trkpt lat="44.99297" lon="5.69745">
        <ele>658.700169</ele>
        <time>2025-07-10T15:28:03.000Z</time>
      </trkpt>
      <trkpt lat="44.99308" lon="5.69747">
        <ele>658.041097</ele>
        <time>2025-07-10T15:28:04.000Z</time>
      </trkpt>
      <trkpt lat="44.99318" lon="5.6975">
        <ele>657.400534</ele>
        <time>2025-07-10T15:28:05.000Z</time>
      </trkpt>
      <trkpt lat="44.99329" lon="5.69753">
        <ele>656.749517</ele>
        <time>2025-07-10T15:28:06.000Z</time>
      </trkpt>
      <trkpt lat="44.9934" lon="5.69754">
        <ele>656.091933</ele>
        <time>2025-07-10T15:28:07.000Z</time>
      </trkpt>
      <trkpt lat="44.9935" lon="5.69755">
        <ele>655.432225</ele>
        <time>2025-07-10T15:28:08.000Z</time>
      </trkpt>
      <trkpt lat="44.99361" lon="5.69755">
        <ele>654.772588</ele>
        <time>2025-07-10T15:28:09.000Z</time>
      </trkpt>
      <trkpt lat="44.99372" lon="5.69755">
        <ele>654.082134</ele>
        <time>2025-07-10T15:28:10.000Z</time>
      </trkpt>
      <trkpt lat="44.99383" lon="5.69755">
        <ele>653.416432</ele>
        <time>2025-07-10T15:28:11.000Z</time>
      </trkpt>
      <trkpt lat="44.99395" lon="5.69756">
        <ele>652.732368</ele>
        <time>2025-07-10T15:28:12.000Z</time>
      </trkpt>
      <trkpt lat="44.99406" lon="5.69756">
        <ele>652.041914</ele>
        <time>2025-07-10T15:28:13.000Z</time>
      </trkpt>
      <trkpt lat="44.99417" lon="5.69757">
        <ele>651.34307</ele>
        <time>2025-07-10T15:28:14.000Z</time>
      </trkpt>
      <trkpt lat="44.99429" lon="5.69758">
        <ele>650.65186</ele>
        <time>2025-07-10T15:28:15.000Z</time>
      </trkpt>
      <trkpt lat="44.9944" lon="5.69759">
        <ele>649.967183</ele>
        <time>2025-07-10T15:28:16.000Z</time>
      </trkpt>
      <trkpt lat="44.99451" lon="5.6976">
        <ele>649.26452</ele>
        <time>2025-07-10T15:28:17.000Z</time>
      </trkpt>
      <trkpt lat="44.99463" lon="5.6976">
        <ele>648.549335</ele>
        <time>2025-07-10T15:28:18.000Z</time>
      </trkpt>
      <trkpt lat="44.99474" lon="5.69761">
        <ele>647.859003</ele>
        <time>2025-07-10T15:28:19.000Z</time>
      </trkpt>
      <trkpt lat="44.99486" lon="5.69763">
        <ele>646.956531</ele>
        <time>2025-07-10T15:28:20.000Z</time>
      </trkpt>
      <trkpt lat="44.99498" lon="5.69764">
        <ele>646.022865</ele>
        <time>2025-07-10T15:28:21.000Z</time>
      </trkpt>
      <trkpt lat="44.9951" lon="5.69765">
        <ele>645.078765</ele>
        <time>2025-07-10T15:28:22.000Z</time>
      </trkpt>
      <trkpt lat="44.99522" lon="5.69768">
        <ele>644.15833</ele>
        <time>2025-07-10T15:28:23.000Z</time>
      </trkpt>
      <trkpt lat="44.99534" lon="5.69771">
        <ele>643.229339</ele>
        <time>2025-07-10T15:28:24.000Z</time>
      </trkpt>
      <trkpt lat="44.99546" lon="5.69775">
        <ele>642.296025</ele>
        <time>2025-07-10T15:28:25.000Z</time>
      </trkpt>
      <trkpt lat="44.99557" lon="5.6978">
        <ele>641.385761</ele>
        <time>2025-07-10T15:28:26.000Z</time>
      </trkpt>
      <trkpt lat="44.99568" lon="5.69785">
        <ele>640.439613</ele>
        <time>2025-07-10T15:28:27.000Z</time>
      </trkpt>
      <trkpt lat="44.9958" lon="5.69791">
        <ele>639.504392</ele>
        <time>2025-07-10T15:28:28.000Z</time>
      </trkpt>
      <trkpt lat="44.99591" lon="5.69795">
        <ele>638.567161</ele>
        <time>2025-07-10T15:28:29.000Z</time>
      </trkpt>
      <trkpt lat="44.99604" lon="5.69798">
        <ele>637.602749</ele>
        <time>2025-07-10T15:28:30.000Z</time>
      </trkpt>
      <trkpt lat="44.99616" lon="5.69801">
        <ele>636.641296</ele>
        <time>2025-07-10T15:28:31.000Z</time>
      </trkpt>
      <trkpt lat="44.99628" lon="5.69804">
        <ele>635.724143</ele>
        <time>2025-07-10T15:28:32.000Z</time>
      </trkpt>
      <trkpt lat="44.99639" lon="5.69805">
        <ele>634.818083</ele>
        <time>2025-07-10T15:28:33.000Z</time>
      </trkpt>
      <trkpt lat="44.99651" lon="5.69809">
        <ele>633.913487</ele>
        <time>2025-07-10T15:28:34.000Z</time>
      </trkpt>
      <trkpt lat="44.99662" lon="5.69813">
        <ele>632.926364</ele>
        <time>2025-07-10T15:28:35.000Z</time>
      </trkpt>
      <trkpt lat="44.99673" lon="5.69817">
        <ele>631.922603</ele>
        <time>2025-07-10T15:28:36.000Z</time>
      </trkpt>
      <trkpt lat="44.99684" lon="5.69823">
        <ele>630.922079</ele>
        <time>2025-07-10T15:28:37.000Z</time>
      </trkpt>
      <trkpt lat="44.99695" lon="5.69828">
        <ele>629.909291</ele>
        <time>2025-07-10T15:28:38.000Z</time>
      </trkpt>
      <trkpt lat="44.99706" lon="5.69835">
        <ele>628.907566</ele>
        <time>2025-07-10T15:28:39.000Z</time>
      </trkpt>
      <trkpt lat="44.99716" lon="5.69841">
        <ele>627.899232</ele>
        <time>2025-07-10T15:28:40.000Z</time>
      </trkpt>
      <trkpt lat="44.99727" lon="5.69848">
        <ele>626.914222</ele>
        <time>2025-07-10T15:28:41.000Z</time>
      </trkpt>
      <trkpt lat="44.99737" lon="5.69856">
        <ele>625.874177</ele>
        <time>2025-07-10T15:28:42.000Z</time>
      </trkpt>
      <trkpt lat="44.99748" lon="5.69864">
        <ele>624.83332</ele>
        <time>2025-07-10T15:28:43.000Z</time>
      </trkpt>
      <trkpt lat="44.99758" lon="5.69872">
        <ele>623.804574</ele>
        <time>2025-07-10T15:28:44.000Z</time>
      </trkpt>
      <trkpt lat="44.99768" lon="5.6988">
        <ele>622.81375</ele>
        <time>2025-07-10T15:28:45.000Z</time>
      </trkpt>
      <trkpt lat="44.99778" lon="5.69889">
        <ele>621.800772</ele>
        <time>2025-07-10T15:28:46.000Z</time>
      </trkpt>
      <trkpt lat="44.99788" lon="5.69898">
        <ele>620.791821</ele>
        <time>2025-07-10T15:28:47.000Z</time>
      </trkpt>
      <trkpt lat="44.99798" lon="5.69907">
        <ele>619.7715</ele>
        <time>2025-07-10T15:28:48.000Z</time>
      </trkpt>
      <trkpt lat="44.99808" lon="5.69915">
        <ele>618.760767</ele>
        <time>2025-07-10T15:28:49.000Z</time>
      </trkpt>
      <trkpt lat="44.99818" lon="5.69924">
        <ele>617.815615</ele>
        <time>2025-07-10T15:28:50.000Z</time>
      </trkpt>
      <trkpt lat="44.99829" lon="5.69932">
        <ele>616.94478</ele>
        <time>2025-07-10T15:28:51.000Z</time>
      </trkpt>
      <trkpt lat="44.9984" lon="5.6994">
        <ele>616.042383</ele>
        <time>2025-07-10T15:28:52.000Z</time>
      </trkpt>
      <trkpt lat="44.99851" lon="5.69946">
        <ele>615.189491</ele>
        <time>2025-07-10T15:28:53.000Z</time>
      </trkpt>
      <trkpt lat="44.99863" lon="5.6995">
        <ele>614.300996</ele>
        <time>2025-07-10T15:28:54.000Z</time>
      </trkpt>
      <trkpt lat="44.99875" lon="5.69954">
        <ele>613.425572</ele>
        <time>2025-07-10T15:28:55.000Z</time>
      </trkpt>
      <trkpt lat="44.99888" lon="5.69957">
        <ele>612.5259</ele>
        <time>2025-07-10T15:28:56.000Z</time>
      </trkpt>
      <trkpt lat="44.99901" lon="5.69957">
        <ele>611.625321</ele>
        <time>2025-07-10T15:28:57.000Z</time>
      </trkpt>
      <trkpt lat="44.99914" lon="5.69957">
        <ele>610.710545</ele>
        <time>2025-07-10T15:28:58.000Z</time>
      </trkpt>
      <trkpt lat="44.99926" lon="5.69955">
        <ele>609.835094</ele>
        <time>2025-07-10T15:28:59.000Z</time>
      </trkpt>
      <trkpt lat="44.99938" lon="5.69953">
        <ele>608.968663</ele>
        <time>2025-07-10T15:29:00.000Z</time>
      </trkpt>
      <trkpt lat="44.9995" lon="5.6995">
        <ele>608.102726</ele>
        <time>2025-07-10T15:29:01.000Z</time>
      </trkpt>
      <trkpt lat="44.99962" lon="5.69947">
        <ele>607.228568</ele>
        <time>2025-07-10T15:29:02.000Z</time>
      </trkpt>
      <trkpt lat="44.99974" lon="5.69941">
        <ele>606.359355</ele>
        <time>2025-07-10T15:29:03.000Z</time>
      </trkpt>
      <trkpt lat="44.99985" lon="5.69934">
        <ele>605.492403</ele>
        <time>2025-07-10T15:29:04.000Z</time>
      </trkpt>
      <trkpt lat="44.99997" lon="5.69928">
        <ele>604.554943</ele>
        <time>2025-07-10T15:29:05.000Z</time>
      </trkpt>
      <trkpt lat="45.00008" lon="5.69923">
        <ele>603.617389</ele>
        <time>2025-07-10T15:29:06.000Z</time>
      </trkpt>
      <trkpt lat="45.00021" lon="5.69919">
        <ele>602.644062</ele>
        <time>2025-07-10T15:29:07.000Z</time>
      </trkpt>
      <trkpt lat="45.00033" lon="5.69917">
        <ele>601.714528</ele>
        <time>2025-07-10T15:29:08.000Z</time>
      </trkpt>
      <trkpt lat="45.00046" lon="5.69917">
        <ele>600.793144</ele>
        <time>2025-07-10T15:29:09.000Z</time>
      </trkpt>
      <trkpt lat="45.00058" lon="5.69919">
        <ele>599.875809</ele>
        <time>2025-07-10T15:29:10.000Z</time>
      </trkpt>
      <trkpt lat="45.0007" lon="5.6992">
        <ele>598.972508</ele>
        <time>2025-07-10T15:29:11.000Z</time>
      </trkpt>
      <trkpt lat="45.00081" lon="5.69923">
        <ele>598.075418</ele>
        <time>2025-07-10T15:29:12.000Z</time>
      </trkpt>
      <trkpt lat="45.00092" lon="5.69926">
        <ele>597.218237</ele>
        <time>2025-07-10T15:29:13.000Z</time>
      </trkpt>
      <trkpt lat="45.00104" lon="5.69929">
        <ele>596.343455</ele>
        <time>2025-07-10T15:29:14.000Z</time>
      </trkpt>
      <trkpt lat="45.00115" lon="5.69931">
        <ele>595.490193</ele>
        <time>2025-07-10T15:29:15.000Z</time>
      </trkpt>
      <trkpt lat="45.00127" lon="5.69932">
        <ele>594.620346</ele>
        <time>2025-07-10T15:29:16.000Z</time>
      </trkpt>
      <trkpt lat="45.00138" lon="5.6993">
        <ele>593.756141</ele>
        <time>2025-07-10T15:29:17.000Z</time>
      </trkpt>
      <trkpt lat="45.00149" lon="5.69929">
        <ele>592.891458</ele>
        <time>2025-07-10T15:29:18.000Z</time>
      </trkpt>
      <trkpt lat="45.00161" lon="5.69928">
        <ele>592.036376</ele>
        <time>2025-07-10T15:29:19.000Z</time>
      </trkpt>
      <trkpt lat="45.00172" lon="5.69927">
        <ele>591.177705</ele>
        <time>2025-07-10T15:29:20.000Z</time>
      </trkpt>
      <trkpt lat="45.00183" lon="5.69926">
        <ele>590.321794</ele>
        <time>2025-07-10T15:29:21.000Z</time>
      </trkpt>
      <trkpt lat="45.00194" lon="5.69927">
        <ele>589.450536</ele>
        <time>2025-07-10T15:29:22.000Z</time>
      </trkpt>
      <trkpt lat="45.00205" lon="5.69929">
        <ele>588.571351</ele>
        <time>2025-07-10T15:29:23.000Z</time>
      </trkpt>
      <trkpt lat="45.00216" lon="5.69931">
        <ele>587.697426</ele>
        <time>2025-07-10T15:29:24.000Z</time>
      </trkpt>
      <trkpt lat="45.00227" lon="5.69935">
        <ele>586.864934</ele>
        <time>2025-07-10T15:29:25.000Z</time>
      </trkpt>
      <trkpt lat="45.00237" lon="5.69939">
        <ele>586.025482</ele>
        <time>2025-07-10T15:29:26.000Z</time>
      </trkpt>
      <trkpt lat="45.00247" lon="5.69943">
        <ele>585.186031</ele>
        <time>2025-07-10T15:29:27.000Z</time>
      </trkpt>
      <trkpt lat="45.00258" lon="5.69948">
        <ele>584.318949</ele>
        <time>2025-07-10T15:29:28.000Z</time>
      </trkpt>
      <trkpt lat="45.00268" lon="5.69954">
        <ele>583.458431</ele>
        <time>2025-07-10T15:29:29.000Z</time>
      </trkpt>
      <trkpt lat="45.00276" lon="5.69963">
        <ele>582.651393</ele>
        <time>2025-07-10T15:29:30.000Z</time>
      </trkpt>
      <trkpt lat="45.00284" lon="5.69973">
        <ele>581.815403</ele>
        <time>2025-07-10T15:29:31.000Z</time>
      </trkpt>
      <trkpt lat="45.00291" lon="5.69986">
        <ele>580.961357</ele>
        <time>2025-07-10T15:29:32.000Z</time>
      </trkpt>
      <trkpt lat="45.00298" lon="5.69998">
        <ele>580.103693</ele>
        <time>2025-07-10T15:29:33.000Z</time>
      </trkpt>
      <trkpt lat="45.00304" lon="5.70011">
        <ele>579.241778</ele>
        <time>2025-07-10T15:29:34.000Z</time>
      </trkpt>
      <trkpt lat="45.00311" lon="5.70024">
        <ele>578.379916</ele>
        <time>2025-07-10T15:29:35.000Z</time>
      </trkpt>
      <trkpt lat="45.00317" lon="5.70037">
        <ele>577.660649</ele>
        <time>2025-07-10T15:29:36.000Z</time>
      </trkpt>
      <trkpt lat="45.00322" lon="5.70049">
        <ele>577.180086</ele>
        <time>2025-07-10T15:29:37.000Z</time>
      </trkpt>
      <trkpt lat="45.00327" lon="5.70063">
        <ele>576.69442</ele>
        <time>2025-07-10T15:29:38.000Z</time>
      </trkpt>
      <trkpt lat="45.0033" lon="5.70078">
        <ele>576.216548</ele>
        <time>2025-07-10T15:29:39.000Z</time>
      </trkpt>
      <trkpt lat="45.00333" lon="5.70092">
        <ele>575.736591</ele>
        <time>2025-07-10T15:29:40.000Z</time>
      </trkpt>
      <trkpt lat="45.00337" lon="5.70106">
        <ele>575.260317</ele>
        <time>2025-07-10T15:29:41.000Z</time>
      </trkpt>
      <trkpt lat="45.00342" lon="5.70119">
        <ele>574.798532</ele>
        <time>2025-07-10T15:29:42.000Z</time>
      </trkpt>
      <trkpt lat="45.00348" lon="5.70131">
        <ele>574.328598</ele>
        <time>2025-07-10T15:29:43.000Z</time>
      </trkpt>
      <trkpt lat="45.00356" lon="5.7014">
        <ele>573.867743</ele>
        <time>2025-07-10T15:29:44.000Z</time>
      </trkpt>
      <trkpt lat="45.00366" lon="5.70146">
        <ele>573.388156</ele>
        <time>2025-07-10T15:29:45.000Z</time>
      </trkpt>
      <trkpt lat="45.00376" lon="5.7015">
        <ele>572.896048</ele>
        <time>2025-07-10T15:29:46.000Z</time>
      </trkpt>
      <trkpt lat="45.00386" lon="5.70152">
        <ele>572.433806</ele>
        <time>2025-07-10T15:29:47.000Z</time>
      </trkpt>
      <trkpt lat="45.00396" lon="5.70153">
        <ele>571.992932</ele>
        <time>2025-07-10T15:29:48.000Z</time>
      </trkpt>
      <trkpt lat="45.00406" lon="5.70153">
        <ele>571.561184</ele>
        <time>2025-07-10T15:29:49.000Z</time>
      </trkpt>
      <trkpt lat="45.00416" lon="5.70153">
        <ele>571.11597</ele>
        <time>2025-07-10T15:29:50.000Z</time>
      </trkpt>
      <trkpt lat="45.00425" lon="5.70151">
        <ele>570.686826</ele>
        <time>2025-07-10T15:29:51.000Z</time>
      </trkpt>
      <trkpt lat="45.00434" lon="5.70148">
        <ele>570.276475</ele>
        <time>2025-07-10T15:29:52.000Z</time>
      </trkpt>
      <trkpt lat="45.00443" lon="5.70144">
        <ele>569.874012</ele>
        <time>2025-07-10T15:29:53.000Z</time>
      </trkpt>
      <trkpt lat="45.00451" lon="5.70139">
        <ele>569.436811</ele>
        <time>2025-07-10T15:29:54.000Z</time>
      </trkpt>
      <trkpt lat="45.00459" lon="5.70133">
        <ele>568.975823</ele>
        <time>2025-07-10T15:29:55.000Z</time>
      </trkpt>
      <trkpt lat="45.00467" lon="5.70127">
        <ele>568.544061</ele>
        <time>2025-07-10T15:29:56.000Z</time>
      </trkpt>
      <trkpt lat="45.00475" lon="5.70122">
        <ele>568.126937</ele>
        <time>2025-07-10T15:29:57.000Z</time>
      </trkpt>
      <trkpt lat="45.00482" lon="5.70116">
        <ele>567.712915</ele>
        <time>2025-07-10T15:29:58.000Z</time>
      </trkpt>
      <trkpt lat="45.0049" lon="5.70111">
        <ele>567.289866</ele>
        <time>2025-07-10T15:29:59.000Z</time>
      </trkpt>
      <trkpt lat="45.00498" lon="5.70105">
        <ele>566.874809</ele>
        <time>2025-07-10T15:30:00.000Z</time>
      </trkpt>
      <trkpt lat="45.00505" lon="5.70099">
        <ele>566.454493</ele>
        <time>2025-07-10T15:30:01.000Z</time>
      </trkpt>
      <trkpt lat="45.00513" lon="5.70094">
        <ele>566.022732</ele>
        <time>2025-07-10T15:30:02.000Z</time>
      </trkpt>
      <trkpt lat="45.00521" lon="5.70089">
        <ele>565.590914</ele>
        <time>2025-07-10T15:30:03.000Z</time>
      </trkpt>
      <trkpt lat="45.0053" lon="5.70084">
        <ele>565.155597</ele>
        <time>2025-07-10T15:30:04.000Z</time>
      </trkpt>
      <trkpt lat="45.00538" lon="5.70082">
        <ele>564.714152</ele>
        <time>2025-07-10T15:30:05.000Z</time>
      </trkpt>
      <trkpt lat="45.00547" lon="5.70081">
        <ele>564.277326</ele>
        <time>2025-07-10T15:30:06.000Z</time>
      </trkpt>
      <trkpt lat="45.00556" lon="5.70081">
        <ele>563.837531</ele>
        <time>2025-07-10T15:30:07.000Z</time>
      </trkpt>
      <trkpt lat="45.00565" lon="5.70082">
        <ele>563.392248</ele>
        <time>2025-07-10T15:30:08.000Z</time>
      </trkpt>
      <trkpt lat="45.00575" lon="5.70082">
        <ele>562.947286</ele>
        <time>2025-07-10T15:30:09.000Z</time>
      </trkpt>
      <trkpt lat="45.00584" lon="5.70082">
        <ele>562.497561</ele>
        <time>2025-07-10T15:30:10.000Z</time>
      </trkpt>
      <trkpt lat="45.00593" lon="5.70083">
        <ele>562.052452</ele>
        <time>2025-07-10T15:30:11.000Z</time>
      </trkpt>
      <trkpt lat="45.00602" lon="5.70083">
        <ele>561.607705</ele>
        <time>2025-07-10T15:30:12.000Z</time>
      </trkpt>
      <trkpt lat="45.00611" lon="5.70084">
        <ele>561.167626</ele>
        <time>2025-07-10T15:30:13.000Z</time>
      </trkpt>
      <trkpt lat="45.0062" lon="5.70084">
        <ele>560.651192</ele>
        <time>2025-07-10T15:30:14.000Z</time>
      </trkpt>
      <trkpt lat="45.00629" lon="5.70083">
        <ele>560.06566</ele>
        <time>2025-07-10T15:30:15.000Z</time>
      </trkpt>
      <trkpt lat="45.00638" lon="5.70082">
        <ele>559.493302</ele>
        <time>2025-07-10T15:30:16.000Z</time>
      </trkpt>
      <trkpt lat="45.00647" lon="5.70081">
        <ele>558.913119</ele>
        <time>2025-07-10T15:30:17.000Z</time>
      </trkpt>
      <trkpt lat="45.00656" lon="5.7008">
        <ele>558.331131</ele>
        <time>2025-07-10T15:30:18.000Z</time>
      </trkpt>
      <trkpt lat="45.00666" lon="5.70078">
        <ele>557.73914</ele>
        <time>2025-07-10T15:30:19.000Z</time>
      </trkpt>
      <trkpt lat="45.00675" lon="5.70075">
        <ele>557.138606</ele>
        <time>2025-07-10T15:30:20.000Z</time>
      </trkpt>
      <trkpt lat="45.00684" lon="5.70072">
        <ele>556.539839</ele>
        <time>2025-07-10T15:30:21.000Z</time>
      </trkpt>
      <trkpt lat="45.00693" lon="5.70069">
        <ele>555.93579</ele>
        <time>2025-07-10T15:30:22.000Z</time>
      </trkpt>
      <trkpt lat="45.00702" lon="5.70064">
        <ele>555.347328</ele>
        <time>2025-07-10T15:30:23.000Z</time>
      </trkpt>
      <trkpt lat="45.00711" lon="5.7006">
        <ele>554.758865</ele>
        <time>2025-07-10T15:30:24.000Z</time>
      </trkpt>
      <trkpt lat="45.0072" lon="5.70056">
        <ele>554.170298</ele>
        <time>2025-07-10T15:30:25.000Z</time>
      </trkpt>
      <trkpt lat="45.00728" lon="5.70052">
        <ele>553.588367</ele>
        <time>2025-07-10T15:30:26.000Z</time>
      </trkpt>
      <trkpt lat="45.00737" lon="5.70049">
        <ele>553.012271</ele>
        <time>2025-07-10T15:30:27.000Z</time>
      </trkpt>
      <trkpt lat="45.00746" lon="5.70046">
        <ele>552.428743</ele>
        <time>2025-07-10T15:30:28.000Z</time>
      </trkpt>
      <trkpt lat="45.00755" lon="5.70045">
        <ele>551.85824</ele>
        <time>2025-07-10T15:30:29.000Z</time>
      </trkpt>
      <trkpt lat="45.00765" lon="5.70044">
        <ele>551.253936</ele>
        <time>2025-07-10T15:30:30.000Z</time>
      </trkpt>
      <trkpt lat="45.00774" lon="5.70043">
        <ele>550.662064</ele>
        <time>2025-07-10T15:30:31.000Z</time>
      </trkpt>
      <trkpt lat="45.00783" lon="5.70042">
        <ele>550.056909</ele>
        <time>2025-07-10T15:30:32.000Z</time>
      </trkpt>
      <trkpt lat="45.00793" lon="5.70041">
        <ele>549.457324</ele>
        <time>2025-07-10T15:30:33.000Z</time>
      </trkpt>
      <trkpt lat="45.00803" lon="5.70041">
        <ele>548.923296</ele>
        <time>2025-07-10T15:30:34.000Z</time>
      </trkpt>
      <trkpt lat="45.00812" lon="5.70041">
        <ele>548.395516</ele>
        <time>2025-07-10T15:30:35.000Z</time>
      </trkpt>
      <trkpt lat="45.00822" lon="5.7004">
        <ele>547.867518</ele>
        <time>2025-07-10T15:30:36.000Z</time>
      </trkpt>
      <trkpt lat="45.00831" lon="5.7004">
        <ele>547.339227</ele>
        <time>2025-07-10T15:30:37.000Z</time>
      </trkpt>
      <trkpt lat="45.0084" lon="5.70039">
        <ele>546.816294</ele>
        <time>2025-07-10T15:30:38.000Z</time>
      </trkpt>
      <trkpt lat="45.0085" lon="5.70039">
        <ele>546.310614</ele>
        <time>2025-07-10T15:30:39.000Z</time>
      </trkpt>
      <trkpt lat="45.00859" lon="5.70038">
        <ele>545.799379</ele>
        <time>2025-07-10T15:30:40.000Z</time>
      </trkpt>
      <trkpt lat="45.00868" lon="5.70038">
        <ele>545.29933</ele>
        <time>2025-07-10T15:30:41.000Z</time>
      </trkpt>
      <trkpt lat="45.00876" lon="5.70037">
        <ele>544.825488</ele>
        <time>2025-07-10T15:30:42.000Z</time>
      </trkpt>
      <trkpt lat="45.00885" lon="5.70036">
        <ele>544.352478</ele>
        <time>2025-07-10T15:30:43.000Z</time>
      </trkpt>
      <trkpt lat="45.00893" lon="5.70036">
        <ele>543.879859</ele>
        <time>2025-07-10T15:30:44.000Z</time>
      </trkpt>
      <trkpt lat="45.00902" lon="5.70036">
        <ele>543.401835</ele>
        <time>2025-07-10T15:30:45.000Z</time>
      </trkpt>
      <trkpt lat="45.0091" lon="5.70035">
        <ele>542.922457</ele>
        <time>2025-07-10T15:30:46.000Z</time>
      </trkpt>
      <trkpt lat="45.00919" lon="5.70033">
        <ele>542.448274</ele>
        <time>2025-07-10T15:30:47.000Z</time>
      </trkpt>
      <trkpt lat="45.00928" lon="5.70033">
        <ele>541.963661</ele>
        <time>2025-07-10T15:30:48.000Z</time>
      </trkpt>
      <trkpt lat="45.00936" lon="5.70032">
        <ele>541.484589</ele>
        <time>2025-07-10T15:30:49.000Z</time>
      </trkpt>
      <trkpt lat="45.00945" lon="5.70031">
        <ele>540.999977</ele>
        <time>2025-07-10T15:30:50.000Z</time>
      </trkpt>
      <trkpt lat="45.00954" lon="5.7003">
        <ele>540.515062</ele>
        <time>2025-07-10T15:30:51.000Z</time>
      </trkpt>
      <trkpt lat="45.00962" lon="5.70029">
        <ele>540.03072</ele>
        <time>2025-07-10T15:30:52.000Z</time>
      </trkpt>
      <trkpt lat="45.00971" lon="5.70028">
        <ele>539.535424</ele>
        <time>2025-07-10T15:30:53.000Z</time>
      </trkpt>
      <trkpt lat="45.0098" lon="5.70027">
        <ele>539.053109</ele>
        <time>2025-07-10T15:30:54.000Z</time>
      </trkpt>
      <trkpt lat="45.00989" lon="5.70027">
        <ele>538.571228</ele>
        <time>2025-07-10T15:30:55.000Z</time>
      </trkpt>
      <trkpt lat="45.00998" lon="5.70026">
        <ele>538.09481</ele>
        <time>2025-07-10T15:30:56.000Z</time>
      </trkpt>
      <trkpt lat="45.01006" lon="5.70026">
        <ele>537.608003</ele>
        <time>2025-07-10T15:30:57.000Z</time>
      </trkpt>
      <trkpt lat="45.01015" lon="5.70028">
        <ele>537.144412</ele>
        <time>2025-07-10T15:30:58.000Z</time>
      </trkpt>
      <trkpt lat="45.01024" lon="5.70031">
        <ele>536.652734</ele>
        <time>2025-07-10T15:30:59.000Z</time>
      </trkpt>
      <trkpt lat="45.01032" lon="5.70036">
        <ele>536.157215</ele>
        <time>2025-07-10T15:31:00.000Z</time>
      </trkpt>
      <trkpt lat="45.0104" lon="5.70041">
        <ele>535.678778</ele>
        <time>2025-07-10T15:31:01.000Z</time>
      </trkpt>
      <trkpt lat="45.01048" lon="5.70047">
        <ele>535.183943</ele>
        <time>2025-07-10T15:31:02.000Z</time>
      </trkpt>
      <trkpt lat="45.01056" lon="5.70053">
        <ele>534.683133</ele>
        <time>2025-07-10T15:31:03.000Z</time>
      </trkpt>
      <trkpt lat="45.01063" lon="5.7006">
        <ele>534.191263</ele>
        <time>2025-07-10T15:31:04.000Z</time>
      </trkpt>
      <trkpt lat="45.01071" lon="5.70068">
        <ele>533.702279</ele>
        <time>2025-07-10T15:31:05.000Z</time>
      </trkpt>
      <trkpt lat="45.01078" lon="5.70075">
        <ele>533.217598</ele>
        <time>2025-07-10T15:31:06.000Z</time>
      </trkpt>
      <trkpt lat="45.01085" lon="5.70083">
        <ele>532.745963</ele>
        <time>2025-07-10T15:31:07.000Z</time>
      </trkpt>
      <trkpt lat="45.01091" lon="5.7009">
        <ele>532.27194</ele>
        <time>2025-07-10T15:31:08.000Z</time>
      </trkpt>
      <trkpt lat="45.01098" lon="5.70098">
        <ele>531.819816</ele>
        <time>2025-07-10T15:31:09.000Z</time>
      </trkpt>
      <trkpt lat="45.01104" lon="5.70105">
        <ele>531.354327</ele>
        <time>2025-07-10T15:31:10.000Z</time>
      </trkpt>
      <trkpt lat="45.01111" lon="5.70113">
        <ele>530.893068</ele>
        <time>2025-07-10T15:31:11.000Z</time>
      </trkpt>
      <trkpt lat="45.01117" lon="5.70121">
        <ele>530.436652</ele>
        <time>2025-07-10T15:31:12.000Z</time>
      </trkpt>
      <trkpt lat="45.01123" lon="5.70129">
        <ele>529.988125</ele>
        <time>2025-07-10T15:31:13.000Z</time>
      </trkpt>
      <trkpt lat="45.01129" lon="5.70137">
        <ele>529.575087</ele>
        <time>2025-07-10T15:31:14.000Z</time>
      </trkpt>
      <trkpt lat="45.01135" lon="5.70144">
        <ele>529.231706</ele>
        <time>2025-07-10T15:31:15.000Z</time>
      </trkpt>
      <trkpt lat="45.01141" lon="5.70152">
        <ele>528.881902</ele>
        <time>2025-07-10T15:31:16.000Z</time>
      </trkpt>
      <trkpt lat="45.01147" lon="5.70159">
        <ele>528.534871</ele>
        <time>2025-07-10T15:31:17.000Z</time>
      </trkpt>
      <trkpt lat="45.01153" lon="5.70166">
        <ele>528.190688</ele>
        <time>2025-07-10T15:31:18.000Z</time>
      </trkpt>
      <trkpt lat="45.01159" lon="5.70173">
        <ele>527.846696</ele>
        <time>2025-07-10T15:31:19.000Z</time>
      </trkpt>
      <trkpt lat="45.01166" lon="5.70179">
        <ele>527.509793</ele>
        <time>2025-07-10T15:31:20.000Z</time>
      </trkpt>
      <trkpt lat="45.01172" lon="5.70185">
        <ele>527.17436</ele>
        <time>2025-07-10T15:31:21.000Z</time>
      </trkpt>
      <trkpt lat="45.01179" lon="5.70191">
        <ele>526.840577</ele>
        <time>2025-07-10T15:31:22.000Z</time>
      </trkpt>
      <trkpt lat="45.01185" lon="5.70196">
        <ele>526.506793</ele>
        <time>2025-07-10T15:31:23.000Z</time>
      </trkpt>
      <trkpt lat="45.01192" lon="5.70202">
        <ele>526.168796</ele>
        <time>2025-07-10T15:31:24.000Z</time>
      </trkpt>
      <trkpt lat="45.01199" lon="5.70207">
        <ele>525.833882</ele>
        <time>2025-07-10T15:31:25.000Z</time>
      </trkpt>
      <trkpt lat="45.01206" lon="5.70213">
        <ele>525.490485</ele>
        <time>2025-07-10T15:31:26.000Z</time>
      </trkpt>
      <trkpt lat="45.01213" lon="5.70218">
        <ele>525.139547</ele>
        <time>2025-07-10T15:31:27.000Z</time>
      </trkpt>
      <trkpt lat="45.01221" lon="5.70222">
        <ele>524.791424</ele>
        <time>2025-07-10T15:31:28.000Z</time>
      </trkpt>
      <trkpt lat="45.01228" lon="5.70224">
        <ele>524.442661</ele>
        <time>2025-07-10T15:31:29.000Z</time>
      </trkpt>
      <trkpt lat="45.01236" lon="5.70226">
        <ele>524.088606</ele>
        <time>2025-07-10T15:31:30.000Z</time>
      </trkpt>
      <trkpt lat="45.01244" lon="5.70225">
        <ele>523.740814</ele>
        <time>2025-07-10T15:31:31.000Z</time>
      </trkpt>
      <trkpt lat="45.01252" lon="5.70223">
        <ele>523.386855</ele>
        <time>2025-07-10T15:31:32.000Z</time>
      </trkpt>
      <trkpt lat="45.0126" lon="5.70219">
        <ele>523.027308</ele>
        <time>2025-07-10T15:31:33.000Z</time>
      </trkpt>
      <trkpt lat="45.01268" lon="5.70216">
        <ele>522.669012</ele>
        <time>2025-07-10T15:31:34.000Z</time>
      </trkpt>
      <trkpt lat="45.01276" lon="5.70212">
        <ele>522.310715</ele>
        <time>2025-07-10T15:31:35.000Z</time>
      </trkpt>
      <trkpt lat="45.01284" lon="5.70208">
        <ele>521.959585</ele>
        <time>2025-07-10T15:31:36.000Z</time>
      </trkpt>
      <trkpt lat="45.01292" lon="5.70204">
        <ele>521.628069</ele>
        <time>2025-07-10T15:31:37.000Z</time>
      </trkpt>
      <trkpt lat="45.01299" lon="5.702">
        <ele>521.310522</ele>
        <time>2025-07-10T15:31:38.000Z</time>
      </trkpt>
      <trkpt lat="45.01308" lon="5.70197">
        <ele>520.990173</ele>
        <time>2025-07-10T15:31:39.000Z</time>
      </trkpt>
      <trkpt lat="45.01316" lon="5.70195">
        <ele>520.665499</ele>
        <time>2025-07-10T15:31:40.000Z</time>
      </trkpt>
      <trkpt lat="45.01324" lon="5.70192">
        <ele>520.343384</ele>
        <time>2025-07-10T15:31:41.000Z</time>
      </trkpt>
      <trkpt lat="45.01332" lon="5.70189">
        <ele>520.027417</ele>
        <time>2025-07-10T15:31:42.000Z</time>
      </trkpt>
      <trkpt lat="45.0134" lon="5.70186">
        <ele>519.704032</ele>
        <time>2025-07-10T15:31:43.000Z</time>
      </trkpt>
      <trkpt lat="45.01349" lon="5.70184">
        <ele>519.381903</ele>
        <time>2025-07-10T15:31:44.000Z</time>
      </trkpt>
      <trkpt lat="45.01357" lon="5.70184">
        <ele>519.064337</ele>
        <time>2025-07-10T15:31:45.000Z</time>
      </trkpt>
      <trkpt lat="45.01365" lon="5.70188">
        <ele>518.736975</ele>
        <time>2025-07-10T15:31:46.000Z</time>
      </trkpt>
      <trkpt lat="45.01371" lon="5.70196">
        <ele>518.421314</ele>
        <time>2025-07-10T15:31:47.000Z</time>
      </trkpt>
      <trkpt lat="45.01376" lon="5.70206">
        <ele>518.096621</ele>
        <time>2025-07-10T15:31:48.000Z</time>
      </trkpt>
      <trkpt lat="45.01379" lon="5.70216">
        <ele>517.785287</ele>
        <time>2025-07-10T15:31:49.000Z</time>
      </trkpt>
      <trkpt lat="45.01381" lon="5.70228">
        <ele>517.47376</ele>
        <time>2025-07-10T15:31:50.000Z</time>
      </trkpt>
      <trkpt lat="45.01383" lon="5.70239">
        <ele>517.162787</ele>
        <time>2025-07-10T15:31:51.000Z</time>
      </trkpt>
      <trkpt lat="45.01383" lon="5.7025">
        <ele>516.856294</ele>
        <time>2025-07-10T15:31:52.000Z</time>
      </trkpt>
      <trkpt lat="45.01384" lon="5.70261">
        <ele>516.552499</ele>
        <time>2025-07-10T15:31:53.000Z</time>
      </trkpt>
      <trkpt lat="45.01385" lon="5.70273">
        <ele>516.242246</ele>
        <time>2025-07-10T15:31:54.000Z</time>
      </trkpt>
      <trkpt lat="45.01386" lon="5.70284">
        <ele>515.935263</ele>
        <time>2025-07-10T15:31:55.000Z</time>
      </trkpt>
      <trkpt lat="45.01387" lon="5.70295">
        <ele>515.630385</ele>
        <time>2025-07-10T15:31:56.000Z</time>
      </trkpt>
      <trkpt lat="45.0139" lon="5.70305">
        <ele>515.330091</ele>
        <time>2025-07-10T15:31:57.000Z</time>
      </trkpt>
      <trkpt lat="45.01395" lon="5.70314">
        <ele>515.020418</ele>
        <time>2025-07-10T15:31:58.000Z</time>
      </trkpt>
      <trkpt lat="45.01401" lon="5.70322">
        <ele>514.798851</ele>
        <time>2025-07-10T15:31:59.000Z</time>
      </trkpt>
      <trkpt lat="45.01406" lon="5.7033">
        <ele>514.579796</ele>
        <time>2025-07-10T15:32:00.000Z</time>
      </trkpt>
      <trkpt lat="45.01412" lon="5.70337">
        <ele>514.360747</ele>
        <time>2025-07-10T15:32:01.000Z</time>
      </trkpt>
      <trkpt lat="45.01419" lon="5.70343">
        <ele>514.142072</ele>
        <time>2025-07-10T15:32:02.000Z</time>
      </trkpt>
      <trkpt lat="45.01425" lon="5.70349">
        <ele>513.931391</ele>
        <time>2025-07-10T15:32:03.000Z</time>
      </trkpt>
      <trkpt lat="45.01431" lon="5.70355">
        <ele>513.720711</ele>
        <time>2025-07-10T15:32:04.000Z</time>
      </trkpt>
      <trkpt lat="45.01438" lon="5.70361">
        <ele>513.50771</ele>
        <time>2025-07-10T15:32:05.000Z</time>
      </trkpt>
      <trkpt lat="45.01444" lon="5.70367">
        <ele>513.299339</ele>
        <time>2025-07-10T15:32:06.000Z</time>
      </trkpt>
      <trkpt lat="45.0145" lon="5.70373">
        <ele>513.092093</ele>
        <time>2025-07-10T15:32:07.000Z</time>
      </trkpt>
      <trkpt lat="45.01456" lon="5.70379">
        <ele>512.884867</ele>
        <time>2025-07-10T15:32:08.000Z</time>
      </trkpt>
      <trkpt lat="45.01462" lon="5.70385">
        <ele>512.673044</ele>
        <time>2025-07-10T15:32:09.000Z</time>
      </trkpt>
      <trkpt lat="45.01468" lon="5.70392">
        <ele>512.462641</ele>
        <time>2025-07-10T15:32:10.000Z</time>
      </trkpt>
      <trkpt lat="45.01473" lon="5.70399">
        <ele>512.252473</ele>
        <time>2025-07-10T15:32:11.000Z</time>
      </trkpt>
      <trkpt lat="45.01478" lon="5.70407">
        <ele>512.046638</ele>
        <time>2025-07-10T15:32:12.000Z</time>
      </trkpt>
      <trkpt lat="45.01483" lon="5.70415">
        <ele>511.839757</ele>
        <time>2025-07-10T15:32:13.000Z</time>
      </trkpt>
      <trkpt lat="45.01488" lon="5.70422">
        <ele>511.634859</ele>
        <time>2025-07-10T15:32:14.000Z</time>
      </trkpt>
      <trkpt lat="45.01493" lon="5.70429">
        <ele>511.434185</ele>
        <time>2025-07-10T15:32:15.000Z</time>
      </trkpt>
      <trkpt lat="45.01499" lon="5.70435">
        <ele>511.240698</ele>
        <time>2025-07-10T15:32:16.000Z</time>
      </trkpt>
      <trkpt lat="45.01505" lon="5.70439">
        <ele>511.049299</ele>
        <time>2025-07-10T15:32:17.000Z</time>
      </trkpt>
      <trkpt lat="45.01511" lon="5.70442">
        <ele>510.856278</ele>
        <time>2025-07-10T15:32:18.000Z</time>
      </trkpt>
      <trkpt lat="45.01518" lon="5.70444">
        <ele>510.664235</ele>
        <time>2025-07-10T15:32:19.000Z</time>
      </trkpt>
      <trkpt lat="45.01525" lon="5.70445">
        <ele>510.469899</ele>
        <time>2025-07-10T15:32:20.000Z</time>
      </trkpt>
      <trkpt lat="45.01532" lon="5.70445">
        <ele>510.279147</ele>
        <time>2025-07-10T15:32:21.000Z</time>
      </trkpt>
      <trkpt lat="45.01539" lon="5.70444">
        <ele>510.089981</ele>
        <time>2025-07-10T15:32:22.000Z</time>
      </trkpt>
      <trkpt lat="45.01545" lon="5.70442">
        <ele>509.927304</ele>
        <time>2025-07-10T15:32:23.000Z</time>
      </trkpt>
      <trkpt lat="45.01551" lon="5.7044">
        <ele>509.791736</ele>
        <time>2025-07-10T15:32:24.000Z</time>
      </trkpt>
      <trkpt lat="45.01557" lon="5.70437">
        <ele>509.655142</ele>
        <time>2025-07-10T15:32:25.000Z</time>
      </trkpt>
      <trkpt lat="45.01563" lon="5.70433">
        <ele>509.517872</ele>
        <time>2025-07-10T15:32:26.000Z</time>
      </trkpt>
      <trkpt lat="45.01569" lon="5.7043">
        <ele>509.383683</ele>
        <time>2025-07-10T15:32:27.000Z</time>
      </trkpt>
      <trkpt lat="45.01575" lon="5.70427">
        <ele>509.249577</ele>
        <time>2025-07-10T15:32:28.000Z</time>
      </trkpt>
      <trkpt lat="45.01581" lon="5.70424">
        <ele>509.119312</ele>
        <time>2025-07-10T15:32:29.000Z</time>
      </trkpt>
      <trkpt lat="45.01586" lon="5.7042">
        <ele>508.991571</ele>
        <time>2025-07-10T15:32:30.000Z</time>
      </trkpt>
      <trkpt lat="45.01592" lon="5.70417">
        <ele>508.858965</ele>
        <time>2025-07-10T15:32:31.000Z</time>
      </trkpt>
      <trkpt lat="45.01598" lon="5.70414">
        <ele>508.728128</ele>
        <time>2025-07-10T15:32:32.000Z</time>
      </trkpt>
      <trkpt lat="45.01603" lon="5.70411">
        <ele>508.598966</ele>
        <time>2025-07-10T15:32:33.000Z</time>
      </trkpt>
      <trkpt lat="45.01609" lon="5.70408">
        <ele>508.467293</ele>
        <time>2025-07-10T15:32:34.000Z</time>
      </trkpt>
      <trkpt lat="45.01615" lon="5.70404">
        <ele>508.333647</ele>
        <time>2025-07-10T15:32:35.000Z</time>
      </trkpt>
      <trkpt lat="45.01621" lon="5.70401">
        <ele>508.197053</ele>
        <time>2025-07-10T15:32:36.000Z</time>
      </trkpt>
      <trkpt lat="45.01627" lon="5.70399">
        <ele>508.060696</ele>
        <time>2025-07-10T15:32:37.000Z</time>
      </trkpt>
      <trkpt lat="45.01633" lon="5.70397">
        <ele>507.929599</ele>
        <time>2025-07-10T15:32:38.000Z</time>
      </trkpt>
      <trkpt lat="45.0164" lon="5.70395">
        <ele>507.794476</ele>
        <time>2025-07-10T15:32:39.000Z</time>
      </trkpt>
      <trkpt lat="45.01646" lon="5.70394">
        <ele>507.660902</ele>
        <time>2025-07-10T15:32:40.000Z</time>
      </trkpt>
      <trkpt lat="45.01652" lon="5.70392">
        <ele>507.525779</ele>
        <time>2025-07-10T15:32:41.000Z</time>
      </trkpt>
      <trkpt lat="45.01658" lon="5.70391">
        <ele>507.393957</ele>
        <time>2025-07-10T15:32:42.000Z</time>
      </trkpt>
      <trkpt lat="45.01665" lon="5.7039">
        <ele>507.26003</ele>
        <time>2025-07-10T15:32:43.000Z</time>
      </trkpt>
      <trkpt lat="45.01671" lon="5.7039">
        <ele>507.124369</ele>
        <time>2025-07-10T15:32:44.000Z</time>
      </trkpt>
      <trkpt lat="45.01677" lon="5.7039">
        <ele>506.991112</ele>
        <time>2025-07-10T15:32:45.000Z</time>
      </trkpt>
      <trkpt lat="45.01684" lon="5.70389">
        <ele>506.85997</ele>
        <time>2025-07-10T15:32:46.000Z</time>
      </trkpt>
      <trkpt lat="45.0169" lon="5.7039">
        <ele>506.7244</ele>
        <time>2025-07-10T15:32:47.000Z</time>
      </trkpt>
      <trkpt lat="45.01696" lon="5.70391">
        <ele>506.590315</ele>
        <time>2025-07-10T15:32:48.000Z</time>
      </trkpt>
      <trkpt lat="45.01703" lon="5.70392">
        <ele>506.453767</ele>
        <time>2025-07-10T15:32:49.000Z</time>
      </trkpt>
      <trkpt lat="45.01709" lon="5.70394">
        <ele>506.3199</ele>
        <time>2025-07-10T15:32:50.000Z</time>
      </trkpt>
      <trkpt lat="45.01715" lon="5.70396">
        <ele>506.185725</ele>
        <time>2025-07-10T15:32:51.000Z</time>
      </trkpt>
      <trkpt lat="45.01722" lon="5.70398">
        <ele>506.031174</ele>
        <time>2025-07-10T15:32:52.000Z</time>
      </trkpt>
      <trkpt lat="45.01728" lon="5.704">
        <ele>505.879469</ele>
        <time>2025-07-10T15:32:53.000Z</time>
      </trkpt>
      <trkpt lat="45.01734" lon="5.70404">
        <ele>505.723586</ele>
        <time>2025-07-10T15:32:54.000Z</time>
      </trkpt>
      <trkpt lat="45.0174" lon="5.70407">
        <ele>505.564261</ele>
        <time>2025-07-10T15:32:55.000Z</time>
      </trkpt>
      <trkpt lat="45.01746" lon="5.70411">
        <ele>505.412503</ele>
        <time>2025-07-10T15:32:56.000Z</time>
      </trkpt>
      <trkpt lat="45.01752" lon="5.70414">
        <ele>505.257176</ele>
        <time>2025-07-10T15:32:57.000Z</time>
      </trkpt>
      <trkpt lat="45.01757" lon="5.70419">
        <ele>505.102397</ele>
        <time>2025-07-10T15:32:58.000Z</time>
      </trkpt>
      <trkpt lat="45.01763" lon="5.70423">
        <ele>504.948408</ele>
        <time>2025-07-10T15:32:59.000Z</time>
      </trkpt>
      <trkpt lat="45.01769" lon="5.70427">
        <ele>504.793054</ele>
        <time>2025-07-10T15:33:00.000Z</time>
      </trkpt>
      <trkpt lat="45.01775" lon="5.70431">
        <ele>504.6377</ele>
        <time>2025-07-10T15:33:01.000Z</time>
      </trkpt>
      <trkpt lat="45.0178" lon="5.70435">
        <ele>504.483096</ele>
        <time>2025-07-10T15:33:02.000Z</time>
      </trkpt>
      <trkpt lat="45.01786" lon="5.70439">
        <ele>504.328492</ele>
        <time>2025-07-10T15:33:03.000Z</time>
      </trkpt>
      <trkpt lat="45.01792" lon="5.70443">
        <ele>504.170992</ele>
        <time>2025-07-10T15:33:04.000Z</time>
      </trkpt>
      <trkpt lat="45.01798" lon="5.70447">
        <ele>504.013491</ele>
        <time>2025-07-10T15:33:05.000Z</time>
      </trkpt>
      <trkpt lat="45.01804" lon="5.70451">
        <ele>503.85379</ele>
        <time>2025-07-10T15:33:06.000Z</time>
      </trkpt>
      <trkpt lat="45.0181" lon="5.70455">
        <ele>503.694865</ele>
        <time>2025-07-10T15:33:07.000Z</time>
      </trkpt>
      <trkpt lat="45.01816" lon="5.70459">
        <ele>503.543156</ele>
        <time>2025-07-10T15:33:08.000Z</time>
      </trkpt>
      <trkpt lat="45.01821" lon="5.70463">
        <ele>503.394198</ele>
        <time>2025-07-10T15:33:09.000Z</time>
      </trkpt>
      <trkpt lat="45.01827" lon="5.70467">
        <ele>503.245724</ele>
        <time>2025-07-10T15:33:10.000Z</time>
      </trkpt>
      <trkpt lat="45.01832" lon="5.70472">
        <ele>503.09494</ele>
        <time>2025-07-10T15:33:11.000Z</time>
      </trkpt>
      <trkpt lat="45.01837" lon="5.70477">
        <ele>502.942304</ele>
        <time>2025-07-10T15:33:12.000Z</time>
      </trkpt>
      <trkpt lat="45.01842" lon="5.70483">
        <ele>502.787617</ele>
        <time>2025-07-10T15:33:13.000Z</time>
      </trkpt>
      <trkpt lat="45.01847" lon="5.70489">
        <ele>502.63269</ele>
        <time>2025-07-10T15:33:14.000Z</time>
      </trkpt>
      <trkpt lat="45.01852" lon="5.70495">
        <ele>502.477413</ele>
        <time>2025-07-10T15:33:15.000Z</time>
      </trkpt>
      <trkpt lat="45.01857" lon="5.70501">
        <ele>502.321107</ele>
        <time>2025-07-10T15:33:16.000Z</time>
      </trkpt>
      <trkpt lat="45.01862" lon="5.70507">
        <ele>502.163592</ele>
        <time>2025-07-10T15:33:17.000Z</time>
      </trkpt>
      <trkpt lat="45.01867" lon="5.70514">
        <ele>502.006107</ele>
        <time>2025-07-10T15:33:18.000Z</time>
      </trkpt>
      <trkpt lat="45.01872" lon="5.7052">
        <ele>501.846725</ele>
        <time>2025-07-10T15:33:19.000Z</time>
      </trkpt>
      <trkpt lat="45.01877" lon="5.70526">
        <ele>501.674605</ele>
        <time>2025-07-10T15:33:20.000Z</time>
      </trkpt>
      <trkpt lat="45.01882" lon="5.70531">
        <ele>501.508315</ele>
        <time>2025-07-10T15:33:21.000Z</time>
      </trkpt>
      <trkpt lat="45.01887" lon="5.70536">
        <ele>501.338456</ele>
        <time>2025-07-10T15:33:22.000Z</time>
      </trkpt>
      <trkpt lat="45.01893" lon="5.7054">
        <ele>501.165354</ele>
        <time>2025-07-10T15:33:23.000Z</time>
      </trkpt>
      <trkpt lat="45.01899" lon="5.70544">
        <ele>500.99764</ele>
        <time>2025-07-10T15:33:24.000Z</time>
      </trkpt>
      <trkpt lat="45.01905" lon="5.70546">
        <ele>500.828665</ele>
        <time>2025-07-10T15:33:25.000Z</time>
      </trkpt>
      <trkpt lat="45.01912" lon="5.70547">
        <ele>500.649892</ele>
        <time>2025-07-10T15:33:26.000Z</time>
      </trkpt>
      <trkpt lat="45.01919" lon="5.70548">
        <ele>500.466717</ele>
        <time>2025-07-10T15:33:27.000Z</time>
      </trkpt>
      <trkpt lat="45.01925" lon="5.70549">
        <ele>500.283542</ele>
        <time>2025-07-10T15:33:28.000Z</time>
      </trkpt>
      <trkpt lat="45.01933" lon="5.70549">
        <ele>500.095518</ele>
        <time>2025-07-10T15:33:29.000Z</time>
      </trkpt>
      <trkpt lat="45.0194" lon="5.7055">
        <ele>499.910322</ele>
        <time>2025-07-10T15:33:30.000Z</time>
      </trkpt>
      <trkpt lat="45.01947" lon="5.7055">
        <ele>499.72255</ele>
        <time>2025-07-10T15:33:31.000Z</time>
      </trkpt>
      <trkpt lat="45.01954" lon="5.7055">
        <ele>499.532135</ele>
        <time>2025-07-10T15:33:32.000Z</time>
      </trkpt>
      <trkpt lat="45.01961" lon="5.70551">
        <ele>499.341794</ele>
        <time>2025-07-10T15:33:33.000Z</time>
      </trkpt>
      <trkpt lat="45.01968" lon="5.70551">
        <ele>499.148782</ele>
        <time>2025-07-10T15:33:34.000Z</time>
      </trkpt>
      <trkpt lat="45.01976" lon="5.70551">
        <ele>498.955481</ele>
        <time>2025-07-10T15:33:35.000Z</time>
      </trkpt>
      <trkpt lat="45.01983" lon="5.70552">
        <ele>498.7647</ele>
        <time>2025-07-10T15:33:36.000Z</time>
      </trkpt>
      <trkpt lat="45.0199" lon="5.70553">
        <ele>498.570632</ele>
        <time>2025-07-10T15:33:37.000Z</time>
      </trkpt>
      <trkpt lat="45.01997" lon="5.70555">
        <ele>498.375632</ele>
        <time>2025-07-10T15:33:38.000Z</time>
      </trkpt>
      <trkpt lat="45.02005" lon="5.70556">
        <ele>498.182966</ele>
        <time>2025-07-10T15:33:39.000Z</time>
      </trkpt>
      <trkpt lat="45.02012" lon="5.70558">
        <ele>497.987688</ele>
        <time>2025-07-10T15:33:40.000Z</time>
      </trkpt>
      <trkpt lat="45.02019" lon="5.70559">
        <ele>497.790566</ele>
        <time>2025-07-10T15:33:41.000Z</time>
      </trkpt>
      <trkpt lat="45.02027" lon="5.7056">
        <ele>497.596859</ele>
        <time>2025-07-10T15:33:42.000Z</time>
      </trkpt>
      <trkpt lat="45.02034" lon="5.70561">
        <ele>497.408242</ele>
        <time>2025-07-10T15:33:43.000Z</time>
      </trkpt>
      <trkpt lat="45.02041" lon="5.70562">
        <ele>497.222256</ele>
        <time>2025-07-10T15:33:44.000Z</time>
      </trkpt>
      <trkpt lat="45.02048" lon="5.70563">
        <ele>496.97788</ele>
        <time>2025-07-10T15:33:45.000Z</time>
      </trkpt>
      <trkpt lat="45.02055" lon="5.70563">
        <ele>496.637599</ele>
        <time>2025-07-10T15:33:46.000Z</time>
      </trkpt>
      <trkpt lat="45.02062" lon="5.70563">
        <ele>496.301775</ele>
        <time>2025-07-10T15:33:47.000Z</time>
      </trkpt>
      <trkpt lat="45.02069" lon="5.70563">
        <ele>495.966216</ele>
        <time>2025-07-10T15:33:48.000Z</time>
      </trkpt>
      <trkpt lat="45.02077" lon="5.70562">
        <ele>495.624448</ele>
        <time>2025-07-10T15:33:49.000Z</time>
      </trkpt>
      <trkpt lat="45.02083" lon="5.7056">
        <ele>495.29237</ele>
        <time>2025-07-10T15:33:50.000Z</time>
      </trkpt>
      <trkpt lat="45.0209" lon="5.70559">
        <ele>494.970808</ele>
        <time>2025-07-10T15:33:51.000Z</time>
      </trkpt>
      <trkpt lat="45.02097" lon="5.70557">
        <ele>494.655534</ele>
        <time>2025-07-10T15:33:52.000Z</time>
      </trkpt>
      <trkpt lat="45.02103" lon="5.70555">
        <ele>494.343266</ele>
        <time>2025-07-10T15:33:53.000Z</time>
      </trkpt>
      <trkpt lat="45.0211" lon="5.70554">
        <ele>494.035009</ele>
        <time>2025-07-10T15:33:54.000Z</time>
      </trkpt>
      <trkpt lat="45.02116" lon="5.70553">
        <ele>493.730446</ele>
        <time>2025-07-10T15:33:55.000Z</time>
      </trkpt>
      <trkpt lat="45.02122" lon="5.70553">
        <ele>493.437553</ele>
        <time>2025-07-10T15:33:56.000Z</time>
      </trkpt>
      <trkpt lat="45.02128" lon="5.70554">
        <ele>493.139211</ele>
        <time>2025-07-10T15:33:57.000Z</time>
      </trkpt>
      <trkpt lat="45.02135" lon="5.70557">
        <ele>492.830993</ele>
        <time>2025-07-10T15:33:58.000Z</time>
      </trkpt>
      <trkpt lat="45.02141" lon="5.70559">
        <ele>492.508223</ele>
        <time>2025-07-10T15:33:59.000Z</time>
      </trkpt>
      <trkpt lat="45.02148" lon="5.70562">
        <ele>492.1863</ele>
        <time>2025-07-10T15:34:00.000Z</time>
      </trkpt>
      <trkpt lat="45.02155" lon="5.70564">
        <ele>491.865974</ele>
        <time>2025-07-10T15:34:01.000Z</time>
      </trkpt>
      <trkpt lat="45.02161" lon="5.70566">
        <ele>491.531837</ele>
        <time>2025-07-10T15:34:02.000Z</time>
      </trkpt>
      <trkpt lat="45.02169" lon="5.70568">
        <ele>491.186196</ele>
        <time>2025-07-10T15:34:03.000Z</time>
      </trkpt>
      <trkpt lat="45.02176" lon="5.70571">
        <ele>490.835969</ele>
        <time>2025-07-10T15:34:04.000Z</time>
      </trkpt>
      <trkpt lat="45.02183" lon="5.70573">
        <ele>490.481922</ele>
        <time>2025-07-10T15:34:05.000Z</time>
      </trkpt>
      <trkpt lat="45.0219" lon="5.70576">
        <ele>490.122512</ele>
        <time>2025-07-10T15:34:06.000Z</time>
      </trkpt>
      <trkpt lat="45.02198" lon="5.70579">
        <ele>489.753396</ele>
        <time>2025-07-10T15:34:07.000Z</time>
      </trkpt>
      <trkpt lat="45.02206" lon="5.70582">
        <ele>489.38322</ele>
        <time>2025-07-10T15:34:08.000Z</time>
      </trkpt>
      <trkpt lat="45.02213" lon="5.70585">
        <ele>489.009566</ele>
        <time>2025-07-10T15:34:09.000Z</time>
      </trkpt>
      <trkpt lat="45.02221" lon="5.70588">
        <ele>488.628577</ele>
        <time>2025-07-10T15:34:10.000Z</time>
      </trkpt>
      <trkpt lat="45.02229" lon="5.70591">
        <ele>488.20235</ele>
        <time>2025-07-10T15:34:11.000Z</time>
      </trkpt>
      <trkpt lat="45.02236" lon="5.70594">
        <ele>487.777232</ele>
        <time>2025-07-10T15:34:12.000Z</time>
      </trkpt>
      <trkpt lat="45.02244" lon="5.70598">
        <ele>487.349617</ele>
        <time>2025-07-10T15:34:13.000Z</time>
      </trkpt>
      <trkpt lat="45.02251" lon="5.70602">
        <ele>486.926877</ele>
        <time>2025-07-10T15:34:14.000Z</time>
      </trkpt>
      <trkpt lat="45.02259" lon="5.70605">
        <ele>486.493</ele>
        <time>2025-07-10T15:34:15.000Z</time>
      </trkpt>
      <trkpt lat="45.02267" lon="5.70607">
        <ele>486.062216</ele>
        <time>2025-07-10T15:34:16.000Z</time>
      </trkpt>
      <trkpt lat="45.02275" lon="5.70608">
        <ele>485.635309</ele>
        <time>2025-07-10T15:34:17.000Z</time>
      </trkpt>
      <trkpt lat="45.02283" lon="5.7061">
        <ele>485.205177</ele>
        <time>2025-07-10T15:34:18.000Z</time>
      </trkpt>
      <trkpt lat="45.02291" lon="5.70612">
        <ele>484.76893</ele>
        <time>2025-07-10T15:34:19.000Z</time>
      </trkpt>
      <trkpt lat="45.02298" lon="5.70616">
        <ele>484.349524</ele>
        <time>2025-07-10T15:34:20.000Z</time>
      </trkpt>
      <trkpt lat="45.02306" lon="5.70619">
        <ele>483.929037</ele>
        <time>2025-07-10T15:34:21.000Z</time>
      </trkpt>
      <trkpt lat="45.02313" lon="5.70622">
        <ele>483.509631</ele>
        <time>2025-07-10T15:34:22.000Z</time>
      </trkpt>
      <trkpt lat="45.02321" lon="5.70625">
        <ele>483.076734</ele>
        <time>2025-07-10T15:34:23.000Z</time>
      </trkpt>
      <trkpt lat="45.02329" lon="5.70628">
        <ele>482.633447</ele>
        <time>2025-07-10T15:34:24.000Z</time>
      </trkpt>
      <trkpt lat="45.02337" lon="5.70631">
        <ele>482.196447</ele>
        <time>2025-07-10T15:34:25.000Z</time>
      </trkpt>
      <trkpt lat="45.02345" lon="5.70634">
        <ele>481.752093</ele>
        <time>2025-07-10T15:34:26.000Z</time>
      </trkpt>
      <trkpt lat="45.02352" lon="5.70638">
        <ele>481.309947</ele>
        <time>2025-07-10T15:34:27.000Z</time>
      </trkpt>
      <trkpt lat="45.0236" lon="5.70641">
        <ele>480.885386</ele>
        <time>2025-07-10T15:34:28.000Z</time>
      </trkpt>
      <trkpt lat="45.02368" lon="5.70644">
        <ele>480.469028</ele>
        <time>2025-07-10T15:34:29.000Z</time>
      </trkpt>
      <trkpt lat="45.02375" lon="5.70646">
        <ele>480.064636</ele>
        <time>2025-07-10T15:34:30.000Z</time>
      </trkpt>
      <trkpt lat="45.02382" lon="5.70648">
        <ele>479.655655</ele>
        <time>2025-07-10T15:34:31.000Z</time>
      </trkpt>
      <trkpt lat="45.0239" lon="5.7065">
        <ele>479.245989</ele>
        <time>2025-07-10T15:34:32.000Z</time>
      </trkpt>
      <trkpt lat="45.02397" lon="5.70651">
        <ele>478.869802</ele>
        <time>2025-07-10T15:34:33.000Z</time>
      </trkpt>
      <trkpt lat="45.02405" lon="5.70653">
        <ele>478.574737</ele>
        <time>2025-07-10T15:34:34.000Z</time>
      </trkpt>
      <trkpt lat="45.02412" lon="5.70655">
        <ele>478.280168</ele>
        <time>2025-07-10T15:34:35.000Z</time>
      </trkpt>
      <trkpt lat="45.02419" lon="5.70657">
        <ele>477.983379</ele>
        <time>2025-07-10T15:34:36.000Z</time>
      </trkpt>
      <trkpt lat="45.02427" lon="5.70658">
        <ele>477.690895</ele>
        <time>2025-07-10T15:34:37.000Z</time>
      </trkpt>
      <trkpt lat="45.02434" lon="5.70659">
        <ele>477.403299</ele>
        <time>2025-07-10T15:34:38.000Z</time>
      </trkpt>
      <trkpt lat="45.02441" lon="5.70659">
        <ele>477.116735</ele>
        <time>2025-07-10T15:34:39.000Z</time>
      </trkpt>
      <trkpt lat="45.02448" lon="5.7066">
        <ele>476.838409</ele>
        <time>2025-07-10T15:34:40.000Z</time>
      </trkpt>
      <trkpt lat="45.02455" lon="5.7066">
        <ele>476.567959</ele>
        <time>2025-07-10T15:34:41.000Z</time>
      </trkpt>
      <trkpt lat="45.02462" lon="5.7066">
        <ele>476.301482</ele>
        <time>2025-07-10T15:34:42.000Z</time>
      </trkpt>
      <trkpt lat="45.02468" lon="5.70659">
        <ele>476.039099</ele>
        <time>2025-07-10T15:34:43.000Z</time>
      </trkpt>
      <trkpt lat="45.02475" lon="5.7066">
        <ele>475.780156</ele>
        <time>2025-07-10T15:34:44.000Z</time>
      </trkpt>
      <trkpt lat="45.02481" lon="5.70662">
        <ele>475.525711</ele>
        <time>2025-07-10T15:34:45.000Z</time>
      </trkpt>
      <trkpt lat="45.02487" lon="5.70664">
        <ele>475.265753</ele>
        <time>2025-07-10T15:34:46.000Z</time>
      </trkpt>
      <trkpt lat="45.02494" lon="5.70665">
        <ele>474.989038</ele>
        <time>2025-07-10T15:34:47.000Z</time>
      </trkpt>
      <trkpt lat="45.02501" lon="5.70665">
        <ele>474.70629</ele>
        <time>2025-07-10T15:34:48.000Z</time>
      </trkpt>
      <trkpt lat="45.02508" lon="5.70666">
        <ele>474.423696</ele>
        <time>2025-07-10T15:34:49.000Z</time>
      </trkpt>
      <trkpt lat="45.02516" lon="5.70667">
        <ele>474.13186</ele>
        <time>2025-07-10T15:34:50.000Z</time>
      </trkpt>
      <trkpt lat="45.02523" lon="5.70668">
        <ele>473.839011</ele>
        <time>2025-07-10T15:34:51.000Z</time>
      </trkpt>
      <trkpt lat="45.0253" lon="5.7067">
        <ele>473.545355</ele>
        <time>2025-07-10T15:34:52.000Z</time>
      </trkpt>
      <trkpt lat="45.02538" lon="5.70672">
        <ele>473.25029</ele>
        <time>2025-07-10T15:34:53.000Z</time>
      </trkpt>
      <trkpt lat="45.02544" lon="5.70674">
        <ele>472.972354</ele>
        <time>2025-07-10T15:34:54.000Z</time>
      </trkpt>
      <trkpt lat="45.02551" lon="5.70676">
        <ele>472.687302</ele>
        <time>2025-07-10T15:34:55.000Z</time>
      </trkpt>
      <trkpt lat="45.02558" lon="5.70679">
        <ele>472.400979</ele>
        <time>2025-07-10T15:34:56.000Z</time>
      </trkpt>
      <trkpt lat="45.02566" lon="5.70681">
        <ele>472.101731</ele>
        <time>2025-07-10T15:34:57.000Z</time>
      </trkpt>
      <trkpt lat="45.02573" lon="5.70684">
        <ele>471.807675</ele>
        <time>2025-07-10T15:34:58.000Z</time>
      </trkpt>
      <trkpt lat="45.0258" lon="5.70686">
        <ele>471.702565</ele>
        <time>2025-07-10T15:34:59.000Z</time>
      </trkpt>
      <trkpt lat="45.02587" lon="5.70688">
        <ele>471.601537</ele>
        <time>2025-07-10T15:35:00.000Z</time>
      </trkpt>
      <trkpt lat="45.02594" lon="5.7069">
        <ele>471.500106</ele>
        <time>2025-07-10T15:35:01.000Z</time>
      </trkpt>
      <trkpt lat="45.02602" lon="5.7069">
        <ele>471.399214</ele>
        <time>2025-07-10T15:35:02.000Z</time>
      </trkpt>
      <trkpt lat="45.02609" lon="5.70691">
        <ele>471.301437</ele>
        <time>2025-07-10T15:35:03.000Z</time>
      </trkpt>
      <trkpt lat="45.02616" lon="5.7069">
        <ele>471.201997</ele>
        <time>2025-07-10T15:35:04.000Z</time>
      </trkpt>
      <trkpt lat="45.02623" lon="5.70688">
        <ele>471.103294</ele>
        <time>2025-07-10T15:35:05.000Z</time>
      </trkpt>
      <trkpt lat="45.0263" lon="5.70687">
        <ele>471.003803</ele>
        <time>2025-07-10T15:35:06.000Z</time>
      </trkpt>
      <trkpt lat="45.02637" lon="5.70684">
        <ele>470.903728</ele>
        <time>2025-07-10T15:35:07.000Z</time>
      </trkpt>
      <trkpt lat="45.02644" lon="5.70682">
        <ele>470.804782</ele>
        <time>2025-07-10T15:35:08.000Z</time>
      </trkpt>
      <trkpt lat="45.02651" lon="5.70679">
        <ele>470.708022</ele>
        <time>2025-07-10T15:35:09.000Z</time>
      </trkpt>
      <trkpt lat="45.02658" lon="5.70676">
        <ele>470.608045</ele>
        <time>2025-07-10T15:35:10.000Z</time>
      </trkpt>
      <trkpt lat="45.02665" lon="5.70673">
        <ele>470.506021</ele>
        <time>2025-07-10T15:35:11.000Z</time>
      </trkpt>
      <trkpt lat="45.02672" lon="5.70669">
        <ele>470.406719</ele>
        <time>2025-07-10T15:35:12.000Z</time>
      </trkpt>
      <trkpt lat="45.02678" lon="5.70666">
        <ele>470.309327</ele>
        <time>2025-07-10T15:35:13.000Z</time>
      </trkpt>
      <trkpt lat="45.02685" lon="5.70662">
        <ele>470.213847</ele>
        <time>2025-07-10T15:35:14.000Z</time>
      </trkpt>
      <trkpt lat="45.02691" lon="5.70657">
        <ele>470.118651</ele>
        <time>2025-07-10T15:35:15.000Z</time>
      </trkpt>
      <trkpt lat="45.02696" lon="5.70651">
        <ele>470.026989</ele>
        <time>2025-07-10T15:35:16.000Z</time>
      </trkpt>
      <trkpt lat="45.027" lon="5.70645">
        <ele>469.939825</ele>
        <time>2025-07-10T15:35:17.000Z</time>
      </trkpt>
      <trkpt lat="45.02704" lon="5.70638">
        <ele>469.853931</ele>
        <time>2025-07-10T15:35:18.000Z</time>
      </trkpt>
      <trkpt lat="45.02708" lon="5.7063">
        <ele>469.768892</ele>
        <time>2025-07-10T15:35:19.000Z</time>
      </trkpt>
      <trkpt lat="45.02711" lon="5.70623">
        <ele>469.686198</ele>
        <time>2025-07-10T15:35:20.000Z</time>
      </trkpt>
      <trkpt lat="45.02714" lon="5.70617">
        <ele>469.611496</ele>
        <time>2025-07-10T15:35:21.000Z</time>
      </trkpt>
      <trkpt lat="45.02717" lon="5.70611">
        <ele>469.539974</ele>
        <time>2025-07-10T15:35:22.000Z</time>
      </trkpt>
      <trkpt lat="45.0272" lon="5.70605">
        <ele>469.47004</ele>
        <time>2025-07-10T15:35:23.000Z</time>
      </trkpt>
      <trkpt lat="45.02723" lon="5.706">
        <ele>469.399087</ele>
        <time>2025-07-10T15:35:24.000Z</time>
      </trkpt>
      <trkpt lat="45.02727" lon="5.70595">
        <ele>469.333314</ele>
        <time>2025-07-10T15:35:25.000Z</time>
      </trkpt>
      <trkpt lat="45.02731" lon="5.70591">
        <ele>469.30222</ele>
        <time>2025-07-10T15:35:26.000Z</time>
      </trkpt>
      <trkpt lat="45.02735" lon="5.70589">
        <ele>469.276511</ele>
        <time>2025-07-10T15:35:27.000Z</time>
      </trkpt>
      <trkpt lat="45.0274" lon="5.70588">
        <ele>469.25212</ele>
        <time>2025-07-10T15:35:28.000Z</time>
      </trkpt>
      <trkpt lat="45.02745" lon="5.70587">
        <ele>469.227477</ele>
        <time>2025-07-10T15:35:29.000Z</time>
      </trkpt>
      <trkpt lat="45.0275" lon="5.70587">
        <ele>469.202385</ele>
        <time>2025-07-10T15:35:30.000Z</time>
      </trkpt>
      <trkpt lat="45.02755" lon="5.70588">
        <ele>469.17713</ele>
        <time>2025-07-10T15:35:31.000Z</time>
      </trkpt>
      <trkpt lat="45.02759" lon="5.7059">
        <ele>469.150941</ele>
        <time>2025-07-10T15:35:32.000Z</time>
      </trkpt>
      <trkpt lat="45.02764" lon="5.70592">
        <ele>469.126406</ele>
        <time>2025-07-10T15:35:33.000Z</time>
      </trkpt>
      <trkpt lat="45.02769" lon="5.70594">
        <ele>469.101658</ele>
        <time>2025-07-10T15:35:34.000Z</time>
      </trkpt>
      <trkpt lat="45.02773" lon="5.70597">
        <ele>469.077641</ele>
        <time>2025-07-10T15:35:35.000Z</time>
      </trkpt>
      <trkpt lat="45.02777" lon="5.70599">
        <ele>469.053698</ele>
        <time>2025-07-10T15:35:36.000Z</time>
      </trkpt>
      <trkpt lat="45.02782" lon="5.70602">
        <ele>469.028114</ele>
        <time>2025-07-10T15:35:37.000Z</time>
      </trkpt>
      <trkpt lat="45.02787" lon="5.70603">
        <ele>469.002594</ele>
        <time>2025-07-10T15:35:38.000Z</time>
      </trkpt>
      <trkpt lat="45.02792" lon="5.70605">
        <ele>468.977925</ele>
        <time>2025-07-10T15:35:39.000Z</time>
      </trkpt>
      <trkpt lat="45.02796" lon="5.70606">
        <ele>468.952463</ele>
        <time>2025-07-10T15:35:40.000Z</time>
      </trkpt>
      <trkpt lat="45.02801" lon="5.70607">
        <ele>468.927208</ele>
        <time>2025-07-10T15:35:41.000Z</time>
      </trkpt>
      <trkpt lat="45.02806" lon="5.70607">
        <ele>468.902565</ele>
        <time>2025-07-10T15:35:42.000Z</time>
      </trkpt>
      <trkpt lat="45.02811" lon="5.70608">
        <ele>468.878457</ele>
        <time>2025-07-10T15:35:43.000Z</time>
      </trkpt>
      <trkpt lat="45.02815" lon="5.70608">
        <ele>468.855926</ele>
        <time>2025-07-10T15:35:44.000Z</time>
      </trkpt>
      <trkpt lat="45.0282" lon="5.70607">
        <ele>468.832746</ele>
        <time>2025-07-10T15:35:45.000Z</time>
      </trkpt>
      <trkpt lat="45.02824" lon="5.70606">
        <ele>468.809929</ele>
        <time>2025-07-10T15:35:46.000Z</time>
      </trkpt>
      <trkpt lat="45.02829" lon="5.70605">
        <ele>468.786413</ele>
        <time>2025-07-10T15:35:47.000Z</time>
      </trkpt>
      <trkpt lat="45.02833" lon="5.70603">
        <ele>468.762656</ele>
        <time>2025-07-10T15:35:48.000Z</time>
      </trkpt>
      <trkpt lat="45.02838" lon="5.70601">
        <ele>468.737818</ele>
        <time>2025-07-10T15:35:49.000Z</time>
      </trkpt>
      <trkpt lat="45.02843" lon="5.706">
        <ele>468.713067</ele>
        <time>2025-07-10T15:35:50.000Z</time>
      </trkpt>
      <trkpt lat="45.02848" lon="5.70598">
        <ele>468.686819</ele>
        <time>2025-07-10T15:35:51.000Z</time>
      </trkpt>
      <trkpt lat="45.02853" lon="5.70597">
        <ele>468.66049</ele>
        <time>2025-07-10T15:35:52.000Z</time>
      </trkpt>
      <trkpt lat="45.02858" lon="5.70595">
        <ele>468.633982</ele>
        <time>2025-07-10T15:35:53.000Z</time>
      </trkpt>
      <trkpt lat="45.02863" lon="5.70593">
        <ele>468.605658</ele>
        <time>2025-07-10T15:35:54.000Z</time>
      </trkpt>
      <trkpt lat="45.02869" lon="5.70591">
        <ele>468.576476</ele>
        <time>2025-07-10T15:35:55.000Z</time>
      </trkpt>
      <trkpt lat="45.02874" lon="5.7059">
        <ele>468.545494</ele>
        <time>2025-07-10T15:35:56.000Z</time>
      </trkpt>
      <trkpt lat="45.0288" lon="5.70588">
        <ele>468.514929</ele>
        <time>2025-07-10T15:35:57.000Z</time>
      </trkpt>
      <trkpt lat="45.02886" lon="5.70586">
        <ele>468.483164</ele>
        <time>2025-07-10T15:35:58.000Z</time>
      </trkpt>
      <trkpt lat="45.02893" lon="5.70585">
        <ele>468.450006</ele>
        <time>2025-07-10T15:35:59.000Z</time>
      </trkpt>
      <trkpt lat="45.02899" lon="5.70583">
        <ele>468.416225</ele>
        <time>2025-07-10T15:36:00.000Z</time>
      </trkpt>
      <trkpt lat="45.02906" lon="5.70582">
        <ele>468.218967</ele>
        <time>2025-07-10T15:36:01.000Z</time>
      </trkpt>
      <trkpt lat="45.02913" lon="5.70581">
        <ele>467.888594</ele>
        <time>2025-07-10T15:36:02.000Z</time>
      </trkpt>
      <trkpt lat="45.0292" lon="5.7058">
        <ele>467.544662</ele>
        <time>2025-07-10T15:36:03.000Z</time>
      </trkpt>
      <trkpt lat="45.02927" lon="5.70579">
        <ele>467.195374</ele>
        <time>2025-07-10T15:36:04.000Z</time>
      </trkpt>
      <trkpt lat="45.02935" lon="5.70579">
        <ele>466.828096</ele>
        <time>2025-07-10T15:36:05.000Z</time>
      </trkpt>
      <trkpt lat="45.02942" lon="5.7058">
        <ele>466.465265</ele>
        <time>2025-07-10T15:36:06.000Z</time>
      </trkpt>
      <trkpt lat="45.0295" lon="5.7058">
        <ele>466.107081</ele>
        <time>2025-07-10T15:36:07.000Z</time>
      </trkpt>
      <trkpt lat="45.02957" lon="5.70581">
        <ele>465.744249</ele>
        <time>2025-07-10T15:36:08.000Z</time>
      </trkpt>
      <trkpt lat="45.02964" lon="5.70581">
        <ele>465.390427</ele>
        <time>2025-07-10T15:36:09.000Z</time>
      </trkpt>
      <trkpt lat="45.02972" lon="5.70583">
        <ele>465.030084</ele>
        <time>2025-07-10T15:36:10.000Z</time>
      </trkpt>
      <trkpt lat="45.02979" lon="5.70584">
        <ele>464.65493</ele>
        <time>2025-07-10T15:36:11.000Z</time>
      </trkpt>
      <trkpt lat="45.02987" lon="5.70585">
        <ele>464.275398</ele>
        <time>2025-07-10T15:36:12.000Z</time>
      </trkpt>
      <trkpt lat="45.02995" lon="5.70586">
        <ele>463.8873</ele>
        <time>2025-07-10T15:36:13.000Z</time>
      </trkpt>
      <trkpt lat="45.03003" lon="5.70587">
        <ele>463.490323</ele>
        <time>2025-07-10T15:36:14.000Z</time>
      </trkpt>
      <trkpt lat="45.03012" lon="5.70587">
        <ele>463.084345</ele>
        <time>2025-07-10T15:36:15.000Z</time>
      </trkpt>
      <trkpt lat="45.0302" lon="5.70586">
        <ele>462.672443</ele>
        <time>2025-07-10T15:36:16.000Z</time>
      </trkpt>
      <trkpt lat="45.03029" lon="5.70584">
        <ele>462.251821</ele>
        <time>2025-07-10T15:36:17.000Z</time>
      </trkpt>
      <trkpt lat="45.03038" lon="5.70582">
        <ele>461.830092</ele>
        <time>2025-07-10T15:36:18.000Z</time>
      </trkpt>
      <trkpt lat="45.03046" lon="5.7058">
        <ele>461.401758</ele>
        <time>2025-07-10T15:36:19.000Z</time>
      </trkpt>
      <trkpt lat="45.03055" lon="5.70576">
        <ele>460.973965</ele>
        <time>2025-07-10T15:36:20.000Z</time>
      </trkpt>
      <trkpt lat="45.03063" lon="5.70571">
        <ele>460.539366</ele>
        <time>2025-07-10T15:36:21.000Z</time>
      </trkpt>
      <trkpt lat="45.03071" lon="5.70566">
        <ele>460.106673</ele>
        <time>2025-07-10T15:36:22.000Z</time>
      </trkpt>
      <trkpt lat="45.03079" lon="5.7056">
        <ele>459.670649</ele>
        <time>2025-07-10T15:36:23.000Z</time>
      </trkpt>
      <trkpt lat="45.03086" lon="5.70552">
        <ele>459.14372</ele>
        <time>2025-07-10T15:36:24.000Z</time>
      </trkpt>
      <trkpt lat="45.03093" lon="5.70544">
        <ele>458.61812</ele>
        <time>2025-07-10T15:36:25.000Z</time>
      </trkpt>
      <trkpt lat="45.031" lon="5.70535">
        <ele>458.082789</ele>
        <time>2025-07-10T15:36:26.000Z</time>
      </trkpt>
      <trkpt lat="45.03106" lon="5.70525">
        <ele>457.558459</ele>
        <time>2025-07-10T15:36:27.000Z</time>
      </trkpt>
      <trkpt lat="45.03111" lon="5.70515">
        <ele>457.029435</ele>
        <time>2025-07-10T15:36:28.000Z</time>
      </trkpt>
      <trkpt lat="45.03116" lon="5.70504">
        <ele>456.511779</ele>
        <time>2025-07-10T15:36:29.000Z</time>
      </trkpt>
      <trkpt lat="45.0312" lon="5.70493">
        <ele>455.994123</ele>
        <time>2025-07-10T15:36:30.000Z</time>
      </trkpt>
      <trkpt lat="45.03125" lon="5.70482">
        <ele>455.484808</ele>
        <time>2025-07-10T15:36:31.000Z</time>
      </trkpt>
      <trkpt lat="45.0313" lon="5.70472">
        <ele>454.985441</ele>
        <time>2025-07-10T15:36:32.000Z</time>
      </trkpt>
      <trkpt lat="45.03138" lon="5.70465">
        <ele>454.482041</ele>
        <time>2025-07-10T15:36:33.000Z</time>
      </trkpt>
      <trkpt lat="45.03146" lon="5.70462">
        <ele>453.958505</ele>
        <time>2025-07-10T15:36:34.000Z</time>
      </trkpt>
      <trkpt lat="45.03155" lon="5.70461">
        <ele>453.450774</ele>
        <time>2025-07-10T15:36:35.000Z</time>
      </trkpt>
      <trkpt lat="45.03164" lon="5.70464">
        <ele>452.936176</ele>
        <time>2025-07-10T15:36:36.000Z</time>
      </trkpt>
      <trkpt lat="45.03172" lon="5.7047">
        <ele>452.395593</ele>
        <time>2025-07-10T15:36:37.000Z</time>
      </trkpt>
      <trkpt lat="45.0318" lon="5.70476">
        <ele>451.878877</ele>
        <time>2025-07-10T15:36:38.000Z</time>
      </trkpt>
      <trkpt lat="45.03188" lon="5.70482">
        <ele>451.361289</ele>
        <time>2025-07-10T15:36:39.000Z</time>
      </trkpt>
      <trkpt lat="45.03195" lon="5.70488">
        <ele>450.854704</ele>
        <time>2025-07-10T15:36:40.000Z</time>
      </trkpt>
      <trkpt lat="45.03203" lon="5.70494">
        <ele>450.360176</ele>
        <time>2025-07-10T15:36:41.000Z</time>
      </trkpt>
      <trkpt lat="45.03211" lon="5.705">
        <ele>449.863094</ele>
        <time>2025-07-10T15:36:42.000Z</time>
      </trkpt>
      <trkpt lat="45.03218" lon="5.70505">
        <ele>449.372912</ele>
        <time>2025-07-10T15:36:43.000Z</time>
      </trkpt>
      <trkpt lat="45.03226" lon="5.70509">
        <ele>449.023636</ele>
        <time>2025-07-10T15:36:44.000Z</time>
      </trkpt>
      <trkpt lat="45.03234" lon="5.70513">
        <ele>448.679634</ele>
        <time>2025-07-10T15:36:45.000Z</time>
      </trkpt>
      <trkpt lat="45.03242" lon="5.70514">
        <ele>448.322017</ele>
        <time>2025-07-10T15:36:46.000Z</time>
      </trkpt>
      <trkpt lat="45.03251" lon="5.70515">
        <ele>447.960036</ele>
        <time>2025-07-10T15:36:47.000Z</time>
      </trkpt>
      <trkpt lat="45.03259" lon="5.70515">
        <ele>447.594182</ele>
        <time>2025-07-10T15:36:48.000Z</time>
      </trkpt>
      <trkpt lat="45.03268" lon="5.70514">
        <ele>447.222519</ele>
        <time>2025-07-10T15:36:49.000Z</time>
      </trkpt>
      <trkpt lat="45.03277" lon="5.70511">
        <ele>446.847345</ele>
        <time>2025-07-10T15:36:50.000Z</time>
      </trkpt>
      <trkpt lat="45.03286" lon="5.70508">
        <ele>446.462722</ele>
        <time>2025-07-10T15:36:51.000Z</time>
      </trkpt>
      <trkpt lat="45.03295" lon="5.70505">
        <ele>446.076679</ele>
        <time>2025-07-10T15:36:52.000Z</time>
      </trkpt>
      <trkpt lat="45.03304" lon="5.70502">
        <ele>445.685825</ele>
        <time>2025-07-10T15:36:53.000Z</time>
      </trkpt>
      <trkpt lat="45.03313" lon="5.70499">
        <ele>445.291628</ele>
        <time>2025-07-10T15:36:54.000Z</time>
      </trkpt>
      <trkpt lat="45.03322" lon="5.70496">
        <ele>444.897795</ele>
        <time>2025-07-10T15:36:55.000Z</time>
      </trkpt>
      <trkpt lat="45.03331" lon="5.70495">
        <ele>444.503577</ele>
        <time>2025-07-10T15:36:56.000Z</time>
      </trkpt>
      <trkpt lat="45.03341" lon="5.70493">
        <ele>444.115434</ele>
        <time>2025-07-10T15:36:57.000Z</time>
      </trkpt>
      <trkpt lat="45.0335" lon="5.70493">
        <ele>443.737076</ele>
        <time>2025-07-10T15:36:58.000Z</time>
      </trkpt>
      <trkpt lat="45.03358" lon="5.70496">
        <ele>443.361903</ele>
        <time>2025-07-10T15:36:59.000Z</time>
      </trkpt>
      <trkpt lat="45.03367" lon="5.705">
        <ele>442.972416</ele>
        <time>2025-07-10T15:37:00.000Z</time>
      </trkpt>
      <trkpt lat="45.03376" lon="5.70505">
        <ele>442.578074</ele>
        <time>2025-07-10T15:37:01.000Z</time>
      </trkpt>
      <trkpt lat="45.03384" lon="5.7051">
        <ele>442.189941</ele>
        <time>2025-07-10T15:37:02.000Z</time>
      </trkpt>
      <trkpt lat="45.03393" lon="5.70515">
        <ele>441.799073</ele>
        <time>2025-07-10T15:37:03.000Z</time>
      </trkpt>
      <trkpt lat="45.03402" lon="5.70519">
        <ele>441.4755</ele>
        <time>2025-07-10T15:37:04.000Z</time>
      </trkpt>
      <trkpt lat="45.03411" lon="5.70522">
        <ele>441.157452</ele>
        <time>2025-07-10T15:37:05.000Z</time>
      </trkpt>
      <trkpt lat="45.03421" lon="5.70523">
        <ele>440.851745</ele>
        <time>2025-07-10T15:37:06.000Z</time>
      </trkpt>
      <trkpt lat="45.0343" lon="5.70523">
        <ele>440.53773</ele>
        <time>2025-07-10T15:37:07.000Z</time>
      </trkpt>
      <trkpt lat="45.03439" lon="5.70522">
        <ele>440.225623</ele>
        <time>2025-07-10T15:37:08.000Z</time>
      </trkpt>
      <trkpt lat="45.03448" lon="5.7052">
        <ele>439.915574</ele>
        <time>2025-07-10T15:37:09.000Z</time>
      </trkpt>
      <trkpt lat="45.03457" lon="5.70516">
        <ele>439.605775</ele>
        <time>2025-07-10T15:37:10.000Z</time>
      </trkpt>
      <trkpt lat="45.03466" lon="5.70511">
        <ele>439.293914</ele>
        <time>2025-07-10T15:37:11.000Z</time>
      </trkpt>
      <trkpt lat="45.03474" lon="5.70505">
        <ele>438.990734</ele>
        <time>2025-07-10T15:37:12.000Z</time>
      </trkpt>
      <trkpt lat="45.03482" lon="5.70498">
        <ele>438.688052</ele>
        <time>2025-07-10T15:37:13.000Z</time>
      </trkpt>
      <trkpt lat="45.03489" lon="5.7049">
        <ele>438.376777</ele>
        <time>2025-07-10T15:37:14.000Z</time>
      </trkpt>
      <trkpt lat="45.03495" lon="5.70481">
        <ele>438.074708</ele>
        <time>2025-07-10T15:37:15.000Z</time>
      </trkpt>
      <trkpt lat="45.03501" lon="5.70472">
        <ele>437.773508</ele>
        <time>2025-07-10T15:37:16.000Z</time>
      </trkpt>
      <trkpt lat="45.03507" lon="5.70462">
        <ele>437.472803</ele>
        <time>2025-07-10T15:37:17.000Z</time>
      </trkpt>
      <trkpt lat="45.03513" lon="5.70452">
        <ele>437.174716</ele>
        <time>2025-07-10T15:37:18.000Z</time>
      </trkpt>
      <trkpt lat="45.03519" lon="5.70443">
        <ele>436.870872</ele>
        <time>2025-07-10T15:37:19.000Z</time>
      </trkpt>
      <trkpt lat="45.03525" lon="5.70433">
        <ele>436.567889</ele>
        <time>2025-07-10T15:37:20.000Z</time>
      </trkpt>
      <trkpt lat="45.03531" lon="5.70423">
        <ele>436.26008</ele>
        <time>2025-07-10T15:37:21.000Z</time>
      </trkpt>
      <trkpt lat="45.03537" lon="5.70413">
        <ele>435.95584</ele>
        <time>2025-07-10T15:37:22.000Z</time>
      </trkpt>
      <trkpt lat="45.03543" lon="5.70404">
        <ele>435.536049</ele>
        <time>2025-07-10T15:37:23.000Z</time>
      </trkpt>
      <trkpt lat="45.0355" lon="5.70396">
        <ele>434.961349</ele>
        <time>2025-07-10T15:37:24.000Z</time>
      </trkpt>
      <trkpt lat="45.03558" lon="5.70388">
        <ele>434.377239</ele>
        <time>2025-07-10T15:37:25.000Z</time>
      </trkpt>
      <trkpt lat="45.03566" lon="5.70384">
        <ele>433.797233</ele>
        <time>2025-07-10T15:37:26.000Z</time>
      </trkpt>
      <trkpt lat="45.03575" lon="5.70381">
        <ele>433.210584</ele>
        <time>2025-07-10T15:37:27.000Z</time>
      </trkpt>
      <trkpt lat="45.03585" lon="5.70378">
        <ele>432.611534</ele>
        <time>2025-07-10T15:37:28.000Z</time>
      </trkpt>
      <trkpt lat="45.03594" lon="5.70374">
        <ele>432.001143</ele>
        <time>2025-07-10T15:37:29.000Z</time>
      </trkpt>
      <trkpt lat="45.03602" lon="5.70368">
        <ele>431.39337</ele>
        <time>2025-07-10T15:37:30.000Z</time>
      </trkpt>
      <trkpt lat="45.0361" lon="5.70359">
        <ele>430.771279</ele>
        <time>2025-07-10T15:37:31.000Z</time>
      </trkpt>
      <trkpt lat="45.03615" lon="5.70347">
        <ele>430.144027</ele>
        <time>2025-07-10T15:37:32.000Z</time>
      </trkpt>
      <trkpt lat="45.03618" lon="5.70334">
        <ele>429.509566</ele>
        <time>2025-07-10T15:37:33.000Z</time>
      </trkpt>
      <trkpt lat="45.03618" lon="5.7032">
        <ele>428.907433</ele>
        <time>2025-07-10T15:37:34.000Z</time>
      </trkpt>
      <trkpt lat="45.03616" lon="5.70307">
        <ele>428.273428</ele>
        <time>2025-07-10T15:37:35.000Z</time>
      </trkpt>
      <trkpt lat="45.03614" lon="5.70293">
        <ele>427.639498</ele>
        <time>2025-07-10T15:37:36.000Z</time>
      </trkpt>
      <trkpt lat="45.03614" lon="5.70279">
        <ele>427.019669</ele>
        <time>2025-07-10T15:37:37.000Z</time>
      </trkpt>
      <trkpt lat="45.03617" lon="5.70269">
        <ele>426.500933</ele>
        <time>2025-07-10T15:37:38.000Z</time>
      </trkpt>
      <trkpt lat="45.03623" lon="5.70261">
        <ele>426.013709</ele>
        <time>2025-07-10T15:37:39.000Z</time>
      </trkpt>
      <trkpt lat="45.0363" lon="5.70259">
        <ele>425.533125</ele>
        <time>2025-07-10T15:37:40.000Z</time>
      </trkpt>
      <trkpt lat="45.03638" lon="5.70258">
        <ele>425.017359</ele>
        <time>2025-07-10T15:37:41.000Z</time>
      </trkpt>
      <trkpt lat="45.03646" lon="5.70259">
        <ele>424.508194</ele>
        <time>2025-07-10T15:37:42.000Z</time>
      </trkpt>
      <trkpt lat="45.03654" lon="5.70262">
        <ele>424.170909</ele>
        <time>2025-07-10T15:37:43.000Z</time>
      </trkpt>
      <trkpt lat="45.03662" lon="5.70266">
        <ele>423.918591</ele>
        <time>2025-07-10T15:37:44.000Z</time>
      </trkpt>
      <trkpt lat="45.0367" lon="5.70273">
        <ele>423.654917</ele>
        <time>2025-07-10T15:37:45.000Z</time>
      </trkpt>
      <trkpt lat="45.03676" lon="5.7028">
        <ele>423.398031</ele>
        <time>2025-07-10T15:37:46.000Z</time>
      </trkpt>
      <trkpt lat="45.03683" lon="5.70289">
        <ele>423.138961</ele>
        <time>2025-07-10T15:37:47.000Z</time>
      </trkpt>
      <trkpt lat="45.03689" lon="5.70298">
        <ele>422.871901</ele>
        <time>2025-07-10T15:37:48.000Z</time>
      </trkpt>
      <trkpt lat="45.03695" lon="5.70307">
        <ele>422.606956</ele>
        <time>2025-07-10T15:37:49.000Z</time>
      </trkpt>
      <trkpt lat="45.03701" lon="5.70316">
        <ele>422.345194</ele>
        <time>2025-07-10T15:37:50.000Z</time>
      </trkpt>
      <trkpt lat="45.03707" lon="5.70325">
        <ele>422.088537</ele>
        <time>2025-07-10T15:37:51.000Z</time>
      </trkpt>
      <trkpt lat="45.03713" lon="5.70334">
        <ele>421.834353</ele>
        <time>2025-07-10T15:37:52.000Z</time>
      </trkpt>
      <trkpt lat="45.03719" lon="5.70342">
        <ele>421.582261</ele>
        <time>2025-07-10T15:37:53.000Z</time>
      </trkpt>
      <trkpt lat="45.03725" lon="5.7035">
        <ele>421.337232</ele>
        <time>2025-07-10T15:37:54.000Z</time>
      </trkpt>
      <trkpt lat="45.03732" lon="5.70356">
        <ele>421.094266</ele>
        <time>2025-07-10T15:37:55.000Z</time>
      </trkpt>
      <trkpt lat="45.03738" lon="5.70362">
        <ele>420.859648</ele>
        <time>2025-07-10T15:37:56.000Z</time>
      </trkpt>
      <trkpt lat="45.03745" lon="5.70368">
        <ele>420.629523</ele>
        <time>2025-07-10T15:37:57.000Z</time>
      </trkpt>
      <trkpt lat="45.03752" lon="5.70373">
        <ele>420.406958</ele>
        <time>2025-07-10T15:37:58.000Z</time>
      </trkpt>
      <trkpt lat="45.03759" lon="5.70377">
        <ele>420.187783</ele>
        <time>2025-07-10T15:37:59.000Z</time>
      </trkpt>
      <trkpt lat="45.03765" lon="5.7038">
        <ele>419.971698</ele>
        <time>2025-07-10T15:38:00.000Z</time>
      </trkpt>
      <trkpt lat="45.03772" lon="5.70384">
        <ele>419.754867</ele>
        <time>2025-07-10T15:38:01.000Z</time>
      </trkpt>
      <trkpt lat="45.03779" lon="5.70388">
        <ele>419.547878</ele>
        <time>2025-07-10T15:38:02.000Z</time>
      </trkpt>
      <trkpt lat="45.03785" lon="5.70391">
        <ele>419.344417</ele>
        <time>2025-07-10T15:38:03.000Z</time>
      </trkpt>
      <trkpt lat="45.03792" lon="5.70394">
        <ele>419.138887</ele>
        <time>2025-07-10T15:38:04.000Z</time>
      </trkpt>
      <trkpt lat="45.03798" lon="5.70398">
        <ele>418.936368</ele>
        <time>2025-07-10T15:38:05.000Z</time>
      </trkpt>
      <trkpt lat="45.03804" lon="5.70401">
        <ele>418.733706</ele>
        <time>2025-07-10T15:38:06.000Z</time>
      </trkpt>
      <trkpt lat="45.03811" lon="5.70405">
        <ele>418.535817</ele>
        <time>2025-07-10T15:38:07.000Z</time>
      </trkpt>
      <trkpt lat="45.03816" lon="5.70409">
        <ele>418.338106</ele>
        <time>2025-07-10T15:38:08.000Z</time>
      </trkpt>
      <trkpt lat="45.03821" lon="5.70416">
        <ele>418.140273</ele>
        <time>2025-07-10T15:38:09.000Z</time>
      </trkpt>
      <trkpt lat="45.03824" lon="5.70425">
        <ele>417.938514</ele>
        <time>2025-07-10T15:38:10.000Z</time>
      </trkpt>
      <trkpt lat="45.03824" lon="5.70435">
        <ele>417.722559</ele>
        <time>2025-07-10T15:38:11.000Z</time>
      </trkpt>
      <trkpt lat="45.03825" lon="5.70445">
        <ele>417.510893</ele>
        <time>2025-07-10T15:38:12.000Z</time>
      </trkpt>
      <trkpt lat="45.03825" lon="5.70454">
        <ele>417.31188</ele>
        <time>2025-07-10T15:38:13.000Z</time>
      </trkpt>
      <trkpt lat="45.03824" lon="5.70464">
        <ele>417.112513</ele>
        <time>2025-07-10T15:38:14.000Z</time>
      </trkpt>
      <trkpt lat="45.03824" lon="5.70474">
        <ele>416.909115</ele>
        <time>2025-07-10T15:38:15.000Z</time>
      </trkpt>
      <trkpt lat="45.03823" lon="5.70484">
        <ele>416.700687</ele>
        <time>2025-07-10T15:38:16.000Z</time>
      </trkpt>
      <trkpt lat="45.03823" lon="5.70493">
        <ele>416.492955</ele>
        <time>2025-07-10T15:38:17.000Z</time>
      </trkpt>
      <trkpt lat="45.03822" lon="5.70503">
        <ele>416.283132</ele>
        <time>2025-07-10T15:38:18.000Z</time>
      </trkpt>
      <trkpt lat="45.03822" lon="5.70514">
        <ele>416.070803</ele>
        <time>2025-07-10T15:38:19.000Z</time>
      </trkpt>
      <trkpt lat="45.03821" lon="5.70524">
        <ele>415.856796</ele>
        <time>2025-07-10T15:38:20.000Z</time>
      </trkpt>
      <trkpt lat="45.03821" lon="5.70534">
        <ele>415.642605</ele>
        <time>2025-07-10T15:38:21.000Z</time>
      </trkpt>
      <trkpt lat="45.03819" lon="5.70544">
        <ele>415.433154</ele>
        <time>2025-07-10T15:38:22.000Z</time>
      </trkpt>
      <trkpt lat="45.03818" lon="5.70554">
        <ele>415.218247</ele>
        <time>2025-07-10T15:38:23.000Z</time>
      </trkpt>
      <trkpt lat="45.03815" lon="5.70564">
        <ele>415.001711</ele>
        <time>2025-07-10T15:38:24.000Z</time>
      </trkpt>
      <trkpt lat="45.03815" lon="5.70574">
        <ele>414.789382</ele>
        <time>2025-07-10T15:38:25.000Z</time>
      </trkpt>
      <trkpt lat="45.03817" lon="5.70583">
        <ele>414.574852</ele>
        <time>2025-07-10T15:38:26.000Z</time>
      </trkpt>
      <trkpt lat="45.03821" lon="5.7059">
        <ele>414.385993</ele>
        <time>2025-07-10T15:38:27.000Z</time>
      </trkpt>
      <trkpt lat="45.03828" lon="5.70594">
        <ele>414.155402</ele>
        <time>2025-07-10T15:38:28.000Z</time>
      </trkpt>
      <trkpt lat="45.03836" lon="5.70595">
        <ele>413.938339</ele>
        <time>2025-07-10T15:38:29.000Z</time>
      </trkpt>
      <trkpt lat="45.03843" lon="5.70594">
        <ele>413.709596</ele>
        <time>2025-07-10T15:38:30.000Z</time>
      </trkpt>
      <trkpt lat="45.03851" lon="5.70593">
        <ele>413.556465</ele>
        <time>2025-07-10T15:38:31.000Z</time>
      </trkpt>
      <trkpt lat="45.03859" lon="5.70592">
        <ele>413.424078</ele>
        <time>2025-07-10T15:38:32.000Z</time>
      </trkpt>
      <trkpt lat="45.03867" lon="5.70589">
        <ele>413.293371</ele>
        <time>2025-07-10T15:38:33.000Z</time>
      </trkpt>
      <trkpt lat="45.03875" lon="5.70587">
        <ele>413.163329</ele>
        <time>2025-07-10T15:38:34.000Z</time>
      </trkpt>
      <trkpt lat="45.03883" lon="5.70585">
        <ele>413.03238</ele>
        <time>2025-07-10T15:38:35.000Z</time>
      </trkpt>
      <trkpt lat="45.0389" lon="5.70582">
        <ele>412.902301</ele>
        <time>2025-07-10T15:38:36.000Z</time>
      </trkpt>
      <trkpt lat="45.03898" lon="5.70577">
        <ele>412.769709</ele>
        <time>2025-07-10T15:38:37.000Z</time>
      </trkpt>
      <trkpt lat="45.03904" lon="5.70572">
        <ele>412.64379</ele>
        <time>2025-07-10T15:38:38.000Z</time>
      </trkpt>
      <trkpt lat="45.03911" lon="5.70566">
        <ele>412.522501</ele>
        <time>2025-07-10T15:38:39.000Z</time>
      </trkpt>
      <trkpt lat="45.03917" lon="5.70561">
        <ele>412.40395</ele>
        <time>2025-07-10T15:38:40.000Z</time>
      </trkpt>
      <trkpt lat="45.03923" lon="5.70556">
        <ele>412.284578</ele>
        <time>2025-07-10T15:38:41.000Z</time>
      </trkpt>
      <trkpt lat="45.03929" lon="5.70552">
        <ele>412.169329</ele>
        <time>2025-07-10T15:38:42.000Z</time>
      </trkpt>
      <trkpt lat="45.03936" lon="5.70549">
        <ele>412.057539</ele>
        <time>2025-07-10T15:38:43.000Z</time>
      </trkpt>
      <trkpt lat="45.03943" lon="5.70549">
        <ele>411.945835</ele>
        <time>2025-07-10T15:38:44.000Z</time>
      </trkpt>
      <trkpt lat="45.03949" lon="5.70549">
        <ele>411.839196</ele>
        <time>2025-07-10T15:38:45.000Z</time>
      </trkpt>
      <trkpt lat="45.03955" lon="5.70551">
        <ele>411.736731</ele>
        <time>2025-07-10T15:38:46.000Z</time>
      </trkpt>
      <trkpt lat="45.03961" lon="5.70553">
        <ele>411.633088</ele>
        <time>2025-07-10T15:38:47.000Z</time>
      </trkpt>
      <trkpt lat="45.03967" lon="5.70556">
        <ele>411.532923</ele>
        <time>2025-07-10T15:38:48.000Z</time>
      </trkpt>
      <trkpt lat="45.03973" lon="5.70559">
        <ele>411.430462</ele>
        <time>2025-07-10T15:38:49.000Z</time>
      </trkpt>
      <trkpt lat="45.03979" lon="5.70562">
        <ele>411.327855</ele>
        <time>2025-07-10T15:38:50.000Z</time>
      </trkpt>
      <trkpt lat="45.03985" lon="5.70564">
        <ele>411.229609</ele>
        <time>2025-07-10T15:38:51.000Z</time>
      </trkpt>
      <trkpt lat="45.03991" lon="5.70567">
        <ele>411.128696</ele>
        <time>2025-07-10T15:38:52.000Z</time>
      </trkpt>
      <trkpt lat="45.03996" lon="5.7057">
        <ele>411.028532</ele>
        <time>2025-07-10T15:38:53.000Z</time>
      </trkpt>
      <trkpt lat="45.04002" lon="5.70572">
        <ele>410.932202</ele>
        <time>2025-07-10T15:38:54.000Z</time>
      </trkpt>
      <trkpt lat="45.04008" lon="5.70575">
        <ele>410.834967</ele>
        <time>2025-07-10T15:38:55.000Z</time>
      </trkpt>
      <trkpt lat="45.04014" lon="5.70577">
        <ele>410.734572</ele>
        <time>2025-07-10T15:38:56.000Z</time>
      </trkpt>
      <trkpt lat="45.04019" lon="5.70579">
        <ele>410.645286</ele>
        <time>2025-07-10T15:38:57.000Z</time>
      </trkpt>
      <trkpt lat="45.04024" lon="5.70582">
        <ele>410.563285</ele>
        <time>2025-07-10T15:38:58.000Z</time>
      </trkpt>
      <trkpt lat="45.0403" lon="5.70584">
        <ele>410.4796</ele>
        <time>2025-07-10T15:38:59.000Z</time>
      </trkpt>
      <trkpt lat="45.04035" lon="5.70587">
        <ele>410.393755</ele>
        <time>2025-07-10T15:39:00.000Z</time>
      </trkpt>
      <trkpt lat="45.04042" lon="5.70589">
        <ele>410.300898</ele>
        <time>2025-07-10T15:39:01.000Z</time>
      </trkpt>
      <trkpt lat="45.04048" lon="5.7059">
        <ele>410.209478</ele>
        <time>2025-07-10T15:39:02.000Z</time>
      </trkpt>
      <trkpt lat="45.04054" lon="5.70592">
        <ele>410.120087</ele>
        <time>2025-07-10T15:39:03.000Z</time>
      </trkpt>
      <trkpt lat="45.0406" lon="5.70594">
        <ele>410.031951</ele>
        <time>2025-07-10T15:39:04.000Z</time>
      </trkpt>
      <trkpt lat="45.04066" lon="5.70595">
        <ele>409.944004</ele>
        <time>2025-07-10T15:39:05.000Z</time>
      </trkpt>
      <trkpt lat="45.04072" lon="5.70596">
        <ele>409.854787</ele>
        <time>2025-07-10T15:39:06.000Z</time>
      </trkpt>
      <trkpt lat="45.04077" lon="5.70598">
        <ele>409.77169</ele>
        <time>2025-07-10T15:39:07.000Z</time>
      </trkpt>
      <trkpt lat="45.04083" lon="5.70599">
        <ele>409.690196</ele>
        <time>2025-07-10T15:39:08.000Z</time>
      </trkpt>
      <trkpt lat="45.04088" lon="5.706">
        <ele>409.607619</ele>
        <time>2025-07-10T15:39:09.000Z</time>
      </trkpt>
      <trkpt lat="45.04094" lon="5.706">
        <ele>409.529832</ele>
        <time>2025-07-10T15:39:10.000Z</time>
      </trkpt>
      <trkpt lat="45.04099" lon="5.706">
        <ele>409.450438</ele>
        <time>2025-07-10T15:39:11.000Z</time>
      </trkpt>
      <trkpt lat="45.04104" lon="5.70601">
        <ele>409.373893</ele>
        <time>2025-07-10T15:39:12.000Z</time>
      </trkpt>
      <trkpt lat="45.0411" lon="5.70602">
        <ele>409.29295</ele>
        <time>2025-07-10T15:39:13.000Z</time>
      </trkpt>
      <trkpt lat="45.04114" lon="5.70605">
        <ele>409.216531</ele>
        <time>2025-07-10T15:39:14.000Z</time>
      </trkpt>
      <trkpt lat="45.04119" lon="5.70608">
        <ele>409.139959</ele>
        <time>2025-07-10T15:39:15.000Z</time>
      </trkpt>
      <trkpt lat="45.04124" lon="5.70612">
        <ele>409.063605</ele>
        <time>2025-07-10T15:39:16.000Z</time>
      </trkpt>
      <trkpt lat="45.04128" lon="5.70616">
        <ele>408.984519</ele>
        <time>2025-07-10T15:39:17.000Z</time>
      </trkpt>
      <trkpt lat="45.04133" lon="5.7062">
        <ele>408.902409</ele>
        <time>2025-07-10T15:39:18.000Z</time>
      </trkpt>
      <trkpt lat="45.04137" lon="5.70624">
        <ele>408.823366</ele>
        <time>2025-07-10T15:39:19.000Z</time>
      </trkpt>
      <trkpt lat="45.04142" lon="5.70629">
        <ele>408.742488</ele>
        <time>2025-07-10T15:39:20.000Z</time>
      </trkpt>
      <trkpt lat="45.04146" lon="5.70634">
        <ele>408.661045</ele>
        <time>2025-07-10T15:39:21.000Z</time>
      </trkpt>
      <trkpt lat="45.04151" lon="5.70639">
        <ele>408.57601</ele>
        <time>2025-07-10T15:39:22.000Z</time>
      </trkpt>
      <trkpt lat="45.04155" lon="5.70643">
        <ele>408.493337</ele>
        <time>2025-07-10T15:39:23.000Z</time>
      </trkpt>
      <trkpt lat="45.0416" lon="5.70648">
        <ele>408.410701</ele>
        <time>2025-07-10T15:39:24.000Z</time>
      </trkpt>
      <trkpt lat="45.04165" lon="5.70652">
        <ele>408.328658</ele>
        <time>2025-07-10T15:39:25.000Z</time>
      </trkpt>
      <trkpt lat="45.04169" lon="5.70657">
        <ele>408.247777</ele>
        <time>2025-07-10T15:39:26.000Z</time>
      </trkpt>
      <trkpt lat="45.04174" lon="5.70661">
        <ele>408.163873</ele>
        <time>2025-07-10T15:39:27.000Z</time>
      </trkpt>
      <trkpt lat="45.04179" lon="5.70665">
        <ele>408.081077</ele>
        <time>2025-07-10T15:39:28.000Z</time>
      </trkpt>
      <trkpt lat="45.04184" lon="5.70669">
        <ele>408.068536</ele>
        <time>2025-07-10T15:39:29.000Z</time>
      </trkpt>
      <trkpt lat="45.04188" lon="5.70674">
        <ele>408.068536</ele>
        <time>2025-07-10T15:39:30.000Z</time>
      </trkpt>
      <trkpt lat="45.04193" lon="5.70678">
        <ele>408.068536</ele>
        <time>2025-07-10T15:39:31.000Z</time>
      </trkpt>
      <trkpt lat="45.04198" lon="5.70682">
        <ele>408.068536</ele>
        <time>2025-07-10T15:39:32.000Z</time>
      </trkpt>
      <trkpt lat="45.04203" lon="5.70686">
        <ele>408.068536</ele>
        <time>2025-07-10T15:39:33.000Z</time>
      </trkpt>
      <trkpt lat="45.04207" lon="5.70691">
        <ele>408.068536</ele>
        <time>2025-07-10T15:39:34.000Z</time>
      </trkpt>
      <trkpt lat="45.04212" lon="5.70695">
        <ele>408.068536</ele>
        <time>2025-07-10T15:39:35.000Z</time>
      </trkpt>
      <trkpt lat="45.04216" lon="5.70699">
        <ele>408.068536</ele>
        <time>2025-07-10T15:39:36.000Z</time>
      </trkpt>
      <trkpt lat="45.04221" lon="5.70703">
        <ele>408.068536</ele>
        <time>2025-07-10T15:39:37.000Z</time>
      </trkpt>
      <trkpt lat="45.04226" lon="5.70708">
        <ele>408.068536</ele>
        <time>2025-07-10T15:39:38.000Z</time>
      </trkpt>
      <trkpt lat="45.0423" lon="5.70712">
        <ele>408.068536</ele>
        <time>2025-07-10T15:39:39.000Z</time>
      </trkpt>
      <trkpt lat="45.04235" lon="5.70716">
        <ele>408.068536</ele>
        <time>2025-07-10T15:39:40.000Z</time>
      </trkpt>
      <trkpt lat="45.04239" lon="5.7072">
        <ele>408.068536</ele>
        <time>2025-07-10T15:39:41.000Z</time>
      </trkpt>
      <trkpt lat="45.04244" lon="5.70724">
        <ele>408.068536</ele>
        <time>2025-07-10T15:39:42.000Z</time>
      </trkpt>
      <trkpt lat="45.04249" lon="5.70728">
        <ele>408.068536</ele>
        <time>2025-07-10T15:39:43.000Z</time>
      </trkpt>
      <trkpt lat="45.04253" lon="5.70731">
        <ele>408.068536</ele>
        <time>2025-07-10T15:39:44.000Z</time>
      </trkpt>
      <trkpt lat="45.04258" lon="5.70735">
        <ele>408.068536</ele>
        <time>2025-07-10T15:39:45.000Z</time>
      </trkpt>
      <trkpt lat="45.04263" lon="5.70738">
        <ele>408.068536</ele>
        <time>2025-07-10T15:39:46.000Z</time>
      </trkpt>
      <trkpt lat="45.04268" lon="5.70741">
        <ele>408.068536</ele>
        <time>2025-07-10T15:39:47.000Z</time>
      </trkpt>
      <trkpt lat="45.04272" lon="5.70745">
        <ele>408.068536</ele>
        <time>2025-07-10T15:39:48.000Z</time>
      </trkpt>
      <trkpt lat="45.04276" lon="5.70748">
        <ele>408.068536</ele>
        <time>2025-07-10T15:39:49.000Z</time>
      </trkpt>
      <trkpt lat="45.0428" lon="5.70752">
        <ele>408.068536</ele>
        <time>2025-07-10T15:39:50.000Z</time>
      </trkpt>
      <trkpt lat="45.04284" lon="5.70755">
        <ele>408.068536</ele>
        <time>2025-07-10T15:39:51.000Z</time>
      </trkpt>
      <trkpt lat="45.04289" lon="5.70758">
        <ele>408.068536</ele>
        <time>2025-07-10T15:39:52.000Z</time>
      </trkpt>
      <trkpt lat="45.04293" lon="5.70761">
        <ele>408.068536</ele>
        <time>2025-07-10T15:39:53.000Z</time>
      </trkpt>
      <trkpt lat="45.04296" lon="5.70764">
        <ele>408.068536</ele>
        <time>2025-07-10T15:39:54.000Z</time>
      </trkpt>
      <trkpt lat="45.043" lon="5.70767">
        <ele>408.068536</ele>
        <time>2025-07-10T15:39:55.000Z</time>
      </trkpt>
      <trkpt lat="45.04303" lon="5.7077">
        <ele>408.068536</ele>
        <time>2025-07-10T15:39:56.000Z</time>
      </trkpt>
      <trkpt lat="45.04307" lon="5.70771">
        <ele>408.068536</ele>
        <time>2025-07-10T15:39:57.000Z</time>
      </trkpt>
      <trkpt lat="45.0431" lon="5.70771">
        <ele>408.068536</ele>
        <time>2025-07-10T15:39:58.000Z</time>
      </trkpt>
      <trkpt lat="45.04312" lon="5.7077">
        <ele>408.068536</ele>
        <time>2025-07-10T15:39:59.000Z</time>
      </trkpt>
      <trkpt lat="45.04314" lon="5.7077">
        <ele>408.068536</ele>
        <time>2025-07-10T15:40:00.000Z</time>
      </trkpt>
      <trkpt lat="45.04316" lon="5.70769">
        <ele>408.068536</ele>
        <time>2025-07-10T15:40:01.000Z</time>
      </trkpt>
      <trkpt lat="45.04319" lon="5.70769">
        <ele>408.068536</ele>
        <time>2025-07-10T15:40:02.000Z</time>
      </trkpt>
      <trkpt lat="45.04321" lon="5.7077">
        <ele>408.068536</ele>
        <time>2025-07-10T15:40:03.000Z</time>
      </trkpt>
      <trkpt lat="45.04323" lon="5.70771">
        <ele>408.068536</ele>
        <time>2025-07-10T15:40:04.000Z</time>
      </trkpt>
      <trkpt lat="45.04326" lon="5.70772">
        <ele>408.068536</ele>
        <time>2025-07-10T15:40:05.000Z</time>
      </trkpt>
      <trkpt lat="45.04327" lon="5.70773">
        <ele>408.068536</ele>
        <time>2025-07-10T15:40:06.000Z</time>
      </trkpt>
      <trkpt lat="45.04329" lon="5.70772">
        <ele>408.068536</ele>
        <time>2025-07-10T15:40:07.000Z</time>
      </trkpt>
      <trkpt lat="45.0433" lon="5.70771">
        <ele>408.068536</ele>
        <time>2025-07-10T15:40:08.000Z</time>
      </trkpt>
      <trkpt lat="45.04332" lon="5.70769">
        <ele>408.068536</ele>
        <time>2025-07-10T15:40:09.000Z</time>
      </trkpt>
      <trkpt lat="45.04333" lon="5.70768">
        <ele>408.068536</ele>
        <time>2025-07-10T15:40:10.000Z</time>
      </trkpt>
      <trkpt lat="45.04334" lon="5.70766">
        <ele>408.068536</ele>
        <time>2025-07-10T15:40:11.000Z</time>
      </trkpt>
      <trkpt lat="45.04336" lon="5.70764">
        <ele>408.068536</ele>
        <time>2025-07-10T15:40:12.000Z</time>
      </trkpt>
      <trkpt lat="45.04337" lon="5.70761">
        <ele>408.068536</ele>
        <time>2025-07-10T15:40:13.000Z</time>
      </trkpt>
      <trkpt lat="45.04338" lon="5.70758">
        <ele>408.068536</ele>
        <time>2025-07-10T15:40:14.000Z</time>
      </trkpt>
      <trkpt lat="45.04337" lon="5.70755">
        <ele>408.068536</ele>
        <time>2025-07-10T15:40:15.000Z</time>
      </trkpt>
    </trkseg>
  </trk>
</gpx>